<?xml version="1.0" encoding="UTF-8" standalone="no" ?>
<gpx xmlns="http://www.topografix.com/GPX/1/1" xmlns:xsi="http://www.w3.org/2001/XMLSchema-instance" xsi:schemaLocation="http://www.topografix.com/GPX/1/1 http://www.topografix.com/GPX/1/1/gpx.xsd" version="1.1" creator="VisuGPX - https://www.visugpx.com">
  <metadata>
    <name>2023 09 02 A/R dom/Genay par le verdun</name>
  </metadata>
  <trk>
    <name><![CDATA[2023 09 02 A/R dom/Genay par le verdun]]></name>
    <trkseg>
      <trkpt lat="45.83316" lon="4.70966">
        <ele>357.38684</ele>
        <time>2023-09-02T12:06:48.373Z</time>
      </trkpt>
      <trkpt lat="45.83314" lon="4.70967">
        <ele>357.5076</ele>
        <time>2023-09-02T12:07:05.000Z</time>
      </trkpt>
      <trkpt lat="45.83314" lon="4.70973">
        <ele>357.67471</ele>
        <time>2023-09-02T12:07:07.000Z</time>
      </trkpt>
      <trkpt lat="45.83314" lon="4.70977">
        <ele>357.73331</ele>
        <time>2023-09-02T12:07:08.000Z</time>
      </trkpt>
      <trkpt lat="45.83312" lon="4.70981">
        <ele>357.86841</ele>
        <time>2023-09-02T12:07:09.000Z</time>
      </trkpt>
      <trkpt lat="45.8331" lon="4.70985">
        <ele>357.92007</ele>
        <time>2023-09-02T12:07:10.000Z</time>
      </trkpt>
      <trkpt lat="45.83309" lon="4.70989">
        <ele>357.87482</ele>
        <time>2023-09-02T12:07:11.000Z</time>
      </trkpt>
      <trkpt lat="45.83308" lon="4.70995">
        <ele>357.81805</ele>
        <time>2023-09-02T12:07:12.000Z</time>
      </trkpt>
      <trkpt lat="45.8331" lon="4.71">
        <ele>357.78058</ele>
        <time>2023-09-02T12:07:13.000Z</time>
      </trkpt>
      <trkpt lat="45.83313" lon="4.71003">
        <ele>357.75458</ele>
        <time>2023-09-02T12:07:14.000Z</time>
      </trkpt>
      <trkpt lat="45.83316" lon="4.71003">
        <ele>357.75418</ele>
        <time>2023-09-02T12:07:15.000Z</time>
      </trkpt>
      <trkpt lat="45.8332" lon="4.71002">
        <ele>357.74658</ele>
        <time>2023-09-02T12:07:16.000Z</time>
      </trkpt>
      <trkpt lat="45.83324" lon="4.71002">
        <ele>357.81256</ele>
        <time>2023-09-02T12:07:17.000Z</time>
      </trkpt>
      <trkpt lat="45.83326" lon="4.71001">
        <ele>357.90582</ele>
        <time>2023-09-02T12:07:18.000Z</time>
      </trkpt>
      <trkpt lat="45.8333" lon="4.71001">
        <ele>358.03775</ele>
        <time>2023-09-02T12:07:19.000Z</time>
      </trkpt>
      <trkpt lat="45.83334" lon="4.71001">
        <ele>358.16348</ele>
        <time>2023-09-02T12:07:20.000Z</time>
      </trkpt>
      <trkpt lat="45.83337" lon="4.71001">
        <ele>358.25253</ele>
        <time>2023-09-02T12:07:21.000Z</time>
      </trkpt>
      <trkpt lat="45.83341" lon="4.71">
        <ele>358.33356</ele>
        <time>2023-09-02T12:07:22.000Z</time>
      </trkpt>
      <trkpt lat="45.83345" lon="4.70999">
        <ele>358.38437</ele>
        <time>2023-09-02T12:07:23.000Z</time>
      </trkpt>
      <trkpt lat="45.83349" lon="4.70998">
        <ele>358.42502</ele>
        <time>2023-09-02T12:07:24.000Z</time>
      </trkpt>
      <trkpt lat="45.83354" lon="4.70997">
        <ele>358.50342</ele>
        <time>2023-09-02T12:07:25.000Z</time>
      </trkpt>
      <trkpt lat="45.83358" lon="4.70996">
        <ele>358.5589</ele>
        <time>2023-09-02T12:07:26.000Z</time>
      </trkpt>
      <trkpt lat="45.83363" lon="4.70995">
        <ele>358.6026</ele>
        <time>2023-09-02T12:07:27.000Z</time>
      </trkpt>
      <trkpt lat="45.83367" lon="4.70995">
        <ele>358.64313</ele>
        <time>2023-09-02T12:07:28.000Z</time>
      </trkpt>
      <trkpt lat="45.83373" lon="4.70992">
        <ele>358.64838</ele>
        <time>2023-09-02T12:07:29.000Z</time>
      </trkpt>
      <trkpt lat="45.83377" lon="4.70993">
        <ele>358.62341</ele>
        <time>2023-09-02T12:07:30.000Z</time>
      </trkpt>
      <trkpt lat="45.83382" lon="4.70992">
        <ele>358.60278</ele>
        <time>2023-09-02T12:07:31.000Z</time>
      </trkpt>
      <trkpt lat="45.83386" lon="4.70992">
        <ele>358.55505</ele>
        <time>2023-09-02T12:07:32.000Z</time>
      </trkpt>
      <trkpt lat="45.8339" lon="4.70992">
        <ele>358.52057</ele>
        <time>2023-09-02T12:07:33.000Z</time>
      </trkpt>
      <trkpt lat="45.83394" lon="4.70991">
        <ele>358.50372</ele>
        <time>2023-09-02T12:07:34.000Z</time>
      </trkpt>
      <trkpt lat="45.83399" lon="4.70991">
        <ele>358.46808</ele>
        <time>2023-09-02T12:07:35.000Z</time>
      </trkpt>
      <trkpt lat="45.83403" lon="4.7099">
        <ele>358.44437</ele>
        <time>2023-09-02T12:07:36.000Z</time>
      </trkpt>
      <trkpt lat="45.83408" lon="4.70989">
        <ele>358.40793</ele>
        <time>2023-09-02T12:07:37.000Z</time>
      </trkpt>
      <trkpt lat="45.83413" lon="4.70988">
        <ele>358.34726</ele>
        <time>2023-09-02T12:07:38.000Z</time>
      </trkpt>
      <trkpt lat="45.83418" lon="4.70988">
        <ele>358.24084</ele>
        <time>2023-09-02T12:07:39.000Z</time>
      </trkpt>
      <trkpt lat="45.83424" lon="4.70988">
        <ele>358.10712</ele>
        <time>2023-09-02T12:07:40.000Z</time>
      </trkpt>
      <trkpt lat="45.8343" lon="4.70989">
        <ele>357.98138</ele>
        <time>2023-09-02T12:07:41.000Z</time>
      </trkpt>
      <trkpt lat="45.83436" lon="4.70989">
        <ele>357.83292</ele>
        <time>2023-09-02T12:07:42.000Z</time>
      </trkpt>
      <trkpt lat="45.83441" lon="4.70989">
        <ele>357.70471</ele>
        <time>2023-09-02T12:07:43.000Z</time>
      </trkpt>
      <trkpt lat="45.83448" lon="4.70986">
        <ele>357.59717</ele>
        <time>2023-09-02T12:07:44.000Z</time>
      </trkpt>
      <trkpt lat="45.83455" lon="4.70988">
        <ele>357.45023</ele>
        <time>2023-09-02T12:07:45.000Z</time>
      </trkpt>
      <trkpt lat="45.83462" lon="4.70987">
        <ele>357.31903</ele>
        <time>2023-09-02T12:07:46.000Z</time>
      </trkpt>
      <trkpt lat="45.83469" lon="4.70988">
        <ele>357.14853</ele>
        <time>2023-09-02T12:07:47.000Z</time>
      </trkpt>
      <trkpt lat="45.83476" lon="4.70988">
        <ele>356.97284</ele>
        <time>2023-09-02T12:07:48.000Z</time>
      </trkpt>
      <trkpt lat="45.83483" lon="4.70988">
        <ele>356.81616</ele>
        <time>2023-09-02T12:07:49.000Z</time>
      </trkpt>
      <trkpt lat="45.8349" lon="4.7099">
        <ele>356.6474</ele>
        <time>2023-09-02T12:07:50.000Z</time>
      </trkpt>
      <trkpt lat="45.83496" lon="4.7099">
        <ele>356.47137</ele>
        <time>2023-09-02T12:07:51.000Z</time>
      </trkpt>
      <trkpt lat="45.83504" lon="4.70992">
        <ele>356.33456</ele>
        <time>2023-09-02T12:07:52.000Z</time>
      </trkpt>
      <trkpt lat="45.8351" lon="4.70994">
        <ele>356.17761</ele>
        <time>2023-09-02T12:07:53.000Z</time>
      </trkpt>
      <trkpt lat="45.83517" lon="4.70998">
        <ele>355.99127</ele>
        <time>2023-09-02T12:07:54.000Z</time>
      </trkpt>
      <trkpt lat="45.83522" lon="4.71004">
        <ele>355.81778</ele>
        <time>2023-09-02T12:07:55.000Z</time>
      </trkpt>
      <trkpt lat="45.83527" lon="4.71009">
        <ele>355.62958</ele>
        <time>2023-09-02T12:07:56.000Z</time>
      </trkpt>
      <trkpt lat="45.83533" lon="4.71013">
        <ele>355.39606</ele>
        <time>2023-09-02T12:07:57.000Z</time>
      </trkpt>
      <trkpt lat="45.83539" lon="4.71018">
        <ele>355.15802</ele>
        <time>2023-09-02T12:07:58.000Z</time>
      </trkpt>
      <trkpt lat="45.83545" lon="4.71021">
        <ele>354.93661</ele>
        <time>2023-09-02T12:07:59.000Z</time>
      </trkpt>
      <trkpt lat="45.8355" lon="4.71026">
        <ele>354.72891</ele>
        <time>2023-09-02T12:08:00.000Z</time>
      </trkpt>
      <trkpt lat="45.83556" lon="4.71031">
        <ele>354.5274</ele>
        <time>2023-09-02T12:08:01.000Z</time>
      </trkpt>
      <trkpt lat="45.83563" lon="4.71035">
        <ele>354.35635</ele>
        <time>2023-09-02T12:08:02.000Z</time>
      </trkpt>
      <trkpt lat="45.83568" lon="4.71039">
        <ele>354.15448</ele>
        <time>2023-09-02T12:08:03.000Z</time>
      </trkpt>
      <trkpt lat="45.83575" lon="4.71043">
        <ele>353.93195</ele>
        <time>2023-09-02T12:08:04.000Z</time>
      </trkpt>
      <trkpt lat="45.83581" lon="4.71046">
        <ele>353.76483</ele>
        <time>2023-09-02T12:08:05.000Z</time>
      </trkpt>
      <trkpt lat="45.83588" lon="4.71051">
        <ele>353.59067</ele>
        <time>2023-09-02T12:08:06.000Z</time>
      </trkpt>
      <trkpt lat="45.83594" lon="4.71054">
        <ele>353.40277</ele>
        <time>2023-09-02T12:08:07.000Z</time>
      </trkpt>
      <trkpt lat="45.836" lon="4.71059">
        <ele>353.24026</ele>
        <time>2023-09-02T12:08:08.000Z</time>
      </trkpt>
      <trkpt lat="45.83606" lon="4.71064">
        <ele>353.05481</ele>
        <time>2023-09-02T12:08:09.000Z</time>
      </trkpt>
      <trkpt lat="45.83613" lon="4.71069">
        <ele>352.91089</ele>
        <time>2023-09-02T12:08:10.000Z</time>
      </trkpt>
      <trkpt lat="45.83619" lon="4.71076">
        <ele>352.78082</ele>
        <time>2023-09-02T12:08:11.000Z</time>
      </trkpt>
      <trkpt lat="45.83625" lon="4.71082">
        <ele>352.63632</ele>
        <time>2023-09-02T12:08:12.000Z</time>
      </trkpt>
      <trkpt lat="45.83632" lon="4.71087">
        <ele>352.48358</ele>
        <time>2023-09-02T12:08:13.000Z</time>
      </trkpt>
      <trkpt lat="45.83638" lon="4.71093">
        <ele>352.35098</ele>
        <time>2023-09-02T12:08:14.000Z</time>
      </trkpt>
      <trkpt lat="45.83644" lon="4.71099">
        <ele>352.21744</ele>
        <time>2023-09-02T12:08:15.000Z</time>
      </trkpt>
      <trkpt lat="45.8365" lon="4.71105">
        <ele>352.06332</ele>
        <time>2023-09-02T12:08:16.000Z</time>
      </trkpt>
      <trkpt lat="45.83657" lon="4.71111">
        <ele>351.91324</ele>
        <time>2023-09-02T12:08:17.000Z</time>
      </trkpt>
      <trkpt lat="45.83663" lon="4.71117">
        <ele>351.75943</ele>
        <time>2023-09-02T12:08:18.000Z</time>
      </trkpt>
      <trkpt lat="45.8367" lon="4.71122">
        <ele>351.57333</ele>
        <time>2023-09-02T12:08:19.000Z</time>
      </trkpt>
      <trkpt lat="45.83677" lon="4.71129">
        <ele>351.38541</ele>
        <time>2023-09-02T12:08:20.000Z</time>
      </trkpt>
      <trkpt lat="45.83684" lon="4.71135">
        <ele>351.17889</ele>
        <time>2023-09-02T12:08:21.000Z</time>
      </trkpt>
      <trkpt lat="45.83691" lon="4.71141">
        <ele>350.97717</ele>
        <time>2023-09-02T12:08:22.000Z</time>
      </trkpt>
      <trkpt lat="45.83697" lon="4.71145">
        <ele>350.7677</ele>
        <time>2023-09-02T12:08:23.000Z</time>
      </trkpt>
      <trkpt lat="45.837" lon="4.71151">
        <ele>350.54922</ele>
        <time>2023-09-02T12:08:24.000Z</time>
      </trkpt>
      <trkpt lat="45.83698" lon="4.71158">
        <ele>350.34631</ele>
        <time>2023-09-02T12:08:25.000Z</time>
      </trkpt>
      <trkpt lat="45.83697" lon="4.71163">
        <ele>350.12347</ele>
        <time>2023-09-02T12:08:26.000Z</time>
      </trkpt>
      <trkpt lat="45.83694" lon="4.71169">
        <ele>349.9382</ele>
        <time>2023-09-02T12:08:27.000Z</time>
      </trkpt>
      <trkpt lat="45.83692" lon="4.71174">
        <ele>349.74701</ele>
        <time>2023-09-02T12:08:28.000Z</time>
      </trkpt>
      <trkpt lat="45.83691" lon="4.7118">
        <ele>349.56906</ele>
        <time>2023-09-02T12:08:29.000Z</time>
      </trkpt>
      <trkpt lat="45.83688" lon="4.71186">
        <ele>349.40524</ele>
        <time>2023-09-02T12:08:30.000Z</time>
      </trkpt>
      <trkpt lat="45.83685" lon="4.71191">
        <ele>349.20108</ele>
        <time>2023-09-02T12:08:31.000Z</time>
      </trkpt>
      <trkpt lat="45.83683" lon="4.71198">
        <ele>349.00345</ele>
        <time>2023-09-02T12:08:32.000Z</time>
      </trkpt>
      <trkpt lat="45.83681" lon="4.71205">
        <ele>348.80173</ele>
        <time>2023-09-02T12:08:33.000Z</time>
      </trkpt>
      <trkpt lat="45.83679" lon="4.71211">
        <ele>348.56567</ele>
        <time>2023-09-02T12:08:34.000Z</time>
      </trkpt>
      <trkpt lat="45.83677" lon="4.71218">
        <ele>348.34015</ele>
        <time>2023-09-02T12:08:35.000Z</time>
      </trkpt>
      <trkpt lat="45.83675" lon="4.71225">
        <ele>348.12125</ele>
        <time>2023-09-02T12:08:36.000Z</time>
      </trkpt>
      <trkpt lat="45.83674" lon="4.71231">
        <ele>347.86636</ele>
        <time>2023-09-02T12:08:37.000Z</time>
      </trkpt>
      <trkpt lat="45.83672" lon="4.71238">
        <ele>347.62573</ele>
        <time>2023-09-02T12:08:38.000Z</time>
      </trkpt>
      <trkpt lat="45.83672" lon="4.71244">
        <ele>347.44046</ele>
        <time>2023-09-02T12:08:39.000Z</time>
      </trkpt>
      <trkpt lat="45.83672" lon="4.71252">
        <ele>347.30548</ele>
        <time>2023-09-02T12:08:40.000Z</time>
      </trkpt>
      <trkpt lat="45.83671" lon="4.71258">
        <ele>347.20987</ele>
        <time>2023-09-02T12:08:41.000Z</time>
      </trkpt>
      <trkpt lat="45.8367" lon="4.71266">
        <ele>347.04233</ele>
        <time>2023-09-02T12:08:42.000Z</time>
      </trkpt>
      <trkpt lat="45.83669" lon="4.71272">
        <ele>346.92584</ele>
        <time>2023-09-02T12:08:43.000Z</time>
      </trkpt>
      <trkpt lat="45.83667" lon="4.71277">
        <ele>346.87808</ele>
        <time>2023-09-02T12:08:44.000Z</time>
      </trkpt>
      <trkpt lat="45.83667" lon="4.71283">
        <ele>346.77658</ele>
        <time>2023-09-02T12:08:45.000Z</time>
      </trkpt>
      <trkpt lat="45.83665" lon="4.7129">
        <ele>346.6864</ele>
        <time>2023-09-02T12:08:46.000Z</time>
      </trkpt>
      <trkpt lat="45.83662" lon="4.71297">
        <ele>346.56268</ele>
        <time>2023-09-02T12:08:47.000Z</time>
      </trkpt>
      <trkpt lat="45.83661" lon="4.71304">
        <ele>346.4505</ele>
        <time>2023-09-02T12:08:48.000Z</time>
      </trkpt>
      <trkpt lat="45.83659" lon="4.7131">
        <ele>346.33099</ele>
        <time>2023-09-02T12:08:49.000Z</time>
      </trkpt>
      <trkpt lat="45.83658" lon="4.71317">
        <ele>346.22125</ele>
        <time>2023-09-02T12:08:50.000Z</time>
      </trkpt>
      <trkpt lat="45.83656" lon="4.71324">
        <ele>346.14883</ele>
        <time>2023-09-02T12:08:51.000Z</time>
      </trkpt>
      <trkpt lat="45.83654" lon="4.71331">
        <ele>346.08325</ele>
        <time>2023-09-02T12:08:52.000Z</time>
      </trkpt>
      <trkpt lat="45.83652" lon="4.71338">
        <ele>346.0163</ele>
        <time>2023-09-02T12:08:53.000Z</time>
      </trkpt>
      <trkpt lat="45.83651" lon="4.71345">
        <ele>346.01346</ele>
        <time>2023-09-02T12:08:54.000Z</time>
      </trkpt>
      <trkpt lat="45.83649" lon="4.71352">
        <ele>346.00348</ele>
        <time>2023-09-02T12:08:55.000Z</time>
      </trkpt>
      <trkpt lat="45.83648" lon="4.7136">
        <ele>346.01877</ele>
        <time>2023-09-02T12:08:56.000Z</time>
      </trkpt>
      <trkpt lat="45.83647" lon="4.71368">
        <ele>346.07608</ele>
        <time>2023-09-02T12:08:57.000Z</time>
      </trkpt>
      <trkpt lat="45.83645" lon="4.71375">
        <ele>346.10037</ele>
        <time>2023-09-02T12:08:58.000Z</time>
      </trkpt>
      <trkpt lat="45.83644" lon="4.71383">
        <ele>346.09583</ele>
        <time>2023-09-02T12:08:59.000Z</time>
      </trkpt>
      <trkpt lat="45.83642" lon="4.71391">
        <ele>346.10492</ele>
        <time>2023-09-02T12:09:00.000Z</time>
      </trkpt>
      <trkpt lat="45.8364" lon="4.71398">
        <ele>346.02957</ele>
        <time>2023-09-02T12:09:01.000Z</time>
      </trkpt>
      <trkpt lat="45.83638" lon="4.71406">
        <ele>346.02667</ele>
        <time>2023-09-02T12:09:02.000Z</time>
      </trkpt>
      <trkpt lat="45.83637" lon="4.71413">
        <ele>346.06647</ele>
        <time>2023-09-02T12:09:03.000Z</time>
      </trkpt>
      <trkpt lat="45.83636" lon="4.7142">
        <ele>346.07645</ele>
        <time>2023-09-02T12:09:04.000Z</time>
      </trkpt>
      <trkpt lat="45.83635" lon="4.71428">
        <ele>346.14117</ele>
        <time>2023-09-02T12:09:05.000Z</time>
      </trkpt>
      <trkpt lat="45.83634" lon="4.71436">
        <ele>346.22653</ele>
        <time>2023-09-02T12:09:06.000Z</time>
      </trkpt>
      <trkpt lat="45.83632" lon="4.71443">
        <ele>346.37952</ele>
        <time>2023-09-02T12:09:07.000Z</time>
      </trkpt>
      <trkpt lat="45.83629" lon="4.7145">
        <ele>346.53003</ele>
        <time>2023-09-02T12:09:08.000Z</time>
      </trkpt>
      <trkpt lat="45.83626" lon="4.71458">
        <ele>346.61655</ele>
        <time>2023-09-02T12:09:09.000Z</time>
      </trkpt>
      <trkpt lat="45.83623" lon="4.71464">
        <ele>346.69882</ele>
        <time>2023-09-02T12:09:10.000Z</time>
      </trkpt>
      <trkpt lat="45.83619" lon="4.71471">
        <ele>346.80322</ele>
        <time>2023-09-02T12:09:11.000Z</time>
      </trkpt>
      <trkpt lat="45.83615" lon="4.71477">
        <ele>346.91669</ele>
        <time>2023-09-02T12:09:12.000Z</time>
      </trkpt>
      <trkpt lat="45.83611" lon="4.71481">
        <ele>347.03668</ele>
        <time>2023-09-02T12:09:13.000Z</time>
      </trkpt>
      <trkpt lat="45.83608" lon="4.71488">
        <ele>347.10397</ele>
        <time>2023-09-02T12:09:14.000Z</time>
      </trkpt>
      <trkpt lat="45.83608" lon="4.71495">
        <ele>347.18918</ele>
        <time>2023-09-02T12:09:15.000Z</time>
      </trkpt>
      <trkpt lat="45.83609" lon="4.71503">
        <ele>347.26651</ele>
        <time>2023-09-02T12:09:16.000Z</time>
      </trkpt>
      <trkpt lat="45.83612" lon="4.7151">
        <ele>347.31372</ele>
        <time>2023-09-02T12:09:17.000Z</time>
      </trkpt>
      <trkpt lat="45.83615" lon="4.71517">
        <ele>347.38153</ele>
        <time>2023-09-02T12:09:18.000Z</time>
      </trkpt>
      <trkpt lat="45.83617" lon="4.71525">
        <ele>347.39584</ele>
        <time>2023-09-02T12:09:19.000Z</time>
      </trkpt>
      <trkpt lat="45.8362" lon="4.71533">
        <ele>347.34283</ele>
        <time>2023-09-02T12:09:20.000Z</time>
      </trkpt>
      <trkpt lat="45.83621" lon="4.71541">
        <ele>347.33994</ele>
        <time>2023-09-02T12:09:21.000Z</time>
      </trkpt>
      <trkpt lat="45.8362" lon="4.71547">
        <ele>347.26349</ele>
        <time>2023-09-02T12:09:22.000Z</time>
      </trkpt>
      <trkpt lat="45.8362" lon="4.71551">
        <ele>347.08124</ele>
        <time>2023-09-02T12:09:23.000Z</time>
      </trkpt>
      <trkpt lat="45.8362" lon="4.71556">
        <ele>346.86075</ele>
        <time>2023-09-02T12:09:24.000Z</time>
      </trkpt>
      <trkpt lat="45.83621" lon="4.71561">
        <ele>346.5896</ele>
        <time>2023-09-02T12:09:25.000Z</time>
      </trkpt>
      <trkpt lat="45.83621" lon="4.71568">
        <ele>346.27606</ele>
        <time>2023-09-02T12:09:26.000Z</time>
      </trkpt>
      <trkpt lat="45.8362" lon="4.71574">
        <ele>345.91788</ele>
        <time>2023-09-02T12:09:27.000Z</time>
      </trkpt>
      <trkpt lat="45.83621" lon="4.71579">
        <ele>345.55469</ele>
        <time>2023-09-02T12:09:28.000Z</time>
      </trkpt>
      <trkpt lat="45.83621" lon="4.71585">
        <ele>345.26349</ele>
        <time>2023-09-02T12:09:29.000Z</time>
      </trkpt>
      <trkpt lat="45.83622" lon="4.7159">
        <ele>344.97772</ele>
        <time>2023-09-02T12:09:30.000Z</time>
      </trkpt>
      <trkpt lat="45.83624" lon="4.71596">
        <ele>344.71439</ele>
        <time>2023-09-02T12:09:31.000Z</time>
      </trkpt>
      <trkpt lat="45.83625" lon="4.71602">
        <ele>344.41446</ele>
        <time>2023-09-02T12:09:32.000Z</time>
      </trkpt>
      <trkpt lat="45.83627" lon="4.71612">
        <ele>344.13486</ele>
        <time>2023-09-02T12:09:33.000Z</time>
      </trkpt>
      <trkpt lat="45.83627" lon="4.71619">
        <ele>343.83051</ele>
        <time>2023-09-02T12:09:34.000Z</time>
      </trkpt>
      <trkpt lat="45.83629" lon="4.71624">
        <ele>343.46353</ele>
        <time>2023-09-02T12:09:35.000Z</time>
      </trkpt>
      <trkpt lat="45.83633" lon="4.71629">
        <ele>343.11197</ele>
        <time>2023-09-02T12:09:36.000Z</time>
      </trkpt>
      <trkpt lat="45.83636" lon="4.71635">
        <ele>342.78714</ele>
        <time>2023-09-02T12:09:37.000Z</time>
      </trkpt>
      <trkpt lat="45.8364" lon="4.7164">
        <ele>342.38757</ele>
        <time>2023-09-02T12:09:38.000Z</time>
      </trkpt>
      <trkpt lat="45.83644" lon="4.71645">
        <ele>341.94342</ele>
        <time>2023-09-02T12:09:39.000Z</time>
      </trkpt>
      <trkpt lat="45.83649" lon="4.7165">
        <ele>341.45963</ele>
        <time>2023-09-02T12:09:40.000Z</time>
      </trkpt>
      <trkpt lat="45.83655" lon="4.71653">
        <ele>341.0473</ele>
        <time>2023-09-02T12:09:41.000Z</time>
      </trkpt>
      <trkpt lat="45.83661" lon="4.71654">
        <ele>340.63922</ele>
        <time>2023-09-02T12:09:42.000Z</time>
      </trkpt>
      <trkpt lat="45.83667" lon="4.71653">
        <ele>340.29443</ele>
        <time>2023-09-02T12:09:43.000Z</time>
      </trkpt>
      <trkpt lat="45.83675" lon="4.7165">
        <ele>339.94861</ele>
        <time>2023-09-02T12:09:44.000Z</time>
      </trkpt>
      <trkpt lat="45.83679" lon="4.71648">
        <ele>339.59714</ele>
        <time>2023-09-02T12:09:45.000Z</time>
      </trkpt>
      <trkpt lat="45.83684" lon="4.71646">
        <ele>339.27386</ele>
        <time>2023-09-02T12:09:46.000Z</time>
      </trkpt>
      <trkpt lat="45.83688" lon="4.71644">
        <ele>338.88559</ele>
        <time>2023-09-02T12:09:47.000Z</time>
      </trkpt>
      <trkpt lat="45.83694" lon="4.71643">
        <ele>338.492</ele>
        <time>2023-09-02T12:09:48.000Z</time>
      </trkpt>
      <trkpt lat="45.83699" lon="4.71646">
        <ele>338.0943</ele>
        <time>2023-09-02T12:09:49.000Z</time>
      </trkpt>
      <trkpt lat="45.83703" lon="4.7165">
        <ele>337.72626</ele>
        <time>2023-09-02T12:09:50.000Z</time>
      </trkpt>
      <trkpt lat="45.83707" lon="4.71656">
        <ele>337.38113</ele>
        <time>2023-09-02T12:09:51.000Z</time>
      </trkpt>
      <trkpt lat="45.83711" lon="4.71667">
        <ele>336.9433</ele>
        <time>2023-09-02T12:09:52.000Z</time>
      </trkpt>
      <trkpt lat="45.83715" lon="4.71674">
        <ele>336.51547</ele>
        <time>2023-09-02T12:09:53.000Z</time>
      </trkpt>
      <trkpt lat="45.83718" lon="4.71681">
        <ele>336.14035</ele>
        <time>2023-09-02T12:09:54.000Z</time>
      </trkpt>
      <trkpt lat="45.83722" lon="4.71688">
        <ele>335.78369</ele>
        <time>2023-09-02T12:09:55.000Z</time>
      </trkpt>
      <trkpt lat="45.83725" lon="4.71693">
        <ele>335.33105</ele>
        <time>2023-09-02T12:09:56.000Z</time>
      </trkpt>
      <trkpt lat="45.83729" lon="4.71696">
        <ele>334.87384</ele>
        <time>2023-09-02T12:09:57.000Z</time>
      </trkpt>
      <trkpt lat="45.83734" lon="4.71696">
        <ele>334.46173</ele>
        <time>2023-09-02T12:09:58.000Z</time>
      </trkpt>
      <trkpt lat="45.83737" lon="4.71694">
        <ele>334.11356</ele>
        <time>2023-09-02T12:09:59.000Z</time>
      </trkpt>
      <trkpt lat="45.83741" lon="4.71694">
        <ele>333.74487</ele>
        <time>2023-09-02T12:10:00.000Z</time>
      </trkpt>
      <trkpt lat="45.83745" lon="4.71694">
        <ele>333.33395</ele>
        <time>2023-09-02T12:10:01.000Z</time>
      </trkpt>
      <trkpt lat="45.83748" lon="4.71695">
        <ele>332.98651</ele>
        <time>2023-09-02T12:10:02.000Z</time>
      </trkpt>
      <trkpt lat="45.83752" lon="4.71695">
        <ele>332.67084</ele>
        <time>2023-09-02T12:10:03.000Z</time>
      </trkpt>
      <trkpt lat="45.83755" lon="4.71693">
        <ele>332.3988</ele>
        <time>2023-09-02T12:10:04.000Z</time>
      </trkpt>
      <trkpt lat="45.83758" lon="4.71692">
        <ele>332.17117</ele>
        <time>2023-09-02T12:10:05.000Z</time>
      </trkpt>
      <trkpt lat="45.83761" lon="4.71692">
        <ele>331.75009</ele>
        <time>2023-09-02T12:10:06.000Z</time>
      </trkpt>
      <trkpt lat="45.83764" lon="4.71692">
        <ele>331.51077</ele>
        <time>2023-09-02T12:10:07.000Z</time>
      </trkpt>
      <trkpt lat="45.83767" lon="4.71693">
        <ele>331.28571</ele>
        <time>2023-09-02T12:10:08.000Z</time>
      </trkpt>
      <trkpt lat="45.83771" lon="4.71693">
        <ele>331.0527</ele>
        <time>2023-09-02T12:10:09.000Z</time>
      </trkpt>
      <trkpt lat="45.83774" lon="4.71694">
        <ele>330.78186</ele>
        <time>2023-09-02T12:10:10.000Z</time>
      </trkpt>
      <trkpt lat="45.83778" lon="4.71695">
        <ele>330.45477</ele>
        <time>2023-09-02T12:10:11.000Z</time>
      </trkpt>
      <trkpt lat="45.83781" lon="4.71696">
        <ele>330.25946</ele>
        <time>2023-09-02T12:10:12.000Z</time>
      </trkpt>
      <trkpt lat="45.83784" lon="4.71697">
        <ele>330.07764</ele>
        <time>2023-09-02T12:10:13.000Z</time>
      </trkpt>
      <trkpt lat="45.83787" lon="4.71698">
        <ele>329.90552</ele>
        <time>2023-09-02T12:10:14.000Z</time>
      </trkpt>
      <trkpt lat="45.83791" lon="4.71699">
        <ele>329.77405</ele>
        <time>2023-09-02T12:10:15.000Z</time>
      </trkpt>
      <trkpt lat="45.83794" lon="4.71699">
        <ele>329.73346</ele>
        <time>2023-09-02T12:10:16.000Z</time>
      </trkpt>
      <trkpt lat="45.83797" lon="4.717">
        <ele>329.69055</ele>
        <time>2023-09-02T12:10:17.000Z</time>
      </trkpt>
      <trkpt lat="45.838" lon="4.717">
        <ele>329.71182</ele>
        <time>2023-09-02T12:10:18.000Z</time>
      </trkpt>
      <trkpt lat="45.83804" lon="4.71701">
        <ele>329.7464</ele>
        <time>2023-09-02T12:10:19.000Z</time>
      </trkpt>
      <trkpt lat="45.83808" lon="4.71702">
        <ele>329.88638</ele>
        <time>2023-09-02T12:10:20.000Z</time>
      </trkpt>
      <trkpt lat="45.83811" lon="4.71703">
        <ele>329.94623</ele>
        <time>2023-09-02T12:10:21.000Z</time>
      </trkpt>
      <trkpt lat="45.83814" lon="4.71705">
        <ele>329.94061</ele>
        <time>2023-09-02T12:10:22.000Z</time>
      </trkpt>
      <trkpt lat="45.83818" lon="4.71708">
        <ele>329.89264</ele>
        <time>2023-09-02T12:10:23.000Z</time>
      </trkpt>
      <trkpt lat="45.83822" lon="4.7171">
        <ele>329.84677</ele>
        <time>2023-09-02T12:10:24.000Z</time>
      </trkpt>
      <trkpt lat="45.83829" lon="4.71713">
        <ele>329.80817</ele>
        <time>2023-09-02T12:10:25.000Z</time>
      </trkpt>
      <trkpt lat="45.83834" lon="4.71715">
        <ele>329.94693</ele>
        <time>2023-09-02T12:10:26.000Z</time>
      </trkpt>
      <trkpt lat="45.83839" lon="4.71716">
        <ele>329.99316</ele>
        <time>2023-09-02T12:10:27.000Z</time>
      </trkpt>
      <trkpt lat="45.83845" lon="4.71718">
        <ele>330.03632</ele>
        <time>2023-09-02T12:10:28.000Z</time>
      </trkpt>
      <trkpt lat="45.8385" lon="4.71719">
        <ele>330.17111</ele>
        <time>2023-09-02T12:10:29.000Z</time>
      </trkpt>
      <trkpt lat="45.83855" lon="4.71722">
        <ele>330.30179</ele>
        <time>2023-09-02T12:10:30.000Z</time>
      </trkpt>
      <trkpt lat="45.8386" lon="4.71723">
        <ele>330.4238</ele>
        <time>2023-09-02T12:10:31.000Z</time>
      </trkpt>
      <trkpt lat="45.83865" lon="4.71726">
        <ele>330.6637</ele>
        <time>2023-09-02T12:10:32.000Z</time>
      </trkpt>
      <trkpt lat="45.8387" lon="4.71727">
        <ele>330.83569</ele>
        <time>2023-09-02T12:10:33.000Z</time>
      </trkpt>
      <trkpt lat="45.83875" lon="4.71728">
        <ele>330.97879</ele>
        <time>2023-09-02T12:10:34.000Z</time>
      </trkpt>
      <trkpt lat="45.83881" lon="4.7173">
        <ele>331.09262</ele>
        <time>2023-09-02T12:10:35.000Z</time>
      </trkpt>
      <trkpt lat="45.83886" lon="4.71731">
        <ele>331.3266</ele>
        <time>2023-09-02T12:10:36.000Z</time>
      </trkpt>
      <trkpt lat="45.83891" lon="4.71733">
        <ele>331.60312</ele>
        <time>2023-09-02T12:10:37.000Z</time>
      </trkpt>
      <trkpt lat="45.83896" lon="4.71735">
        <ele>331.88809</ele>
        <time>2023-09-02T12:10:38.000Z</time>
      </trkpt>
      <trkpt lat="45.839" lon="4.71737">
        <ele>331.9754</ele>
        <time>2023-09-02T12:10:39.000Z</time>
      </trkpt>
      <trkpt lat="45.83904" lon="4.71741">
        <ele>332.09921</ele>
        <time>2023-09-02T12:10:40.000Z</time>
      </trkpt>
      <trkpt lat="45.83908" lon="4.71743">
        <ele>332.27921</ele>
        <time>2023-09-02T12:10:41.000Z</time>
      </trkpt>
      <trkpt lat="45.83912" lon="4.71745">
        <ele>332.51819</ele>
        <time>2023-09-02T12:10:42.000Z</time>
      </trkpt>
      <trkpt lat="45.83917" lon="4.71748">
        <ele>332.72318</ele>
        <time>2023-09-02T12:10:43.000Z</time>
      </trkpt>
      <trkpt lat="45.83921" lon="4.71749">
        <ele>332.87396</ele>
        <time>2023-09-02T12:10:44.000Z</time>
      </trkpt>
      <trkpt lat="45.83927" lon="4.71751">
        <ele>333.0224</ele>
        <time>2023-09-02T12:10:45.000Z</time>
      </trkpt>
      <trkpt lat="45.83932" lon="4.71754">
        <ele>333.24423</ele>
        <time>2023-09-02T12:10:46.000Z</time>
      </trkpt>
      <trkpt lat="45.83937" lon="4.71758">
        <ele>333.41959</ele>
        <time>2023-09-02T12:10:47.000Z</time>
      </trkpt>
      <trkpt lat="45.83942" lon="4.71763">
        <ele>333.56207</ele>
        <time>2023-09-02T12:10:48.000Z</time>
      </trkpt>
      <trkpt lat="45.83944" lon="4.7177">
        <ele>333.6311</ele>
        <time>2023-09-02T12:10:49.000Z</time>
      </trkpt>
      <trkpt lat="45.83947" lon="4.71777">
        <ele>333.6727</ele>
        <time>2023-09-02T12:10:50.000Z</time>
      </trkpt>
      <trkpt lat="45.83949" lon="4.71784">
        <ele>333.70807</ele>
        <time>2023-09-02T12:10:51.000Z</time>
      </trkpt>
      <trkpt lat="45.83951" lon="4.71792">
        <ele>333.63437</ele>
        <time>2023-09-02T12:10:52.000Z</time>
      </trkpt>
      <trkpt lat="45.83952" lon="4.71798">
        <ele>333.77252</ele>
        <time>2023-09-02T12:10:53.000Z</time>
      </trkpt>
      <trkpt lat="45.83951" lon="4.71805">
        <ele>333.91931</ele>
        <time>2023-09-02T12:10:54.000Z</time>
      </trkpt>
      <trkpt lat="45.83952" lon="4.71812">
        <ele>334.11612</ele>
        <time>2023-09-02T12:10:55.000Z</time>
      </trkpt>
      <trkpt lat="45.83958" lon="4.71818">
        <ele>334.18436</ele>
        <time>2023-09-02T12:10:56.000Z</time>
      </trkpt>
      <trkpt lat="45.83963" lon="4.71824">
        <ele>334.25223</ele>
        <time>2023-09-02T12:10:57.000Z</time>
      </trkpt>
      <trkpt lat="45.83966" lon="4.71831">
        <ele>334.34103</ele>
        <time>2023-09-02T12:10:58.000Z</time>
      </trkpt>
      <trkpt lat="45.83971" lon="4.71836">
        <ele>334.37231</ele>
        <time>2023-09-02T12:10:59.000Z</time>
      </trkpt>
      <trkpt lat="45.83974" lon="4.71842">
        <ele>334.36349</ele>
        <time>2023-09-02T12:11:00.000Z</time>
      </trkpt>
      <trkpt lat="45.83978" lon="4.71848">
        <ele>334.29608</ele>
        <time>2023-09-02T12:11:01.000Z</time>
      </trkpt>
      <trkpt lat="45.83981" lon="4.71854">
        <ele>334.23639</ele>
        <time>2023-09-02T12:11:02.000Z</time>
      </trkpt>
      <trkpt lat="45.83984" lon="4.71859">
        <ele>334.20654</ele>
        <time>2023-09-02T12:11:03.000Z</time>
      </trkpt>
      <trkpt lat="45.83988" lon="4.71864">
        <ele>334.21841</ele>
        <time>2023-09-02T12:11:04.000Z</time>
      </trkpt>
      <trkpt lat="45.83992" lon="4.71869">
        <ele>334.1937</ele>
        <time>2023-09-02T12:11:05.000Z</time>
      </trkpt>
      <trkpt lat="45.83996" lon="4.71875">
        <ele>334.12811</ele>
        <time>2023-09-02T12:11:06.000Z</time>
      </trkpt>
      <trkpt lat="45.83999" lon="4.7188">
        <ele>334.10687</ele>
        <time>2023-09-02T12:11:07.000Z</time>
      </trkpt>
      <trkpt lat="45.84002" lon="4.71885">
        <ele>334.11084</ele>
        <time>2023-09-02T12:11:08.000Z</time>
      </trkpt>
      <trkpt lat="45.84004" lon="4.71892">
        <ele>334.29071</ele>
        <time>2023-09-02T12:11:09.000Z</time>
      </trkpt>
      <trkpt lat="45.84006" lon="4.719">
        <ele>334.49478</ele>
        <time>2023-09-02T12:11:10.000Z</time>
      </trkpt>
      <trkpt lat="45.84007" lon="4.71907">
        <ele>334.71948</ele>
        <time>2023-09-02T12:11:11.000Z</time>
      </trkpt>
      <trkpt lat="45.84008" lon="4.71915">
        <ele>334.93805</ele>
        <time>2023-09-02T12:11:12.000Z</time>
      </trkpt>
      <trkpt lat="45.84008" lon="4.71925">
        <ele>334.97424</ele>
        <time>2023-09-02T12:11:13.000Z</time>
      </trkpt>
      <trkpt lat="45.84009" lon="4.71934">
        <ele>334.97876</ele>
        <time>2023-09-02T12:11:14.000Z</time>
      </trkpt>
      <trkpt lat="45.84009" lon="4.71944">
        <ele>334.92825</ele>
        <time>2023-09-02T12:11:15.000Z</time>
      </trkpt>
      <trkpt lat="45.8401" lon="4.71955">
        <ele>334.87219</ele>
        <time>2023-09-02T12:11:16.000Z</time>
      </trkpt>
      <trkpt lat="45.8401" lon="4.71966">
        <ele>334.77133</ele>
        <time>2023-09-02T12:11:17.000Z</time>
      </trkpt>
      <trkpt lat="45.84011" lon="4.71977">
        <ele>334.60016</ele>
        <time>2023-09-02T12:11:18.000Z</time>
      </trkpt>
      <trkpt lat="45.84012" lon="4.71988">
        <ele>334.48346</ele>
        <time>2023-09-02T12:11:19.000Z</time>
      </trkpt>
      <trkpt lat="45.84013" lon="4.71999">
        <ele>334.42419</ele>
        <time>2023-09-02T12:11:20.000Z</time>
      </trkpt>
      <trkpt lat="45.84014" lon="4.72011">
        <ele>334.44214</ele>
        <time>2023-09-02T12:11:21.000Z</time>
      </trkpt>
      <trkpt lat="45.84015" lon="4.72023">
        <ele>334.4335</ele>
        <time>2023-09-02T12:11:22.000Z</time>
      </trkpt>
      <trkpt lat="45.84017" lon="4.72034">
        <ele>334.44565</ele>
        <time>2023-09-02T12:11:23.000Z</time>
      </trkpt>
      <trkpt lat="45.84016" lon="4.72045">
        <ele>334.40817</ele>
        <time>2023-09-02T12:11:24.000Z</time>
      </trkpt>
      <trkpt lat="45.84017" lon="4.72056">
        <ele>334.36261</ele>
        <time>2023-09-02T12:11:25.000Z</time>
      </trkpt>
      <trkpt lat="45.84018" lon="4.72067">
        <ele>334.29987</ele>
        <time>2023-09-02T12:11:26.000Z</time>
      </trkpt>
      <trkpt lat="45.84019" lon="4.72078">
        <ele>334.24176</ele>
        <time>2023-09-02T12:11:27.000Z</time>
      </trkpt>
      <trkpt lat="45.8402" lon="4.72089">
        <ele>334.17838</ele>
        <time>2023-09-02T12:11:28.000Z</time>
      </trkpt>
      <trkpt lat="45.8402" lon="4.72099">
        <ele>333.92328</ele>
        <time>2023-09-02T12:11:29.000Z</time>
      </trkpt>
      <trkpt lat="45.84021" lon="4.72108">
        <ele>333.64655</ele>
        <time>2023-09-02T12:11:30.000Z</time>
      </trkpt>
      <trkpt lat="45.84021" lon="4.72117">
        <ele>333.09561</ele>
        <time>2023-09-02T12:11:31.000Z</time>
      </trkpt>
      <trkpt lat="45.84022" lon="4.72125">
        <ele>332.53735</ele>
        <time>2023-09-02T12:11:32.000Z</time>
      </trkpt>
      <trkpt lat="45.84022" lon="4.72133">
        <ele>332.00632</ele>
        <time>2023-09-02T12:11:33.000Z</time>
      </trkpt>
      <trkpt lat="45.84021" lon="4.7214">
        <ele>331.50259</ele>
        <time>2023-09-02T12:11:34.000Z</time>
      </trkpt>
      <trkpt lat="45.8402" lon="4.72147">
        <ele>331.00806</ele>
        <time>2023-09-02T12:11:35.000Z</time>
      </trkpt>
      <trkpt lat="45.84019" lon="4.72154">
        <ele>330.5249</ele>
        <time>2023-09-02T12:11:36.000Z</time>
      </trkpt>
      <trkpt lat="45.84017" lon="4.7216">
        <ele>330.05295</ele>
        <time>2023-09-02T12:11:37.000Z</time>
      </trkpt>
      <trkpt lat="45.84013" lon="4.72164">
        <ele>329.60025</ele>
        <time>2023-09-02T12:11:38.000Z</time>
      </trkpt>
      <trkpt lat="45.84008" lon="4.72167">
        <ele>329.36838</ele>
        <time>2023-09-02T12:11:39.000Z</time>
      </trkpt>
      <trkpt lat="45.84003" lon="4.72167">
        <ele>329.05463</ele>
        <time>2023-09-02T12:11:40.000Z</time>
      </trkpt>
      <trkpt lat="45.83999" lon="4.72168">
        <ele>328.77704</ele>
        <time>2023-09-02T12:11:41.000Z</time>
      </trkpt>
      <trkpt lat="45.83993" lon="4.72168">
        <ele>328.77283</ele>
        <time>2023-09-02T12:11:42.000Z</time>
      </trkpt>
      <trkpt lat="45.83987" lon="4.72166">
        <ele>328.73166</ele>
        <time>2023-09-02T12:11:43.000Z</time>
      </trkpt>
      <trkpt lat="45.83982" lon="4.72167">
        <ele>328.83615</ele>
        <time>2023-09-02T12:11:44.000Z</time>
      </trkpt>
      <trkpt lat="45.83977" lon="4.72165">
        <ele>328.94046</ele>
        <time>2023-09-02T12:11:45.000Z</time>
      </trkpt>
      <trkpt lat="45.83972" lon="4.72164">
        <ele>329.08832</ele>
        <time>2023-09-02T12:11:46.000Z</time>
      </trkpt>
      <trkpt lat="45.83967" lon="4.72164">
        <ele>329.31464</ele>
        <time>2023-09-02T12:11:47.000Z</time>
      </trkpt>
      <trkpt lat="45.83961" lon="4.72163">
        <ele>329.53906</ele>
        <time>2023-09-02T12:11:48.000Z</time>
      </trkpt>
      <trkpt lat="45.83957" lon="4.72163">
        <ele>329.73303</ele>
        <time>2023-09-02T12:11:49.000Z</time>
      </trkpt>
      <trkpt lat="45.83952" lon="4.72162">
        <ele>329.69485</ele>
        <time>2023-09-02T12:11:50.000Z</time>
      </trkpt>
      <trkpt lat="45.83948" lon="4.72161">
        <ele>329.99438</ele>
        <time>2023-09-02T12:11:51.000Z</time>
      </trkpt>
      <trkpt lat="45.83944" lon="4.72161">
        <ele>330.29132</ele>
        <time>2023-09-02T12:11:52.000Z</time>
      </trkpt>
      <trkpt lat="45.83942" lon="4.72162">
        <ele>330.58295</ele>
        <time>2023-09-02T12:11:53.000Z</time>
      </trkpt>
      <trkpt lat="45.8394" lon="4.72163">
        <ele>330.87775</ele>
        <time>2023-09-02T12:11:54.000Z</time>
      </trkpt>
      <trkpt lat="45.8394" lon="4.72167">
        <ele>331.16571</ele>
        <time>2023-09-02T12:11:55.000Z</time>
      </trkpt>
      <trkpt lat="45.83941" lon="4.72171">
        <ele>331.44495</ele>
        <time>2023-09-02T12:11:56.000Z</time>
      </trkpt>
      <trkpt lat="45.83943" lon="4.72175">
        <ele>331.74768</ele>
        <time>2023-09-02T12:11:57.000Z</time>
      </trkpt>
      <trkpt lat="45.83946" lon="4.72179">
        <ele>332.05933</ele>
        <time>2023-09-02T12:11:58.000Z</time>
      </trkpt>
      <trkpt lat="45.83948" lon="4.72183">
        <ele>332.35587</ele>
        <time>2023-09-02T12:11:59.000Z</time>
      </trkpt>
      <trkpt lat="45.83951" lon="4.72187">
        <ele>332.76752</ele>
        <time>2023-09-02T12:12:00.000Z</time>
      </trkpt>
      <trkpt lat="45.83954" lon="4.72191">
        <ele>333.22601</ele>
        <time>2023-09-02T12:12:01.000Z</time>
      </trkpt>
      <trkpt lat="45.83957" lon="4.72195">
        <ele>333.19702</ele>
        <time>2023-09-02T12:12:02.000Z</time>
      </trkpt>
      <trkpt lat="45.83959" lon="4.722">
        <ele>333.24866</ele>
        <time>2023-09-02T12:12:03.000Z</time>
      </trkpt>
      <trkpt lat="45.83962" lon="4.72205">
        <ele>333.18134</ele>
        <time>2023-09-02T12:12:04.000Z</time>
      </trkpt>
      <trkpt lat="45.83964" lon="4.7221">
        <ele>333.14331</ele>
        <time>2023-09-02T12:12:05.000Z</time>
      </trkpt>
      <trkpt lat="45.83966" lon="4.72215">
        <ele>333.07944</ele>
        <time>2023-09-02T12:12:06.000Z</time>
      </trkpt>
      <trkpt lat="45.83969" lon="4.7222">
        <ele>333.10986</ele>
        <time>2023-09-02T12:12:07.000Z</time>
      </trkpt>
      <trkpt lat="45.83972" lon="4.72226">
        <ele>332.78677</ele>
        <time>2023-09-02T12:12:08.000Z</time>
      </trkpt>
      <trkpt lat="45.83975" lon="4.72231">
        <ele>332.5018</ele>
        <time>2023-09-02T12:12:09.000Z</time>
      </trkpt>
      <trkpt lat="45.83977" lon="4.72237">
        <ele>332.47388</ele>
        <time>2023-09-02T12:12:10.000Z</time>
      </trkpt>
      <trkpt lat="45.8398" lon="4.72242">
        <ele>332.3735</ele>
        <time>2023-09-02T12:12:11.000Z</time>
      </trkpt>
      <trkpt lat="45.83983" lon="4.72246">
        <ele>332.27234</ele>
        <time>2023-09-02T12:12:12.000Z</time>
      </trkpt>
      <trkpt lat="45.83985" lon="4.72251">
        <ele>332.15628</ele>
        <time>2023-09-02T12:12:13.000Z</time>
      </trkpt>
      <trkpt lat="45.83988" lon="4.72256">
        <ele>332.0723</ele>
        <time>2023-09-02T12:12:14.000Z</time>
      </trkpt>
      <trkpt lat="45.8399" lon="4.72262">
        <ele>331.87354</ele>
        <time>2023-09-02T12:12:15.000Z</time>
      </trkpt>
      <trkpt lat="45.83992" lon="4.72266">
        <ele>331.6188</ele>
        <time>2023-09-02T12:12:16.000Z</time>
      </trkpt>
      <trkpt lat="45.83995" lon="4.72271">
        <ele>331.33954</ele>
        <time>2023-09-02T12:12:17.000Z</time>
      </trkpt>
      <trkpt lat="45.83998" lon="4.72275">
        <ele>331.25681</ele>
        <time>2023-09-02T12:12:18.000Z</time>
      </trkpt>
      <trkpt lat="45.84" lon="4.72281">
        <ele>331.11115</ele>
        <time>2023-09-02T12:12:19.000Z</time>
      </trkpt>
      <trkpt lat="45.84003" lon="4.72287">
        <ele>330.82727</ele>
        <time>2023-09-02T12:12:20.000Z</time>
      </trkpt>
      <trkpt lat="45.84006" lon="4.72293">
        <ele>330.4444</ele>
        <time>2023-09-02T12:12:21.000Z</time>
      </trkpt>
      <trkpt lat="45.84009" lon="4.72298">
        <ele>330.28336</ele>
        <time>2023-09-02T12:12:22.000Z</time>
      </trkpt>
      <trkpt lat="45.84011" lon="4.72303">
        <ele>330.05496</ele>
        <time>2023-09-02T12:12:23.000Z</time>
      </trkpt>
      <trkpt lat="45.84012" lon="4.72309">
        <ele>329.83469</ele>
        <time>2023-09-02T12:12:24.000Z</time>
      </trkpt>
      <trkpt lat="45.84011" lon="4.72316">
        <ele>329.51346</ele>
        <time>2023-09-02T12:12:25.000Z</time>
      </trkpt>
      <trkpt lat="45.84008" lon="4.72321">
        <ele>329.19949</ele>
        <time>2023-09-02T12:12:26.000Z</time>
      </trkpt>
      <trkpt lat="45.84004" lon="4.72326">
        <ele>328.73413</ele>
        <time>2023-09-02T12:12:27.000Z</time>
      </trkpt>
      <trkpt lat="45.84" lon="4.7233">
        <ele>328.59006</ele>
        <time>2023-09-02T12:12:28.000Z</time>
      </trkpt>
      <trkpt lat="45.83996" lon="4.72336">
        <ele>328.42563</ele>
        <time>2023-09-02T12:12:29.000Z</time>
      </trkpt>
      <trkpt lat="45.83991" lon="4.72341">
        <ele>328.25592</ele>
        <time>2023-09-02T12:12:30.000Z</time>
      </trkpt>
      <trkpt lat="45.83988" lon="4.72345">
        <ele>328.1051</ele>
        <time>2023-09-02T12:12:31.000Z</time>
      </trkpt>
      <trkpt lat="45.83982" lon="4.72349">
        <ele>327.90842</ele>
        <time>2023-09-02T12:12:32.000Z</time>
      </trkpt>
      <trkpt lat="45.83977" lon="4.72353">
        <ele>327.64612</ele>
        <time>2023-09-02T12:12:33.000Z</time>
      </trkpt>
      <trkpt lat="45.83973" lon="4.72358">
        <ele>327.34933</ele>
        <time>2023-09-02T12:12:34.000Z</time>
      </trkpt>
      <trkpt lat="45.83965" lon="4.72363">
        <ele>327.30219</ele>
        <time>2023-09-02T12:12:35.000Z</time>
      </trkpt>
      <trkpt lat="45.83959" lon="4.72368">
        <ele>327.31781</ele>
        <time>2023-09-02T12:12:36.000Z</time>
      </trkpt>
      <trkpt lat="45.83953" lon="4.72373">
        <ele>327.31406</ele>
        <time>2023-09-02T12:12:37.000Z</time>
      </trkpt>
      <trkpt lat="45.83947" lon="4.72377">
        <ele>327.05377</ele>
        <time>2023-09-02T12:12:38.000Z</time>
      </trkpt>
      <trkpt lat="45.8394" lon="4.72381">
        <ele>326.83966</ele>
        <time>2023-09-02T12:12:39.000Z</time>
      </trkpt>
      <trkpt lat="45.83933" lon="4.72385">
        <ele>326.63745</ele>
        <time>2023-09-02T12:12:40.000Z</time>
      </trkpt>
      <trkpt lat="45.83926" lon="4.72389">
        <ele>326.44104</ele>
        <time>2023-09-02T12:12:41.000Z</time>
      </trkpt>
      <trkpt lat="45.83918" lon="4.7239">
        <ele>326.02301</ele>
        <time>2023-09-02T12:12:42.000Z</time>
      </trkpt>
      <trkpt lat="45.8391" lon="4.72394">
        <ele>325.62622</ele>
        <time>2023-09-02T12:12:43.000Z</time>
      </trkpt>
      <trkpt lat="45.83902" lon="4.72399">
        <ele>325.22278</ele>
        <time>2023-09-02T12:12:44.000Z</time>
      </trkpt>
      <trkpt lat="45.83893" lon="4.72402">
        <ele>324.91531</ele>
        <time>2023-09-02T12:12:45.000Z</time>
      </trkpt>
      <trkpt lat="45.83886" lon="4.72406">
        <ele>324.57269</ele>
        <time>2023-09-02T12:12:46.000Z</time>
      </trkpt>
      <trkpt lat="45.83877" lon="4.7241">
        <ele>324.26752</ele>
        <time>2023-09-02T12:12:47.000Z</time>
      </trkpt>
      <trkpt lat="45.8387" lon="4.72413">
        <ele>324.052</ele>
        <time>2023-09-02T12:12:48.000Z</time>
      </trkpt>
      <trkpt lat="45.83863" lon="4.72419">
        <ele>323.63492</ele>
        <time>2023-09-02T12:12:49.000Z</time>
      </trkpt>
      <trkpt lat="45.83857" lon="4.72423">
        <ele>323.26828</ele>
        <time>2023-09-02T12:12:50.000Z</time>
      </trkpt>
      <trkpt lat="45.83853" lon="4.72427">
        <ele>322.94843</ele>
        <time>2023-09-02T12:12:51.000Z</time>
      </trkpt>
      <trkpt lat="45.83848" lon="4.72435">
        <ele>322.60162</ele>
        <time>2023-09-02T12:12:52.000Z</time>
      </trkpt>
      <trkpt lat="45.83843" lon="4.72441">
        <ele>322.29156</ele>
        <time>2023-09-02T12:12:53.000Z</time>
      </trkpt>
      <trkpt lat="45.83841" lon="4.7245">
        <ele>322.08191</ele>
        <time>2023-09-02T12:12:54.000Z</time>
      </trkpt>
      <trkpt lat="45.83841" lon="4.72459">
        <ele>322.22385</ele>
        <time>2023-09-02T12:12:55.000Z</time>
      </trkpt>
      <trkpt lat="45.83842" lon="4.72467">
        <ele>322.46136</ele>
        <time>2023-09-02T12:12:56.000Z</time>
      </trkpt>
      <trkpt lat="45.83843" lon="4.72476">
        <ele>322.81018</ele>
        <time>2023-09-02T12:12:57.000Z</time>
      </trkpt>
      <trkpt lat="45.83843" lon="4.72485">
        <ele>322.7728</ele>
        <time>2023-09-02T12:12:58.000Z</time>
      </trkpt>
      <trkpt lat="45.83844" lon="4.72492">
        <ele>322.91534</ele>
        <time>2023-09-02T12:12:59.000Z</time>
      </trkpt>
      <trkpt lat="45.83845" lon="4.72499">
        <ele>323.15372</ele>
        <time>2023-09-02T12:13:00.000Z</time>
      </trkpt>
      <trkpt lat="45.83846" lon="4.72508">
        <ele>323.742</ele>
        <time>2023-09-02T12:13:01.000Z</time>
      </trkpt>
      <trkpt lat="45.83844" lon="4.72517">
        <ele>324.03061</ele>
        <time>2023-09-02T12:13:02.000Z</time>
      </trkpt>
      <trkpt lat="45.83843" lon="4.72526">
        <ele>324.36896</ele>
        <time>2023-09-02T12:13:03.000Z</time>
      </trkpt>
      <trkpt lat="45.83843" lon="4.72533">
        <ele>324.83868</ele>
        <time>2023-09-02T12:13:04.000Z</time>
      </trkpt>
      <trkpt lat="45.83838" lon="4.72541">
        <ele>325.27985</ele>
        <time>2023-09-02T12:13:05.000Z</time>
      </trkpt>
      <trkpt lat="45.83837" lon="4.7255">
        <ele>325.69275</ele>
        <time>2023-09-02T12:13:06.000Z</time>
      </trkpt>
      <trkpt lat="45.83834" lon="4.72558">
        <ele>326.17307</ele>
        <time>2023-09-02T12:13:07.000Z</time>
      </trkpt>
      <trkpt lat="45.83835" lon="4.72564">
        <ele>326.11707</ele>
        <time>2023-09-02T12:13:08.000Z</time>
      </trkpt>
      <trkpt lat="45.83832" lon="4.72572">
        <ele>326.38043</ele>
        <time>2023-09-02T12:13:09.000Z</time>
      </trkpt>
      <trkpt lat="45.8383" lon="4.72578">
        <ele>326.59579</ele>
        <time>2023-09-02T12:13:10.000Z</time>
      </trkpt>
      <trkpt lat="45.83827" lon="4.72585">
        <ele>326.72833</ele>
        <time>2023-09-02T12:13:11.000Z</time>
      </trkpt>
      <trkpt lat="45.83824" lon="4.7259">
        <ele>326.95361</ele>
        <time>2023-09-02T12:13:12.000Z</time>
      </trkpt>
      <trkpt lat="45.83822" lon="4.72594">
        <ele>327.20554</ele>
        <time>2023-09-02T12:13:13.000Z</time>
      </trkpt>
      <trkpt lat="45.83819" lon="4.726">
        <ele>327.508</ele>
        <time>2023-09-02T12:13:14.000Z</time>
      </trkpt>
      <trkpt lat="45.83815" lon="4.72606">
        <ele>327.06293</ele>
        <time>2023-09-02T12:13:15.000Z</time>
      </trkpt>
      <trkpt lat="45.83812" lon="4.72609">
        <ele>326.71857</ele>
        <time>2023-09-02T12:13:16.000Z</time>
      </trkpt>
      <trkpt lat="45.83807" lon="4.72611">
        <ele>326.27045</ele>
        <time>2023-09-02T12:13:17.000Z</time>
      </trkpt>
      <trkpt lat="45.838" lon="4.72614">
        <ele>326.15012</ele>
        <time>2023-09-02T12:13:19.000Z</time>
      </trkpt>
      <trkpt lat="45.83796" lon="4.72616">
        <ele>325.89371</ele>
        <time>2023-09-02T12:13:20.000Z</time>
      </trkpt>
      <trkpt lat="45.83794" lon="4.72618">
        <ele>325.82672</ele>
        <time>2023-09-02T12:13:21.000Z</time>
      </trkpt>
      <trkpt lat="45.83789" lon="4.7262">
        <ele>325.51666</ele>
        <time>2023-09-02T12:13:22.000Z</time>
      </trkpt>
      <trkpt lat="45.83785" lon="4.72621">
        <ele>325.63388</ele>
        <time>2023-09-02T12:13:23.000Z</time>
      </trkpt>
      <trkpt lat="45.83781" lon="4.72623">
        <ele>325.24161</ele>
        <time>2023-09-02T12:13:24.000Z</time>
      </trkpt>
      <trkpt lat="45.83778" lon="4.72624">
        <ele>324.85156</ele>
        <time>2023-09-02T12:13:25.000Z</time>
      </trkpt>
      <trkpt lat="45.83774" lon="4.72624">
        <ele>324.51392</ele>
        <time>2023-09-02T12:13:26.000Z</time>
      </trkpt>
      <trkpt lat="45.83769" lon="4.72625">
        <ele>324.23022</ele>
        <time>2023-09-02T12:13:27.000Z</time>
      </trkpt>
      <trkpt lat="45.83765" lon="4.72627">
        <ele>323.84012</ele>
        <time>2023-09-02T12:13:28.000Z</time>
      </trkpt>
      <trkpt lat="45.8376" lon="4.72628">
        <ele>323.90082</ele>
        <time>2023-09-02T12:13:29.000Z</time>
      </trkpt>
      <trkpt lat="45.83756" lon="4.72629">
        <ele>323.86646</ele>
        <time>2023-09-02T12:13:30.000Z</time>
      </trkpt>
      <trkpt lat="45.83752" lon="4.72631">
        <ele>323.8024</ele>
        <time>2023-09-02T12:13:31.000Z</time>
      </trkpt>
      <trkpt lat="45.83748" lon="4.72632">
        <ele>323.95847</ele>
        <time>2023-09-02T12:13:32.000Z</time>
      </trkpt>
      <trkpt lat="45.83744" lon="4.72634">
        <ele>324.05933</ele>
        <time>2023-09-02T12:13:33.000Z</time>
      </trkpt>
      <trkpt lat="45.8374" lon="4.72635">
        <ele>324.25671</ele>
        <time>2023-09-02T12:13:34.000Z</time>
      </trkpt>
      <trkpt lat="45.83736" lon="4.72636">
        <ele>324.30765</ele>
        <time>2023-09-02T12:13:35.000Z</time>
      </trkpt>
      <trkpt lat="45.83732" lon="4.72638">
        <ele>324.24384</ele>
        <time>2023-09-02T12:13:36.000Z</time>
      </trkpt>
      <trkpt lat="45.83729" lon="4.72639">
        <ele>324.41934</ele>
        <time>2023-09-02T12:13:37.000Z</time>
      </trkpt>
      <trkpt lat="45.83725" lon="4.72642">
        <ele>324.68552</ele>
        <time>2023-09-02T12:13:38.000Z</time>
      </trkpt>
      <trkpt lat="45.83722" lon="4.72645">
        <ele>325.13669</ele>
        <time>2023-09-02T12:13:39.000Z</time>
      </trkpt>
      <trkpt lat="45.83718" lon="4.72648">
        <ele>325.54648</ele>
        <time>2023-09-02T12:13:40.000Z</time>
      </trkpt>
      <trkpt lat="45.83716" lon="4.72649">
        <ele>325.716</ele>
        <time>2023-09-02T12:13:41.000Z</time>
      </trkpt>
      <trkpt lat="45.83713" lon="4.7265">
        <ele>325.83841</ele>
        <time>2023-09-02T12:13:42.000Z</time>
      </trkpt>
      <trkpt lat="45.8371" lon="4.7265">
        <ele>325.67731</ele>
        <time>2023-09-02T12:13:43.000Z</time>
      </trkpt>
      <trkpt lat="45.83706" lon="4.7265">
        <ele>325.98199</ele>
        <time>2023-09-02T12:13:44.000Z</time>
      </trkpt>
      <trkpt lat="45.83702" lon="4.72651">
        <ele>326.08441</ele>
        <time>2023-09-02T12:13:45.000Z</time>
      </trkpt>
      <trkpt lat="45.83698" lon="4.72652">
        <ele>326.20871</ele>
        <time>2023-09-02T12:13:46.000Z</time>
      </trkpt>
      <trkpt lat="45.83694" lon="4.72653">
        <ele>326.41705</ele>
        <time>2023-09-02T12:13:47.000Z</time>
      </trkpt>
      <trkpt lat="45.83691" lon="4.72655">
        <ele>326.62335</ele>
        <time>2023-09-02T12:13:48.000Z</time>
      </trkpt>
      <trkpt lat="45.83687" lon="4.72657">
        <ele>326.80948</ele>
        <time>2023-09-02T12:13:49.000Z</time>
      </trkpt>
      <trkpt lat="45.83684" lon="4.72658">
        <ele>327.01315</ele>
        <time>2023-09-02T12:13:50.000Z</time>
      </trkpt>
      <trkpt lat="45.83681" lon="4.72659">
        <ele>327.26807</ele>
        <time>2023-09-02T12:13:51.000Z</time>
      </trkpt>
      <trkpt lat="45.83677" lon="4.7266">
        <ele>327.33609</ele>
        <time>2023-09-02T12:13:52.000Z</time>
      </trkpt>
      <trkpt lat="45.83674" lon="4.72661">
        <ele>327.45016</ele>
        <time>2023-09-02T12:13:53.000Z</time>
      </trkpt>
      <trkpt lat="45.8367" lon="4.72663">
        <ele>327.49838</ele>
        <time>2023-09-02T12:13:54.000Z</time>
      </trkpt>
      <trkpt lat="45.83667" lon="4.72664">
        <ele>327.67828</ele>
        <time>2023-09-02T12:13:55.000Z</time>
      </trkpt>
      <trkpt lat="45.83665" lon="4.72665">
        <ele>328.19867</ele>
        <time>2023-09-02T12:13:56.000Z</time>
      </trkpt>
      <trkpt lat="45.83662" lon="4.72665">
        <ele>328.16946</ele>
        <time>2023-09-02T12:13:57.000Z</time>
      </trkpt>
      <trkpt lat="45.83658" lon="4.72666">
        <ele>327.82275</ele>
        <time>2023-09-02T12:13:58.000Z</time>
      </trkpt>
      <trkpt lat="45.83654" lon="4.72667">
        <ele>327.53534</ele>
        <time>2023-09-02T12:13:59.000Z</time>
      </trkpt>
      <trkpt lat="45.83651" lon="4.72669">
        <ele>327.29926</ele>
        <time>2023-09-02T12:14:00.000Z</time>
      </trkpt>
      <trkpt lat="45.83648" lon="4.72671">
        <ele>327.07132</ele>
        <time>2023-09-02T12:14:01.000Z</time>
      </trkpt>
      <trkpt lat="45.83645" lon="4.72673">
        <ele>326.80533</ele>
        <time>2023-09-02T12:14:02.000Z</time>
      </trkpt>
      <trkpt lat="45.83642" lon="4.72675">
        <ele>326.91205</ele>
        <time>2023-09-02T12:14:03.000Z</time>
      </trkpt>
      <trkpt lat="45.83639" lon="4.72676">
        <ele>326.99084</ele>
        <time>2023-09-02T12:14:04.000Z</time>
      </trkpt>
      <trkpt lat="45.83636" lon="4.72678">
        <ele>327.1391</ele>
        <time>2023-09-02T12:14:05.000Z</time>
      </trkpt>
      <trkpt lat="45.83634" lon="4.7268">
        <ele>327.38727</ele>
        <time>2023-09-02T12:14:06.000Z</time>
      </trkpt>
      <trkpt lat="45.83631" lon="4.72683">
        <ele>327.08365</ele>
        <time>2023-09-02T12:14:07.000Z</time>
      </trkpt>
      <trkpt lat="45.83629" lon="4.72685">
        <ele>326.5787</ele>
        <time>2023-09-02T12:14:08.000Z</time>
      </trkpt>
      <trkpt lat="45.83627" lon="4.72688">
        <ele>326.13425</ele>
        <time>2023-09-02T12:14:09.000Z</time>
      </trkpt>
      <trkpt lat="45.83625" lon="4.7269">
        <ele>325.6796</ele>
        <time>2023-09-02T12:14:10.000Z</time>
      </trkpt>
      <trkpt lat="45.83623" lon="4.72694">
        <ele>325.17749</ele>
        <time>2023-09-02T12:14:11.000Z</time>
      </trkpt>
      <trkpt lat="45.83621" lon="4.72696">
        <ele>324.6481</ele>
        <time>2023-09-02T12:14:12.000Z</time>
      </trkpt>
      <trkpt lat="45.83618" lon="4.72699">
        <ele>324.14191</ele>
        <time>2023-09-02T12:14:13.000Z</time>
      </trkpt>
      <trkpt lat="45.83616" lon="4.72702">
        <ele>323.63434</ele>
        <time>2023-09-02T12:14:14.000Z</time>
      </trkpt>
      <trkpt lat="45.83614" lon="4.72704">
        <ele>323.01947</ele>
        <time>2023-09-02T12:14:15.000Z</time>
      </trkpt>
      <trkpt lat="45.83611" lon="4.72706">
        <ele>322.43744</ele>
        <time>2023-09-02T12:14:16.000Z</time>
      </trkpt>
      <trkpt lat="45.83609" lon="4.72707">
        <ele>322.0152</ele>
        <time>2023-09-02T12:14:17.000Z</time>
      </trkpt>
      <trkpt lat="45.83606" lon="4.72708">
        <ele>321.90714</ele>
        <time>2023-09-02T12:14:19.000Z</time>
      </trkpt>
      <trkpt lat="45.83604" lon="4.7271">
        <ele>321.69464</ele>
        <time>2023-09-02T12:14:20.000Z</time>
      </trkpt>
      <trkpt lat="45.83602" lon="4.72711">
        <ele>321.47821</ele>
        <time>2023-09-02T12:14:21.000Z</time>
      </trkpt>
      <trkpt lat="45.836" lon="4.72713">
        <ele>321.23013</ele>
        <time>2023-09-02T12:14:22.000Z</time>
      </trkpt>
      <trkpt lat="45.83597" lon="4.72716">
        <ele>320.99039</ele>
        <time>2023-09-02T12:14:23.000Z</time>
      </trkpt>
      <trkpt lat="45.83595" lon="4.72719">
        <ele>321.15097</ele>
        <time>2023-09-02T12:14:24.000Z</time>
      </trkpt>
      <trkpt lat="45.83592" lon="4.72721">
        <ele>321.33905</ele>
        <time>2023-09-02T12:14:25.000Z</time>
      </trkpt>
      <trkpt lat="45.8359" lon="4.72723">
        <ele>321.5206</ele>
        <time>2023-09-02T12:14:26.000Z</time>
      </trkpt>
      <trkpt lat="45.83586" lon="4.72725">
        <ele>321.57623</ele>
        <time>2023-09-02T12:14:27.000Z</time>
      </trkpt>
      <trkpt lat="45.83582" lon="4.72728">
        <ele>322.07913</ele>
        <time>2023-09-02T12:14:28.000Z</time>
      </trkpt>
      <trkpt lat="45.83579" lon="4.7273">
        <ele>322.72418</ele>
        <time>2023-09-02T12:14:29.000Z</time>
      </trkpt>
      <trkpt lat="45.83575" lon="4.72732">
        <ele>323.35474</ele>
        <time>2023-09-02T12:14:30.000Z</time>
      </trkpt>
      <trkpt lat="45.83572" lon="4.72735">
        <ele>324.01529</ele>
        <time>2023-09-02T12:14:31.000Z</time>
      </trkpt>
      <trkpt lat="45.83569" lon="4.72737">
        <ele>324.70813</ele>
        <time>2023-09-02T12:14:32.000Z</time>
      </trkpt>
      <trkpt lat="45.83565" lon="4.72739">
        <ele>325.4436</ele>
        <time>2023-09-02T12:14:33.000Z</time>
      </trkpt>
      <trkpt lat="45.83561" lon="4.7274">
        <ele>326.13644</ele>
        <time>2023-09-02T12:14:34.000Z</time>
      </trkpt>
      <trkpt lat="45.83558" lon="4.72742">
        <ele>326.79126</ele>
        <time>2023-09-02T12:14:35.000Z</time>
      </trkpt>
      <trkpt lat="45.83554" lon="4.72743">
        <ele>327.43579</ele>
        <time>2023-09-02T12:14:36.000Z</time>
      </trkpt>
      <trkpt lat="45.8355" lon="4.72745">
        <ele>328.0856</ele>
        <time>2023-09-02T12:14:37.000Z</time>
      </trkpt>
      <trkpt lat="45.83546" lon="4.72746">
        <ele>328.69415</ele>
        <time>2023-09-02T12:14:38.000Z</time>
      </trkpt>
      <trkpt lat="45.83542" lon="4.72747">
        <ele>329.2326</ele>
        <time>2023-09-02T12:14:39.000Z</time>
      </trkpt>
      <trkpt lat="45.83538" lon="4.72748">
        <ele>329.73459</ele>
        <time>2023-09-02T12:14:40.000Z</time>
      </trkpt>
      <trkpt lat="45.83535" lon="4.72748">
        <ele>330.84171</ele>
        <time>2023-09-02T12:14:41.000Z</time>
      </trkpt>
      <trkpt lat="45.83531" lon="4.72749">
        <ele>331.55173</ele>
        <time>2023-09-02T12:14:42.000Z</time>
      </trkpt>
      <trkpt lat="45.83527" lon="4.7275">
        <ele>332.26981</ele>
        <time>2023-09-02T12:14:43.000Z</time>
      </trkpt>
      <trkpt lat="45.83523" lon="4.72751">
        <ele>332.582</ele>
        <time>2023-09-02T12:14:44.000Z</time>
      </trkpt>
      <trkpt lat="45.83519" lon="4.72752">
        <ele>332.92938</ele>
        <time>2023-09-02T12:14:45.000Z</time>
      </trkpt>
      <trkpt lat="45.83515" lon="4.72753">
        <ele>333.25565</ele>
        <time>2023-09-02T12:14:46.000Z</time>
      </trkpt>
      <trkpt lat="45.83512" lon="4.72754">
        <ele>333.59741</ele>
        <time>2023-09-02T12:14:47.000Z</time>
      </trkpt>
      <trkpt lat="45.83509" lon="4.72755">
        <ele>333.94766</ele>
        <time>2023-09-02T12:14:48.000Z</time>
      </trkpt>
      <trkpt lat="45.83505" lon="4.72755">
        <ele>334.33682</ele>
        <time>2023-09-02T12:14:49.000Z</time>
      </trkpt>
      <trkpt lat="45.83501" lon="4.72756">
        <ele>334.71811</ele>
        <time>2023-09-02T12:14:50.000Z</time>
      </trkpt>
      <trkpt lat="45.83497" lon="4.72757">
        <ele>335.03934</ele>
        <time>2023-09-02T12:14:51.000Z</time>
      </trkpt>
      <trkpt lat="45.83493" lon="4.72759">
        <ele>335.36139</ele>
        <time>2023-09-02T12:14:52.000Z</time>
      </trkpt>
      <trkpt lat="45.83489" lon="4.7276">
        <ele>335.64301</ele>
        <time>2023-09-02T12:14:53.000Z</time>
      </trkpt>
      <trkpt lat="45.83485" lon="4.72762">
        <ele>335.92609</ele>
        <time>2023-09-02T12:14:54.000Z</time>
      </trkpt>
      <trkpt lat="45.83481" lon="4.72763">
        <ele>336.23315</ele>
        <time>2023-09-02T12:14:55.000Z</time>
      </trkpt>
      <trkpt lat="45.83477" lon="4.72764">
        <ele>336.48322</ele>
        <time>2023-09-02T12:14:56.000Z</time>
      </trkpt>
      <trkpt lat="45.83473" lon="4.72765">
        <ele>336.74271</ele>
        <time>2023-09-02T12:14:57.000Z</time>
      </trkpt>
      <trkpt lat="45.83469" lon="4.72766">
        <ele>336.95047</ele>
        <time>2023-09-02T12:14:58.000Z</time>
      </trkpt>
      <trkpt lat="45.83464" lon="4.72767">
        <ele>337.16632</ele>
        <time>2023-09-02T12:14:59.000Z</time>
      </trkpt>
      <trkpt lat="45.8346" lon="4.72768">
        <ele>337.52704</ele>
        <time>2023-09-02T12:15:00.000Z</time>
      </trkpt>
      <trkpt lat="45.83456" lon="4.72769">
        <ele>337.24686</ele>
        <time>2023-09-02T12:15:01.000Z</time>
      </trkpt>
      <trkpt lat="45.83452" lon="4.72771">
        <ele>337.36758</ele>
        <time>2023-09-02T12:15:02.000Z</time>
      </trkpt>
      <trkpt lat="45.83448" lon="4.72772">
        <ele>337.43021</ele>
        <time>2023-09-02T12:15:03.000Z</time>
      </trkpt>
      <trkpt lat="45.83445" lon="4.72774">
        <ele>337.51581</ele>
        <time>2023-09-02T12:15:04.000Z</time>
      </trkpt>
      <trkpt lat="45.83442" lon="4.72775">
        <ele>337.54626</ele>
        <time>2023-09-02T12:15:05.000Z</time>
      </trkpt>
      <trkpt lat="45.83438" lon="4.72778">
        <ele>337.87933</ele>
        <time>2023-09-02T12:15:06.000Z</time>
      </trkpt>
      <trkpt lat="45.83434" lon="4.72782">
        <ele>338.17871</ele>
        <time>2023-09-02T12:15:07.000Z</time>
      </trkpt>
      <trkpt lat="45.83432" lon="4.72787">
        <ele>338.49783</ele>
        <time>2023-09-02T12:15:08.000Z</time>
      </trkpt>
      <trkpt lat="45.83432" lon="4.72794">
        <ele>338.79831</ele>
        <time>2023-09-02T12:15:09.000Z</time>
      </trkpt>
      <trkpt lat="45.83433" lon="4.72801">
        <ele>339.11517</ele>
        <time>2023-09-02T12:15:10.000Z</time>
      </trkpt>
      <trkpt lat="45.83436" lon="4.72813">
        <ele>339.48712</ele>
        <time>2023-09-02T12:15:11.000Z</time>
      </trkpt>
      <trkpt lat="45.83436" lon="4.7282">
        <ele>339.86691</ele>
        <time>2023-09-02T12:15:12.000Z</time>
      </trkpt>
      <trkpt lat="45.83436" lon="4.72825">
        <ele>340.26773</ele>
        <time>2023-09-02T12:15:13.000Z</time>
      </trkpt>
      <trkpt lat="45.83435" lon="4.72831">
        <ele>340.67007</ele>
        <time>2023-09-02T12:15:14.000Z</time>
      </trkpt>
      <trkpt lat="45.83436" lon="4.72839">
        <ele>341.06387</ele>
        <time>2023-09-02T12:15:15.000Z</time>
      </trkpt>
      <trkpt lat="45.83437" lon="4.72844">
        <ele>341.51526</ele>
        <time>2023-09-02T12:15:16.000Z</time>
      </trkpt>
      <trkpt lat="45.83438" lon="4.7285">
        <ele>341.97003</ele>
        <time>2023-09-02T12:15:17.000Z</time>
      </trkpt>
      <trkpt lat="45.83438" lon="4.72856">
        <ele>342.45502</ele>
        <time>2023-09-02T12:15:18.000Z</time>
      </trkpt>
      <trkpt lat="45.83439" lon="4.72861">
        <ele>343.02585</ele>
        <time>2023-09-02T12:15:19.000Z</time>
      </trkpt>
      <trkpt lat="45.8344" lon="4.72867">
        <ele>343.42987</ele>
        <time>2023-09-02T12:15:20.000Z</time>
      </trkpt>
      <trkpt lat="45.83442" lon="4.72872">
        <ele>343.74554</ele>
        <time>2023-09-02T12:15:21.000Z</time>
      </trkpt>
      <trkpt lat="45.83443" lon="4.7288">
        <ele>344.01874</ele>
        <time>2023-09-02T12:15:22.000Z</time>
      </trkpt>
      <trkpt lat="45.83444" lon="4.72886">
        <ele>344.28497</ele>
        <time>2023-09-02T12:15:23.000Z</time>
      </trkpt>
      <trkpt lat="45.83444" lon="4.72893">
        <ele>344.51987</ele>
        <time>2023-09-02T12:15:24.000Z</time>
      </trkpt>
      <trkpt lat="45.83444" lon="4.72899">
        <ele>344.77805</ele>
        <time>2023-09-02T12:15:25.000Z</time>
      </trkpt>
      <trkpt lat="45.83445" lon="4.72905">
        <ele>344.71866</ele>
        <time>2023-09-02T12:15:26.000Z</time>
      </trkpt>
      <trkpt lat="45.83446" lon="4.7291">
        <ele>344.43417</ele>
        <time>2023-09-02T12:15:27.000Z</time>
      </trkpt>
      <trkpt lat="45.83447" lon="4.72916">
        <ele>344.27893</ele>
        <time>2023-09-02T12:15:28.000Z</time>
      </trkpt>
      <trkpt lat="45.83449" lon="4.7292">
        <ele>344.2464</ele>
        <time>2023-09-02T12:15:29.000Z</time>
      </trkpt>
      <trkpt lat="45.8345" lon="4.72925">
        <ele>344.16577</ele>
        <time>2023-09-02T12:15:30.000Z</time>
      </trkpt>
      <trkpt lat="45.83451" lon="4.72929">
        <ele>344.017</ele>
        <time>2023-09-02T12:15:31.000Z</time>
      </trkpt>
      <trkpt lat="45.83453" lon="4.72933">
        <ele>343.99521</ele>
        <time>2023-09-02T12:15:32.000Z</time>
      </trkpt>
      <trkpt lat="45.83454" lon="4.72938">
        <ele>343.85858</ele>
        <time>2023-09-02T12:15:33.000Z</time>
      </trkpt>
      <trkpt lat="45.83455" lon="4.72943">
        <ele>343.9873</ele>
        <time>2023-09-02T12:15:34.000Z</time>
      </trkpt>
      <trkpt lat="45.83456" lon="4.72947">
        <ele>344.26212</ele>
        <time>2023-09-02T12:15:35.000Z</time>
      </trkpt>
      <trkpt lat="45.83458" lon="4.72951">
        <ele>344.57187</ele>
        <time>2023-09-02T12:15:36.000Z</time>
      </trkpt>
      <trkpt lat="45.8346" lon="4.72955">
        <ele>344.33841</ele>
        <time>2023-09-02T12:15:37.000Z</time>
      </trkpt>
      <trkpt lat="45.83461" lon="4.72958">
        <ele>344.25919</ele>
        <time>2023-09-02T12:15:38.000Z</time>
      </trkpt>
      <trkpt lat="45.83462" lon="4.72961">
        <ele>344.16812</ele>
        <time>2023-09-02T12:15:39.000Z</time>
      </trkpt>
      <trkpt lat="45.83463" lon="4.72965">
        <ele>344.15179</ele>
        <time>2023-09-02T12:15:40.000Z</time>
      </trkpt>
      <trkpt lat="45.83464" lon="4.72968">
        <ele>344.29883</ele>
        <time>2023-09-02T12:15:41.000Z</time>
      </trkpt>
      <trkpt lat="45.83466" lon="4.72972">
        <ele>344.66592</ele>
        <time>2023-09-02T12:15:42.000Z</time>
      </trkpt>
      <trkpt lat="45.83467" lon="4.72975">
        <ele>345.18619</ele>
        <time>2023-09-02T12:15:43.000Z</time>
      </trkpt>
      <trkpt lat="45.83468" lon="4.72978">
        <ele>345.89886</ele>
        <time>2023-09-02T12:15:44.000Z</time>
      </trkpt>
      <trkpt lat="45.83469" lon="4.72982">
        <ele>346.60321</ele>
        <time>2023-09-02T12:15:45.000Z</time>
      </trkpt>
      <trkpt lat="45.83469" lon="4.72986">
        <ele>347.34735</ele>
        <time>2023-09-02T12:15:46.000Z</time>
      </trkpt>
      <trkpt lat="45.8347" lon="4.72991">
        <ele>348.34192</ele>
        <time>2023-09-02T12:15:47.000Z</time>
      </trkpt>
      <trkpt lat="45.83471" lon="4.72995">
        <ele>349.20816</ele>
        <time>2023-09-02T12:15:48.000Z</time>
      </trkpt>
      <trkpt lat="45.83472" lon="4.73">
        <ele>349.93292</ele>
        <time>2023-09-02T12:15:49.000Z</time>
      </trkpt>
      <trkpt lat="45.83472" lon="4.73004">
        <ele>350.62354</ele>
        <time>2023-09-02T12:15:50.000Z</time>
      </trkpt>
      <trkpt lat="45.83474" lon="4.73009">
        <ele>351.1647</ele>
        <time>2023-09-02T12:15:51.000Z</time>
      </trkpt>
      <trkpt lat="45.83475" lon="4.73014">
        <ele>351.89099</ele>
        <time>2023-09-02T12:15:52.000Z</time>
      </trkpt>
      <trkpt lat="45.83477" lon="4.73018">
        <ele>352.70859</ele>
        <time>2023-09-02T12:15:53.000Z</time>
      </trkpt>
      <trkpt lat="45.8348" lon="4.73022">
        <ele>353.29095</ele>
        <time>2023-09-02T12:15:54.000Z</time>
      </trkpt>
      <trkpt lat="45.83483" lon="4.73026">
        <ele>353.74139</ele>
        <time>2023-09-02T12:15:55.000Z</time>
      </trkpt>
      <trkpt lat="45.83488" lon="4.73034">
        <ele>353.45853</ele>
        <time>2023-09-02T12:15:56.000Z</time>
      </trkpt>
      <trkpt lat="45.83491" lon="4.73037">
        <ele>353.91406</ele>
        <time>2023-09-02T12:15:57.000Z</time>
      </trkpt>
      <trkpt lat="45.83495" lon="4.73041">
        <ele>354.20477</ele>
        <time>2023-09-02T12:15:58.000Z</time>
      </trkpt>
      <trkpt lat="45.83499" lon="4.73045">
        <ele>354.18646</ele>
        <time>2023-09-02T12:15:59.000Z</time>
      </trkpt>
      <trkpt lat="45.83503" lon="4.73049">
        <ele>354.01413</ele>
        <time>2023-09-02T12:16:00.000Z</time>
      </trkpt>
      <trkpt lat="45.83506" lon="4.73053">
        <ele>353.76331</ele>
        <time>2023-09-02T12:16:01.000Z</time>
      </trkpt>
      <trkpt lat="45.83509" lon="4.73055">
        <ele>353.29318</ele>
        <time>2023-09-02T12:16:02.000Z</time>
      </trkpt>
      <trkpt lat="45.83514" lon="4.73058">
        <ele>352.64709</ele>
        <time>2023-09-02T12:16:03.000Z</time>
      </trkpt>
      <trkpt lat="45.83518" lon="4.73061">
        <ele>351.7699</ele>
        <time>2023-09-02T12:16:04.000Z</time>
      </trkpt>
      <trkpt lat="45.83523" lon="4.73063">
        <ele>350.9057</ele>
        <time>2023-09-02T12:16:05.000Z</time>
      </trkpt>
      <trkpt lat="45.83526" lon="4.73065">
        <ele>350.0462</ele>
        <time>2023-09-02T12:16:06.000Z</time>
      </trkpt>
      <trkpt lat="45.83531" lon="4.73066">
        <ele>349.18378</ele>
        <time>2023-09-02T12:16:07.000Z</time>
      </trkpt>
      <trkpt lat="45.83536" lon="4.73066">
        <ele>348.42365</ele>
        <time>2023-09-02T12:16:08.000Z</time>
      </trkpt>
      <trkpt lat="45.83541" lon="4.73066">
        <ele>347.7435</ele>
        <time>2023-09-02T12:16:09.000Z</time>
      </trkpt>
      <trkpt lat="45.83545" lon="4.73066">
        <ele>347.16406</ele>
        <time>2023-09-02T12:16:10.000Z</time>
      </trkpt>
      <trkpt lat="45.8355" lon="4.73066">
        <ele>346.77539</ele>
        <time>2023-09-02T12:16:11.000Z</time>
      </trkpt>
      <trkpt lat="45.83554" lon="4.73065">
        <ele>346.23904</ele>
        <time>2023-09-02T12:16:12.000Z</time>
      </trkpt>
      <trkpt lat="45.83557" lon="4.73064">
        <ele>345.76117</ele>
        <time>2023-09-02T12:16:13.000Z</time>
      </trkpt>
      <trkpt lat="45.83561" lon="4.73063">
        <ele>345.4281</ele>
        <time>2023-09-02T12:16:14.000Z</time>
      </trkpt>
      <trkpt lat="45.83565" lon="4.73062">
        <ele>345.08441</ele>
        <time>2023-09-02T12:16:15.000Z</time>
      </trkpt>
      <trkpt lat="45.83569" lon="4.7306">
        <ele>345.45645</ele>
        <time>2023-09-02T12:16:16.000Z</time>
      </trkpt>
      <trkpt lat="45.83572" lon="4.73059">
        <ele>345.21429</ele>
        <time>2023-09-02T12:16:17.000Z</time>
      </trkpt>
      <trkpt lat="45.83576" lon="4.73058">
        <ele>345.09076</ele>
        <time>2023-09-02T12:16:18.000Z</time>
      </trkpt>
      <trkpt lat="45.8358" lon="4.73057">
        <ele>345.27728</ele>
        <time>2023-09-02T12:16:19.000Z</time>
      </trkpt>
      <trkpt lat="45.83584" lon="4.73055">
        <ele>345.53717</ele>
        <time>2023-09-02T12:16:20.000Z</time>
      </trkpt>
      <trkpt lat="45.83588" lon="4.73054">
        <ele>345.90411</ele>
        <time>2023-09-02T12:16:21.000Z</time>
      </trkpt>
      <trkpt lat="45.83592" lon="4.73052">
        <ele>346.19815</ele>
        <time>2023-09-02T12:16:22.000Z</time>
      </trkpt>
      <trkpt lat="45.83595" lon="4.7305">
        <ele>346.63226</ele>
        <time>2023-09-02T12:16:23.000Z</time>
      </trkpt>
      <trkpt lat="45.83599" lon="4.73048">
        <ele>347.22467</ele>
        <time>2023-09-02T12:16:24.000Z</time>
      </trkpt>
      <trkpt lat="45.83603" lon="4.73045">
        <ele>347.71051</ele>
        <time>2023-09-02T12:16:25.000Z</time>
      </trkpt>
      <trkpt lat="45.83607" lon="4.73043">
        <ele>347.66571</ele>
        <time>2023-09-02T12:16:26.000Z</time>
      </trkpt>
      <trkpt lat="45.83611" lon="4.7304">
        <ele>347.64398</ele>
        <time>2023-09-02T12:16:27.000Z</time>
      </trkpt>
      <trkpt lat="45.83615" lon="4.73038">
        <ele>347.49756</ele>
        <time>2023-09-02T12:16:28.000Z</time>
      </trkpt>
      <trkpt lat="45.83622" lon="4.73035">
        <ele>347.27081</ele>
        <time>2023-09-02T12:16:29.000Z</time>
      </trkpt>
      <trkpt lat="45.83628" lon="4.73032">
        <ele>347.07739</ele>
        <time>2023-09-02T12:16:30.000Z</time>
      </trkpt>
      <trkpt lat="45.83633" lon="4.73029">
        <ele>346.87048</ele>
        <time>2023-09-02T12:16:31.000Z</time>
      </trkpt>
      <trkpt lat="45.83639" lon="4.73027">
        <ele>346.48804</ele>
        <time>2023-09-02T12:16:32.000Z</time>
      </trkpt>
      <trkpt lat="45.83646" lon="4.73025">
        <ele>346.05777</ele>
        <time>2023-09-02T12:16:33.000Z</time>
      </trkpt>
      <trkpt lat="45.83653" lon="4.73022">
        <ele>345.55084</ele>
        <time>2023-09-02T12:16:34.000Z</time>
      </trkpt>
      <trkpt lat="45.83661" lon="4.73019">
        <ele>344.96262</ele>
        <time>2023-09-02T12:16:35.000Z</time>
      </trkpt>
      <trkpt lat="45.83669" lon="4.73019">
        <ele>344.224</ele>
        <time>2023-09-02T12:16:36.000Z</time>
      </trkpt>
      <trkpt lat="45.83679" lon="4.73019">
        <ele>343.86285</ele>
        <time>2023-09-02T12:16:37.000Z</time>
      </trkpt>
      <trkpt lat="45.83688" lon="4.73019">
        <ele>343.43365</ele>
        <time>2023-09-02T12:16:38.000Z</time>
      </trkpt>
      <trkpt lat="45.83697" lon="4.7302">
        <ele>342.95413</ele>
        <time>2023-09-02T12:16:39.000Z</time>
      </trkpt>
      <trkpt lat="45.83707" lon="4.7302">
        <ele>342.3801</ele>
        <time>2023-09-02T12:16:40.000Z</time>
      </trkpt>
      <trkpt lat="45.83715" lon="4.73019">
        <ele>341.86502</ele>
        <time>2023-09-02T12:16:41.000Z</time>
      </trkpt>
      <trkpt lat="45.83721" lon="4.73015">
        <ele>341.07471</ele>
        <time>2023-09-02T12:16:42.000Z</time>
      </trkpt>
      <trkpt lat="45.83728" lon="4.73015">
        <ele>340.22894</ele>
        <time>2023-09-02T12:16:43.000Z</time>
      </trkpt>
      <trkpt lat="45.83733" lon="4.73017">
        <ele>339.31039</ele>
        <time>2023-09-02T12:16:44.000Z</time>
      </trkpt>
      <trkpt lat="45.83738" lon="4.73022">
        <ele>338.52701</ele>
        <time>2023-09-02T12:16:45.000Z</time>
      </trkpt>
      <trkpt lat="45.83743" lon="4.73026">
        <ele>338.32159</ele>
        <time>2023-09-02T12:16:46.000Z</time>
      </trkpt>
      <trkpt lat="45.83744" lon="4.73034">
        <ele>338.08411</ele>
        <time>2023-09-02T12:16:47.000Z</time>
      </trkpt>
      <trkpt lat="45.83747" lon="4.7304">
        <ele>337.82837</ele>
        <time>2023-09-02T12:16:48.000Z</time>
      </trkpt>
      <trkpt lat="45.8375" lon="4.73047">
        <ele>337.63959</ele>
        <time>2023-09-02T12:16:49.000Z</time>
      </trkpt>
      <trkpt lat="45.83751" lon="4.73054">
        <ele>337.47003</ele>
        <time>2023-09-02T12:16:50.000Z</time>
      </trkpt>
      <trkpt lat="45.8375" lon="4.73059">
        <ele>337.29575</ele>
        <time>2023-09-02T12:16:51.000Z</time>
      </trkpt>
      <trkpt lat="45.83749" lon="4.73066">
        <ele>337.14594</ele>
        <time>2023-09-02T12:16:52.000Z</time>
      </trkpt>
      <trkpt lat="45.83748" lon="4.73072">
        <ele>336.99707</ele>
        <time>2023-09-02T12:16:53.000Z</time>
      </trkpt>
      <trkpt lat="45.83748" lon="4.73078">
        <ele>336.87003</ele>
        <time>2023-09-02T12:16:54.000Z</time>
      </trkpt>
      <trkpt lat="45.8375" lon="4.73083">
        <ele>336.74286</ele>
        <time>2023-09-02T12:16:55.000Z</time>
      </trkpt>
      <trkpt lat="45.83751" lon="4.73088">
        <ele>336.73975</ele>
        <time>2023-09-02T12:16:56.000Z</time>
      </trkpt>
      <trkpt lat="45.83753" lon="4.73093">
        <ele>336.7066</ele>
        <time>2023-09-02T12:16:57.000Z</time>
      </trkpt>
      <trkpt lat="45.83754" lon="4.73097">
        <ele>336.60864</ele>
        <time>2023-09-02T12:16:58.000Z</time>
      </trkpt>
      <trkpt lat="45.83756" lon="4.73102">
        <ele>336.46442</ele>
        <time>2023-09-02T12:16:59.000Z</time>
      </trkpt>
      <trkpt lat="45.83758" lon="4.73105">
        <ele>336.23349</ele>
        <time>2023-09-02T12:17:00.000Z</time>
      </trkpt>
      <trkpt lat="45.8376" lon="4.73109">
        <ele>335.90396</ele>
        <time>2023-09-02T12:17:01.000Z</time>
      </trkpt>
      <trkpt lat="45.83762" lon="4.73112">
        <ele>335.93805</ele>
        <time>2023-09-02T12:17:02.000Z</time>
      </trkpt>
      <trkpt lat="45.83763" lon="4.73115">
        <ele>335.89188</ele>
        <time>2023-09-02T12:17:03.000Z</time>
      </trkpt>
      <trkpt lat="45.83765" lon="4.73118">
        <ele>335.9476</ele>
        <time>2023-09-02T12:17:04.000Z</time>
      </trkpt>
      <trkpt lat="45.83766" lon="4.73121">
        <ele>336.02139</ele>
        <time>2023-09-02T12:17:05.000Z</time>
      </trkpt>
      <trkpt lat="45.83767" lon="4.73124">
        <ele>336.02225</ele>
        <time>2023-09-02T12:17:06.000Z</time>
      </trkpt>
      <trkpt lat="45.83768" lon="4.73127">
        <ele>336.0672</ele>
        <time>2023-09-02T12:17:07.000Z</time>
      </trkpt>
      <trkpt lat="45.83769" lon="4.73131">
        <ele>336.155</ele>
        <time>2023-09-02T12:17:08.000Z</time>
      </trkpt>
      <trkpt lat="45.8377" lon="4.73135">
        <ele>336.21689</ele>
        <time>2023-09-02T12:17:09.000Z</time>
      </trkpt>
      <trkpt lat="45.83771" lon="4.73139">
        <ele>336.18408</ele>
        <time>2023-09-02T12:17:10.000Z</time>
      </trkpt>
      <trkpt lat="45.83772" lon="4.73144">
        <ele>336.17267</ele>
        <time>2023-09-02T12:17:11.000Z</time>
      </trkpt>
      <trkpt lat="45.83773" lon="4.73149">
        <ele>336.01651</ele>
        <time>2023-09-02T12:17:12.000Z</time>
      </trkpt>
      <trkpt lat="45.83775" lon="4.73153">
        <ele>335.93283</ele>
        <time>2023-09-02T12:17:13.000Z</time>
      </trkpt>
      <trkpt lat="45.83776" lon="4.73158">
        <ele>335.73657</ele>
        <time>2023-09-02T12:17:14.000Z</time>
      </trkpt>
      <trkpt lat="45.83777" lon="4.73164">
        <ele>335.67587</ele>
        <time>2023-09-02T12:17:15.000Z</time>
      </trkpt>
      <trkpt lat="45.83778" lon="4.73169">
        <ele>335.59122</ele>
        <time>2023-09-02T12:17:16.000Z</time>
      </trkpt>
      <trkpt lat="45.83779" lon="4.73174">
        <ele>335.57263</ele>
        <time>2023-09-02T12:17:17.000Z</time>
      </trkpt>
      <trkpt lat="45.83781" lon="4.73178">
        <ele>335.62366</ele>
        <time>2023-09-02T12:17:18.000Z</time>
      </trkpt>
      <trkpt lat="45.83783" lon="4.73181">
        <ele>335.69363</ele>
        <time>2023-09-02T12:17:19.000Z</time>
      </trkpt>
      <trkpt lat="45.83786" lon="4.73182">
        <ele>335.95435</ele>
        <time>2023-09-02T12:17:20.000Z</time>
      </trkpt>
      <trkpt lat="45.8379" lon="4.73181">
        <ele>336.16437</ele>
        <time>2023-09-02T12:17:21.000Z</time>
      </trkpt>
      <trkpt lat="45.83794" lon="4.73177">
        <ele>336.39151</ele>
        <time>2023-09-02T12:17:22.000Z</time>
      </trkpt>
      <trkpt lat="45.83797" lon="4.73174">
        <ele>336.67889</ele>
        <time>2023-09-02T12:17:23.000Z</time>
      </trkpt>
      <trkpt lat="45.838" lon="4.7317">
        <ele>336.93033</ele>
        <time>2023-09-02T12:17:24.000Z</time>
      </trkpt>
      <trkpt lat="45.83804" lon="4.73167">
        <ele>337.10703</ele>
        <time>2023-09-02T12:17:25.000Z</time>
      </trkpt>
      <trkpt lat="45.83807" lon="4.73164">
        <ele>337.31464</ele>
        <time>2023-09-02T12:17:26.000Z</time>
      </trkpt>
      <trkpt lat="45.83811" lon="4.73162">
        <ele>337.47964</ele>
        <time>2023-09-02T12:17:27.000Z</time>
      </trkpt>
      <trkpt lat="45.83815" lon="4.73159">
        <ele>337.63083</ele>
        <time>2023-09-02T12:17:28.000Z</time>
      </trkpt>
      <trkpt lat="45.83818" lon="4.73155">
        <ele>337.76056</ele>
        <time>2023-09-02T12:17:29.000Z</time>
      </trkpt>
      <trkpt lat="45.83822" lon="4.73149">
        <ele>337.71637</ele>
        <time>2023-09-02T12:17:30.000Z</time>
      </trkpt>
      <trkpt lat="45.83826" lon="4.73146">
        <ele>337.67322</ele>
        <time>2023-09-02T12:17:31.000Z</time>
      </trkpt>
      <trkpt lat="45.83829" lon="4.73143">
        <ele>338.01361</ele>
        <time>2023-09-02T12:17:32.000Z</time>
      </trkpt>
      <trkpt lat="45.83833" lon="4.73139">
        <ele>338.28345</ele>
        <time>2023-09-02T12:17:33.000Z</time>
      </trkpt>
      <trkpt lat="45.83836" lon="4.73136">
        <ele>338.25589</ele>
        <time>2023-09-02T12:17:34.000Z</time>
      </trkpt>
      <trkpt lat="45.83841" lon="4.73134">
        <ele>338.16687</ele>
        <time>2023-09-02T12:17:35.000Z</time>
      </trkpt>
      <trkpt lat="45.83844" lon="4.73132">
        <ele>338.10031</ele>
        <time>2023-09-02T12:17:36.000Z</time>
      </trkpt>
      <trkpt lat="45.83848" lon="4.7313">
        <ele>338.0451</ele>
        <time>2023-09-02T12:17:37.000Z</time>
      </trkpt>
      <trkpt lat="45.83852" lon="4.73127">
        <ele>337.97418</ele>
        <time>2023-09-02T12:17:38.000Z</time>
      </trkpt>
      <trkpt lat="45.83856" lon="4.73124">
        <ele>337.90317</ele>
        <time>2023-09-02T12:17:39.000Z</time>
      </trkpt>
      <trkpt lat="45.83861" lon="4.73122">
        <ele>337.83401</ele>
        <time>2023-09-02T12:17:40.000Z</time>
      </trkpt>
      <trkpt lat="45.83865" lon="4.7312">
        <ele>337.7673</ele>
        <time>2023-09-02T12:17:41.000Z</time>
      </trkpt>
      <trkpt lat="45.83869" lon="4.73117">
        <ele>337.68893</ele>
        <time>2023-09-02T12:17:42.000Z</time>
      </trkpt>
      <trkpt lat="45.83874" lon="4.73115">
        <ele>337.79095</ele>
        <time>2023-09-02T12:17:43.000Z</time>
      </trkpt>
      <trkpt lat="45.83879" lon="4.73113">
        <ele>337.91129</ele>
        <time>2023-09-02T12:17:44.000Z</time>
      </trkpt>
      <trkpt lat="45.83885" lon="4.73112">
        <ele>337.71686</ele>
        <time>2023-09-02T12:17:45.000Z</time>
      </trkpt>
      <trkpt lat="45.83889" lon="4.7311">
        <ele>337.48969</ele>
        <time>2023-09-02T12:17:46.000Z</time>
      </trkpt>
      <trkpt lat="45.83894" lon="4.73109">
        <ele>337.26276</ele>
        <time>2023-09-02T12:17:47.000Z</time>
      </trkpt>
      <trkpt lat="45.83898" lon="4.73108">
        <ele>337.034</ele>
        <time>2023-09-02T12:17:48.000Z</time>
      </trkpt>
      <trkpt lat="45.83903" lon="4.73108">
        <ele>336.81332</ele>
        <time>2023-09-02T12:17:49.000Z</time>
      </trkpt>
      <trkpt lat="45.83907" lon="4.73107">
        <ele>336.79181</ele>
        <time>2023-09-02T12:17:50.000Z</time>
      </trkpt>
      <trkpt lat="45.83912" lon="4.73106">
        <ele>336.7807</ele>
        <time>2023-09-02T12:17:51.000Z</time>
      </trkpt>
      <trkpt lat="45.83917" lon="4.73105">
        <ele>336.52155</ele>
        <time>2023-09-02T12:17:52.000Z</time>
      </trkpt>
      <trkpt lat="45.83923" lon="4.73104">
        <ele>336.23767</ele>
        <time>2023-09-02T12:17:53.000Z</time>
      </trkpt>
      <trkpt lat="45.83929" lon="4.73103">
        <ele>336.22363</ele>
        <time>2023-09-02T12:17:54.000Z</time>
      </trkpt>
      <trkpt lat="45.83934" lon="4.73101">
        <ele>336.20514</ele>
        <time>2023-09-02T12:17:55.000Z</time>
      </trkpt>
      <trkpt lat="45.8394" lon="4.73099">
        <ele>336.18198</ele>
        <time>2023-09-02T12:17:56.000Z</time>
      </trkpt>
      <trkpt lat="45.83946" lon="4.73097">
        <ele>336.14056</ele>
        <time>2023-09-02T12:17:57.000Z</time>
      </trkpt>
      <trkpt lat="45.83952" lon="4.73096">
        <ele>336.08578</ele>
        <time>2023-09-02T12:17:58.000Z</time>
      </trkpt>
      <trkpt lat="45.83958" lon="4.73094">
        <ele>336.00894</ele>
        <time>2023-09-02T12:17:59.000Z</time>
      </trkpt>
      <trkpt lat="45.83964" lon="4.73092">
        <ele>335.95578</ele>
        <time>2023-09-02T12:18:00.000Z</time>
      </trkpt>
      <trkpt lat="45.8397" lon="4.7309">
        <ele>335.87323</ele>
        <time>2023-09-02T12:18:01.000Z</time>
      </trkpt>
      <trkpt lat="45.83975" lon="4.73088">
        <ele>335.80417</ele>
        <time>2023-09-02T12:18:02.000Z</time>
      </trkpt>
      <trkpt lat="45.8398" lon="4.73086">
        <ele>336.16989</ele>
        <time>2023-09-02T12:18:03.000Z</time>
      </trkpt>
      <trkpt lat="45.83985" lon="4.73085">
        <ele>336.41129</ele>
        <time>2023-09-02T12:18:04.000Z</time>
      </trkpt>
      <trkpt lat="45.83989" lon="4.73086">
        <ele>336.93304</ele>
        <time>2023-09-02T12:18:05.000Z</time>
      </trkpt>
      <trkpt lat="45.83992" lon="4.73088">
        <ele>337.46484</ele>
        <time>2023-09-02T12:18:06.000Z</time>
      </trkpt>
      <trkpt lat="45.83994" lon="4.7309">
        <ele>337.9751</ele>
        <time>2023-09-02T12:18:07.000Z</time>
      </trkpt>
      <trkpt lat="45.83996" lon="4.73092">
        <ele>338.46664</ele>
        <time>2023-09-02T12:18:08.000Z</time>
      </trkpt>
      <trkpt lat="45.83995" lon="4.73099">
        <ele>339.16132</ele>
        <time>2023-09-02T12:18:10.000Z</time>
      </trkpt>
      <trkpt lat="45.83996" lon="4.73102">
        <ele>339.98578</ele>
        <time>2023-09-02T12:18:11.000Z</time>
      </trkpt>
      <trkpt lat="45.83996" lon="4.73105">
        <ele>341.18558</ele>
        <time>2023-09-02T12:18:12.000Z</time>
      </trkpt>
      <trkpt lat="45.83997" lon="4.7311">
        <ele>342.1124</ele>
        <time>2023-09-02T12:18:13.000Z</time>
      </trkpt>
      <trkpt lat="45.83999" lon="4.73118">
        <ele>342.97925</ele>
        <time>2023-09-02T12:18:14.000Z</time>
      </trkpt>
      <trkpt lat="45.83999" lon="4.73124">
        <ele>344.02594</ele>
        <time>2023-09-02T12:18:15.000Z</time>
      </trkpt>
      <trkpt lat="45.84" lon="4.7313">
        <ele>345.10849</ele>
        <time>2023-09-02T12:18:16.000Z</time>
      </trkpt>
      <trkpt lat="45.84002" lon="4.73138">
        <ele>345.80511</ele>
        <time>2023-09-02T12:18:17.000Z</time>
      </trkpt>
      <trkpt lat="45.84001" lon="4.73144">
        <ele>346.57129</ele>
        <time>2023-09-02T12:18:18.000Z</time>
      </trkpt>
      <trkpt lat="45.84001" lon="4.73151">
        <ele>347.34543</ele>
        <time>2023-09-02T12:18:19.000Z</time>
      </trkpt>
      <trkpt lat="45.84002" lon="4.73159">
        <ele>348.12921</ele>
        <time>2023-09-02T12:18:20.000Z</time>
      </trkpt>
      <trkpt lat="45.84002" lon="4.73167">
        <ele>348.84793</ele>
        <time>2023-09-02T12:18:21.000Z</time>
      </trkpt>
      <trkpt lat="45.84003" lon="4.73177">
        <ele>349.60922</ele>
        <time>2023-09-02T12:18:22.000Z</time>
      </trkpt>
      <trkpt lat="45.84004" lon="4.73186">
        <ele>350.30814</ele>
        <time>2023-09-02T12:18:23.000Z</time>
      </trkpt>
      <trkpt lat="45.84004" lon="4.73194">
        <ele>350.49323</ele>
        <time>2023-09-02T12:18:24.000Z</time>
      </trkpt>
      <trkpt lat="45.84004" lon="4.73201">
        <ele>350.55615</ele>
        <time>2023-09-02T12:18:25.000Z</time>
      </trkpt>
      <trkpt lat="45.84004" lon="4.73209">
        <ele>351.03189</ele>
        <time>2023-09-02T12:18:26.000Z</time>
      </trkpt>
      <trkpt lat="45.84005" lon="4.73218">
        <ele>350.39429</ele>
        <time>2023-09-02T12:18:27.000Z</time>
      </trkpt>
      <trkpt lat="45.84006" lon="4.73224">
        <ele>349.76883</ele>
        <time>2023-09-02T12:18:28.000Z</time>
      </trkpt>
      <trkpt lat="45.84007" lon="4.73232">
        <ele>349.15961</ele>
        <time>2023-09-02T12:18:29.000Z</time>
      </trkpt>
      <trkpt lat="45.84007" lon="4.73239">
        <ele>348.35663</ele>
        <time>2023-09-02T12:18:30.000Z</time>
      </trkpt>
      <trkpt lat="45.84008" lon="4.73246">
        <ele>347.37878</ele>
        <time>2023-09-02T12:18:31.000Z</time>
      </trkpt>
      <trkpt lat="45.84012" lon="4.73251">
        <ele>346.25714</ele>
        <time>2023-09-02T12:18:32.000Z</time>
      </trkpt>
      <trkpt lat="45.84015" lon="4.73256">
        <ele>345.3277</ele>
        <time>2023-09-02T12:18:33.000Z</time>
      </trkpt>
      <trkpt lat="45.8402" lon="4.7326">
        <ele>344.41763</ele>
        <time>2023-09-02T12:18:34.000Z</time>
      </trkpt>
      <trkpt lat="45.84025" lon="4.73265">
        <ele>343.31647</ele>
        <time>2023-09-02T12:18:35.000Z</time>
      </trkpt>
      <trkpt lat="45.84029" lon="4.73269">
        <ele>342.17966</ele>
        <time>2023-09-02T12:18:36.000Z</time>
      </trkpt>
      <trkpt lat="45.84033" lon="4.73274">
        <ele>341.54837</ele>
        <time>2023-09-02T12:18:37.000Z</time>
      </trkpt>
      <trkpt lat="45.84037" lon="4.73278">
        <ele>340.84354</ele>
        <time>2023-09-02T12:18:38.000Z</time>
      </trkpt>
      <trkpt lat="45.84042" lon="4.73283">
        <ele>339.85611</ele>
        <time>2023-09-02T12:18:39.000Z</time>
      </trkpt>
      <trkpt lat="45.84046" lon="4.73288">
        <ele>338.80573</ele>
        <time>2023-09-02T12:18:40.000Z</time>
      </trkpt>
      <trkpt lat="45.8405" lon="4.73292">
        <ele>337.81284</ele>
        <time>2023-09-02T12:18:41.000Z</time>
      </trkpt>
      <trkpt lat="45.84054" lon="4.73296">
        <ele>336.81424</ele>
        <time>2023-09-02T12:18:42.000Z</time>
      </trkpt>
      <trkpt lat="45.84057" lon="4.73301">
        <ele>335.89145</ele>
        <time>2023-09-02T12:18:43.000Z</time>
      </trkpt>
      <trkpt lat="45.84061" lon="4.73303">
        <ele>334.88278</ele>
        <time>2023-09-02T12:18:44.000Z</time>
      </trkpt>
      <trkpt lat="45.84065" lon="4.73307">
        <ele>334.18549</ele>
        <time>2023-09-02T12:18:45.000Z</time>
      </trkpt>
      <trkpt lat="45.84069" lon="4.7331">
        <ele>333.18158</ele>
        <time>2023-09-02T12:18:46.000Z</time>
      </trkpt>
      <trkpt lat="45.84074" lon="4.73312">
        <ele>333.38217</ele>
        <time>2023-09-02T12:18:47.000Z</time>
      </trkpt>
      <trkpt lat="45.84078" lon="4.73315">
        <ele>333.35797</ele>
        <time>2023-09-02T12:18:48.000Z</time>
      </trkpt>
      <trkpt lat="45.84083" lon="4.73318">
        <ele>333.38986</ele>
        <time>2023-09-02T12:18:49.000Z</time>
      </trkpt>
      <trkpt lat="45.84087" lon="4.73322">
        <ele>333.42987</ele>
        <time>2023-09-02T12:18:50.000Z</time>
      </trkpt>
      <trkpt lat="45.84092" lon="4.73326">
        <ele>333.52594</ele>
        <time>2023-09-02T12:18:51.000Z</time>
      </trkpt>
      <trkpt lat="45.84096" lon="4.7333">
        <ele>333.39496</ele>
        <time>2023-09-02T12:18:52.000Z</time>
      </trkpt>
      <trkpt lat="45.84101" lon="4.73333">
        <ele>333.35101</ele>
        <time>2023-09-02T12:18:53.000Z</time>
      </trkpt>
      <trkpt lat="45.84106" lon="4.73336">
        <ele>333.21729</ele>
        <time>2023-09-02T12:18:54.000Z</time>
      </trkpt>
      <trkpt lat="45.8411" lon="4.73338">
        <ele>333.11017</ele>
        <time>2023-09-02T12:18:55.000Z</time>
      </trkpt>
      <trkpt lat="45.84114" lon="4.7334">
        <ele>333</ele>
        <time>2023-09-02T12:18:56.000Z</time>
      </trkpt>
      <trkpt lat="45.84118" lon="4.73343">
        <ele>332.74765</ele>
        <time>2023-09-02T12:18:57.000Z</time>
      </trkpt>
      <trkpt lat="45.84123" lon="4.73346">
        <ele>332.49619</ele>
        <time>2023-09-02T12:18:58.000Z</time>
      </trkpt>
      <trkpt lat="45.84128" lon="4.73348">
        <ele>332.52948</ele>
        <time>2023-09-02T12:18:59.000Z</time>
      </trkpt>
      <trkpt lat="45.84133" lon="4.73351">
        <ele>332.64435</ele>
        <time>2023-09-02T12:19:00.000Z</time>
      </trkpt>
      <trkpt lat="45.84137" lon="4.73354">
        <ele>332.76364</ele>
        <time>2023-09-02T12:19:01.000Z</time>
      </trkpt>
      <trkpt lat="45.84142" lon="4.73357">
        <ele>332.88672</ele>
        <time>2023-09-02T12:19:02.000Z</time>
      </trkpt>
      <trkpt lat="45.84146" lon="4.73362">
        <ele>332.98749</ele>
        <time>2023-09-02T12:19:03.000Z</time>
      </trkpt>
      <trkpt lat="45.8415" lon="4.73365">
        <ele>333.02667</ele>
        <time>2023-09-02T12:19:04.000Z</time>
      </trkpt>
      <trkpt lat="45.84155" lon="4.73367">
        <ele>332.63959</ele>
        <time>2023-09-02T12:19:05.000Z</time>
      </trkpt>
      <trkpt lat="45.8416" lon="4.73369">
        <ele>332.1568</ele>
        <time>2023-09-02T12:19:06.000Z</time>
      </trkpt>
      <trkpt lat="45.84165" lon="4.73373">
        <ele>331.577</ele>
        <time>2023-09-02T12:19:07.000Z</time>
      </trkpt>
      <trkpt lat="45.84169" lon="4.73377">
        <ele>331.22162</ele>
        <time>2023-09-02T12:19:08.000Z</time>
      </trkpt>
      <trkpt lat="45.84173" lon="4.73381">
        <ele>330.79706</ele>
        <time>2023-09-02T12:19:09.000Z</time>
      </trkpt>
      <trkpt lat="45.84174" lon="4.73387">
        <ele>330.38324</ele>
        <time>2023-09-02T12:19:10.000Z</time>
      </trkpt>
      <trkpt lat="45.84173" lon="4.73395">
        <ele>329.95615</ele>
        <time>2023-09-02T12:19:11.000Z</time>
      </trkpt>
      <trkpt lat="45.8417" lon="4.73402">
        <ele>329.99933</ele>
        <time>2023-09-02T12:19:12.000Z</time>
      </trkpt>
      <trkpt lat="45.84165" lon="4.73407">
        <ele>329.95807</ele>
        <time>2023-09-02T12:19:13.000Z</time>
      </trkpt>
      <trkpt lat="45.84159" lon="4.73412">
        <ele>330.06223</ele>
        <time>2023-09-02T12:19:14.000Z</time>
      </trkpt>
      <trkpt lat="45.84153" lon="4.73417">
        <ele>330.14377</ele>
        <time>2023-09-02T12:19:15.000Z</time>
      </trkpt>
      <trkpt lat="45.84147" lon="4.73423">
        <ele>330.23297</ele>
        <time>2023-09-02T12:19:16.000Z</time>
      </trkpt>
      <trkpt lat="45.8414" lon="4.73429">
        <ele>330.3165</ele>
        <time>2023-09-02T12:19:17.000Z</time>
      </trkpt>
      <trkpt lat="45.84134" lon="4.73435">
        <ele>330.39096</ele>
        <time>2023-09-02T12:19:18.000Z</time>
      </trkpt>
      <trkpt lat="45.84128" lon="4.73443">
        <ele>330.43378</ele>
        <time>2023-09-02T12:19:19.000Z</time>
      </trkpt>
      <trkpt lat="45.84121" lon="4.7345">
        <ele>330.44855</ele>
        <time>2023-09-02T12:19:20.000Z</time>
      </trkpt>
      <trkpt lat="45.84116" lon="4.73457">
        <ele>330.43723</ele>
        <time>2023-09-02T12:19:21.000Z</time>
      </trkpt>
      <trkpt lat="45.8411" lon="4.73465">
        <ele>330.39838</ele>
        <time>2023-09-02T12:19:22.000Z</time>
      </trkpt>
      <trkpt lat="45.84104" lon="4.73473">
        <ele>329.89218</ele>
        <time>2023-09-02T12:19:23.000Z</time>
      </trkpt>
      <trkpt lat="45.84099" lon="4.7348">
        <ele>329.44534</ele>
        <time>2023-09-02T12:19:24.000Z</time>
      </trkpt>
      <trkpt lat="45.84096" lon="4.73487">
        <ele>329.25668</ele>
        <time>2023-09-02T12:19:25.000Z</time>
      </trkpt>
      <trkpt lat="45.84092" lon="4.73494">
        <ele>329.1084</ele>
        <time>2023-09-02T12:19:26.000Z</time>
      </trkpt>
      <trkpt lat="45.84089" lon="4.735">
        <ele>328.9646</ele>
        <time>2023-09-02T12:19:27.000Z</time>
      </trkpt>
      <trkpt lat="45.84085" lon="4.73507">
        <ele>328.83307</ele>
        <time>2023-09-02T12:19:28.000Z</time>
      </trkpt>
      <trkpt lat="45.84082" lon="4.73512">
        <ele>328.71585</ele>
        <time>2023-09-02T12:19:29.000Z</time>
      </trkpt>
      <trkpt lat="45.84078" lon="4.73517">
        <ele>328.57007</ele>
        <time>2023-09-02T12:19:30.000Z</time>
      </trkpt>
      <trkpt lat="45.84073" lon="4.73521">
        <ele>328.40228</ele>
        <time>2023-09-02T12:19:31.000Z</time>
      </trkpt>
      <trkpt lat="45.84069" lon="4.73525">
        <ele>327.7424</ele>
        <time>2023-09-02T12:19:32.000Z</time>
      </trkpt>
      <trkpt lat="45.84065" lon="4.73529">
        <ele>327.12897</ele>
        <time>2023-09-02T12:19:33.000Z</time>
      </trkpt>
      <trkpt lat="45.84061" lon="4.73532">
        <ele>326.54675</ele>
        <time>2023-09-02T12:19:34.000Z</time>
      </trkpt>
      <trkpt lat="45.84057" lon="4.73535">
        <ele>326.0043</ele>
        <time>2023-09-02T12:19:35.000Z</time>
      </trkpt>
      <trkpt lat="45.84053" lon="4.73538">
        <ele>325.44403</ele>
        <time>2023-09-02T12:19:36.000Z</time>
      </trkpt>
      <trkpt lat="45.8405" lon="4.73541">
        <ele>325.00421</ele>
        <time>2023-09-02T12:19:37.000Z</time>
      </trkpt>
      <trkpt lat="45.84047" lon="4.73544">
        <ele>324.56717</ele>
        <time>2023-09-02T12:19:38.000Z</time>
      </trkpt>
      <trkpt lat="45.84043" lon="4.73546">
        <ele>324.14859</ele>
        <time>2023-09-02T12:19:39.000Z</time>
      </trkpt>
      <trkpt lat="45.84039" lon="4.73548">
        <ele>323.75742</ele>
        <time>2023-09-02T12:19:40.000Z</time>
      </trkpt>
      <trkpt lat="45.84035" lon="4.73549">
        <ele>323.41397</ele>
        <time>2023-09-02T12:19:41.000Z</time>
      </trkpt>
      <trkpt lat="45.84033" lon="4.7355">
        <ele>323.10788</ele>
        <time>2023-09-02T12:19:42.000Z</time>
      </trkpt>
      <trkpt lat="45.8403" lon="4.73552">
        <ele>323.28629</ele>
        <time>2023-09-02T12:19:43.000Z</time>
      </trkpt>
      <trkpt lat="45.84027" lon="4.73555">
        <ele>323.44672</ele>
        <time>2023-09-02T12:19:44.000Z</time>
      </trkpt>
      <trkpt lat="45.84027" lon="4.73559">
        <ele>323.56894</ele>
        <time>2023-09-02T12:19:45.000Z</time>
      </trkpt>
      <trkpt lat="45.84027" lon="4.73563">
        <ele>323.67105</ele>
        <time>2023-09-02T12:19:46.000Z</time>
      </trkpt>
      <trkpt lat="45.84028" lon="4.73569">
        <ele>323.79153</ele>
        <time>2023-09-02T12:19:47.000Z</time>
      </trkpt>
      <trkpt lat="45.84026" lon="4.73574">
        <ele>323.87897</ele>
        <time>2023-09-02T12:19:48.000Z</time>
      </trkpt>
      <trkpt lat="45.84024" lon="4.73579">
        <ele>323.96292</ele>
        <time>2023-09-02T12:19:49.000Z</time>
      </trkpt>
      <trkpt lat="45.84023" lon="4.73584">
        <ele>324.05914</ele>
        <time>2023-09-02T12:19:50.000Z</time>
      </trkpt>
      <trkpt lat="45.84021" lon="4.73589">
        <ele>324.17361</ele>
        <time>2023-09-02T12:19:51.000Z</time>
      </trkpt>
      <trkpt lat="45.8402" lon="4.73594">
        <ele>324.27484</ele>
        <time>2023-09-02T12:19:52.000Z</time>
      </trkpt>
      <trkpt lat="45.84019" lon="4.736">
        <ele>324.40073</ele>
        <time>2023-09-02T12:19:53.000Z</time>
      </trkpt>
      <trkpt lat="45.84018" lon="4.73607">
        <ele>324.5177</ele>
        <time>2023-09-02T12:19:54.000Z</time>
      </trkpt>
      <trkpt lat="45.84016" lon="4.73613">
        <ele>325.23166</ele>
        <time>2023-09-02T12:19:55.000Z</time>
      </trkpt>
      <trkpt lat="45.84013" lon="4.73618">
        <ele>326.00223</ele>
        <time>2023-09-02T12:19:56.000Z</time>
      </trkpt>
      <trkpt lat="45.84009" lon="4.73624">
        <ele>326.44495</ele>
        <time>2023-09-02T12:19:57.000Z</time>
      </trkpt>
      <trkpt lat="45.84005" lon="4.73627">
        <ele>326.93402</ele>
        <time>2023-09-02T12:19:58.000Z</time>
      </trkpt>
      <trkpt lat="45.84" lon="4.7363">
        <ele>327.42249</ele>
        <time>2023-09-02T12:19:59.000Z</time>
      </trkpt>
      <trkpt lat="45.83995" lon="4.73632">
        <ele>327.89975</ele>
        <time>2023-09-02T12:20:00.000Z</time>
      </trkpt>
      <trkpt lat="45.8399" lon="4.73632">
        <ele>328.31317</ele>
        <time>2023-09-02T12:20:01.000Z</time>
      </trkpt>
      <trkpt lat="45.83985" lon="4.73633">
        <ele>328.69318</ele>
        <time>2023-09-02T12:20:02.000Z</time>
      </trkpt>
      <trkpt lat="45.83979" lon="4.73634">
        <ele>329.03986</ele>
        <time>2023-09-02T12:20:03.000Z</time>
      </trkpt>
      <trkpt lat="45.83973" lon="4.73637">
        <ele>329.48489</ele>
        <time>2023-09-02T12:20:04.000Z</time>
      </trkpt>
      <trkpt lat="45.83968" lon="4.73642">
        <ele>329.9632</ele>
        <time>2023-09-02T12:20:05.000Z</time>
      </trkpt>
      <trkpt lat="45.83964" lon="4.73648">
        <ele>330.43756</ele>
        <time>2023-09-02T12:20:06.000Z</time>
      </trkpt>
      <trkpt lat="45.8396" lon="4.73654">
        <ele>330.91376</ele>
        <time>2023-09-02T12:20:07.000Z</time>
      </trkpt>
      <trkpt lat="45.83958" lon="4.73664">
        <ele>331.40521</ele>
        <time>2023-09-02T12:20:08.000Z</time>
      </trkpt>
      <trkpt lat="45.83958" lon="4.73673">
        <ele>331.89465</ele>
        <time>2023-09-02T12:20:09.000Z</time>
      </trkpt>
      <trkpt lat="45.83957" lon="4.73682">
        <ele>332.37067</ele>
        <time>2023-09-02T12:20:10.000Z</time>
      </trkpt>
      <trkpt lat="45.83956" lon="4.73692">
        <ele>332.84155</ele>
        <time>2023-09-02T12:20:11.000Z</time>
      </trkpt>
      <trkpt lat="45.83955" lon="4.73701">
        <ele>333.32025</ele>
        <time>2023-09-02T12:20:12.000Z</time>
      </trkpt>
      <trkpt lat="45.83953" lon="4.7371">
        <ele>333.77475</ele>
        <time>2023-09-02T12:20:13.000Z</time>
      </trkpt>
      <trkpt lat="45.83949" lon="4.73718">
        <ele>333.59344</ele>
        <time>2023-09-02T12:20:14.000Z</time>
      </trkpt>
      <trkpt lat="45.83944" lon="4.73726">
        <ele>332.83881</ele>
        <time>2023-09-02T12:20:15.000Z</time>
      </trkpt>
      <trkpt lat="45.8394" lon="4.73735">
        <ele>332.00644</ele>
        <time>2023-09-02T12:20:16.000Z</time>
      </trkpt>
      <trkpt lat="45.83937" lon="4.73745">
        <ele>331.83804</ele>
        <time>2023-09-02T12:20:17.000Z</time>
      </trkpt>
      <trkpt lat="45.83934" lon="4.73755">
        <ele>331.61145</ele>
        <time>2023-09-02T12:20:18.000Z</time>
      </trkpt>
      <trkpt lat="45.83932" lon="4.73766">
        <ele>331.36099</ele>
        <time>2023-09-02T12:20:19.000Z</time>
      </trkpt>
      <trkpt lat="45.83933" lon="4.73776">
        <ele>331.08868</ele>
        <time>2023-09-02T12:20:20.000Z</time>
      </trkpt>
      <trkpt lat="45.83935" lon="4.73787">
        <ele>330.82513</ele>
        <time>2023-09-02T12:20:21.000Z</time>
      </trkpt>
      <trkpt lat="45.83939" lon="4.73796">
        <ele>330.55957</ele>
        <time>2023-09-02T12:20:22.000Z</time>
      </trkpt>
      <trkpt lat="45.83944" lon="4.73805">
        <ele>330.26324</ele>
        <time>2023-09-02T12:20:23.000Z</time>
      </trkpt>
      <trkpt lat="45.8395" lon="4.73813">
        <ele>329.8161</ele>
        <time>2023-09-02T12:20:24.000Z</time>
      </trkpt>
      <trkpt lat="45.83958" lon="4.7382">
        <ele>329.37381</ele>
        <time>2023-09-02T12:20:25.000Z</time>
      </trkpt>
      <trkpt lat="45.83965" lon="4.73827">
        <ele>328.94888</ele>
        <time>2023-09-02T12:20:26.000Z</time>
      </trkpt>
      <trkpt lat="45.83971" lon="4.73835">
        <ele>328.54495</ele>
        <time>2023-09-02T12:20:27.000Z</time>
      </trkpt>
      <trkpt lat="45.83977" lon="4.73843">
        <ele>328.21515</ele>
        <time>2023-09-02T12:20:28.000Z</time>
      </trkpt>
      <trkpt lat="45.83973" lon="4.7384">
        <ele>327.96634</ele>
        <time>2023-09-02T12:20:29.000Z</time>
      </trkpt>
      <trkpt lat="45.83986" lon="4.73844">
        <ele>327.41406</ele>
        <time>2023-09-02T12:20:30.000Z</time>
      </trkpt>
      <trkpt lat="45.83996" lon="4.73845">
        <ele>326.91635</ele>
        <time>2023-09-02T12:20:31.000Z</time>
      </trkpt>
      <trkpt lat="45.84006" lon="4.73846">
        <ele>326.4483</ele>
        <time>2023-09-02T12:20:32.000Z</time>
      </trkpt>
      <trkpt lat="45.84015" lon="4.73842">
        <ele>325.95618</ele>
        <time>2023-09-02T12:20:33.000Z</time>
      </trkpt>
      <trkpt lat="45.84024" lon="4.7384">
        <ele>326.0755</ele>
        <time>2023-09-02T12:20:34.000Z</time>
      </trkpt>
      <trkpt lat="45.84034" lon="4.73839">
        <ele>326.05374</ele>
        <time>2023-09-02T12:20:35.000Z</time>
      </trkpt>
      <trkpt lat="45.84043" lon="4.73837">
        <ele>326.08194</ele>
        <time>2023-09-02T12:20:36.000Z</time>
      </trkpt>
      <trkpt lat="45.84051" lon="4.73834">
        <ele>325.65536</ele>
        <time>2023-09-02T12:20:37.000Z</time>
      </trkpt>
      <trkpt lat="45.84059" lon="4.73832">
        <ele>325.21518</ele>
        <time>2023-09-02T12:20:38.000Z</time>
      </trkpt>
      <trkpt lat="45.84065" lon="4.7383">
        <ele>324.82089</ele>
        <time>2023-09-02T12:20:39.000Z</time>
      </trkpt>
      <trkpt lat="45.84074" lon="4.73827">
        <ele>324.42618</ele>
        <time>2023-09-02T12:20:40.000Z</time>
      </trkpt>
      <trkpt lat="45.84081" lon="4.73824">
        <ele>324.06992</ele>
        <time>2023-09-02T12:20:41.000Z</time>
      </trkpt>
      <trkpt lat="45.84089" lon="4.73821">
        <ele>323.72858</ele>
        <time>2023-09-02T12:20:42.000Z</time>
      </trkpt>
      <trkpt lat="45.84096" lon="4.73819">
        <ele>323.42416</ele>
        <time>2023-09-02T12:20:43.000Z</time>
      </trkpt>
      <trkpt lat="45.84102" lon="4.73818">
        <ele>323.16379</ele>
        <time>2023-09-02T12:20:44.000Z</time>
      </trkpt>
      <trkpt lat="45.84109" lon="4.73817">
        <ele>322.89691</ele>
        <time>2023-09-02T12:20:45.000Z</time>
      </trkpt>
      <trkpt lat="45.84115" lon="4.73817">
        <ele>322.60352</ele>
        <time>2023-09-02T12:20:46.000Z</time>
      </trkpt>
      <trkpt lat="45.84121" lon="4.73817">
        <ele>322.29965</ele>
        <time>2023-09-02T12:20:47.000Z</time>
      </trkpt>
      <trkpt lat="45.84126" lon="4.73817">
        <ele>321.92914</ele>
        <time>2023-09-02T12:20:48.000Z</time>
      </trkpt>
      <trkpt lat="45.84131" lon="4.73818">
        <ele>321.50351</ele>
        <time>2023-09-02T12:20:49.000Z</time>
      </trkpt>
      <trkpt lat="45.84136" lon="4.73818">
        <ele>321.38873</ele>
        <time>2023-09-02T12:20:50.000Z</time>
      </trkpt>
      <trkpt lat="45.84141" lon="4.73817">
        <ele>321.24545</ele>
        <time>2023-09-02T12:20:51.000Z</time>
      </trkpt>
      <trkpt lat="45.84145" lon="4.73818">
        <ele>321.08292</ele>
        <time>2023-09-02T12:20:52.000Z</time>
      </trkpt>
      <trkpt lat="45.8415" lon="4.7382">
        <ele>320.93805</ele>
        <time>2023-09-02T12:20:53.000Z</time>
      </trkpt>
      <trkpt lat="45.84154" lon="4.73821">
        <ele>320.82697</ele>
        <time>2023-09-02T12:20:54.000Z</time>
      </trkpt>
      <trkpt lat="45.84158" lon="4.73822">
        <ele>320.81378</ele>
        <time>2023-09-02T12:20:55.000Z</time>
      </trkpt>
      <trkpt lat="45.84161" lon="4.73823">
        <ele>320.79785</ele>
        <time>2023-09-02T12:20:56.000Z</time>
      </trkpt>
      <trkpt lat="45.84164" lon="4.73826">
        <ele>320.79297</ele>
        <time>2023-09-02T12:20:57.000Z</time>
      </trkpt>
      <trkpt lat="45.84168" lon="4.73828">
        <ele>320.82428</ele>
        <time>2023-09-02T12:20:58.000Z</time>
      </trkpt>
      <trkpt lat="45.8417" lon="4.73831">
        <ele>320.85056</ele>
        <time>2023-09-02T12:20:59.000Z</time>
      </trkpt>
      <trkpt lat="45.84171" lon="4.73835">
        <ele>320.90021</ele>
        <time>2023-09-02T12:21:00.000Z</time>
      </trkpt>
      <trkpt lat="45.84168" lon="4.73839">
        <ele>320.75137</ele>
        <time>2023-09-02T12:21:02.000Z</time>
      </trkpt>
      <trkpt lat="45.84167" lon="4.7384">
        <ele>320.55811</ele>
        <time>2023-09-02T12:21:03.000Z</time>
      </trkpt>
      <trkpt lat="45.84164" lon="4.73843">
        <ele>320.43488</ele>
        <time>2023-09-02T12:21:05.000Z</time>
      </trkpt>
      <trkpt lat="45.84162" lon="4.73845">
        <ele>320.3389</ele>
        <time>2023-09-02T12:21:06.000Z</time>
      </trkpt>
      <trkpt lat="45.84161" lon="4.73848">
        <ele>320.26996</ele>
        <time>2023-09-02T12:21:07.000Z</time>
      </trkpt>
      <trkpt lat="45.84159" lon="4.73851">
        <ele>320.20737</ele>
        <time>2023-09-02T12:21:08.000Z</time>
      </trkpt>
      <trkpt lat="45.84158" lon="4.73853">
        <ele>320.14789</ele>
        <time>2023-09-02T12:21:09.000Z</time>
      </trkpt>
      <trkpt lat="45.84156" lon="4.73855">
        <ele>320.11606</ele>
        <time>2023-09-02T12:21:10.000Z</time>
      </trkpt>
      <trkpt lat="45.84155" lon="4.73858">
        <ele>320.06464</ele>
        <time>2023-09-02T12:21:11.000Z</time>
      </trkpt>
      <trkpt lat="45.84152" lon="4.73862">
        <ele>320.60391</ele>
        <time>2023-09-02T12:21:12.000Z</time>
      </trkpt>
      <trkpt lat="45.8415" lon="4.73866">
        <ele>321.09247</ele>
        <time>2023-09-02T12:21:13.000Z</time>
      </trkpt>
      <trkpt lat="45.84147" lon="4.73871">
        <ele>321.53195</ele>
        <time>2023-09-02T12:21:14.000Z</time>
      </trkpt>
      <trkpt lat="45.84144" lon="4.73875">
        <ele>321.96844</ele>
        <time>2023-09-02T12:21:15.000Z</time>
      </trkpt>
      <trkpt lat="45.8414" lon="4.7388">
        <ele>322.41397</ele>
        <time>2023-09-02T12:21:16.000Z</time>
      </trkpt>
      <trkpt lat="45.84137" lon="4.73884">
        <ele>322.87842</ele>
        <time>2023-09-02T12:21:17.000Z</time>
      </trkpt>
      <trkpt lat="45.84134" lon="4.73889">
        <ele>323.37466</ele>
        <time>2023-09-02T12:21:18.000Z</time>
      </trkpt>
      <trkpt lat="45.84131" lon="4.73894">
        <ele>324.08881</ele>
        <time>2023-09-02T12:21:19.000Z</time>
      </trkpt>
      <trkpt lat="45.84128" lon="4.73899">
        <ele>324.83417</ele>
        <time>2023-09-02T12:21:20.000Z</time>
      </trkpt>
      <trkpt lat="45.84125" lon="4.73905">
        <ele>325.68762</ele>
        <time>2023-09-02T12:21:21.000Z</time>
      </trkpt>
      <trkpt lat="45.84123" lon="4.73909">
        <ele>326.57709</ele>
        <time>2023-09-02T12:21:22.000Z</time>
      </trkpt>
      <trkpt lat="45.8412" lon="4.73914">
        <ele>327.26492</ele>
        <time>2023-09-02T12:21:23.000Z</time>
      </trkpt>
      <trkpt lat="45.84117" lon="4.73918">
        <ele>328.08334</ele>
        <time>2023-09-02T12:21:24.000Z</time>
      </trkpt>
      <trkpt lat="45.84114" lon="4.73923">
        <ele>328.81891</ele>
        <time>2023-09-02T12:21:25.000Z</time>
      </trkpt>
      <trkpt lat="45.84111" lon="4.73928">
        <ele>329.49887</ele>
        <time>2023-09-02T12:21:26.000Z</time>
      </trkpt>
      <trkpt lat="45.84109" lon="4.73931">
        <ele>330.20224</ele>
        <time>2023-09-02T12:21:27.000Z</time>
      </trkpt>
      <trkpt lat="45.84105" lon="4.73935">
        <ele>330.95996</ele>
        <time>2023-09-02T12:21:28.000Z</time>
      </trkpt>
      <trkpt lat="45.84102" lon="4.73939">
        <ele>331.85101</ele>
        <time>2023-09-02T12:21:29.000Z</time>
      </trkpt>
      <trkpt lat="45.841" lon="4.73944">
        <ele>332.67374</ele>
        <time>2023-09-02T12:21:30.000Z</time>
      </trkpt>
      <trkpt lat="45.84098" lon="4.73948">
        <ele>333.61914</ele>
        <time>2023-09-02T12:21:31.000Z</time>
      </trkpt>
      <trkpt lat="45.84095" lon="4.73952">
        <ele>334.20984</ele>
        <time>2023-09-02T12:21:32.000Z</time>
      </trkpt>
      <trkpt lat="45.84091" lon="4.73956">
        <ele>334.86478</ele>
        <time>2023-09-02T12:21:33.000Z</time>
      </trkpt>
      <trkpt lat="45.84087" lon="4.7396">
        <ele>335.64862</ele>
        <time>2023-09-02T12:21:34.000Z</time>
      </trkpt>
      <trkpt lat="45.84083" lon="4.73963">
        <ele>336.30124</ele>
        <time>2023-09-02T12:21:35.000Z</time>
      </trkpt>
      <trkpt lat="45.84079" lon="4.73968">
        <ele>336.51825</ele>
        <time>2023-09-02T12:21:36.000Z</time>
      </trkpt>
      <trkpt lat="45.84076" lon="4.73973">
        <ele>336.85443</ele>
        <time>2023-09-02T12:21:37.000Z</time>
      </trkpt>
      <trkpt lat="45.84072" lon="4.73978">
        <ele>337.14456</ele>
        <time>2023-09-02T12:21:38.000Z</time>
      </trkpt>
      <trkpt lat="45.84069" lon="4.73983">
        <ele>337.24988</ele>
        <time>2023-09-02T12:21:39.000Z</time>
      </trkpt>
      <trkpt lat="45.84066" lon="4.73988">
        <ele>337.36575</ele>
        <time>2023-09-02T12:21:40.000Z</time>
      </trkpt>
      <trkpt lat="45.84063" lon="4.73994">
        <ele>337.37686</ele>
        <time>2023-09-02T12:21:41.000Z</time>
      </trkpt>
      <trkpt lat="45.8406" lon="4.73999">
        <ele>337.3501</ele>
        <time>2023-09-02T12:21:42.000Z</time>
      </trkpt>
      <trkpt lat="45.84056" lon="4.74004">
        <ele>337.25458</ele>
        <time>2023-09-02T12:21:43.000Z</time>
      </trkpt>
      <trkpt lat="45.84053" lon="4.7401">
        <ele>337.08154</ele>
        <time>2023-09-02T12:21:44.000Z</time>
      </trkpt>
      <trkpt lat="45.8405" lon="4.74017">
        <ele>336.77411</ele>
        <time>2023-09-02T12:21:45.000Z</time>
      </trkpt>
      <trkpt lat="45.84048" lon="4.74024">
        <ele>336.52106</ele>
        <time>2023-09-02T12:21:46.000Z</time>
      </trkpt>
      <trkpt lat="45.84044" lon="4.7403">
        <ele>336.18472</ele>
        <time>2023-09-02T12:21:47.000Z</time>
      </trkpt>
      <trkpt lat="45.84041" lon="4.74038">
        <ele>336.28473</ele>
        <time>2023-09-02T12:21:48.000Z</time>
      </trkpt>
      <trkpt lat="45.84038" lon="4.74042">
        <ele>336.10043</ele>
        <time>2023-09-02T12:21:49.000Z</time>
      </trkpt>
      <trkpt lat="45.84036" lon="4.7405">
        <ele>336.05829</ele>
        <time>2023-09-02T12:21:50.000Z</time>
      </trkpt>
      <trkpt lat="45.84033" lon="4.74058">
        <ele>335.82172</ele>
        <time>2023-09-02T12:21:51.000Z</time>
      </trkpt>
      <trkpt lat="45.84031" lon="4.74065">
        <ele>335.29739</ele>
        <time>2023-09-02T12:21:52.000Z</time>
      </trkpt>
      <trkpt lat="45.84028" lon="4.74072">
        <ele>334.6969</ele>
        <time>2023-09-02T12:21:53.000Z</time>
      </trkpt>
      <trkpt lat="45.84024" lon="4.74078">
        <ele>334.05426</ele>
        <time>2023-09-02T12:21:54.000Z</time>
      </trkpt>
      <trkpt lat="45.84021" lon="4.74085">
        <ele>333.5733</ele>
        <time>2023-09-02T12:21:55.000Z</time>
      </trkpt>
      <trkpt lat="45.84017" lon="4.74088">
        <ele>333.53549</ele>
        <time>2023-09-02T12:21:56.000Z</time>
      </trkpt>
      <trkpt lat="45.84014" lon="4.74095">
        <ele>333.35052</ele>
        <time>2023-09-02T12:21:57.000Z</time>
      </trkpt>
      <trkpt lat="45.84009" lon="4.74102">
        <ele>333.16544</ele>
        <time>2023-09-02T12:21:58.000Z</time>
      </trkpt>
      <trkpt lat="45.84005" lon="4.74108">
        <ele>332.94208</ele>
        <time>2023-09-02T12:21:59.000Z</time>
      </trkpt>
      <trkpt lat="45.84001" lon="4.74111">
        <ele>332.68253</ele>
        <time>2023-09-02T12:22:00.000Z</time>
      </trkpt>
      <trkpt lat="45.83997" lon="4.74116">
        <ele>332.41074</ele>
        <time>2023-09-02T12:22:01.000Z</time>
      </trkpt>
      <trkpt lat="45.83993" lon="4.74124">
        <ele>332.14481</ele>
        <time>2023-09-02T12:22:02.000Z</time>
      </trkpt>
      <trkpt lat="45.8399" lon="4.74129">
        <ele>332.34033</ele>
        <time>2023-09-02T12:22:03.000Z</time>
      </trkpt>
      <trkpt lat="45.83989" lon="4.74136">
        <ele>332.46463</ele>
        <time>2023-09-02T12:22:04.000Z</time>
      </trkpt>
      <trkpt lat="45.83986" lon="4.74142">
        <ele>332.7496</ele>
        <time>2023-09-02T12:22:05.000Z</time>
      </trkpt>
      <trkpt lat="45.83984" lon="4.74148">
        <ele>333.02463</ele>
        <time>2023-09-02T12:22:06.000Z</time>
      </trkpt>
      <trkpt lat="45.83983" lon="4.74154">
        <ele>333.34766</ele>
        <time>2023-09-02T12:22:07.000Z</time>
      </trkpt>
      <trkpt lat="45.83981" lon="4.7416">
        <ele>333.21622</ele>
        <time>2023-09-02T12:22:08.000Z</time>
      </trkpt>
      <trkpt lat="45.83981" lon="4.74165">
        <ele>333.20398</ele>
        <time>2023-09-02T12:22:09.000Z</time>
      </trkpt>
      <trkpt lat="45.8398" lon="4.74173">
        <ele>333.07538</ele>
        <time>2023-09-02T12:22:10.000Z</time>
      </trkpt>
      <trkpt lat="45.83978" lon="4.74179">
        <ele>333.01187</ele>
        <time>2023-09-02T12:22:11.000Z</time>
      </trkpt>
      <trkpt lat="45.83977" lon="4.74187">
        <ele>332.98663</ele>
        <time>2023-09-02T12:22:12.000Z</time>
      </trkpt>
      <trkpt lat="45.83975" lon="4.74193">
        <ele>333.03577</ele>
        <time>2023-09-02T12:22:13.000Z</time>
      </trkpt>
      <trkpt lat="45.83973" lon="4.74197">
        <ele>332.99411</ele>
        <time>2023-09-02T12:22:14.000Z</time>
      </trkpt>
      <trkpt lat="45.83972" lon="4.74203">
        <ele>333.11029</ele>
        <time>2023-09-02T12:22:15.000Z</time>
      </trkpt>
      <trkpt lat="45.8397" lon="4.7421">
        <ele>333.11636</ele>
        <time>2023-09-02T12:22:16.000Z</time>
      </trkpt>
      <trkpt lat="45.83968" lon="4.74216">
        <ele>332.948</ele>
        <time>2023-09-02T12:22:17.000Z</time>
      </trkpt>
      <trkpt lat="45.83967" lon="4.74221">
        <ele>332.87866</ele>
        <time>2023-09-02T12:22:18.000Z</time>
      </trkpt>
      <trkpt lat="45.83967" lon="4.74227">
        <ele>332.81024</ele>
        <time>2023-09-02T12:22:19.000Z</time>
      </trkpt>
      <trkpt lat="45.83964" lon="4.74235">
        <ele>332.68341</ele>
        <time>2023-09-02T12:22:20.000Z</time>
      </trkpt>
      <trkpt lat="45.83964" lon="4.74242">
        <ele>332.56512</ele>
        <time>2023-09-02T12:22:21.000Z</time>
      </trkpt>
      <trkpt lat="45.83964" lon="4.74248">
        <ele>332.43958</ele>
        <time>2023-09-02T12:22:22.000Z</time>
      </trkpt>
      <trkpt lat="45.83964" lon="4.74254">
        <ele>332.33902</ele>
        <time>2023-09-02T12:22:23.000Z</time>
      </trkpt>
      <trkpt lat="45.83964" lon="4.7426">
        <ele>332.28586</ele>
        <time>2023-09-02T12:22:24.000Z</time>
      </trkpt>
      <trkpt lat="45.83964" lon="4.74265">
        <ele>332.38934</ele>
        <time>2023-09-02T12:22:25.000Z</time>
      </trkpt>
      <trkpt lat="45.83965" lon="4.74269">
        <ele>332.48013</ele>
        <time>2023-09-02T12:22:26.000Z</time>
      </trkpt>
      <trkpt lat="45.83965" lon="4.74274">
        <ele>332.53964</ele>
        <time>2023-09-02T12:22:27.000Z</time>
      </trkpt>
      <trkpt lat="45.83965" lon="4.74279">
        <ele>332.53064</ele>
        <time>2023-09-02T12:22:28.000Z</time>
      </trkpt>
      <trkpt lat="45.83965" lon="4.74282">
        <ele>332.44968</ele>
        <time>2023-09-02T12:22:29.000Z</time>
      </trkpt>
      <trkpt lat="45.83964" lon="4.74285">
        <ele>332.42041</ele>
        <time>2023-09-02T12:22:30.000Z</time>
      </trkpt>
      <trkpt lat="45.83961" lon="4.74287">
        <ele>332.53568</ele>
        <time>2023-09-02T12:22:31.000Z</time>
      </trkpt>
      <trkpt lat="45.83959" lon="4.74288">
        <ele>332.61182</ele>
        <time>2023-09-02T12:22:32.000Z</time>
      </trkpt>
      <trkpt lat="45.83956" lon="4.7429">
        <ele>332.77249</ele>
        <time>2023-09-02T12:22:33.000Z</time>
      </trkpt>
      <trkpt lat="45.83955" lon="4.74294">
        <ele>333.03238</ele>
        <time>2023-09-02T12:22:34.000Z</time>
      </trkpt>
      <trkpt lat="45.83955" lon="4.74305">
        <ele>333.15286</ele>
        <time>2023-09-02T12:22:35.000Z</time>
      </trkpt>
      <trkpt lat="45.83953" lon="4.74308">
        <ele>333.38507</ele>
        <time>2023-09-02T12:22:36.000Z</time>
      </trkpt>
      <trkpt lat="45.83951" lon="4.74314">
        <ele>333.78339</ele>
        <time>2023-09-02T12:22:37.000Z</time>
      </trkpt>
      <trkpt lat="45.83949" lon="4.7432">
        <ele>333.71808</ele>
        <time>2023-09-02T12:22:38.000Z</time>
      </trkpt>
      <trkpt lat="45.83949" lon="4.74327">
        <ele>333.71774</ele>
        <time>2023-09-02T12:22:39.000Z</time>
      </trkpt>
      <trkpt lat="45.83948" lon="4.74332">
        <ele>333.76334</ele>
        <time>2023-09-02T12:22:40.000Z</time>
      </trkpt>
      <trkpt lat="45.83949" lon="4.74339">
        <ele>333.75787</ele>
        <time>2023-09-02T12:22:41.000Z</time>
      </trkpt>
      <trkpt lat="45.83949" lon="4.74346">
        <ele>333.71976</ele>
        <time>2023-09-02T12:22:42.000Z</time>
      </trkpt>
      <trkpt lat="45.83949" lon="4.74352">
        <ele>333.60797</ele>
        <time>2023-09-02T12:22:43.000Z</time>
      </trkpt>
      <trkpt lat="45.83951" lon="4.74356">
        <ele>333.48502</ele>
        <time>2023-09-02T12:22:44.000Z</time>
      </trkpt>
      <trkpt lat="45.83951" lon="4.74361">
        <ele>333.19366</ele>
        <time>2023-09-02T12:22:45.000Z</time>
      </trkpt>
      <trkpt lat="45.83951" lon="4.74366">
        <ele>332.93829</ele>
        <time>2023-09-02T12:22:46.000Z</time>
      </trkpt>
      <trkpt lat="45.8395" lon="4.74369">
        <ele>332.664</ele>
        <time>2023-09-02T12:22:47.000Z</time>
      </trkpt>
      <trkpt lat="45.8395" lon="4.74373">
        <ele>332.43796</ele>
        <time>2023-09-02T12:22:48.000Z</time>
      </trkpt>
      <trkpt lat="45.83949" lon="4.74377">
        <ele>332.36563</ele>
        <time>2023-09-02T12:22:49.000Z</time>
      </trkpt>
      <trkpt lat="45.83947" lon="4.74382">
        <ele>332.2525</ele>
        <time>2023-09-02T12:22:50.000Z</time>
      </trkpt>
      <trkpt lat="45.83946" lon="4.74387">
        <ele>331.99237</ele>
        <time>2023-09-02T12:22:51.000Z</time>
      </trkpt>
      <trkpt lat="45.83944" lon="4.74393">
        <ele>331.75244</ele>
        <time>2023-09-02T12:22:52.000Z</time>
      </trkpt>
      <trkpt lat="45.83942" lon="4.74402">
        <ele>331.3327</ele>
        <time>2023-09-02T12:22:53.000Z</time>
      </trkpt>
      <trkpt lat="45.8394" lon="4.74409">
        <ele>330.85861</ele>
        <time>2023-09-02T12:22:54.000Z</time>
      </trkpt>
      <trkpt lat="45.83937" lon="4.74416">
        <ele>330.3811</ele>
        <time>2023-09-02T12:22:55.000Z</time>
      </trkpt>
      <trkpt lat="45.83935" lon="4.74422">
        <ele>329.88824</ele>
        <time>2023-09-02T12:22:56.000Z</time>
      </trkpt>
      <trkpt lat="45.83932" lon="4.74429">
        <ele>329.42706</ele>
        <time>2023-09-02T12:22:57.000Z</time>
      </trkpt>
      <trkpt lat="45.8393" lon="4.74436">
        <ele>329.39722</ele>
        <time>2023-09-02T12:22:58.000Z</time>
      </trkpt>
      <trkpt lat="45.83928" lon="4.74441">
        <ele>329.32465</ele>
        <time>2023-09-02T12:22:59.000Z</time>
      </trkpt>
      <trkpt lat="45.83925" lon="4.74446">
        <ele>329.27716</ele>
        <time>2023-09-02T12:23:00.000Z</time>
      </trkpt>
      <trkpt lat="45.83923" lon="4.74452">
        <ele>329.24957</ele>
        <time>2023-09-02T12:23:01.000Z</time>
      </trkpt>
      <trkpt lat="45.8392" lon="4.74459">
        <ele>329.26105</ele>
        <time>2023-09-02T12:23:02.000Z</time>
      </trkpt>
      <trkpt lat="45.83918" lon="4.74465">
        <ele>329.43457</ele>
        <time>2023-09-02T12:23:03.000Z</time>
      </trkpt>
      <trkpt lat="45.83915" lon="4.74471">
        <ele>329.62335</ele>
        <time>2023-09-02T12:23:04.000Z</time>
      </trkpt>
      <trkpt lat="45.83912" lon="4.74477">
        <ele>329.61917</ele>
        <time>2023-09-02T12:23:05.000Z</time>
      </trkpt>
      <trkpt lat="45.8391" lon="4.74483">
        <ele>329.67108</ele>
        <time>2023-09-02T12:23:06.000Z</time>
      </trkpt>
      <trkpt lat="45.83908" lon="4.74489">
        <ele>329.75589</ele>
        <time>2023-09-02T12:23:07.000Z</time>
      </trkpt>
      <trkpt lat="45.83905" lon="4.74495">
        <ele>329.85333</ele>
        <time>2023-09-02T12:23:08.000Z</time>
      </trkpt>
      <trkpt lat="45.83904" lon="4.74502">
        <ele>329.88885</ele>
        <time>2023-09-02T12:23:09.000Z</time>
      </trkpt>
      <trkpt lat="45.83902" lon="4.74507">
        <ele>329.93982</ele>
        <time>2023-09-02T12:23:10.000Z</time>
      </trkpt>
      <trkpt lat="45.83901" lon="4.74514">
        <ele>330.04599</ele>
        <time>2023-09-02T12:23:11.000Z</time>
      </trkpt>
      <trkpt lat="45.839" lon="4.7452">
        <ele>330.18063</ele>
        <time>2023-09-02T12:23:12.000Z</time>
      </trkpt>
      <trkpt lat="45.839" lon="4.74527">
        <ele>330.39615</ele>
        <time>2023-09-02T12:23:13.000Z</time>
      </trkpt>
      <trkpt lat="45.839" lon="4.74532">
        <ele>330.58521</ele>
        <time>2023-09-02T12:23:14.000Z</time>
      </trkpt>
      <trkpt lat="45.839" lon="4.74538">
        <ele>330.74994</ele>
        <time>2023-09-02T12:23:15.000Z</time>
      </trkpt>
      <trkpt lat="45.83901" lon="4.74545">
        <ele>330.89502</ele>
        <time>2023-09-02T12:23:16.000Z</time>
      </trkpt>
      <trkpt lat="45.83903" lon="4.74551">
        <ele>331.0296</ele>
        <time>2023-09-02T12:23:17.000Z</time>
      </trkpt>
      <trkpt lat="45.83905" lon="4.74558">
        <ele>331.09064</ele>
        <time>2023-09-02T12:23:18.000Z</time>
      </trkpt>
      <trkpt lat="45.83907" lon="4.74566">
        <ele>331.12735</ele>
        <time>2023-09-02T12:23:19.000Z</time>
      </trkpt>
      <trkpt lat="45.83908" lon="4.74573">
        <ele>331.18048</ele>
        <time>2023-09-02T12:23:20.000Z</time>
      </trkpt>
      <trkpt lat="45.8391" lon="4.74581">
        <ele>331.27423</ele>
        <time>2023-09-02T12:23:21.000Z</time>
      </trkpt>
      <trkpt lat="45.8391" lon="4.74589">
        <ele>331.4108</ele>
        <time>2023-09-02T12:23:22.000Z</time>
      </trkpt>
      <trkpt lat="45.83909" lon="4.74596">
        <ele>331.45947</ele>
        <time>2023-09-02T12:23:23.000Z</time>
      </trkpt>
      <trkpt lat="45.83908" lon="4.74603">
        <ele>331.50446</ele>
        <time>2023-09-02T12:23:24.000Z</time>
      </trkpt>
      <trkpt lat="45.83906" lon="4.7461">
        <ele>331.69452</ele>
        <time>2023-09-02T12:23:25.000Z</time>
      </trkpt>
      <trkpt lat="45.83904" lon="4.74618">
        <ele>331.7774</ele>
        <time>2023-09-02T12:23:26.000Z</time>
      </trkpt>
      <trkpt lat="45.83901" lon="4.74625">
        <ele>331.84872</ele>
        <time>2023-09-02T12:23:27.000Z</time>
      </trkpt>
      <trkpt lat="45.83898" lon="4.7463">
        <ele>332.09406</ele>
        <time>2023-09-02T12:23:28.000Z</time>
      </trkpt>
      <trkpt lat="45.83896" lon="4.74635">
        <ele>332.18076</ele>
        <time>2023-09-02T12:23:29.000Z</time>
      </trkpt>
      <trkpt lat="45.83891" lon="4.7464">
        <ele>332.3501</ele>
        <time>2023-09-02T12:23:30.000Z</time>
      </trkpt>
      <trkpt lat="45.83888" lon="4.74646">
        <ele>332.45737</ele>
        <time>2023-09-02T12:23:31.000Z</time>
      </trkpt>
      <trkpt lat="45.83883" lon="4.74649">
        <ele>332.56805</ele>
        <time>2023-09-02T12:23:32.000Z</time>
      </trkpt>
      <trkpt lat="45.8388" lon="4.74651">
        <ele>332.66925</ele>
        <time>2023-09-02T12:23:33.000Z</time>
      </trkpt>
      <trkpt lat="45.83876" lon="4.74655">
        <ele>332.8136</ele>
        <time>2023-09-02T12:23:34.000Z</time>
      </trkpt>
      <trkpt lat="45.83872" lon="4.7466">
        <ele>332.97113</ele>
        <time>2023-09-02T12:23:35.000Z</time>
      </trkpt>
      <trkpt lat="45.8387" lon="4.74665">
        <ele>333.12646</ele>
        <time>2023-09-02T12:23:36.000Z</time>
      </trkpt>
      <trkpt lat="45.83867" lon="4.74672">
        <ele>333.24933</ele>
        <time>2023-09-02T12:23:37.000Z</time>
      </trkpt>
      <trkpt lat="45.83864" lon="4.74678">
        <ele>333.3504</ele>
        <time>2023-09-02T12:23:38.000Z</time>
      </trkpt>
      <trkpt lat="45.83861" lon="4.74684">
        <ele>333.44604</ele>
        <time>2023-09-02T12:23:39.000Z</time>
      </trkpt>
      <trkpt lat="45.83858" lon="4.74688">
        <ele>333.56155</ele>
        <time>2023-09-02T12:23:40.000Z</time>
      </trkpt>
      <trkpt lat="45.83855" lon="4.74694">
        <ele>333.69104</ele>
        <time>2023-09-02T12:23:41.000Z</time>
      </trkpt>
      <trkpt lat="45.83853" lon="4.747">
        <ele>333.75757</ele>
        <time>2023-09-02T12:23:42.000Z</time>
      </trkpt>
      <trkpt lat="45.8385" lon="4.74705">
        <ele>333.80441</ele>
        <time>2023-09-02T12:23:43.000Z</time>
      </trkpt>
      <trkpt lat="45.83846" lon="4.74709">
        <ele>333.92709</ele>
        <time>2023-09-02T12:23:44.000Z</time>
      </trkpt>
      <trkpt lat="45.83842" lon="4.74713">
        <ele>334.0975</ele>
        <time>2023-09-02T12:23:45.000Z</time>
      </trkpt>
      <trkpt lat="45.83836" lon="4.74715">
        <ele>333.97528</ele>
        <time>2023-09-02T12:23:46.000Z</time>
      </trkpt>
      <trkpt lat="45.83831" lon="4.74718">
        <ele>333.92816</ele>
        <time>2023-09-02T12:23:47.000Z</time>
      </trkpt>
      <trkpt lat="45.83826" lon="4.74721">
        <ele>333.65561</ele>
        <time>2023-09-02T12:23:48.000Z</time>
      </trkpt>
      <trkpt lat="45.8382" lon="4.74723">
        <ele>333.59918</ele>
        <time>2023-09-02T12:23:49.000Z</time>
      </trkpt>
      <trkpt lat="45.83817" lon="4.74725">
        <ele>333.44052</ele>
        <time>2023-09-02T12:23:50.000Z</time>
      </trkpt>
      <trkpt lat="45.83813" lon="4.74727">
        <ele>333.31268</ele>
        <time>2023-09-02T12:23:51.000Z</time>
      </trkpt>
      <trkpt lat="45.83809" lon="4.7473">
        <ele>333.29898</ele>
        <time>2023-09-02T12:23:52.000Z</time>
      </trkpt>
      <trkpt lat="45.83806" lon="4.74733">
        <ele>333.30365</ele>
        <time>2023-09-02T12:23:53.000Z</time>
      </trkpt>
      <trkpt lat="45.83803" lon="4.74735">
        <ele>333.33868</ele>
        <time>2023-09-02T12:23:54.000Z</time>
      </trkpt>
      <trkpt lat="45.838" lon="4.74738">
        <ele>333.27454</ele>
        <time>2023-09-02T12:23:55.000Z</time>
      </trkpt>
      <trkpt lat="45.83796" lon="4.74743">
        <ele>333.21729</ele>
        <time>2023-09-02T12:23:56.000Z</time>
      </trkpt>
      <trkpt lat="45.83793" lon="4.7475">
        <ele>333.25449</ele>
        <time>2023-09-02T12:23:57.000Z</time>
      </trkpt>
      <trkpt lat="45.83789" lon="4.74756">
        <ele>333.39526</ele>
        <time>2023-09-02T12:23:58.000Z</time>
      </trkpt>
      <trkpt lat="45.83787" lon="4.74761">
        <ele>333.45328</ele>
        <time>2023-09-02T12:23:59.000Z</time>
      </trkpt>
      <trkpt lat="45.83783" lon="4.74768">
        <ele>333.422</ele>
        <time>2023-09-02T12:24:00.000Z</time>
      </trkpt>
      <trkpt lat="45.83781" lon="4.74774">
        <ele>333.34351</ele>
        <time>2023-09-02T12:24:01.000Z</time>
      </trkpt>
      <trkpt lat="45.83778" lon="4.74779">
        <ele>333.29111</ele>
        <time>2023-09-02T12:24:02.000Z</time>
      </trkpt>
      <trkpt lat="45.83775" lon="4.74784">
        <ele>333.24811</ele>
        <time>2023-09-02T12:24:03.000Z</time>
      </trkpt>
      <trkpt lat="45.83773" lon="4.7479">
        <ele>333.09357</ele>
        <time>2023-09-02T12:24:04.000Z</time>
      </trkpt>
      <trkpt lat="45.83769" lon="4.74795">
        <ele>332.94775</ele>
        <time>2023-09-02T12:24:05.000Z</time>
      </trkpt>
      <trkpt lat="45.83766" lon="4.74801">
        <ele>333.1286</ele>
        <time>2023-09-02T12:24:06.000Z</time>
      </trkpt>
      <trkpt lat="45.83763" lon="4.74804">
        <ele>333.2298</ele>
        <time>2023-09-02T12:24:07.000Z</time>
      </trkpt>
      <trkpt lat="45.83759" lon="4.7481">
        <ele>333.35361</ele>
        <time>2023-09-02T12:24:08.000Z</time>
      </trkpt>
      <trkpt lat="45.83755" lon="4.74815">
        <ele>333.37357</ele>
        <time>2023-09-02T12:24:09.000Z</time>
      </trkpt>
      <trkpt lat="45.83751" lon="4.74822">
        <ele>333.54605</ele>
        <time>2023-09-02T12:24:10.000Z</time>
      </trkpt>
      <trkpt lat="45.83746" lon="4.74826">
        <ele>333.64423</ele>
        <time>2023-09-02T12:24:11.000Z</time>
      </trkpt>
      <trkpt lat="45.8374" lon="4.74831">
        <ele>333.61719</ele>
        <time>2023-09-02T12:24:12.000Z</time>
      </trkpt>
      <trkpt lat="45.83735" lon="4.74835">
        <ele>333.53424</ele>
        <time>2023-09-02T12:24:13.000Z</time>
      </trkpt>
      <trkpt lat="45.8373" lon="4.74839">
        <ele>333.37906</ele>
        <time>2023-09-02T12:24:14.000Z</time>
      </trkpt>
      <trkpt lat="45.83725" lon="4.74844">
        <ele>333.20697</ele>
        <time>2023-09-02T12:24:15.000Z</time>
      </trkpt>
      <trkpt lat="45.8372" lon="4.74848">
        <ele>332.93939</ele>
        <time>2023-09-02T12:24:16.000Z</time>
      </trkpt>
      <trkpt lat="45.83714" lon="4.74851">
        <ele>332.78522</ele>
        <time>2023-09-02T12:24:17.000Z</time>
      </trkpt>
      <trkpt lat="45.83709" lon="4.74855">
        <ele>332.52631</ele>
        <time>2023-09-02T12:24:18.000Z</time>
      </trkpt>
      <trkpt lat="45.83704" lon="4.74859">
        <ele>332.40009</ele>
        <time>2023-09-02T12:24:19.000Z</time>
      </trkpt>
      <trkpt lat="45.837" lon="4.74863">
        <ele>332.34808</ele>
        <time>2023-09-02T12:24:20.000Z</time>
      </trkpt>
      <trkpt lat="45.83695" lon="4.74866">
        <ele>332.20026</ele>
        <time>2023-09-02T12:24:21.000Z</time>
      </trkpt>
      <trkpt lat="45.8369" lon="4.7487">
        <ele>331.99841</ele>
        <time>2023-09-02T12:24:22.000Z</time>
      </trkpt>
      <trkpt lat="45.83685" lon="4.74874">
        <ele>331.80783</ele>
        <time>2023-09-02T12:24:23.000Z</time>
      </trkpt>
      <trkpt lat="45.83681" lon="4.74877">
        <ele>331.89264</ele>
        <time>2023-09-02T12:24:24.000Z</time>
      </trkpt>
      <trkpt lat="45.83677" lon="4.74881">
        <ele>331.9216</ele>
        <time>2023-09-02T12:24:25.000Z</time>
      </trkpt>
      <trkpt lat="45.83674" lon="4.74887">
        <ele>331.95728</ele>
        <time>2023-09-02T12:24:26.000Z</time>
      </trkpt>
      <trkpt lat="45.83671" lon="4.74891">
        <ele>332.00421</ele>
        <time>2023-09-02T12:24:27.000Z</time>
      </trkpt>
      <trkpt lat="45.83668" lon="4.74896">
        <ele>331.9577</ele>
        <time>2023-09-02T12:24:28.000Z</time>
      </trkpt>
      <trkpt lat="45.83667" lon="4.74901">
        <ele>331.98764</ele>
        <time>2023-09-02T12:24:29.000Z</time>
      </trkpt>
      <trkpt lat="45.83663" lon="4.74908">
        <ele>331.86627</ele>
        <time>2023-09-02T12:24:30.000Z</time>
      </trkpt>
      <trkpt lat="45.83661" lon="4.74914">
        <ele>332.01031</ele>
        <time>2023-09-02T12:24:31.000Z</time>
      </trkpt>
      <trkpt lat="45.83658" lon="4.7492">
        <ele>332.17773</ele>
        <time>2023-09-02T12:24:32.000Z</time>
      </trkpt>
      <trkpt lat="45.83657" lon="4.74927">
        <ele>332.3688</ele>
        <time>2023-09-02T12:24:33.000Z</time>
      </trkpt>
      <trkpt lat="45.83655" lon="4.74934">
        <ele>332.53867</ele>
        <time>2023-09-02T12:24:34.000Z</time>
      </trkpt>
      <trkpt lat="45.83651" lon="4.74941">
        <ele>332.66345</ele>
        <time>2023-09-02T12:24:35.000Z</time>
      </trkpt>
      <trkpt lat="45.83648" lon="4.74948">
        <ele>332.8476</ele>
        <time>2023-09-02T12:24:36.000Z</time>
      </trkpt>
      <trkpt lat="45.83646" lon="4.74954">
        <ele>333.03424</ele>
        <time>2023-09-02T12:24:37.000Z</time>
      </trkpt>
      <trkpt lat="45.83644" lon="4.74961">
        <ele>333.22559</ele>
        <time>2023-09-02T12:24:38.000Z</time>
      </trkpt>
      <trkpt lat="45.83643" lon="4.74969">
        <ele>333.38269</ele>
        <time>2023-09-02T12:24:39.000Z</time>
      </trkpt>
      <trkpt lat="45.83643" lon="4.74975">
        <ele>333.52197</ele>
        <time>2023-09-02T12:24:40.000Z</time>
      </trkpt>
      <trkpt lat="45.83641" lon="4.74983">
        <ele>333.7933</ele>
        <time>2023-09-02T12:24:41.000Z</time>
      </trkpt>
      <trkpt lat="45.83639" lon="4.74991">
        <ele>334.15567</ele>
        <time>2023-09-02T12:24:42.000Z</time>
      </trkpt>
      <trkpt lat="45.83639" lon="4.74999">
        <ele>334.47968</ele>
        <time>2023-09-02T12:24:43.000Z</time>
      </trkpt>
      <trkpt lat="45.83638" lon="4.75008">
        <ele>334.53146</ele>
        <time>2023-09-02T12:24:44.000Z</time>
      </trkpt>
      <trkpt lat="45.83638" lon="4.75017">
        <ele>334.63052</ele>
        <time>2023-09-02T12:24:45.000Z</time>
      </trkpt>
      <trkpt lat="45.83637" lon="4.75023">
        <ele>334.71872</ele>
        <time>2023-09-02T12:24:46.000Z</time>
      </trkpt>
      <trkpt lat="45.83635" lon="4.75028">
        <ele>334.75928</ele>
        <time>2023-09-02T12:24:47.000Z</time>
      </trkpt>
      <trkpt lat="45.83634" lon="4.75033">
        <ele>334.93701</ele>
        <time>2023-09-02T12:24:48.000Z</time>
      </trkpt>
      <trkpt lat="45.83628" lon="4.75039">
        <ele>335.05466</ele>
        <time>2023-09-02T12:24:49.000Z</time>
      </trkpt>
      <trkpt lat="45.83624" lon="4.75044">
        <ele>335.11774</ele>
        <time>2023-09-02T12:24:50.000Z</time>
      </trkpt>
      <trkpt lat="45.83621" lon="4.7505">
        <ele>334.89883</ele>
        <time>2023-09-02T12:24:51.000Z</time>
      </trkpt>
      <trkpt lat="45.83618" lon="4.75054">
        <ele>334.59793</ele>
        <time>2023-09-02T12:24:52.000Z</time>
      </trkpt>
      <trkpt lat="45.83615" lon="4.75059">
        <ele>334.37872</ele>
        <time>2023-09-02T12:24:53.000Z</time>
      </trkpt>
      <trkpt lat="45.83612" lon="4.75064">
        <ele>334.24365</ele>
        <time>2023-09-02T12:24:54.000Z</time>
      </trkpt>
      <trkpt lat="45.83609" lon="4.75069">
        <ele>334.32211</ele>
        <time>2023-09-02T12:24:55.000Z</time>
      </trkpt>
      <trkpt lat="45.83607" lon="4.75075">
        <ele>334.46588</ele>
        <time>2023-09-02T12:24:56.000Z</time>
      </trkpt>
      <trkpt lat="45.83604" lon="4.7508">
        <ele>334.31277</ele>
        <time>2023-09-02T12:24:57.000Z</time>
      </trkpt>
      <trkpt lat="45.83602" lon="4.75086">
        <ele>334.17459</ele>
        <time>2023-09-02T12:24:58.000Z</time>
      </trkpt>
      <trkpt lat="45.836" lon="4.75091">
        <ele>334.06378</ele>
        <time>2023-09-02T12:24:59.000Z</time>
      </trkpt>
      <trkpt lat="45.83598" lon="4.75096">
        <ele>333.9306</ele>
        <time>2023-09-02T12:25:00.000Z</time>
      </trkpt>
      <trkpt lat="45.83596" lon="4.75102">
        <ele>333.77139</ele>
        <time>2023-09-02T12:25:01.000Z</time>
      </trkpt>
      <trkpt lat="45.83593" lon="4.75107">
        <ele>333.69394</ele>
        <time>2023-09-02T12:25:02.000Z</time>
      </trkpt>
      <trkpt lat="45.8359" lon="4.75112">
        <ele>333.62579</ele>
        <time>2023-09-02T12:25:03.000Z</time>
      </trkpt>
      <trkpt lat="45.83588" lon="4.75116">
        <ele>333.52313</ele>
        <time>2023-09-02T12:25:04.000Z</time>
      </trkpt>
      <trkpt lat="45.83585" lon="4.7512">
        <ele>333.4411</ele>
        <time>2023-09-02T12:25:05.000Z</time>
      </trkpt>
      <trkpt lat="45.83581" lon="4.75124">
        <ele>333.34442</ele>
        <time>2023-09-02T12:25:06.000Z</time>
      </trkpt>
      <trkpt lat="45.83577" lon="4.75128">
        <ele>333.33731</ele>
        <time>2023-09-02T12:25:07.000Z</time>
      </trkpt>
      <trkpt lat="45.83574" lon="4.75132">
        <ele>333.33615</ele>
        <time>2023-09-02T12:25:08.000Z</time>
      </trkpt>
      <trkpt lat="45.8357" lon="4.75137">
        <ele>333.35446</ele>
        <time>2023-09-02T12:25:09.000Z</time>
      </trkpt>
      <trkpt lat="45.83566" lon="4.75142">
        <ele>333.45416</ele>
        <time>2023-09-02T12:25:10.000Z</time>
      </trkpt>
      <trkpt lat="45.83561" lon="4.75146">
        <ele>333.64737</ele>
        <time>2023-09-02T12:25:11.000Z</time>
      </trkpt>
      <trkpt lat="45.83557" lon="4.7515">
        <ele>333.83817</ele>
        <time>2023-09-02T12:25:12.000Z</time>
      </trkpt>
      <trkpt lat="45.83554" lon="4.75152">
        <ele>333.9519</ele>
        <time>2023-09-02T12:25:13.000Z</time>
      </trkpt>
      <trkpt lat="45.8355" lon="4.75156">
        <ele>333.99103</ele>
        <time>2023-09-02T12:25:14.000Z</time>
      </trkpt>
      <trkpt lat="45.83546" lon="4.75161">
        <ele>334.02014</ele>
        <time>2023-09-02T12:25:15.000Z</time>
      </trkpt>
      <trkpt lat="45.83542" lon="4.75164">
        <ele>334.1539</ele>
        <time>2023-09-02T12:25:16.000Z</time>
      </trkpt>
      <trkpt lat="45.83537" lon="4.7517">
        <ele>334.34406</ele>
        <time>2023-09-02T12:25:17.000Z</time>
      </trkpt>
      <trkpt lat="45.83533" lon="4.75175">
        <ele>334.57346</ele>
        <time>2023-09-02T12:25:18.000Z</time>
      </trkpt>
      <trkpt lat="45.83528" lon="4.75182">
        <ele>334.80487</ele>
        <time>2023-09-02T12:25:19.000Z</time>
      </trkpt>
      <trkpt lat="45.83523" lon="4.75188">
        <ele>335.06732</ele>
        <time>2023-09-02T12:25:20.000Z</time>
      </trkpt>
      <trkpt lat="45.83517" lon="4.75194">
        <ele>335.24518</ele>
        <time>2023-09-02T12:25:21.000Z</time>
      </trkpt>
      <trkpt lat="45.83511" lon="4.75199">
        <ele>335.23029</ele>
        <time>2023-09-02T12:25:22.000Z</time>
      </trkpt>
      <trkpt lat="45.83504" lon="4.75201">
        <ele>335.27866</ele>
        <time>2023-09-02T12:25:23.000Z</time>
      </trkpt>
      <trkpt lat="45.83498" lon="4.75203">
        <ele>335.52173</ele>
        <time>2023-09-02T12:25:24.000Z</time>
      </trkpt>
      <trkpt lat="45.83494" lon="4.75203">
        <ele>335.69135</ele>
        <time>2023-09-02T12:25:25.000Z</time>
      </trkpt>
      <trkpt lat="45.8349" lon="4.75203">
        <ele>335.79691</ele>
        <time>2023-09-02T12:25:26.000Z</time>
      </trkpt>
      <trkpt lat="45.83485" lon="4.75203">
        <ele>335.85052</ele>
        <time>2023-09-02T12:25:27.000Z</time>
      </trkpt>
      <trkpt lat="45.83479" lon="4.75203">
        <ele>335.86594</ele>
        <time>2023-09-02T12:25:28.000Z</time>
      </trkpt>
      <trkpt lat="45.83475" lon="4.75205">
        <ele>335.81284</ele>
        <time>2023-09-02T12:25:29.000Z</time>
      </trkpt>
      <trkpt lat="45.8347" lon="4.75208">
        <ele>335.72531</ele>
        <time>2023-09-02T12:25:30.000Z</time>
      </trkpt>
      <trkpt lat="45.83466" lon="4.7521">
        <ele>335.80661</ele>
        <time>2023-09-02T12:25:31.000Z</time>
      </trkpt>
      <trkpt lat="45.83461" lon="4.75213">
        <ele>335.94171</ele>
        <time>2023-09-02T12:25:32.000Z</time>
      </trkpt>
      <trkpt lat="45.83457" lon="4.75214">
        <ele>335.99438</ele>
        <time>2023-09-02T12:25:33.000Z</time>
      </trkpt>
      <trkpt lat="45.83453" lon="4.75217">
        <ele>336.05438</ele>
        <time>2023-09-02T12:25:34.000Z</time>
      </trkpt>
      <trkpt lat="45.83449" lon="4.7522">
        <ele>336.04596</ele>
        <time>2023-09-02T12:25:35.000Z</time>
      </trkpt>
      <trkpt lat="45.83446" lon="4.75222">
        <ele>335.87946</ele>
        <time>2023-09-02T12:25:36.000Z</time>
      </trkpt>
      <trkpt lat="45.83443" lon="4.75225">
        <ele>335.74179</ele>
        <time>2023-09-02T12:25:37.000Z</time>
      </trkpt>
      <trkpt lat="45.83441" lon="4.75228">
        <ele>335.49988</ele>
        <time>2023-09-02T12:25:38.000Z</time>
      </trkpt>
      <trkpt lat="45.83437" lon="4.75233">
        <ele>335.29572</ele>
        <time>2023-09-02T12:25:39.000Z</time>
      </trkpt>
      <trkpt lat="45.83432" lon="4.75237">
        <ele>335.04724</ele>
        <time>2023-09-02T12:25:40.000Z</time>
      </trkpt>
      <trkpt lat="45.83427" lon="4.75242">
        <ele>334.93213</ele>
        <time>2023-09-02T12:25:41.000Z</time>
      </trkpt>
      <trkpt lat="45.83422" lon="4.75246">
        <ele>334.84106</ele>
        <time>2023-09-02T12:25:42.000Z</time>
      </trkpt>
      <trkpt lat="45.8342" lon="4.75256">
        <ele>334.73322</ele>
        <time>2023-09-02T12:25:43.000Z</time>
      </trkpt>
      <trkpt lat="45.83417" lon="4.75264">
        <ele>334.46082</ele>
        <time>2023-09-02T12:25:44.000Z</time>
      </trkpt>
      <trkpt lat="45.83413" lon="4.75271">
        <ele>334.27319</ele>
        <time>2023-09-02T12:25:45.000Z</time>
      </trkpt>
      <trkpt lat="45.83411" lon="4.75277">
        <ele>334.11026</ele>
        <time>2023-09-02T12:25:46.000Z</time>
      </trkpt>
      <trkpt lat="45.83408" lon="4.75282">
        <ele>333.87616</ele>
        <time>2023-09-02T12:25:47.000Z</time>
      </trkpt>
      <trkpt lat="45.83406" lon="4.75285">
        <ele>333.65726</ele>
        <time>2023-09-02T12:25:48.000Z</time>
      </trkpt>
      <trkpt lat="45.83402" lon="4.75287">
        <ele>333.51056</ele>
        <time>2023-09-02T12:25:49.000Z</time>
      </trkpt>
      <trkpt lat="45.834" lon="4.75285">
        <ele>333.27628</ele>
        <time>2023-09-02T12:25:50.000Z</time>
      </trkpt>
      <trkpt lat="45.83397" lon="4.75288">
        <ele>332.8504</ele>
        <time>2023-09-02T12:25:51.000Z</time>
      </trkpt>
      <trkpt lat="45.83393" lon="4.75291">
        <ele>332.55301</ele>
        <time>2023-09-02T12:25:52.000Z</time>
      </trkpt>
      <trkpt lat="45.83387" lon="4.75294">
        <ele>332.55817</ele>
        <time>2023-09-02T12:25:53.000Z</time>
      </trkpt>
      <trkpt lat="45.83382" lon="4.75297">
        <ele>332.55695</ele>
        <time>2023-09-02T12:25:54.000Z</time>
      </trkpt>
      <trkpt lat="45.83378" lon="4.75298">
        <ele>332.58041</ele>
        <time>2023-09-02T12:25:55.000Z</time>
      </trkpt>
      <trkpt lat="45.83373" lon="4.753">
        <ele>332.62152</ele>
        <time>2023-09-02T12:25:56.000Z</time>
      </trkpt>
      <trkpt lat="45.83368" lon="4.753">
        <ele>332.69354</ele>
        <time>2023-09-02T12:25:57.000Z</time>
      </trkpt>
      <trkpt lat="45.83363" lon="4.75298">
        <ele>332.87018</ele>
        <time>2023-09-02T12:25:58.000Z</time>
      </trkpt>
      <trkpt lat="45.83358" lon="4.75297">
        <ele>332.97156</ele>
        <time>2023-09-02T12:25:59.000Z</time>
      </trkpt>
      <trkpt lat="45.83354" lon="4.75296">
        <ele>333.05997</ele>
        <time>2023-09-02T12:26:00.000Z</time>
      </trkpt>
      <trkpt lat="45.83349" lon="4.75297">
        <ele>333.05719</ele>
        <time>2023-09-02T12:26:01.000Z</time>
      </trkpt>
      <trkpt lat="45.83344" lon="4.75299">
        <ele>333.08099</ele>
        <time>2023-09-02T12:26:02.000Z</time>
      </trkpt>
      <trkpt lat="45.8334" lon="4.75302">
        <ele>333.10089</ele>
        <time>2023-09-02T12:26:03.000Z</time>
      </trkpt>
      <trkpt lat="45.83336" lon="4.75305">
        <ele>333.18515</ele>
        <time>2023-09-02T12:26:04.000Z</time>
      </trkpt>
      <trkpt lat="45.83332" lon="4.75308">
        <ele>333.20251</ele>
        <time>2023-09-02T12:26:05.000Z</time>
      </trkpt>
      <trkpt lat="45.83328" lon="4.75312">
        <ele>333.29266</ele>
        <time>2023-09-02T12:26:06.000Z</time>
      </trkpt>
      <trkpt lat="45.83324" lon="4.75317">
        <ele>333.38129</ele>
        <time>2023-09-02T12:26:07.000Z</time>
      </trkpt>
      <trkpt lat="45.83321" lon="4.75318">
        <ele>333.44748</ele>
        <time>2023-09-02T12:26:08.000Z</time>
      </trkpt>
      <trkpt lat="45.83316" lon="4.75321">
        <ele>333.51822</ele>
        <time>2023-09-02T12:26:09.000Z</time>
      </trkpt>
      <trkpt lat="45.83311" lon="4.75325">
        <ele>333.70377</ele>
        <time>2023-09-02T12:26:10.000Z</time>
      </trkpt>
      <trkpt lat="45.83307" lon="4.75328">
        <ele>333.88861</ele>
        <time>2023-09-02T12:26:11.000Z</time>
      </trkpt>
      <trkpt lat="45.83303" lon="4.75331">
        <ele>333.97626</ele>
        <time>2023-09-02T12:26:12.000Z</time>
      </trkpt>
      <trkpt lat="45.83299" lon="4.75333">
        <ele>333.91611</ele>
        <time>2023-09-02T12:26:13.000Z</time>
      </trkpt>
      <trkpt lat="45.83295" lon="4.75336">
        <ele>334.11319</ele>
        <time>2023-09-02T12:26:14.000Z</time>
      </trkpt>
      <trkpt lat="45.8329" lon="4.75339">
        <ele>334.25748</ele>
        <time>2023-09-02T12:26:15.000Z</time>
      </trkpt>
      <trkpt lat="45.83285" lon="4.7534">
        <ele>334.51514</ele>
        <time>2023-09-02T12:26:16.000Z</time>
      </trkpt>
      <trkpt lat="45.83281" lon="4.75342">
        <ele>334.81467</ele>
        <time>2023-09-02T12:26:17.000Z</time>
      </trkpt>
      <trkpt lat="45.83278" lon="4.75342">
        <ele>335.08514</ele>
        <time>2023-09-02T12:26:18.000Z</time>
      </trkpt>
      <trkpt lat="45.83277" lon="4.75345">
        <ele>335.41656</ele>
        <time>2023-09-02T12:26:19.000Z</time>
      </trkpt>
      <trkpt lat="45.83274" lon="4.75346">
        <ele>335.82574</ele>
        <time>2023-09-02T12:26:20.000Z</time>
      </trkpt>
      <trkpt lat="45.83272" lon="4.75347">
        <ele>336.25317</ele>
        <time>2023-09-02T12:26:21.000Z</time>
      </trkpt>
      <trkpt lat="45.8327" lon="4.75349">
        <ele>336.55551</ele>
        <time>2023-09-02T12:26:22.000Z</time>
      </trkpt>
      <trkpt lat="45.83269" lon="4.75347">
        <ele>336.73639</ele>
        <time>2023-09-02T12:26:25.000Z</time>
      </trkpt>
      <trkpt lat="45.8327" lon="4.75346">
        <ele>336.82086</ele>
        <time>2023-09-02T12:26:27.000Z</time>
      </trkpt>
      <trkpt lat="45.83274" lon="4.75344">
        <ele>336.96002</ele>
        <time>2023-09-02T12:26:29.000Z</time>
      </trkpt>
      <trkpt lat="45.83276" lon="4.75343">
        <ele>337.30145</ele>
        <time>2023-09-02T12:26:30.000Z</time>
      </trkpt>
      <trkpt lat="45.83279" lon="4.75341">
        <ele>337.62497</ele>
        <time>2023-09-02T12:26:31.000Z</time>
      </trkpt>
      <trkpt lat="45.83283" lon="4.75338">
        <ele>337.96811</ele>
        <time>2023-09-02T12:26:32.000Z</time>
      </trkpt>
      <trkpt lat="45.83286" lon="4.75335">
        <ele>338.30563</ele>
        <time>2023-09-02T12:26:33.000Z</time>
      </trkpt>
      <trkpt lat="45.83289" lon="4.75332">
        <ele>338.61346</ele>
        <time>2023-09-02T12:26:34.000Z</time>
      </trkpt>
      <trkpt lat="45.83292" lon="4.75329">
        <ele>338.81097</ele>
        <time>2023-09-02T12:26:35.000Z</time>
      </trkpt>
      <trkpt lat="45.83295" lon="4.75326">
        <ele>338.85342</ele>
        <time>2023-09-02T12:26:36.000Z</time>
      </trkpt>
      <trkpt lat="45.83299" lon="4.75324">
        <ele>338.99139</ele>
        <time>2023-09-02T12:26:37.000Z</time>
      </trkpt>
      <trkpt lat="45.83304" lon="4.75322">
        <ele>338.87885</ele>
        <time>2023-09-02T12:26:38.000Z</time>
      </trkpt>
      <trkpt lat="45.83308" lon="4.75319">
        <ele>338.81519</ele>
        <time>2023-09-02T12:26:39.000Z</time>
      </trkpt>
      <trkpt lat="45.83314" lon="4.75319">
        <ele>338.68011</ele>
        <time>2023-09-02T12:26:40.000Z</time>
      </trkpt>
      <trkpt lat="45.83317" lon="4.75316">
        <ele>338.44485</ele>
        <time>2023-09-02T12:26:41.000Z</time>
      </trkpt>
      <trkpt lat="45.83321" lon="4.75314">
        <ele>338.32986</ele>
        <time>2023-09-02T12:26:42.000Z</time>
      </trkpt>
      <trkpt lat="45.83326" lon="4.75311">
        <ele>338.06378</ele>
        <time>2023-09-02T12:26:43.000Z</time>
      </trkpt>
      <trkpt lat="45.83329" lon="4.75307">
        <ele>337.76324</ele>
        <time>2023-09-02T12:26:44.000Z</time>
      </trkpt>
      <trkpt lat="45.83333" lon="4.75303">
        <ele>337.48077</ele>
        <time>2023-09-02T12:26:45.000Z</time>
      </trkpt>
      <trkpt lat="45.83337" lon="4.75299">
        <ele>337.35284</ele>
        <time>2023-09-02T12:26:46.000Z</time>
      </trkpt>
      <trkpt lat="45.8334" lon="4.75296">
        <ele>337.30783</ele>
        <time>2023-09-02T12:26:47.000Z</time>
      </trkpt>
      <trkpt lat="45.83344" lon="4.75296">
        <ele>337.3241</ele>
        <time>2023-09-02T12:26:48.000Z</time>
      </trkpt>
      <trkpt lat="45.83349" lon="4.75295">
        <ele>337.31961</ele>
        <time>2023-09-02T12:26:49.000Z</time>
      </trkpt>
      <trkpt lat="45.83353" lon="4.75294">
        <ele>337.07574</ele>
        <time>2023-09-02T12:26:50.000Z</time>
      </trkpt>
      <trkpt lat="45.83357" lon="4.75297">
        <ele>336.86502</ele>
        <time>2023-09-02T12:26:51.000Z</time>
      </trkpt>
      <trkpt lat="45.8336" lon="4.75299">
        <ele>336.62152</ele>
        <time>2023-09-02T12:26:52.000Z</time>
      </trkpt>
      <trkpt lat="45.83363" lon="4.75299">
        <ele>336.38617</ele>
        <time>2023-09-02T12:26:53.000Z</time>
      </trkpt>
      <trkpt lat="45.83366" lon="4.753">
        <ele>336.14996</ele>
        <time>2023-09-02T12:26:54.000Z</time>
      </trkpt>
      <trkpt lat="45.83368" lon="4.75301">
        <ele>336.01379</ele>
        <time>2023-09-02T12:26:55.000Z</time>
      </trkpt>
      <trkpt lat="45.83371" lon="4.753">
        <ele>336.01694</ele>
        <time>2023-09-02T12:26:56.000Z</time>
      </trkpt>
      <trkpt lat="45.83374" lon="4.753">
        <ele>335.86389</ele>
        <time>2023-09-02T12:26:57.000Z</time>
      </trkpt>
      <trkpt lat="45.83376" lon="4.75297">
        <ele>335.75455</ele>
        <time>2023-09-02T12:26:58.000Z</time>
      </trkpt>
      <trkpt lat="45.83379" lon="4.75296">
        <ele>335.65903</ele>
        <time>2023-09-02T12:26:59.000Z</time>
      </trkpt>
      <trkpt lat="45.83381" lon="4.75294">
        <ele>335.50336</ele>
        <time>2023-09-02T12:27:00.000Z</time>
      </trkpt>
      <trkpt lat="45.83384" lon="4.75292">
        <ele>335.42749</ele>
        <time>2023-09-02T12:27:01.000Z</time>
      </trkpt>
      <trkpt lat="45.83387" lon="4.75291">
        <ele>335.22433</ele>
        <time>2023-09-02T12:27:02.000Z</time>
      </trkpt>
      <trkpt lat="45.83388" lon="4.7529">
        <ele>335.10727</ele>
        <time>2023-09-02T12:27:03.000Z</time>
      </trkpt>
      <trkpt lat="45.83389" lon="4.75292">
        <ele>335.00549</ele>
        <time>2023-09-02T12:27:07.000Z</time>
      </trkpt>
      <trkpt lat="45.83387" lon="4.75293">
        <ele>334.89511</ele>
        <time>2023-09-02T12:27:09.000Z</time>
      </trkpt>
      <trkpt lat="45.83385" lon="4.75294">
        <ele>334.76407</ele>
        <time>2023-09-02T12:27:10.000Z</time>
      </trkpt>
      <trkpt lat="45.83383" lon="4.75296">
        <ele>334.63663</ele>
        <time>2023-09-02T12:27:11.000Z</time>
      </trkpt>
      <trkpt lat="45.8338" lon="4.75297">
        <ele>334.53668</ele>
        <time>2023-09-02T12:27:12.000Z</time>
      </trkpt>
      <trkpt lat="45.83378" lon="4.75299">
        <ele>334.36639</ele>
        <time>2023-09-02T12:27:13.000Z</time>
      </trkpt>
      <trkpt lat="45.83376" lon="4.75299">
        <ele>334.22537</ele>
        <time>2023-09-02T12:27:14.000Z</time>
      </trkpt>
      <trkpt lat="45.83374" lon="4.75299">
        <ele>334.18903</ele>
        <time>2023-09-02T12:27:15.000Z</time>
      </trkpt>
      <trkpt lat="45.83372" lon="4.75299">
        <ele>334.194</ele>
        <time>2023-09-02T12:27:16.000Z</time>
      </trkpt>
      <trkpt lat="45.8337" lon="4.75299">
        <ele>334.21664</ele>
        <time>2023-09-02T12:27:17.000Z</time>
      </trkpt>
      <trkpt lat="45.83368" lon="4.753">
        <ele>334.2439</ele>
        <time>2023-09-02T12:27:18.000Z</time>
      </trkpt>
      <trkpt lat="45.83366" lon="4.75303">
        <ele>334.26425</ele>
        <time>2023-09-02T12:27:19.000Z</time>
      </trkpt>
      <trkpt lat="45.83366" lon="4.75306">
        <ele>334.27786</ele>
        <time>2023-09-02T12:27:20.000Z</time>
      </trkpt>
      <trkpt lat="45.83367" lon="4.75309">
        <ele>334.30054</ele>
        <time>2023-09-02T12:27:21.000Z</time>
      </trkpt>
      <trkpt lat="45.83368" lon="4.75312">
        <ele>334.34012</ele>
        <time>2023-09-02T12:27:22.000Z</time>
      </trkpt>
      <trkpt lat="45.83369" lon="4.75315">
        <ele>334.38879</ele>
        <time>2023-09-02T12:27:23.000Z</time>
      </trkpt>
      <trkpt lat="45.8337" lon="4.75318">
        <ele>334.45905</ele>
        <time>2023-09-02T12:27:24.000Z</time>
      </trkpt>
      <trkpt lat="45.83371" lon="4.75321">
        <ele>334.5253</ele>
        <time>2023-09-02T12:27:25.000Z</time>
      </trkpt>
      <trkpt lat="45.8337" lon="4.75324">
        <ele>334.64099</ele>
        <time>2023-09-02T12:27:26.000Z</time>
      </trkpt>
      <trkpt lat="45.83369" lon="4.75326">
        <ele>335.513</ele>
        <time>2023-09-02T12:27:31.000Z</time>
      </trkpt>
      <trkpt lat="45.8337" lon="4.75323">
        <ele>336.3125</ele>
        <time>2023-09-02T12:27:46.000Z</time>
      </trkpt>
      <trkpt lat="45.8337" lon="4.7532">
        <ele>337.05707</ele>
        <time>2023-09-02T12:27:47.000Z</time>
      </trkpt>
      <trkpt lat="45.8337" lon="4.75317">
        <ele>337.7951</ele>
        <time>2023-09-02T12:27:49.000Z</time>
      </trkpt>
      <trkpt lat="45.83369" lon="4.75315">
        <ele>338.48053</ele>
        <time>2023-09-02T12:27:50.000Z</time>
      </trkpt>
      <trkpt lat="45.83367" lon="4.75312">
        <ele>339.19653</ele>
        <time>2023-09-02T12:27:51.000Z</time>
      </trkpt>
      <trkpt lat="45.83365" lon="4.75308">
        <ele>339.9606</ele>
        <time>2023-09-02T12:27:52.000Z</time>
      </trkpt>
      <trkpt lat="45.83363" lon="4.75304">
        <ele>340.67725</ele>
        <time>2023-09-02T12:27:53.000Z</time>
      </trkpt>
      <trkpt lat="45.83361" lon="4.75301">
        <ele>341.3963</ele>
        <time>2023-09-02T12:27:54.000Z</time>
      </trkpt>
      <trkpt lat="45.83359" lon="4.75299">
        <ele>342.06024</ele>
        <time>2023-09-02T12:27:55.000Z</time>
      </trkpt>
      <trkpt lat="45.83357" lon="4.75298">
        <ele>342.71768</ele>
        <time>2023-09-02T12:27:56.000Z</time>
      </trkpt>
      <trkpt lat="45.83353" lon="4.75299">
        <ele>343.38434</ele>
        <time>2023-09-02T12:27:57.000Z</time>
      </trkpt>
      <trkpt lat="45.8335" lon="4.75299">
        <ele>344.0556</ele>
        <time>2023-09-02T12:27:58.000Z</time>
      </trkpt>
      <trkpt lat="45.83346" lon="4.75301">
        <ele>344.79922</ele>
        <time>2023-09-02T12:27:59.000Z</time>
      </trkpt>
      <trkpt lat="45.83342" lon="4.75303">
        <ele>345.53409</ele>
        <time>2023-09-02T12:28:00.000Z</time>
      </trkpt>
      <trkpt lat="45.83339" lon="4.75305">
        <ele>346.25433</ele>
        <time>2023-09-02T12:28:01.000Z</time>
      </trkpt>
      <trkpt lat="45.83334" lon="4.75308">
        <ele>346.96866</ele>
        <time>2023-09-02T12:28:02.000Z</time>
      </trkpt>
      <trkpt lat="45.83331" lon="4.75312">
        <ele>347.66647</ele>
        <time>2023-09-02T12:28:03.000Z</time>
      </trkpt>
      <trkpt lat="45.83329" lon="4.75314">
        <ele>348.36374</ele>
        <time>2023-09-02T12:28:04.000Z</time>
      </trkpt>
      <trkpt lat="45.83326" lon="4.75317">
        <ele>349.00986</ele>
        <time>2023-09-02T12:28:05.000Z</time>
      </trkpt>
      <trkpt lat="45.83323" lon="4.75318">
        <ele>348.94409</ele>
        <time>2023-09-02T12:28:06.000Z</time>
      </trkpt>
      <trkpt lat="45.83319" lon="4.7532">
        <ele>348.98566</ele>
        <time>2023-09-02T12:28:07.000Z</time>
      </trkpt>
      <trkpt lat="45.83313" lon="4.75323">
        <ele>349.16901</ele>
        <time>2023-09-02T12:28:08.000Z</time>
      </trkpt>
      <trkpt lat="45.83309" lon="4.75326">
        <ele>349.40582</ele>
        <time>2023-09-02T12:28:09.000Z</time>
      </trkpt>
      <trkpt lat="45.83305" lon="4.75327">
        <ele>349.83014</ele>
        <time>2023-09-02T12:28:10.000Z</time>
      </trkpt>
      <trkpt lat="45.83301" lon="4.75331">
        <ele>350.09155</ele>
        <time>2023-09-02T12:28:11.000Z</time>
      </trkpt>
      <trkpt lat="45.83297" lon="4.75333">
        <ele>350.54276</ele>
        <time>2023-09-02T12:28:12.000Z</time>
      </trkpt>
      <trkpt lat="45.83293" lon="4.75335">
        <ele>351.05258</ele>
        <time>2023-09-02T12:28:13.000Z</time>
      </trkpt>
      <trkpt lat="45.83288" lon="4.75337">
        <ele>351.54388</ele>
        <time>2023-09-02T12:28:14.000Z</time>
      </trkpt>
      <trkpt lat="45.83282" lon="4.7534">
        <ele>351.98807</ele>
        <time>2023-09-02T12:28:15.000Z</time>
      </trkpt>
      <trkpt lat="45.83277" lon="4.75341">
        <ele>352.31342</ele>
        <time>2023-09-02T12:28:16.000Z</time>
      </trkpt>
      <trkpt lat="45.83273" lon="4.75343">
        <ele>352.66663</ele>
        <time>2023-09-02T12:28:17.000Z</time>
      </trkpt>
      <trkpt lat="45.83268" lon="4.75344">
        <ele>352.97455</ele>
        <time>2023-09-02T12:28:18.000Z</time>
      </trkpt>
      <trkpt lat="45.83263" lon="4.75346">
        <ele>353.23618</ele>
        <time>2023-09-02T12:28:19.000Z</time>
      </trkpt>
      <trkpt lat="45.83258" lon="4.75348">
        <ele>353.46484</ele>
        <time>2023-09-02T12:28:20.000Z</time>
      </trkpt>
      <trkpt lat="45.83253" lon="4.75349">
        <ele>353.70047</ele>
        <time>2023-09-02T12:28:21.000Z</time>
      </trkpt>
      <trkpt lat="45.83248" lon="4.7535">
        <ele>353.89777</ele>
        <time>2023-09-02T12:28:22.000Z</time>
      </trkpt>
      <trkpt lat="45.83245" lon="4.75352">
        <ele>354.11563</ele>
        <time>2023-09-02T12:28:23.000Z</time>
      </trkpt>
      <trkpt lat="45.83242" lon="4.75354">
        <ele>354.46295</ele>
        <time>2023-09-02T12:28:24.000Z</time>
      </trkpt>
      <trkpt lat="45.83238" lon="4.75355">
        <ele>354.88486</ele>
        <time>2023-09-02T12:28:25.000Z</time>
      </trkpt>
      <trkpt lat="45.83234" lon="4.75358">
        <ele>355.28333</ele>
        <time>2023-09-02T12:28:26.000Z</time>
      </trkpt>
      <trkpt lat="45.83231" lon="4.75359">
        <ele>355.7052</ele>
        <time>2023-09-02T12:28:27.000Z</time>
      </trkpt>
      <trkpt lat="45.83228" lon="4.75361">
        <ele>356.10065</ele>
        <time>2023-09-02T12:28:28.000Z</time>
      </trkpt>
      <trkpt lat="45.83225" lon="4.75364">
        <ele>356.45084</ele>
        <time>2023-09-02T12:28:29.000Z</time>
      </trkpt>
      <trkpt lat="45.83223" lon="4.75366">
        <ele>356.40994</ele>
        <time>2023-09-02T12:28:30.000Z</time>
      </trkpt>
      <trkpt lat="45.83219" lon="4.75366">
        <ele>356.49728</ele>
        <time>2023-09-02T12:28:31.000Z</time>
      </trkpt>
      <trkpt lat="45.83216" lon="4.75367">
        <ele>356.44308</ele>
        <time>2023-09-02T12:28:32.000Z</time>
      </trkpt>
      <trkpt lat="45.83213" lon="4.75369">
        <ele>356.50015</ele>
        <time>2023-09-02T12:28:33.000Z</time>
      </trkpt>
      <trkpt lat="45.83209" lon="4.75372">
        <ele>356.59854</ele>
        <time>2023-09-02T12:28:34.000Z</time>
      </trkpt>
      <trkpt lat="45.83206" lon="4.75376">
        <ele>356.56845</ele>
        <time>2023-09-02T12:28:35.000Z</time>
      </trkpt>
      <trkpt lat="45.83203" lon="4.75379">
        <ele>356.67911</ele>
        <time>2023-09-02T12:28:36.000Z</time>
      </trkpt>
      <trkpt lat="45.832" lon="4.75382">
        <ele>356.81134</ele>
        <time>2023-09-02T12:28:37.000Z</time>
      </trkpt>
      <trkpt lat="45.83198" lon="4.75385">
        <ele>357.0448</ele>
        <time>2023-09-02T12:28:38.000Z</time>
      </trkpt>
      <trkpt lat="45.83196" lon="4.75388">
        <ele>357.3078</ele>
        <time>2023-09-02T12:28:39.000Z</time>
      </trkpt>
      <trkpt lat="45.83193" lon="4.75391">
        <ele>357.58282</ele>
        <time>2023-09-02T12:28:40.000Z</time>
      </trkpt>
      <trkpt lat="45.83191" lon="4.75393">
        <ele>357.84988</ele>
        <time>2023-09-02T12:28:41.000Z</time>
      </trkpt>
      <trkpt lat="45.83188" lon="4.75395">
        <ele>358.207</ele>
        <time>2023-09-02T12:28:42.000Z</time>
      </trkpt>
      <trkpt lat="45.83186" lon="4.75398">
        <ele>358.46893</ele>
        <time>2023-09-02T12:28:43.000Z</time>
      </trkpt>
      <trkpt lat="45.83183" lon="4.75401">
        <ele>358.64246</ele>
        <time>2023-09-02T12:28:44.000Z</time>
      </trkpt>
      <trkpt lat="45.8318" lon="4.75404">
        <ele>358.8038</ele>
        <time>2023-09-02T12:28:45.000Z</time>
      </trkpt>
      <trkpt lat="45.83177" lon="4.75406">
        <ele>358.94299</ele>
        <time>2023-09-02T12:28:46.000Z</time>
      </trkpt>
      <trkpt lat="45.83175" lon="4.75408">
        <ele>359.01544</ele>
        <time>2023-09-02T12:28:47.000Z</time>
      </trkpt>
      <trkpt lat="45.83172" lon="4.7541">
        <ele>359.04065</ele>
        <time>2023-09-02T12:28:48.000Z</time>
      </trkpt>
      <trkpt lat="45.83169" lon="4.75413">
        <ele>359.06662</ele>
        <time>2023-09-02T12:28:49.000Z</time>
      </trkpt>
      <trkpt lat="45.83165" lon="4.75415">
        <ele>359.33624</ele>
        <time>2023-09-02T12:28:50.000Z</time>
      </trkpt>
      <trkpt lat="45.83161" lon="4.75416">
        <ele>359.59625</ele>
        <time>2023-09-02T12:28:51.000Z</time>
      </trkpt>
      <trkpt lat="45.83158" lon="4.75417">
        <ele>359.87042</ele>
        <time>2023-09-02T12:28:52.000Z</time>
      </trkpt>
      <trkpt lat="45.83156" lon="4.75418">
        <ele>360.00183</ele>
        <time>2023-09-02T12:28:53.000Z</time>
      </trkpt>
      <trkpt lat="45.83153" lon="4.75421">
        <ele>360.13132</ele>
        <time>2023-09-02T12:28:54.000Z</time>
      </trkpt>
      <trkpt lat="45.83149" lon="4.75424">
        <ele>360.50659</ele>
        <time>2023-09-02T12:28:55.000Z</time>
      </trkpt>
      <trkpt lat="45.83145" lon="4.75425">
        <ele>360.85059</ele>
        <time>2023-09-02T12:28:56.000Z</time>
      </trkpt>
      <trkpt lat="45.83141" lon="4.75426">
        <ele>361.17523</ele>
        <time>2023-09-02T12:28:57.000Z</time>
      </trkpt>
      <trkpt lat="45.83138" lon="4.75428">
        <ele>361.49139</ele>
        <time>2023-09-02T12:28:58.000Z</time>
      </trkpt>
      <trkpt lat="45.83135" lon="4.75431">
        <ele>361.77301</ele>
        <time>2023-09-02T12:28:59.000Z</time>
      </trkpt>
      <trkpt lat="45.83131" lon="4.75435">
        <ele>362.05334</ele>
        <time>2023-09-02T12:29:00.000Z</time>
      </trkpt>
      <trkpt lat="45.83128" lon="4.7544">
        <ele>362.33051</ele>
        <time>2023-09-02T12:29:01.000Z</time>
      </trkpt>
      <trkpt lat="45.83125" lon="4.75445">
        <ele>362.57425</ele>
        <time>2023-09-02T12:29:02.000Z</time>
      </trkpt>
      <trkpt lat="45.83123" lon="4.75449">
        <ele>362.95575</ele>
        <time>2023-09-02T12:29:03.000Z</time>
      </trkpt>
      <trkpt lat="45.83121" lon="4.75452">
        <ele>363.30014</ele>
        <time>2023-09-02T12:29:04.000Z</time>
      </trkpt>
      <trkpt lat="45.83119" lon="4.75457">
        <ele>363.58731</ele>
        <time>2023-09-02T12:29:05.000Z</time>
      </trkpt>
      <trkpt lat="45.83118" lon="4.75463">
        <ele>363.90405</ele>
        <time>2023-09-02T12:29:06.000Z</time>
      </trkpt>
      <trkpt lat="45.83117" lon="4.75467">
        <ele>364.21365</ele>
        <time>2023-09-02T12:29:07.000Z</time>
      </trkpt>
      <trkpt lat="45.83118" lon="4.75473">
        <ele>364.48651</ele>
        <time>2023-09-02T12:29:08.000Z</time>
      </trkpt>
      <trkpt lat="45.83118" lon="4.75478">
        <ele>364.71179</ele>
        <time>2023-09-02T12:29:09.000Z</time>
      </trkpt>
      <trkpt lat="45.8312" lon="4.75484">
        <ele>364.9877</ele>
        <time>2023-09-02T12:29:10.000Z</time>
      </trkpt>
      <trkpt lat="45.83121" lon="4.75491">
        <ele>365.29425</ele>
        <time>2023-09-02T12:29:11.000Z</time>
      </trkpt>
      <trkpt lat="45.83122" lon="4.75496">
        <ele>365.54523</ele>
        <time>2023-09-02T12:29:12.000Z</time>
      </trkpt>
      <trkpt lat="45.83124" lon="4.75501">
        <ele>365.83926</ele>
        <time>2023-09-02T12:29:13.000Z</time>
      </trkpt>
      <trkpt lat="45.83126" lon="4.75507">
        <ele>366.10919</ele>
        <time>2023-09-02T12:29:14.000Z</time>
      </trkpt>
      <trkpt lat="45.83127" lon="4.75511">
        <ele>366.36496</ele>
        <time>2023-09-02T12:29:15.000Z</time>
      </trkpt>
      <trkpt lat="45.83129" lon="4.75517">
        <ele>366.63556</ele>
        <time>2023-09-02T12:29:16.000Z</time>
      </trkpt>
      <trkpt lat="45.83131" lon="4.75521">
        <ele>366.90915</ele>
        <time>2023-09-02T12:29:17.000Z</time>
      </trkpt>
      <trkpt lat="45.83134" lon="4.75525">
        <ele>367.17026</ele>
        <time>2023-09-02T12:29:18.000Z</time>
      </trkpt>
      <trkpt lat="45.83137" lon="4.7553">
        <ele>367.4606</ele>
        <time>2023-09-02T12:29:19.000Z</time>
      </trkpt>
      <trkpt lat="45.8314" lon="4.75534">
        <ele>367.79297</ele>
        <time>2023-09-02T12:29:20.000Z</time>
      </trkpt>
      <trkpt lat="45.83143" lon="4.75538">
        <ele>368.14758</ele>
        <time>2023-09-02T12:29:21.000Z</time>
      </trkpt>
      <trkpt lat="45.83146" lon="4.75543">
        <ele>368.4603</ele>
        <time>2023-09-02T12:29:22.000Z</time>
      </trkpt>
      <trkpt lat="45.83149" lon="4.75547">
        <ele>368.76569</ele>
        <time>2023-09-02T12:29:23.000Z</time>
      </trkpt>
      <trkpt lat="45.83152" lon="4.75553">
        <ele>369.06381</ele>
        <time>2023-09-02T12:29:24.000Z</time>
      </trkpt>
      <trkpt lat="45.83153" lon="4.75558">
        <ele>369.37881</ele>
        <time>2023-09-02T12:29:25.000Z</time>
      </trkpt>
      <trkpt lat="45.83154" lon="4.75564">
        <ele>369.69809</ele>
        <time>2023-09-02T12:29:26.000Z</time>
      </trkpt>
      <trkpt lat="45.83155" lon="4.7557">
        <ele>370.01505</ele>
        <time>2023-09-02T12:29:27.000Z</time>
      </trkpt>
      <trkpt lat="45.83156" lon="4.75579">
        <ele>370.38681</ele>
        <time>2023-09-02T12:29:28.000Z</time>
      </trkpt>
      <trkpt lat="45.83158" lon="4.75585">
        <ele>370.79071</ele>
        <time>2023-09-02T12:29:29.000Z</time>
      </trkpt>
      <trkpt lat="45.83159" lon="4.75591">
        <ele>371.15714</ele>
        <time>2023-09-02T12:29:30.000Z</time>
      </trkpt>
      <trkpt lat="45.83161" lon="4.75596">
        <ele>371.49847</ele>
        <time>2023-09-02T12:29:31.000Z</time>
      </trkpt>
      <trkpt lat="45.83162" lon="4.75602">
        <ele>371.86826</ele>
        <time>2023-09-02T12:29:32.000Z</time>
      </trkpt>
      <trkpt lat="45.83163" lon="4.75608">
        <ele>372.168</ele>
        <time>2023-09-02T12:29:33.000Z</time>
      </trkpt>
      <trkpt lat="45.83163" lon="4.75615">
        <ele>372.65179</ele>
        <time>2023-09-02T12:29:34.000Z</time>
      </trkpt>
      <trkpt lat="45.83163" lon="4.7562">
        <ele>373.14966</ele>
        <time>2023-09-02T12:29:35.000Z</time>
      </trkpt>
      <trkpt lat="45.83162" lon="4.75625">
        <ele>373.61197</ele>
        <time>2023-09-02T12:29:36.000Z</time>
      </trkpt>
      <trkpt lat="45.83162" lon="4.75631">
        <ele>374.05078</ele>
        <time>2023-09-02T12:29:37.000Z</time>
      </trkpt>
      <trkpt lat="45.83162" lon="4.75637">
        <ele>374.50006</ele>
        <time>2023-09-02T12:29:38.000Z</time>
      </trkpt>
      <trkpt lat="45.83162" lon="4.75643">
        <ele>375.52667</ele>
        <time>2023-09-02T12:29:39.000Z</time>
      </trkpt>
      <trkpt lat="45.83162" lon="4.75648">
        <ele>376.47955</ele>
        <time>2023-09-02T12:29:40.000Z</time>
      </trkpt>
      <trkpt lat="45.83163" lon="4.75653">
        <ele>377.38702</ele>
        <time>2023-09-02T12:29:41.000Z</time>
      </trkpt>
      <trkpt lat="45.83164" lon="4.75658">
        <ele>378.35907</ele>
        <time>2023-09-02T12:29:42.000Z</time>
      </trkpt>
      <trkpt lat="45.83166" lon="4.75662">
        <ele>379.2872</ele>
        <time>2023-09-02T12:29:43.000Z</time>
      </trkpt>
      <trkpt lat="45.83168" lon="4.75666">
        <ele>380.2193</ele>
        <time>2023-09-02T12:29:44.000Z</time>
      </trkpt>
      <trkpt lat="45.83171" lon="4.7567">
        <ele>381.12372</ele>
        <time>2023-09-02T12:29:45.000Z</time>
      </trkpt>
      <trkpt lat="45.83173" lon="4.75675">
        <ele>382.0257</ele>
        <time>2023-09-02T12:29:46.000Z</time>
      </trkpt>
      <trkpt lat="45.83176" lon="4.75679">
        <ele>382.92294</ele>
        <time>2023-09-02T12:29:47.000Z</time>
      </trkpt>
      <trkpt lat="45.83179" lon="4.75684">
        <ele>383.80273</ele>
        <time>2023-09-02T12:29:48.000Z</time>
      </trkpt>
      <trkpt lat="45.83181" lon="4.75688">
        <ele>384.68155</ele>
        <time>2023-09-02T12:29:49.000Z</time>
      </trkpt>
      <trkpt lat="45.83184" lon="4.75693">
        <ele>385.57471</ele>
        <time>2023-09-02T12:29:50.000Z</time>
      </trkpt>
      <trkpt lat="45.83187" lon="4.75696">
        <ele>385.8912</ele>
        <time>2023-09-02T12:29:51.000Z</time>
      </trkpt>
      <trkpt lat="45.8319" lon="4.757">
        <ele>386.20135</ele>
        <time>2023-09-02T12:29:52.000Z</time>
      </trkpt>
      <trkpt lat="45.83192" lon="4.75704">
        <ele>386.51178</ele>
        <time>2023-09-02T12:29:53.000Z</time>
      </trkpt>
      <trkpt lat="45.83194" lon="4.75708">
        <ele>386.63135</ele>
        <time>2023-09-02T12:29:54.000Z</time>
      </trkpt>
      <trkpt lat="45.83197" lon="4.75713">
        <ele>386.72412</ele>
        <time>2023-09-02T12:29:55.000Z</time>
      </trkpt>
      <trkpt lat="45.83199" lon="4.75718">
        <ele>386.82632</ele>
        <time>2023-09-02T12:29:56.000Z</time>
      </trkpt>
      <trkpt lat="45.83202" lon="4.75724">
        <ele>386.93341</ele>
        <time>2023-09-02T12:29:57.000Z</time>
      </trkpt>
      <trkpt lat="45.83204" lon="4.75729">
        <ele>387.03864</ele>
        <time>2023-09-02T12:29:58.000Z</time>
      </trkpt>
      <trkpt lat="45.83206" lon="4.75734">
        <ele>386.55219</ele>
        <time>2023-09-02T12:29:59.000Z</time>
      </trkpt>
      <trkpt lat="45.83209" lon="4.75739">
        <ele>386.14117</ele>
        <time>2023-09-02T12:30:00.000Z</time>
      </trkpt>
      <trkpt lat="45.83211" lon="4.75744">
        <ele>385.74579</ele>
        <time>2023-09-02T12:30:01.000Z</time>
      </trkpt>
      <trkpt lat="45.83213" lon="4.75749">
        <ele>385.31061</ele>
        <time>2023-09-02T12:30:02.000Z</time>
      </trkpt>
      <trkpt lat="45.83215" lon="4.75754">
        <ele>384.86832</ele>
        <time>2023-09-02T12:30:03.000Z</time>
      </trkpt>
      <trkpt lat="45.83217" lon="4.75759">
        <ele>384.45062</ele>
        <time>2023-09-02T12:30:04.000Z</time>
      </trkpt>
      <trkpt lat="45.83219" lon="4.75764">
        <ele>384.06708</ele>
        <time>2023-09-02T12:30:05.000Z</time>
      </trkpt>
      <trkpt lat="45.83221" lon="4.75769">
        <ele>383.68481</ele>
        <time>2023-09-02T12:30:06.000Z</time>
      </trkpt>
      <trkpt lat="45.83223" lon="4.75774">
        <ele>383.31503</ele>
        <time>2023-09-02T12:30:07.000Z</time>
      </trkpt>
      <trkpt lat="45.83225" lon="4.75779">
        <ele>382.91791</ele>
        <time>2023-09-02T12:30:08.000Z</time>
      </trkpt>
      <trkpt lat="45.83227" lon="4.75783">
        <ele>382.54044</ele>
        <time>2023-09-02T12:30:09.000Z</time>
      </trkpt>
      <trkpt lat="45.83229" lon="4.75787">
        <ele>382.23196</ele>
        <time>2023-09-02T12:30:10.000Z</time>
      </trkpt>
      <trkpt lat="45.83231" lon="4.75791">
        <ele>382.50555</ele>
        <time>2023-09-02T12:30:11.000Z</time>
      </trkpt>
      <trkpt lat="45.83233" lon="4.75795">
        <ele>382.78253</ele>
        <time>2023-09-02T12:30:12.000Z</time>
      </trkpt>
      <trkpt lat="45.83235" lon="4.75799">
        <ele>383.09933</ele>
        <time>2023-09-02T12:30:13.000Z</time>
      </trkpt>
      <trkpt lat="45.83236" lon="4.75804">
        <ele>383.39981</ele>
        <time>2023-09-02T12:30:14.000Z</time>
      </trkpt>
      <trkpt lat="45.83238" lon="4.75809">
        <ele>383.64481</ele>
        <time>2023-09-02T12:30:15.000Z</time>
      </trkpt>
      <trkpt lat="45.83239" lon="4.75813">
        <ele>384.00925</ele>
        <time>2023-09-02T12:30:16.000Z</time>
      </trkpt>
      <trkpt lat="45.8324" lon="4.75817">
        <ele>384.21045</ele>
        <time>2023-09-02T12:30:17.000Z</time>
      </trkpt>
      <trkpt lat="45.83241" lon="4.75821">
        <ele>384.41727</ele>
        <time>2023-09-02T12:30:18.000Z</time>
      </trkpt>
      <trkpt lat="45.83242" lon="4.75825">
        <ele>384.58615</ele>
        <time>2023-09-02T12:30:19.000Z</time>
      </trkpt>
      <trkpt lat="45.83242" lon="4.75829">
        <ele>384.71259</ele>
        <time>2023-09-02T12:30:20.000Z</time>
      </trkpt>
      <trkpt lat="45.83243" lon="4.75832">
        <ele>384.80286</ele>
        <time>2023-09-02T12:30:21.000Z</time>
      </trkpt>
      <trkpt lat="45.83244" lon="4.75836">
        <ele>384.96967</ele>
        <time>2023-09-02T12:30:22.000Z</time>
      </trkpt>
      <trkpt lat="45.83244" lon="4.7584">
        <ele>385.13437</ele>
        <time>2023-09-02T12:30:23.000Z</time>
      </trkpt>
      <trkpt lat="45.83245" lon="4.75844">
        <ele>385.26523</ele>
        <time>2023-09-02T12:30:24.000Z</time>
      </trkpt>
      <trkpt lat="45.83245" lon="4.75848">
        <ele>385.36566</ele>
        <time>2023-09-02T12:30:25.000Z</time>
      </trkpt>
      <trkpt lat="45.83246" lon="4.75853">
        <ele>385.47406</ele>
        <time>2023-09-02T12:30:26.000Z</time>
      </trkpt>
      <trkpt lat="45.83246" lon="4.75857">
        <ele>385.58423</ele>
        <time>2023-09-02T12:30:27.000Z</time>
      </trkpt>
      <trkpt lat="45.83246" lon="4.75862">
        <ele>385.73907</ele>
        <time>2023-09-02T12:30:28.000Z</time>
      </trkpt>
      <trkpt lat="45.83246" lon="4.75866">
        <ele>385.91287</ele>
        <time>2023-09-02T12:30:29.000Z</time>
      </trkpt>
      <trkpt lat="45.83246" lon="4.75871">
        <ele>385.99988</ele>
        <time>2023-09-02T12:30:30.000Z</time>
      </trkpt>
      <trkpt lat="45.83246" lon="4.75875">
        <ele>386.09113</ele>
        <time>2023-09-02T12:30:31.000Z</time>
      </trkpt>
      <trkpt lat="45.83246" lon="4.7588">
        <ele>386.17554</ele>
        <time>2023-09-02T12:30:32.000Z</time>
      </trkpt>
      <trkpt lat="45.83246" lon="4.75885">
        <ele>386.26089</ele>
        <time>2023-09-02T12:30:33.000Z</time>
      </trkpt>
      <trkpt lat="45.83246" lon="4.75889">
        <ele>386.30609</ele>
        <time>2023-09-02T12:30:34.000Z</time>
      </trkpt>
      <trkpt lat="45.83246" lon="4.75894">
        <ele>386.36176</ele>
        <time>2023-09-02T12:30:35.000Z</time>
      </trkpt>
      <trkpt lat="45.83246" lon="4.75899">
        <ele>386.29453</ele>
        <time>2023-09-02T12:30:36.000Z</time>
      </trkpt>
      <trkpt lat="45.83247" lon="4.75903">
        <ele>386.50241</ele>
        <time>2023-09-02T12:30:37.000Z</time>
      </trkpt>
      <trkpt lat="45.83247" lon="4.75907">
        <ele>386.64651</ele>
        <time>2023-09-02T12:30:38.000Z</time>
      </trkpt>
      <trkpt lat="45.83248" lon="4.7591">
        <ele>386.81036</ele>
        <time>2023-09-02T12:30:39.000Z</time>
      </trkpt>
      <trkpt lat="45.83248" lon="4.75914">
        <ele>386.91455</ele>
        <time>2023-09-02T12:30:41.000Z</time>
      </trkpt>
      <trkpt lat="45.83249" lon="4.75917">
        <ele>387.14078</ele>
        <time>2023-09-02T12:31:11.000Z</time>
      </trkpt>
      <trkpt lat="45.8325" lon="4.7592">
        <ele>387.26831</ele>
        <time>2023-09-02T12:31:12.000Z</time>
      </trkpt>
      <trkpt lat="45.83251" lon="4.75923">
        <ele>387.4201</ele>
        <time>2023-09-02T12:31:13.000Z</time>
      </trkpt>
      <trkpt lat="45.83252" lon="4.75926">
        <ele>387.56454</ele>
        <time>2023-09-02T12:31:14.000Z</time>
      </trkpt>
      <trkpt lat="45.83253" lon="4.7593">
        <ele>387.70395</ele>
        <time>2023-09-02T12:31:15.000Z</time>
      </trkpt>
      <trkpt lat="45.83254" lon="4.75934">
        <ele>387.83124</ele>
        <time>2023-09-02T12:31:16.000Z</time>
      </trkpt>
      <trkpt lat="45.83255" lon="4.75938">
        <ele>387.93655</ele>
        <time>2023-09-02T12:31:17.000Z</time>
      </trkpt>
      <trkpt lat="45.83256" lon="4.75942">
        <ele>388.02145</ele>
        <time>2023-09-02T12:31:18.000Z</time>
      </trkpt>
      <trkpt lat="45.83258" lon="4.75946">
        <ele>388.0892</ele>
        <time>2023-09-02T12:31:19.000Z</time>
      </trkpt>
      <trkpt lat="45.83259" lon="4.75951">
        <ele>388.1467</ele>
        <time>2023-09-02T12:31:20.000Z</time>
      </trkpt>
      <trkpt lat="45.8326" lon="4.75956">
        <ele>388.20496</ele>
        <time>2023-09-02T12:31:21.000Z</time>
      </trkpt>
      <trkpt lat="45.83261" lon="4.7596">
        <ele>388.22</ele>
        <time>2023-09-02T12:31:22.000Z</time>
      </trkpt>
      <trkpt lat="45.83262" lon="4.75964">
        <ele>388.21927</ele>
        <time>2023-09-02T12:31:23.000Z</time>
      </trkpt>
      <trkpt lat="45.83264" lon="4.75969">
        <ele>388.27811</ele>
        <time>2023-09-02T12:31:24.000Z</time>
      </trkpt>
      <trkpt lat="45.83265" lon="4.75973">
        <ele>388.39648</ele>
        <time>2023-09-02T12:31:25.000Z</time>
      </trkpt>
      <trkpt lat="45.83266" lon="4.75978">
        <ele>388.52667</ele>
        <time>2023-09-02T12:31:26.000Z</time>
      </trkpt>
      <trkpt lat="45.83267" lon="4.75982">
        <ele>388.50476</ele>
        <time>2023-09-02T12:31:27.000Z</time>
      </trkpt>
      <trkpt lat="45.83269" lon="4.75986">
        <ele>388.62543</ele>
        <time>2023-09-02T12:31:28.000Z</time>
      </trkpt>
      <trkpt lat="45.8327" lon="4.75991">
        <ele>388.71896</ele>
        <time>2023-09-02T12:31:29.000Z</time>
      </trkpt>
      <trkpt lat="45.83272" lon="4.75995">
        <ele>387.55588</ele>
        <time>2023-09-02T12:31:30.000Z</time>
      </trkpt>
      <trkpt lat="45.83274" lon="4.76">
        <ele>386.79617</ele>
        <time>2023-09-02T12:31:31.000Z</time>
      </trkpt>
      <trkpt lat="45.83275" lon="4.76004">
        <ele>386.0329</ele>
        <time>2023-09-02T12:31:32.000Z</time>
      </trkpt>
      <trkpt lat="45.83277" lon="4.76009">
        <ele>385.26471</ele>
        <time>2023-09-02T12:31:33.000Z</time>
      </trkpt>
      <trkpt lat="45.83279" lon="4.76013">
        <ele>384.50467</ele>
        <time>2023-09-02T12:31:34.000Z</time>
      </trkpt>
      <trkpt lat="45.8328" lon="4.76018">
        <ele>383.76971</ele>
        <time>2023-09-02T12:31:35.000Z</time>
      </trkpt>
      <trkpt lat="45.83281" lon="4.76022">
        <ele>383.0347</ele>
        <time>2023-09-02T12:31:36.000Z</time>
      </trkpt>
      <trkpt lat="45.83283" lon="4.76027">
        <ele>382.30371</ele>
        <time>2023-09-02T12:31:37.000Z</time>
      </trkpt>
      <trkpt lat="45.83284" lon="4.76031">
        <ele>381.58966</ele>
        <time>2023-09-02T12:31:38.000Z</time>
      </trkpt>
      <trkpt lat="45.83285" lon="4.76036">
        <ele>380.87152</ele>
        <time>2023-09-02T12:31:39.000Z</time>
      </trkpt>
      <trkpt lat="45.83286" lon="4.76041">
        <ele>380.14606</ele>
        <time>2023-09-02T12:31:40.000Z</time>
      </trkpt>
      <trkpt lat="45.83287" lon="4.76046">
        <ele>379.42471</ele>
        <time>2023-09-02T12:31:41.000Z</time>
      </trkpt>
      <trkpt lat="45.83288" lon="4.76051">
        <ele>378.76706</ele>
        <time>2023-09-02T12:31:42.000Z</time>
      </trkpt>
      <trkpt lat="45.83288" lon="4.76056">
        <ele>378.12888</ele>
        <time>2023-09-02T12:31:43.000Z</time>
      </trkpt>
      <trkpt lat="45.83288" lon="4.76061">
        <ele>377.46323</ele>
        <time>2023-09-02T12:31:44.000Z</time>
      </trkpt>
      <trkpt lat="45.83287" lon="4.76066">
        <ele>376.77795</ele>
        <time>2023-09-02T12:31:45.000Z</time>
      </trkpt>
      <trkpt lat="45.83286" lon="4.76071">
        <ele>376.11829</ele>
        <time>2023-09-02T12:31:46.000Z</time>
      </trkpt>
      <trkpt lat="45.83285" lon="4.76076">
        <ele>375.4816</ele>
        <time>2023-09-02T12:31:47.000Z</time>
      </trkpt>
      <trkpt lat="45.83284" lon="4.7608">
        <ele>374.74066</ele>
        <time>2023-09-02T12:31:48.000Z</time>
      </trkpt>
      <trkpt lat="45.83282" lon="4.76085">
        <ele>374.0343</ele>
        <time>2023-09-02T12:31:49.000Z</time>
      </trkpt>
      <trkpt lat="45.83281" lon="4.7609">
        <ele>374.66278</ele>
        <time>2023-09-02T12:31:50.000Z</time>
      </trkpt>
      <trkpt lat="45.83279" lon="4.76094">
        <ele>374.80698</ele>
        <time>2023-09-02T12:31:51.000Z</time>
      </trkpt>
      <trkpt lat="45.83277" lon="4.76099">
        <ele>374.96182</ele>
        <time>2023-09-02T12:31:52.000Z</time>
      </trkpt>
      <trkpt lat="45.83275" lon="4.76103">
        <ele>375.92117</ele>
        <time>2023-09-02T12:31:53.000Z</time>
      </trkpt>
      <trkpt lat="45.83272" lon="4.76107">
        <ele>376.88455</ele>
        <time>2023-09-02T12:31:54.000Z</time>
      </trkpt>
      <trkpt lat="45.8327" lon="4.76111">
        <ele>377.8277</ele>
        <time>2023-09-02T12:31:55.000Z</time>
      </trkpt>
      <trkpt lat="45.83268" lon="4.76116">
        <ele>378.75491</ele>
        <time>2023-09-02T12:31:56.000Z</time>
      </trkpt>
      <trkpt lat="45.83267" lon="4.7612">
        <ele>379.86798</ele>
        <time>2023-09-02T12:31:57.000Z</time>
      </trkpt>
      <trkpt lat="45.83265" lon="4.76125">
        <ele>381.01816</ele>
        <time>2023-09-02T12:31:58.000Z</time>
      </trkpt>
      <trkpt lat="45.83265" lon="4.7613">
        <ele>381.94992</ele>
        <time>2023-09-02T12:31:59.000Z</time>
      </trkpt>
      <trkpt lat="45.83265" lon="4.76136">
        <ele>382.88211</ele>
        <time>2023-09-02T12:32:00.000Z</time>
      </trkpt>
      <trkpt lat="45.83266" lon="4.76142">
        <ele>383.7597</ele>
        <time>2023-09-02T12:32:01.000Z</time>
      </trkpt>
      <trkpt lat="45.83267" lon="4.76147">
        <ele>384.80054</ele>
        <time>2023-09-02T12:32:02.000Z</time>
      </trkpt>
      <trkpt lat="45.83267" lon="4.76152">
        <ele>385.78802</ele>
        <time>2023-09-02T12:32:03.000Z</time>
      </trkpt>
      <trkpt lat="45.83268" lon="4.76157">
        <ele>385.93903</ele>
        <time>2023-09-02T12:32:04.000Z</time>
      </trkpt>
      <trkpt lat="45.83269" lon="4.76162">
        <ele>386.09299</ele>
        <time>2023-09-02T12:32:05.000Z</time>
      </trkpt>
      <trkpt lat="45.8327" lon="4.76168">
        <ele>386.21008</ele>
        <time>2023-09-02T12:32:06.000Z</time>
      </trkpt>
      <trkpt lat="45.83271" lon="4.76173">
        <ele>386.3468</ele>
        <time>2023-09-02T12:32:07.000Z</time>
      </trkpt>
      <trkpt lat="45.83272" lon="4.76179">
        <ele>386.50305</ele>
        <time>2023-09-02T12:32:08.000Z</time>
      </trkpt>
      <trkpt lat="45.83273" lon="4.76184">
        <ele>386.62988</ele>
        <time>2023-09-02T12:32:09.000Z</time>
      </trkpt>
      <trkpt lat="45.83274" lon="4.76189">
        <ele>386.38956</ele>
        <time>2023-09-02T12:32:10.000Z</time>
      </trkpt>
      <trkpt lat="45.83274" lon="4.76194">
        <ele>386.14471</ele>
        <time>2023-09-02T12:32:11.000Z</time>
      </trkpt>
      <trkpt lat="45.83275" lon="4.762">
        <ele>386.96722</ele>
        <time>2023-09-02T12:32:12.000Z</time>
      </trkpt>
      <trkpt lat="45.83275" lon="4.76205">
        <ele>387.17023</ele>
        <time>2023-09-02T12:32:13.000Z</time>
      </trkpt>
      <trkpt lat="45.83275" lon="4.7621">
        <ele>387.31381</ele>
        <time>2023-09-02T12:32:14.000Z</time>
      </trkpt>
      <trkpt lat="45.83275" lon="4.76215">
        <ele>387.49319</ele>
        <time>2023-09-02T12:32:15.000Z</time>
      </trkpt>
      <trkpt lat="45.83275" lon="4.76221">
        <ele>387.70816</ele>
        <time>2023-09-02T12:32:16.000Z</time>
      </trkpt>
      <trkpt lat="45.83276" lon="4.76227">
        <ele>387.73154</ele>
        <time>2023-09-02T12:32:17.000Z</time>
      </trkpt>
      <trkpt lat="45.83276" lon="4.76233">
        <ele>387.71368</ele>
        <time>2023-09-02T12:32:18.000Z</time>
      </trkpt>
      <trkpt lat="45.83276" lon="4.76238">
        <ele>387.91568</ele>
        <time>2023-09-02T12:32:19.000Z</time>
      </trkpt>
      <trkpt lat="45.83276" lon="4.76244">
        <ele>388.13336</ele>
        <time>2023-09-02T12:32:20.000Z</time>
      </trkpt>
      <trkpt lat="45.83276" lon="4.76249">
        <ele>388.39011</ele>
        <time>2023-09-02T12:32:21.000Z</time>
      </trkpt>
      <trkpt lat="45.83276" lon="4.76255">
        <ele>388.45551</ele>
        <time>2023-09-02T12:32:22.000Z</time>
      </trkpt>
      <trkpt lat="45.83277" lon="4.7626">
        <ele>388.55322</ele>
        <time>2023-09-02T12:32:23.000Z</time>
      </trkpt>
      <trkpt lat="45.83277" lon="4.76265">
        <ele>389.47873</ele>
        <time>2023-09-02T12:32:24.000Z</time>
      </trkpt>
      <trkpt lat="45.83278" lon="4.76269">
        <ele>390.41046</ele>
        <time>2023-09-02T12:32:25.000Z</time>
      </trkpt>
      <trkpt lat="45.83279" lon="4.76275">
        <ele>391.35773</ele>
        <time>2023-09-02T12:32:26.000Z</time>
      </trkpt>
      <trkpt lat="45.83279" lon="4.7628">
        <ele>392.30618</ele>
        <time>2023-09-02T12:32:27.000Z</time>
      </trkpt>
      <trkpt lat="45.8328" lon="4.76285">
        <ele>393.23209</ele>
        <time>2023-09-02T12:32:28.000Z</time>
      </trkpt>
      <trkpt lat="45.8328" lon="4.7629">
        <ele>394.18658</ele>
        <time>2023-09-02T12:32:29.000Z</time>
      </trkpt>
      <trkpt lat="45.8328" lon="4.76296">
        <ele>395.51196</ele>
        <time>2023-09-02T12:32:30.000Z</time>
      </trkpt>
      <trkpt lat="45.83281" lon="4.76301">
        <ele>396.87585</ele>
        <time>2023-09-02T12:32:31.000Z</time>
      </trkpt>
      <trkpt lat="45.83281" lon="4.76306">
        <ele>397.20035</ele>
        <time>2023-09-02T12:32:32.000Z</time>
      </trkpt>
      <trkpt lat="45.83281" lon="4.76311">
        <ele>397.36102</ele>
        <time>2023-09-02T12:32:33.000Z</time>
      </trkpt>
      <trkpt lat="45.83282" lon="4.76317">
        <ele>397.5723</ele>
        <time>2023-09-02T12:32:34.000Z</time>
      </trkpt>
      <trkpt lat="45.83282" lon="4.76322">
        <ele>397.78531</ele>
        <time>2023-09-02T12:32:35.000Z</time>
      </trkpt>
      <trkpt lat="45.83282" lon="4.76327">
        <ele>397.96054</ele>
        <time>2023-09-02T12:32:36.000Z</time>
      </trkpt>
      <trkpt lat="45.83282" lon="4.76332">
        <ele>398.14883</ele>
        <time>2023-09-02T12:32:37.000Z</time>
      </trkpt>
      <trkpt lat="45.83282" lon="4.76337">
        <ele>398.37808</ele>
        <time>2023-09-02T12:32:38.000Z</time>
      </trkpt>
      <trkpt lat="45.83283" lon="4.76342">
        <ele>398.64929</ele>
        <time>2023-09-02T12:32:39.000Z</time>
      </trkpt>
      <trkpt lat="45.83283" lon="4.76347">
        <ele>398.90475</ele>
        <time>2023-09-02T12:32:40.000Z</time>
      </trkpt>
      <trkpt lat="45.83283" lon="4.76351">
        <ele>399.12766</ele>
        <time>2023-09-02T12:32:41.000Z</time>
      </trkpt>
      <trkpt lat="45.83284" lon="4.76355">
        <ele>399.37115</ele>
        <time>2023-09-02T12:32:42.000Z</time>
      </trkpt>
      <trkpt lat="45.83285" lon="4.7636">
        <ele>399.62415</ele>
        <time>2023-09-02T12:32:43.000Z</time>
      </trkpt>
      <trkpt lat="45.83286" lon="4.76364">
        <ele>399.888</ele>
        <time>2023-09-02T12:32:44.000Z</time>
      </trkpt>
      <trkpt lat="45.83289" lon="4.76368">
        <ele>400.16742</ele>
        <time>2023-09-02T12:32:45.000Z</time>
      </trkpt>
      <trkpt lat="45.83292" lon="4.76372">
        <ele>400.44452</ele>
        <time>2023-09-02T12:32:46.000Z</time>
      </trkpt>
      <trkpt lat="45.83295" lon="4.76375">
        <ele>400.73169</ele>
        <time>2023-09-02T12:32:47.000Z</time>
      </trkpt>
      <trkpt lat="45.83298" lon="4.76378">
        <ele>401.0528</ele>
        <time>2023-09-02T12:32:48.000Z</time>
      </trkpt>
      <trkpt lat="45.83302" lon="4.7638">
        <ele>401.35864</ele>
        <time>2023-09-02T12:32:49.000Z</time>
      </trkpt>
      <trkpt lat="45.83305" lon="4.76381">
        <ele>401.67279</ele>
        <time>2023-09-02T12:32:50.000Z</time>
      </trkpt>
      <trkpt lat="45.83309" lon="4.76381">
        <ele>401.98123</ele>
        <time>2023-09-02T12:32:51.000Z</time>
      </trkpt>
      <trkpt lat="45.83312" lon="4.7638">
        <ele>402.2486</ele>
        <time>2023-09-02T12:32:52.000Z</time>
      </trkpt>
      <trkpt lat="45.83316" lon="4.76378">
        <ele>402.5275</ele>
        <time>2023-09-02T12:32:53.000Z</time>
      </trkpt>
      <trkpt lat="45.83319" lon="4.76376">
        <ele>402.81183</ele>
        <time>2023-09-02T12:32:54.000Z</time>
      </trkpt>
      <trkpt lat="45.83323" lon="4.76374">
        <ele>403.08847</ele>
        <time>2023-09-02T12:32:55.000Z</time>
      </trkpt>
      <trkpt lat="45.83326" lon="4.76371">
        <ele>403.41547</ele>
        <time>2023-09-02T12:32:56.000Z</time>
      </trkpt>
      <trkpt lat="45.8333" lon="4.76368">
        <ele>403.75116</ele>
        <time>2023-09-02T12:32:57.000Z</time>
      </trkpt>
      <trkpt lat="45.83333" lon="4.76365">
        <ele>404.05157</ele>
        <time>2023-09-02T12:32:58.000Z</time>
      </trkpt>
      <trkpt lat="45.83336" lon="4.76362">
        <ele>404.31256</ele>
        <time>2023-09-02T12:32:59.000Z</time>
      </trkpt>
      <trkpt lat="45.83339" lon="4.76359">
        <ele>404.56729</ele>
        <time>2023-09-02T12:33:00.000Z</time>
      </trkpt>
      <trkpt lat="45.83342" lon="4.76357">
        <ele>404.85547</ele>
        <time>2023-09-02T12:33:01.000Z</time>
      </trkpt>
      <trkpt lat="45.83346" lon="4.76354">
        <ele>405.18451</ele>
        <time>2023-09-02T12:33:02.000Z</time>
      </trkpt>
      <trkpt lat="45.83349" lon="4.76351">
        <ele>405.52032</ele>
        <time>2023-09-02T12:33:03.000Z</time>
      </trkpt>
      <trkpt lat="45.83352" lon="4.76348">
        <ele>405.69989</ele>
        <time>2023-09-02T12:33:04.000Z</time>
      </trkpt>
      <trkpt lat="45.83355" lon="4.76345">
        <ele>405.85547</ele>
        <time>2023-09-02T12:33:05.000Z</time>
      </trkpt>
      <trkpt lat="45.83359" lon="4.76343">
        <ele>406.01453</ele>
        <time>2023-09-02T12:33:06.000Z</time>
      </trkpt>
      <trkpt lat="45.83363" lon="4.7634">
        <ele>406.29642</ele>
        <time>2023-09-02T12:33:07.000Z</time>
      </trkpt>
      <trkpt lat="45.83366" lon="4.76338">
        <ele>406.55579</ele>
        <time>2023-09-02T12:33:08.000Z</time>
      </trkpt>
      <trkpt lat="45.8337" lon="4.76337">
        <ele>406.82483</ele>
        <time>2023-09-02T12:33:09.000Z</time>
      </trkpt>
      <trkpt lat="45.83374" lon="4.76336">
        <ele>407.05103</ele>
        <time>2023-09-02T12:33:10.000Z</time>
      </trkpt>
      <trkpt lat="45.83378" lon="4.76335">
        <ele>407.16425</ele>
        <time>2023-09-02T12:33:11.000Z</time>
      </trkpt>
      <trkpt lat="45.83382" lon="4.76335">
        <ele>407.2142</ele>
        <time>2023-09-02T12:33:12.000Z</time>
      </trkpt>
      <trkpt lat="45.83386" lon="4.76335">
        <ele>407.18353</ele>
        <time>2023-09-02T12:33:13.000Z</time>
      </trkpt>
      <trkpt lat="45.8339" lon="4.76336">
        <ele>407.16177</ele>
        <time>2023-09-02T12:33:14.000Z</time>
      </trkpt>
      <trkpt lat="45.83394" lon="4.76337">
        <ele>406.9986</ele>
        <time>2023-09-02T12:33:15.000Z</time>
      </trkpt>
      <trkpt lat="45.83397" lon="4.76337">
        <ele>406.81207</ele>
        <time>2023-09-02T12:33:16.000Z</time>
      </trkpt>
      <trkpt lat="45.834" lon="4.76337">
        <ele>406.91418</ele>
        <time>2023-09-02T12:33:17.000Z</time>
      </trkpt>
      <trkpt lat="45.83403" lon="4.76337">
        <ele>406.85107</ele>
        <time>2023-09-02T12:33:18.000Z</time>
      </trkpt>
      <trkpt lat="45.83407" lon="4.76337">
        <ele>406.73877</ele>
        <time>2023-09-02T12:33:19.000Z</time>
      </trkpt>
      <trkpt lat="45.83411" lon="4.76339">
        <ele>406.5871</ele>
        <time>2023-09-02T12:33:20.000Z</time>
      </trkpt>
      <trkpt lat="45.83415" lon="4.7634">
        <ele>406.57355</ele>
        <time>2023-09-02T12:33:21.000Z</time>
      </trkpt>
      <trkpt lat="45.83418" lon="4.76341">
        <ele>406.68179</ele>
        <time>2023-09-02T12:33:22.000Z</time>
      </trkpt>
      <trkpt lat="45.83421" lon="4.76344">
        <ele>406.84229</ele>
        <time>2023-09-02T12:33:23.000Z</time>
      </trkpt>
      <trkpt lat="45.83425" lon="4.76347">
        <ele>407.13025</ele>
        <time>2023-09-02T12:33:24.000Z</time>
      </trkpt>
      <trkpt lat="45.83428" lon="4.76352">
        <ele>407.41724</ele>
        <time>2023-09-02T12:33:25.000Z</time>
      </trkpt>
      <trkpt lat="45.8343" lon="4.76357">
        <ele>407.66736</ele>
        <time>2023-09-02T12:33:26.000Z</time>
      </trkpt>
      <trkpt lat="45.83431" lon="4.76365">
        <ele>407.67792</ele>
        <time>2023-09-02T12:33:27.000Z</time>
      </trkpt>
      <trkpt lat="45.83431" lon="4.7637">
        <ele>407.66315</ele>
        <time>2023-09-02T12:33:28.000Z</time>
      </trkpt>
      <trkpt lat="45.83433" lon="4.76377">
        <ele>407.64139</ele>
        <time>2023-09-02T12:33:29.000Z</time>
      </trkpt>
      <trkpt lat="45.83434" lon="4.76384">
        <ele>407.66815</ele>
        <time>2023-09-02T12:33:30.000Z</time>
      </trkpt>
      <trkpt lat="45.83435" lon="4.76392">
        <ele>407.77838</ele>
        <time>2023-09-02T12:33:31.000Z</time>
      </trkpt>
      <trkpt lat="45.83436" lon="4.76399">
        <ele>407.96637</ele>
        <time>2023-09-02T12:33:32.000Z</time>
      </trkpt>
      <trkpt lat="45.83436" lon="4.76405">
        <ele>408.18356</ele>
        <time>2023-09-02T12:33:33.000Z</time>
      </trkpt>
      <trkpt lat="45.83437" lon="4.76413">
        <ele>408.40829</ele>
        <time>2023-09-02T12:33:34.000Z</time>
      </trkpt>
      <trkpt lat="45.83437" lon="4.7642">
        <ele>408.75363</ele>
        <time>2023-09-02T12:33:35.000Z</time>
      </trkpt>
      <trkpt lat="45.83437" lon="4.76427">
        <ele>409.07245</ele>
        <time>2023-09-02T12:33:36.000Z</time>
      </trkpt>
      <trkpt lat="45.83437" lon="4.76435">
        <ele>409.08133</ele>
        <time>2023-09-02T12:33:37.000Z</time>
      </trkpt>
      <trkpt lat="45.83436" lon="4.76444">
        <ele>409.22803</ele>
        <time>2023-09-02T12:33:38.000Z</time>
      </trkpt>
      <trkpt lat="45.83436" lon="4.76451">
        <ele>409.36664</ele>
        <time>2023-09-02T12:33:39.000Z</time>
      </trkpt>
      <trkpt lat="45.83436" lon="4.7646">
        <ele>409.55981</ele>
        <time>2023-09-02T12:33:40.000Z</time>
      </trkpt>
      <trkpt lat="45.83438" lon="4.76469">
        <ele>409.60361</ele>
        <time>2023-09-02T12:33:41.000Z</time>
      </trkpt>
      <trkpt lat="45.83439" lon="4.76479">
        <ele>409.43448</ele>
        <time>2023-09-02T12:33:42.000Z</time>
      </trkpt>
      <trkpt lat="45.83441" lon="4.76488">
        <ele>409.17563</ele>
        <time>2023-09-02T12:33:43.000Z</time>
      </trkpt>
      <trkpt lat="45.83443" lon="4.76496">
        <ele>408.94888</ele>
        <time>2023-09-02T12:33:44.000Z</time>
      </trkpt>
      <trkpt lat="45.83446" lon="4.76505">
        <ele>408.77133</ele>
        <time>2023-09-02T12:33:45.000Z</time>
      </trkpt>
      <trkpt lat="45.83448" lon="4.76513">
        <ele>408.51593</ele>
        <time>2023-09-02T12:33:46.000Z</time>
      </trkpt>
      <trkpt lat="45.8345" lon="4.7652">
        <ele>408.33633</ele>
        <time>2023-09-02T12:33:47.000Z</time>
      </trkpt>
      <trkpt lat="45.83453" lon="4.76528">
        <ele>408.18195</ele>
        <time>2023-09-02T12:33:48.000Z</time>
      </trkpt>
      <trkpt lat="45.83457" lon="4.76534">
        <ele>408.05026</ele>
        <time>2023-09-02T12:33:49.000Z</time>
      </trkpt>
      <trkpt lat="45.8346" lon="4.7654">
        <ele>407.89893</ele>
        <time>2023-09-02T12:33:50.000Z</time>
      </trkpt>
      <trkpt lat="45.83463" lon="4.76545">
        <ele>407.7569</ele>
        <time>2023-09-02T12:33:51.000Z</time>
      </trkpt>
      <trkpt lat="45.83466" lon="4.7655">
        <ele>407.63306</ele>
        <time>2023-09-02T12:33:52.000Z</time>
      </trkpt>
      <trkpt lat="45.83471" lon="4.76554">
        <ele>407.50613</ele>
        <time>2023-09-02T12:33:53.000Z</time>
      </trkpt>
      <trkpt lat="45.83475" lon="4.76559">
        <ele>407.33881</ele>
        <time>2023-09-02T12:33:54.000Z</time>
      </trkpt>
      <trkpt lat="45.83479" lon="4.76563">
        <ele>407.2067</ele>
        <time>2023-09-02T12:33:55.000Z</time>
      </trkpt>
      <trkpt lat="45.83484" lon="4.76567">
        <ele>407.07642</ele>
        <time>2023-09-02T12:33:56.000Z</time>
      </trkpt>
      <trkpt lat="45.83488" lon="4.76572">
        <ele>406.9671</ele>
        <time>2023-09-02T12:33:57.000Z</time>
      </trkpt>
      <trkpt lat="45.83491" lon="4.76577">
        <ele>406.89249</ele>
        <time>2023-09-02T12:33:58.000Z</time>
      </trkpt>
      <trkpt lat="45.83495" lon="4.76581">
        <ele>406.85919</ele>
        <time>2023-09-02T12:33:59.000Z</time>
      </trkpt>
      <trkpt lat="45.83498" lon="4.76585">
        <ele>406.70807</ele>
        <time>2023-09-02T12:34:00.000Z</time>
      </trkpt>
      <trkpt lat="45.835" lon="4.7659">
        <ele>406.9064</ele>
        <time>2023-09-02T12:34:01.000Z</time>
      </trkpt>
      <trkpt lat="45.83502" lon="4.76596">
        <ele>407.07343</ele>
        <time>2023-09-02T12:34:02.000Z</time>
      </trkpt>
      <trkpt lat="45.83505" lon="4.76602">
        <ele>407.25635</ele>
        <time>2023-09-02T12:34:03.000Z</time>
      </trkpt>
      <trkpt lat="45.83507" lon="4.76607">
        <ele>407.44827</ele>
        <time>2023-09-02T12:34:04.000Z</time>
      </trkpt>
      <trkpt lat="45.83509" lon="4.76611">
        <ele>407.58221</ele>
        <time>2023-09-02T12:34:05.000Z</time>
      </trkpt>
      <trkpt lat="45.83511" lon="4.76616">
        <ele>407.86945</ele>
        <time>2023-09-02T12:34:06.000Z</time>
      </trkpt>
      <trkpt lat="45.83512" lon="4.76622">
        <ele>408.168</ele>
        <time>2023-09-02T12:34:07.000Z</time>
      </trkpt>
      <trkpt lat="45.83514" lon="4.76627">
        <ele>408.47079</ele>
        <time>2023-09-02T12:34:08.000Z</time>
      </trkpt>
      <trkpt lat="45.83516" lon="4.76633">
        <ele>408.78156</ele>
        <time>2023-09-02T12:34:09.000Z</time>
      </trkpt>
      <trkpt lat="45.83517" lon="4.76639">
        <ele>409.10513</ele>
        <time>2023-09-02T12:34:10.000Z</time>
      </trkpt>
      <trkpt lat="45.83519" lon="4.76644">
        <ele>409.41553</ele>
        <time>2023-09-02T12:34:11.000Z</time>
      </trkpt>
      <trkpt lat="45.83522" lon="4.76649">
        <ele>409.72183</ele>
        <time>2023-09-02T12:34:12.000Z</time>
      </trkpt>
      <trkpt lat="45.83524" lon="4.76653">
        <ele>410.04681</ele>
        <time>2023-09-02T12:34:13.000Z</time>
      </trkpt>
      <trkpt lat="45.83526" lon="4.76657">
        <ele>410.44101</ele>
        <time>2023-09-02T12:34:14.000Z</time>
      </trkpt>
      <trkpt lat="45.83529" lon="4.76662">
        <ele>410.81732</ele>
        <time>2023-09-02T12:34:15.000Z</time>
      </trkpt>
      <trkpt lat="45.83531" lon="4.76667">
        <ele>411.03705</ele>
        <time>2023-09-02T12:34:16.000Z</time>
      </trkpt>
      <trkpt lat="45.83534" lon="4.76672">
        <ele>411.25186</ele>
        <time>2023-09-02T12:34:17.000Z</time>
      </trkpt>
      <trkpt lat="45.83536" lon="4.76677">
        <ele>411.43066</ele>
        <time>2023-09-02T12:34:18.000Z</time>
      </trkpt>
      <trkpt lat="45.83539" lon="4.76681">
        <ele>411.64087</ele>
        <time>2023-09-02T12:34:19.000Z</time>
      </trkpt>
      <trkpt lat="45.83541" lon="4.76685">
        <ele>411.84903</ele>
        <time>2023-09-02T12:34:20.000Z</time>
      </trkpt>
      <trkpt lat="45.83544" lon="4.76689">
        <ele>411.76285</ele>
        <time>2023-09-02T12:34:21.000Z</time>
      </trkpt>
      <trkpt lat="45.83547" lon="4.76693">
        <ele>412.17383</ele>
        <time>2023-09-02T12:34:22.000Z</time>
      </trkpt>
      <trkpt lat="45.83549" lon="4.76696">
        <ele>412.50177</ele>
        <time>2023-09-02T12:34:23.000Z</time>
      </trkpt>
      <trkpt lat="45.83552" lon="4.76699">
        <ele>412.84067</ele>
        <time>2023-09-02T12:34:24.000Z</time>
      </trkpt>
      <trkpt lat="45.83555" lon="4.76702">
        <ele>413.21783</ele>
        <time>2023-09-02T12:34:25.000Z</time>
      </trkpt>
      <trkpt lat="45.83558" lon="4.76704">
        <ele>413.63712</ele>
        <time>2023-09-02T12:34:26.000Z</time>
      </trkpt>
      <trkpt lat="45.83561" lon="4.76705">
        <ele>413.81512</ele>
        <time>2023-09-02T12:34:27.000Z</time>
      </trkpt>
      <trkpt lat="45.83564" lon="4.76707">
        <ele>413.99692</ele>
        <time>2023-09-02T12:34:28.000Z</time>
      </trkpt>
      <trkpt lat="45.83567" lon="4.76709">
        <ele>414.13629</ele>
        <time>2023-09-02T12:34:29.000Z</time>
      </trkpt>
      <trkpt lat="45.8357" lon="4.76712">
        <ele>414.10385</ele>
        <time>2023-09-02T12:34:30.000Z</time>
      </trkpt>
      <trkpt lat="45.83574" lon="4.76714">
        <ele>414.48834</ele>
        <time>2023-09-02T12:34:31.000Z</time>
      </trkpt>
      <trkpt lat="45.83577" lon="4.76716">
        <ele>414.78979</ele>
        <time>2023-09-02T12:34:32.000Z</time>
      </trkpt>
      <trkpt lat="45.8358" lon="4.76719">
        <ele>415.10928</ele>
        <time>2023-09-02T12:34:33.000Z</time>
      </trkpt>
      <trkpt lat="45.83583" lon="4.76721">
        <ele>415.40265</ele>
        <time>2023-09-02T12:34:34.000Z</time>
      </trkpt>
      <trkpt lat="45.83587" lon="4.76723">
        <ele>415.7229</ele>
        <time>2023-09-02T12:34:35.000Z</time>
      </trkpt>
      <trkpt lat="45.83591" lon="4.76725">
        <ele>416.22299</ele>
        <time>2023-09-02T12:34:36.000Z</time>
      </trkpt>
      <trkpt lat="45.83595" lon="4.76727">
        <ele>416.73062</ele>
        <time>2023-09-02T12:34:37.000Z</time>
      </trkpt>
      <trkpt lat="45.83599" lon="4.76728">
        <ele>417.20526</ele>
        <time>2023-09-02T12:34:38.000Z</time>
      </trkpt>
      <trkpt lat="45.83603" lon="4.76729">
        <ele>417.63907</ele>
        <time>2023-09-02T12:34:39.000Z</time>
      </trkpt>
      <trkpt lat="45.83607" lon="4.76731">
        <ele>418.19843</ele>
        <time>2023-09-02T12:34:40.000Z</time>
      </trkpt>
      <trkpt lat="45.83611" lon="4.76733">
        <ele>418.74161</ele>
        <time>2023-09-02T12:34:41.000Z</time>
      </trkpt>
      <trkpt lat="45.83615" lon="4.76735">
        <ele>418.85513</ele>
        <time>2023-09-02T12:34:42.000Z</time>
      </trkpt>
      <trkpt lat="45.83618" lon="4.76737">
        <ele>419.03418</ele>
        <time>2023-09-02T12:34:43.000Z</time>
      </trkpt>
      <trkpt lat="45.83621" lon="4.7674">
        <ele>419.13998</ele>
        <time>2023-09-02T12:34:44.000Z</time>
      </trkpt>
      <trkpt lat="45.83625" lon="4.76743">
        <ele>419.20966</ele>
        <time>2023-09-02T12:34:45.000Z</time>
      </trkpt>
      <trkpt lat="45.83628" lon="4.76747">
        <ele>419.16193</ele>
        <time>2023-09-02T12:34:46.000Z</time>
      </trkpt>
      <trkpt lat="45.83631" lon="4.7675">
        <ele>419.33871</ele>
        <time>2023-09-02T12:34:47.000Z</time>
      </trkpt>
      <trkpt lat="45.83634" lon="4.76754">
        <ele>419.48651</ele>
        <time>2023-09-02T12:34:48.000Z</time>
      </trkpt>
      <trkpt lat="45.83636" lon="4.76759">
        <ele>419.61554</ele>
        <time>2023-09-02T12:34:49.000Z</time>
      </trkpt>
      <trkpt lat="45.83639" lon="4.76763">
        <ele>419.92645</ele>
        <time>2023-09-02T12:34:50.000Z</time>
      </trkpt>
      <trkpt lat="45.83641" lon="4.76767">
        <ele>419.8317</ele>
        <time>2023-09-02T12:34:51.000Z</time>
      </trkpt>
      <trkpt lat="45.83644" lon="4.76772">
        <ele>419.84668</ele>
        <time>2023-09-02T12:34:52.000Z</time>
      </trkpt>
      <trkpt lat="45.83646" lon="4.76776">
        <ele>419.82886</ele>
        <time>2023-09-02T12:34:53.000Z</time>
      </trkpt>
      <trkpt lat="45.83649" lon="4.76781">
        <ele>419.80429</ele>
        <time>2023-09-02T12:34:54.000Z</time>
      </trkpt>
      <trkpt lat="45.83651" lon="4.76786">
        <ele>419.53839</ele>
        <time>2023-09-02T12:34:55.000Z</time>
      </trkpt>
      <trkpt lat="45.83653" lon="4.7679">
        <ele>419.25415</ele>
        <time>2023-09-02T12:34:56.000Z</time>
      </trkpt>
      <trkpt lat="45.83655" lon="4.76795">
        <ele>418.94766</ele>
        <time>2023-09-02T12:34:57.000Z</time>
      </trkpt>
      <trkpt lat="45.83657" lon="4.768">
        <ele>418.70303</ele>
        <time>2023-09-02T12:34:58.000Z</time>
      </trkpt>
      <trkpt lat="45.83659" lon="4.76805">
        <ele>418.33698</ele>
        <time>2023-09-02T12:34:59.000Z</time>
      </trkpt>
      <trkpt lat="45.83661" lon="4.7681">
        <ele>417.97382</ele>
        <time>2023-09-02T12:35:00.000Z</time>
      </trkpt>
      <trkpt lat="45.83663" lon="4.76815">
        <ele>418.04605</ele>
        <time>2023-09-02T12:35:01.000Z</time>
      </trkpt>
      <trkpt lat="45.83665" lon="4.7682">
        <ele>418.02979</ele>
        <time>2023-09-02T12:35:02.000Z</time>
      </trkpt>
      <trkpt lat="45.83667" lon="4.76825">
        <ele>418.06128</ele>
        <time>2023-09-02T12:35:03.000Z</time>
      </trkpt>
      <trkpt lat="45.83669" lon="4.7683">
        <ele>418.17172</ele>
        <time>2023-09-02T12:35:04.000Z</time>
      </trkpt>
      <trkpt lat="45.83671" lon="4.76835">
        <ele>418.29663</ele>
        <time>2023-09-02T12:35:05.000Z</time>
      </trkpt>
      <trkpt lat="45.83673" lon="4.7684">
        <ele>418.45645</ele>
        <time>2023-09-02T12:35:06.000Z</time>
      </trkpt>
      <trkpt lat="45.83675" lon="4.76845">
        <ele>418.65836</ele>
        <time>2023-09-02T12:35:07.000Z</time>
      </trkpt>
      <trkpt lat="45.83677" lon="4.7685">
        <ele>418.88086</ele>
        <time>2023-09-02T12:35:08.000Z</time>
      </trkpt>
      <trkpt lat="45.83679" lon="4.76854">
        <ele>419.12958</ele>
        <time>2023-09-02T12:35:09.000Z</time>
      </trkpt>
      <trkpt lat="45.83682" lon="4.76858">
        <ele>419.36417</ele>
        <time>2023-09-02T12:35:10.000Z</time>
      </trkpt>
      <trkpt lat="45.83684" lon="4.76863">
        <ele>419.35904</ele>
        <time>2023-09-02T12:35:11.000Z</time>
      </trkpt>
      <trkpt lat="45.83685" lon="4.76868">
        <ele>419.31046</ele>
        <time>2023-09-02T12:35:12.000Z</time>
      </trkpt>
      <trkpt lat="45.83687" lon="4.76873">
        <ele>419.28506</ele>
        <time>2023-09-02T12:35:13.000Z</time>
      </trkpt>
      <trkpt lat="45.83689" lon="4.76878">
        <ele>419.24765</ele>
        <time>2023-09-02T12:35:14.000Z</time>
      </trkpt>
      <trkpt lat="45.83691" lon="4.76882">
        <ele>419.42099</ele>
        <time>2023-09-02T12:35:15.000Z</time>
      </trkpt>
      <trkpt lat="45.83694" lon="4.76887">
        <ele>419.44272</ele>
        <time>2023-09-02T12:35:16.000Z</time>
      </trkpt>
      <trkpt lat="45.83695" lon="4.76892">
        <ele>419.9903</ele>
        <time>2023-09-02T12:35:17.000Z</time>
      </trkpt>
      <trkpt lat="45.83697" lon="4.76898">
        <ele>420.45313</ele>
        <time>2023-09-02T12:35:18.000Z</time>
      </trkpt>
      <trkpt lat="45.83699" lon="4.76903">
        <ele>421.05777</ele>
        <time>2023-09-02T12:35:19.000Z</time>
      </trkpt>
      <trkpt lat="45.837" lon="4.76908">
        <ele>421.66757</ele>
        <time>2023-09-02T12:35:20.000Z</time>
      </trkpt>
      <trkpt lat="45.83702" lon="4.76913">
        <ele>421.82794</ele>
        <time>2023-09-02T12:35:21.000Z</time>
      </trkpt>
      <trkpt lat="45.83704" lon="4.76918">
        <ele>422.09018</ele>
        <time>2023-09-02T12:35:22.000Z</time>
      </trkpt>
      <trkpt lat="45.83706" lon="4.76923">
        <ele>422.32904</ele>
        <time>2023-09-02T12:35:23.000Z</time>
      </trkpt>
      <trkpt lat="45.83709" lon="4.76928">
        <ele>422.55048</ele>
        <time>2023-09-02T12:35:24.000Z</time>
      </trkpt>
      <trkpt lat="45.83711" lon="4.76932">
        <ele>422.76587</ele>
        <time>2023-09-02T12:35:25.000Z</time>
      </trkpt>
      <trkpt lat="45.83713" lon="4.76937">
        <ele>422.99527</ele>
        <time>2023-09-02T12:35:26.000Z</time>
      </trkpt>
      <trkpt lat="45.83715" lon="4.76942">
        <ele>423.21606</ele>
        <time>2023-09-02T12:35:27.000Z</time>
      </trkpt>
      <trkpt lat="45.83717" lon="4.76947">
        <ele>423.43442</ele>
        <time>2023-09-02T12:35:28.000Z</time>
      </trkpt>
      <trkpt lat="45.83718" lon="4.76952">
        <ele>423.6441</ele>
        <time>2023-09-02T12:35:29.000Z</time>
      </trkpt>
      <trkpt lat="45.83718" lon="4.76957">
        <ele>423.82071</ele>
        <time>2023-09-02T12:35:30.000Z</time>
      </trkpt>
      <trkpt lat="45.8372" lon="4.76962">
        <ele>424.29126</ele>
        <time>2023-09-02T12:35:31.000Z</time>
      </trkpt>
      <trkpt lat="45.83722" lon="4.76968">
        <ele>424.76276</ele>
        <time>2023-09-02T12:35:32.000Z</time>
      </trkpt>
      <trkpt lat="45.83725" lon="4.76973">
        <ele>425.28778</ele>
        <time>2023-09-02T12:35:33.000Z</time>
      </trkpt>
      <trkpt lat="45.83727" lon="4.76978">
        <ele>425.85483</ele>
        <time>2023-09-02T12:35:34.000Z</time>
      </trkpt>
      <trkpt lat="45.83729" lon="4.76983">
        <ele>426.45663</ele>
        <time>2023-09-02T12:35:35.000Z</time>
      </trkpt>
      <trkpt lat="45.83731" lon="4.76988">
        <ele>427.21997</ele>
        <time>2023-09-02T12:35:36.000Z</time>
      </trkpt>
      <trkpt lat="45.83733" lon="4.76993">
        <ele>427.46152</ele>
        <time>2023-09-02T12:35:37.000Z</time>
      </trkpt>
      <trkpt lat="45.83734" lon="4.76998">
        <ele>427.80951</ele>
        <time>2023-09-02T12:35:38.000Z</time>
      </trkpt>
      <trkpt lat="45.83736" lon="4.77003">
        <ele>428.16464</ele>
        <time>2023-09-02T12:35:39.000Z</time>
      </trkpt>
      <trkpt lat="45.83738" lon="4.77008">
        <ele>428.52368</ele>
        <time>2023-09-02T12:35:40.000Z</time>
      </trkpt>
      <trkpt lat="45.8374" lon="4.77014">
        <ele>428.86093</ele>
        <time>2023-09-02T12:35:41.000Z</time>
      </trkpt>
      <trkpt lat="45.83741" lon="4.77018">
        <ele>429.22812</ele>
        <time>2023-09-02T12:35:42.000Z</time>
      </trkpt>
      <trkpt lat="45.83742" lon="4.77022">
        <ele>429.59579</ele>
        <time>2023-09-02T12:35:43.000Z</time>
      </trkpt>
      <trkpt lat="45.83744" lon="4.77029">
        <ele>429.96835</ele>
        <time>2023-09-02T12:35:44.000Z</time>
      </trkpt>
      <trkpt lat="45.83746" lon="4.77034">
        <ele>430.35687</ele>
        <time>2023-09-02T12:35:45.000Z</time>
      </trkpt>
      <trkpt lat="45.83747" lon="4.77038">
        <ele>430.67853</ele>
        <time>2023-09-02T12:35:46.000Z</time>
      </trkpt>
      <trkpt lat="45.83749" lon="4.77043">
        <ele>431.04379</ele>
        <time>2023-09-02T12:35:47.000Z</time>
      </trkpt>
      <trkpt lat="45.83749" lon="4.77047">
        <ele>431.41913</ele>
        <time>2023-09-02T12:35:48.000Z</time>
      </trkpt>
      <trkpt lat="45.8375" lon="4.77053">
        <ele>431.81088</ele>
        <time>2023-09-02T12:35:49.000Z</time>
      </trkpt>
      <trkpt lat="45.83752" lon="4.77058">
        <ele>432.23251</ele>
        <time>2023-09-02T12:35:50.000Z</time>
      </trkpt>
      <trkpt lat="45.83753" lon="4.77063">
        <ele>432.552</ele>
        <time>2023-09-02T12:35:51.000Z</time>
      </trkpt>
      <trkpt lat="45.83755" lon="4.77069">
        <ele>432.79095</ele>
        <time>2023-09-02T12:35:52.000Z</time>
      </trkpt>
      <trkpt lat="45.83755" lon="4.77076">
        <ele>432.90567</ele>
        <time>2023-09-02T12:35:53.000Z</time>
      </trkpt>
      <trkpt lat="45.83755" lon="4.77081">
        <ele>433.79028</ele>
        <time>2023-09-02T12:35:54.000Z</time>
      </trkpt>
      <trkpt lat="45.83756" lon="4.77085">
        <ele>434.66577</ele>
        <time>2023-09-02T12:35:55.000Z</time>
      </trkpt>
      <trkpt lat="45.83756" lon="4.7709">
        <ele>435.58463</ele>
        <time>2023-09-02T12:35:56.000Z</time>
      </trkpt>
      <trkpt lat="45.83757" lon="4.77095">
        <ele>436.54263</ele>
        <time>2023-09-02T12:35:57.000Z</time>
      </trkpt>
      <trkpt lat="45.83757" lon="4.771">
        <ele>437.4747</ele>
        <time>2023-09-02T12:35:58.000Z</time>
      </trkpt>
      <trkpt lat="45.83758" lon="4.77105">
        <ele>438.42938</ele>
        <time>2023-09-02T12:35:59.000Z</time>
      </trkpt>
      <trkpt lat="45.83758" lon="4.7711">
        <ele>439.60928</ele>
        <time>2023-09-02T12:36:00.000Z</time>
      </trkpt>
      <trkpt lat="45.83759" lon="4.77115">
        <ele>440.81793</ele>
        <time>2023-09-02T12:36:01.000Z</time>
      </trkpt>
      <trkpt lat="45.83759" lon="4.7712">
        <ele>441.99249</ele>
        <time>2023-09-02T12:36:02.000Z</time>
      </trkpt>
      <trkpt lat="45.83758" lon="4.77124">
        <ele>443.15399</ele>
        <time>2023-09-02T12:36:03.000Z</time>
      </trkpt>
      <trkpt lat="45.83758" lon="4.77128">
        <ele>444.285</ele>
        <time>2023-09-02T12:36:04.000Z</time>
      </trkpt>
      <trkpt lat="45.83758" lon="4.77133">
        <ele>445.40366</ele>
        <time>2023-09-02T12:36:05.000Z</time>
      </trkpt>
      <trkpt lat="45.83758" lon="4.77138">
        <ele>446.59293</ele>
        <time>2023-09-02T12:36:06.000Z</time>
      </trkpt>
      <trkpt lat="45.83758" lon="4.77143">
        <ele>447.7475</ele>
        <time>2023-09-02T12:36:07.000Z</time>
      </trkpt>
      <trkpt lat="45.83758" lon="4.77147">
        <ele>448.98419</ele>
        <time>2023-09-02T12:36:08.000Z</time>
      </trkpt>
      <trkpt lat="45.83759" lon="4.77151">
        <ele>450.28915</ele>
        <time>2023-09-02T12:36:09.000Z</time>
      </trkpt>
      <trkpt lat="45.83759" lon="4.77155">
        <ele>451.59222</ele>
        <time>2023-09-02T12:36:10.000Z</time>
      </trkpt>
      <trkpt lat="45.8376" lon="4.77158">
        <ele>452.98593</ele>
        <time>2023-09-02T12:36:11.000Z</time>
      </trkpt>
      <trkpt lat="45.8376" lon="4.77161">
        <ele>454.51431</ele>
        <time>2023-09-02T12:36:12.000Z</time>
      </trkpt>
      <trkpt lat="45.83761" lon="4.77164">
        <ele>456.12607</ele>
        <time>2023-09-02T12:36:13.000Z</time>
      </trkpt>
      <trkpt lat="45.83761" lon="4.77168">
        <ele>456.931</ele>
        <time>2023-09-02T12:36:14.000Z</time>
      </trkpt>
      <trkpt lat="45.83762" lon="4.77171">
        <ele>457.69986</ele>
        <time>2023-09-02T12:36:15.000Z</time>
      </trkpt>
      <trkpt lat="45.83763" lon="4.77175">
        <ele>458.42285</ele>
        <time>2023-09-02T12:36:16.000Z</time>
      </trkpt>
      <trkpt lat="45.83765" lon="4.77178">
        <ele>459.11621</ele>
        <time>2023-09-02T12:36:17.000Z</time>
      </trkpt>
      <trkpt lat="45.83767" lon="4.77181">
        <ele>459.77643</ele>
        <time>2023-09-02T12:36:18.000Z</time>
      </trkpt>
      <trkpt lat="45.83768" lon="4.77185">
        <ele>460.42401</ele>
        <time>2023-09-02T12:36:19.000Z</time>
      </trkpt>
      <trkpt lat="45.83768" lon="4.77189">
        <ele>460.84399</ele>
        <time>2023-09-02T12:36:20.000Z</time>
      </trkpt>
      <trkpt lat="45.83768" lon="4.77193">
        <ele>461.24048</ele>
        <time>2023-09-02T12:36:21.000Z</time>
      </trkpt>
      <trkpt lat="45.83768" lon="4.77197">
        <ele>461.63849</ele>
        <time>2023-09-02T12:36:22.000Z</time>
      </trkpt>
      <trkpt lat="45.83768" lon="4.77201">
        <ele>462.04233</ele>
        <time>2023-09-02T12:36:23.000Z</time>
      </trkpt>
      <trkpt lat="45.83769" lon="4.77205">
        <ele>462.45288</ele>
        <time>2023-09-02T12:36:24.000Z</time>
      </trkpt>
      <trkpt lat="45.83769" lon="4.77209">
        <ele>462.8631</ele>
        <time>2023-09-02T12:36:25.000Z</time>
      </trkpt>
      <trkpt lat="45.8377" lon="4.77213">
        <ele>463.26709</ele>
        <time>2023-09-02T12:36:26.000Z</time>
      </trkpt>
      <trkpt lat="45.83771" lon="4.77217">
        <ele>463.6629</ele>
        <time>2023-09-02T12:36:27.000Z</time>
      </trkpt>
      <trkpt lat="45.83772" lon="4.77221">
        <ele>463.94745</ele>
        <time>2023-09-02T12:36:28.000Z</time>
      </trkpt>
      <trkpt lat="45.83772" lon="4.77225">
        <ele>464.12421</ele>
        <time>2023-09-02T12:36:29.000Z</time>
      </trkpt>
      <trkpt lat="45.83773" lon="4.77229">
        <ele>464.29132</ele>
        <time>2023-09-02T12:36:30.000Z</time>
      </trkpt>
      <trkpt lat="45.83773" lon="4.77233">
        <ele>464.40601</ele>
        <time>2023-09-02T12:36:31.000Z</time>
      </trkpt>
      <trkpt lat="45.83774" lon="4.77237">
        <ele>464.42569</ele>
        <time>2023-09-02T12:36:32.000Z</time>
      </trkpt>
      <trkpt lat="45.83775" lon="4.77241">
        <ele>464.55499</ele>
        <time>2023-09-02T12:36:33.000Z</time>
      </trkpt>
      <trkpt lat="45.83776" lon="4.77244">
        <ele>464.68564</ele>
        <time>2023-09-02T12:36:34.000Z</time>
      </trkpt>
      <trkpt lat="45.83777" lon="4.77247">
        <ele>464.82813</ele>
        <time>2023-09-02T12:36:35.000Z</time>
      </trkpt>
      <trkpt lat="45.83778" lon="4.7725">
        <ele>464.98666</ele>
        <time>2023-09-02T12:36:36.000Z</time>
      </trkpt>
      <trkpt lat="45.8378" lon="4.77253">
        <ele>465.14902</ele>
        <time>2023-09-02T12:36:37.000Z</time>
      </trkpt>
      <trkpt lat="45.83781" lon="4.77257">
        <ele>465.32089</ele>
        <time>2023-09-02T12:36:38.000Z</time>
      </trkpt>
      <trkpt lat="45.83783" lon="4.77261">
        <ele>465.48282</ele>
        <time>2023-09-02T12:36:39.000Z</time>
      </trkpt>
      <trkpt lat="45.83784" lon="4.77265">
        <ele>465.65021</ele>
        <time>2023-09-02T12:36:40.000Z</time>
      </trkpt>
      <trkpt lat="45.83785" lon="4.77268">
        <ele>465.8194</ele>
        <time>2023-09-02T12:36:41.000Z</time>
      </trkpt>
      <trkpt lat="45.83786" lon="4.77272">
        <ele>465.97095</ele>
        <time>2023-09-02T12:36:42.000Z</time>
      </trkpt>
      <trkpt lat="45.83787" lon="4.77275">
        <ele>466.1106</ele>
        <time>2023-09-02T12:36:43.000Z</time>
      </trkpt>
      <trkpt lat="45.83787" lon="4.77278">
        <ele>466.38397</ele>
        <time>2023-09-02T12:36:44.000Z</time>
      </trkpt>
      <trkpt lat="45.83787" lon="4.77282">
        <ele>466.61563</ele>
        <time>2023-09-02T12:36:45.000Z</time>
      </trkpt>
      <trkpt lat="45.83788" lon="4.77286">
        <ele>466.81674</ele>
        <time>2023-09-02T12:36:46.000Z</time>
      </trkpt>
      <trkpt lat="45.83789" lon="4.7729">
        <ele>467.03769</ele>
        <time>2023-09-02T12:36:47.000Z</time>
      </trkpt>
      <trkpt lat="45.8379" lon="4.77292">
        <ele>467.23145</ele>
        <time>2023-09-02T12:36:48.000Z</time>
      </trkpt>
      <trkpt lat="45.83791" lon="4.77296">
        <ele>467.43076</ele>
        <time>2023-09-02T12:36:50.000Z</time>
      </trkpt>
      <trkpt lat="45.83792" lon="4.77299">
        <ele>467.62436</ele>
        <time>2023-09-02T12:36:51.000Z</time>
      </trkpt>
      <trkpt lat="45.83793" lon="4.77301">
        <ele>467.83099</ele>
        <time>2023-09-02T12:36:52.000Z</time>
      </trkpt>
      <trkpt lat="45.83794" lon="4.77304">
        <ele>468.08984</ele>
        <time>2023-09-02T12:36:53.000Z</time>
      </trkpt>
      <trkpt lat="45.83796" lon="4.77308">
        <ele>468.23755</ele>
        <time>2023-09-02T12:36:54.000Z</time>
      </trkpt>
      <trkpt lat="45.83798" lon="4.77311">
        <ele>468.37604</ele>
        <time>2023-09-02T12:36:55.000Z</time>
      </trkpt>
      <trkpt lat="45.838" lon="4.77313">
        <ele>468.51947</ele>
        <time>2023-09-02T12:36:56.000Z</time>
      </trkpt>
      <trkpt lat="45.83802" lon="4.77316">
        <ele>468.66446</ele>
        <time>2023-09-02T12:36:57.000Z</time>
      </trkpt>
      <trkpt lat="45.83804" lon="4.77319">
        <ele>468.79242</ele>
        <time>2023-09-02T12:36:58.000Z</time>
      </trkpt>
      <trkpt lat="45.83806" lon="4.77321">
        <ele>468.93481</ele>
        <time>2023-09-02T12:36:59.000Z</time>
      </trkpt>
      <trkpt lat="45.83808" lon="4.77323">
        <ele>469.09247</ele>
        <time>2023-09-02T12:37:00.000Z</time>
      </trkpt>
      <trkpt lat="45.83809" lon="4.77326">
        <ele>469.20282</ele>
        <time>2023-09-02T12:37:01.000Z</time>
      </trkpt>
      <trkpt lat="45.83809" lon="4.7733">
        <ele>469.27228</ele>
        <time>2023-09-02T12:37:02.000Z</time>
      </trkpt>
      <trkpt lat="45.83808" lon="4.77334">
        <ele>469.3537</ele>
        <time>2023-09-02T12:37:03.000Z</time>
      </trkpt>
      <trkpt lat="45.83807" lon="4.77338">
        <ele>469.46014</ele>
        <time>2023-09-02T12:37:04.000Z</time>
      </trkpt>
      <trkpt lat="45.83806" lon="4.77342">
        <ele>469.35205</ele>
        <time>2023-09-02T12:37:05.000Z</time>
      </trkpt>
      <trkpt lat="45.83806" lon="4.77346">
        <ele>469.29672</ele>
        <time>2023-09-02T12:37:06.000Z</time>
      </trkpt>
      <trkpt lat="45.83806" lon="4.7735">
        <ele>469.28937</ele>
        <time>2023-09-02T12:37:07.000Z</time>
      </trkpt>
      <trkpt lat="45.83805" lon="4.77354">
        <ele>469.25397</ele>
        <time>2023-09-02T12:37:08.000Z</time>
      </trkpt>
      <trkpt lat="45.83803" lon="4.77358">
        <ele>469.26141</ele>
        <time>2023-09-02T12:37:09.000Z</time>
      </trkpt>
      <trkpt lat="45.838" lon="4.77362">
        <ele>469.30487</ele>
        <time>2023-09-02T12:37:10.000Z</time>
      </trkpt>
      <trkpt lat="45.83797" lon="4.77366">
        <ele>469.35172</ele>
        <time>2023-09-02T12:37:11.000Z</time>
      </trkpt>
      <trkpt lat="45.83793" lon="4.77371">
        <ele>469.38174</ele>
        <time>2023-09-02T12:37:12.000Z</time>
      </trkpt>
      <trkpt lat="45.8379" lon="4.77375">
        <ele>469.39389</ele>
        <time>2023-09-02T12:37:13.000Z</time>
      </trkpt>
      <trkpt lat="45.83788" lon="4.7738">
        <ele>469.38892</ele>
        <time>2023-09-02T12:37:14.000Z</time>
      </trkpt>
      <trkpt lat="45.83785" lon="4.77384">
        <ele>467.03778</ele>
        <time>2023-09-02T12:37:15.000Z</time>
      </trkpt>
      <trkpt lat="45.83782" lon="4.77388">
        <ele>466.89899</ele>
        <time>2023-09-02T12:37:16.000Z</time>
      </trkpt>
      <trkpt lat="45.8378" lon="4.77391">
        <ele>466.73007</ele>
        <time>2023-09-02T12:37:17.000Z</time>
      </trkpt>
      <trkpt lat="45.83777" lon="4.77395">
        <ele>466.55649</ele>
        <time>2023-09-02T12:37:18.000Z</time>
      </trkpt>
      <trkpt lat="45.83775" lon="4.77398">
        <ele>466.37247</ele>
        <time>2023-09-02T12:37:19.000Z</time>
      </trkpt>
      <trkpt lat="45.83773" lon="4.77402">
        <ele>466.56537</ele>
        <time>2023-09-02T12:37:20.000Z</time>
      </trkpt>
      <trkpt lat="45.83771" lon="4.77405">
        <ele>466.74139</ele>
        <time>2023-09-02T12:37:21.000Z</time>
      </trkpt>
      <trkpt lat="45.83768" lon="4.77409">
        <ele>466.95395</ele>
        <time>2023-09-02T12:37:22.000Z</time>
      </trkpt>
      <trkpt lat="45.83766" lon="4.77413">
        <ele>467.34259</ele>
        <time>2023-09-02T12:37:23.000Z</time>
      </trkpt>
      <trkpt lat="45.83764" lon="4.77416">
        <ele>467.70703</ele>
        <time>2023-09-02T12:37:24.000Z</time>
      </trkpt>
      <trkpt lat="45.83762" lon="4.7742">
        <ele>468.15762</ele>
        <time>2023-09-02T12:37:25.000Z</time>
      </trkpt>
      <trkpt lat="45.8376" lon="4.77424">
        <ele>468.60132</ele>
        <time>2023-09-02T12:37:26.000Z</time>
      </trkpt>
      <trkpt lat="45.83758" lon="4.77428">
        <ele>469.02411</ele>
        <time>2023-09-02T12:37:27.000Z</time>
      </trkpt>
      <trkpt lat="45.83756" lon="4.77432">
        <ele>469.45279</ele>
        <time>2023-09-02T12:37:28.000Z</time>
      </trkpt>
      <trkpt lat="45.83754" lon="4.77436">
        <ele>469.86734</ele>
        <time>2023-09-02T12:37:29.000Z</time>
      </trkpt>
      <trkpt lat="45.83753" lon="4.7744">
        <ele>470.2818</ele>
        <time>2023-09-02T12:37:30.000Z</time>
      </trkpt>
      <trkpt lat="45.83752" lon="4.77444">
        <ele>470.6041</ele>
        <time>2023-09-02T12:37:31.000Z</time>
      </trkpt>
      <trkpt lat="45.83751" lon="4.77449">
        <ele>470.90802</ele>
        <time>2023-09-02T12:37:32.000Z</time>
      </trkpt>
      <trkpt lat="45.83751" lon="4.77453">
        <ele>471.23184</ele>
        <time>2023-09-02T12:37:33.000Z</time>
      </trkpt>
      <trkpt lat="45.83751" lon="4.77458">
        <ele>471.5585</ele>
        <time>2023-09-02T12:37:34.000Z</time>
      </trkpt>
      <trkpt lat="45.83751" lon="4.77462">
        <ele>474.22662</ele>
        <time>2023-09-02T12:37:35.000Z</time>
      </trkpt>
      <trkpt lat="45.83751" lon="4.77466">
        <ele>474.61328</ele>
        <time>2023-09-02T12:37:36.000Z</time>
      </trkpt>
      <trkpt lat="45.83751" lon="4.7747">
        <ele>475.01685</ele>
        <time>2023-09-02T12:37:37.000Z</time>
      </trkpt>
      <trkpt lat="45.83752" lon="4.77474">
        <ele>475.62411</ele>
        <time>2023-09-02T12:37:38.000Z</time>
      </trkpt>
      <trkpt lat="45.83753" lon="4.77478">
        <ele>476.20709</ele>
        <time>2023-09-02T12:37:39.000Z</time>
      </trkpt>
      <trkpt lat="45.83754" lon="4.77482">
        <ele>476.39484</ele>
        <time>2023-09-02T12:37:40.000Z</time>
      </trkpt>
      <trkpt lat="45.83756" lon="4.77486">
        <ele>476.62958</ele>
        <time>2023-09-02T12:37:41.000Z</time>
      </trkpt>
      <trkpt lat="45.83758" lon="4.77489">
        <ele>476.84601</ele>
        <time>2023-09-02T12:37:42.000Z</time>
      </trkpt>
      <trkpt lat="45.83761" lon="4.77492">
        <ele>476.87271</ele>
        <time>2023-09-02T12:37:43.000Z</time>
      </trkpt>
      <trkpt lat="45.83763" lon="4.77495">
        <ele>476.92065</ele>
        <time>2023-09-02T12:37:44.000Z</time>
      </trkpt>
      <trkpt lat="45.83766" lon="4.77498">
        <ele>476.90723</ele>
        <time>2023-09-02T12:37:45.000Z</time>
      </trkpt>
      <trkpt lat="45.83768" lon="4.77501">
        <ele>476.88409</ele>
        <time>2023-09-02T12:37:46.000Z</time>
      </trkpt>
      <trkpt lat="45.83771" lon="4.77504">
        <ele>476.85101</ele>
        <time>2023-09-02T12:37:47.000Z</time>
      </trkpt>
      <trkpt lat="45.83773" lon="4.77508">
        <ele>476.82617</ele>
        <time>2023-09-02T12:37:48.000Z</time>
      </trkpt>
      <trkpt lat="45.83773" lon="4.77512">
        <ele>476.78448</ele>
        <time>2023-09-02T12:37:49.000Z</time>
      </trkpt>
      <trkpt lat="45.83774" lon="4.77516">
        <ele>476.67416</ele>
        <time>2023-09-02T12:37:50.000Z</time>
      </trkpt>
      <trkpt lat="45.83773" lon="4.77521">
        <ele>476.65405</ele>
        <time>2023-09-02T12:37:51.000Z</time>
      </trkpt>
      <trkpt lat="45.83773" lon="4.77525">
        <ele>476.65802</ele>
        <time>2023-09-02T12:37:52.000Z</time>
      </trkpt>
      <trkpt lat="45.83774" lon="4.77528">
        <ele>476.84576</ele>
        <time>2023-09-02T12:37:53.000Z</time>
      </trkpt>
      <trkpt lat="45.83774" lon="4.77532">
        <ele>477.00967</ele>
        <time>2023-09-02T12:37:54.000Z</time>
      </trkpt>
      <trkpt lat="45.83774" lon="4.77536">
        <ele>477.19278</ele>
        <time>2023-09-02T12:37:55.000Z</time>
      </trkpt>
      <trkpt lat="45.83775" lon="4.7754">
        <ele>477.42197</ele>
        <time>2023-09-02T12:37:56.000Z</time>
      </trkpt>
      <trkpt lat="45.83775" lon="4.77543">
        <ele>477.65521</ele>
        <time>2023-09-02T12:37:57.000Z</time>
      </trkpt>
      <trkpt lat="45.83776" lon="4.77547">
        <ele>477.68634</ele>
        <time>2023-09-02T12:37:58.000Z</time>
      </trkpt>
      <trkpt lat="45.83777" lon="4.77551">
        <ele>477.6539</ele>
        <time>2023-09-02T12:37:59.000Z</time>
      </trkpt>
      <trkpt lat="45.83777" lon="4.77554">
        <ele>477.61972</ele>
        <time>2023-09-02T12:38:00.000Z</time>
      </trkpt>
      <trkpt lat="45.83778" lon="4.77558">
        <ele>477.59174</ele>
        <time>2023-09-02T12:38:01.000Z</time>
      </trkpt>
      <trkpt lat="45.83778" lon="4.77563">
        <ele>477.60483</ele>
        <time>2023-09-02T12:38:02.000Z</time>
      </trkpt>
      <trkpt lat="45.83779" lon="4.77567">
        <ele>477.64862</ele>
        <time>2023-09-02T12:38:03.000Z</time>
      </trkpt>
      <trkpt lat="45.8378" lon="4.77571">
        <ele>477.61533</ele>
        <time>2023-09-02T12:38:04.000Z</time>
      </trkpt>
      <trkpt lat="45.8378" lon="4.77574">
        <ele>477.64728</ele>
        <time>2023-09-02T12:38:05.000Z</time>
      </trkpt>
      <trkpt lat="45.8378" lon="4.77578">
        <ele>477.93164</ele>
        <time>2023-09-02T12:38:06.000Z</time>
      </trkpt>
      <trkpt lat="45.8378" lon="4.77582">
        <ele>478.17554</ele>
        <time>2023-09-02T12:38:07.000Z</time>
      </trkpt>
      <trkpt lat="45.83781" lon="4.77586">
        <ele>478.38965</ele>
        <time>2023-09-02T12:38:08.000Z</time>
      </trkpt>
      <trkpt lat="45.83782" lon="4.7759">
        <ele>478.64072</ele>
        <time>2023-09-02T12:38:09.000Z</time>
      </trkpt>
      <trkpt lat="45.83783" lon="4.77594">
        <ele>478.96857</ele>
        <time>2023-09-02T12:38:10.000Z</time>
      </trkpt>
      <trkpt lat="45.83784" lon="4.77598">
        <ele>479.31161</ele>
        <time>2023-09-02T12:38:11.000Z</time>
      </trkpt>
      <trkpt lat="45.83785" lon="4.77603">
        <ele>479.66351</ele>
        <time>2023-09-02T12:38:12.000Z</time>
      </trkpt>
      <trkpt lat="45.83786" lon="4.77607">
        <ele>479.82257</ele>
        <time>2023-09-02T12:38:13.000Z</time>
      </trkpt>
      <trkpt lat="45.83787" lon="4.77612">
        <ele>479.99756</ele>
        <time>2023-09-02T12:38:14.000Z</time>
      </trkpt>
      <trkpt lat="45.83788" lon="4.77616">
        <ele>480.10107</ele>
        <time>2023-09-02T12:38:15.000Z</time>
      </trkpt>
      <trkpt lat="45.83789" lon="4.7762">
        <ele>480.22876</ele>
        <time>2023-09-02T12:38:16.000Z</time>
      </trkpt>
      <trkpt lat="45.8379" lon="4.77623">
        <ele>480.34186</ele>
        <time>2023-09-02T12:38:17.000Z</time>
      </trkpt>
      <trkpt lat="45.8379" lon="4.77627">
        <ele>480.45654</ele>
        <time>2023-09-02T12:38:18.000Z</time>
      </trkpt>
      <trkpt lat="45.83791" lon="4.77631">
        <ele>480.66406</ele>
        <time>2023-09-02T12:38:19.000Z</time>
      </trkpt>
      <trkpt lat="45.83792" lon="4.77636">
        <ele>480.87799</ele>
        <time>2023-09-02T12:38:20.000Z</time>
      </trkpt>
      <trkpt lat="45.83793" lon="4.7764">
        <ele>481.10849</ele>
        <time>2023-09-02T12:38:21.000Z</time>
      </trkpt>
      <trkpt lat="45.83794" lon="4.77644">
        <ele>481.37729</ele>
        <time>2023-09-02T12:38:22.000Z</time>
      </trkpt>
      <trkpt lat="45.83796" lon="4.77648">
        <ele>481.64252</ele>
        <time>2023-09-02T12:38:23.000Z</time>
      </trkpt>
      <trkpt lat="45.83797" lon="4.77653">
        <ele>481.98224</ele>
        <time>2023-09-02T12:38:24.000Z</time>
      </trkpt>
      <trkpt lat="45.83798" lon="4.77657">
        <ele>482.32318</ele>
        <time>2023-09-02T12:38:25.000Z</time>
      </trkpt>
      <trkpt lat="45.83799" lon="4.77662">
        <ele>482.39014</ele>
        <time>2023-09-02T12:38:26.000Z</time>
      </trkpt>
      <trkpt lat="45.838" lon="4.77666">
        <ele>482.39874</ele>
        <time>2023-09-02T12:38:27.000Z</time>
      </trkpt>
      <trkpt lat="45.83801" lon="4.7767">
        <ele>482.40112</ele>
        <time>2023-09-02T12:38:28.000Z</time>
      </trkpt>
      <trkpt lat="45.83802" lon="4.77675">
        <ele>482.31143</ele>
        <time>2023-09-02T12:38:29.000Z</time>
      </trkpt>
      <trkpt lat="45.83804" lon="4.77679">
        <ele>482.20224</ele>
        <time>2023-09-02T12:38:30.000Z</time>
      </trkpt>
      <trkpt lat="45.83805" lon="4.77683">
        <ele>482.33832</ele>
        <time>2023-09-02T12:38:31.000Z</time>
      </trkpt>
      <trkpt lat="45.83806" lon="4.77688">
        <ele>482.41293</ele>
        <time>2023-09-02T12:38:32.000Z</time>
      </trkpt>
      <trkpt lat="45.83807" lon="4.77692">
        <ele>482.47968</ele>
        <time>2023-09-02T12:38:33.000Z</time>
      </trkpt>
      <trkpt lat="45.83808" lon="4.77697">
        <ele>482.58945</ele>
        <time>2023-09-02T12:38:34.000Z</time>
      </trkpt>
      <trkpt lat="45.83809" lon="4.77702">
        <ele>482.76068</ele>
        <time>2023-09-02T12:38:35.000Z</time>
      </trkpt>
      <trkpt lat="45.83811" lon="4.77707">
        <ele>482.94745</ele>
        <time>2023-09-02T12:38:36.000Z</time>
      </trkpt>
      <trkpt lat="45.83812" lon="4.77711">
        <ele>483.16333</ele>
        <time>2023-09-02T12:38:37.000Z</time>
      </trkpt>
      <trkpt lat="45.83813" lon="4.77715">
        <ele>483.37933</ele>
        <time>2023-09-02T12:38:38.000Z</time>
      </trkpt>
      <trkpt lat="45.83814" lon="4.77719">
        <ele>483.61328</ele>
        <time>2023-09-02T12:38:39.000Z</time>
      </trkpt>
      <trkpt lat="45.83815" lon="4.77724">
        <ele>483.84906</ele>
        <time>2023-09-02T12:38:40.000Z</time>
      </trkpt>
      <trkpt lat="45.83815" lon="4.77728">
        <ele>484.0379</ele>
        <time>2023-09-02T12:38:41.000Z</time>
      </trkpt>
      <trkpt lat="45.83817" lon="4.77732">
        <ele>484.19009</ele>
        <time>2023-09-02T12:38:42.000Z</time>
      </trkpt>
      <trkpt lat="45.83818" lon="4.77737">
        <ele>484.33563</ele>
        <time>2023-09-02T12:38:43.000Z</time>
      </trkpt>
      <trkpt lat="45.8382" lon="4.77742">
        <ele>484.48993</ele>
        <time>2023-09-02T12:38:44.000Z</time>
      </trkpt>
      <trkpt lat="45.83821" lon="4.77746">
        <ele>484.65805</ele>
        <time>2023-09-02T12:38:45.000Z</time>
      </trkpt>
      <trkpt lat="45.83823" lon="4.7775">
        <ele>484.87762</ele>
        <time>2023-09-02T12:38:46.000Z</time>
      </trkpt>
      <trkpt lat="45.83825" lon="4.77755">
        <ele>485.19687</ele>
        <time>2023-09-02T12:38:47.000Z</time>
      </trkpt>
      <trkpt lat="45.83826" lon="4.77759">
        <ele>485.54779</ele>
        <time>2023-09-02T12:38:48.000Z</time>
      </trkpt>
      <trkpt lat="45.83829" lon="4.77763">
        <ele>485.98871</ele>
        <time>2023-09-02T12:38:49.000Z</time>
      </trkpt>
      <trkpt lat="45.83831" lon="4.77767">
        <ele>486.45248</ele>
        <time>2023-09-02T12:38:50.000Z</time>
      </trkpt>
      <trkpt lat="45.83833" lon="4.77771">
        <ele>486.66504</ele>
        <time>2023-09-02T12:38:51.000Z</time>
      </trkpt>
      <trkpt lat="45.83835" lon="4.77774">
        <ele>486.89169</ele>
        <time>2023-09-02T12:38:52.000Z</time>
      </trkpt>
      <trkpt lat="45.83838" lon="4.77777">
        <ele>486.97061</ele>
        <time>2023-09-02T12:38:53.000Z</time>
      </trkpt>
      <trkpt lat="45.83841" lon="4.7778">
        <ele>486.85028</ele>
        <time>2023-09-02T12:38:54.000Z</time>
      </trkpt>
      <trkpt lat="45.83843" lon="4.77784">
        <ele>487.0152</ele>
        <time>2023-09-02T12:38:55.000Z</time>
      </trkpt>
      <trkpt lat="45.83846" lon="4.77787">
        <ele>487.10025</ele>
        <time>2023-09-02T12:38:56.000Z</time>
      </trkpt>
      <trkpt lat="45.83848" lon="4.7779">
        <ele>487.5166</ele>
        <time>2023-09-02T12:38:57.000Z</time>
      </trkpt>
      <trkpt lat="45.8385" lon="4.77792">
        <ele>487.90399</ele>
        <time>2023-09-02T12:38:58.000Z</time>
      </trkpt>
      <trkpt lat="45.83853" lon="4.77795">
        <ele>488.32309</ele>
        <time>2023-09-02T12:38:59.000Z</time>
      </trkpt>
      <trkpt lat="45.83856" lon="4.77796">
        <ele>488.71783</ele>
        <time>2023-09-02T12:39:00.000Z</time>
      </trkpt>
      <trkpt lat="45.83859" lon="4.77798">
        <ele>489.13574</ele>
        <time>2023-09-02T12:39:01.000Z</time>
      </trkpt>
      <trkpt lat="45.83863" lon="4.778">
        <ele>489.55127</ele>
        <time>2023-09-02T12:39:02.000Z</time>
      </trkpt>
      <trkpt lat="45.83867" lon="4.77801">
        <ele>489.965</ele>
        <time>2023-09-02T12:39:03.000Z</time>
      </trkpt>
      <trkpt lat="45.83871" lon="4.77801">
        <ele>490.2561</ele>
        <time>2023-09-02T12:39:04.000Z</time>
      </trkpt>
      <trkpt lat="45.83875" lon="4.77802">
        <ele>490.87189</ele>
        <time>2023-09-02T12:39:05.000Z</time>
      </trkpt>
      <trkpt lat="45.83879" lon="4.77802">
        <ele>491.43768</ele>
        <time>2023-09-02T12:39:06.000Z</time>
      </trkpt>
      <trkpt lat="45.83883" lon="4.77802">
        <ele>491.98468</ele>
        <time>2023-09-02T12:39:07.000Z</time>
      </trkpt>
      <trkpt lat="45.83886" lon="4.77802">
        <ele>492.51718</ele>
        <time>2023-09-02T12:39:08.000Z</time>
      </trkpt>
      <trkpt lat="45.8389" lon="4.77801">
        <ele>493.03864</ele>
        <time>2023-09-02T12:39:09.000Z</time>
      </trkpt>
      <trkpt lat="45.83894" lon="4.77801">
        <ele>493.52325</ele>
        <time>2023-09-02T12:39:10.000Z</time>
      </trkpt>
      <trkpt lat="45.83898" lon="4.778">
        <ele>494.01309</ele>
        <time>2023-09-02T12:39:11.000Z</time>
      </trkpt>
      <trkpt lat="45.83901" lon="4.778">
        <ele>494.58325</ele>
        <time>2023-09-02T12:39:12.000Z</time>
      </trkpt>
      <trkpt lat="45.83905" lon="4.778">
        <ele>495.34122</ele>
        <time>2023-09-02T12:39:13.000Z</time>
      </trkpt>
      <trkpt lat="45.83908" lon="4.778">
        <ele>496.30005</ele>
        <time>2023-09-02T12:39:14.000Z</time>
      </trkpt>
      <trkpt lat="45.83912" lon="4.778">
        <ele>497.0257</ele>
        <time>2023-09-02T12:39:15.000Z</time>
      </trkpt>
      <trkpt lat="45.83915" lon="4.77801">
        <ele>497.7868</ele>
        <time>2023-09-02T12:39:16.000Z</time>
      </trkpt>
      <trkpt lat="45.83918" lon="4.77801">
        <ele>498.25488</ele>
        <time>2023-09-02T12:39:17.000Z</time>
      </trkpt>
      <trkpt lat="45.83921" lon="4.77801">
        <ele>498.4747</ele>
        <time>2023-09-02T12:39:18.000Z</time>
      </trkpt>
      <trkpt lat="45.83923" lon="4.77801">
        <ele>498.65952</ele>
        <time>2023-09-02T12:39:19.000Z</time>
      </trkpt>
      <trkpt lat="45.83927" lon="4.77801">
        <ele>498.86798</ele>
        <time>2023-09-02T12:39:20.000Z</time>
      </trkpt>
      <trkpt lat="45.83931" lon="4.77801">
        <ele>499.08676</ele>
        <time>2023-09-02T12:39:21.000Z</time>
      </trkpt>
      <trkpt lat="45.83935" lon="4.77801">
        <ele>499.30191</ele>
        <time>2023-09-02T12:39:22.000Z</time>
      </trkpt>
      <trkpt lat="45.83938" lon="4.77801">
        <ele>497.89569</ele>
        <time>2023-09-02T12:39:23.000Z</time>
      </trkpt>
      <trkpt lat="45.83942" lon="4.77801">
        <ele>498.1525</ele>
        <time>2023-09-02T12:39:24.000Z</time>
      </trkpt>
      <trkpt lat="45.83945" lon="4.778">
        <ele>498.08643</ele>
        <time>2023-09-02T12:39:25.000Z</time>
      </trkpt>
      <trkpt lat="45.83948" lon="4.77799">
        <ele>496.53448</ele>
        <time>2023-09-02T12:39:26.000Z</time>
      </trkpt>
      <trkpt lat="45.8395" lon="4.77796">
        <ele>495.02646</ele>
        <time>2023-09-02T12:39:27.000Z</time>
      </trkpt>
      <trkpt lat="45.83951" lon="4.77792">
        <ele>493.54092</ele>
        <time>2023-09-02T12:39:28.000Z</time>
      </trkpt>
      <trkpt lat="45.8395" lon="4.77787">
        <ele>492.04437</ele>
        <time>2023-09-02T12:39:29.000Z</time>
      </trkpt>
      <trkpt lat="45.83948" lon="4.77783">
        <ele>490.58563</ele>
        <time>2023-09-02T12:39:30.000Z</time>
      </trkpt>
      <trkpt lat="45.83944" lon="4.77781">
        <ele>489.10962</ele>
        <time>2023-09-02T12:39:31.000Z</time>
      </trkpt>
      <trkpt lat="45.83941" lon="4.77781">
        <ele>487.58627</ele>
        <time>2023-09-02T12:39:32.000Z</time>
      </trkpt>
      <trkpt lat="45.83938" lon="4.77781">
        <ele>486.04037</ele>
        <time>2023-09-02T12:39:33.000Z</time>
      </trkpt>
      <trkpt lat="45.83935" lon="4.7778">
        <ele>484.48541</ele>
        <time>2023-09-02T12:39:34.000Z</time>
      </trkpt>
      <trkpt lat="45.83933" lon="4.77779">
        <ele>482.88599</ele>
        <time>2023-09-02T12:39:35.000Z</time>
      </trkpt>
      <trkpt lat="45.8393" lon="4.77778">
        <ele>481.32919</ele>
        <time>2023-09-02T12:39:36.000Z</time>
      </trkpt>
      <trkpt lat="45.83927" lon="4.77777">
        <ele>479.68637</ele>
        <time>2023-09-02T12:39:37.000Z</time>
      </trkpt>
      <trkpt lat="45.83925" lon="4.77775">
        <ele>478.32788</ele>
        <time>2023-09-02T12:39:38.000Z</time>
      </trkpt>
      <trkpt lat="45.83923" lon="4.77774">
        <ele>477.32056</ele>
        <time>2023-09-02T12:39:39.000Z</time>
      </trkpt>
      <trkpt lat="45.83921" lon="4.77772">
        <ele>477.4693</ele>
        <time>2023-09-02T12:39:40.000Z</time>
      </trkpt>
      <trkpt lat="45.83918" lon="4.7777">
        <ele>477.61264</ele>
        <time>2023-09-02T12:39:41.000Z</time>
      </trkpt>
      <trkpt lat="45.83915" lon="4.77768">
        <ele>477.76532</ele>
        <time>2023-09-02T12:39:42.000Z</time>
      </trkpt>
      <trkpt lat="45.83913" lon="4.77768">
        <ele>479.58408</ele>
        <time>2023-09-02T12:39:43.000Z</time>
      </trkpt>
      <trkpt lat="45.8391" lon="4.77767">
        <ele>479.85382</ele>
        <time>2023-09-02T12:39:44.000Z</time>
      </trkpt>
      <trkpt lat="45.83906" lon="4.77766">
        <ele>480.11963</ele>
        <time>2023-09-02T12:39:45.000Z</time>
      </trkpt>
      <trkpt lat="45.83903" lon="4.77765">
        <ele>481.88202</ele>
        <time>2023-09-02T12:39:46.000Z</time>
      </trkpt>
      <trkpt lat="45.839" lon="4.77764">
        <ele>483.6347</ele>
        <time>2023-09-02T12:39:47.000Z</time>
      </trkpt>
      <trkpt lat="45.83897" lon="4.77763">
        <ele>485.37579</ele>
        <time>2023-09-02T12:39:48.000Z</time>
      </trkpt>
      <trkpt lat="45.83895" lon="4.77762">
        <ele>487.16498</ele>
        <time>2023-09-02T12:39:49.000Z</time>
      </trkpt>
      <trkpt lat="45.83894" lon="4.77759">
        <ele>488.9252</ele>
        <time>2023-09-02T12:39:50.000Z</time>
      </trkpt>
      <trkpt lat="45.83895" lon="4.77756">
        <ele>490.6666</ele>
        <time>2023-09-02T12:39:51.000Z</time>
      </trkpt>
      <trkpt lat="45.83899" lon="4.77754">
        <ele>490.53467</ele>
        <time>2023-09-02T12:39:52.000Z</time>
      </trkpt>
      <trkpt lat="45.83901" lon="4.77754">
        <ele>490.39078</ele>
        <time>2023-09-02T12:39:53.000Z</time>
      </trkpt>
      <trkpt lat="45.83903" lon="4.77755">
        <ele>492.71625</ele>
        <time>2023-09-02T12:39:54.000Z</time>
      </trkpt>
      <trkpt lat="45.83906" lon="4.77757">
        <ele>495.01447</ele>
        <time>2023-09-02T12:39:55.000Z</time>
      </trkpt>
      <trkpt lat="45.83908" lon="4.77759">
        <ele>497.32446</ele>
        <time>2023-09-02T12:39:56.000Z</time>
      </trkpt>
      <trkpt lat="45.83911" lon="4.77761">
        <ele>499.65854</ele>
        <time>2023-09-02T12:39:57.000Z</time>
      </trkpt>
      <trkpt lat="45.83914" lon="4.77762">
        <ele>501.94977</ele>
        <time>2023-09-02T12:39:58.000Z</time>
      </trkpt>
      <trkpt lat="45.83917" lon="4.77763">
        <ele>503.892</ele>
        <time>2023-09-02T12:40:00.000Z</time>
      </trkpt>
      <trkpt lat="45.8392" lon="4.77765">
        <ele>504.62299</ele>
        <time>2023-09-02T12:40:01.000Z</time>
      </trkpt>
      <trkpt lat="45.83923" lon="4.77767">
        <ele>505.31387</ele>
        <time>2023-09-02T12:40:02.000Z</time>
      </trkpt>
      <trkpt lat="45.83926" lon="4.77768">
        <ele>505.98331</ele>
        <time>2023-09-02T12:40:03.000Z</time>
      </trkpt>
      <trkpt lat="45.83929" lon="4.7777">
        <ele>506.56476</ele>
        <time>2023-09-02T12:40:04.000Z</time>
      </trkpt>
      <trkpt lat="45.83933" lon="4.77771">
        <ele>507.17349</ele>
        <time>2023-09-02T12:40:05.000Z</time>
      </trkpt>
      <trkpt lat="45.83937" lon="4.77773">
        <ele>507.77997</ele>
        <time>2023-09-02T12:40:06.000Z</time>
      </trkpt>
      <trkpt lat="45.83939" lon="4.77774">
        <ele>508.38007</ele>
        <time>2023-09-02T12:40:07.000Z</time>
      </trkpt>
      <trkpt lat="45.83942" lon="4.77775">
        <ele>508.9332</ele>
        <time>2023-09-02T12:40:08.000Z</time>
      </trkpt>
      <trkpt lat="45.83945" lon="4.77775">
        <ele>509.5047</ele>
        <time>2023-09-02T12:40:09.000Z</time>
      </trkpt>
      <trkpt lat="45.83948" lon="4.77776">
        <ele>510.0524</ele>
        <time>2023-09-02T12:40:10.000Z</time>
      </trkpt>
      <trkpt lat="45.83951" lon="4.77777">
        <ele>510.61334</ele>
        <time>2023-09-02T12:40:11.000Z</time>
      </trkpt>
      <trkpt lat="45.83954" lon="4.77778">
        <ele>511.22992</ele>
        <time>2023-09-02T12:40:12.000Z</time>
      </trkpt>
      <trkpt lat="45.83957" lon="4.77779">
        <ele>513.71179</ele>
        <time>2023-09-02T12:40:13.000Z</time>
      </trkpt>
      <trkpt lat="45.8396" lon="4.7778">
        <ele>516.24817</ele>
        <time>2023-09-02T12:40:14.000Z</time>
      </trkpt>
      <trkpt lat="45.83963" lon="4.77781">
        <ele>516.30878</ele>
        <time>2023-09-02T12:40:15.000Z</time>
      </trkpt>
      <trkpt lat="45.83965" lon="4.77781">
        <ele>516.2843</ele>
        <time>2023-09-02T12:40:16.000Z</time>
      </trkpt>
      <trkpt lat="45.83968" lon="4.77782">
        <ele>516.21692</ele>
        <time>2023-09-02T12:40:17.000Z</time>
      </trkpt>
      <trkpt lat="45.83972" lon="4.77782">
        <ele>516.1413</ele>
        <time>2023-09-02T12:40:18.000Z</time>
      </trkpt>
      <trkpt lat="45.83974" lon="4.77783">
        <ele>516.10291</ele>
        <time>2023-09-02T12:40:19.000Z</time>
      </trkpt>
      <trkpt lat="45.83977" lon="4.77783">
        <ele>516.04938</ele>
        <time>2023-09-02T12:40:20.000Z</time>
      </trkpt>
      <trkpt lat="45.83979" lon="4.77784">
        <ele>513.99695</ele>
        <time>2023-09-02T12:40:21.000Z</time>
      </trkpt>
      <trkpt lat="45.83982" lon="4.77784">
        <ele>513.91919</ele>
        <time>2023-09-02T12:40:22.000Z</time>
      </trkpt>
      <trkpt lat="45.83985" lon="4.77785">
        <ele>513.83868</ele>
        <time>2023-09-02T12:40:23.000Z</time>
      </trkpt>
      <trkpt lat="45.83988" lon="4.77785">
        <ele>513.79016</ele>
        <time>2023-09-02T12:40:24.000Z</time>
      </trkpt>
      <trkpt lat="45.83991" lon="4.77786">
        <ele>513.70642</ele>
        <time>2023-09-02T12:40:25.000Z</time>
      </trkpt>
      <trkpt lat="45.83993" lon="4.77786">
        <ele>513.61176</ele>
        <time>2023-09-02T12:40:26.000Z</time>
      </trkpt>
      <trkpt lat="45.83996" lon="4.77786">
        <ele>511.0397</ele>
        <time>2023-09-02T12:40:27.000Z</time>
      </trkpt>
      <trkpt lat="45.83998" lon="4.77786">
        <ele>510.84857</ele>
        <time>2023-09-02T12:40:28.000Z</time>
      </trkpt>
      <trkpt lat="45.84001" lon="4.77786">
        <ele>510.61774</ele>
        <time>2023-09-02T12:40:29.000Z</time>
      </trkpt>
      <trkpt lat="45.84003" lon="4.77786">
        <ele>510.35651</ele>
        <time>2023-09-02T12:40:30.000Z</time>
      </trkpt>
      <trkpt lat="45.84006" lon="4.77786">
        <ele>510.07764</ele>
        <time>2023-09-02T12:40:31.000Z</time>
      </trkpt>
      <trkpt lat="45.84008" lon="4.77786">
        <ele>509.75058</ele>
        <time>2023-09-02T12:40:32.000Z</time>
      </trkpt>
      <trkpt lat="45.8401" lon="4.77787">
        <ele>505.34296</ele>
        <time>2023-09-02T12:40:33.000Z</time>
      </trkpt>
      <trkpt lat="45.84013" lon="4.77788">
        <ele>504.72028</ele>
        <time>2023-09-02T12:40:34.000Z</time>
      </trkpt>
      <trkpt lat="45.84016" lon="4.77788">
        <ele>504.0416</ele>
        <time>2023-09-02T12:40:35.000Z</time>
      </trkpt>
      <trkpt lat="45.84019" lon="4.77788">
        <ele>503.42828</ele>
        <time>2023-09-02T12:40:36.000Z</time>
      </trkpt>
      <trkpt lat="45.84021" lon="4.77788">
        <ele>502.78549</ele>
        <time>2023-09-02T12:40:37.000Z</time>
      </trkpt>
      <trkpt lat="45.84023" lon="4.77788">
        <ele>502.11392</ele>
        <time>2023-09-02T12:40:38.000Z</time>
      </trkpt>
      <trkpt lat="45.84026" lon="4.77787">
        <ele>497.75919</ele>
        <time>2023-09-02T12:40:39.000Z</time>
      </trkpt>
      <trkpt lat="45.84029" lon="4.77787">
        <ele>496.84198</ele>
        <time>2023-09-02T12:40:40.000Z</time>
      </trkpt>
      <trkpt lat="45.84031" lon="4.77786">
        <ele>497.92377</ele>
        <time>2023-09-02T12:40:41.000Z</time>
      </trkpt>
      <trkpt lat="45.84034" lon="4.77785">
        <ele>496.41724</ele>
        <time>2023-09-02T12:40:42.000Z</time>
      </trkpt>
      <trkpt lat="45.84036" lon="4.77784">
        <ele>494.983</ele>
        <time>2023-09-02T12:40:43.000Z</time>
      </trkpt>
      <trkpt lat="45.84038" lon="4.77783">
        <ele>493.58578</ele>
        <time>2023-09-02T12:40:44.000Z</time>
      </trkpt>
      <trkpt lat="45.84041" lon="4.7778">
        <ele>492.08905</ele>
        <time>2023-09-02T12:40:46.000Z</time>
      </trkpt>
      <trkpt lat="45.84042" lon="4.77779">
        <ele>491.04428</ele>
        <time>2023-09-02T12:40:50.000Z</time>
      </trkpt>
      <trkpt lat="45.84044" lon="4.7778">
        <ele>492.72168</ele>
        <time>2023-09-02T12:40:57.000Z</time>
      </trkpt>
      <trkpt lat="45.84046" lon="4.77781">
        <ele>491.84531</ele>
        <time>2023-09-02T12:41:04.000Z</time>
      </trkpt>
      <trkpt lat="45.84048" lon="4.77783">
        <ele>491.14795</ele>
        <time>2023-09-02T12:41:12.000Z</time>
      </trkpt>
      <trkpt lat="45.8405" lon="4.77786">
        <ele>490.23984</ele>
        <time>2023-09-02T12:41:13.000Z</time>
      </trkpt>
      <trkpt lat="45.84052" lon="4.77787">
        <ele>489.21021</ele>
        <time>2023-09-02T12:41:15.000Z</time>
      </trkpt>
      <trkpt lat="45.84051" lon="4.77785">
        <ele>488.25366</ele>
        <time>2023-09-02T12:41:27.000Z</time>
      </trkpt>
      <trkpt lat="45.84052" lon="4.77781">
        <ele>492.5629</ele>
        <time>2023-09-02T12:42:41.000Z</time>
      </trkpt>
      <trkpt lat="45.84054" lon="4.77781">
        <ele>493.0224</ele>
        <time>2023-09-02T12:42:42.000Z</time>
      </trkpt>
      <trkpt lat="45.84056" lon="4.7778">
        <ele>491.26953</ele>
        <time>2023-09-02T12:42:44.000Z</time>
      </trkpt>
      <trkpt lat="45.84059" lon="4.77779">
        <ele>489.73331</ele>
        <time>2023-09-02T12:42:46.000Z</time>
      </trkpt>
      <trkpt lat="45.84061" lon="4.77779">
        <ele>488.1214</ele>
        <time>2023-09-02T12:42:48.000Z</time>
      </trkpt>
      <trkpt lat="45.84063" lon="4.77779">
        <ele>487.24805</ele>
        <time>2023-09-02T12:42:52.000Z</time>
      </trkpt>
      <trkpt lat="45.84061" lon="4.77779">
        <ele>490.23138</ele>
        <time>2023-09-02T12:42:54.000Z</time>
      </trkpt>
      <trkpt lat="45.84063" lon="4.77778">
        <ele>489.74942</ele>
        <time>2023-09-02T12:42:59.000Z</time>
      </trkpt>
      <trkpt lat="45.84065" lon="4.77776">
        <ele>489.77057</ele>
        <time>2023-09-02T12:43:01.000Z</time>
      </trkpt>
      <trkpt lat="45.84067" lon="4.77775">
        <ele>490.69791</ele>
        <time>2023-09-02T12:43:04.000Z</time>
      </trkpt>
      <trkpt lat="45.84069" lon="4.77775">
        <ele>490.83292</ele>
        <time>2023-09-02T12:43:06.000Z</time>
      </trkpt>
      <trkpt lat="45.84071" lon="4.77774">
        <ele>490.25775</ele>
        <time>2023-09-02T12:43:09.000Z</time>
      </trkpt>
      <trkpt lat="45.84073" lon="4.77773">
        <ele>491.41861</ele>
        <time>2023-09-02T12:43:17.000Z</time>
      </trkpt>
      <trkpt lat="45.84075" lon="4.77774">
        <ele>492.23676</ele>
        <time>2023-09-02T12:43:26.000Z</time>
      </trkpt>
      <trkpt lat="45.84076" lon="4.77776">
        <ele>492.85855</ele>
        <time>2023-09-02T12:43:27.000Z</time>
      </trkpt>
      <trkpt lat="45.84078" lon="4.77778">
        <ele>494.03574</ele>
        <time>2023-09-02T12:43:28.000Z</time>
      </trkpt>
      <trkpt lat="45.8408" lon="4.77778">
        <ele>495.0108</ele>
        <time>2023-09-02T12:43:29.000Z</time>
      </trkpt>
      <trkpt lat="45.84082" lon="4.77778">
        <ele>496.31094</ele>
        <time>2023-09-02T12:43:30.000Z</time>
      </trkpt>
      <trkpt lat="45.84084" lon="4.77778">
        <ele>497.89764</ele>
        <time>2023-09-02T12:43:31.000Z</time>
      </trkpt>
      <trkpt lat="45.84086" lon="4.77777">
        <ele>499.44717</ele>
        <time>2023-09-02T12:43:32.000Z</time>
      </trkpt>
      <trkpt lat="45.84089" lon="4.77778">
        <ele>499.85614</ele>
        <time>2023-09-02T12:43:34.000Z</time>
      </trkpt>
      <trkpt lat="45.84091" lon="4.77778">
        <ele>500.26434</ele>
        <time>2023-09-02T12:43:35.000Z</time>
      </trkpt>
      <trkpt lat="45.84094" lon="4.77778">
        <ele>502.95004</ele>
        <time>2023-09-02T12:43:37.000Z</time>
      </trkpt>
      <trkpt lat="45.84096" lon="4.77778">
        <ele>505.48077</ele>
        <time>2023-09-02T12:43:38.000Z</time>
      </trkpt>
      <trkpt lat="45.84098" lon="4.77778">
        <ele>508.09561</ele>
        <time>2023-09-02T12:43:39.000Z</time>
      </trkpt>
      <trkpt lat="45.84101" lon="4.77778">
        <ele>510.03302</ele>
        <time>2023-09-02T12:43:40.000Z</time>
      </trkpt>
      <trkpt lat="45.84103" lon="4.77778">
        <ele>511.84833</ele>
        <time>2023-09-02T12:43:41.000Z</time>
      </trkpt>
      <trkpt lat="45.84106" lon="4.77778">
        <ele>513.74243</ele>
        <time>2023-09-02T12:43:43.000Z</time>
      </trkpt>
      <trkpt lat="45.84108" lon="4.77778">
        <ele>515.19543</ele>
        <time>2023-09-02T12:43:44.000Z</time>
      </trkpt>
      <trkpt lat="45.84111" lon="4.77778">
        <ele>516.49365</ele>
        <time>2023-09-02T12:43:45.000Z</time>
      </trkpt>
      <trkpt lat="45.84114" lon="4.77778">
        <ele>518.49139</ele>
        <time>2023-09-02T12:43:46.000Z</time>
      </trkpt>
      <trkpt lat="45.84117" lon="4.77778">
        <ele>521.16345</ele>
        <time>2023-09-02T12:43:47.000Z</time>
      </trkpt>
      <trkpt lat="45.84119" lon="4.77778">
        <ele>522.19391</ele>
        <time>2023-09-02T12:43:48.000Z</time>
      </trkpt>
      <trkpt lat="45.84121" lon="4.77778">
        <ele>523.12756</ele>
        <time>2023-09-02T12:43:49.000Z</time>
      </trkpt>
      <trkpt lat="45.84123" lon="4.77779">
        <ele>524.04468</ele>
        <time>2023-09-02T12:43:52.000Z</time>
      </trkpt>
      <trkpt lat="45.84125" lon="4.77779">
        <ele>524.49152</ele>
        <time>2023-09-02T12:44:17.000Z</time>
      </trkpt>
      <trkpt lat="45.84127" lon="4.77778">
        <ele>524.92737</ele>
        <time>2023-09-02T12:44:19.000Z</time>
      </trkpt>
      <trkpt lat="45.8413" lon="4.77779">
        <ele>525.22247</ele>
        <time>2023-09-02T12:44:21.000Z</time>
      </trkpt>
      <trkpt lat="45.84133" lon="4.77779">
        <ele>525.39124</ele>
        <time>2023-09-02T12:44:22.000Z</time>
      </trkpt>
      <trkpt lat="45.84135" lon="4.77778">
        <ele>525.50592</ele>
        <time>2023-09-02T12:44:23.000Z</time>
      </trkpt>
      <trkpt lat="45.84138" lon="4.77777">
        <ele>525.67444</ele>
        <time>2023-09-02T12:44:24.000Z</time>
      </trkpt>
      <trkpt lat="45.8414" lon="4.77776">
        <ele>525.92218</ele>
        <time>2023-09-02T12:44:26.000Z</time>
      </trkpt>
      <trkpt lat="45.84142" lon="4.77776">
        <ele>526.13385</ele>
        <time>2023-09-02T12:44:27.000Z</time>
      </trkpt>
      <trkpt lat="45.84144" lon="4.77775">
        <ele>526.31488</ele>
        <time>2023-09-02T12:44:28.000Z</time>
      </trkpt>
      <trkpt lat="45.84146" lon="4.77773">
        <ele>526.51758</ele>
        <time>2023-09-02T12:44:29.000Z</time>
      </trkpt>
      <trkpt lat="45.84148" lon="4.77771">
        <ele>526.65088</ele>
        <time>2023-09-02T12:44:30.000Z</time>
      </trkpt>
      <trkpt lat="45.84149" lon="4.77769">
        <ele>526.75629</ele>
        <time>2023-09-02T12:44:31.000Z</time>
      </trkpt>
      <trkpt lat="45.84152" lon="4.77766">
        <ele>526.82263</ele>
        <time>2023-09-02T12:44:32.000Z</time>
      </trkpt>
      <trkpt lat="45.84153" lon="4.77765">
        <ele>526.89484</ele>
        <time>2023-09-02T12:44:33.000Z</time>
      </trkpt>
      <trkpt lat="45.84155" lon="4.77763">
        <ele>526.89746</ele>
        <time>2023-09-02T12:44:34.000Z</time>
      </trkpt>
      <trkpt lat="45.84157" lon="4.77762">
        <ele>526.93298</ele>
        <time>2023-09-02T12:44:35.000Z</time>
      </trkpt>
      <trkpt lat="45.84159" lon="4.77761">
        <ele>526.9649</ele>
        <time>2023-09-02T12:44:36.000Z</time>
      </trkpt>
      <trkpt lat="45.84162" lon="4.77759">
        <ele>527.09802</ele>
        <time>2023-09-02T12:44:38.000Z</time>
      </trkpt>
      <trkpt lat="45.84164" lon="4.77758">
        <ele>527.25555</ele>
        <time>2023-09-02T12:44:39.000Z</time>
      </trkpt>
      <trkpt lat="45.84166" lon="4.77757">
        <ele>527.43683</ele>
        <time>2023-09-02T12:44:40.000Z</time>
      </trkpt>
      <trkpt lat="45.84168" lon="4.77756">
        <ele>527.73303</ele>
        <time>2023-09-02T12:44:41.000Z</time>
      </trkpt>
      <trkpt lat="45.84171" lon="4.77753">
        <ele>528.13281</ele>
        <time>2023-09-02T12:44:43.000Z</time>
      </trkpt>
      <trkpt lat="45.84175" lon="4.77752">
        <ele>528.48877</ele>
        <time>2023-09-02T12:44:45.000Z</time>
      </trkpt>
      <trkpt lat="45.84177" lon="4.77752">
        <ele>528.84552</ele>
        <time>2023-09-02T12:44:46.000Z</time>
      </trkpt>
      <trkpt lat="45.8418" lon="4.77752">
        <ele>529.26794</ele>
        <time>2023-09-02T12:44:47.000Z</time>
      </trkpt>
      <trkpt lat="45.84183" lon="4.77751">
        <ele>529.62335</ele>
        <time>2023-09-02T12:44:48.000Z</time>
      </trkpt>
      <trkpt lat="45.84186" lon="4.77751">
        <ele>529.86572</ele>
        <time>2023-09-02T12:44:49.000Z</time>
      </trkpt>
      <trkpt lat="45.84189" lon="4.7775">
        <ele>530.12317</ele>
        <time>2023-09-02T12:44:50.000Z</time>
      </trkpt>
      <trkpt lat="45.84191" lon="4.7775">
        <ele>530.40356</ele>
        <time>2023-09-02T12:44:51.000Z</time>
      </trkpt>
      <trkpt lat="45.84194" lon="4.77749">
        <ele>530.6048</ele>
        <time>2023-09-02T12:44:52.000Z</time>
      </trkpt>
      <trkpt lat="45.84196" lon="4.77749">
        <ele>530.94171</ele>
        <time>2023-09-02T12:44:53.000Z</time>
      </trkpt>
      <trkpt lat="45.84199" lon="4.77749">
        <ele>531.32843</ele>
        <time>2023-09-02T12:44:54.000Z</time>
      </trkpt>
      <trkpt lat="45.84202" lon="4.77749">
        <ele>531.7265</ele>
        <time>2023-09-02T12:44:55.000Z</time>
      </trkpt>
      <trkpt lat="45.84204" lon="4.77749">
        <ele>532.14978</ele>
        <time>2023-09-02T12:44:56.000Z</time>
      </trkpt>
      <trkpt lat="45.84207" lon="4.77749">
        <ele>532.50525</ele>
        <time>2023-09-02T12:44:57.000Z</time>
      </trkpt>
      <trkpt lat="45.84209" lon="4.77749">
        <ele>532.86938</ele>
        <time>2023-09-02T12:44:58.000Z</time>
      </trkpt>
      <trkpt lat="45.84213" lon="4.77748">
        <ele>533.2547</ele>
        <time>2023-09-02T12:44:59.000Z</time>
      </trkpt>
      <trkpt lat="45.84216" lon="4.77748">
        <ele>533.49115</ele>
        <time>2023-09-02T12:45:00.000Z</time>
      </trkpt>
      <trkpt lat="45.84218" lon="4.77749">
        <ele>533.71753</ele>
        <time>2023-09-02T12:45:01.000Z</time>
      </trkpt>
      <trkpt lat="45.8422" lon="4.7775">
        <ele>533.89386</ele>
        <time>2023-09-02T12:45:02.000Z</time>
      </trkpt>
      <trkpt lat="45.84222" lon="4.77751">
        <ele>534.09454</ele>
        <time>2023-09-02T12:45:03.000Z</time>
      </trkpt>
      <trkpt lat="45.84225" lon="4.77751">
        <ele>534.24884</ele>
        <time>2023-09-02T12:45:05.000Z</time>
      </trkpt>
      <trkpt lat="45.84229" lon="4.77753">
        <ele>534.52417</ele>
        <time>2023-09-02T12:45:07.000Z</time>
      </trkpt>
      <trkpt lat="45.84231" lon="4.77754">
        <ele>534.79016</ele>
        <time>2023-09-02T12:45:09.000Z</time>
      </trkpt>
      <trkpt lat="45.84233" lon="4.77754">
        <ele>535.00165</ele>
        <time>2023-09-02T12:45:10.000Z</time>
      </trkpt>
      <trkpt lat="45.84235" lon="4.77752">
        <ele>535.1944</ele>
        <time>2023-09-02T12:45:11.000Z</time>
      </trkpt>
      <trkpt lat="45.84237" lon="4.77751">
        <ele>535.41779</ele>
        <time>2023-09-02T12:45:12.000Z</time>
      </trkpt>
      <trkpt lat="45.84239" lon="4.77749">
        <ele>534.3855</ele>
        <time>2023-09-02T12:45:13.000Z</time>
      </trkpt>
      <trkpt lat="45.84241" lon="4.77747">
        <ele>533.34924</ele>
        <time>2023-09-02T12:45:14.000Z</time>
      </trkpt>
      <trkpt lat="45.84244" lon="4.77745">
        <ele>532.43256</ele>
        <time>2023-09-02T12:45:15.000Z</time>
      </trkpt>
      <trkpt lat="45.84246" lon="4.77744">
        <ele>531.1308</ele>
        <time>2023-09-02T12:45:16.000Z</time>
      </trkpt>
      <trkpt lat="45.84247" lon="4.77743">
        <ele>531.27515</ele>
        <time>2023-09-02T12:45:17.000Z</time>
      </trkpt>
      <trkpt lat="45.8425" lon="4.7774">
        <ele>531.45068</ele>
        <time>2023-09-02T12:45:19.000Z</time>
      </trkpt>
      <trkpt lat="45.84251" lon="4.77737">
        <ele>531.21155</ele>
        <time>2023-09-02T12:45:20.000Z</time>
      </trkpt>
      <trkpt lat="45.84254" lon="4.77734">
        <ele>530.99524</ele>
        <time>2023-09-02T12:45:22.000Z</time>
      </trkpt>
      <trkpt lat="45.84255" lon="4.77732">
        <ele>529.34094</ele>
        <time>2023-09-02T12:45:23.000Z</time>
      </trkpt>
      <trkpt lat="45.84257" lon="4.77731">
        <ele>527.76959</ele>
        <time>2023-09-02T12:45:24.000Z</time>
      </trkpt>
      <trkpt lat="45.84258" lon="4.77729">
        <ele>526.33801</ele>
        <time>2023-09-02T12:45:25.000Z</time>
      </trkpt>
      <trkpt lat="45.84261" lon="4.77726">
        <ele>525.28357</ele>
        <time>2023-09-02T12:45:27.000Z</time>
      </trkpt>
      <trkpt lat="45.84264" lon="4.77726">
        <ele>524.01215</ele>
        <time>2023-09-02T12:45:29.000Z</time>
      </trkpt>
      <trkpt lat="45.84266" lon="4.77725">
        <ele>522.72656</ele>
        <time>2023-09-02T12:45:30.000Z</time>
      </trkpt>
      <trkpt lat="45.84268" lon="4.77725">
        <ele>521.57092</ele>
        <time>2023-09-02T12:45:31.000Z</time>
      </trkpt>
      <trkpt lat="45.8427" lon="4.77725">
        <ele>520.64771</ele>
        <time>2023-09-02T12:45:32.000Z</time>
      </trkpt>
      <trkpt lat="45.84272" lon="4.77725">
        <ele>519.77039</ele>
        <time>2023-09-02T12:45:33.000Z</time>
      </trkpt>
      <trkpt lat="45.84274" lon="4.77724">
        <ele>519.06622</ele>
        <time>2023-09-02T12:45:34.000Z</time>
      </trkpt>
      <trkpt lat="45.84278" lon="4.77723">
        <ele>517.79749</ele>
        <time>2023-09-02T12:45:36.000Z</time>
      </trkpt>
      <trkpt lat="45.84281" lon="4.77723">
        <ele>516.43274</ele>
        <time>2023-09-02T12:45:37.000Z</time>
      </trkpt>
      <trkpt lat="45.84283" lon="4.77724">
        <ele>516.18518</ele>
        <time>2023-09-02T12:45:38.000Z</time>
      </trkpt>
      <trkpt lat="45.84286" lon="4.77725">
        <ele>515.75793</ele>
        <time>2023-09-02T12:45:39.000Z</time>
      </trkpt>
      <trkpt lat="45.84289" lon="4.77725">
        <ele>515.56433</ele>
        <time>2023-09-02T12:45:41.000Z</time>
      </trkpt>
      <trkpt lat="45.84292" lon="4.77726">
        <ele>516.07288</ele>
        <time>2023-09-02T12:45:43.000Z</time>
      </trkpt>
      <trkpt lat="45.84294" lon="4.77726">
        <ele>515.09601</ele>
        <time>2023-09-02T12:45:44.000Z</time>
      </trkpt>
      <trkpt lat="45.84296" lon="4.77726">
        <ele>514.55896</ele>
        <time>2023-09-02T12:45:45.000Z</time>
      </trkpt>
      <trkpt lat="45.84298" lon="4.77725">
        <ele>514.46814</ele>
        <time>2023-09-02T12:45:46.000Z</time>
      </trkpt>
      <trkpt lat="45.84301" lon="4.77724">
        <ele>514.40613</ele>
        <time>2023-09-02T12:45:47.000Z</time>
      </trkpt>
      <trkpt lat="45.84303" lon="4.77723">
        <ele>514.98645</ele>
        <time>2023-09-02T12:45:48.000Z</time>
      </trkpt>
      <trkpt lat="45.84305" lon="4.77721">
        <ele>515.49835</ele>
        <time>2023-09-02T12:45:49.000Z</time>
      </trkpt>
      <trkpt lat="45.84307" lon="4.7772">
        <ele>515.95117</ele>
        <time>2023-09-02T12:45:50.000Z</time>
      </trkpt>
      <trkpt lat="45.84309" lon="4.77719">
        <ele>516.02686</ele>
        <time>2023-09-02T12:45:51.000Z</time>
      </trkpt>
      <trkpt lat="45.84311" lon="4.77717">
        <ele>516.328</ele>
        <time>2023-09-02T12:45:52.000Z</time>
      </trkpt>
      <trkpt lat="45.84313" lon="4.77716">
        <ele>518.55286</ele>
        <time>2023-09-02T12:45:53.000Z</time>
      </trkpt>
      <trkpt lat="45.84315" lon="4.77714">
        <ele>518.82605</ele>
        <time>2023-09-02T12:45:54.000Z</time>
      </trkpt>
      <trkpt lat="45.84318" lon="4.77713">
        <ele>518.84125</ele>
        <time>2023-09-02T12:45:55.000Z</time>
      </trkpt>
      <trkpt lat="45.8432" lon="4.77712">
        <ele>518.79425</ele>
        <time>2023-09-02T12:45:56.000Z</time>
      </trkpt>
      <trkpt lat="45.84322" lon="4.77712">
        <ele>518.59265</ele>
        <time>2023-09-02T12:45:57.000Z</time>
      </trkpt>
      <trkpt lat="45.84324" lon="4.77711">
        <ele>518.93835</ele>
        <time>2023-09-02T12:45:58.000Z</time>
      </trkpt>
      <trkpt lat="45.84326" lon="4.7771">
        <ele>521.49792</ele>
        <time>2023-09-02T12:45:59.000Z</time>
      </trkpt>
      <trkpt lat="45.84328" lon="4.77709">
        <ele>522.21472</ele>
        <time>2023-09-02T12:46:00.000Z</time>
      </trkpt>
      <trkpt lat="45.84331" lon="4.77709">
        <ele>523.13098</ele>
        <time>2023-09-02T12:46:01.000Z</time>
      </trkpt>
      <trkpt lat="45.84333" lon="4.77709">
        <ele>523.81946</ele>
        <time>2023-09-02T12:46:02.000Z</time>
      </trkpt>
      <trkpt lat="45.84335" lon="4.77709">
        <ele>524.13007</ele>
        <time>2023-09-02T12:46:03.000Z</time>
      </trkpt>
      <trkpt lat="45.84338" lon="4.77708">
        <ele>524.42596</ele>
        <time>2023-09-02T12:46:04.000Z</time>
      </trkpt>
      <trkpt lat="45.8434" lon="4.77708">
        <ele>526.17157</ele>
        <time>2023-09-02T12:46:05.000Z</time>
      </trkpt>
      <trkpt lat="45.84342" lon="4.77708">
        <ele>525.99847</ele>
        <time>2023-09-02T12:46:06.000Z</time>
      </trkpt>
      <trkpt lat="45.84344" lon="4.77708">
        <ele>525.7998</ele>
        <time>2023-09-02T12:46:07.000Z</time>
      </trkpt>
      <trkpt lat="45.84347" lon="4.77707">
        <ele>526.36951</ele>
        <time>2023-09-02T12:46:09.000Z</time>
      </trkpt>
      <trkpt lat="45.8435" lon="4.77704">
        <ele>528.76477</ele>
        <time>2023-09-02T12:46:11.000Z</time>
      </trkpt>
      <trkpt lat="45.84352" lon="4.77702">
        <ele>529.4281</ele>
        <time>2023-09-02T12:46:12.000Z</time>
      </trkpt>
      <trkpt lat="45.84354" lon="4.77701">
        <ele>530.10193</ele>
        <time>2023-09-02T12:46:13.000Z</time>
      </trkpt>
      <trkpt lat="45.84356" lon="4.777">
        <ele>530.80566</ele>
        <time>2023-09-02T12:46:14.000Z</time>
      </trkpt>
      <trkpt lat="45.84358" lon="4.77699">
        <ele>529.61017</ele>
        <time>2023-09-02T12:46:15.000Z</time>
      </trkpt>
      <trkpt lat="45.8436" lon="4.77697">
        <ele>530.16302</ele>
        <time>2023-09-02T12:46:16.000Z</time>
      </trkpt>
      <trkpt lat="45.84362" lon="4.77694">
        <ele>532.40063</ele>
        <time>2023-09-02T12:46:17.000Z</time>
      </trkpt>
      <trkpt lat="45.84364" lon="4.77693">
        <ele>533.07861</ele>
        <time>2023-09-02T12:46:18.000Z</time>
      </trkpt>
      <trkpt lat="45.84366" lon="4.77692">
        <ele>533.79285</ele>
        <time>2023-09-02T12:46:19.000Z</time>
      </trkpt>
      <trkpt lat="45.84368" lon="4.77692">
        <ele>534.55286</ele>
        <time>2023-09-02T12:46:20.000Z</time>
      </trkpt>
      <trkpt lat="45.8437" lon="4.77691">
        <ele>534.72577</ele>
        <time>2023-09-02T12:46:21.000Z</time>
      </trkpt>
      <trkpt lat="45.84373" lon="4.7769">
        <ele>536.87061</ele>
        <time>2023-09-02T12:46:22.000Z</time>
      </trkpt>
      <trkpt lat="45.84375" lon="4.77689">
        <ele>538.9809</ele>
        <time>2023-09-02T12:46:23.000Z</time>
      </trkpt>
      <trkpt lat="45.84377" lon="4.77689">
        <ele>541.06934</ele>
        <time>2023-09-02T12:46:24.000Z</time>
      </trkpt>
      <trkpt lat="45.84379" lon="4.77689">
        <ele>543.12946</ele>
        <time>2023-09-02T12:46:25.000Z</time>
      </trkpt>
      <trkpt lat="45.84381" lon="4.77688">
        <ele>545.22888</ele>
        <time>2023-09-02T12:46:26.000Z</time>
      </trkpt>
      <trkpt lat="45.84384" lon="4.77687">
        <ele>545.40576</ele>
        <time>2023-09-02T12:46:27.000Z</time>
      </trkpt>
      <trkpt lat="45.84386" lon="4.77686">
        <ele>547.42188</ele>
        <time>2023-09-02T12:46:28.000Z</time>
      </trkpt>
      <trkpt lat="45.84388" lon="4.77685">
        <ele>549.49573</ele>
        <time>2023-09-02T12:46:29.000Z</time>
      </trkpt>
      <trkpt lat="45.8439" lon="4.77683">
        <ele>551.59882</ele>
        <time>2023-09-02T12:46:30.000Z</time>
      </trkpt>
      <trkpt lat="45.84393" lon="4.77682">
        <ele>551.84479</ele>
        <time>2023-09-02T12:46:31.000Z</time>
      </trkpt>
      <trkpt lat="45.84395" lon="4.77681">
        <ele>553.81635</ele>
        <time>2023-09-02T12:46:32.000Z</time>
      </trkpt>
      <trkpt lat="45.84397" lon="4.77681">
        <ele>555.73547</ele>
        <time>2023-09-02T12:46:33.000Z</time>
      </trkpt>
      <trkpt lat="45.84399" lon="4.7768">
        <ele>557.71301</ele>
        <time>2023-09-02T12:46:34.000Z</time>
      </trkpt>
      <trkpt lat="45.84401" lon="4.77679">
        <ele>559.66156</ele>
        <time>2023-09-02T12:46:35.000Z</time>
      </trkpt>
      <trkpt lat="45.84403" lon="4.77678">
        <ele>561.16412</ele>
        <time>2023-09-02T12:46:36.000Z</time>
      </trkpt>
      <trkpt lat="45.84407" lon="4.77677">
        <ele>561.0434</ele>
        <time>2023-09-02T12:46:38.000Z</time>
      </trkpt>
      <trkpt lat="45.84409" lon="4.77676">
        <ele>562.85333</ele>
        <time>2023-09-02T12:46:39.000Z</time>
      </trkpt>
      <trkpt lat="45.84411" lon="4.77676">
        <ele>564.64001</ele>
        <time>2023-09-02T12:46:40.000Z</time>
      </trkpt>
      <trkpt lat="45.84413" lon="4.77675">
        <ele>566.41565</ele>
        <time>2023-09-02T12:46:41.000Z</time>
      </trkpt>
      <trkpt lat="45.84415" lon="4.77674">
        <ele>566.70984</ele>
        <time>2023-09-02T12:46:42.000Z</time>
      </trkpt>
      <trkpt lat="45.84418" lon="4.77673">
        <ele>567.02649</ele>
        <time>2023-09-02T12:46:43.000Z</time>
      </trkpt>
      <trkpt lat="45.84419" lon="4.77671">
        <ele>567.39209</ele>
        <time>2023-09-02T12:46:44.000Z</time>
      </trkpt>
      <trkpt lat="45.84422" lon="4.77668">
        <ele>567.65179</ele>
        <time>2023-09-02T12:46:46.000Z</time>
      </trkpt>
      <trkpt lat="45.84424" lon="4.77665">
        <ele>567.78333</ele>
        <time>2023-09-02T12:46:47.000Z</time>
      </trkpt>
      <trkpt lat="45.84426" lon="4.77664">
        <ele>567.86652</ele>
        <time>2023-09-02T12:46:48.000Z</time>
      </trkpt>
      <trkpt lat="45.84427" lon="4.77662">
        <ele>567.93433</ele>
        <time>2023-09-02T12:46:49.000Z</time>
      </trkpt>
      <trkpt lat="45.8443" lon="4.7766">
        <ele>568.23071</ele>
        <time>2023-09-02T12:46:51.000Z</time>
      </trkpt>
      <trkpt lat="45.84432" lon="4.77659">
        <ele>568.45471</ele>
        <time>2023-09-02T12:46:52.000Z</time>
      </trkpt>
      <trkpt lat="45.84434" lon="4.77657">
        <ele>568.66296</ele>
        <time>2023-09-02T12:46:53.000Z</time>
      </trkpt>
      <trkpt lat="45.84437" lon="4.77656">
        <ele>568.87622</ele>
        <time>2023-09-02T12:46:54.000Z</time>
      </trkpt>
      <trkpt lat="45.84439" lon="4.77655">
        <ele>569.07971</ele>
        <time>2023-09-02T12:46:55.000Z</time>
      </trkpt>
      <trkpt lat="45.84441" lon="4.77654">
        <ele>569.29034</ele>
        <time>2023-09-02T12:46:56.000Z</time>
      </trkpt>
      <trkpt lat="45.84444" lon="4.77653">
        <ele>569.42316</ele>
        <time>2023-09-02T12:46:57.000Z</time>
      </trkpt>
      <trkpt lat="45.84447" lon="4.77653">
        <ele>569.53357</ele>
        <time>2023-09-02T12:46:58.000Z</time>
      </trkpt>
      <trkpt lat="45.8445" lon="4.77652">
        <ele>570.25507</ele>
        <time>2023-09-02T12:46:59.000Z</time>
      </trkpt>
      <trkpt lat="45.84452" lon="4.77651">
        <ele>570.89856</ele>
        <time>2023-09-02T12:47:00.000Z</time>
      </trkpt>
      <trkpt lat="45.84455" lon="4.7765">
        <ele>571.19348</ele>
        <time>2023-09-02T12:47:01.000Z</time>
      </trkpt>
      <trkpt lat="45.84457" lon="4.7765">
        <ele>571.49176</ele>
        <time>2023-09-02T12:47:02.000Z</time>
      </trkpt>
      <trkpt lat="45.8446" lon="4.77648">
        <ele>571.75958</ele>
        <time>2023-09-02T12:47:04.000Z</time>
      </trkpt>
      <trkpt lat="45.84462" lon="4.77646">
        <ele>571.96838</ele>
        <time>2023-09-02T12:47:06.000Z</time>
      </trkpt>
      <trkpt lat="45.84465" lon="4.77642">
        <ele>572.18451</ele>
        <time>2023-09-02T12:47:08.000Z</time>
      </trkpt>
      <trkpt lat="45.84467" lon="4.77641">
        <ele>572.3772</ele>
        <time>2023-09-02T12:47:09.000Z</time>
      </trkpt>
      <trkpt lat="45.84469" lon="4.7764">
        <ele>572.56537</ele>
        <time>2023-09-02T12:47:10.000Z</time>
      </trkpt>
      <trkpt lat="45.84471" lon="4.77639">
        <ele>572.89172</ele>
        <time>2023-09-02T12:47:11.000Z</time>
      </trkpt>
      <trkpt lat="45.84473" lon="4.77637">
        <ele>573.19818</ele>
        <time>2023-09-02T12:47:12.000Z</time>
      </trkpt>
      <trkpt lat="45.84475" lon="4.77636">
        <ele>573.5202</ele>
        <time>2023-09-02T12:47:13.000Z</time>
      </trkpt>
      <trkpt lat="45.84477" lon="4.77635">
        <ele>573.61462</ele>
        <time>2023-09-02T12:47:14.000Z</time>
      </trkpt>
      <trkpt lat="45.8448" lon="4.77634">
        <ele>573.89709</ele>
        <time>2023-09-02T12:47:15.000Z</time>
      </trkpt>
      <trkpt lat="45.84483" lon="4.77634">
        <ele>573.99158</ele>
        <time>2023-09-02T12:47:16.000Z</time>
      </trkpt>
      <trkpt lat="45.84485" lon="4.77633">
        <ele>574.16205</ele>
        <time>2023-09-02T12:47:17.000Z</time>
      </trkpt>
      <trkpt lat="45.84487" lon="4.77632">
        <ele>574.34045</ele>
        <time>2023-09-02T12:47:18.000Z</time>
      </trkpt>
      <trkpt lat="45.84489" lon="4.77631">
        <ele>574.55994</ele>
        <time>2023-09-02T12:47:19.000Z</time>
      </trkpt>
      <trkpt lat="45.84491" lon="4.7763">
        <ele>574.67242</ele>
        <time>2023-09-02T12:47:20.000Z</time>
      </trkpt>
      <trkpt lat="45.84495" lon="4.77629">
        <ele>574.80676</ele>
        <time>2023-09-02T12:47:22.000Z</time>
      </trkpt>
      <trkpt lat="45.84498" lon="4.77628">
        <ele>574.84253</ele>
        <time>2023-09-02T12:47:23.000Z</time>
      </trkpt>
      <trkpt lat="45.845" lon="4.77627">
        <ele>574.883</ele>
        <time>2023-09-02T12:47:24.000Z</time>
      </trkpt>
      <trkpt lat="45.84502" lon="4.77625">
        <ele>571.33997</ele>
        <time>2023-09-02T12:47:25.000Z</time>
      </trkpt>
      <trkpt lat="45.84504" lon="4.77623">
        <ele>571.16809</ele>
        <time>2023-09-02T12:47:26.000Z</time>
      </trkpt>
      <trkpt lat="45.84507" lon="4.77622">
        <ele>570.99335</ele>
        <time>2023-09-02T12:47:27.000Z</time>
      </trkpt>
      <trkpt lat="45.84511" lon="4.77619">
        <ele>570.82385</ele>
        <time>2023-09-02T12:47:28.000Z</time>
      </trkpt>
      <trkpt lat="45.84513" lon="4.77617">
        <ele>570.61255</ele>
        <time>2023-09-02T12:47:29.000Z</time>
      </trkpt>
      <trkpt lat="45.84516" lon="4.77617">
        <ele>570.36389</ele>
        <time>2023-09-02T12:47:30.000Z</time>
      </trkpt>
      <trkpt lat="45.84518" lon="4.77616">
        <ele>564.13013</ele>
        <time>2023-09-02T12:47:31.000Z</time>
      </trkpt>
      <trkpt lat="45.8452" lon="4.77615">
        <ele>563.62769</ele>
        <time>2023-09-02T12:47:32.000Z</time>
      </trkpt>
      <trkpt lat="45.84523" lon="4.77613">
        <ele>563.94647</ele>
        <time>2023-09-02T12:47:34.000Z</time>
      </trkpt>
      <trkpt lat="45.84525" lon="4.77612">
        <ele>564.50659</ele>
        <time>2023-09-02T12:47:35.000Z</time>
      </trkpt>
      <trkpt lat="45.84527" lon="4.77611">
        <ele>564.99274</ele>
        <time>2023-09-02T12:47:36.000Z</time>
      </trkpt>
      <trkpt lat="45.84529" lon="4.7761">
        <ele>565.33673</ele>
        <time>2023-09-02T12:47:38.000Z</time>
      </trkpt>
      <trkpt lat="45.84533" lon="4.77607">
        <ele>565.75977</ele>
        <time>2023-09-02T12:47:40.000Z</time>
      </trkpt>
      <trkpt lat="45.84534" lon="4.77606">
        <ele>566.48761</ele>
        <time>2023-09-02T12:47:41.000Z</time>
      </trkpt>
      <trkpt lat="45.84536" lon="4.77604">
        <ele>567.18134</ele>
        <time>2023-09-02T12:47:42.000Z</time>
      </trkpt>
      <trkpt lat="45.84537" lon="4.77602">
        <ele>567.85669</ele>
        <time>2023-09-02T12:47:43.000Z</time>
      </trkpt>
      <trkpt lat="45.84539" lon="4.776">
        <ele>568.74591</ele>
        <time>2023-09-02T12:47:44.000Z</time>
      </trkpt>
      <trkpt lat="45.84542" lon="4.77599">
        <ele>569.66956</ele>
        <time>2023-09-02T12:47:45.000Z</time>
      </trkpt>
      <trkpt lat="45.84544" lon="4.77597">
        <ele>570.23181</ele>
        <time>2023-09-02T12:47:46.000Z</time>
      </trkpt>
      <trkpt lat="45.84547" lon="4.77597">
        <ele>570.8913</ele>
        <time>2023-09-02T12:47:47.000Z</time>
      </trkpt>
      <trkpt lat="45.84548" lon="4.77594">
        <ele>575.10559</ele>
        <time>2023-09-02T12:47:48.000Z</time>
      </trkpt>
      <trkpt lat="45.8455" lon="4.77592">
        <ele>576.22009</ele>
        <time>2023-09-02T12:47:49.000Z</time>
      </trkpt>
      <trkpt lat="45.84552" lon="4.7759">
        <ele>577.33264</ele>
        <time>2023-09-02T12:47:50.000Z</time>
      </trkpt>
      <trkpt lat="45.84556" lon="4.7759">
        <ele>578.46729</ele>
        <time>2023-09-02T12:47:51.000Z</time>
      </trkpt>
      <trkpt lat="45.84558" lon="4.77589">
        <ele>579.60571</ele>
        <time>2023-09-02T12:47:52.000Z</time>
      </trkpt>
      <trkpt lat="45.84561" lon="4.77589">
        <ele>580.76831</ele>
        <time>2023-09-02T12:47:53.000Z</time>
      </trkpt>
      <trkpt lat="45.84564" lon="4.77588">
        <ele>587.98828</ele>
        <time>2023-09-02T12:47:54.000Z</time>
      </trkpt>
      <trkpt lat="45.84566" lon="4.77586">
        <ele>589.47455</ele>
        <time>2023-09-02T12:47:55.000Z</time>
      </trkpt>
      <trkpt lat="45.84569" lon="4.77585">
        <ele>590.1438</ele>
        <time>2023-09-02T12:47:56.000Z</time>
      </trkpt>
      <trkpt lat="45.84571" lon="4.77584">
        <ele>590.5553</ele>
        <time>2023-09-02T12:47:57.000Z</time>
      </trkpt>
      <trkpt lat="45.84574" lon="4.77583">
        <ele>591.11658</ele>
        <time>2023-09-02T12:47:58.000Z</time>
      </trkpt>
      <trkpt lat="45.84577" lon="4.77581">
        <ele>591.64978</ele>
        <time>2023-09-02T12:47:59.000Z</time>
      </trkpt>
      <trkpt lat="45.84579" lon="4.7758">
        <ele>592.29523</ele>
        <time>2023-09-02T12:48:00.000Z</time>
      </trkpt>
      <trkpt lat="45.84582" lon="4.77578">
        <ele>592.57843</ele>
        <time>2023-09-02T12:48:01.000Z</time>
      </trkpt>
      <trkpt lat="45.84585" lon="4.77577">
        <ele>592.88013</ele>
        <time>2023-09-02T12:48:02.000Z</time>
      </trkpt>
      <trkpt lat="45.84587" lon="4.77575">
        <ele>593.18799</ele>
        <time>2023-09-02T12:48:03.000Z</time>
      </trkpt>
      <trkpt lat="45.8459" lon="4.77574">
        <ele>593.39246</ele>
        <time>2023-09-02T12:48:04.000Z</time>
      </trkpt>
      <trkpt lat="45.84592" lon="4.77573">
        <ele>593.55804</ele>
        <time>2023-09-02T12:48:05.000Z</time>
      </trkpt>
      <trkpt lat="45.84594" lon="4.77572">
        <ele>594.06482</ele>
        <time>2023-09-02T12:48:06.000Z</time>
      </trkpt>
      <trkpt lat="45.84596" lon="4.77572">
        <ele>594.46973</ele>
        <time>2023-09-02T12:48:07.000Z</time>
      </trkpt>
      <trkpt lat="45.84599" lon="4.77571">
        <ele>594.91187</ele>
        <time>2023-09-02T12:48:08.000Z</time>
      </trkpt>
      <trkpt lat="45.84602" lon="4.7757">
        <ele>595.06165</ele>
        <time>2023-09-02T12:48:09.000Z</time>
      </trkpt>
      <trkpt lat="45.84605" lon="4.77569">
        <ele>595.21155</ele>
        <time>2023-09-02T12:48:10.000Z</time>
      </trkpt>
      <trkpt lat="45.84608" lon="4.77569">
        <ele>595.36823</ele>
        <time>2023-09-02T12:48:11.000Z</time>
      </trkpt>
      <trkpt lat="45.84611" lon="4.77568">
        <ele>595.5451</ele>
        <time>2023-09-02T12:48:12.000Z</time>
      </trkpt>
      <trkpt lat="45.84614" lon="4.77567">
        <ele>595.72754</ele>
        <time>2023-09-02T12:48:13.000Z</time>
      </trkpt>
      <trkpt lat="45.84617" lon="4.77566">
        <ele>595.92505</ele>
        <time>2023-09-02T12:48:14.000Z</time>
      </trkpt>
      <trkpt lat="45.8462" lon="4.77565">
        <ele>596.12366</ele>
        <time>2023-09-02T12:48:15.000Z</time>
      </trkpt>
      <trkpt lat="45.84623" lon="4.77564">
        <ele>596.34686</ele>
        <time>2023-09-02T12:48:16.000Z</time>
      </trkpt>
      <trkpt lat="45.84627" lon="4.77563">
        <ele>596.55823</ele>
        <time>2023-09-02T12:48:17.000Z</time>
      </trkpt>
      <trkpt lat="45.8463" lon="4.77562">
        <ele>596.39972</ele>
        <time>2023-09-02T12:48:18.000Z</time>
      </trkpt>
      <trkpt lat="45.84633" lon="4.77561">
        <ele>596.26031</ele>
        <time>2023-09-02T12:48:19.000Z</time>
      </trkpt>
      <trkpt lat="45.84636" lon="4.7756">
        <ele>596.10437</ele>
        <time>2023-09-02T12:48:20.000Z</time>
      </trkpt>
      <trkpt lat="45.84639" lon="4.7756">
        <ele>595.95001</ele>
        <time>2023-09-02T12:48:21.000Z</time>
      </trkpt>
      <trkpt lat="45.84642" lon="4.77559">
        <ele>596.09387</ele>
        <time>2023-09-02T12:48:22.000Z</time>
      </trkpt>
      <trkpt lat="45.84645" lon="4.77558">
        <ele>596.23016</ele>
        <time>2023-09-02T12:48:23.000Z</time>
      </trkpt>
      <trkpt lat="45.84648" lon="4.77558">
        <ele>596.33563</ele>
        <time>2023-09-02T12:48:24.000Z</time>
      </trkpt>
      <trkpt lat="45.84652" lon="4.77558">
        <ele>596.43671</ele>
        <time>2023-09-02T12:48:25.000Z</time>
      </trkpt>
      <trkpt lat="45.84655" lon="4.77557">
        <ele>596.53748</ele>
        <time>2023-09-02T12:48:26.000Z</time>
      </trkpt>
      <trkpt lat="45.84658" lon="4.77557">
        <ele>596.65155</ele>
        <time>2023-09-02T12:48:27.000Z</time>
      </trkpt>
      <trkpt lat="45.84661" lon="4.77557">
        <ele>595.33795</ele>
        <time>2023-09-02T12:48:28.000Z</time>
      </trkpt>
      <trkpt lat="45.84664" lon="4.77557">
        <ele>594.6217</ele>
        <time>2023-09-02T12:48:29.000Z</time>
      </trkpt>
      <trkpt lat="45.84667" lon="4.77558">
        <ele>593.87732</ele>
        <time>2023-09-02T12:48:30.000Z</time>
      </trkpt>
      <trkpt lat="45.8467" lon="4.77558">
        <ele>593.44543</ele>
        <time>2023-09-02T12:48:31.000Z</time>
      </trkpt>
      <trkpt lat="45.84674" lon="4.77558">
        <ele>593.1637</ele>
        <time>2023-09-02T12:48:32.000Z</time>
      </trkpt>
      <trkpt lat="45.84677" lon="4.77559">
        <ele>592.96747</ele>
        <time>2023-09-02T12:48:33.000Z</time>
      </trkpt>
      <trkpt lat="45.8468" lon="4.77559">
        <ele>592.82037</ele>
        <time>2023-09-02T12:48:34.000Z</time>
      </trkpt>
      <trkpt lat="45.84682" lon="4.77559">
        <ele>592.69006</ele>
        <time>2023-09-02T12:48:35.000Z</time>
      </trkpt>
      <trkpt lat="45.84685" lon="4.7756">
        <ele>592.58289</ele>
        <time>2023-09-02T12:48:36.000Z</time>
      </trkpt>
      <trkpt lat="45.84688" lon="4.7756">
        <ele>592.50623</ele>
        <time>2023-09-02T12:48:37.000Z</time>
      </trkpt>
      <trkpt lat="45.84689" lon="4.77559">
        <ele>592.73907</ele>
        <time>2023-09-02T12:48:38.000Z</time>
      </trkpt>
      <trkpt lat="45.84691" lon="4.77557">
        <ele>592.9718</ele>
        <time>2023-09-02T12:48:39.000Z</time>
      </trkpt>
      <trkpt lat="45.84693" lon="4.77556">
        <ele>593.11731</ele>
        <time>2023-09-02T12:48:41.000Z</time>
      </trkpt>
      <trkpt lat="45.84694" lon="4.7756">
        <ele>593.21594</ele>
        <time>2023-09-02T12:49:27.000Z</time>
      </trkpt>
      <trkpt lat="45.84695" lon="4.77563">
        <ele>593.12073</ele>
        <time>2023-09-02T12:49:28.000Z</time>
      </trkpt>
      <trkpt lat="45.84696" lon="4.77566">
        <ele>593.03595</ele>
        <time>2023-09-02T12:49:29.000Z</time>
      </trkpt>
      <trkpt lat="45.84698" lon="4.77569">
        <ele>592.98547</ele>
        <time>2023-09-02T12:49:30.000Z</time>
      </trkpt>
      <trkpt lat="45.84701" lon="4.77572">
        <ele>592.9751</ele>
        <time>2023-09-02T12:49:31.000Z</time>
      </trkpt>
      <trkpt lat="45.84704" lon="4.77575">
        <ele>592.99591</ele>
        <time>2023-09-02T12:49:32.000Z</time>
      </trkpt>
      <trkpt lat="45.84707" lon="4.77579">
        <ele>593.00262</ele>
        <time>2023-09-02T12:49:33.000Z</time>
      </trkpt>
      <trkpt lat="45.8471" lon="4.77583">
        <ele>594.39606</ele>
        <time>2023-09-02T12:49:34.000Z</time>
      </trkpt>
      <trkpt lat="45.84713" lon="4.77587">
        <ele>595.3266</ele>
        <time>2023-09-02T12:49:35.000Z</time>
      </trkpt>
      <trkpt lat="45.84716" lon="4.77591">
        <ele>596.32874</ele>
        <time>2023-09-02T12:49:36.000Z</time>
      </trkpt>
      <trkpt lat="45.8472" lon="4.77595">
        <ele>597.00879</ele>
        <time>2023-09-02T12:49:37.000Z</time>
      </trkpt>
      <trkpt lat="45.84723" lon="4.77599">
        <ele>597.53253</ele>
        <time>2023-09-02T12:49:38.000Z</time>
      </trkpt>
      <trkpt lat="45.84726" lon="4.77602">
        <ele>597.95459</ele>
        <time>2023-09-02T12:49:39.000Z</time>
      </trkpt>
      <trkpt lat="45.8473" lon="4.77605">
        <ele>598.31659</ele>
        <time>2023-09-02T12:49:40.000Z</time>
      </trkpt>
      <trkpt lat="45.84734" lon="4.77608">
        <ele>598.65918</ele>
        <time>2023-09-02T12:49:41.000Z</time>
      </trkpt>
      <trkpt lat="45.84738" lon="4.77611">
        <ele>598.95032</ele>
        <time>2023-09-02T12:49:42.000Z</time>
      </trkpt>
      <trkpt lat="45.84743" lon="4.77612">
        <ele>599.24805</ele>
        <time>2023-09-02T12:49:43.000Z</time>
      </trkpt>
      <trkpt lat="45.84747" lon="4.77614">
        <ele>599.52185</ele>
        <time>2023-09-02T12:49:44.000Z</time>
      </trkpt>
      <trkpt lat="45.84751" lon="4.77617">
        <ele>599.80103</ele>
        <time>2023-09-02T12:49:45.000Z</time>
      </trkpt>
      <trkpt lat="45.84755" lon="4.77619">
        <ele>600.13458</ele>
        <time>2023-09-02T12:49:46.000Z</time>
      </trkpt>
      <trkpt lat="45.8476" lon="4.77621">
        <ele>600.49341</ele>
        <time>2023-09-02T12:49:47.000Z</time>
      </trkpt>
      <trkpt lat="45.84763" lon="4.77622">
        <ele>600.76184</ele>
        <time>2023-09-02T12:49:48.000Z</time>
      </trkpt>
      <trkpt lat="45.84768" lon="4.77624">
        <ele>601.04456</ele>
        <time>2023-09-02T12:49:49.000Z</time>
      </trkpt>
      <trkpt lat="45.84773" lon="4.77623">
        <ele>601.27283</ele>
        <time>2023-09-02T12:49:50.000Z</time>
      </trkpt>
      <trkpt lat="45.84775" lon="4.77623">
        <ele>601.39337</ele>
        <time>2023-09-02T12:49:51.000Z</time>
      </trkpt>
      <trkpt lat="45.84778" lon="4.77624">
        <ele>601.41296</ele>
        <time>2023-09-02T12:49:52.000Z</time>
      </trkpt>
      <trkpt lat="45.8478" lon="4.77624">
        <ele>601.43579</ele>
        <time>2023-09-02T12:49:53.000Z</time>
      </trkpt>
      <trkpt lat="45.84782" lon="4.77624">
        <ele>601.45667</ele>
        <time>2023-09-02T12:49:54.000Z</time>
      </trkpt>
      <trkpt lat="45.84785" lon="4.77624">
        <ele>601.39075</ele>
        <time>2023-09-02T12:49:55.000Z</time>
      </trkpt>
      <trkpt lat="45.84787" lon="4.77624">
        <ele>601.27527</ele>
        <time>2023-09-02T12:49:56.000Z</time>
      </trkpt>
      <trkpt lat="45.84791" lon="4.77624">
        <ele>601.06946</ele>
        <time>2023-09-02T12:49:57.000Z</time>
      </trkpt>
      <trkpt lat="45.84793" lon="4.77624">
        <ele>600.76337</ele>
        <time>2023-09-02T12:49:58.000Z</time>
      </trkpt>
      <trkpt lat="45.84796" lon="4.77624">
        <ele>600.46924</ele>
        <time>2023-09-02T12:49:59.000Z</time>
      </trkpt>
      <trkpt lat="45.84799" lon="4.77624">
        <ele>600.20868</ele>
        <time>2023-09-02T12:50:00.000Z</time>
      </trkpt>
      <trkpt lat="45.84801" lon="4.77625">
        <ele>600.01624</ele>
        <time>2023-09-02T12:50:01.000Z</time>
      </trkpt>
      <trkpt lat="45.84803" lon="4.77624">
        <ele>599.81561</ele>
        <time>2023-09-02T12:50:02.000Z</time>
      </trkpt>
      <trkpt lat="45.84806" lon="4.77625">
        <ele>599.36438</ele>
        <time>2023-09-02T12:50:03.000Z</time>
      </trkpt>
      <trkpt lat="45.84809" lon="4.77625">
        <ele>599.03387</ele>
        <time>2023-09-02T12:50:04.000Z</time>
      </trkpt>
      <trkpt lat="45.84812" lon="4.77626">
        <ele>598.5072</ele>
        <time>2023-09-02T12:50:05.000Z</time>
      </trkpt>
      <trkpt lat="45.84815" lon="4.77626">
        <ele>598.01544</ele>
        <time>2023-09-02T12:50:06.000Z</time>
      </trkpt>
      <trkpt lat="45.84818" lon="4.77625">
        <ele>597.44354</ele>
        <time>2023-09-02T12:50:07.000Z</time>
      </trkpt>
      <trkpt lat="45.84821" lon="4.77624">
        <ele>596.81464</ele>
        <time>2023-09-02T12:50:08.000Z</time>
      </trkpt>
      <trkpt lat="45.84824" lon="4.77623">
        <ele>596.49469</ele>
        <time>2023-09-02T12:50:09.000Z</time>
      </trkpt>
      <trkpt lat="45.84827" lon="4.77621">
        <ele>596.19592</ele>
        <time>2023-09-02T12:50:10.000Z</time>
      </trkpt>
      <trkpt lat="45.8483" lon="4.77621">
        <ele>595.95746</ele>
        <time>2023-09-02T12:50:11.000Z</time>
      </trkpt>
      <trkpt lat="45.84833" lon="4.77621">
        <ele>595.8598</ele>
        <time>2023-09-02T12:50:12.000Z</time>
      </trkpt>
      <trkpt lat="45.84835" lon="4.77621">
        <ele>595.6842</ele>
        <time>2023-09-02T12:50:13.000Z</time>
      </trkpt>
      <trkpt lat="45.84837" lon="4.77621">
        <ele>595.34601</ele>
        <time>2023-09-02T12:50:14.000Z</time>
      </trkpt>
      <trkpt lat="45.8484" lon="4.77621">
        <ele>595.07538</ele>
        <time>2023-09-02T12:50:15.000Z</time>
      </trkpt>
      <trkpt lat="45.84843" lon="4.7762">
        <ele>594.87512</ele>
        <time>2023-09-02T12:50:16.000Z</time>
      </trkpt>
      <trkpt lat="45.84846" lon="4.77619">
        <ele>594.71912</ele>
        <time>2023-09-02T12:50:17.000Z</time>
      </trkpt>
      <trkpt lat="45.84848" lon="4.77619">
        <ele>594.27795</ele>
        <time>2023-09-02T12:50:18.000Z</time>
      </trkpt>
      <trkpt lat="45.84851" lon="4.77618">
        <ele>593.93048</ele>
        <time>2023-09-02T12:50:19.000Z</time>
      </trkpt>
      <trkpt lat="45.84856" lon="4.77618">
        <ele>593.63428</ele>
        <time>2023-09-02T12:50:20.000Z</time>
      </trkpt>
      <trkpt lat="45.8486" lon="4.77618">
        <ele>593.26514</ele>
        <time>2023-09-02T12:50:21.000Z</time>
      </trkpt>
      <trkpt lat="45.84865" lon="4.77618">
        <ele>592.85364</ele>
        <time>2023-09-02T12:50:22.000Z</time>
      </trkpt>
      <trkpt lat="45.8487" lon="4.77617">
        <ele>592.62158</ele>
        <time>2023-09-02T12:50:23.000Z</time>
      </trkpt>
      <trkpt lat="45.84875" lon="4.77617">
        <ele>592.26428</ele>
        <time>2023-09-02T12:50:24.000Z</time>
      </trkpt>
      <trkpt lat="45.84879" lon="4.77617">
        <ele>592.27136</ele>
        <time>2023-09-02T12:50:25.000Z</time>
      </trkpt>
      <trkpt lat="45.84884" lon="4.77616">
        <ele>592.22992</ele>
        <time>2023-09-02T12:50:26.000Z</time>
      </trkpt>
      <trkpt lat="45.84888" lon="4.77616">
        <ele>592.0481</ele>
        <time>2023-09-02T12:50:27.000Z</time>
      </trkpt>
      <trkpt lat="45.84892" lon="4.77616">
        <ele>592.0824</ele>
        <time>2023-09-02T12:50:28.000Z</time>
      </trkpt>
      <trkpt lat="45.84896" lon="4.77615">
        <ele>591.83704</ele>
        <time>2023-09-02T12:50:29.000Z</time>
      </trkpt>
      <trkpt lat="45.849" lon="4.77615">
        <ele>591.67102</ele>
        <time>2023-09-02T12:50:30.000Z</time>
      </trkpt>
      <trkpt lat="45.84904" lon="4.77615">
        <ele>591.47827</ele>
        <time>2023-09-02T12:50:31.000Z</time>
      </trkpt>
      <trkpt lat="45.84908" lon="4.77615">
        <ele>591.27643</ele>
        <time>2023-09-02T12:50:32.000Z</time>
      </trkpt>
      <trkpt lat="45.84913" lon="4.77615">
        <ele>591.12952</ele>
        <time>2023-09-02T12:50:33.000Z</time>
      </trkpt>
      <trkpt lat="45.84917" lon="4.77615">
        <ele>591.16638</ele>
        <time>2023-09-02T12:50:34.000Z</time>
      </trkpt>
      <trkpt lat="45.84922" lon="4.77616">
        <ele>591.11975</ele>
        <time>2023-09-02T12:50:35.000Z</time>
      </trkpt>
      <trkpt lat="45.84926" lon="4.77616">
        <ele>591.11395</ele>
        <time>2023-09-02T12:50:36.000Z</time>
      </trkpt>
      <trkpt lat="45.8493" lon="4.77616">
        <ele>591.2467</ele>
        <time>2023-09-02T12:50:37.000Z</time>
      </trkpt>
      <trkpt lat="45.84935" lon="4.77617">
        <ele>591.45776</ele>
        <time>2023-09-02T12:50:38.000Z</time>
      </trkpt>
      <trkpt lat="45.8494" lon="4.77617">
        <ele>591.57074</ele>
        <time>2023-09-02T12:50:39.000Z</time>
      </trkpt>
      <trkpt lat="45.84944" lon="4.77618">
        <ele>591.6145</ele>
        <time>2023-09-02T12:50:40.000Z</time>
      </trkpt>
      <trkpt lat="45.84948" lon="4.77619">
        <ele>591.6532</ele>
        <time>2023-09-02T12:50:41.000Z</time>
      </trkpt>
      <trkpt lat="45.84953" lon="4.77619">
        <ele>591.75714</ele>
        <time>2023-09-02T12:50:42.000Z</time>
      </trkpt>
      <trkpt lat="45.84957" lon="4.7762">
        <ele>589.28485</ele>
        <time>2023-09-02T12:50:43.000Z</time>
      </trkpt>
      <trkpt lat="45.84961" lon="4.7762">
        <ele>588.45135</ele>
        <time>2023-09-02T12:50:44.000Z</time>
      </trkpt>
      <trkpt lat="45.84965" lon="4.7762">
        <ele>587.04395</ele>
        <time>2023-09-02T12:50:45.000Z</time>
      </trkpt>
      <trkpt lat="45.84969" lon="4.7762">
        <ele>586.55731</ele>
        <time>2023-09-02T12:50:46.000Z</time>
      </trkpt>
      <trkpt lat="45.84973" lon="4.77619">
        <ele>586.18811</ele>
        <time>2023-09-02T12:50:47.000Z</time>
      </trkpt>
      <trkpt lat="45.84978" lon="4.77619">
        <ele>585.67761</ele>
        <time>2023-09-02T12:50:48.000Z</time>
      </trkpt>
      <trkpt lat="45.84983" lon="4.7762">
        <ele>585.32434</ele>
        <time>2023-09-02T12:50:49.000Z</time>
      </trkpt>
      <trkpt lat="45.84989" lon="4.77621">
        <ele>584.8797</ele>
        <time>2023-09-02T12:50:50.000Z</time>
      </trkpt>
      <trkpt lat="45.84996" lon="4.77623">
        <ele>584.52478</ele>
        <time>2023-09-02T12:50:51.000Z</time>
      </trkpt>
      <trkpt lat="45.85001" lon="4.77625">
        <ele>584.15302</ele>
        <time>2023-09-02T12:50:52.000Z</time>
      </trkpt>
      <trkpt lat="45.85007" lon="4.77628">
        <ele>583.77814</ele>
        <time>2023-09-02T12:50:53.000Z</time>
      </trkpt>
      <trkpt lat="45.85013" lon="4.7763">
        <ele>583.16028</ele>
        <time>2023-09-02T12:50:54.000Z</time>
      </trkpt>
      <trkpt lat="45.85018" lon="4.77632">
        <ele>582.25867</ele>
        <time>2023-09-02T12:50:55.000Z</time>
      </trkpt>
      <trkpt lat="45.85024" lon="4.77635">
        <ele>581.19995</ele>
        <time>2023-09-02T12:50:56.000Z</time>
      </trkpt>
      <trkpt lat="45.85029" lon="4.77638">
        <ele>580.04773</ele>
        <time>2023-09-02T12:50:57.000Z</time>
      </trkpt>
      <trkpt lat="45.85033" lon="4.77641">
        <ele>579.22888</ele>
        <time>2023-09-02T12:50:58.000Z</time>
      </trkpt>
      <trkpt lat="45.85036" lon="4.77645">
        <ele>578.38269</ele>
        <time>2023-09-02T12:50:59.000Z</time>
      </trkpt>
      <trkpt lat="45.85039" lon="4.77648">
        <ele>577.63043</ele>
        <time>2023-09-02T12:51:00.000Z</time>
      </trkpt>
      <trkpt lat="45.85041" lon="4.77651">
        <ele>576.99719</ele>
        <time>2023-09-02T12:51:01.000Z</time>
      </trkpt>
      <trkpt lat="45.85044" lon="4.77654">
        <ele>576.45264</ele>
        <time>2023-09-02T12:51:02.000Z</time>
      </trkpt>
      <trkpt lat="45.85046" lon="4.77658">
        <ele>579.06689</ele>
        <time>2023-09-02T12:51:03.000Z</time>
      </trkpt>
      <trkpt lat="45.85047" lon="4.7766">
        <ele>579.98682</ele>
        <time>2023-09-02T12:51:04.000Z</time>
      </trkpt>
      <trkpt lat="45.85049" lon="4.77662">
        <ele>580.99475</ele>
        <time>2023-09-02T12:51:05.000Z</time>
      </trkpt>
      <trkpt lat="45.8505" lon="4.7766">
        <ele>582.04333</ele>
        <time>2023-09-02T12:51:39.000Z</time>
      </trkpt>
      <trkpt lat="45.85051" lon="4.77658">
        <ele>583.17175</ele>
        <time>2023-09-02T12:51:42.000Z</time>
      </trkpt>
      <trkpt lat="45.8505" lon="4.77655">
        <ele>584.33014</ele>
        <time>2023-09-02T12:51:44.000Z</time>
      </trkpt>
      <trkpt lat="45.85049" lon="4.77651">
        <ele>585.31165</ele>
        <time>2023-09-02T12:51:46.000Z</time>
      </trkpt>
      <trkpt lat="45.85048" lon="4.77648">
        <ele>586.3219</ele>
        <time>2023-09-02T12:51:47.000Z</time>
      </trkpt>
      <trkpt lat="45.85046" lon="4.77646">
        <ele>587.3255</ele>
        <time>2023-09-02T12:51:48.000Z</time>
      </trkpt>
      <trkpt lat="45.85045" lon="4.77643">
        <ele>588.31744</ele>
        <time>2023-09-02T12:51:49.000Z</time>
      </trkpt>
      <trkpt lat="45.85044" lon="4.77641">
        <ele>589.33722</ele>
        <time>2023-09-02T12:51:50.000Z</time>
      </trkpt>
      <trkpt lat="45.85045" lon="4.77637">
        <ele>589.56018</ele>
        <time>2023-09-02T12:51:52.000Z</time>
      </trkpt>
      <trkpt lat="45.85049" lon="4.77637">
        <ele>590.33313</ele>
        <time>2023-09-02T12:51:53.000Z</time>
      </trkpt>
      <trkpt lat="45.85053" lon="4.77637">
        <ele>591.1792</ele>
        <time>2023-09-02T12:51:54.000Z</time>
      </trkpt>
      <trkpt lat="45.85058" lon="4.77638">
        <ele>591.99054</ele>
        <time>2023-09-02T12:51:55.000Z</time>
      </trkpt>
      <trkpt lat="45.85063" lon="4.77638">
        <ele>592.74744</ele>
        <time>2023-09-02T12:51:56.000Z</time>
      </trkpt>
      <trkpt lat="45.85068" lon="4.77637">
        <ele>593.49976</ele>
        <time>2023-09-02T12:51:57.000Z</time>
      </trkpt>
      <trkpt lat="45.85073" lon="4.77636">
        <ele>594.40948</ele>
        <time>2023-09-02T12:51:58.000Z</time>
      </trkpt>
      <trkpt lat="45.85077" lon="4.77635">
        <ele>595.21094</ele>
        <time>2023-09-02T12:51:59.000Z</time>
      </trkpt>
      <trkpt lat="45.85082" lon="4.77634">
        <ele>595.90485</ele>
        <time>2023-09-02T12:52:00.000Z</time>
      </trkpt>
      <trkpt lat="45.85086" lon="4.77633">
        <ele>596.06958</ele>
        <time>2023-09-02T12:52:01.000Z</time>
      </trkpt>
      <trkpt lat="45.85084" lon="4.77635">
        <ele>596.67963</ele>
        <time>2023-09-02T12:52:05.000Z</time>
      </trkpt>
      <trkpt lat="45.85086" lon="4.77634">
        <ele>597.53357</ele>
        <time>2023-09-02T12:52:09.000Z</time>
      </trkpt>
      <trkpt lat="45.85088" lon="4.77634">
        <ele>597.45111</ele>
        <time>2023-09-02T12:52:10.000Z</time>
      </trkpt>
      <trkpt lat="45.85092" lon="4.77633">
        <ele>597.42566</ele>
        <time>2023-09-02T12:52:11.000Z</time>
      </trkpt>
      <trkpt lat="45.85096" lon="4.77633">
        <ele>597.32898</ele>
        <time>2023-09-02T12:52:12.000Z</time>
      </trkpt>
      <trkpt lat="45.85101" lon="4.77632">
        <ele>597.20203</ele>
        <time>2023-09-02T12:52:13.000Z</time>
      </trkpt>
      <trkpt lat="45.85106" lon="4.7763">
        <ele>597.07336</ele>
        <time>2023-09-02T12:52:14.000Z</time>
      </trkpt>
      <trkpt lat="45.85111" lon="4.77629">
        <ele>596.9024</ele>
        <time>2023-09-02T12:52:15.000Z</time>
      </trkpt>
      <trkpt lat="45.85116" lon="4.77628">
        <ele>596.70178</ele>
        <time>2023-09-02T12:52:16.000Z</time>
      </trkpt>
      <trkpt lat="45.8512" lon="4.77627">
        <ele>596.5119</ele>
        <time>2023-09-02T12:52:17.000Z</time>
      </trkpt>
      <trkpt lat="45.85125" lon="4.77625">
        <ele>597.31201</ele>
        <time>2023-09-02T12:52:18.000Z</time>
      </trkpt>
      <trkpt lat="45.85131" lon="4.77624">
        <ele>597.79462</ele>
        <time>2023-09-02T12:52:19.000Z</time>
      </trkpt>
      <trkpt lat="45.85135" lon="4.77623">
        <ele>598.24963</ele>
        <time>2023-09-02T12:52:20.000Z</time>
      </trkpt>
      <trkpt lat="45.8514" lon="4.77622">
        <ele>598.68738</ele>
        <time>2023-09-02T12:52:21.000Z</time>
      </trkpt>
      <trkpt lat="45.85145" lon="4.77621">
        <ele>599.11688</ele>
        <time>2023-09-02T12:52:22.000Z</time>
      </trkpt>
      <trkpt lat="45.8515" lon="4.7762">
        <ele>599.52472</ele>
        <time>2023-09-02T12:52:23.000Z</time>
      </trkpt>
      <trkpt lat="45.85155" lon="4.77618">
        <ele>599.54504</ele>
        <time>2023-09-02T12:52:24.000Z</time>
      </trkpt>
      <trkpt lat="45.8516" lon="4.77617">
        <ele>599.53021</ele>
        <time>2023-09-02T12:52:25.000Z</time>
      </trkpt>
      <trkpt lat="45.85166" lon="4.77616">
        <ele>599.48877</ele>
        <time>2023-09-02T12:52:26.000Z</time>
      </trkpt>
      <trkpt lat="45.8517" lon="4.77615">
        <ele>599.42462</ele>
        <time>2023-09-02T12:52:27.000Z</time>
      </trkpt>
      <trkpt lat="45.85173" lon="4.77613">
        <ele>598.98016</ele>
        <time>2023-09-02T12:52:28.000Z</time>
      </trkpt>
      <trkpt lat="45.85176" lon="4.77611">
        <ele>598.59363</ele>
        <time>2023-09-02T12:52:29.000Z</time>
      </trkpt>
      <trkpt lat="45.85178" lon="4.77607">
        <ele>598.2326</ele>
        <time>2023-09-02T12:52:30.000Z</time>
      </trkpt>
      <trkpt lat="45.85181" lon="4.77604">
        <ele>597.80957</ele>
        <time>2023-09-02T12:52:31.000Z</time>
      </trkpt>
      <trkpt lat="45.85184" lon="4.77602">
        <ele>597.37927</ele>
        <time>2023-09-02T12:52:32.000Z</time>
      </trkpt>
      <trkpt lat="45.85187" lon="4.77602">
        <ele>596.9303</ele>
        <time>2023-09-02T12:52:33.000Z</time>
      </trkpt>
      <trkpt lat="45.85191" lon="4.77604">
        <ele>596.41431</ele>
        <time>2023-09-02T12:52:34.000Z</time>
      </trkpt>
      <trkpt lat="45.85195" lon="4.77607">
        <ele>595.88873</ele>
        <time>2023-09-02T12:52:35.000Z</time>
      </trkpt>
      <trkpt lat="45.85199" lon="4.77612">
        <ele>595.29193</ele>
        <time>2023-09-02T12:52:36.000Z</time>
      </trkpt>
      <trkpt lat="45.85203" lon="4.77617">
        <ele>594.6496</ele>
        <time>2023-09-02T12:52:37.000Z</time>
      </trkpt>
      <trkpt lat="45.85207" lon="4.77623">
        <ele>594.04626</ele>
        <time>2023-09-02T12:52:38.000Z</time>
      </trkpt>
      <trkpt lat="45.85212" lon="4.7763">
        <ele>593.44214</ele>
        <time>2023-09-02T12:52:39.000Z</time>
      </trkpt>
      <trkpt lat="45.85217" lon="4.77637">
        <ele>592.84534</ele>
        <time>2023-09-02T12:52:40.000Z</time>
      </trkpt>
      <trkpt lat="45.85222" lon="4.77644">
        <ele>592.26678</ele>
        <time>2023-09-02T12:52:41.000Z</time>
      </trkpt>
      <trkpt lat="45.85227" lon="4.77651">
        <ele>591.69647</ele>
        <time>2023-09-02T12:52:42.000Z</time>
      </trkpt>
      <trkpt lat="45.85233" lon="4.77658">
        <ele>591.19391</ele>
        <time>2023-09-02T12:52:43.000Z</time>
      </trkpt>
      <trkpt lat="45.85241" lon="4.77666">
        <ele>590.78705</ele>
        <time>2023-09-02T12:52:44.000Z</time>
      </trkpt>
      <trkpt lat="45.85246" lon="4.77673">
        <ele>590.37512</ele>
        <time>2023-09-02T12:52:45.000Z</time>
      </trkpt>
      <trkpt lat="45.85253" lon="4.77681">
        <ele>590.04083</ele>
        <time>2023-09-02T12:52:46.000Z</time>
      </trkpt>
      <trkpt lat="45.85258" lon="4.77688">
        <ele>589.70593</ele>
        <time>2023-09-02T12:52:47.000Z</time>
      </trkpt>
      <trkpt lat="45.85264" lon="4.77694">
        <ele>589.31378</ele>
        <time>2023-09-02T12:52:48.000Z</time>
      </trkpt>
      <trkpt lat="45.85268" lon="4.777">
        <ele>588.90009</ele>
        <time>2023-09-02T12:52:49.000Z</time>
      </trkpt>
      <trkpt lat="45.85272" lon="4.77706">
        <ele>588.48236</ele>
        <time>2023-09-02T12:52:50.000Z</time>
      </trkpt>
      <trkpt lat="45.85275" lon="4.77712">
        <ele>588.08698</ele>
        <time>2023-09-02T12:52:51.000Z</time>
      </trkpt>
      <trkpt lat="45.85276" lon="4.7772">
        <ele>587.71521</ele>
        <time>2023-09-02T12:52:52.000Z</time>
      </trkpt>
      <trkpt lat="45.85276" lon="4.77726">
        <ele>587.44568</ele>
        <time>2023-09-02T12:52:53.000Z</time>
      </trkpt>
      <trkpt lat="45.85275" lon="4.77733">
        <ele>587.23718</ele>
        <time>2023-09-02T12:52:54.000Z</time>
      </trkpt>
      <trkpt lat="45.85276" lon="4.77739">
        <ele>586.86298</ele>
        <time>2023-09-02T12:52:55.000Z</time>
      </trkpt>
      <trkpt lat="45.85276" lon="4.77745">
        <ele>586.54913</ele>
        <time>2023-09-02T12:52:56.000Z</time>
      </trkpt>
      <trkpt lat="45.85276" lon="4.7775">
        <ele>586.2948</ele>
        <time>2023-09-02T12:52:57.000Z</time>
      </trkpt>
      <trkpt lat="45.85276" lon="4.77755">
        <ele>586.03876</ele>
        <time>2023-09-02T12:52:58.000Z</time>
      </trkpt>
      <trkpt lat="45.85277" lon="4.77759">
        <ele>585.79065</ele>
        <time>2023-09-02T12:52:59.000Z</time>
      </trkpt>
      <trkpt lat="45.85277" lon="4.77763">
        <ele>585.55414</ele>
        <time>2023-09-02T12:53:00.000Z</time>
      </trkpt>
      <trkpt lat="45.85277" lon="4.77767">
        <ele>585.32434</ele>
        <time>2023-09-02T12:53:01.000Z</time>
      </trkpt>
      <trkpt lat="45.85279" lon="4.77772">
        <ele>585.34491</ele>
        <time>2023-09-02T12:53:02.000Z</time>
      </trkpt>
      <trkpt lat="45.85279" lon="4.77776">
        <ele>585.34338</ele>
        <time>2023-09-02T12:53:03.000Z</time>
      </trkpt>
      <trkpt lat="45.8528" lon="4.77781">
        <ele>585.36206</ele>
        <time>2023-09-02T12:53:04.000Z</time>
      </trkpt>
      <trkpt lat="45.85281" lon="4.77786">
        <ele>585.39746</ele>
        <time>2023-09-02T12:53:05.000Z</time>
      </trkpt>
      <trkpt lat="45.85282" lon="4.77791">
        <ele>585.16541</ele>
        <time>2023-09-02T12:53:06.000Z</time>
      </trkpt>
      <trkpt lat="45.85282" lon="4.77795">
        <ele>584.94788</ele>
        <time>2023-09-02T12:53:07.000Z</time>
      </trkpt>
      <trkpt lat="45.85282" lon="4.77798">
        <ele>584.77716</ele>
        <time>2023-09-02T12:53:14.000Z</time>
      </trkpt>
      <trkpt lat="45.85282" lon="4.77801">
        <ele>584.61444</ele>
        <time>2023-09-02T12:53:23.000Z</time>
      </trkpt>
      <trkpt lat="45.85283" lon="4.77805">
        <ele>584.48804</ele>
        <time>2023-09-02T12:53:25.000Z</time>
      </trkpt>
      <trkpt lat="45.85283" lon="4.77809">
        <ele>584.36395</ele>
        <time>2023-09-02T12:53:26.000Z</time>
      </trkpt>
      <trkpt lat="45.85284" lon="4.77813">
        <ele>584.22406</ele>
        <time>2023-09-02T12:53:27.000Z</time>
      </trkpt>
      <trkpt lat="45.85286" lon="4.77818">
        <ele>583.98596</ele>
        <time>2023-09-02T12:53:28.000Z</time>
      </trkpt>
      <trkpt lat="45.85287" lon="4.77822">
        <ele>583.73962</ele>
        <time>2023-09-02T12:53:29.000Z</time>
      </trkpt>
      <trkpt lat="45.85288" lon="4.77827">
        <ele>583.65485</ele>
        <time>2023-09-02T12:53:30.000Z</time>
      </trkpt>
      <trkpt lat="45.85289" lon="4.77831">
        <ele>583.58771</ele>
        <time>2023-09-02T12:53:31.000Z</time>
      </trkpt>
      <trkpt lat="45.85289" lon="4.77836">
        <ele>583.5022</ele>
        <time>2023-09-02T12:53:32.000Z</time>
      </trkpt>
      <trkpt lat="45.85289" lon="4.7784">
        <ele>583.41754</ele>
        <time>2023-09-02T12:53:33.000Z</time>
      </trkpt>
      <trkpt lat="45.85289" lon="4.77844">
        <ele>583.36212</ele>
        <time>2023-09-02T12:53:34.000Z</time>
      </trkpt>
      <trkpt lat="45.8529" lon="4.77848">
        <ele>583.58893</ele>
        <time>2023-09-02T12:53:35.000Z</time>
      </trkpt>
      <trkpt lat="45.8529" lon="4.77852">
        <ele>583.82751</ele>
        <time>2023-09-02T12:53:36.000Z</time>
      </trkpt>
      <trkpt lat="45.85291" lon="4.77855">
        <ele>583.82941</ele>
        <time>2023-09-02T12:53:37.000Z</time>
      </trkpt>
      <trkpt lat="45.85292" lon="4.77858">
        <ele>583.59436</ele>
        <time>2023-09-02T12:53:38.000Z</time>
      </trkpt>
      <trkpt lat="45.85292" lon="4.77861">
        <ele>583.37994</ele>
        <time>2023-09-02T12:53:39.000Z</time>
      </trkpt>
      <trkpt lat="45.85293" lon="4.77865">
        <ele>583.11511</ele>
        <time>2023-09-02T12:53:40.000Z</time>
      </trkpt>
      <trkpt lat="45.85293" lon="4.77868">
        <ele>583.08496</ele>
        <time>2023-09-02T12:53:41.000Z</time>
      </trkpt>
      <trkpt lat="45.85293" lon="4.77871">
        <ele>583.05042</ele>
        <time>2023-09-02T12:53:42.000Z</time>
      </trkpt>
      <trkpt lat="45.85294" lon="4.77874">
        <ele>583.03259</ele>
        <time>2023-09-02T12:53:43.000Z</time>
      </trkpt>
      <trkpt lat="45.85295" lon="4.77878">
        <ele>582.99463</ele>
        <time>2023-09-02T12:53:44.000Z</time>
      </trkpt>
      <trkpt lat="45.85295" lon="4.77881">
        <ele>582.92316</ele>
        <time>2023-09-02T12:53:45.000Z</time>
      </trkpt>
      <trkpt lat="45.85295" lon="4.77884">
        <ele>582.85992</ele>
        <time>2023-09-02T12:53:46.000Z</time>
      </trkpt>
      <trkpt lat="45.85295" lon="4.77888">
        <ele>582.79877</ele>
        <time>2023-09-02T12:53:47.000Z</time>
      </trkpt>
      <trkpt lat="45.85295" lon="4.77891">
        <ele>582.75085</ele>
        <time>2023-09-02T12:53:48.000Z</time>
      </trkpt>
      <trkpt lat="45.85296" lon="4.77895">
        <ele>582.71558</ele>
        <time>2023-09-02T12:53:49.000Z</time>
      </trkpt>
      <trkpt lat="45.85296" lon="4.77898">
        <ele>582.67438</ele>
        <time>2023-09-02T12:53:50.000Z</time>
      </trkpt>
      <trkpt lat="45.85296" lon="4.77902">
        <ele>582.64563</ele>
        <time>2023-09-02T12:53:51.000Z</time>
      </trkpt>
      <trkpt lat="45.85296" lon="4.77905">
        <ele>582.60455</ele>
        <time>2023-09-02T12:53:52.000Z</time>
      </trkpt>
      <trkpt lat="45.85297" lon="4.77908">
        <ele>582.58032</ele>
        <time>2023-09-02T12:53:53.000Z</time>
      </trkpt>
      <trkpt lat="45.85297" lon="4.77912">
        <ele>582.48743</ele>
        <time>2023-09-02T12:53:54.000Z</time>
      </trkpt>
      <trkpt lat="45.85298" lon="4.77916">
        <ele>582.10315</ele>
        <time>2023-09-02T12:53:55.000Z</time>
      </trkpt>
      <trkpt lat="45.85299" lon="4.77919">
        <ele>581.7052</ele>
        <time>2023-09-02T12:53:56.000Z</time>
      </trkpt>
      <trkpt lat="45.85299" lon="4.77923">
        <ele>581.30823</ele>
        <time>2023-09-02T12:53:57.000Z</time>
      </trkpt>
      <trkpt lat="45.85299" lon="4.77927">
        <ele>581.14972</ele>
        <time>2023-09-02T12:53:58.000Z</time>
      </trkpt>
      <trkpt lat="45.853" lon="4.77931">
        <ele>581.01282</ele>
        <time>2023-09-02T12:53:59.000Z</time>
      </trkpt>
      <trkpt lat="45.853" lon="4.77935">
        <ele>580.95947</ele>
        <time>2023-09-02T12:54:00.000Z</time>
      </trkpt>
      <trkpt lat="45.85301" lon="4.77938">
        <ele>580.92957</ele>
        <time>2023-09-02T12:54:01.000Z</time>
      </trkpt>
      <trkpt lat="45.85303" lon="4.77942">
        <ele>580.90497</ele>
        <time>2023-09-02T12:54:02.000Z</time>
      </trkpt>
      <trkpt lat="45.85304" lon="4.77946">
        <ele>580.86218</ele>
        <time>2023-09-02T12:54:03.000Z</time>
      </trkpt>
      <trkpt lat="45.85304" lon="4.7795">
        <ele>580.84161</ele>
        <time>2023-09-02T12:54:04.000Z</time>
      </trkpt>
      <trkpt lat="45.85305" lon="4.77955">
        <ele>580.80878</ele>
        <time>2023-09-02T12:54:05.000Z</time>
      </trkpt>
      <trkpt lat="45.85305" lon="4.77959">
        <ele>580.77795</ele>
        <time>2023-09-02T12:54:06.000Z</time>
      </trkpt>
      <trkpt lat="45.85306" lon="4.77964">
        <ele>580.75488</ele>
        <time>2023-09-02T12:54:07.000Z</time>
      </trkpt>
      <trkpt lat="45.85306" lon="4.77968">
        <ele>580.72418</ele>
        <time>2023-09-02T12:54:08.000Z</time>
      </trkpt>
      <trkpt lat="45.85307" lon="4.77971">
        <ele>580.7019</ele>
        <time>2023-09-02T12:54:10.000Z</time>
      </trkpt>
      <trkpt lat="45.8531" lon="4.77973">
        <ele>580.70801</ele>
        <time>2023-09-02T12:54:20.000Z</time>
      </trkpt>
      <trkpt lat="45.85312" lon="4.77974">
        <ele>580.68579</ele>
        <time>2023-09-02T12:54:21.000Z</time>
      </trkpt>
      <trkpt lat="45.85315" lon="4.77974">
        <ele>580.64722</ele>
        <time>2023-09-02T12:54:22.000Z</time>
      </trkpt>
      <trkpt lat="45.85319" lon="4.77974">
        <ele>580.60089</ele>
        <time>2023-09-02T12:54:23.000Z</time>
      </trkpt>
      <trkpt lat="45.85324" lon="4.77972">
        <ele>580.61084</ele>
        <time>2023-09-02T12:54:24.000Z</time>
      </trkpt>
      <trkpt lat="45.85329" lon="4.77969">
        <ele>580.61987</ele>
        <time>2023-09-02T12:54:25.000Z</time>
      </trkpt>
      <trkpt lat="45.85334" lon="4.77967">
        <ele>580.61768</ele>
        <time>2023-09-02T12:54:26.000Z</time>
      </trkpt>
      <trkpt lat="45.85338" lon="4.77963">
        <ele>580.62781</ele>
        <time>2023-09-02T12:54:27.000Z</time>
      </trkpt>
      <trkpt lat="45.85343" lon="4.77959">
        <ele>580.61969</ele>
        <time>2023-09-02T12:54:28.000Z</time>
      </trkpt>
      <trkpt lat="45.85349" lon="4.77955">
        <ele>580.57251</ele>
        <time>2023-09-02T12:54:29.000Z</time>
      </trkpt>
      <trkpt lat="45.85353" lon="4.77953">
        <ele>580.47363</ele>
        <time>2023-09-02T12:54:30.000Z</time>
      </trkpt>
      <trkpt lat="45.85356" lon="4.77952">
        <ele>580.33826</ele>
        <time>2023-09-02T12:54:31.000Z</time>
      </trkpt>
      <trkpt lat="45.85358" lon="4.7795">
        <ele>580.17328</ele>
        <time>2023-09-02T12:54:32.000Z</time>
      </trkpt>
      <trkpt lat="45.8536" lon="4.77949">
        <ele>579.96063</ele>
        <time>2023-09-02T12:54:33.000Z</time>
      </trkpt>
      <trkpt lat="45.85363" lon="4.77948">
        <ele>579.76947</ele>
        <time>2023-09-02T12:54:35.000Z</time>
      </trkpt>
      <trkpt lat="45.85366" lon="4.77948">
        <ele>579.49628</ele>
        <time>2023-09-02T12:54:57.000Z</time>
      </trkpt>
      <trkpt lat="45.85368" lon="4.7795">
        <ele>579.21399</ele>
        <time>2023-09-02T12:54:58.000Z</time>
      </trkpt>
      <trkpt lat="45.8537" lon="4.77952">
        <ele>578.89075</ele>
        <time>2023-09-02T12:54:59.000Z</time>
      </trkpt>
      <trkpt lat="45.85372" lon="4.77955">
        <ele>578.57977</ele>
        <time>2023-09-02T12:55:00.000Z</time>
      </trkpt>
      <trkpt lat="45.85373" lon="4.77957">
        <ele>578.39105</ele>
        <time>2023-09-02T12:55:01.000Z</time>
      </trkpt>
      <trkpt lat="45.85374" lon="4.77961">
        <ele>578.18744</ele>
        <time>2023-09-02T12:55:03.000Z</time>
      </trkpt>
      <trkpt lat="45.85375" lon="4.77963">
        <ele>578.11829</ele>
        <time>2023-09-02T12:55:12.000Z</time>
      </trkpt>
      <trkpt lat="45.85372" lon="4.77962">
        <ele>578.14313</ele>
        <time>2023-09-02T12:55:30.000Z</time>
      </trkpt>
      <trkpt lat="45.85369" lon="4.77959">
        <ele>578.15955</ele>
        <time>2023-09-02T12:55:32.000Z</time>
      </trkpt>
      <trkpt lat="45.85368" lon="4.77956">
        <ele>578.17395</ele>
        <time>2023-09-02T12:55:33.000Z</time>
      </trkpt>
      <trkpt lat="45.85366" lon="4.77952">
        <ele>578.17419</ele>
        <time>2023-09-02T12:55:35.000Z</time>
      </trkpt>
      <trkpt lat="45.85364" lon="4.77951">
        <ele>578.32843</ele>
        <time>2023-09-02T12:55:37.000Z</time>
      </trkpt>
      <trkpt lat="45.85361" lon="4.77952">
        <ele>578.31348</ele>
        <time>2023-09-02T12:55:39.000Z</time>
      </trkpt>
      <trkpt lat="45.85358" lon="4.77952">
        <ele>578.29895</ele>
        <time>2023-09-02T12:55:41.000Z</time>
      </trkpt>
      <trkpt lat="45.85356" lon="4.77952">
        <ele>578.29639</ele>
        <time>2023-09-02T12:55:42.000Z</time>
      </trkpt>
      <trkpt lat="45.85354" lon="4.77952">
        <ele>578.33301</ele>
        <time>2023-09-02T12:55:43.000Z</time>
      </trkpt>
      <trkpt lat="45.85352" lon="4.77952">
        <ele>578.39398</ele>
        <time>2023-09-02T12:55:44.000Z</time>
      </trkpt>
      <trkpt lat="45.8535" lon="4.77953">
        <ele>578.4328</ele>
        <time>2023-09-02T12:55:45.000Z</time>
      </trkpt>
      <trkpt lat="45.85348" lon="4.77954">
        <ele>578.51233</ele>
        <time>2023-09-02T12:55:46.000Z</time>
      </trkpt>
      <trkpt lat="45.85346" lon="4.77955">
        <ele>578.57959</ele>
        <time>2023-09-02T12:55:47.000Z</time>
      </trkpt>
      <trkpt lat="45.85343" lon="4.77957">
        <ele>578.76013</ele>
        <time>2023-09-02T12:55:49.000Z</time>
      </trkpt>
      <trkpt lat="45.85341" lon="4.77959">
        <ele>578.96124</ele>
        <time>2023-09-02T12:55:50.000Z</time>
      </trkpt>
      <trkpt lat="45.85339" lon="4.77961">
        <ele>579.21985</ele>
        <time>2023-09-02T12:55:51.000Z</time>
      </trkpt>
      <trkpt lat="45.85337" lon="4.77962">
        <ele>579.40967</ele>
        <time>2023-09-02T12:55:52.000Z</time>
      </trkpt>
      <trkpt lat="45.85335" lon="4.77963">
        <ele>579.45349</ele>
        <time>2023-09-02T12:55:53.000Z</time>
      </trkpt>
      <trkpt lat="45.85332" lon="4.77966">
        <ele>579.51868</ele>
        <time>2023-09-02T12:55:55.000Z</time>
      </trkpt>
      <trkpt lat="45.85329" lon="4.77968">
        <ele>579.48889</ele>
        <time>2023-09-02T12:55:56.000Z</time>
      </trkpt>
      <trkpt lat="45.85326" lon="4.7797">
        <ele>579.38647</ele>
        <time>2023-09-02T12:55:57.000Z</time>
      </trkpt>
      <trkpt lat="45.85324" lon="4.77971">
        <ele>579.29456</ele>
        <time>2023-09-02T12:55:58.000Z</time>
      </trkpt>
      <trkpt lat="45.85321" lon="4.77971">
        <ele>579.23083</ele>
        <time>2023-09-02T12:55:59.000Z</time>
      </trkpt>
      <trkpt lat="45.85319" lon="4.7797">
        <ele>579.19519</ele>
        <time>2023-09-02T12:56:00.000Z</time>
      </trkpt>
      <trkpt lat="45.85316" lon="4.7797">
        <ele>579.04089</ele>
        <time>2023-09-02T12:56:01.000Z</time>
      </trkpt>
      <trkpt lat="45.85314" lon="4.77968">
        <ele>579.04266</ele>
        <time>2023-09-02T12:56:02.000Z</time>
      </trkpt>
      <trkpt lat="45.85311" lon="4.77967">
        <ele>579.0824</ele>
        <time>2023-09-02T12:56:03.000Z</time>
      </trkpt>
      <trkpt lat="45.8531" lon="4.77964">
        <ele>579.15149</ele>
        <time>2023-09-02T12:56:04.000Z</time>
      </trkpt>
      <trkpt lat="45.85308" lon="4.77961">
        <ele>579.20685</ele>
        <time>2023-09-02T12:56:05.000Z</time>
      </trkpt>
      <trkpt lat="45.85307" lon="4.77957">
        <ele>579.25983</ele>
        <time>2023-09-02T12:56:06.000Z</time>
      </trkpt>
      <trkpt lat="45.85307" lon="4.77954">
        <ele>579.34436</ele>
        <time>2023-09-02T12:56:07.000Z</time>
      </trkpt>
      <trkpt lat="45.85306" lon="4.7795">
        <ele>579.45728</ele>
        <time>2023-09-02T12:56:08.000Z</time>
      </trkpt>
      <trkpt lat="45.85306" lon="4.77946">
        <ele>579.59277</ele>
        <time>2023-09-02T12:56:09.000Z</time>
      </trkpt>
      <trkpt lat="45.85305" lon="4.77942">
        <ele>579.69843</ele>
        <time>2023-09-02T12:56:10.000Z</time>
      </trkpt>
      <trkpt lat="45.85305" lon="4.77938">
        <ele>579.80627</ele>
        <time>2023-09-02T12:56:11.000Z</time>
      </trkpt>
      <trkpt lat="45.85304" lon="4.77934">
        <ele>579.94446</ele>
        <time>2023-09-02T12:56:12.000Z</time>
      </trkpt>
      <trkpt lat="45.85303" lon="4.77929">
        <ele>580.15295</ele>
        <time>2023-09-02T12:56:13.000Z</time>
      </trkpt>
      <trkpt lat="45.85302" lon="4.77925">
        <ele>580.38983</ele>
        <time>2023-09-02T12:56:14.000Z</time>
      </trkpt>
      <trkpt lat="45.85301" lon="4.7792">
        <ele>580.60779</ele>
        <time>2023-09-02T12:56:15.000Z</time>
      </trkpt>
      <trkpt lat="45.853" lon="4.77915">
        <ele>580.79272</ele>
        <time>2023-09-02T12:56:16.000Z</time>
      </trkpt>
      <trkpt lat="45.853" lon="4.7791">
        <ele>580.98633</ele>
        <time>2023-09-02T12:56:17.000Z</time>
      </trkpt>
      <trkpt lat="45.85299" lon="4.77904">
        <ele>581.15179</ele>
        <time>2023-09-02T12:56:18.000Z</time>
      </trkpt>
      <trkpt lat="45.85299" lon="4.77898">
        <ele>581.3324</ele>
        <time>2023-09-02T12:56:19.000Z</time>
      </trkpt>
      <trkpt lat="45.85298" lon="4.77892">
        <ele>581.55951</ele>
        <time>2023-09-02T12:56:20.000Z</time>
      </trkpt>
      <trkpt lat="45.85297" lon="4.77886">
        <ele>581.68005</ele>
        <time>2023-09-02T12:56:21.000Z</time>
      </trkpt>
      <trkpt lat="45.85296" lon="4.77879">
        <ele>581.79999</ele>
        <time>2023-09-02T12:56:22.000Z</time>
      </trkpt>
      <trkpt lat="45.85295" lon="4.77872">
        <ele>581.91785</ele>
        <time>2023-09-02T12:56:23.000Z</time>
      </trkpt>
      <trkpt lat="45.85294" lon="4.77866">
        <ele>582.02094</ele>
        <time>2023-09-02T12:56:24.000Z</time>
      </trkpt>
      <trkpt lat="45.85292" lon="4.7786">
        <ele>582.13324</ele>
        <time>2023-09-02T12:56:25.000Z</time>
      </trkpt>
      <trkpt lat="45.85291" lon="4.77853">
        <ele>582.29669</ele>
        <time>2023-09-02T12:56:26.000Z</time>
      </trkpt>
      <trkpt lat="45.85291" lon="4.77847">
        <ele>582.48523</ele>
        <time>2023-09-02T12:56:27.000Z</time>
      </trkpt>
      <trkpt lat="45.8529" lon="4.77841">
        <ele>582.65527</ele>
        <time>2023-09-02T12:56:28.000Z</time>
      </trkpt>
      <trkpt lat="45.8529" lon="4.77834">
        <ele>583.03479</ele>
        <time>2023-09-02T12:56:29.000Z</time>
      </trkpt>
      <trkpt lat="45.85289" lon="4.77827">
        <ele>583.43323</ele>
        <time>2023-09-02T12:56:30.000Z</time>
      </trkpt>
      <trkpt lat="45.85288" lon="4.77821">
        <ele>583.81635</ele>
        <time>2023-09-02T12:56:31.000Z</time>
      </trkpt>
      <trkpt lat="45.85287" lon="4.77815">
        <ele>583.8421</ele>
        <time>2023-09-02T12:56:32.000Z</time>
      </trkpt>
      <trkpt lat="45.85286" lon="4.77809">
        <ele>583.84906</ele>
        <time>2023-09-02T12:56:33.000Z</time>
      </trkpt>
      <trkpt lat="45.85284" lon="4.77804">
        <ele>583.86316</ele>
        <time>2023-09-02T12:56:34.000Z</time>
      </trkpt>
      <trkpt lat="45.85282" lon="4.77798">
        <ele>583.89056</ele>
        <time>2023-09-02T12:56:35.000Z</time>
      </trkpt>
      <trkpt lat="45.85281" lon="4.77793">
        <ele>583.92249</ele>
        <time>2023-09-02T12:56:36.000Z</time>
      </trkpt>
      <trkpt lat="45.8528" lon="4.77788">
        <ele>583.94397</ele>
        <time>2023-09-02T12:56:37.000Z</time>
      </trkpt>
      <trkpt lat="45.85279" lon="4.77784">
        <ele>583.96722</ele>
        <time>2023-09-02T12:56:38.000Z</time>
      </trkpt>
      <trkpt lat="45.85278" lon="4.77779">
        <ele>583.9408</ele>
        <time>2023-09-02T12:56:39.000Z</time>
      </trkpt>
      <trkpt lat="45.85277" lon="4.77775">
        <ele>583.87402</ele>
        <time>2023-09-02T12:56:40.000Z</time>
      </trkpt>
      <trkpt lat="45.85277" lon="4.77772">
        <ele>583.91974</ele>
        <time>2023-09-02T12:56:41.000Z</time>
      </trkpt>
      <trkpt lat="45.85277" lon="4.77768">
        <ele>583.97418</ele>
        <time>2023-09-02T12:56:42.000Z</time>
      </trkpt>
      <trkpt lat="45.85277" lon="4.77764">
        <ele>583.99683</ele>
        <time>2023-09-02T12:56:43.000Z</time>
      </trkpt>
      <trkpt lat="45.85276" lon="4.77762">
        <ele>584.01965</ele>
        <time>2023-09-02T12:56:44.000Z</time>
      </trkpt>
      <trkpt lat="45.85274" lon="4.7776">
        <ele>584.06433</ele>
        <time>2023-09-02T12:56:45.000Z</time>
      </trkpt>
      <trkpt lat="45.85271" lon="4.77761">
        <ele>584.3302</ele>
        <time>2023-09-02T12:56:46.000Z</time>
      </trkpt>
      <trkpt lat="45.85268" lon="4.77764">
        <ele>584.53491</ele>
        <time>2023-09-02T12:56:47.000Z</time>
      </trkpt>
      <trkpt lat="45.85267" lon="4.77769">
        <ele>584.7619</ele>
        <time>2023-09-02T12:56:48.000Z</time>
      </trkpt>
      <trkpt lat="45.85266" lon="4.77774">
        <ele>584.87158</ele>
        <time>2023-09-02T12:56:49.000Z</time>
      </trkpt>
      <trkpt lat="45.85266" lon="4.77779">
        <ele>584.88635</ele>
        <time>2023-09-02T12:56:50.000Z</time>
      </trkpt>
      <trkpt lat="45.85265" lon="4.77784">
        <ele>584.66125</ele>
        <time>2023-09-02T12:56:51.000Z</time>
      </trkpt>
      <trkpt lat="45.85265" lon="4.77789">
        <ele>584.7536</ele>
        <time>2023-09-02T12:56:52.000Z</time>
      </trkpt>
      <trkpt lat="45.85264" lon="4.77793">
        <ele>584.83484</ele>
        <time>2023-09-02T12:56:53.000Z</time>
      </trkpt>
      <trkpt lat="45.85264" lon="4.77798">
        <ele>584.91504</ele>
        <time>2023-09-02T12:56:54.000Z</time>
      </trkpt>
      <trkpt lat="45.85263" lon="4.77802">
        <ele>584.99261</ele>
        <time>2023-09-02T12:56:55.000Z</time>
      </trkpt>
      <trkpt lat="45.85263" lon="4.77807">
        <ele>585.08215</ele>
        <time>2023-09-02T12:56:56.000Z</time>
      </trkpt>
      <trkpt lat="45.85262" lon="4.77811">
        <ele>585.17279</ele>
        <time>2023-09-02T12:56:57.000Z</time>
      </trkpt>
      <trkpt lat="45.85262" lon="4.77816">
        <ele>585.58466</ele>
        <time>2023-09-02T12:56:58.000Z</time>
      </trkpt>
      <trkpt lat="45.85261" lon="4.7782">
        <ele>586.0556</ele>
        <time>2023-09-02T12:56:59.000Z</time>
      </trkpt>
      <trkpt lat="45.8526" lon="4.77825">
        <ele>586.52551</ele>
        <time>2023-09-02T12:57:00.000Z</time>
      </trkpt>
      <trkpt lat="45.85259" lon="4.77829">
        <ele>586.87097</ele>
        <time>2023-09-02T12:57:01.000Z</time>
      </trkpt>
      <trkpt lat="45.85258" lon="4.77834">
        <ele>587.2489</ele>
        <time>2023-09-02T12:57:02.000Z</time>
      </trkpt>
      <trkpt lat="45.85257" lon="4.77838">
        <ele>587.3725</ele>
        <time>2023-09-02T12:57:03.000Z</time>
      </trkpt>
      <trkpt lat="45.85257" lon="4.77843">
        <ele>587.4928</ele>
        <time>2023-09-02T12:57:04.000Z</time>
      </trkpt>
      <trkpt lat="45.85256" lon="4.77847">
        <ele>587.6012</ele>
        <time>2023-09-02T12:57:05.000Z</time>
      </trkpt>
      <trkpt lat="45.85256" lon="4.77851">
        <ele>587.4201</ele>
        <time>2023-09-02T12:57:06.000Z</time>
      </trkpt>
      <trkpt lat="45.85255" lon="4.77856">
        <ele>587.30365</ele>
        <time>2023-09-02T12:57:07.000Z</time>
      </trkpt>
      <trkpt lat="45.85254" lon="4.7786">
        <ele>587.18469</ele>
        <time>2023-09-02T12:57:08.000Z</time>
      </trkpt>
      <trkpt lat="45.85254" lon="4.77864">
        <ele>586.95007</ele>
        <time>2023-09-02T12:57:09.000Z</time>
      </trkpt>
      <trkpt lat="45.85254" lon="4.77869">
        <ele>586.81512</ele>
        <time>2023-09-02T12:57:10.000Z</time>
      </trkpt>
      <trkpt lat="45.85253" lon="4.77873">
        <ele>586.9234</ele>
        <time>2023-09-02T12:57:11.000Z</time>
      </trkpt>
      <trkpt lat="45.85252" lon="4.77877">
        <ele>587.02332</ele>
        <time>2023-09-02T12:57:12.000Z</time>
      </trkpt>
      <trkpt lat="45.85251" lon="4.77882">
        <ele>587.13824</ele>
        <time>2023-09-02T12:57:13.000Z</time>
      </trkpt>
      <trkpt lat="45.8525" lon="4.77886">
        <ele>587.22974</ele>
        <time>2023-09-02T12:57:14.000Z</time>
      </trkpt>
      <trkpt lat="45.8525" lon="4.7789">
        <ele>587.28241</ele>
        <time>2023-09-02T12:57:15.000Z</time>
      </trkpt>
      <trkpt lat="45.85249" lon="4.77895">
        <ele>587.33429</ele>
        <time>2023-09-02T12:57:16.000Z</time>
      </trkpt>
      <trkpt lat="45.85249" lon="4.77899">
        <ele>587.38739</ele>
        <time>2023-09-02T12:57:17.000Z</time>
      </trkpt>
      <trkpt lat="45.85248" lon="4.77904">
        <ele>587.14587</ele>
        <time>2023-09-02T12:57:18.000Z</time>
      </trkpt>
      <trkpt lat="45.85248" lon="4.77908">
        <ele>586.83282</ele>
        <time>2023-09-02T12:57:19.000Z</time>
      </trkpt>
      <trkpt lat="45.85247" lon="4.77912">
        <ele>586.60553</ele>
        <time>2023-09-02T12:57:20.000Z</time>
      </trkpt>
      <trkpt lat="45.85247" lon="4.77917">
        <ele>586.50305</ele>
        <time>2023-09-02T12:57:21.000Z</time>
      </trkpt>
      <trkpt lat="45.85246" lon="4.77921">
        <ele>586.3717</ele>
        <time>2023-09-02T12:57:22.000Z</time>
      </trkpt>
      <trkpt lat="45.85246" lon="4.77925">
        <ele>586.48602</ele>
        <time>2023-09-02T12:57:23.000Z</time>
      </trkpt>
      <trkpt lat="45.85245" lon="4.7793">
        <ele>586.60876</ele>
        <time>2023-09-02T12:57:24.000Z</time>
      </trkpt>
      <trkpt lat="45.85244" lon="4.77934">
        <ele>586.72424</ele>
        <time>2023-09-02T12:57:25.000Z</time>
      </trkpt>
      <trkpt lat="45.85243" lon="4.77939">
        <ele>586.85583</ele>
        <time>2023-09-02T12:57:26.000Z</time>
      </trkpt>
      <trkpt lat="45.85242" lon="4.77943">
        <ele>586.96539</ele>
        <time>2023-09-02T12:57:27.000Z</time>
      </trkpt>
      <trkpt lat="45.85241" lon="4.77948">
        <ele>587.08624</ele>
        <time>2023-09-02T12:57:28.000Z</time>
      </trkpt>
      <trkpt lat="45.85241" lon="4.77953">
        <ele>587.21454</ele>
        <time>2023-09-02T12:57:29.000Z</time>
      </trkpt>
      <trkpt lat="45.8524" lon="4.77958">
        <ele>587.34479</ele>
        <time>2023-09-02T12:57:30.000Z</time>
      </trkpt>
      <trkpt lat="45.85239" lon="4.77963">
        <ele>587.4574</ele>
        <time>2023-09-02T12:57:31.000Z</time>
      </trkpt>
      <trkpt lat="45.85238" lon="4.77969">
        <ele>587.58923</ele>
        <time>2023-09-02T12:57:32.000Z</time>
      </trkpt>
      <trkpt lat="45.85238" lon="4.77974">
        <ele>587.73224</ele>
        <time>2023-09-02T12:57:33.000Z</time>
      </trkpt>
      <trkpt lat="45.85237" lon="4.77979">
        <ele>587.88959</ele>
        <time>2023-09-02T12:57:34.000Z</time>
      </trkpt>
      <trkpt lat="45.85236" lon="4.77984">
        <ele>588.08105</ele>
        <time>2023-09-02T12:57:35.000Z</time>
      </trkpt>
      <trkpt lat="45.85236" lon="4.7799">
        <ele>588.2951</ele>
        <time>2023-09-02T12:57:36.000Z</time>
      </trkpt>
      <trkpt lat="45.85235" lon="4.77995">
        <ele>588.47107</ele>
        <time>2023-09-02T12:57:37.000Z</time>
      </trkpt>
      <trkpt lat="45.85235" lon="4.78">
        <ele>588.62732</ele>
        <time>2023-09-02T12:57:38.000Z</time>
      </trkpt>
      <trkpt lat="45.85234" lon="4.78004">
        <ele>588.81091</ele>
        <time>2023-09-02T12:57:39.000Z</time>
      </trkpt>
      <trkpt lat="45.85234" lon="4.78009">
        <ele>589.06238</ele>
        <time>2023-09-02T12:57:40.000Z</time>
      </trkpt>
      <trkpt lat="45.85234" lon="4.78014">
        <ele>589.34131</ele>
        <time>2023-09-02T12:57:41.000Z</time>
      </trkpt>
      <trkpt lat="45.85233" lon="4.78019">
        <ele>589.6272</ele>
        <time>2023-09-02T12:57:42.000Z</time>
      </trkpt>
      <trkpt lat="45.85233" lon="4.78024">
        <ele>589.9303</ele>
        <time>2023-09-02T12:57:43.000Z</time>
      </trkpt>
      <trkpt lat="45.85232" lon="4.78029">
        <ele>590.21179</ele>
        <time>2023-09-02T12:57:44.000Z</time>
      </trkpt>
      <trkpt lat="45.85232" lon="4.78034">
        <ele>590.51135</ele>
        <time>2023-09-02T12:57:45.000Z</time>
      </trkpt>
      <trkpt lat="45.85232" lon="4.7804">
        <ele>590.82709</ele>
        <time>2023-09-02T12:57:46.000Z</time>
      </trkpt>
      <trkpt lat="45.85232" lon="4.78045">
        <ele>591.15637</ele>
        <time>2023-09-02T12:57:47.000Z</time>
      </trkpt>
      <trkpt lat="45.85232" lon="4.7805">
        <ele>591.47827</ele>
        <time>2023-09-02T12:57:48.000Z</time>
      </trkpt>
      <trkpt lat="45.85232" lon="4.78056">
        <ele>591.99115</ele>
        <time>2023-09-02T12:57:49.000Z</time>
      </trkpt>
      <trkpt lat="45.85232" lon="4.78061">
        <ele>592.47015</ele>
        <time>2023-09-02T12:57:50.000Z</time>
      </trkpt>
      <trkpt lat="45.85232" lon="4.78066">
        <ele>592.97253</ele>
        <time>2023-09-02T12:57:51.000Z</time>
      </trkpt>
      <trkpt lat="45.85232" lon="4.78072">
        <ele>593.435</ele>
        <time>2023-09-02T12:57:52.000Z</time>
      </trkpt>
      <trkpt lat="45.85233" lon="4.78077">
        <ele>593.87878</ele>
        <time>2023-09-02T12:57:53.000Z</time>
      </trkpt>
      <trkpt lat="45.85233" lon="4.78082">
        <ele>594.32452</ele>
        <time>2023-09-02T12:57:54.000Z</time>
      </trkpt>
      <trkpt lat="45.85234" lon="4.78087">
        <ele>594.49988</ele>
        <time>2023-09-02T12:57:55.000Z</time>
      </trkpt>
      <trkpt lat="45.85234" lon="4.78092">
        <ele>594.67834</ele>
        <time>2023-09-02T12:57:56.000Z</time>
      </trkpt>
      <trkpt lat="45.85235" lon="4.78096">
        <ele>594.83789</ele>
        <time>2023-09-02T12:57:57.000Z</time>
      </trkpt>
      <trkpt lat="45.85236" lon="4.78101">
        <ele>595.01343</ele>
        <time>2023-09-02T12:57:58.000Z</time>
      </trkpt>
      <trkpt lat="45.85236" lon="4.78106">
        <ele>595.19568</ele>
        <time>2023-09-02T12:57:59.000Z</time>
      </trkpt>
      <trkpt lat="45.85237" lon="4.78111">
        <ele>595.22394</ele>
        <time>2023-09-02T12:58:00.000Z</time>
      </trkpt>
      <trkpt lat="45.85237" lon="4.78116">
        <ele>595.22919</ele>
        <time>2023-09-02T12:58:01.000Z</time>
      </trkpt>
      <trkpt lat="45.85238" lon="4.78121">
        <ele>595.63428</ele>
        <time>2023-09-02T12:58:02.000Z</time>
      </trkpt>
      <trkpt lat="45.85239" lon="4.78126">
        <ele>596.04553</ele>
        <time>2023-09-02T12:58:03.000Z</time>
      </trkpt>
      <trkpt lat="45.8524" lon="4.78131">
        <ele>596.4762</ele>
        <time>2023-09-02T12:58:04.000Z</time>
      </trkpt>
      <trkpt lat="45.8524" lon="4.78136">
        <ele>596.88873</ele>
        <time>2023-09-02T12:58:05.000Z</time>
      </trkpt>
      <trkpt lat="45.85241" lon="4.78142">
        <ele>597.28577</ele>
        <time>2023-09-02T12:58:06.000Z</time>
      </trkpt>
      <trkpt lat="45.85242" lon="4.78147">
        <ele>597.69916</ele>
        <time>2023-09-02T12:58:07.000Z</time>
      </trkpt>
      <trkpt lat="45.85243" lon="4.78151">
        <ele>598.09387</ele>
        <time>2023-09-02T12:58:08.000Z</time>
      </trkpt>
      <trkpt lat="45.85245" lon="4.78156">
        <ele>598.27979</ele>
        <time>2023-09-02T12:58:09.000Z</time>
      </trkpt>
      <trkpt lat="45.85246" lon="4.78161">
        <ele>598.51697</ele>
        <time>2023-09-02T12:58:10.000Z</time>
      </trkpt>
      <trkpt lat="45.85248" lon="4.78165">
        <ele>598.74561</ele>
        <time>2023-09-02T12:58:11.000Z</time>
      </trkpt>
      <trkpt lat="45.8525" lon="4.7817">
        <ele>599.00604</ele>
        <time>2023-09-02T12:58:12.000Z</time>
      </trkpt>
      <trkpt lat="45.85252" lon="4.78174">
        <ele>599.28949</ele>
        <time>2023-09-02T12:58:13.000Z</time>
      </trkpt>
      <trkpt lat="45.85253" lon="4.78179">
        <ele>599.57703</ele>
        <time>2023-09-02T12:58:14.000Z</time>
      </trkpt>
      <trkpt lat="45.85255" lon="4.78184">
        <ele>600.14252</ele>
        <time>2023-09-02T12:58:15.000Z</time>
      </trkpt>
      <trkpt lat="45.85257" lon="4.78188">
        <ele>600.57935</ele>
        <time>2023-09-02T12:58:16.000Z</time>
      </trkpt>
      <trkpt lat="45.85258" lon="4.78193">
        <ele>601.14905</ele>
        <time>2023-09-02T12:58:17.000Z</time>
      </trkpt>
      <trkpt lat="45.8526" lon="4.78198">
        <ele>601.71545</ele>
        <time>2023-09-02T12:58:18.000Z</time>
      </trkpt>
      <trkpt lat="45.85262" lon="4.78202">
        <ele>602.22266</ele>
        <time>2023-09-02T12:58:19.000Z</time>
      </trkpt>
      <trkpt lat="45.85264" lon="4.78207">
        <ele>602.74402</ele>
        <time>2023-09-02T12:58:20.000Z</time>
      </trkpt>
      <trkpt lat="45.85266" lon="4.78211">
        <ele>603.27032</ele>
        <time>2023-09-02T12:58:21.000Z</time>
      </trkpt>
      <trkpt lat="45.85268" lon="4.78216">
        <ele>603.3866</ele>
        <time>2023-09-02T12:58:22.000Z</time>
      </trkpt>
      <trkpt lat="45.8527" lon="4.7822">
        <ele>603.52979</ele>
        <time>2023-09-02T12:58:23.000Z</time>
      </trkpt>
      <trkpt lat="45.85271" lon="4.78225">
        <ele>603.67249</ele>
        <time>2023-09-02T12:58:24.000Z</time>
      </trkpt>
      <trkpt lat="45.85273" lon="4.7823">
        <ele>603.81244</ele>
        <time>2023-09-02T12:58:25.000Z</time>
      </trkpt>
      <trkpt lat="45.85276" lon="4.78234">
        <ele>603.93085</ele>
        <time>2023-09-02T12:58:26.000Z</time>
      </trkpt>
      <trkpt lat="45.85278" lon="4.78239">
        <ele>604.05139</ele>
        <time>2023-09-02T12:58:27.000Z</time>
      </trkpt>
      <trkpt lat="45.8528" lon="4.78243">
        <ele>604.17078</ele>
        <time>2023-09-02T12:58:28.000Z</time>
      </trkpt>
      <trkpt lat="45.85282" lon="4.78248">
        <ele>604.31323</ele>
        <time>2023-09-02T12:58:29.000Z</time>
      </trkpt>
      <trkpt lat="45.85284" lon="4.78252">
        <ele>604.43793</ele>
        <time>2023-09-02T12:58:30.000Z</time>
      </trkpt>
      <trkpt lat="45.85286" lon="4.78256">
        <ele>604.53802</ele>
        <time>2023-09-02T12:58:31.000Z</time>
      </trkpt>
      <trkpt lat="45.85288" lon="4.78261">
        <ele>604.64807</ele>
        <time>2023-09-02T12:58:32.000Z</time>
      </trkpt>
      <trkpt lat="45.8529" lon="4.78265">
        <ele>604.76672</ele>
        <time>2023-09-02T12:58:33.000Z</time>
      </trkpt>
      <trkpt lat="45.85293" lon="4.78269">
        <ele>604.87244</ele>
        <time>2023-09-02T12:58:34.000Z</time>
      </trkpt>
      <trkpt lat="45.85295" lon="4.78273">
        <ele>604.9906</ele>
        <time>2023-09-02T12:58:35.000Z</time>
      </trkpt>
      <trkpt lat="45.85297" lon="4.78277">
        <ele>605.26373</ele>
        <time>2023-09-02T12:58:36.000Z</time>
      </trkpt>
      <trkpt lat="45.853" lon="4.78282">
        <ele>605.50342</ele>
        <time>2023-09-02T12:58:37.000Z</time>
      </trkpt>
      <trkpt lat="45.85302" lon="4.78285">
        <ele>605.72144</ele>
        <time>2023-09-02T12:58:38.000Z</time>
      </trkpt>
      <trkpt lat="45.85305" lon="4.7829">
        <ele>605.95837</ele>
        <time>2023-09-02T12:58:39.000Z</time>
      </trkpt>
      <trkpt lat="45.85307" lon="4.78294">
        <ele>606.13354</ele>
        <time>2023-09-02T12:58:40.000Z</time>
      </trkpt>
      <trkpt lat="45.8531" lon="4.78298">
        <ele>606.27716</ele>
        <time>2023-09-02T12:58:41.000Z</time>
      </trkpt>
      <trkpt lat="45.85312" lon="4.78302">
        <ele>606.41882</ele>
        <time>2023-09-02T12:58:42.000Z</time>
      </trkpt>
      <trkpt lat="45.85314" lon="4.78306">
        <ele>606.52582</ele>
        <time>2023-09-02T12:58:43.000Z</time>
      </trkpt>
      <trkpt lat="45.85316" lon="4.7831">
        <ele>606.61353</ele>
        <time>2023-09-02T12:58:44.000Z</time>
      </trkpt>
      <trkpt lat="45.85319" lon="4.78314">
        <ele>606.71558</ele>
        <time>2023-09-02T12:58:45.000Z</time>
      </trkpt>
      <trkpt lat="45.85322" lon="4.78318">
        <ele>606.83875</ele>
        <time>2023-09-02T12:58:46.000Z</time>
      </trkpt>
      <trkpt lat="45.85324" lon="4.78323">
        <ele>606.95935</ele>
        <time>2023-09-02T12:58:47.000Z</time>
      </trkpt>
      <trkpt lat="45.85327" lon="4.78327">
        <ele>607.08313</ele>
        <time>2023-09-02T12:58:48.000Z</time>
      </trkpt>
      <trkpt lat="45.8533" lon="4.78332">
        <ele>607.20135</ele>
        <time>2023-09-02T12:58:49.000Z</time>
      </trkpt>
      <trkpt lat="45.85333" lon="4.78338">
        <ele>607.33826</ele>
        <time>2023-09-02T12:58:50.000Z</time>
      </trkpt>
      <trkpt lat="45.85335" lon="4.78343">
        <ele>607.47894</ele>
        <time>2023-09-02T12:58:51.000Z</time>
      </trkpt>
      <trkpt lat="45.85338" lon="4.78348">
        <ele>607.59491</ele>
        <time>2023-09-02T12:58:52.000Z</time>
      </trkpt>
      <trkpt lat="45.85341" lon="4.78352">
        <ele>607.70032</ele>
        <time>2023-09-02T12:58:53.000Z</time>
      </trkpt>
      <trkpt lat="45.85345" lon="4.78357">
        <ele>607.82678</ele>
        <time>2023-09-02T12:58:54.000Z</time>
      </trkpt>
      <trkpt lat="45.85348" lon="4.78363">
        <ele>607.92371</ele>
        <time>2023-09-02T12:58:55.000Z</time>
      </trkpt>
      <trkpt lat="45.85351" lon="4.78368">
        <ele>607.95874</ele>
        <time>2023-09-02T12:58:56.000Z</time>
      </trkpt>
      <trkpt lat="45.85354" lon="4.78374">
        <ele>607.93884</ele>
        <time>2023-09-02T12:58:57.000Z</time>
      </trkpt>
      <trkpt lat="45.85356" lon="4.7838">
        <ele>607.89917</ele>
        <time>2023-09-02T12:58:58.000Z</time>
      </trkpt>
      <trkpt lat="45.85359" lon="4.78386">
        <ele>607.88367</ele>
        <time>2023-09-02T12:58:59.000Z</time>
      </trkpt>
      <trkpt lat="45.85363" lon="4.78392">
        <ele>607.87012</ele>
        <time>2023-09-02T12:59:00.000Z</time>
      </trkpt>
      <trkpt lat="45.85367" lon="4.78398">
        <ele>607.88</ele>
        <time>2023-09-02T12:59:01.000Z</time>
      </trkpt>
      <trkpt lat="45.85371" lon="4.78403">
        <ele>607.88342</ele>
        <time>2023-09-02T12:59:02.000Z</time>
      </trkpt>
      <trkpt lat="45.85375" lon="4.78409">
        <ele>607.87469</ele>
        <time>2023-09-02T12:59:03.000Z</time>
      </trkpt>
      <trkpt lat="45.85378" lon="4.78416">
        <ele>607.84857</ele>
        <time>2023-09-02T12:59:04.000Z</time>
      </trkpt>
      <trkpt lat="45.85383" lon="4.78421">
        <ele>607.85876</ele>
        <time>2023-09-02T12:59:05.000Z</time>
      </trkpt>
      <trkpt lat="45.85387" lon="4.78426">
        <ele>607.88043</ele>
        <time>2023-09-02T12:59:06.000Z</time>
      </trkpt>
      <trkpt lat="45.85392" lon="4.78432">
        <ele>607.85956</ele>
        <time>2023-09-02T12:59:07.000Z</time>
      </trkpt>
      <trkpt lat="45.85396" lon="4.78438">
        <ele>607.83026</ele>
        <time>2023-09-02T12:59:08.000Z</time>
      </trkpt>
      <trkpt lat="45.85401" lon="4.78443">
        <ele>607.82092</ele>
        <time>2023-09-02T12:59:09.000Z</time>
      </trkpt>
      <trkpt lat="45.85405" lon="4.78447">
        <ele>607.79547</ele>
        <time>2023-09-02T12:59:10.000Z</time>
      </trkpt>
      <trkpt lat="45.85411" lon="4.78452">
        <ele>607.77344</ele>
        <time>2023-09-02T12:59:11.000Z</time>
      </trkpt>
      <trkpt lat="45.85415" lon="4.78456">
        <ele>607.78748</ele>
        <time>2023-09-02T12:59:12.000Z</time>
      </trkpt>
      <trkpt lat="45.8542" lon="4.78461">
        <ele>607.78674</ele>
        <time>2023-09-02T12:59:13.000Z</time>
      </trkpt>
      <trkpt lat="45.85425" lon="4.78467">
        <ele>607.73633</ele>
        <time>2023-09-02T12:59:14.000Z</time>
      </trkpt>
      <trkpt lat="45.8543" lon="4.78473">
        <ele>607.66833</ele>
        <time>2023-09-02T12:59:15.000Z</time>
      </trkpt>
      <trkpt lat="45.85435" lon="4.7848">
        <ele>607.59827</ele>
        <time>2023-09-02T12:59:16.000Z</time>
      </trkpt>
      <trkpt lat="45.8544" lon="4.78485">
        <ele>607.53125</ele>
        <time>2023-09-02T12:59:17.000Z</time>
      </trkpt>
      <trkpt lat="45.85445" lon="4.78492">
        <ele>607.50409</ele>
        <time>2023-09-02T12:59:18.000Z</time>
      </trkpt>
      <trkpt lat="45.8545" lon="4.78498">
        <ele>607.44373</ele>
        <time>2023-09-02T12:59:19.000Z</time>
      </trkpt>
      <trkpt lat="45.85456" lon="4.78505">
        <ele>607.43048</ele>
        <time>2023-09-02T12:59:20.000Z</time>
      </trkpt>
      <trkpt lat="45.85462" lon="4.78512">
        <ele>607.39136</ele>
        <time>2023-09-02T12:59:21.000Z</time>
      </trkpt>
      <trkpt lat="45.85466" lon="4.78518">
        <ele>607.33423</ele>
        <time>2023-09-02T12:59:22.000Z</time>
      </trkpt>
      <trkpt lat="45.85473" lon="4.78525">
        <ele>607.29083</ele>
        <time>2023-09-02T12:59:23.000Z</time>
      </trkpt>
      <trkpt lat="45.85478" lon="4.78533">
        <ele>607.20245</ele>
        <time>2023-09-02T12:59:24.000Z</time>
      </trkpt>
      <trkpt lat="45.85483" lon="4.78539">
        <ele>607.05511</ele>
        <time>2023-09-02T12:59:25.000Z</time>
      </trkpt>
      <trkpt lat="45.85489" lon="4.78546">
        <ele>606.86926</ele>
        <time>2023-09-02T12:59:26.000Z</time>
      </trkpt>
      <trkpt lat="45.85495" lon="4.78552">
        <ele>606.70911</ele>
        <time>2023-09-02T12:59:27.000Z</time>
      </trkpt>
      <trkpt lat="45.85501" lon="4.78557">
        <ele>606.56506</ele>
        <time>2023-09-02T12:59:28.000Z</time>
      </trkpt>
      <trkpt lat="45.85506" lon="4.78562">
        <ele>606.38092</ele>
        <time>2023-09-02T12:59:29.000Z</time>
      </trkpt>
      <trkpt lat="45.85512" lon="4.78567">
        <ele>606.1698</ele>
        <time>2023-09-02T12:59:30.000Z</time>
      </trkpt>
      <trkpt lat="45.85518" lon="4.78572">
        <ele>605.94043</ele>
        <time>2023-09-02T12:59:31.000Z</time>
      </trkpt>
      <trkpt lat="45.85524" lon="4.78578">
        <ele>605.6438</ele>
        <time>2023-09-02T12:59:32.000Z</time>
      </trkpt>
      <trkpt lat="45.8553" lon="4.78585">
        <ele>605.32886</ele>
        <time>2023-09-02T12:59:33.000Z</time>
      </trkpt>
      <trkpt lat="45.85536" lon="4.7859">
        <ele>605.05682</ele>
        <time>2023-09-02T12:59:34.000Z</time>
      </trkpt>
      <trkpt lat="45.85542" lon="4.78592">
        <ele>604.81287</ele>
        <time>2023-09-02T12:59:35.000Z</time>
      </trkpt>
      <trkpt lat="45.85549" lon="4.78595">
        <ele>604.57202</ele>
        <time>2023-09-02T12:59:36.000Z</time>
      </trkpt>
      <trkpt lat="45.85554" lon="4.78596">
        <ele>604.33313</ele>
        <time>2023-09-02T12:59:37.000Z</time>
      </trkpt>
      <trkpt lat="45.85559" lon="4.78598">
        <ele>604.07129</ele>
        <time>2023-09-02T12:59:38.000Z</time>
      </trkpt>
      <trkpt lat="45.85564" lon="4.786">
        <ele>603.84082</ele>
        <time>2023-09-02T12:59:39.000Z</time>
      </trkpt>
      <trkpt lat="45.85569" lon="4.78604">
        <ele>603.61853</ele>
        <time>2023-09-02T12:59:40.000Z</time>
      </trkpt>
      <trkpt lat="45.85574" lon="4.78607">
        <ele>603.41272</ele>
        <time>2023-09-02T12:59:41.000Z</time>
      </trkpt>
      <trkpt lat="45.8558" lon="4.78609">
        <ele>603.21167</ele>
        <time>2023-09-02T12:59:42.000Z</time>
      </trkpt>
      <trkpt lat="45.85585" lon="4.78612">
        <ele>603.01801</ele>
        <time>2023-09-02T12:59:43.000Z</time>
      </trkpt>
      <trkpt lat="45.8559" lon="4.78616">
        <ele>602.88153</ele>
        <time>2023-09-02T12:59:44.000Z</time>
      </trkpt>
      <trkpt lat="45.85594" lon="4.7862">
        <ele>602.73962</ele>
        <time>2023-09-02T12:59:45.000Z</time>
      </trkpt>
      <trkpt lat="45.85598" lon="4.78623">
        <ele>602.59167</ele>
        <time>2023-09-02T12:59:46.000Z</time>
      </trkpt>
      <trkpt lat="45.856" lon="4.78625">
        <ele>602.48199</ele>
        <time>2023-09-02T12:59:47.000Z</time>
      </trkpt>
      <trkpt lat="45.85605" lon="4.78627">
        <ele>602.33759</ele>
        <time>2023-09-02T12:59:48.000Z</time>
      </trkpt>
      <trkpt lat="45.85608" lon="4.78631">
        <ele>602.21417</ele>
        <time>2023-09-02T12:59:49.000Z</time>
      </trkpt>
      <trkpt lat="45.85613" lon="4.78633">
        <ele>602.09204</ele>
        <time>2023-09-02T12:59:50.000Z</time>
      </trkpt>
      <trkpt lat="45.85617" lon="4.78636">
        <ele>602.00745</ele>
        <time>2023-09-02T12:59:51.000Z</time>
      </trkpt>
      <trkpt lat="45.8562" lon="4.78639">
        <ele>601.98193</ele>
        <time>2023-09-02T12:59:52.000Z</time>
      </trkpt>
      <trkpt lat="45.85623" lon="4.78643">
        <ele>601.97351</ele>
        <time>2023-09-02T12:59:53.000Z</time>
      </trkpt>
      <trkpt lat="45.85625" lon="4.78646">
        <ele>601.94684</ele>
        <time>2023-09-02T12:59:54.000Z</time>
      </trkpt>
      <trkpt lat="45.85627" lon="4.78649">
        <ele>601.93518</ele>
        <time>2023-09-02T12:59:55.000Z</time>
      </trkpt>
      <trkpt lat="45.85631" lon="4.78653">
        <ele>601.88885</ele>
        <time>2023-09-02T12:59:56.000Z</time>
      </trkpt>
      <trkpt lat="45.85636" lon="4.78655">
        <ele>601.888</ele>
        <time>2023-09-02T12:59:57.000Z</time>
      </trkpt>
      <trkpt lat="45.85641" lon="4.78657">
        <ele>601.91565</ele>
        <time>2023-09-02T12:59:58.000Z</time>
      </trkpt>
      <trkpt lat="45.85647" lon="4.78659">
        <ele>601.95251</ele>
        <time>2023-09-02T12:59:59.000Z</time>
      </trkpt>
      <trkpt lat="45.85653" lon="4.7866">
        <ele>601.98865</ele>
        <time>2023-09-02T13:00:00.000Z</time>
      </trkpt>
      <trkpt lat="45.85656" lon="4.78662">
        <ele>602.02747</ele>
        <time>2023-09-02T13:00:01.000Z</time>
      </trkpt>
      <trkpt lat="45.8566" lon="4.78664">
        <ele>602.05145</ele>
        <time>2023-09-02T13:00:02.000Z</time>
      </trkpt>
      <trkpt lat="45.85662" lon="4.78667">
        <ele>602.08008</ele>
        <time>2023-09-02T13:00:03.000Z</time>
      </trkpt>
      <trkpt lat="45.85666" lon="4.7867">
        <ele>602.11169</ele>
        <time>2023-09-02T13:00:04.000Z</time>
      </trkpt>
      <trkpt lat="45.8567" lon="4.78673">
        <ele>602.15216</ele>
        <time>2023-09-02T13:00:05.000Z</time>
      </trkpt>
      <trkpt lat="45.85674" lon="4.78677">
        <ele>602.21783</ele>
        <time>2023-09-02T13:00:06.000Z</time>
      </trkpt>
      <trkpt lat="45.85677" lon="4.78681">
        <ele>602.23315</ele>
        <time>2023-09-02T13:00:07.000Z</time>
      </trkpt>
      <trkpt lat="45.85681" lon="4.78685">
        <ele>602.29553</ele>
        <time>2023-09-02T13:00:08.000Z</time>
      </trkpt>
      <trkpt lat="45.85685" lon="4.7869">
        <ele>602.33191</ele>
        <time>2023-09-02T13:00:09.000Z</time>
      </trkpt>
      <trkpt lat="45.85688" lon="4.78695">
        <ele>602.36945</ele>
        <time>2023-09-02T13:00:10.000Z</time>
      </trkpt>
      <trkpt lat="45.85691" lon="4.787">
        <ele>602.39746</ele>
        <time>2023-09-02T13:00:11.000Z</time>
      </trkpt>
      <trkpt lat="45.85693" lon="4.78705">
        <ele>602.35974</ele>
        <time>2023-09-02T13:00:12.000Z</time>
      </trkpt>
      <trkpt lat="45.85696" lon="4.78709">
        <ele>602.28961</ele>
        <time>2023-09-02T13:00:13.000Z</time>
      </trkpt>
      <trkpt lat="45.85697" lon="4.78714">
        <ele>602.23828</ele>
        <time>2023-09-02T13:00:14.000Z</time>
      </trkpt>
      <trkpt lat="45.85699" lon="4.78717">
        <ele>602.16052</ele>
        <time>2023-09-02T13:00:15.000Z</time>
      </trkpt>
      <trkpt lat="45.85702" lon="4.78719">
        <ele>602.09589</ele>
        <time>2023-09-02T13:00:16.000Z</time>
      </trkpt>
      <trkpt lat="45.85704" lon="4.78721">
        <ele>601.99286</ele>
        <time>2023-09-02T13:00:17.000Z</time>
      </trkpt>
      <trkpt lat="45.85706" lon="4.78723">
        <ele>601.89185</ele>
        <time>2023-09-02T13:00:18.000Z</time>
      </trkpt>
      <trkpt lat="45.85709" lon="4.78725">
        <ele>601.83508</ele>
        <time>2023-09-02T13:00:19.000Z</time>
      </trkpt>
      <trkpt lat="45.85711" lon="4.78727">
        <ele>601.7699</ele>
        <time>2023-09-02T13:00:20.000Z</time>
      </trkpt>
      <trkpt lat="45.85713" lon="4.78729">
        <ele>601.67615</ele>
        <time>2023-09-02T13:00:21.000Z</time>
      </trkpt>
      <trkpt lat="45.85715" lon="4.78732">
        <ele>601.62256</ele>
        <time>2023-09-02T13:00:22.000Z</time>
      </trkpt>
      <trkpt lat="45.85717" lon="4.78735">
        <ele>601.55298</ele>
        <time>2023-09-02T13:00:23.000Z</time>
      </trkpt>
      <trkpt lat="45.85719" lon="4.78738">
        <ele>601.48022</ele>
        <time>2023-09-02T13:00:24.000Z</time>
      </trkpt>
      <trkpt lat="45.85722" lon="4.78741">
        <ele>601.38025</ele>
        <time>2023-09-02T13:00:25.000Z</time>
      </trkpt>
      <trkpt lat="45.85724" lon="4.78745">
        <ele>601.30493</ele>
        <time>2023-09-02T13:00:26.000Z</time>
      </trkpt>
      <trkpt lat="45.85726" lon="4.78748">
        <ele>601.1972</ele>
        <time>2023-09-02T13:00:27.000Z</time>
      </trkpt>
      <trkpt lat="45.85731" lon="4.78752">
        <ele>601.08411</ele>
        <time>2023-09-02T13:00:28.000Z</time>
      </trkpt>
      <trkpt lat="45.85735" lon="4.78756">
        <ele>600.98303</ele>
        <time>2023-09-02T13:00:29.000Z</time>
      </trkpt>
      <trkpt lat="45.85739" lon="4.78759">
        <ele>600.92566</ele>
        <time>2023-09-02T13:00:30.000Z</time>
      </trkpt>
      <trkpt lat="45.85745" lon="4.78763">
        <ele>600.83435</ele>
        <time>2023-09-02T13:00:31.000Z</time>
      </trkpt>
      <trkpt lat="45.85749" lon="4.78765">
        <ele>600.75018</ele>
        <time>2023-09-02T13:00:32.000Z</time>
      </trkpt>
      <trkpt lat="45.85753" lon="4.7877">
        <ele>600.65887</ele>
        <time>2023-09-02T13:00:33.000Z</time>
      </trkpt>
      <trkpt lat="45.85754" lon="4.78775">
        <ele>600.5376</ele>
        <time>2023-09-02T13:00:34.000Z</time>
      </trkpt>
      <trkpt lat="45.85757" lon="4.78777">
        <ele>600.43469</ele>
        <time>2023-09-02T13:00:35.000Z</time>
      </trkpt>
      <trkpt lat="45.8576" lon="4.78778">
        <ele>600.33856</ele>
        <time>2023-09-02T13:00:36.000Z</time>
      </trkpt>
      <trkpt lat="45.85766" lon="4.78777">
        <ele>600.29327</ele>
        <time>2023-09-02T13:00:37.000Z</time>
      </trkpt>
      <trkpt lat="45.8577" lon="4.78778">
        <ele>600.23083</ele>
        <time>2023-09-02T13:00:38.000Z</time>
      </trkpt>
      <trkpt lat="45.85774" lon="4.7878">
        <ele>600.10516</ele>
        <time>2023-09-02T13:00:39.000Z</time>
      </trkpt>
      <trkpt lat="45.85779" lon="4.78783">
        <ele>599.9425</ele>
        <time>2023-09-02T13:00:40.000Z</time>
      </trkpt>
      <trkpt lat="45.85783" lon="4.78785">
        <ele>599.78638</ele>
        <time>2023-09-02T13:00:41.000Z</time>
      </trkpt>
      <trkpt lat="45.85788" lon="4.78788">
        <ele>599.60211</ele>
        <time>2023-09-02T13:00:42.000Z</time>
      </trkpt>
      <trkpt lat="45.85794" lon="4.7879">
        <ele>599.41846</ele>
        <time>2023-09-02T13:00:43.000Z</time>
      </trkpt>
      <trkpt lat="45.85798" lon="4.78793">
        <ele>599.22882</ele>
        <time>2023-09-02T13:00:44.000Z</time>
      </trkpt>
      <trkpt lat="45.85803" lon="4.78795">
        <ele>599.0755</ele>
        <time>2023-09-02T13:00:45.000Z</time>
      </trkpt>
      <trkpt lat="45.85808" lon="4.78797">
        <ele>598.883</ele>
        <time>2023-09-02T13:00:46.000Z</time>
      </trkpt>
      <trkpt lat="45.85812" lon="4.78799">
        <ele>598.72607</ele>
        <time>2023-09-02T13:00:47.000Z</time>
      </trkpt>
      <trkpt lat="45.85814" lon="4.78801">
        <ele>598.56525</ele>
        <time>2023-09-02T13:00:48.000Z</time>
      </trkpt>
      <trkpt lat="45.85816" lon="4.78804">
        <ele>598.42249</ele>
        <time>2023-09-02T13:00:49.000Z</time>
      </trkpt>
      <trkpt lat="45.85818" lon="4.78805">
        <ele>598.25702</ele>
        <time>2023-09-02T13:00:50.000Z</time>
      </trkpt>
      <trkpt lat="45.8582" lon="4.78808">
        <ele>598.13092</ele>
        <time>2023-09-02T13:00:52.000Z</time>
      </trkpt>
      <trkpt lat="45.85822" lon="4.78809">
        <ele>598.06653</ele>
        <time>2023-09-02T13:00:53.000Z</time>
      </trkpt>
      <trkpt lat="45.85825" lon="4.7881">
        <ele>597.95752</ele>
        <time>2023-09-02T13:00:54.000Z</time>
      </trkpt>
      <trkpt lat="45.85827" lon="4.7881">
        <ele>597.85992</ele>
        <time>2023-09-02T13:00:55.000Z</time>
      </trkpt>
      <trkpt lat="45.8583" lon="4.7881">
        <ele>597.7616</ele>
        <time>2023-09-02T13:00:56.000Z</time>
      </trkpt>
      <trkpt lat="45.85833" lon="4.78811">
        <ele>597.67456</ele>
        <time>2023-09-02T13:00:57.000Z</time>
      </trkpt>
      <trkpt lat="45.85835" lon="4.78812">
        <ele>597.62152</ele>
        <time>2023-09-02T13:00:58.000Z</time>
      </trkpt>
      <trkpt lat="45.85837" lon="4.78813">
        <ele>597.55634</ele>
        <time>2023-09-02T13:00:59.000Z</time>
      </trkpt>
      <trkpt lat="45.85839" lon="4.78815">
        <ele>597.46661</ele>
        <time>2023-09-02T13:01:00.000Z</time>
      </trkpt>
      <trkpt lat="45.8584" lon="4.78818">
        <ele>597.37769</ele>
        <time>2023-09-02T13:01:01.000Z</time>
      </trkpt>
      <trkpt lat="45.8584" lon="4.7882">
        <ele>597.22906</ele>
        <time>2023-09-02T13:01:02.000Z</time>
      </trkpt>
      <trkpt lat="45.85841" lon="4.78823">
        <ele>597.09351</ele>
        <time>2023-09-02T13:01:03.000Z</time>
      </trkpt>
      <trkpt lat="45.85842" lon="4.78826">
        <ele>596.96075</ele>
        <time>2023-09-02T13:01:04.000Z</time>
      </trkpt>
      <trkpt lat="45.85843" lon="4.78828">
        <ele>596.85852</ele>
        <time>2023-09-02T13:01:05.000Z</time>
      </trkpt>
      <trkpt lat="45.85846" lon="4.78829">
        <ele>596.77563</ele>
        <time>2023-09-02T13:01:06.000Z</time>
      </trkpt>
      <trkpt lat="45.85849" lon="4.78829">
        <ele>596.70544</ele>
        <time>2023-09-02T13:01:07.000Z</time>
      </trkpt>
      <trkpt lat="45.85851" lon="4.78827">
        <ele>596.68591</ele>
        <time>2023-09-02T13:01:08.000Z</time>
      </trkpt>
      <trkpt lat="45.85854" lon="4.78826">
        <ele>596.69562</ele>
        <time>2023-09-02T13:01:09.000Z</time>
      </trkpt>
      <trkpt lat="45.85857" lon="4.78824">
        <ele>596.69702</ele>
        <time>2023-09-02T13:01:10.000Z</time>
      </trkpt>
      <trkpt lat="45.85863" lon="4.78821">
        <ele>596.82104</ele>
        <time>2023-09-02T13:01:11.000Z</time>
      </trkpt>
      <trkpt lat="45.85866" lon="4.78819">
        <ele>596.97198</ele>
        <time>2023-09-02T13:01:12.000Z</time>
      </trkpt>
      <trkpt lat="45.85871" lon="4.78819">
        <ele>597.09894</ele>
        <time>2023-09-02T13:01:13.000Z</time>
      </trkpt>
      <trkpt lat="45.85877" lon="4.78819">
        <ele>597.31555</ele>
        <time>2023-09-02T13:01:14.000Z</time>
      </trkpt>
      <trkpt lat="45.85883" lon="4.7882">
        <ele>597.51758</ele>
        <time>2023-09-02T13:01:15.000Z</time>
      </trkpt>
      <trkpt lat="45.85889" lon="4.78821">
        <ele>597.70837</ele>
        <time>2023-09-02T13:01:16.000Z</time>
      </trkpt>
      <trkpt lat="45.85894" lon="4.78821">
        <ele>597.86487</ele>
        <time>2023-09-02T13:01:17.000Z</time>
      </trkpt>
      <trkpt lat="45.85899" lon="4.78822">
        <ele>597.91443</ele>
        <time>2023-09-02T13:01:18.000Z</time>
      </trkpt>
      <trkpt lat="45.85904" lon="4.78823">
        <ele>597.96082</ele>
        <time>2023-09-02T13:01:19.000Z</time>
      </trkpt>
      <trkpt lat="45.85906" lon="4.78824">
        <ele>598.04034</ele>
        <time>2023-09-02T13:01:20.000Z</time>
      </trkpt>
      <trkpt lat="45.8591" lon="4.78825">
        <ele>598.12292</ele>
        <time>2023-09-02T13:01:21.000Z</time>
      </trkpt>
      <trkpt lat="45.85913" lon="4.78825">
        <ele>597.94202</ele>
        <time>2023-09-02T13:01:22.000Z</time>
      </trkpt>
      <trkpt lat="45.85916" lon="4.78826">
        <ele>597.72772</ele>
        <time>2023-09-02T13:01:24.000Z</time>
      </trkpt>
      <trkpt lat="45.85919" lon="4.78827">
        <ele>597.70184</ele>
        <time>2023-09-02T13:01:26.000Z</time>
      </trkpt>
      <trkpt lat="45.85921" lon="4.78827">
        <ele>597.39386</ele>
        <time>2023-09-02T13:01:29.000Z</time>
      </trkpt>
      <trkpt lat="45.85926" lon="4.78824">
        <ele>597.34851</ele>
        <time>2023-09-02T13:01:31.000Z</time>
      </trkpt>
      <trkpt lat="45.85928" lon="4.78824">
        <ele>597.2655</ele>
        <time>2023-09-02T13:01:32.000Z</time>
      </trkpt>
      <trkpt lat="45.85932" lon="4.78824">
        <ele>597.11804</ele>
        <time>2023-09-02T13:01:33.000Z</time>
      </trkpt>
      <trkpt lat="45.85936" lon="4.78825">
        <ele>596.8302</ele>
        <time>2023-09-02T13:01:34.000Z</time>
      </trkpt>
      <trkpt lat="45.85945" lon="4.78826">
        <ele>596.53845</ele>
        <time>2023-09-02T13:01:35.000Z</time>
      </trkpt>
      <trkpt lat="45.85952" lon="4.78828">
        <ele>596.08484</ele>
        <time>2023-09-02T13:01:36.000Z</time>
      </trkpt>
      <trkpt lat="45.85959" lon="4.7883">
        <ele>595.57318</ele>
        <time>2023-09-02T13:01:37.000Z</time>
      </trkpt>
      <trkpt lat="45.85966" lon="4.78835">
        <ele>595.00769</ele>
        <time>2023-09-02T13:01:38.000Z</time>
      </trkpt>
      <trkpt lat="45.85974" lon="4.78841">
        <ele>594.40369</ele>
        <time>2023-09-02T13:01:39.000Z</time>
      </trkpt>
      <trkpt lat="45.85981" lon="4.78844">
        <ele>593.79919</ele>
        <time>2023-09-02T13:01:40.000Z</time>
      </trkpt>
      <trkpt lat="45.85987" lon="4.78848">
        <ele>593.15204</ele>
        <time>2023-09-02T13:01:41.000Z</time>
      </trkpt>
      <trkpt lat="45.85993" lon="4.78852">
        <ele>592.55042</ele>
        <time>2023-09-02T13:01:42.000Z</time>
      </trkpt>
      <trkpt lat="45.86002" lon="4.78855">
        <ele>592.01746</ele>
        <time>2023-09-02T13:01:43.000Z</time>
      </trkpt>
      <trkpt lat="45.86011" lon="4.78858">
        <ele>591.52222</ele>
        <time>2023-09-02T13:01:44.000Z</time>
      </trkpt>
      <trkpt lat="45.86018" lon="4.78861">
        <ele>591.05188</ele>
        <time>2023-09-02T13:01:45.000Z</time>
      </trkpt>
      <trkpt lat="45.86024" lon="4.78865">
        <ele>590.55859</ele>
        <time>2023-09-02T13:01:46.000Z</time>
      </trkpt>
      <trkpt lat="45.86032" lon="4.78871">
        <ele>590.39832</ele>
        <time>2023-09-02T13:01:47.000Z</time>
      </trkpt>
      <trkpt lat="45.86038" lon="4.78875">
        <ele>590.27795</ele>
        <time>2023-09-02T13:01:48.000Z</time>
      </trkpt>
      <trkpt lat="45.86044" lon="4.78881">
        <ele>589.80359</ele>
        <time>2023-09-02T13:01:49.000Z</time>
      </trkpt>
      <trkpt lat="45.8605" lon="4.78885">
        <ele>589.53937</ele>
        <time>2023-09-02T13:01:50.000Z</time>
      </trkpt>
      <trkpt lat="45.86057" lon="4.78888">
        <ele>589.04944</ele>
        <time>2023-09-02T13:01:51.000Z</time>
      </trkpt>
      <trkpt lat="45.86064" lon="4.78891">
        <ele>588.61926</ele>
        <time>2023-09-02T13:01:52.000Z</time>
      </trkpt>
      <trkpt lat="45.86072" lon="4.78897">
        <ele>588.20862</ele>
        <time>2023-09-02T13:01:53.000Z</time>
      </trkpt>
      <trkpt lat="45.86081" lon="4.78901">
        <ele>587.87701</ele>
        <time>2023-09-02T13:01:54.000Z</time>
      </trkpt>
      <trkpt lat="45.86087" lon="4.78904">
        <ele>587.53607</ele>
        <time>2023-09-02T13:01:55.000Z</time>
      </trkpt>
      <trkpt lat="45.86095" lon="4.78908">
        <ele>587.23212</ele>
        <time>2023-09-02T13:01:56.000Z</time>
      </trkpt>
      <trkpt lat="45.86102" lon="4.78913">
        <ele>586.91101</ele>
        <time>2023-09-02T13:01:57.000Z</time>
      </trkpt>
      <trkpt lat="45.86108" lon="4.7892">
        <ele>586.54651</ele>
        <time>2023-09-02T13:01:58.000Z</time>
      </trkpt>
      <trkpt lat="45.86114" lon="4.78927">
        <ele>586.20886</ele>
        <time>2023-09-02T13:01:59.000Z</time>
      </trkpt>
      <trkpt lat="45.86121" lon="4.78932">
        <ele>585.93781</ele>
        <time>2023-09-02T13:02:00.000Z</time>
      </trkpt>
      <trkpt lat="45.86125" lon="4.78938">
        <ele>585.72083</ele>
        <time>2023-09-02T13:02:01.000Z</time>
      </trkpt>
      <trkpt lat="45.86131" lon="4.78944">
        <ele>585.54956</ele>
        <time>2023-09-02T13:02:02.000Z</time>
      </trkpt>
      <trkpt lat="45.86135" lon="4.78947">
        <ele>585.31696</ele>
        <time>2023-09-02T13:02:03.000Z</time>
      </trkpt>
      <trkpt lat="45.86139" lon="4.78953">
        <ele>585.07129</ele>
        <time>2023-09-02T13:02:04.000Z</time>
      </trkpt>
      <trkpt lat="45.86139" lon="4.78961">
        <ele>584.77209</ele>
        <time>2023-09-02T13:02:05.000Z</time>
      </trkpt>
      <trkpt lat="45.86145" lon="4.78966">
        <ele>584.56323</ele>
        <time>2023-09-02T13:02:06.000Z</time>
      </trkpt>
      <trkpt lat="45.86145" lon="4.78971">
        <ele>584.35443</ele>
        <time>2023-09-02T13:02:07.000Z</time>
      </trkpt>
      <trkpt lat="45.86151" lon="4.78976">
        <ele>584.11914</ele>
        <time>2023-09-02T13:02:08.000Z</time>
      </trkpt>
      <trkpt lat="45.86154" lon="4.78981">
        <ele>584.14185</ele>
        <time>2023-09-02T13:02:09.000Z</time>
      </trkpt>
      <trkpt lat="45.86156" lon="4.78986">
        <ele>584.26282</ele>
        <time>2023-09-02T13:02:10.000Z</time>
      </trkpt>
      <trkpt lat="45.86158" lon="4.78988">
        <ele>584.2243</ele>
        <time>2023-09-02T13:02:11.000Z</time>
      </trkpt>
      <trkpt lat="45.8616" lon="4.78991">
        <ele>584.18347</ele>
        <time>2023-09-02T13:02:12.000Z</time>
      </trkpt>
      <trkpt lat="45.86163" lon="4.78994">
        <ele>584.14459</ele>
        <time>2023-09-02T13:02:13.000Z</time>
      </trkpt>
      <trkpt lat="45.86164" lon="4.78999">
        <ele>584.10284</ele>
        <time>2023-09-02T13:02:15.000Z</time>
      </trkpt>
      <trkpt lat="45.86167" lon="4.79003">
        <ele>584.09979</ele>
        <time>2023-09-02T13:02:16.000Z</time>
      </trkpt>
      <trkpt lat="45.8617" lon="4.79008">
        <ele>584.07275</ele>
        <time>2023-09-02T13:02:17.000Z</time>
      </trkpt>
      <trkpt lat="45.86172" lon="4.79014">
        <ele>584.03259</ele>
        <time>2023-09-02T13:02:18.000Z</time>
      </trkpt>
      <trkpt lat="45.86174" lon="4.79019">
        <ele>584.08771</ele>
        <time>2023-09-02T13:02:19.000Z</time>
      </trkpt>
      <trkpt lat="45.86178" lon="4.79023">
        <ele>584.1394</ele>
        <time>2023-09-02T13:02:20.000Z</time>
      </trkpt>
      <trkpt lat="45.8618" lon="4.79025">
        <ele>584.06458</ele>
        <time>2023-09-02T13:02:21.000Z</time>
      </trkpt>
      <trkpt lat="45.86182" lon="4.79029">
        <ele>583.966</ele>
        <time>2023-09-02T13:02:22.000Z</time>
      </trkpt>
      <trkpt lat="45.86186" lon="4.79032">
        <ele>583.85266</ele>
        <time>2023-09-02T13:02:23.000Z</time>
      </trkpt>
      <trkpt lat="45.86188" lon="4.79033">
        <ele>583.83435</ele>
        <time>2023-09-02T13:02:24.000Z</time>
      </trkpt>
      <trkpt lat="45.86191" lon="4.79039">
        <ele>583.83508</ele>
        <time>2023-09-02T13:02:25.000Z</time>
      </trkpt>
      <trkpt lat="45.86196" lon="4.79044">
        <ele>583.9425</ele>
        <time>2023-09-02T13:02:26.000Z</time>
      </trkpt>
      <trkpt lat="45.86199" lon="4.79048">
        <ele>583.96356</ele>
        <time>2023-09-02T13:02:27.000Z</time>
      </trkpt>
      <trkpt lat="45.86205" lon="4.79054">
        <ele>584.00256</ele>
        <time>2023-09-02T13:02:28.000Z</time>
      </trkpt>
      <trkpt lat="45.8621" lon="4.79059">
        <ele>584.06952</ele>
        <time>2023-09-02T13:02:29.000Z</time>
      </trkpt>
      <trkpt lat="45.86214" lon="4.79065">
        <ele>584.06934</ele>
        <time>2023-09-02T13:02:30.000Z</time>
      </trkpt>
      <trkpt lat="45.86219" lon="4.79068">
        <ele>584.04163</ele>
        <time>2023-09-02T13:02:31.000Z</time>
      </trkpt>
      <trkpt lat="45.86224" lon="4.79072">
        <ele>584.10028</ele>
        <time>2023-09-02T13:02:32.000Z</time>
      </trkpt>
      <trkpt lat="45.86229" lon="4.79076">
        <ele>584.1344</ele>
        <time>2023-09-02T13:02:33.000Z</time>
      </trkpt>
      <trkpt lat="45.86236" lon="4.79081">
        <ele>584.17273</ele>
        <time>2023-09-02T13:02:34.000Z</time>
      </trkpt>
      <trkpt lat="45.86244" lon="4.79093">
        <ele>584.18384</ele>
        <time>2023-09-02T13:02:35.000Z</time>
      </trkpt>
      <trkpt lat="45.86247" lon="4.79098">
        <ele>584.12219</ele>
        <time>2023-09-02T13:02:36.000Z</time>
      </trkpt>
      <trkpt lat="45.86252" lon="4.79107">
        <ele>584.06512</ele>
        <time>2023-09-02T13:02:37.000Z</time>
      </trkpt>
      <trkpt lat="45.86254" lon="4.79115">
        <ele>584.04358</ele>
        <time>2023-09-02T13:02:38.000Z</time>
      </trkpt>
      <trkpt lat="45.86257" lon="4.79123">
        <ele>583.86713</ele>
        <time>2023-09-02T13:02:39.000Z</time>
      </trkpt>
      <trkpt lat="45.86263" lon="4.79132">
        <ele>583.61157</ele>
        <time>2023-09-02T13:02:40.000Z</time>
      </trkpt>
      <trkpt lat="45.86267" lon="4.7914">
        <ele>582.99426</ele>
        <time>2023-09-02T13:02:41.000Z</time>
      </trkpt>
      <trkpt lat="45.86272" lon="4.79147">
        <ele>582.36481</ele>
        <time>2023-09-02T13:02:42.000Z</time>
      </trkpt>
      <trkpt lat="45.86276" lon="4.79155">
        <ele>581.69073</ele>
        <time>2023-09-02T13:02:43.000Z</time>
      </trkpt>
      <trkpt lat="45.8628" lon="4.79161">
        <ele>580.92841</ele>
        <time>2023-09-02T13:02:44.000Z</time>
      </trkpt>
      <trkpt lat="45.86284" lon="4.79165">
        <ele>580.09802</ele>
        <time>2023-09-02T13:02:45.000Z</time>
      </trkpt>
      <trkpt lat="45.8629" lon="4.79169">
        <ele>579.20264</ele>
        <time>2023-09-02T13:02:46.000Z</time>
      </trkpt>
      <trkpt lat="45.86295" lon="4.79173">
        <ele>578.34875</ele>
        <time>2023-09-02T13:02:47.000Z</time>
      </trkpt>
      <trkpt lat="45.86299" lon="4.79177">
        <ele>577.50549</ele>
        <time>2023-09-02T13:02:48.000Z</time>
      </trkpt>
      <trkpt lat="45.86303" lon="4.79181">
        <ele>576.98962</ele>
        <time>2023-09-02T13:02:49.000Z</time>
      </trkpt>
      <trkpt lat="45.86309" lon="4.79187">
        <ele>576.40466</ele>
        <time>2023-09-02T13:02:50.000Z</time>
      </trkpt>
      <trkpt lat="45.86312" lon="4.79192">
        <ele>575.80017</ele>
        <time>2023-09-02T13:02:51.000Z</time>
      </trkpt>
      <trkpt lat="45.8632" lon="4.79198">
        <ele>575.24768</ele>
        <time>2023-09-02T13:02:52.000Z</time>
      </trkpt>
      <trkpt lat="45.86325" lon="4.79204">
        <ele>574.67462</ele>
        <time>2023-09-02T13:02:53.000Z</time>
      </trkpt>
      <trkpt lat="45.86331" lon="4.79211">
        <ele>574.09021</ele>
        <time>2023-09-02T13:02:54.000Z</time>
      </trkpt>
      <trkpt lat="45.86336" lon="4.79216">
        <ele>573.52893</ele>
        <time>2023-09-02T13:02:55.000Z</time>
      </trkpt>
      <trkpt lat="45.86341" lon="4.79222">
        <ele>573.23096</ele>
        <time>2023-09-02T13:02:56.000Z</time>
      </trkpt>
      <trkpt lat="45.86349" lon="4.7923">
        <ele>572.91718</ele>
        <time>2023-09-02T13:02:57.000Z</time>
      </trkpt>
      <trkpt lat="45.86355" lon="4.79237">
        <ele>572.58643</ele>
        <time>2023-09-02T13:02:58.000Z</time>
      </trkpt>
      <trkpt lat="45.86361" lon="4.79245">
        <ele>572.38214</ele>
        <time>2023-09-02T13:02:59.000Z</time>
      </trkpt>
      <trkpt lat="45.86367" lon="4.79253">
        <ele>572.24194</ele>
        <time>2023-09-02T13:03:00.000Z</time>
      </trkpt>
      <trkpt lat="45.86374" lon="4.7926">
        <ele>572.52588</ele>
        <time>2023-09-02T13:03:01.000Z</time>
      </trkpt>
      <trkpt lat="45.86382" lon="4.79269">
        <ele>572.82501</ele>
        <time>2023-09-02T13:03:02.000Z</time>
      </trkpt>
      <trkpt lat="45.86391" lon="4.79276">
        <ele>573.13361</ele>
        <time>2023-09-02T13:03:03.000Z</time>
      </trkpt>
      <trkpt lat="45.86399" lon="4.79283">
        <ele>573.42535</ele>
        <time>2023-09-02T13:03:04.000Z</time>
      </trkpt>
      <trkpt lat="45.86407" lon="4.7929">
        <ele>573.76398</ele>
        <time>2023-09-02T13:03:05.000Z</time>
      </trkpt>
      <trkpt lat="45.86414" lon="4.79297">
        <ele>574.09839</ele>
        <time>2023-09-02T13:03:06.000Z</time>
      </trkpt>
      <trkpt lat="45.86421" lon="4.79305">
        <ele>574.11707</ele>
        <time>2023-09-02T13:03:07.000Z</time>
      </trkpt>
      <trkpt lat="45.86428" lon="4.79319">
        <ele>573.92242</ele>
        <time>2023-09-02T13:03:08.000Z</time>
      </trkpt>
      <trkpt lat="45.86435" lon="4.79329">
        <ele>572.93689</ele>
        <time>2023-09-02T13:03:09.000Z</time>
      </trkpt>
      <trkpt lat="45.86443" lon="4.79339">
        <ele>572.70374</ele>
        <time>2023-09-02T13:03:10.000Z</time>
      </trkpt>
      <trkpt lat="45.8645" lon="4.79348">
        <ele>572.45886</ele>
        <time>2023-09-02T13:03:11.000Z</time>
      </trkpt>
      <trkpt lat="45.8646" lon="4.79358">
        <ele>572.16571</ele>
        <time>2023-09-02T13:03:12.000Z</time>
      </trkpt>
      <trkpt lat="45.86467" lon="4.79368">
        <ele>571.88953</ele>
        <time>2023-09-02T13:03:13.000Z</time>
      </trkpt>
      <trkpt lat="45.86475" lon="4.79377">
        <ele>571.56647</ele>
        <time>2023-09-02T13:03:14.000Z</time>
      </trkpt>
      <trkpt lat="45.86484" lon="4.79386">
        <ele>571.28845</ele>
        <time>2023-09-02T13:03:15.000Z</time>
      </trkpt>
      <trkpt lat="45.86492" lon="4.79393">
        <ele>570.79285</ele>
        <time>2023-09-02T13:03:16.000Z</time>
      </trkpt>
      <trkpt lat="45.86501" lon="4.794">
        <ele>569.58606</ele>
        <time>2023-09-02T13:03:17.000Z</time>
      </trkpt>
      <trkpt lat="45.8651" lon="4.79409">
        <ele>568.41223</ele>
        <time>2023-09-02T13:03:18.000Z</time>
      </trkpt>
      <trkpt lat="45.86519" lon="4.79416">
        <ele>567.25696</ele>
        <time>2023-09-02T13:03:19.000Z</time>
      </trkpt>
      <trkpt lat="45.86527" lon="4.79427">
        <ele>566.02936</ele>
        <time>2023-09-02T13:03:20.000Z</time>
      </trkpt>
      <trkpt lat="45.86535" lon="4.79435">
        <ele>564.80804</ele>
        <time>2023-09-02T13:03:21.000Z</time>
      </trkpt>
      <trkpt lat="45.86543" lon="4.79442">
        <ele>563.56775</ele>
        <time>2023-09-02T13:03:22.000Z</time>
      </trkpt>
      <trkpt lat="45.86551" lon="4.7945">
        <ele>562.33734</ele>
        <time>2023-09-02T13:03:23.000Z</time>
      </trkpt>
      <trkpt lat="45.86559" lon="4.79461">
        <ele>561.77753</ele>
        <time>2023-09-02T13:03:24.000Z</time>
      </trkpt>
      <trkpt lat="45.86565" lon="4.79468">
        <ele>561.18713</ele>
        <time>2023-09-02T13:03:25.000Z</time>
      </trkpt>
      <trkpt lat="45.86572" lon="4.79479">
        <ele>560.49963</ele>
        <time>2023-09-02T13:03:26.000Z</time>
      </trkpt>
      <trkpt lat="45.86579" lon="4.79488">
        <ele>560.06726</ele>
        <time>2023-09-02T13:03:27.000Z</time>
      </trkpt>
      <trkpt lat="45.86587" lon="4.79498">
        <ele>559.80634</ele>
        <time>2023-09-02T13:03:28.000Z</time>
      </trkpt>
      <trkpt lat="45.86593" lon="4.79506">
        <ele>558.88928</ele>
        <time>2023-09-02T13:03:29.000Z</time>
      </trkpt>
      <trkpt lat="45.86601" lon="4.79517">
        <ele>557.18164</ele>
        <time>2023-09-02T13:03:30.000Z</time>
      </trkpt>
      <trkpt lat="45.86609" lon="4.79528">
        <ele>555.45978</ele>
        <time>2023-09-02T13:03:31.000Z</time>
      </trkpt>
      <trkpt lat="45.86616" lon="4.79538">
        <ele>553.70129</ele>
        <time>2023-09-02T13:03:32.000Z</time>
      </trkpt>
      <trkpt lat="45.86623" lon="4.79549">
        <ele>551.87213</ele>
        <time>2023-09-02T13:03:33.000Z</time>
      </trkpt>
      <trkpt lat="45.8663" lon="4.7956">
        <ele>550.07147</ele>
        <time>2023-09-02T13:03:34.000Z</time>
      </trkpt>
      <trkpt lat="45.86635" lon="4.79572">
        <ele>548.19885</ele>
        <time>2023-09-02T13:03:35.000Z</time>
      </trkpt>
      <trkpt lat="45.86642" lon="4.79584">
        <ele>546.29376</ele>
        <time>2023-09-02T13:03:36.000Z</time>
      </trkpt>
      <trkpt lat="45.86649" lon="4.79595">
        <ele>545.12042</ele>
        <time>2023-09-02T13:03:37.000Z</time>
      </trkpt>
      <trkpt lat="45.86649" lon="4.79608">
        <ele>543.81323</ele>
        <time>2023-09-02T13:03:38.000Z</time>
      </trkpt>
      <trkpt lat="45.86653" lon="4.79616">
        <ele>542.52826</ele>
        <time>2023-09-02T13:03:39.000Z</time>
      </trkpt>
      <trkpt lat="45.86656" lon="4.79624">
        <ele>541.3407</ele>
        <time>2023-09-02T13:03:40.000Z</time>
      </trkpt>
      <trkpt lat="45.86658" lon="4.79631">
        <ele>540.13959</ele>
        <time>2023-09-02T13:03:41.000Z</time>
      </trkpt>
      <trkpt lat="45.86656" lon="4.79637">
        <ele>538.9292</ele>
        <time>2023-09-02T13:03:42.000Z</time>
      </trkpt>
      <trkpt lat="45.86658" lon="4.79639">
        <ele>537.8609</ele>
        <time>2023-09-02T13:03:43.000Z</time>
      </trkpt>
      <trkpt lat="45.86663" lon="4.79647">
        <ele>536.99677</ele>
        <time>2023-09-02T13:03:44.000Z</time>
      </trkpt>
      <trkpt lat="45.86668" lon="4.79655">
        <ele>535.70325</ele>
        <time>2023-09-02T13:03:45.000Z</time>
      </trkpt>
      <trkpt lat="45.86672" lon="4.79663">
        <ele>534.33533</ele>
        <time>2023-09-02T13:03:46.000Z</time>
      </trkpt>
      <trkpt lat="45.86674" lon="4.79673">
        <ele>533.02747</ele>
        <time>2023-09-02T13:03:47.000Z</time>
      </trkpt>
      <trkpt lat="45.86677" lon="4.79684">
        <ele>531.06384</ele>
        <time>2023-09-02T13:03:48.000Z</time>
      </trkpt>
      <trkpt lat="45.8668" lon="4.79694">
        <ele>530.21277</ele>
        <time>2023-09-02T13:03:49.000Z</time>
      </trkpt>
      <trkpt lat="45.86683" lon="4.79705">
        <ele>529.59058</ele>
        <time>2023-09-02T13:03:50.000Z</time>
      </trkpt>
      <trkpt lat="45.86677" lon="4.79719">
        <ele>528.90588</ele>
        <time>2023-09-02T13:03:51.000Z</time>
      </trkpt>
      <trkpt lat="45.86674" lon="4.79731">
        <ele>527.87439</ele>
        <time>2023-09-02T13:03:52.000Z</time>
      </trkpt>
      <trkpt lat="45.8667" lon="4.79742">
        <ele>526.79871</ele>
        <time>2023-09-02T13:03:53.000Z</time>
      </trkpt>
      <trkpt lat="45.86666" lon="4.79752">
        <ele>525.6886</ele>
        <time>2023-09-02T13:03:54.000Z</time>
      </trkpt>
      <trkpt lat="45.86662" lon="4.7976">
        <ele>524.64142</ele>
        <time>2023-09-02T13:03:55.000Z</time>
      </trkpt>
      <trkpt lat="45.86659" lon="4.79765">
        <ele>523.63562</ele>
        <time>2023-09-02T13:03:56.000Z</time>
      </trkpt>
      <trkpt lat="45.86656" lon="4.79771">
        <ele>522.65735</ele>
        <time>2023-09-02T13:03:57.000Z</time>
      </trkpt>
      <trkpt lat="45.86652" lon="4.79776">
        <ele>521.78748</ele>
        <time>2023-09-02T13:03:58.000Z</time>
      </trkpt>
      <trkpt lat="45.86647" lon="4.79784">
        <ele>520.8924</ele>
        <time>2023-09-02T13:03:59.000Z</time>
      </trkpt>
      <trkpt lat="45.86645" lon="4.7979">
        <ele>519.99072</ele>
        <time>2023-09-02T13:04:00.000Z</time>
      </trkpt>
      <trkpt lat="45.86642" lon="4.79796">
        <ele>520.72205</ele>
        <time>2023-09-02T13:04:01.000Z</time>
      </trkpt>
      <trkpt lat="45.86639" lon="4.79802">
        <ele>519.85217</ele>
        <time>2023-09-02T13:04:02.000Z</time>
      </trkpt>
      <trkpt lat="45.86637" lon="4.79808">
        <ele>518.85583</ele>
        <time>2023-09-02T13:04:03.000Z</time>
      </trkpt>
      <trkpt lat="45.86634" lon="4.79815">
        <ele>516.99225</ele>
        <time>2023-09-02T13:04:04.000Z</time>
      </trkpt>
      <trkpt lat="45.86633" lon="4.79819">
        <ele>515.54993</ele>
        <time>2023-09-02T13:04:05.000Z</time>
      </trkpt>
      <trkpt lat="45.86632" lon="4.79825">
        <ele>514.28876</ele>
        <time>2023-09-02T13:04:06.000Z</time>
      </trkpt>
      <trkpt lat="45.86632" lon="4.79829">
        <ele>513.05695</ele>
        <time>2023-09-02T13:04:07.000Z</time>
      </trkpt>
      <trkpt lat="45.86628" lon="4.79835">
        <ele>512.48499</ele>
        <time>2023-09-02T13:04:08.000Z</time>
      </trkpt>
      <trkpt lat="45.86627" lon="4.7984">
        <ele>511.89771</ele>
        <time>2023-09-02T13:04:09.000Z</time>
      </trkpt>
      <trkpt lat="45.86625" lon="4.79845">
        <ele>511.17578</ele>
        <time>2023-09-02T13:04:10.000Z</time>
      </trkpt>
      <trkpt lat="45.86624" lon="4.7985">
        <ele>510.5787</ele>
        <time>2023-09-02T13:04:11.000Z</time>
      </trkpt>
      <trkpt lat="45.8662" lon="4.79855">
        <ele>510.29257</ele>
        <time>2023-09-02T13:04:12.000Z</time>
      </trkpt>
      <trkpt lat="45.86619" lon="4.79858">
        <ele>510.1167</ele>
        <time>2023-09-02T13:04:13.000Z</time>
      </trkpt>
      <trkpt lat="45.86616" lon="4.79863">
        <ele>509.99814</ele>
        <time>2023-09-02T13:04:14.000Z</time>
      </trkpt>
      <trkpt lat="45.86613" lon="4.79867">
        <ele>509.86664</ele>
        <time>2023-09-02T13:04:15.000Z</time>
      </trkpt>
      <trkpt lat="45.8661" lon="4.79872">
        <ele>509.74927</ele>
        <time>2023-09-02T13:04:16.000Z</time>
      </trkpt>
      <trkpt lat="45.86607" lon="4.79876">
        <ele>509.63208</ele>
        <time>2023-09-02T13:04:17.000Z</time>
      </trkpt>
      <trkpt lat="45.86604" lon="4.7988">
        <ele>509.55646</ele>
        <time>2023-09-02T13:04:18.000Z</time>
      </trkpt>
      <trkpt lat="45.86601" lon="4.79884">
        <ele>509.52191</ele>
        <time>2023-09-02T13:04:19.000Z</time>
      </trkpt>
      <trkpt lat="45.86597" lon="4.79888">
        <ele>509.50177</ele>
        <time>2023-09-02T13:04:20.000Z</time>
      </trkpt>
      <trkpt lat="45.86593" lon="4.79891">
        <ele>507.87686</ele>
        <time>2023-09-02T13:04:21.000Z</time>
      </trkpt>
      <trkpt lat="45.8659" lon="4.79894">
        <ele>507.87396</ele>
        <time>2023-09-02T13:04:22.000Z</time>
      </trkpt>
      <trkpt lat="45.86587" lon="4.79897">
        <ele>507.84283</ele>
        <time>2023-09-02T13:04:23.000Z</time>
      </trkpt>
      <trkpt lat="45.86584" lon="4.799">
        <ele>507.82123</ele>
        <time>2023-09-02T13:04:24.000Z</time>
      </trkpt>
      <trkpt lat="45.86583" lon="4.79905">
        <ele>507.86166</ele>
        <time>2023-09-02T13:04:25.000Z</time>
      </trkpt>
      <trkpt lat="45.86583" lon="4.79909">
        <ele>507.8797</ele>
        <time>2023-09-02T13:04:26.000Z</time>
      </trkpt>
      <trkpt lat="45.86585" lon="4.79913">
        <ele>507.87051</ele>
        <time>2023-09-02T13:04:27.000Z</time>
      </trkpt>
      <trkpt lat="45.86588" lon="4.79916">
        <ele>507.86279</ele>
        <time>2023-09-02T13:04:28.000Z</time>
      </trkpt>
      <trkpt lat="45.86592" lon="4.79919">
        <ele>507.87274</ele>
        <time>2023-09-02T13:04:29.000Z</time>
      </trkpt>
      <trkpt lat="45.86598" lon="4.79919">
        <ele>507.8566</ele>
        <time>2023-09-02T13:04:30.000Z</time>
      </trkpt>
      <trkpt lat="45.86603" lon="4.79921">
        <ele>507.80371</ele>
        <time>2023-09-02T13:04:31.000Z</time>
      </trkpt>
      <trkpt lat="45.86608" lon="4.79922">
        <ele>507.81049</ele>
        <time>2023-09-02T13:04:32.000Z</time>
      </trkpt>
      <trkpt lat="45.86613" lon="4.79925">
        <ele>507.82568</ele>
        <time>2023-09-02T13:04:33.000Z</time>
      </trkpt>
      <trkpt lat="45.86618" lon="4.79927">
        <ele>507.806</ele>
        <time>2023-09-02T13:04:34.000Z</time>
      </trkpt>
      <trkpt lat="45.86622" lon="4.7993">
        <ele>507.78198</ele>
        <time>2023-09-02T13:04:35.000Z</time>
      </trkpt>
      <trkpt lat="45.86627" lon="4.79933">
        <ele>507.73593</ele>
        <time>2023-09-02T13:04:36.000Z</time>
      </trkpt>
      <trkpt lat="45.86631" lon="4.79937">
        <ele>507.66666</ele>
        <time>2023-09-02T13:04:37.000Z</time>
      </trkpt>
      <trkpt lat="45.86636" lon="4.7994">
        <ele>507.58115</ele>
        <time>2023-09-02T13:04:38.000Z</time>
      </trkpt>
      <trkpt lat="45.86641" lon="4.79944">
        <ele>507.48389</ele>
        <time>2023-09-02T13:04:39.000Z</time>
      </trkpt>
      <trkpt lat="45.86646" lon="4.79947">
        <ele>507.36993</ele>
        <time>2023-09-02T13:04:40.000Z</time>
      </trkpt>
      <trkpt lat="45.86651" lon="4.79951">
        <ele>507.24332</ele>
        <time>2023-09-02T13:04:41.000Z</time>
      </trkpt>
      <trkpt lat="45.86655" lon="4.79955">
        <ele>507.12344</ele>
        <time>2023-09-02T13:04:42.000Z</time>
      </trkpt>
      <trkpt lat="45.86661" lon="4.79959">
        <ele>507.01065</ele>
        <time>2023-09-02T13:04:43.000Z</time>
      </trkpt>
      <trkpt lat="45.86665" lon="4.79964">
        <ele>506.90619</ele>
        <time>2023-09-02T13:04:44.000Z</time>
      </trkpt>
      <trkpt lat="45.86668" lon="4.79969">
        <ele>506.77646</ele>
        <time>2023-09-02T13:04:45.000Z</time>
      </trkpt>
      <trkpt lat="45.86672" lon="4.79975">
        <ele>506.65314</ele>
        <time>2023-09-02T13:04:46.000Z</time>
      </trkpt>
      <trkpt lat="45.86676" lon="4.7998">
        <ele>506.52008</ele>
        <time>2023-09-02T13:04:47.000Z</time>
      </trkpt>
      <trkpt lat="45.86679" lon="4.79985">
        <ele>506.43448</ele>
        <time>2023-09-02T13:04:48.000Z</time>
      </trkpt>
      <trkpt lat="45.86681" lon="4.79991">
        <ele>506.35425</ele>
        <time>2023-09-02T13:04:49.000Z</time>
      </trkpt>
      <trkpt lat="45.86684" lon="4.79997">
        <ele>506.29053</ele>
        <time>2023-09-02T13:04:50.000Z</time>
      </trkpt>
      <trkpt lat="45.86687" lon="4.80003">
        <ele>506.22479</ele>
        <time>2023-09-02T13:04:51.000Z</time>
      </trkpt>
      <trkpt lat="45.86689" lon="4.80009">
        <ele>506.16763</ele>
        <time>2023-09-02T13:04:52.000Z</time>
      </trkpt>
      <trkpt lat="45.86692" lon="4.80015">
        <ele>506.1062</ele>
        <time>2023-09-02T13:04:53.000Z</time>
      </trkpt>
      <trkpt lat="45.86695" lon="4.80021">
        <ele>506.08478</ele>
        <time>2023-09-02T13:04:54.000Z</time>
      </trkpt>
      <trkpt lat="45.86698" lon="4.80028">
        <ele>506.08316</ele>
        <time>2023-09-02T13:04:55.000Z</time>
      </trkpt>
      <trkpt lat="45.867" lon="4.80034">
        <ele>506.08115</ele>
        <time>2023-09-02T13:04:56.000Z</time>
      </trkpt>
      <trkpt lat="45.86701" lon="4.80038">
        <ele>506.04306</ele>
        <time>2023-09-02T13:04:57.000Z</time>
      </trkpt>
      <trkpt lat="45.86701" lon="4.80042">
        <ele>505.98471</ele>
        <time>2023-09-02T13:04:58.000Z</time>
      </trkpt>
      <trkpt lat="45.86701" lon="4.80046">
        <ele>505.89771</ele>
        <time>2023-09-02T13:04:59.000Z</time>
      </trkpt>
      <trkpt lat="45.86701" lon="4.80051">
        <ele>505.80453</ele>
        <time>2023-09-02T13:05:01.000Z</time>
      </trkpt>
      <trkpt lat="45.86703" lon="4.80052">
        <ele>505.71118</ele>
        <time>2023-09-02T13:05:02.000Z</time>
      </trkpt>
      <trkpt lat="45.86706" lon="4.80054">
        <ele>505.64575</ele>
        <time>2023-09-02T13:05:04.000Z</time>
      </trkpt>
      <trkpt lat="45.86704" lon="4.80058">
        <ele>505.5705</ele>
        <time>2023-09-02T13:05:10.000Z</time>
      </trkpt>
      <trkpt lat="45.86702" lon="4.80062">
        <ele>505.5025</ele>
        <time>2023-09-02T13:05:11.000Z</time>
      </trkpt>
      <trkpt lat="45.86701" lon="4.80066">
        <ele>505.45059</ele>
        <time>2023-09-02T13:05:12.000Z</time>
      </trkpt>
      <trkpt lat="45.86701" lon="4.80071">
        <ele>505.3912</ele>
        <time>2023-09-02T13:05:13.000Z</time>
      </trkpt>
      <trkpt lat="45.86702" lon="4.80076">
        <ele>505.31216</ele>
        <time>2023-09-02T13:05:14.000Z</time>
      </trkpt>
      <trkpt lat="45.86702" lon="4.80082">
        <ele>505.23199</ele>
        <time>2023-09-02T13:05:15.000Z</time>
      </trkpt>
      <trkpt lat="45.86702" lon="4.80087">
        <ele>505.14404</ele>
        <time>2023-09-02T13:05:16.000Z</time>
      </trkpt>
      <trkpt lat="45.86701" lon="4.80093">
        <ele>505.06183</ele>
        <time>2023-09-02T13:05:17.000Z</time>
      </trkpt>
      <trkpt lat="45.867" lon="4.80098">
        <ele>504.97095</ele>
        <time>2023-09-02T13:05:18.000Z</time>
      </trkpt>
      <trkpt lat="45.867" lon="4.80104">
        <ele>504.84357</ele>
        <time>2023-09-02T13:05:19.000Z</time>
      </trkpt>
      <trkpt lat="45.86702" lon="4.80109">
        <ele>504.73868</ele>
        <time>2023-09-02T13:05:20.000Z</time>
      </trkpt>
      <trkpt lat="45.86706" lon="4.80116">
        <ele>504.6424</ele>
        <time>2023-09-02T13:05:21.000Z</time>
      </trkpt>
      <trkpt lat="45.86706" lon="4.80122">
        <ele>504.5358</ele>
        <time>2023-09-02T13:05:22.000Z</time>
      </trkpt>
      <trkpt lat="45.86705" lon="4.80129">
        <ele>504.43033</ele>
        <time>2023-09-02T13:05:23.000Z</time>
      </trkpt>
      <trkpt lat="45.86705" lon="4.80136">
        <ele>504.34674</ele>
        <time>2023-09-02T13:05:24.000Z</time>
      </trkpt>
      <trkpt lat="45.86704" lon="4.80144">
        <ele>504.2291</ele>
        <time>2023-09-02T13:05:25.000Z</time>
      </trkpt>
      <trkpt lat="45.86705" lon="4.80152">
        <ele>504.11896</ele>
        <time>2023-09-02T13:05:26.000Z</time>
      </trkpt>
      <trkpt lat="45.86705" lon="4.80162">
        <ele>503.98428</ele>
        <time>2023-09-02T13:05:27.000Z</time>
      </trkpt>
      <trkpt lat="45.86706" lon="4.80172">
        <ele>503.84872</ele>
        <time>2023-09-02T13:05:28.000Z</time>
      </trkpt>
      <trkpt lat="45.86705" lon="4.80183">
        <ele>503.75391</ele>
        <time>2023-09-02T13:05:29.000Z</time>
      </trkpt>
      <trkpt lat="45.86706" lon="4.80191">
        <ele>503.51691</ele>
        <time>2023-09-02T13:05:30.000Z</time>
      </trkpt>
      <trkpt lat="45.86705" lon="4.80201">
        <ele>503.31357</ele>
        <time>2023-09-02T13:05:31.000Z</time>
      </trkpt>
      <trkpt lat="45.86704" lon="4.80211">
        <ele>503.13452</ele>
        <time>2023-09-02T13:05:32.000Z</time>
      </trkpt>
      <trkpt lat="45.86703" lon="4.80224">
        <ele>502.9769</ele>
        <time>2023-09-02T13:05:33.000Z</time>
      </trkpt>
      <trkpt lat="45.86702" lon="4.80233">
        <ele>502.83185</ele>
        <time>2023-09-02T13:05:34.000Z</time>
      </trkpt>
      <trkpt lat="45.86703" lon="4.80245">
        <ele>502.66129</ele>
        <time>2023-09-02T13:05:35.000Z</time>
      </trkpt>
      <trkpt lat="45.86704" lon="4.80256">
        <ele>502.44354</ele>
        <time>2023-09-02T13:05:36.000Z</time>
      </trkpt>
      <trkpt lat="45.86706" lon="4.80266">
        <ele>502.18768</ele>
        <time>2023-09-02T13:05:37.000Z</time>
      </trkpt>
      <trkpt lat="45.86708" lon="4.80277">
        <ele>501.90106</ele>
        <time>2023-09-02T13:05:38.000Z</time>
      </trkpt>
      <trkpt lat="45.86712" lon="4.80287">
        <ele>501.67059</ele>
        <time>2023-09-02T13:05:39.000Z</time>
      </trkpt>
      <trkpt lat="45.86716" lon="4.80298">
        <ele>501.38834</ele>
        <time>2023-09-02T13:05:40.000Z</time>
      </trkpt>
      <trkpt lat="45.8672" lon="4.80309">
        <ele>501.02832</ele>
        <time>2023-09-02T13:05:41.000Z</time>
      </trkpt>
      <trkpt lat="45.86722" lon="4.80318">
        <ele>500.70346</ele>
        <time>2023-09-02T13:05:42.000Z</time>
      </trkpt>
      <trkpt lat="45.86724" lon="4.8033">
        <ele>500.36371</ele>
        <time>2023-09-02T13:05:43.000Z</time>
      </trkpt>
      <trkpt lat="45.86726" lon="4.80341">
        <ele>500.04428</ele>
        <time>2023-09-02T13:05:44.000Z</time>
      </trkpt>
      <trkpt lat="45.86728" lon="4.80352">
        <ele>499.79361</ele>
        <time>2023-09-02T13:05:45.000Z</time>
      </trkpt>
      <trkpt lat="45.86732" lon="4.80362">
        <ele>499.55063</ele>
        <time>2023-09-02T13:05:46.000Z</time>
      </trkpt>
      <trkpt lat="45.86736" lon="4.80371">
        <ele>499.24457</ele>
        <time>2023-09-02T13:05:47.000Z</time>
      </trkpt>
      <trkpt lat="45.86738" lon="4.80381">
        <ele>498.83618</ele>
        <time>2023-09-02T13:05:48.000Z</time>
      </trkpt>
      <trkpt lat="45.86742" lon="4.8039">
        <ele>498.27011</ele>
        <time>2023-09-02T13:05:49.000Z</time>
      </trkpt>
      <trkpt lat="45.86746" lon="4.80399">
        <ele>497.82315</ele>
        <time>2023-09-02T13:05:50.000Z</time>
      </trkpt>
      <trkpt lat="45.86751" lon="4.80406">
        <ele>497.38632</ele>
        <time>2023-09-02T13:05:51.000Z</time>
      </trkpt>
      <trkpt lat="45.86756" lon="4.80414">
        <ele>496.83575</ele>
        <time>2023-09-02T13:05:52.000Z</time>
      </trkpt>
      <trkpt lat="45.86761" lon="4.80423">
        <ele>496.25156</ele>
        <time>2023-09-02T13:05:53.000Z</time>
      </trkpt>
      <trkpt lat="45.86767" lon="4.8043">
        <ele>495.62418</ele>
        <time>2023-09-02T13:05:54.000Z</time>
      </trkpt>
      <trkpt lat="45.86774" lon="4.8044">
        <ele>495.22394</ele>
        <time>2023-09-02T13:05:55.000Z</time>
      </trkpt>
      <trkpt lat="45.86779" lon="4.80449">
        <ele>494.37143</ele>
        <time>2023-09-02T13:05:56.000Z</time>
      </trkpt>
      <trkpt lat="45.86785" lon="4.80458">
        <ele>493.44815</ele>
        <time>2023-09-02T13:05:57.000Z</time>
      </trkpt>
      <trkpt lat="45.8679" lon="4.80469">
        <ele>492.50742</ele>
        <time>2023-09-02T13:05:58.000Z</time>
      </trkpt>
      <trkpt lat="45.86795" lon="4.80479">
        <ele>491.47797</ele>
        <time>2023-09-02T13:05:59.000Z</time>
      </trkpt>
      <trkpt lat="45.868" lon="4.80489">
        <ele>490.63974</ele>
        <time>2023-09-02T13:06:00.000Z</time>
      </trkpt>
      <trkpt lat="45.86805" lon="4.80501">
        <ele>489.83585</ele>
        <time>2023-09-02T13:06:01.000Z</time>
      </trkpt>
      <trkpt lat="45.86811" lon="4.80512">
        <ele>488.99838</ele>
        <time>2023-09-02T13:06:02.000Z</time>
      </trkpt>
      <trkpt lat="45.86816" lon="4.80523">
        <ele>488.16006</ele>
        <time>2023-09-02T13:06:03.000Z</time>
      </trkpt>
      <trkpt lat="45.86822" lon="4.80533">
        <ele>487.26645</ele>
        <time>2023-09-02T13:06:04.000Z</time>
      </trkpt>
      <trkpt lat="45.86828" lon="4.80544">
        <ele>486.33868</ele>
        <time>2023-09-02T13:06:05.000Z</time>
      </trkpt>
      <trkpt lat="45.86833" lon="4.80556">
        <ele>485.40317</ele>
        <time>2023-09-02T13:06:06.000Z</time>
      </trkpt>
      <trkpt lat="45.86838" lon="4.80567">
        <ele>484.57123</ele>
        <time>2023-09-02T13:06:07.000Z</time>
      </trkpt>
      <trkpt lat="45.86842" lon="4.80579">
        <ele>483.86359</ele>
        <time>2023-09-02T13:06:08.000Z</time>
      </trkpt>
      <trkpt lat="45.86845" lon="4.80589">
        <ele>483.23251</ele>
        <time>2023-09-02T13:06:09.000Z</time>
      </trkpt>
      <trkpt lat="45.86849" lon="4.80598">
        <ele>482.63736</ele>
        <time>2023-09-02T13:06:10.000Z</time>
      </trkpt>
      <trkpt lat="45.86852" lon="4.80607">
        <ele>482.0065</ele>
        <time>2023-09-02T13:06:11.000Z</time>
      </trkpt>
      <trkpt lat="45.86854" lon="4.80615">
        <ele>481.45074</ele>
        <time>2023-09-02T13:06:12.000Z</time>
      </trkpt>
      <trkpt lat="45.86858" lon="4.80622">
        <ele>480.91412</ele>
        <time>2023-09-02T13:06:13.000Z</time>
      </trkpt>
      <trkpt lat="45.86861" lon="4.80628">
        <ele>480.59668</ele>
        <time>2023-09-02T13:06:14.000Z</time>
      </trkpt>
      <trkpt lat="45.86864" lon="4.80634">
        <ele>480.16031</ele>
        <time>2023-09-02T13:06:15.000Z</time>
      </trkpt>
      <trkpt lat="45.86868" lon="4.8064">
        <ele>479.88803</ele>
        <time>2023-09-02T13:06:16.000Z</time>
      </trkpt>
      <trkpt lat="45.86871" lon="4.80647">
        <ele>479.75577</ele>
        <time>2023-09-02T13:06:17.000Z</time>
      </trkpt>
      <trkpt lat="45.86875" lon="4.80652">
        <ele>479.68842</ele>
        <time>2023-09-02T13:06:18.000Z</time>
      </trkpt>
      <trkpt lat="45.86878" lon="4.80658">
        <ele>479.69257</ele>
        <time>2023-09-02T13:06:19.000Z</time>
      </trkpt>
      <trkpt lat="45.86881" lon="4.80662">
        <ele>479.54572</ele>
        <time>2023-09-02T13:06:20.000Z</time>
      </trkpt>
      <trkpt lat="45.86884" lon="4.80667">
        <ele>479.42426</ele>
        <time>2023-09-02T13:06:21.000Z</time>
      </trkpt>
      <trkpt lat="45.86886" lon="4.80669">
        <ele>479.3024</ele>
        <time>2023-09-02T13:06:22.000Z</time>
      </trkpt>
      <trkpt lat="45.86888" lon="4.80672">
        <ele>479.17227</ele>
        <time>2023-09-02T13:06:34.000Z</time>
      </trkpt>
      <trkpt lat="45.86891" lon="4.80676">
        <ele>479.1062</ele>
        <time>2023-09-02T13:06:36.000Z</time>
      </trkpt>
      <trkpt lat="45.86891" lon="4.80678">
        <ele>479.06049</ele>
        <time>2023-09-02T13:06:37.000Z</time>
      </trkpt>
      <trkpt lat="45.86892" lon="4.80681">
        <ele>479.01285</ele>
        <time>2023-09-02T13:06:38.000Z</time>
      </trkpt>
      <trkpt lat="45.86894" lon="4.80683">
        <ele>478.94476</ele>
        <time>2023-09-02T13:06:39.000Z</time>
      </trkpt>
      <trkpt lat="45.86896" lon="4.80684">
        <ele>478.85284</ele>
        <time>2023-09-02T13:06:40.000Z</time>
      </trkpt>
      <trkpt lat="45.86898" lon="4.80685">
        <ele>478.74081</ele>
        <time>2023-09-02T13:06:41.000Z</time>
      </trkpt>
      <trkpt lat="45.86899" lon="4.80688">
        <ele>478.62665</ele>
        <time>2023-09-02T13:06:42.000Z</time>
      </trkpt>
      <trkpt lat="45.86898" lon="4.8069">
        <ele>478.49194</ele>
        <time>2023-09-02T13:06:43.000Z</time>
      </trkpt>
      <trkpt lat="45.86897" lon="4.80691">
        <ele>478.35602</ele>
        <time>2023-09-02T13:06:44.000Z</time>
      </trkpt>
      <trkpt lat="45.86895" lon="4.8069">
        <ele>478.24628</ele>
        <time>2023-09-02T13:06:45.000Z</time>
      </trkpt>
      <trkpt lat="45.86894" lon="4.80687">
        <ele>477.97672</ele>
        <time>2023-09-02T13:06:46.000Z</time>
      </trkpt>
      <trkpt lat="45.86894" lon="4.80683">
        <ele>477.61212</ele>
        <time>2023-09-02T13:06:47.000Z</time>
      </trkpt>
      <trkpt lat="45.86893" lon="4.8068">
        <ele>477.6076</ele>
        <time>2023-09-02T13:06:48.000Z</time>
      </trkpt>
      <trkpt lat="45.86891" lon="4.80677">
        <ele>477.56183</ele>
        <time>2023-09-02T13:06:49.000Z</time>
      </trkpt>
      <trkpt lat="45.86889" lon="4.80675">
        <ele>477.52109</ele>
        <time>2023-09-02T13:06:50.000Z</time>
      </trkpt>
      <trkpt lat="45.86888" lon="4.80672">
        <ele>477.49829</ele>
        <time>2023-09-02T13:06:51.000Z</time>
      </trkpt>
      <trkpt lat="45.86886" lon="4.8067">
        <ele>477.48453</ele>
        <time>2023-09-02T13:06:52.000Z</time>
      </trkpt>
      <trkpt lat="45.86885" lon="4.80667">
        <ele>477.47296</ele>
        <time>2023-09-02T13:06:53.000Z</time>
      </trkpt>
      <trkpt lat="45.86883" lon="4.80663">
        <ele>477.47031</ele>
        <time>2023-09-02T13:06:54.000Z</time>
      </trkpt>
      <trkpt lat="45.86882" lon="4.80661">
        <ele>477.47202</ele>
        <time>2023-09-02T13:06:55.000Z</time>
      </trkpt>
      <trkpt lat="45.8688" lon="4.80658">
        <ele>477.48151</ele>
        <time>2023-09-02T13:06:56.000Z</time>
      </trkpt>
      <trkpt lat="45.86879" lon="4.80656">
        <ele>477.50311</ele>
        <time>2023-09-02T13:06:57.000Z</time>
      </trkpt>
      <trkpt lat="45.86877" lon="4.80653">
        <ele>477.55096</ele>
        <time>2023-09-02T13:06:58.000Z</time>
      </trkpt>
      <trkpt lat="45.86876" lon="4.80651">
        <ele>477.63052</ele>
        <time>2023-09-02T13:06:59.000Z</time>
      </trkpt>
      <trkpt lat="45.86874" lon="4.80649">
        <ele>477.71078</ele>
        <time>2023-09-02T13:07:00.000Z</time>
      </trkpt>
      <trkpt lat="45.86872" lon="4.80647">
        <ele>477.83975</ele>
        <time>2023-09-02T13:07:01.000Z</time>
      </trkpt>
      <trkpt lat="45.8687" lon="4.80645">
        <ele>477.96777</ele>
        <time>2023-09-02T13:07:02.000Z</time>
      </trkpt>
      <trkpt lat="45.86869" lon="4.80643">
        <ele>478.10034</ele>
        <time>2023-09-02T13:07:03.000Z</time>
      </trkpt>
      <trkpt lat="45.86868" lon="4.80641">
        <ele>478.25903</ele>
        <time>2023-09-02T13:07:04.000Z</time>
      </trkpt>
      <trkpt lat="45.86866" lon="4.80638">
        <ele>478.40265</ele>
        <time>2023-09-02T13:07:05.000Z</time>
      </trkpt>
      <trkpt lat="45.86865" lon="4.80636">
        <ele>478.54962</ele>
        <time>2023-09-02T13:07:06.000Z</time>
      </trkpt>
      <trkpt lat="45.86863" lon="4.80634">
        <ele>478.67072</ele>
        <time>2023-09-02T13:07:07.000Z</time>
      </trkpt>
      <trkpt lat="45.86862" lon="4.80631">
        <ele>478.77106</ele>
        <time>2023-09-02T13:07:08.000Z</time>
      </trkpt>
      <trkpt lat="45.86861" lon="4.80628">
        <ele>478.87616</ele>
        <time>2023-09-02T13:07:09.000Z</time>
      </trkpt>
      <trkpt lat="45.86859" lon="4.80625">
        <ele>478.97479</ele>
        <time>2023-09-02T13:07:10.000Z</time>
      </trkpt>
      <trkpt lat="45.86858" lon="4.80623">
        <ele>479.1001</ele>
        <time>2023-09-02T13:07:11.000Z</time>
      </trkpt>
      <trkpt lat="45.86857" lon="4.8062">
        <ele>479.22308</ele>
        <time>2023-09-02T13:07:12.000Z</time>
      </trkpt>
      <trkpt lat="45.86855" lon="4.80617">
        <ele>479.32111</ele>
        <time>2023-09-02T13:07:13.000Z</time>
      </trkpt>
      <trkpt lat="45.86854" lon="4.80614">
        <ele>479.41486</ele>
        <time>2023-09-02T13:07:14.000Z</time>
      </trkpt>
      <trkpt lat="45.86852" lon="4.8061">
        <ele>479.51221</ele>
        <time>2023-09-02T13:07:15.000Z</time>
      </trkpt>
      <trkpt lat="45.86851" lon="4.80606">
        <ele>479.60669</ele>
        <time>2023-09-02T13:07:16.000Z</time>
      </trkpt>
      <trkpt lat="45.8685" lon="4.80602">
        <ele>479.67725</ele>
        <time>2023-09-02T13:07:17.000Z</time>
      </trkpt>
      <trkpt lat="45.86848" lon="4.80598">
        <ele>479.7099</ele>
        <time>2023-09-02T13:07:18.000Z</time>
      </trkpt>
      <trkpt lat="45.86847" lon="4.80594">
        <ele>479.7265</ele>
        <time>2023-09-02T13:07:19.000Z</time>
      </trkpt>
      <trkpt lat="45.86845" lon="4.80589">
        <ele>479.74921</ele>
        <time>2023-09-02T13:07:20.000Z</time>
      </trkpt>
      <trkpt lat="45.86844" lon="4.80585">
        <ele>479.77118</ele>
        <time>2023-09-02T13:07:21.000Z</time>
      </trkpt>
      <trkpt lat="45.86842" lon="4.80581">
        <ele>479.95721</ele>
        <time>2023-09-02T13:07:22.000Z</time>
      </trkpt>
      <trkpt lat="45.8684" lon="4.80577">
        <ele>480.25934</ele>
        <time>2023-09-02T13:07:23.000Z</time>
      </trkpt>
      <trkpt lat="45.86839" lon="4.80573">
        <ele>480.19223</ele>
        <time>2023-09-02T13:07:24.000Z</time>
      </trkpt>
      <trkpt lat="45.86837" lon="4.80569">
        <ele>480.18204</ele>
        <time>2023-09-02T13:07:25.000Z</time>
      </trkpt>
      <trkpt lat="45.86835" lon="4.80565">
        <ele>480.16534</ele>
        <time>2023-09-02T13:07:26.000Z</time>
      </trkpt>
      <trkpt lat="45.86833" lon="4.80561">
        <ele>480.15512</ele>
        <time>2023-09-02T13:07:27.000Z</time>
      </trkpt>
      <trkpt lat="45.86831" lon="4.80557">
        <ele>480.1474</ele>
        <time>2023-09-02T13:07:28.000Z</time>
      </trkpt>
      <trkpt lat="45.8683" lon="4.80554">
        <ele>480.14008</ele>
        <time>2023-09-02T13:07:29.000Z</time>
      </trkpt>
      <trkpt lat="45.86828" lon="4.80551">
        <ele>480.30463</ele>
        <time>2023-09-02T13:07:30.000Z</time>
      </trkpt>
      <trkpt lat="45.86826" lon="4.80547">
        <ele>480.42487</ele>
        <time>2023-09-02T13:07:31.000Z</time>
      </trkpt>
      <trkpt lat="45.86824" lon="4.80544">
        <ele>480.54111</ele>
        <time>2023-09-02T13:07:32.000Z</time>
      </trkpt>
      <trkpt lat="45.86822" lon="4.8054">
        <ele>480.6813</ele>
        <time>2023-09-02T13:07:33.000Z</time>
      </trkpt>
      <trkpt lat="45.86821" lon="4.80537">
        <ele>480.94415</ele>
        <time>2023-09-02T13:07:34.000Z</time>
      </trkpt>
      <trkpt lat="45.86819" lon="4.80534">
        <ele>480.87061</ele>
        <time>2023-09-02T13:07:35.000Z</time>
      </trkpt>
      <trkpt lat="45.86817" lon="4.80531">
        <ele>480.85294</ele>
        <time>2023-09-02T13:07:36.000Z</time>
      </trkpt>
      <trkpt lat="45.86815" lon="4.80528">
        <ele>480.85513</ele>
        <time>2023-09-02T13:07:37.000Z</time>
      </trkpt>
      <trkpt lat="45.86813" lon="4.80525">
        <ele>480.89288</ele>
        <time>2023-09-02T13:07:38.000Z</time>
      </trkpt>
      <trkpt lat="45.86811" lon="4.80521">
        <ele>480.93906</ele>
        <time>2023-09-02T13:07:39.000Z</time>
      </trkpt>
      <trkpt lat="45.8681" lon="4.80518">
        <ele>480.9848</ele>
        <time>2023-09-02T13:07:40.000Z</time>
      </trkpt>
      <trkpt lat="45.86808" lon="4.80515">
        <ele>481.03448</ele>
        <time>2023-09-02T13:07:41.000Z</time>
      </trkpt>
      <trkpt lat="45.86806" lon="4.80512">
        <ele>480.93936</ele>
        <time>2023-09-02T13:07:42.000Z</time>
      </trkpt>
      <trkpt lat="45.86805" lon="4.80508">
        <ele>480.73453</ele>
        <time>2023-09-02T13:07:43.000Z</time>
      </trkpt>
      <trkpt lat="45.86803" lon="4.80505">
        <ele>480.88043</ele>
        <time>2023-09-02T13:07:44.000Z</time>
      </trkpt>
      <trkpt lat="45.86801" lon="4.80503">
        <ele>481.01065</ele>
        <time>2023-09-02T13:07:45.000Z</time>
      </trkpt>
      <trkpt lat="45.868" lon="4.805">
        <ele>481.15421</ele>
        <time>2023-09-02T13:07:46.000Z</time>
      </trkpt>
      <trkpt lat="45.86799" lon="4.80498">
        <ele>481.30142</ele>
        <time>2023-09-02T13:07:47.000Z</time>
      </trkpt>
      <trkpt lat="45.86798" lon="4.80496">
        <ele>481.45978</ele>
        <time>2023-09-02T13:07:48.000Z</time>
      </trkpt>
      <trkpt lat="45.86797" lon="4.80494">
        <ele>481.62241</ele>
        <time>2023-09-02T13:07:49.000Z</time>
      </trkpt>
      <trkpt lat="45.86794" lon="4.8049">
        <ele>481.63565</ele>
        <time>2023-09-02T13:07:51.000Z</time>
      </trkpt>
      <trkpt lat="45.86793" lon="4.80488">
        <ele>481.71597</ele>
        <time>2023-09-02T13:07:52.000Z</time>
      </trkpt>
      <trkpt lat="45.86792" lon="4.80484">
        <ele>481.82578</ele>
        <time>2023-09-02T13:07:54.000Z</time>
      </trkpt>
      <trkpt lat="45.86791" lon="4.80481">
        <ele>481.94684</ele>
        <time>2023-09-02T13:07:55.000Z</time>
      </trkpt>
      <trkpt lat="45.8679" lon="4.80478">
        <ele>481.96069</ele>
        <time>2023-09-02T13:07:56.000Z</time>
      </trkpt>
      <trkpt lat="45.86788" lon="4.80476">
        <ele>482.4567</ele>
        <time>2023-09-02T13:07:57.000Z</time>
      </trkpt>
      <trkpt lat="45.86787" lon="4.80474">
        <ele>482.88654</ele>
        <time>2023-09-02T13:07:58.000Z</time>
      </trkpt>
      <trkpt lat="45.86785" lon="4.8047">
        <ele>483.26172</ele>
        <time>2023-09-02T13:08:00.000Z</time>
      </trkpt>
      <trkpt lat="45.86784" lon="4.80468">
        <ele>483.58633</ele>
        <time>2023-09-02T13:08:01.000Z</time>
      </trkpt>
      <trkpt lat="45.86783" lon="4.80465">
        <ele>483.89624</ele>
        <time>2023-09-02T13:08:02.000Z</time>
      </trkpt>
      <trkpt lat="45.86782" lon="4.80462">
        <ele>484.20538</ele>
        <time>2023-09-02T13:08:03.000Z</time>
      </trkpt>
      <trkpt lat="45.86782" lon="4.80459">
        <ele>484.50024</ele>
        <time>2023-09-02T13:08:04.000Z</time>
      </trkpt>
      <trkpt lat="45.8678" lon="4.80456">
        <ele>484.76547</ele>
        <time>2023-09-02T13:08:05.000Z</time>
      </trkpt>
      <trkpt lat="45.86779" lon="4.80453">
        <ele>485.03799</ele>
        <time>2023-09-02T13:08:06.000Z</time>
      </trkpt>
      <trkpt lat="45.86778" lon="4.8045">
        <ele>485.31854</ele>
        <time>2023-09-02T13:08:07.000Z</time>
      </trkpt>
      <trkpt lat="45.86776" lon="4.80447">
        <ele>485.52505</ele>
        <time>2023-09-02T13:08:08.000Z</time>
      </trkpt>
      <trkpt lat="45.86775" lon="4.80444">
        <ele>485.72198</ele>
        <time>2023-09-02T13:08:09.000Z</time>
      </trkpt>
      <trkpt lat="45.86773" lon="4.80441">
        <ele>485.9361</ele>
        <time>2023-09-02T13:08:10.000Z</time>
      </trkpt>
      <trkpt lat="45.86772" lon="4.80438">
        <ele>486.15527</ele>
        <time>2023-09-02T13:08:11.000Z</time>
      </trkpt>
      <trkpt lat="45.8677" lon="4.80436">
        <ele>486.4606</ele>
        <time>2023-09-02T13:08:12.000Z</time>
      </trkpt>
      <trkpt lat="45.86768" lon="4.80433">
        <ele>486.75031</ele>
        <time>2023-09-02T13:08:13.000Z</time>
      </trkpt>
      <trkpt lat="45.86767" lon="4.80431">
        <ele>486.97495</ele>
        <time>2023-09-02T13:08:14.000Z</time>
      </trkpt>
      <trkpt lat="45.86766" lon="4.80429">
        <ele>487.3894</ele>
        <time>2023-09-02T13:08:15.000Z</time>
      </trkpt>
      <trkpt lat="45.86763" lon="4.80428">
        <ele>487.60464</ele>
        <time>2023-09-02T13:08:17.000Z</time>
      </trkpt>
      <trkpt lat="45.86763" lon="4.8043">
        <ele>487.8775</ele>
        <time>2023-09-02T13:08:21.000Z</time>
      </trkpt>
      <trkpt lat="45.86764" lon="4.80434">
        <ele>488.00961</ele>
        <time>2023-09-02T13:08:24.000Z</time>
      </trkpt>
      <trkpt lat="45.86765" lon="4.80437">
        <ele>488.25269</ele>
        <time>2023-09-02T13:08:26.000Z</time>
      </trkpt>
      <trkpt lat="45.86763" lon="4.8044">
        <ele>488.59424</ele>
        <time>2023-09-02T13:08:28.000Z</time>
      </trkpt>
      <trkpt lat="45.8676" lon="4.80441">
        <ele>488.86313</ele>
        <time>2023-09-02T13:08:29.000Z</time>
      </trkpt>
      <trkpt lat="45.86757" lon="4.80439">
        <ele>489.25626</ele>
        <time>2023-09-02T13:08:30.000Z</time>
      </trkpt>
      <trkpt lat="45.86754" lon="4.80438">
        <ele>489.37646</ele>
        <time>2023-09-02T13:08:31.000Z</time>
      </trkpt>
      <trkpt lat="45.86752" lon="4.80437">
        <ele>489.52582</ele>
        <time>2023-09-02T13:08:32.000Z</time>
      </trkpt>
      <trkpt lat="45.8675" lon="4.80436">
        <ele>489.6683</ele>
        <time>2023-09-02T13:08:35.000Z</time>
      </trkpt>
      <trkpt lat="45.86748" lon="4.80435">
        <ele>489.87836</ele>
        <time>2023-09-02T13:08:42.000Z</time>
      </trkpt>
      <trkpt lat="45.86746" lon="4.80434">
        <ele>490.05396</ele>
        <time>2023-09-02T13:08:43.000Z</time>
      </trkpt>
      <trkpt lat="45.86744" lon="4.80434">
        <ele>490.30893</ele>
        <time>2023-09-02T13:08:44.000Z</time>
      </trkpt>
      <trkpt lat="45.86741" lon="4.80434">
        <ele>490.56158</ele>
        <time>2023-09-02T13:08:45.000Z</time>
      </trkpt>
      <trkpt lat="45.86738" lon="4.80434">
        <ele>490.76181</ele>
        <time>2023-09-02T13:08:46.000Z</time>
      </trkpt>
      <trkpt lat="45.86734" lon="4.80433">
        <ele>490.95273</ele>
        <time>2023-09-02T13:08:47.000Z</time>
      </trkpt>
      <trkpt lat="45.8673" lon="4.80431">
        <ele>490.95416</ele>
        <time>2023-09-02T13:08:48.000Z</time>
      </trkpt>
      <trkpt lat="45.86728" lon="4.80429">
        <ele>490.93124</ele>
        <time>2023-09-02T13:08:49.000Z</time>
      </trkpt>
      <trkpt lat="45.86725" lon="4.80426">
        <ele>490.85117</ele>
        <time>2023-09-02T13:08:50.000Z</time>
      </trkpt>
      <trkpt lat="45.86723" lon="4.80424">
        <ele>490.31827</ele>
        <time>2023-09-02T13:08:51.000Z</time>
      </trkpt>
      <trkpt lat="45.86722" lon="4.80422">
        <ele>490.18549</ele>
        <time>2023-09-02T13:08:55.000Z</time>
      </trkpt>
      <trkpt lat="45.8672" lon="4.8042">
        <ele>490.11499</ele>
        <time>2023-09-02T13:08:56.000Z</time>
      </trkpt>
      <trkpt lat="45.86719" lon="4.80417">
        <ele>490.01123</ele>
        <time>2023-09-02T13:08:57.000Z</time>
      </trkpt>
      <trkpt lat="45.86718" lon="4.80414">
        <ele>489.93622</ele>
        <time>2023-09-02T13:08:58.000Z</time>
      </trkpt>
      <trkpt lat="45.86715" lon="4.80413">
        <ele>489.87323</ele>
        <time>2023-09-02T13:09:00.000Z</time>
      </trkpt>
      <trkpt lat="45.86715" lon="4.80416">
        <ele>489.90308</ele>
        <time>2023-09-02T13:09:02.000Z</time>
      </trkpt>
      <trkpt lat="45.86715" lon="4.8042">
        <ele>489.50604</ele>
        <time>2023-09-02T13:09:03.000Z</time>
      </trkpt>
      <trkpt lat="45.86716" lon="4.80425">
        <ele>489.54166</ele>
        <time>2023-09-02T13:09:04.000Z</time>
      </trkpt>
      <trkpt lat="45.86717" lon="4.8043">
        <ele>489.58447</ele>
        <time>2023-09-02T13:09:05.000Z</time>
      </trkpt>
      <trkpt lat="45.86717" lon="4.80434">
        <ele>489.65292</ele>
        <time>2023-09-02T13:09:06.000Z</time>
      </trkpt>
      <trkpt lat="45.86718" lon="4.80438">
        <ele>489.60049</ele>
        <time>2023-09-02T13:09:07.000Z</time>
      </trkpt>
      <trkpt lat="45.86719" lon="4.80441">
        <ele>489.44931</ele>
        <time>2023-09-02T13:09:08.000Z</time>
      </trkpt>
      <trkpt lat="45.86722" lon="4.80445">
        <ele>489.21454</ele>
        <time>2023-09-02T13:09:09.000Z</time>
      </trkpt>
      <trkpt lat="45.86725" lon="4.80449">
        <ele>488.99081</ele>
        <time>2023-09-02T13:09:10.000Z</time>
      </trkpt>
      <trkpt lat="45.86728" lon="4.80452">
        <ele>488.88705</ele>
        <time>2023-09-02T13:09:11.000Z</time>
      </trkpt>
      <trkpt lat="45.8673" lon="4.80455">
        <ele>488.60815</ele>
        <time>2023-09-02T13:09:12.000Z</time>
      </trkpt>
      <trkpt lat="45.86731" lon="4.80458">
        <ele>488.30322</ele>
        <time>2023-09-02T13:09:13.000Z</time>
      </trkpt>
      <trkpt lat="45.86732" lon="4.80464">
        <ele>487.98398</ele>
        <time>2023-09-02T13:09:14.000Z</time>
      </trkpt>
      <trkpt lat="45.86737" lon="4.80474">
        <ele>487.6254</ele>
        <time>2023-09-02T13:09:15.000Z</time>
      </trkpt>
      <trkpt lat="45.86739" lon="4.80479">
        <ele>487.44965</ele>
        <time>2023-09-02T13:09:16.000Z</time>
      </trkpt>
      <trkpt lat="45.8674" lon="4.80486">
        <ele>487.00415</ele>
        <time>2023-09-02T13:09:17.000Z</time>
      </trkpt>
      <trkpt lat="45.86742" lon="4.80493">
        <ele>486.40448</ele>
        <time>2023-09-02T13:09:18.000Z</time>
      </trkpt>
      <trkpt lat="45.86745" lon="4.80497">
        <ele>485.86972</ele>
        <time>2023-09-02T13:09:19.000Z</time>
      </trkpt>
      <trkpt lat="45.86747" lon="4.80505">
        <ele>485.10855</ele>
        <time>2023-09-02T13:09:20.000Z</time>
      </trkpt>
      <trkpt lat="45.8675" lon="4.8051">
        <ele>484.42755</ele>
        <time>2023-09-02T13:09:21.000Z</time>
      </trkpt>
      <trkpt lat="45.86753" lon="4.80513">
        <ele>483.69907</ele>
        <time>2023-09-02T13:09:22.000Z</time>
      </trkpt>
      <trkpt lat="45.86755" lon="4.8052">
        <ele>483.17212</ele>
        <time>2023-09-02T13:09:23.000Z</time>
      </trkpt>
      <trkpt lat="45.86757" lon="4.80525">
        <ele>482.37347</ele>
        <time>2023-09-02T13:09:24.000Z</time>
      </trkpt>
      <trkpt lat="45.86758" lon="4.80531">
        <ele>481.50763</ele>
        <time>2023-09-02T13:09:25.000Z</time>
      </trkpt>
      <trkpt lat="45.86761" lon="4.80536">
        <ele>480.62759</ele>
        <time>2023-09-02T13:09:26.000Z</time>
      </trkpt>
      <trkpt lat="45.86763" lon="4.8054">
        <ele>479.78214</ele>
        <time>2023-09-02T13:09:27.000Z</time>
      </trkpt>
      <trkpt lat="45.86766" lon="4.80543">
        <ele>479.16357</ele>
        <time>2023-09-02T13:09:28.000Z</time>
      </trkpt>
      <trkpt lat="45.86769" lon="4.80544">
        <ele>478.58453</ele>
        <time>2023-09-02T13:09:29.000Z</time>
      </trkpt>
      <trkpt lat="45.86772" lon="4.80547">
        <ele>477.98944</ele>
        <time>2023-09-02T13:09:30.000Z</time>
      </trkpt>
      <trkpt lat="45.86774" lon="4.8055">
        <ele>477.30038</ele>
        <time>2023-09-02T13:09:31.000Z</time>
      </trkpt>
      <trkpt lat="45.86777" lon="4.80554">
        <ele>476.74146</ele>
        <time>2023-09-02T13:09:32.000Z</time>
      </trkpt>
      <trkpt lat="45.8678" lon="4.80558">
        <ele>476.34406</ele>
        <time>2023-09-02T13:09:33.000Z</time>
      </trkpt>
      <trkpt lat="45.86783" lon="4.80562">
        <ele>475.97559</ele>
        <time>2023-09-02T13:09:34.000Z</time>
      </trkpt>
      <trkpt lat="45.86786" lon="4.80565">
        <ele>475.75626</ele>
        <time>2023-09-02T13:09:35.000Z</time>
      </trkpt>
      <trkpt lat="45.86789" lon="4.80569">
        <ele>475.60019</ele>
        <time>2023-09-02T13:09:36.000Z</time>
      </trkpt>
      <trkpt lat="45.86792" lon="4.80572">
        <ele>475.51788</ele>
        <time>2023-09-02T13:09:37.000Z</time>
      </trkpt>
      <trkpt lat="45.86795" lon="4.80576">
        <ele>475.43036</ele>
        <time>2023-09-02T13:09:38.000Z</time>
      </trkpt>
      <trkpt lat="45.86797" lon="4.80579">
        <ele>475.31207</ele>
        <time>2023-09-02T13:09:39.000Z</time>
      </trkpt>
      <trkpt lat="45.86799" lon="4.80583">
        <ele>475.26523</ele>
        <time>2023-09-02T13:09:40.000Z</time>
      </trkpt>
      <trkpt lat="45.86802" lon="4.80586">
        <ele>475.07745</ele>
        <time>2023-09-02T13:09:41.000Z</time>
      </trkpt>
      <trkpt lat="45.86804" lon="4.8059">
        <ele>474.94223</ele>
        <time>2023-09-02T13:09:42.000Z</time>
      </trkpt>
      <trkpt lat="45.86806" lon="4.80595">
        <ele>475.09259</ele>
        <time>2023-09-02T13:09:43.000Z</time>
      </trkpt>
      <trkpt lat="45.86807" lon="4.806">
        <ele>475.3548</ele>
        <time>2023-09-02T13:09:44.000Z</time>
      </trkpt>
      <trkpt lat="45.86808" lon="4.80605">
        <ele>475.64752</ele>
        <time>2023-09-02T13:09:45.000Z</time>
      </trkpt>
      <trkpt lat="45.86809" lon="4.8061">
        <ele>475.93536</ele>
        <time>2023-09-02T13:09:46.000Z</time>
      </trkpt>
      <trkpt lat="45.8681" lon="4.80616">
        <ele>476.21381</ele>
        <time>2023-09-02T13:09:47.000Z</time>
      </trkpt>
      <trkpt lat="45.8681" lon="4.80622">
        <ele>476.37524</ele>
        <time>2023-09-02T13:09:48.000Z</time>
      </trkpt>
      <trkpt lat="45.8681" lon="4.80628">
        <ele>476.65204</ele>
        <time>2023-09-02T13:09:49.000Z</time>
      </trkpt>
      <trkpt lat="45.86809" lon="4.80633">
        <ele>476.91171</ele>
        <time>2023-09-02T13:09:50.000Z</time>
      </trkpt>
      <trkpt lat="45.86809" lon="4.80637">
        <ele>476.67865</ele>
        <time>2023-09-02T13:09:51.000Z</time>
      </trkpt>
      <trkpt lat="45.8681" lon="4.8064">
        <ele>476.52481</ele>
        <time>2023-09-02T13:09:52.000Z</time>
      </trkpt>
      <trkpt lat="45.86809" lon="4.80645">
        <ele>476.31284</ele>
        <time>2023-09-02T13:09:53.000Z</time>
      </trkpt>
      <trkpt lat="45.8681" lon="4.80651">
        <ele>476.07333</ele>
        <time>2023-09-02T13:09:54.000Z</time>
      </trkpt>
      <trkpt lat="45.8681" lon="4.80659">
        <ele>475.80267</ele>
        <time>2023-09-02T13:09:55.000Z</time>
      </trkpt>
      <trkpt lat="45.86811" lon="4.80667">
        <ele>475.50885</ele>
        <time>2023-09-02T13:09:56.000Z</time>
      </trkpt>
      <trkpt lat="45.86811" lon="4.80675">
        <ele>475.19562</ele>
        <time>2023-09-02T13:09:57.000Z</time>
      </trkpt>
      <trkpt lat="45.86813" lon="4.80681">
        <ele>474.90503</ele>
        <time>2023-09-02T13:09:58.000Z</time>
      </trkpt>
      <trkpt lat="45.86814" lon="4.80687">
        <ele>474.61273</ele>
        <time>2023-09-02T13:09:59.000Z</time>
      </trkpt>
      <trkpt lat="45.86813" lon="4.80692">
        <ele>474.36652</ele>
        <time>2023-09-02T13:10:00.000Z</time>
      </trkpt>
      <trkpt lat="45.86813" lon="4.80698">
        <ele>474.23697</ele>
        <time>2023-09-02T13:10:01.000Z</time>
      </trkpt>
      <trkpt lat="45.86812" lon="4.80703">
        <ele>474.04175</ele>
        <time>2023-09-02T13:10:02.000Z</time>
      </trkpt>
      <trkpt lat="45.86812" lon="4.80708">
        <ele>473.59677</ele>
        <time>2023-09-02T13:10:03.000Z</time>
      </trkpt>
      <trkpt lat="45.86812" lon="4.80714">
        <ele>473.07202</ele>
        <time>2023-09-02T13:10:04.000Z</time>
      </trkpt>
      <trkpt lat="45.86813" lon="4.80717">
        <ele>472.53922</ele>
        <time>2023-09-02T13:10:05.000Z</time>
      </trkpt>
      <trkpt lat="45.86814" lon="4.8072">
        <ele>472.02499</ele>
        <time>2023-09-02T13:10:08.000Z</time>
      </trkpt>
      <trkpt lat="45.86814" lon="4.80723">
        <ele>471.36029</ele>
        <time>2023-09-02T13:10:24.000Z</time>
      </trkpt>
      <trkpt lat="45.86812" lon="4.80725">
        <ele>470.81104</ele>
        <time>2023-09-02T13:10:25.000Z</time>
      </trkpt>
      <trkpt lat="45.8681" lon="4.80727">
        <ele>470.11304</ele>
        <time>2023-09-02T13:10:26.000Z</time>
      </trkpt>
      <trkpt lat="45.86809" lon="4.8073">
        <ele>469.43427</ele>
        <time>2023-09-02T13:10:27.000Z</time>
      </trkpt>
      <trkpt lat="45.86807" lon="4.80733">
        <ele>469.25385</ele>
        <time>2023-09-02T13:10:28.000Z</time>
      </trkpt>
      <trkpt lat="45.86806" lon="4.80734">
        <ele>468.9787</ele>
        <time>2023-09-02T13:10:29.000Z</time>
      </trkpt>
      <trkpt lat="45.86802" lon="4.80737">
        <ele>468.4917</ele>
        <time>2023-09-02T13:10:31.000Z</time>
      </trkpt>
      <trkpt lat="45.868" lon="4.8074">
        <ele>467.97647</ele>
        <time>2023-09-02T13:10:33.000Z</time>
      </trkpt>
      <trkpt lat="45.86798" lon="4.80741">
        <ele>467.3963</ele>
        <time>2023-09-02T13:10:35.000Z</time>
      </trkpt>
      <trkpt lat="45.86795" lon="4.80741">
        <ele>466.92548</ele>
        <time>2023-09-02T13:10:38.000Z</time>
      </trkpt>
      <trkpt lat="45.86792" lon="4.80743">
        <ele>466.43378</ele>
        <time>2023-09-02T13:10:40.000Z</time>
      </trkpt>
      <trkpt lat="45.86789" lon="4.80744">
        <ele>466.06802</ele>
        <time>2023-09-02T13:10:42.000Z</time>
      </trkpt>
      <trkpt lat="45.86787" lon="4.80744">
        <ele>465.72198</ele>
        <time>2023-09-02T13:10:43.000Z</time>
      </trkpt>
      <trkpt lat="45.86785" lon="4.80745">
        <ele>465.2757</ele>
        <time>2023-09-02T13:10:44.000Z</time>
      </trkpt>
      <trkpt lat="45.86783" lon="4.80746">
        <ele>464.68085</ele>
        <time>2023-09-02T13:10:45.000Z</time>
      </trkpt>
      <trkpt lat="45.8678" lon="4.80746">
        <ele>464.07364</ele>
        <time>2023-09-02T13:10:46.000Z</time>
      </trkpt>
      <trkpt lat="45.86779" lon="4.80745">
        <ele>463.55771</ele>
        <time>2023-09-02T13:10:47.000Z</time>
      </trkpt>
      <trkpt lat="45.86776" lon="4.80744">
        <ele>463.16513</ele>
        <time>2023-09-02T13:10:49.000Z</time>
      </trkpt>
      <trkpt lat="45.86774" lon="4.8074">
        <ele>462.9422</ele>
        <time>2023-09-02T13:10:57.000Z</time>
      </trkpt>
      <trkpt lat="45.86772" lon="4.80738">
        <ele>462.65366</ele>
        <time>2023-09-02T13:10:58.000Z</time>
      </trkpt>
      <trkpt lat="45.8677" lon="4.80735">
        <ele>462.46558</ele>
        <time>2023-09-02T13:11:00.000Z</time>
      </trkpt>
      <trkpt lat="45.86767" lon="4.80734">
        <ele>462.07709</ele>
        <time>2023-09-02T13:11:01.000Z</time>
      </trkpt>
      <trkpt lat="45.86765" lon="4.80732">
        <ele>461.69537</ele>
        <time>2023-09-02T13:11:03.000Z</time>
      </trkpt>
      <trkpt lat="45.86762" lon="4.8073">
        <ele>461.17755</ele>
        <time>2023-09-02T13:11:05.000Z</time>
      </trkpt>
      <trkpt lat="45.86758" lon="4.8073">
        <ele>460.35651</ele>
        <time>2023-09-02T13:11:07.000Z</time>
      </trkpt>
      <trkpt lat="45.86756" lon="4.80729">
        <ele>459.64584</ele>
        <time>2023-09-02T13:11:08.000Z</time>
      </trkpt>
      <trkpt lat="45.86754" lon="4.80729">
        <ele>459.13141</ele>
        <time>2023-09-02T13:11:09.000Z</time>
      </trkpt>
      <trkpt lat="45.86751" lon="4.80728">
        <ele>458.78769</ele>
        <time>2023-09-02T13:11:11.000Z</time>
      </trkpt>
      <trkpt lat="45.86748" lon="4.80726">
        <ele>458.66464</ele>
        <time>2023-09-02T13:11:12.000Z</time>
      </trkpt>
      <trkpt lat="45.86745" lon="4.80724">
        <ele>458.31879</ele>
        <time>2023-09-02T13:11:13.000Z</time>
      </trkpt>
      <trkpt lat="45.86742" lon="4.80722">
        <ele>458.07062</ele>
        <time>2023-09-02T13:11:14.000Z</time>
      </trkpt>
      <trkpt lat="45.8674" lon="4.8072">
        <ele>458.20004</ele>
        <time>2023-09-02T13:11:15.000Z</time>
      </trkpt>
      <trkpt lat="45.86737" lon="4.80717">
        <ele>458.38116</ele>
        <time>2023-09-02T13:11:16.000Z</time>
      </trkpt>
      <trkpt lat="45.86735" lon="4.80716">
        <ele>458.53094</ele>
        <time>2023-09-02T13:11:17.000Z</time>
      </trkpt>
      <trkpt lat="45.86734" lon="4.80716">
        <ele>457.51227</ele>
        <time>2023-09-02T13:11:18.000Z</time>
      </trkpt>
      <trkpt lat="45.86732" lon="4.80718">
        <ele>456.76538</ele>
        <time>2023-09-02T13:11:19.000Z</time>
      </trkpt>
      <trkpt lat="45.8673" lon="4.80721">
        <ele>455.98398</ele>
        <time>2023-09-02T13:11:21.000Z</time>
      </trkpt>
      <trkpt lat="45.86728" lon="4.80722">
        <ele>455.63226</ele>
        <time>2023-09-02T13:11:23.000Z</time>
      </trkpt>
      <trkpt lat="45.86727" lon="4.80724">
        <ele>455.50812</ele>
        <time>2023-09-02T13:11:24.000Z</time>
      </trkpt>
      <trkpt lat="45.86725" lon="4.80726">
        <ele>455.47186</ele>
        <time>2023-09-02T13:11:25.000Z</time>
      </trkpt>
      <trkpt lat="45.86722" lon="4.80729">
        <ele>455.46973</ele>
        <time>2023-09-02T13:11:26.000Z</time>
      </trkpt>
      <trkpt lat="45.86721" lon="4.80732">
        <ele>455.60043</ele>
        <time>2023-09-02T13:11:27.000Z</time>
      </trkpt>
      <trkpt lat="45.86719" lon="4.80735">
        <ele>455.50342</ele>
        <time>2023-09-02T13:11:28.000Z</time>
      </trkpt>
      <trkpt lat="45.86718" lon="4.80737">
        <ele>455.05762</ele>
        <time>2023-09-02T13:11:29.000Z</time>
      </trkpt>
      <trkpt lat="45.86718" lon="4.8074">
        <ele>455.06342</ele>
        <time>2023-09-02T13:11:30.000Z</time>
      </trkpt>
      <trkpt lat="45.86717" lon="4.80743">
        <ele>454.57794</ele>
        <time>2023-09-02T13:11:31.000Z</time>
      </trkpt>
      <trkpt lat="45.86717" lon="4.80745">
        <ele>454.08121</ele>
        <time>2023-09-02T13:11:32.000Z</time>
      </trkpt>
      <trkpt lat="45.86715" lon="4.80748">
        <ele>453.49683</ele>
        <time>2023-09-02T13:11:33.000Z</time>
      </trkpt>
      <trkpt lat="45.86712" lon="4.80752">
        <ele>452.79678</ele>
        <time>2023-09-02T13:11:34.000Z</time>
      </trkpt>
      <trkpt lat="45.8671" lon="4.80757">
        <ele>452.3356</ele>
        <time>2023-09-02T13:11:35.000Z</time>
      </trkpt>
      <trkpt lat="45.8671" lon="4.80761">
        <ele>451.62524</ele>
        <time>2023-09-02T13:11:36.000Z</time>
      </trkpt>
      <trkpt lat="45.86709" lon="4.80766">
        <ele>450.93668</ele>
        <time>2023-09-02T13:11:37.000Z</time>
      </trkpt>
      <trkpt lat="45.86707" lon="4.80771">
        <ele>450.15057</ele>
        <time>2023-09-02T13:11:38.000Z</time>
      </trkpt>
      <trkpt lat="45.86707" lon="4.80776">
        <ele>449.42227</ele>
        <time>2023-09-02T13:11:39.000Z</time>
      </trkpt>
      <trkpt lat="45.86707" lon="4.8078">
        <ele>449.85956</ele>
        <time>2023-09-02T13:11:40.000Z</time>
      </trkpt>
      <trkpt lat="45.86707" lon="4.80785">
        <ele>450.13028</ele>
        <time>2023-09-02T13:11:41.000Z</time>
      </trkpt>
      <trkpt lat="45.86708" lon="4.8079">
        <ele>448.35498</ele>
        <time>2023-09-02T13:11:42.000Z</time>
      </trkpt>
      <trkpt lat="45.86709" lon="4.80794">
        <ele>448.09589</ele>
        <time>2023-09-02T13:11:43.000Z</time>
      </trkpt>
      <trkpt lat="45.8671" lon="4.808">
        <ele>446.84995</ele>
        <time>2023-09-02T13:11:44.000Z</time>
      </trkpt>
      <trkpt lat="45.86711" lon="4.80805">
        <ele>445.52277</ele>
        <time>2023-09-02T13:11:45.000Z</time>
      </trkpt>
      <trkpt lat="45.86713" lon="4.8081">
        <ele>444.15936</ele>
        <time>2023-09-02T13:11:46.000Z</time>
      </trkpt>
      <trkpt lat="45.86714" lon="4.80816">
        <ele>442.75317</ele>
        <time>2023-09-02T13:11:47.000Z</time>
      </trkpt>
      <trkpt lat="45.86716" lon="4.80821">
        <ele>441.53906</ele>
        <time>2023-09-02T13:11:48.000Z</time>
      </trkpt>
      <trkpt lat="45.86718" lon="4.80827">
        <ele>440.98096</ele>
        <time>2023-09-02T13:11:49.000Z</time>
      </trkpt>
      <trkpt lat="45.86719" lon="4.80833">
        <ele>440.1745</ele>
        <time>2023-09-02T13:11:50.000Z</time>
      </trkpt>
      <trkpt lat="45.86721" lon="4.80839">
        <ele>439.8479</ele>
        <time>2023-09-02T13:11:51.000Z</time>
      </trkpt>
      <trkpt lat="45.86722" lon="4.80845">
        <ele>439.51523</ele>
        <time>2023-09-02T13:11:52.000Z</time>
      </trkpt>
      <trkpt lat="45.86723" lon="4.80851">
        <ele>438.79019</ele>
        <time>2023-09-02T13:11:53.000Z</time>
      </trkpt>
      <trkpt lat="45.86724" lon="4.80857">
        <ele>438.06992</ele>
        <time>2023-09-02T13:11:54.000Z</time>
      </trkpt>
      <trkpt lat="45.86725" lon="4.80863">
        <ele>437.15063</ele>
        <time>2023-09-02T13:11:55.000Z</time>
      </trkpt>
      <trkpt lat="45.86725" lon="4.80871">
        <ele>436.78595</ele>
        <time>2023-09-02T13:11:56.000Z</time>
      </trkpt>
      <trkpt lat="45.86725" lon="4.80877">
        <ele>436.48431</ele>
        <time>2023-09-02T13:11:57.000Z</time>
      </trkpt>
      <trkpt lat="45.86724" lon="4.80883">
        <ele>436.37289</ele>
        <time>2023-09-02T13:11:58.000Z</time>
      </trkpt>
      <trkpt lat="45.86724" lon="4.80889">
        <ele>436.35147</ele>
        <time>2023-09-02T13:11:59.000Z</time>
      </trkpt>
      <trkpt lat="45.86723" lon="4.80894">
        <ele>436.36432</ele>
        <time>2023-09-02T13:12:00.000Z</time>
      </trkpt>
      <trkpt lat="45.86723" lon="4.80898">
        <ele>436.50439</ele>
        <time>2023-09-02T13:12:01.000Z</time>
      </trkpt>
      <trkpt lat="45.86723" lon="4.80903">
        <ele>438.52939</ele>
        <time>2023-09-02T13:12:02.000Z</time>
      </trkpt>
      <trkpt lat="45.86722" lon="4.80908">
        <ele>439.03156</ele>
        <time>2023-09-02T13:12:03.000Z</time>
      </trkpt>
      <trkpt lat="45.86723" lon="4.80912">
        <ele>440.39355</ele>
        <time>2023-09-02T13:12:04.000Z</time>
      </trkpt>
      <trkpt lat="45.86722" lon="4.80918">
        <ele>441.61002</ele>
        <time>2023-09-02T13:12:05.000Z</time>
      </trkpt>
      <trkpt lat="45.86722" lon="4.80927">
        <ele>442.89053</ele>
        <time>2023-09-02T13:12:06.000Z</time>
      </trkpt>
      <trkpt lat="45.86722" lon="4.80936">
        <ele>444.07773</ele>
        <time>2023-09-02T13:12:07.000Z</time>
      </trkpt>
      <trkpt lat="45.86724" lon="4.80945">
        <ele>445.20963</ele>
        <time>2023-09-02T13:12:08.000Z</time>
      </trkpt>
      <trkpt lat="45.86724" lon="4.80954">
        <ele>446.16196</ele>
        <time>2023-09-02T13:12:09.000Z</time>
      </trkpt>
      <trkpt lat="45.86724" lon="4.80962">
        <ele>447.06592</ele>
        <time>2023-09-02T13:12:10.000Z</time>
      </trkpt>
      <trkpt lat="45.86725" lon="4.8097">
        <ele>447.73956</ele>
        <time>2023-09-02T13:12:11.000Z</time>
      </trkpt>
      <trkpt lat="45.86725" lon="4.80975">
        <ele>448.43945</ele>
        <time>2023-09-02T13:12:12.000Z</time>
      </trkpt>
      <trkpt lat="45.86726" lon="4.80981">
        <ele>449.49594</ele>
        <time>2023-09-02T13:12:13.000Z</time>
      </trkpt>
      <trkpt lat="45.86727" lon="4.80985">
        <ele>450.58417</ele>
        <time>2023-09-02T13:12:14.000Z</time>
      </trkpt>
      <trkpt lat="45.8673" lon="4.8099">
        <ele>451.70758</ele>
        <time>2023-09-02T13:12:15.000Z</time>
      </trkpt>
      <trkpt lat="45.86732" lon="4.80992">
        <ele>451.79605</ele>
        <time>2023-09-02T13:12:16.000Z</time>
      </trkpt>
      <trkpt lat="45.86734" lon="4.80998">
        <ele>452.1062</ele>
        <time>2023-09-02T13:12:18.000Z</time>
      </trkpt>
      <trkpt lat="45.86736" lon="4.81002">
        <ele>452.27612</ele>
        <time>2023-09-02T13:12:19.000Z</time>
      </trkpt>
      <trkpt lat="45.86736" lon="4.81007">
        <ele>452.40387</ele>
        <time>2023-09-02T13:12:20.000Z</time>
      </trkpt>
      <trkpt lat="45.86737" lon="4.81009">
        <ele>452.54013</ele>
        <time>2023-09-02T13:12:21.000Z</time>
      </trkpt>
      <trkpt lat="45.86737" lon="4.81013">
        <ele>450.19174</ele>
        <time>2023-09-02T13:12:22.000Z</time>
      </trkpt>
      <trkpt lat="45.86736" lon="4.81015">
        <ele>450.24722</ele>
        <time>2023-09-02T13:12:23.000Z</time>
      </trkpt>
      <trkpt lat="45.86734" lon="4.81018">
        <ele>449.8396</ele>
        <time>2023-09-02T13:12:25.000Z</time>
      </trkpt>
      <trkpt lat="45.86732" lon="4.81018">
        <ele>447.43741</ele>
        <time>2023-09-02T13:12:29.000Z</time>
      </trkpt>
      <trkpt lat="45.86732" lon="4.81015">
        <ele>446.96222</ele>
        <time>2023-09-02T13:12:35.000Z</time>
      </trkpt>
      <trkpt lat="45.86732" lon="4.81013">
        <ele>445.37524</ele>
        <time>2023-09-02T13:12:39.000Z</time>
      </trkpt>
      <trkpt lat="45.86731" lon="4.81015">
        <ele>443.4212</ele>
        <time>2023-09-02T13:13:16.000Z</time>
      </trkpt>
      <trkpt lat="45.86734" lon="4.81014">
        <ele>441.40405</ele>
        <time>2023-09-02T13:14:20.000Z</time>
      </trkpt>
      <trkpt lat="45.86734" lon="4.81019">
        <ele>439.39355</ele>
        <time>2023-09-02T13:14:22.000Z</time>
      </trkpt>
      <trkpt lat="45.86732" lon="4.81021">
        <ele>437.65472</ele>
        <time>2023-09-02T13:14:23.000Z</time>
      </trkpt>
      <trkpt lat="45.8673" lon="4.81023">
        <ele>436.36322</ele>
        <time>2023-09-02T13:14:24.000Z</time>
      </trkpt>
      <trkpt lat="45.86728" lon="4.81024">
        <ele>434.98639</ele>
        <time>2023-09-02T13:14:25.000Z</time>
      </trkpt>
      <trkpt lat="45.86726" lon="4.81024">
        <ele>433.50201</ele>
        <time>2023-09-02T13:14:26.000Z</time>
      </trkpt>
      <trkpt lat="45.86725" lon="4.81023">
        <ele>431.6434</ele>
        <time>2023-09-02T13:14:28.000Z</time>
      </trkpt>
      <trkpt lat="45.86722" lon="4.81025">
        <ele>430.17154</ele>
        <time>2023-09-02T13:14:30.000Z</time>
      </trkpt>
      <trkpt lat="45.8672" lon="4.81027">
        <ele>429.70233</ele>
        <time>2023-09-02T13:14:31.000Z</time>
      </trkpt>
      <trkpt lat="45.86717" lon="4.81029">
        <ele>428.40088</ele>
        <time>2023-09-02T13:14:32.000Z</time>
      </trkpt>
      <trkpt lat="45.86714" lon="4.81031">
        <ele>427.06744</ele>
        <time>2023-09-02T13:14:33.000Z</time>
      </trkpt>
      <trkpt lat="45.86711" lon="4.81033">
        <ele>424.45346</ele>
        <time>2023-09-02T13:14:34.000Z</time>
      </trkpt>
      <trkpt lat="45.86708" lon="4.81034">
        <ele>421.99609</ele>
        <time>2023-09-02T13:14:35.000Z</time>
      </trkpt>
      <trkpt lat="45.86706" lon="4.81035">
        <ele>421.85831</ele>
        <time>2023-09-02T13:14:36.000Z</time>
      </trkpt>
      <trkpt lat="45.86704" lon="4.81037">
        <ele>420.08926</ele>
        <time>2023-09-02T13:14:38.000Z</time>
      </trkpt>
      <trkpt lat="45.86705" lon="4.81042">
        <ele>418.19473</ele>
        <time>2023-09-02T13:14:55.000Z</time>
      </trkpt>
      <trkpt lat="45.86706" lon="4.81046">
        <ele>418.52777</ele>
        <time>2023-09-02T13:14:56.000Z</time>
      </trkpt>
      <trkpt lat="45.86707" lon="4.81052">
        <ele>417.78403</ele>
        <time>2023-09-02T13:14:57.000Z</time>
      </trkpt>
      <trkpt lat="45.8671" lon="4.81059">
        <ele>416.50262</ele>
        <time>2023-09-02T13:14:58.000Z</time>
      </trkpt>
      <trkpt lat="45.86711" lon="4.81068">
        <ele>415.85635</ele>
        <time>2023-09-02T13:14:59.000Z</time>
      </trkpt>
      <trkpt lat="45.86712" lon="4.81077">
        <ele>415.62311</ele>
        <time>2023-09-02T13:15:00.000Z</time>
      </trkpt>
      <trkpt lat="45.86716" lon="4.81088">
        <ele>415.09579</ele>
        <time>2023-09-02T13:15:01.000Z</time>
      </trkpt>
      <trkpt lat="45.8672" lon="4.81099">
        <ele>414.95264</ele>
        <time>2023-09-02T13:15:02.000Z</time>
      </trkpt>
      <trkpt lat="45.86723" lon="4.81111">
        <ele>414.79169</ele>
        <time>2023-09-02T13:15:03.000Z</time>
      </trkpt>
      <trkpt lat="45.86727" lon="4.81122">
        <ele>414.69141</ele>
        <time>2023-09-02T13:15:04.000Z</time>
      </trkpt>
      <trkpt lat="45.8673" lon="4.81134">
        <ele>413.29086</ele>
        <time>2023-09-02T13:15:05.000Z</time>
      </trkpt>
      <trkpt lat="45.86733" lon="4.81148">
        <ele>412.37189</ele>
        <time>2023-09-02T13:15:06.000Z</time>
      </trkpt>
      <trkpt lat="45.86736" lon="4.81161">
        <ele>411.09872</ele>
        <time>2023-09-02T13:15:07.000Z</time>
      </trkpt>
      <trkpt lat="45.86739" lon="4.81173">
        <ele>409.39474</ele>
        <time>2023-09-02T13:15:08.000Z</time>
      </trkpt>
      <trkpt lat="45.86743" lon="4.81187">
        <ele>407.68527</ele>
        <time>2023-09-02T13:15:09.000Z</time>
      </trkpt>
      <trkpt lat="45.86747" lon="4.812">
        <ele>405.99213</ele>
        <time>2023-09-02T13:15:10.000Z</time>
      </trkpt>
      <trkpt lat="45.86752" lon="4.81215">
        <ele>406.11606</ele>
        <time>2023-09-02T13:15:11.000Z</time>
      </trkpt>
      <trkpt lat="45.86755" lon="4.81227">
        <ele>404.92792</ele>
        <time>2023-09-02T13:15:12.000Z</time>
      </trkpt>
      <trkpt lat="45.86757" lon="4.81238">
        <ele>404.59872</ele>
        <time>2023-09-02T13:15:13.000Z</time>
      </trkpt>
      <trkpt lat="45.8676" lon="4.8125">
        <ele>403.71484</ele>
        <time>2023-09-02T13:15:14.000Z</time>
      </trkpt>
      <trkpt lat="45.86763" lon="4.81259">
        <ele>402.17856</ele>
        <time>2023-09-02T13:15:15.000Z</time>
      </trkpt>
      <trkpt lat="45.86766" lon="4.81269">
        <ele>399.95462</ele>
        <time>2023-09-02T13:15:16.000Z</time>
      </trkpt>
      <trkpt lat="45.8677" lon="4.81279">
        <ele>397.02469</ele>
        <time>2023-09-02T13:15:17.000Z</time>
      </trkpt>
      <trkpt lat="45.86773" lon="4.81289">
        <ele>395.6864</ele>
        <time>2023-09-02T13:15:18.000Z</time>
      </trkpt>
      <trkpt lat="45.86777" lon="4.81299">
        <ele>394.11749</ele>
        <time>2023-09-02T13:15:19.000Z</time>
      </trkpt>
      <trkpt lat="45.86781" lon="4.81309">
        <ele>392.7222</ele>
        <time>2023-09-02T13:15:20.000Z</time>
      </trkpt>
      <trkpt lat="45.86784" lon="4.81319">
        <ele>391.60464</ele>
        <time>2023-09-02T13:15:21.000Z</time>
      </trkpt>
      <trkpt lat="45.86787" lon="4.81332">
        <ele>390.06421</ele>
        <time>2023-09-02T13:15:22.000Z</time>
      </trkpt>
      <trkpt lat="45.86788" lon="4.81343">
        <ele>388.14703</ele>
        <time>2023-09-02T13:15:23.000Z</time>
      </trkpt>
      <trkpt lat="45.8679" lon="4.81354">
        <ele>386.95441</ele>
        <time>2023-09-02T13:15:24.000Z</time>
      </trkpt>
      <trkpt lat="45.86792" lon="4.81365">
        <ele>387.68082</ele>
        <time>2023-09-02T13:15:25.000Z</time>
      </trkpt>
      <trkpt lat="45.86795" lon="4.81378">
        <ele>388.17001</ele>
        <time>2023-09-02T13:15:26.000Z</time>
      </trkpt>
      <trkpt lat="45.86798" lon="4.8139">
        <ele>388.67657</ele>
        <time>2023-09-02T13:15:27.000Z</time>
      </trkpt>
      <trkpt lat="45.86801" lon="4.81404">
        <ele>387.67593</ele>
        <time>2023-09-02T13:15:28.000Z</time>
      </trkpt>
      <trkpt lat="45.86804" lon="4.81417">
        <ele>386.95142</ele>
        <time>2023-09-02T13:15:29.000Z</time>
      </trkpt>
      <trkpt lat="45.86807" lon="4.8143">
        <ele>386.43152</ele>
        <time>2023-09-02T13:15:30.000Z</time>
      </trkpt>
      <trkpt lat="45.86809" lon="4.81445">
        <ele>385.41495</ele>
        <time>2023-09-02T13:15:31.000Z</time>
      </trkpt>
      <trkpt lat="45.86812" lon="4.81459">
        <ele>385.29745</ele>
        <time>2023-09-02T13:15:32.000Z</time>
      </trkpt>
      <trkpt lat="45.86815" lon="4.81473">
        <ele>384.75464</ele>
        <time>2023-09-02T13:15:33.000Z</time>
      </trkpt>
      <trkpt lat="45.86819" lon="4.81487">
        <ele>383.38165</ele>
        <time>2023-09-02T13:15:34.000Z</time>
      </trkpt>
      <trkpt lat="45.86822" lon="4.81501">
        <ele>382.62457</ele>
        <time>2023-09-02T13:15:35.000Z</time>
      </trkpt>
      <trkpt lat="45.86824" lon="4.81516">
        <ele>381.9201</ele>
        <time>2023-09-02T13:15:36.000Z</time>
      </trkpt>
      <trkpt lat="45.86825" lon="4.81533">
        <ele>381.25195</ele>
        <time>2023-09-02T13:15:37.000Z</time>
      </trkpt>
      <trkpt lat="45.86826" lon="4.81549">
        <ele>380.62946</ele>
        <time>2023-09-02T13:15:38.000Z</time>
      </trkpt>
      <trkpt lat="45.86825" lon="4.81569">
        <ele>380.08337</ele>
        <time>2023-09-02T13:15:39.000Z</time>
      </trkpt>
      <trkpt lat="45.86825" lon="4.81587">
        <ele>379.56964</ele>
        <time>2023-09-02T13:15:40.000Z</time>
      </trkpt>
      <trkpt lat="45.86826" lon="4.81603">
        <ele>379.17157</ele>
        <time>2023-09-02T13:15:41.000Z</time>
      </trkpt>
      <trkpt lat="45.86826" lon="4.81618">
        <ele>378.42358</ele>
        <time>2023-09-02T13:15:42.000Z</time>
      </trkpt>
      <trkpt lat="45.86826" lon="4.81634">
        <ele>377.73352</ele>
        <time>2023-09-02T13:15:43.000Z</time>
      </trkpt>
      <trkpt lat="45.86825" lon="4.81649">
        <ele>376.2713</ele>
        <time>2023-09-02T13:15:44.000Z</time>
      </trkpt>
      <trkpt lat="45.86824" lon="4.81664">
        <ele>374.315</ele>
        <time>2023-09-02T13:15:45.000Z</time>
      </trkpt>
      <trkpt lat="45.86823" lon="4.81678">
        <ele>372.58258</ele>
        <time>2023-09-02T13:15:46.000Z</time>
      </trkpt>
      <trkpt lat="45.86822" lon="4.81692">
        <ele>370.60849</ele>
        <time>2023-09-02T13:15:47.000Z</time>
      </trkpt>
      <trkpt lat="45.86821" lon="4.81705">
        <ele>370.14709</ele>
        <time>2023-09-02T13:15:48.000Z</time>
      </trkpt>
      <trkpt lat="45.86821" lon="4.81715">
        <ele>369.1062</ele>
        <time>2023-09-02T13:15:49.000Z</time>
      </trkpt>
      <trkpt lat="45.8682" lon="4.81726">
        <ele>367.78354</ele>
        <time>2023-09-02T13:15:50.000Z</time>
      </trkpt>
      <trkpt lat="45.8682" lon="4.81736">
        <ele>366.33774</ele>
        <time>2023-09-02T13:15:51.000Z</time>
      </trkpt>
      <trkpt lat="45.8682" lon="4.81747">
        <ele>365.08429</ele>
        <time>2023-09-02T13:15:52.000Z</time>
      </trkpt>
      <trkpt lat="45.86821" lon="4.81757">
        <ele>363.38361</ele>
        <time>2023-09-02T13:15:53.000Z</time>
      </trkpt>
      <trkpt lat="45.86823" lon="4.81766">
        <ele>362.36859</ele>
        <time>2023-09-02T13:15:54.000Z</time>
      </trkpt>
      <trkpt lat="45.86825" lon="4.81775">
        <ele>361.47308</ele>
        <time>2023-09-02T13:15:55.000Z</time>
      </trkpt>
      <trkpt lat="45.86826" lon="4.81784">
        <ele>361.36569</ele>
        <time>2023-09-02T13:15:56.000Z</time>
      </trkpt>
      <trkpt lat="45.86827" lon="4.81791">
        <ele>361.26694</ele>
        <time>2023-09-02T13:15:57.000Z</time>
      </trkpt>
      <trkpt lat="45.86829" lon="4.81799">
        <ele>361.17728</ele>
        <time>2023-09-02T13:15:58.000Z</time>
      </trkpt>
      <trkpt lat="45.86832" lon="4.81805">
        <ele>361.06827</ele>
        <time>2023-09-02T13:15:59.000Z</time>
      </trkpt>
      <trkpt lat="45.86835" lon="4.81811">
        <ele>360.50839</ele>
        <time>2023-09-02T13:16:00.000Z</time>
      </trkpt>
      <trkpt lat="45.86838" lon="4.81818">
        <ele>356.97202</ele>
        <time>2023-09-02T13:16:01.000Z</time>
      </trkpt>
      <trkpt lat="45.86841" lon="4.81824">
        <ele>356.37756</ele>
        <time>2023-09-02T13:16:02.000Z</time>
      </trkpt>
      <trkpt lat="45.86844" lon="4.81829">
        <ele>355.828</ele>
        <time>2023-09-02T13:16:03.000Z</time>
      </trkpt>
      <trkpt lat="45.86848" lon="4.81832">
        <ele>355.35043</ele>
        <time>2023-09-02T13:16:04.000Z</time>
      </trkpt>
      <trkpt lat="45.86851" lon="4.81838">
        <ele>354.84186</ele>
        <time>2023-09-02T13:16:05.000Z</time>
      </trkpt>
      <trkpt lat="45.86854" lon="4.81845">
        <ele>354.11856</ele>
        <time>2023-09-02T13:16:06.000Z</time>
      </trkpt>
      <trkpt lat="45.86857" lon="4.81851">
        <ele>350.89319</ele>
        <time>2023-09-02T13:16:07.000Z</time>
      </trkpt>
      <trkpt lat="45.8686" lon="4.81856">
        <ele>350.29242</ele>
        <time>2023-09-02T13:16:08.000Z</time>
      </trkpt>
      <trkpt lat="45.86864" lon="4.81862">
        <ele>349.99356</ele>
        <time>2023-09-02T13:16:09.000Z</time>
      </trkpt>
      <trkpt lat="45.86867" lon="4.81868">
        <ele>349.75705</ele>
        <time>2023-09-02T13:16:10.000Z</time>
      </trkpt>
      <trkpt lat="45.86868" lon="4.81874">
        <ele>349.58353</ele>
        <time>2023-09-02T13:16:11.000Z</time>
      </trkpt>
      <trkpt lat="45.86869" lon="4.8188">
        <ele>349.45895</ele>
        <time>2023-09-02T13:16:12.000Z</time>
      </trkpt>
      <trkpt lat="45.86871" lon="4.81886">
        <ele>346.81955</ele>
        <time>2023-09-02T13:16:13.000Z</time>
      </trkpt>
      <trkpt lat="45.86872" lon="4.81892">
        <ele>346.69186</ele>
        <time>2023-09-02T13:16:14.000Z</time>
      </trkpt>
      <trkpt lat="45.86874" lon="4.81896">
        <ele>346.59747</ele>
        <time>2023-09-02T13:16:15.000Z</time>
      </trkpt>
      <trkpt lat="45.86876" lon="4.819">
        <ele>345.8537</ele>
        <time>2023-09-02T13:16:16.000Z</time>
      </trkpt>
      <trkpt lat="45.86877" lon="4.81904">
        <ele>345.07809</ele>
        <time>2023-09-02T13:16:17.000Z</time>
      </trkpt>
      <trkpt lat="45.86879" lon="4.81908">
        <ele>344.26865</ele>
        <time>2023-09-02T13:16:18.000Z</time>
      </trkpt>
      <trkpt lat="45.86882" lon="4.81912">
        <ele>341.53946</ele>
        <time>2023-09-02T13:16:19.000Z</time>
      </trkpt>
      <trkpt lat="45.86885" lon="4.81915">
        <ele>340.56302</ele>
        <time>2023-09-02T13:16:20.000Z</time>
      </trkpt>
      <trkpt lat="45.86888" lon="4.81919">
        <ele>342.41962</ele>
        <time>2023-09-02T13:16:21.000Z</time>
      </trkpt>
      <trkpt lat="45.86891" lon="4.81924">
        <ele>341.69199</ele>
        <time>2023-09-02T13:16:22.000Z</time>
      </trkpt>
      <trkpt lat="45.86893" lon="4.8193">
        <ele>340.9577</ele>
        <time>2023-09-02T13:16:23.000Z</time>
      </trkpt>
      <trkpt lat="45.86896" lon="4.81935">
        <ele>340.21417</ele>
        <time>2023-09-02T13:16:24.000Z</time>
      </trkpt>
      <trkpt lat="45.86899" lon="4.8194">
        <ele>337.91678</ele>
        <time>2023-09-02T13:16:25.000Z</time>
      </trkpt>
      <trkpt lat="45.86903" lon="4.81945">
        <ele>337.07053</ele>
        <time>2023-09-02T13:16:26.000Z</time>
      </trkpt>
      <trkpt lat="45.86906" lon="4.8195">
        <ele>338.92084</ele>
        <time>2023-09-02T13:16:27.000Z</time>
      </trkpt>
      <trkpt lat="45.86911" lon="4.81955">
        <ele>338.32224</ele>
        <time>2023-09-02T13:16:28.000Z</time>
      </trkpt>
      <trkpt lat="45.86915" lon="4.81961">
        <ele>337.72372</ele>
        <time>2023-09-02T13:16:29.000Z</time>
      </trkpt>
      <trkpt lat="45.86919" lon="4.81967">
        <ele>337.11023</ele>
        <time>2023-09-02T13:16:30.000Z</time>
      </trkpt>
      <trkpt lat="45.86923" lon="4.81973">
        <ele>334.37103</ele>
        <time>2023-09-02T13:16:31.000Z</time>
      </trkpt>
      <trkpt lat="45.86929" lon="4.81977">
        <ele>333.61041</ele>
        <time>2023-09-02T13:16:32.000Z</time>
      </trkpt>
      <trkpt lat="45.86935" lon="4.81981">
        <ele>335.35623</ele>
        <time>2023-09-02T13:16:33.000Z</time>
      </trkpt>
      <trkpt lat="45.8694" lon="4.81985">
        <ele>334.78308</ele>
        <time>2023-09-02T13:16:34.000Z</time>
      </trkpt>
      <trkpt lat="45.86945" lon="4.81989">
        <ele>334.18765</ele>
        <time>2023-09-02T13:16:35.000Z</time>
      </trkpt>
      <trkpt lat="45.8695" lon="4.81992">
        <ele>333.56714</ele>
        <time>2023-09-02T13:16:36.000Z</time>
      </trkpt>
      <trkpt lat="45.86954" lon="4.81995">
        <ele>331.14484</ele>
        <time>2023-09-02T13:16:37.000Z</time>
      </trkpt>
      <trkpt lat="45.86958" lon="4.82">
        <ele>330.44818</ele>
        <time>2023-09-02T13:16:38.000Z</time>
      </trkpt>
      <trkpt lat="45.86962" lon="4.82003">
        <ele>331.64093</ele>
        <time>2023-09-02T13:16:39.000Z</time>
      </trkpt>
      <trkpt lat="45.86966" lon="4.82006">
        <ele>331.146</ele>
        <time>2023-09-02T13:16:40.000Z</time>
      </trkpt>
      <trkpt lat="45.8697" lon="4.82009">
        <ele>330.67514</ele>
        <time>2023-09-02T13:16:41.000Z</time>
      </trkpt>
      <trkpt lat="45.86973" lon="4.82012">
        <ele>330.08795</ele>
        <time>2023-09-02T13:16:42.000Z</time>
      </trkpt>
      <trkpt lat="45.86975" lon="4.82015">
        <ele>327.8916</ele>
        <time>2023-09-02T13:16:43.000Z</time>
      </trkpt>
      <trkpt lat="45.86977" lon="4.82017">
        <ele>327.23831</ele>
        <time>2023-09-02T13:16:44.000Z</time>
      </trkpt>
      <trkpt lat="45.8698" lon="4.8202">
        <ele>328.1301</ele>
        <time>2023-09-02T13:16:45.000Z</time>
      </trkpt>
      <trkpt lat="45.86982" lon="4.82021">
        <ele>327.64075</ele>
        <time>2023-09-02T13:16:46.000Z</time>
      </trkpt>
      <trkpt lat="45.86985" lon="4.82022">
        <ele>326.27652</ele>
        <time>2023-09-02T13:16:48.000Z</time>
      </trkpt>
      <trkpt lat="45.86983" lon="4.82023">
        <ele>324.97577</ele>
        <time>2023-09-02T13:16:53.000Z</time>
      </trkpt>
      <trkpt lat="45.86985" lon="4.82026">
        <ele>323.31525</ele>
        <time>2023-09-02T13:17:26.000Z</time>
      </trkpt>
      <trkpt lat="45.86986" lon="4.82029">
        <ele>321.63348</ele>
        <time>2023-09-02T13:17:27.000Z</time>
      </trkpt>
      <trkpt lat="45.86988" lon="4.82033">
        <ele>322.96652</ele>
        <time>2023-09-02T13:17:28.000Z</time>
      </trkpt>
      <trkpt lat="45.86988" lon="4.82037">
        <ele>322.3963</ele>
        <time>2023-09-02T13:17:29.000Z</time>
      </trkpt>
      <trkpt lat="45.86988" lon="4.82042">
        <ele>320.36536</ele>
        <time>2023-09-02T13:17:30.000Z</time>
      </trkpt>
      <trkpt lat="45.86987" lon="4.82046">
        <ele>318.26675</ele>
        <time>2023-09-02T13:17:31.000Z</time>
      </trkpt>
      <trkpt lat="45.86986" lon="4.8205">
        <ele>316.19516</ele>
        <time>2023-09-02T13:17:32.000Z</time>
      </trkpt>
      <trkpt lat="45.86985" lon="4.82055">
        <ele>314.16827</ele>
        <time>2023-09-02T13:17:33.000Z</time>
      </trkpt>
      <trkpt lat="45.86985" lon="4.8206">
        <ele>314.26648</ele>
        <time>2023-09-02T13:17:34.000Z</time>
      </trkpt>
      <trkpt lat="45.86984" lon="4.82065">
        <ele>312.92215</ele>
        <time>2023-09-02T13:17:35.000Z</time>
      </trkpt>
      <trkpt lat="45.86983" lon="4.82069">
        <ele>311.29742</ele>
        <time>2023-09-02T13:17:36.000Z</time>
      </trkpt>
      <trkpt lat="45.86983" lon="4.82072">
        <ele>309.72479</ele>
        <time>2023-09-02T13:17:37.000Z</time>
      </trkpt>
      <trkpt lat="45.86983" lon="4.82076">
        <ele>308.17279</ele>
        <time>2023-09-02T13:17:38.000Z</time>
      </trkpt>
      <trkpt lat="45.86983" lon="4.82079">
        <ele>306.64877</ele>
        <time>2023-09-02T13:17:39.000Z</time>
      </trkpt>
      <trkpt lat="45.86984" lon="4.82084">
        <ele>306.7999</ele>
        <time>2023-09-02T13:17:40.000Z</time>
      </trkpt>
      <trkpt lat="45.86987" lon="4.82089">
        <ele>305.41867</ele>
        <time>2023-09-02T13:17:41.000Z</time>
      </trkpt>
      <trkpt lat="45.8699" lon="4.82094">
        <ele>304.0676</ele>
        <time>2023-09-02T13:17:42.000Z</time>
      </trkpt>
      <trkpt lat="45.86992" lon="4.82099">
        <ele>302.67059</ele>
        <time>2023-09-02T13:17:43.000Z</time>
      </trkpt>
      <trkpt lat="45.86994" lon="4.82104">
        <ele>302.20938</ele>
        <time>2023-09-02T13:17:44.000Z</time>
      </trkpt>
      <trkpt lat="45.86997" lon="4.82109">
        <ele>301.60562</ele>
        <time>2023-09-02T13:17:45.000Z</time>
      </trkpt>
      <trkpt lat="45.87" lon="4.82113">
        <ele>301.38794</ele>
        <time>2023-09-02T13:17:46.000Z</time>
      </trkpt>
      <trkpt lat="45.87002" lon="4.82118">
        <ele>301.21918</ele>
        <time>2023-09-02T13:17:47.000Z</time>
      </trkpt>
      <trkpt lat="45.87005" lon="4.82122">
        <ele>300.1731</ele>
        <time>2023-09-02T13:17:48.000Z</time>
      </trkpt>
      <trkpt lat="45.87007" lon="4.82127">
        <ele>299.06317</ele>
        <time>2023-09-02T13:17:49.000Z</time>
      </trkpt>
      <trkpt lat="45.87008" lon="4.82132">
        <ele>299.45862</ele>
        <time>2023-09-02T13:17:50.000Z</time>
      </trkpt>
      <trkpt lat="45.8701" lon="4.82137">
        <ele>299.84045</ele>
        <time>2023-09-02T13:17:51.000Z</time>
      </trkpt>
      <trkpt lat="45.8701" lon="4.82143">
        <ele>300.24292</ele>
        <time>2023-09-02T13:17:52.000Z</time>
      </trkpt>
      <trkpt lat="45.87012" lon="4.82149">
        <ele>300.66428</ele>
        <time>2023-09-02T13:17:53.000Z</time>
      </trkpt>
      <trkpt lat="45.87013" lon="4.82153">
        <ele>300.81802</ele>
        <time>2023-09-02T13:17:54.000Z</time>
      </trkpt>
      <trkpt lat="45.87014" lon="4.82158">
        <ele>300.18954</ele>
        <time>2023-09-02T13:17:55.000Z</time>
      </trkpt>
      <trkpt lat="45.87015" lon="4.82161">
        <ele>300.09714</ele>
        <time>2023-09-02T13:17:56.000Z</time>
      </trkpt>
      <trkpt lat="45.87016" lon="4.82163">
        <ele>299.93646</ele>
        <time>2023-09-02T13:17:57.000Z</time>
      </trkpt>
      <trkpt lat="45.87017" lon="4.82167">
        <ele>299.87625</ele>
        <time>2023-09-02T13:17:59.000Z</time>
      </trkpt>
      <trkpt lat="45.87018" lon="4.82171">
        <ele>299.67499</ele>
        <time>2023-09-02T13:18:01.000Z</time>
      </trkpt>
      <trkpt lat="45.87019" lon="4.82174">
        <ele>299.40714</ele>
        <time>2023-09-02T13:18:03.000Z</time>
      </trkpt>
      <trkpt lat="45.87021" lon="4.82176">
        <ele>299.11383</ele>
        <time>2023-09-02T13:18:04.000Z</time>
      </trkpt>
      <trkpt lat="45.87024" lon="4.82179">
        <ele>298.88565</ele>
        <time>2023-09-02T13:18:05.000Z</time>
      </trkpt>
      <trkpt lat="45.87026" lon="4.82182">
        <ele>298.64804</ele>
        <time>2023-09-02T13:18:06.000Z</time>
      </trkpt>
      <trkpt lat="45.87029" lon="4.82185">
        <ele>298.42593</ele>
        <time>2023-09-02T13:18:07.000Z</time>
      </trkpt>
      <trkpt lat="45.87032" lon="4.82188">
        <ele>297.60278</ele>
        <time>2023-09-02T13:18:08.000Z</time>
      </trkpt>
      <trkpt lat="45.87034" lon="4.82191">
        <ele>296.81516</ele>
        <time>2023-09-02T13:18:09.000Z</time>
      </trkpt>
      <trkpt lat="45.87037" lon="4.82193">
        <ele>295.98798</ele>
        <time>2023-09-02T13:18:10.000Z</time>
      </trkpt>
      <trkpt lat="45.8704" lon="4.82196">
        <ele>295.14737</ele>
        <time>2023-09-02T13:18:11.000Z</time>
      </trkpt>
      <trkpt lat="45.87043" lon="4.822">
        <ele>294.29654</ele>
        <time>2023-09-02T13:18:12.000Z</time>
      </trkpt>
      <trkpt lat="45.87045" lon="4.82203">
        <ele>293.42673</ele>
        <time>2023-09-02T13:18:13.000Z</time>
      </trkpt>
      <trkpt lat="45.87048" lon="4.82206">
        <ele>292.57626</ele>
        <time>2023-09-02T13:18:14.000Z</time>
      </trkpt>
      <trkpt lat="45.87051" lon="4.8221">
        <ele>291.55209</ele>
        <time>2023-09-02T13:18:15.000Z</time>
      </trkpt>
      <trkpt lat="45.87054" lon="4.82213">
        <ele>290.46771</ele>
        <time>2023-09-02T13:18:16.000Z</time>
      </trkpt>
      <trkpt lat="45.87056" lon="4.82217">
        <ele>289.37265</ele>
        <time>2023-09-02T13:18:17.000Z</time>
      </trkpt>
      <trkpt lat="45.87059" lon="4.8222">
        <ele>288.83948</ele>
        <time>2023-09-02T13:18:18.000Z</time>
      </trkpt>
      <trkpt lat="45.87062" lon="4.82224">
        <ele>288.08682</ele>
        <time>2023-09-02T13:18:19.000Z</time>
      </trkpt>
      <trkpt lat="45.87065" lon="4.82227">
        <ele>287.27435</ele>
        <time>2023-09-02T13:18:20.000Z</time>
      </trkpt>
      <trkpt lat="45.87068" lon="4.8223">
        <ele>286.36627</ele>
        <time>2023-09-02T13:18:21.000Z</time>
      </trkpt>
      <trkpt lat="45.87072" lon="4.82233">
        <ele>285.58429</ele>
        <time>2023-09-02T13:18:22.000Z</time>
      </trkpt>
      <trkpt lat="45.87077" lon="4.82236">
        <ele>284.79794</ele>
        <time>2023-09-02T13:18:23.000Z</time>
      </trkpt>
      <trkpt lat="45.87081" lon="4.8224">
        <ele>284.04437</ele>
        <time>2023-09-02T13:18:24.000Z</time>
      </trkpt>
      <trkpt lat="45.87084" lon="4.82244">
        <ele>283.20987</ele>
        <time>2023-09-02T13:18:25.000Z</time>
      </trkpt>
      <trkpt lat="45.87088" lon="4.82248">
        <ele>282.38937</ele>
        <time>2023-09-02T13:18:26.000Z</time>
      </trkpt>
      <trkpt lat="45.87092" lon="4.82252">
        <ele>281.50763</ele>
        <time>2023-09-02T13:18:27.000Z</time>
      </trkpt>
      <trkpt lat="45.87096" lon="4.82257">
        <ele>281.17831</ele>
        <time>2023-09-02T13:18:28.000Z</time>
      </trkpt>
      <trkpt lat="45.871" lon="4.82261">
        <ele>280.79938</ele>
        <time>2023-09-02T13:18:29.000Z</time>
      </trkpt>
      <trkpt lat="45.87104" lon="4.82264">
        <ele>280.4679</ele>
        <time>2023-09-02T13:18:30.000Z</time>
      </trkpt>
      <trkpt lat="45.87108" lon="4.82268">
        <ele>280.15598</ele>
        <time>2023-09-02T13:18:31.000Z</time>
      </trkpt>
      <trkpt lat="45.87112" lon="4.82273">
        <ele>279.8374</ele>
        <time>2023-09-02T13:18:32.000Z</time>
      </trkpt>
      <trkpt lat="45.87116" lon="4.82278">
        <ele>279.53687</ele>
        <time>2023-09-02T13:18:33.000Z</time>
      </trkpt>
      <trkpt lat="45.8712" lon="4.82283">
        <ele>279.18549</ele>
        <time>2023-09-02T13:18:34.000Z</time>
      </trkpt>
      <trkpt lat="45.87124" lon="4.82288">
        <ele>278.99789</ele>
        <time>2023-09-02T13:18:35.000Z</time>
      </trkpt>
      <trkpt lat="45.87127" lon="4.82294">
        <ele>278.83691</ele>
        <time>2023-09-02T13:18:36.000Z</time>
      </trkpt>
      <trkpt lat="45.87131" lon="4.823">
        <ele>278.68817</ele>
        <time>2023-09-02T13:18:37.000Z</time>
      </trkpt>
      <trkpt lat="45.87135" lon="4.82305">
        <ele>278.53302</ele>
        <time>2023-09-02T13:18:38.000Z</time>
      </trkpt>
      <trkpt lat="45.87138" lon="4.82311">
        <ele>278.37854</ele>
        <time>2023-09-02T13:18:39.000Z</time>
      </trkpt>
      <trkpt lat="45.87142" lon="4.82316">
        <ele>278.26709</ele>
        <time>2023-09-02T13:18:40.000Z</time>
      </trkpt>
      <trkpt lat="45.87146" lon="4.82322">
        <ele>278.069</ele>
        <time>2023-09-02T13:18:41.000Z</time>
      </trkpt>
      <trkpt lat="45.87149" lon="4.82329">
        <ele>277.89899</ele>
        <time>2023-09-02T13:18:42.000Z</time>
      </trkpt>
      <trkpt lat="45.87152" lon="4.82334">
        <ele>277.76193</ele>
        <time>2023-09-02T13:18:43.000Z</time>
      </trkpt>
      <trkpt lat="45.87156" lon="4.82341">
        <ele>277.66266</ele>
        <time>2023-09-02T13:18:44.000Z</time>
      </trkpt>
      <trkpt lat="45.87159" lon="4.82347">
        <ele>277.59058</ele>
        <time>2023-09-02T13:18:45.000Z</time>
      </trkpt>
      <trkpt lat="45.87162" lon="4.82352">
        <ele>277.50299</ele>
        <time>2023-09-02T13:18:46.000Z</time>
      </trkpt>
      <trkpt lat="45.87165" lon="4.82358">
        <ele>277.43665</ele>
        <time>2023-09-02T13:18:47.000Z</time>
      </trkpt>
      <trkpt lat="45.87168" lon="4.82364">
        <ele>277.42352</ele>
        <time>2023-09-02T13:18:48.000Z</time>
      </trkpt>
      <trkpt lat="45.87171" lon="4.82369">
        <ele>277.44223</ele>
        <time>2023-09-02T13:18:49.000Z</time>
      </trkpt>
      <trkpt lat="45.87174" lon="4.82373">
        <ele>277.46771</ele>
        <time>2023-09-02T13:18:50.000Z</time>
      </trkpt>
      <trkpt lat="45.87177" lon="4.82378">
        <ele>277.48077</ele>
        <time>2023-09-02T13:18:51.000Z</time>
      </trkpt>
      <trkpt lat="45.87179" lon="4.82382">
        <ele>277.50275</ele>
        <time>2023-09-02T13:18:52.000Z</time>
      </trkpt>
      <trkpt lat="45.87182" lon="4.82387">
        <ele>277.52863</ele>
        <time>2023-09-02T13:18:53.000Z</time>
      </trkpt>
      <trkpt lat="45.87185" lon="4.82392">
        <ele>277.59143</ele>
        <time>2023-09-02T13:18:54.000Z</time>
      </trkpt>
      <trkpt lat="45.87187" lon="4.82396">
        <ele>277.65656</ele>
        <time>2023-09-02T13:18:55.000Z</time>
      </trkpt>
      <trkpt lat="45.87189" lon="4.824">
        <ele>277.68488</ele>
        <time>2023-09-02T13:18:56.000Z</time>
      </trkpt>
      <trkpt lat="45.87192" lon="4.82404">
        <ele>277.68964</ele>
        <time>2023-09-02T13:18:57.000Z</time>
      </trkpt>
      <trkpt lat="45.87194" lon="4.82409">
        <ele>277.69458</ele>
        <time>2023-09-02T13:18:58.000Z</time>
      </trkpt>
      <trkpt lat="45.87197" lon="4.82413">
        <ele>277.69464</ele>
        <time>2023-09-02T13:18:59.000Z</time>
      </trkpt>
      <trkpt lat="45.872" lon="4.82417">
        <ele>277.6662</ele>
        <time>2023-09-02T13:19:00.000Z</time>
      </trkpt>
      <trkpt lat="45.87202" lon="4.82421">
        <ele>277.7189</ele>
        <time>2023-09-02T13:19:01.000Z</time>
      </trkpt>
      <trkpt lat="45.87205" lon="4.82425">
        <ele>277.7562</ele>
        <time>2023-09-02T13:19:02.000Z</time>
      </trkpt>
      <trkpt lat="45.87208" lon="4.82429">
        <ele>277.80713</ele>
        <time>2023-09-02T13:19:03.000Z</time>
      </trkpt>
      <trkpt lat="45.87211" lon="4.82433">
        <ele>277.8364</ele>
        <time>2023-09-02T13:19:04.000Z</time>
      </trkpt>
      <trkpt lat="45.87214" lon="4.82437">
        <ele>277.83673</ele>
        <time>2023-09-02T13:19:05.000Z</time>
      </trkpt>
      <trkpt lat="45.87217" lon="4.82441">
        <ele>277.85294</ele>
        <time>2023-09-02T13:19:06.000Z</time>
      </trkpt>
      <trkpt lat="45.87221" lon="4.82444">
        <ele>277.86417</ele>
        <time>2023-09-02T13:19:07.000Z</time>
      </trkpt>
      <trkpt lat="45.87225" lon="4.82447">
        <ele>277.88687</ele>
        <time>2023-09-02T13:19:08.000Z</time>
      </trkpt>
      <trkpt lat="45.87229" lon="4.8245">
        <ele>277.90195</ele>
        <time>2023-09-02T13:19:09.000Z</time>
      </trkpt>
      <trkpt lat="45.87232" lon="4.82455">
        <ele>277.90533</ele>
        <time>2023-09-02T13:19:10.000Z</time>
      </trkpt>
      <trkpt lat="45.87236" lon="4.8246">
        <ele>278.13171</ele>
        <time>2023-09-02T13:19:11.000Z</time>
      </trkpt>
      <trkpt lat="45.8724" lon="4.82464">
        <ele>278.35907</ele>
        <time>2023-09-02T13:19:12.000Z</time>
      </trkpt>
      <trkpt lat="45.87244" lon="4.82469">
        <ele>278.56293</ele>
        <time>2023-09-02T13:19:13.000Z</time>
      </trkpt>
      <trkpt lat="45.87247" lon="4.82474">
        <ele>278.76782</ele>
        <time>2023-09-02T13:19:14.000Z</time>
      </trkpt>
      <trkpt lat="45.87251" lon="4.82478">
        <ele>278.95248</ele>
        <time>2023-09-02T13:19:15.000Z</time>
      </trkpt>
      <trkpt lat="45.87255" lon="4.82483">
        <ele>279.17969</ele>
        <time>2023-09-02T13:19:16.000Z</time>
      </trkpt>
      <trkpt lat="45.87259" lon="4.82488">
        <ele>279.18991</ele>
        <time>2023-09-02T13:19:17.000Z</time>
      </trkpt>
      <trkpt lat="45.87263" lon="4.82492">
        <ele>279.16638</ele>
        <time>2023-09-02T13:19:18.000Z</time>
      </trkpt>
      <trkpt lat="45.87266" lon="4.82497">
        <ele>279.16309</ele>
        <time>2023-09-02T13:19:19.000Z</time>
      </trkpt>
      <trkpt lat="45.8727" lon="4.82503">
        <ele>279.05887</ele>
        <time>2023-09-02T13:19:20.000Z</time>
      </trkpt>
      <trkpt lat="45.87274" lon="4.82507">
        <ele>278.96576</ele>
        <time>2023-09-02T13:19:21.000Z</time>
      </trkpt>
      <trkpt lat="45.87277" lon="4.82512">
        <ele>278.87061</ele>
        <time>2023-09-02T13:19:22.000Z</time>
      </trkpt>
      <trkpt lat="45.87281" lon="4.82516">
        <ele>278.76715</ele>
        <time>2023-09-02T13:19:23.000Z</time>
      </trkpt>
      <trkpt lat="45.87284" lon="4.8252">
        <ele>278.65414</ele>
        <time>2023-09-02T13:19:24.000Z</time>
      </trkpt>
      <trkpt lat="45.87288" lon="4.82525">
        <ele>278.56354</ele>
        <time>2023-09-02T13:19:25.000Z</time>
      </trkpt>
      <trkpt lat="45.87292" lon="4.82529">
        <ele>278.47424</ele>
        <time>2023-09-02T13:19:26.000Z</time>
      </trkpt>
      <trkpt lat="45.87296" lon="4.82533">
        <ele>278.38235</ele>
        <time>2023-09-02T13:19:27.000Z</time>
      </trkpt>
      <trkpt lat="45.873" lon="4.82538">
        <ele>278.2825</ele>
        <time>2023-09-02T13:19:28.000Z</time>
      </trkpt>
      <trkpt lat="45.87304" lon="4.82543">
        <ele>278.22052</ele>
        <time>2023-09-02T13:19:29.000Z</time>
      </trkpt>
      <trkpt lat="45.87307" lon="4.82549">
        <ele>278.05127</ele>
        <time>2023-09-02T13:19:30.000Z</time>
      </trkpt>
      <trkpt lat="45.8731" lon="4.82556">
        <ele>277.69208</ele>
        <time>2023-09-02T13:19:31.000Z</time>
      </trkpt>
      <trkpt lat="45.87314" lon="4.82561">
        <ele>277.29828</ele>
        <time>2023-09-02T13:19:32.000Z</time>
      </trkpt>
      <trkpt lat="45.87318" lon="4.82568">
        <ele>276.90515</ele>
        <time>2023-09-02T13:19:33.000Z</time>
      </trkpt>
      <trkpt lat="45.87322" lon="4.82574">
        <ele>276.50211</ele>
        <time>2023-09-02T13:19:34.000Z</time>
      </trkpt>
      <trkpt lat="45.87326" lon="4.82581">
        <ele>276.09985</ele>
        <time>2023-09-02T13:19:35.000Z</time>
      </trkpt>
      <trkpt lat="45.8733" lon="4.82588">
        <ele>275.68463</ele>
        <time>2023-09-02T13:19:36.000Z</time>
      </trkpt>
      <trkpt lat="45.87334" lon="4.82595">
        <ele>275.48041</ele>
        <time>2023-09-02T13:19:37.000Z</time>
      </trkpt>
      <trkpt lat="45.87337" lon="4.82602">
        <ele>275.29263</ele>
        <time>2023-09-02T13:19:38.000Z</time>
      </trkpt>
      <trkpt lat="45.87342" lon="4.82609">
        <ele>275.07129</ele>
        <time>2023-09-02T13:19:39.000Z</time>
      </trkpt>
      <trkpt lat="45.87347" lon="4.82614">
        <ele>274.92108</ele>
        <time>2023-09-02T13:19:40.000Z</time>
      </trkpt>
      <trkpt lat="45.87352" lon="4.82621">
        <ele>274.78348</ele>
        <time>2023-09-02T13:19:41.000Z</time>
      </trkpt>
      <trkpt lat="45.87357" lon="4.82627">
        <ele>274.62595</ele>
        <time>2023-09-02T13:19:42.000Z</time>
      </trkpt>
      <trkpt lat="45.87363" lon="4.82633">
        <ele>274.42462</ele>
        <time>2023-09-02T13:19:43.000Z</time>
      </trkpt>
      <trkpt lat="45.87368" lon="4.82638">
        <ele>274.21365</ele>
        <time>2023-09-02T13:19:44.000Z</time>
      </trkpt>
      <trkpt lat="45.87374" lon="4.82644">
        <ele>274.0025</ele>
        <time>2023-09-02T13:19:45.000Z</time>
      </trkpt>
      <trkpt lat="45.87379" lon="4.8265">
        <ele>273.77966</ele>
        <time>2023-09-02T13:19:46.000Z</time>
      </trkpt>
      <trkpt lat="45.87385" lon="4.82655">
        <ele>273.57587</ele>
        <time>2023-09-02T13:19:47.000Z</time>
      </trkpt>
      <trkpt lat="45.87391" lon="4.82661">
        <ele>273.34534</ele>
        <time>2023-09-02T13:19:48.000Z</time>
      </trkpt>
      <trkpt lat="45.87396" lon="4.82668">
        <ele>273.05353</ele>
        <time>2023-09-02T13:19:49.000Z</time>
      </trkpt>
      <trkpt lat="45.874" lon="4.82675">
        <ele>272.87088</ele>
        <time>2023-09-02T13:19:50.000Z</time>
      </trkpt>
      <trkpt lat="45.87403" lon="4.82682">
        <ele>272.64728</ele>
        <time>2023-09-02T13:19:51.000Z</time>
      </trkpt>
      <trkpt lat="45.87407" lon="4.82689">
        <ele>272.43286</ele>
        <time>2023-09-02T13:19:52.000Z</time>
      </trkpt>
      <trkpt lat="45.87411" lon="4.82697">
        <ele>272.23737</ele>
        <time>2023-09-02T13:19:53.000Z</time>
      </trkpt>
      <trkpt lat="45.87415" lon="4.82704">
        <ele>272.0155</ele>
        <time>2023-09-02T13:19:54.000Z</time>
      </trkpt>
      <trkpt lat="45.87419" lon="4.82709">
        <ele>271.76147</ele>
        <time>2023-09-02T13:19:55.000Z</time>
      </trkpt>
      <trkpt lat="45.87423" lon="4.82716">
        <ele>271.49823</ele>
        <time>2023-09-02T13:19:56.000Z</time>
      </trkpt>
      <trkpt lat="45.87427" lon="4.82723">
        <ele>271.24377</ele>
        <time>2023-09-02T13:19:57.000Z</time>
      </trkpt>
      <trkpt lat="45.87431" lon="4.82731">
        <ele>270.9892</ele>
        <time>2023-09-02T13:19:58.000Z</time>
      </trkpt>
      <trkpt lat="45.87434" lon="4.82738">
        <ele>270.72974</ele>
        <time>2023-09-02T13:19:59.000Z</time>
      </trkpt>
      <trkpt lat="45.87438" lon="4.82745">
        <ele>270.50598</ele>
        <time>2023-09-02T13:20:00.000Z</time>
      </trkpt>
      <trkpt lat="45.87442" lon="4.82752">
        <ele>270.25748</ele>
        <time>2023-09-02T13:20:01.000Z</time>
      </trkpt>
      <trkpt lat="45.87445" lon="4.82759">
        <ele>270.04108</ele>
        <time>2023-09-02T13:20:02.000Z</time>
      </trkpt>
      <trkpt lat="45.87448" lon="4.82765">
        <ele>269.84262</ele>
        <time>2023-09-02T13:20:03.000Z</time>
      </trkpt>
      <trkpt lat="45.87452" lon="4.82772">
        <ele>269.66583</ele>
        <time>2023-09-02T13:20:04.000Z</time>
      </trkpt>
      <trkpt lat="45.87455" lon="4.82779">
        <ele>269.49039</ele>
        <time>2023-09-02T13:20:05.000Z</time>
      </trkpt>
      <trkpt lat="45.87458" lon="4.82786">
        <ele>269.33731</ele>
        <time>2023-09-02T13:20:06.000Z</time>
      </trkpt>
      <trkpt lat="45.87462" lon="4.82793">
        <ele>269.17914</ele>
        <time>2023-09-02T13:20:07.000Z</time>
      </trkpt>
      <trkpt lat="45.87464" lon="4.82799">
        <ele>269.03223</ele>
        <time>2023-09-02T13:20:08.000Z</time>
      </trkpt>
      <trkpt lat="45.87467" lon="4.82807">
        <ele>268.8848</ele>
        <time>2023-09-02T13:20:09.000Z</time>
      </trkpt>
      <trkpt lat="45.8747" lon="4.82813">
        <ele>268.72452</ele>
        <time>2023-09-02T13:20:10.000Z</time>
      </trkpt>
      <trkpt lat="45.87474" lon="4.82821">
        <ele>268.57513</ele>
        <time>2023-09-02T13:20:11.000Z</time>
      </trkpt>
      <trkpt lat="45.87477" lon="4.82828">
        <ele>268.45782</ele>
        <time>2023-09-02T13:20:12.000Z</time>
      </trkpt>
      <trkpt lat="45.8748" lon="4.82834">
        <ele>268.10223</ele>
        <time>2023-09-02T13:20:13.000Z</time>
      </trkpt>
      <trkpt lat="45.87484" lon="4.82841">
        <ele>267.76108</ele>
        <time>2023-09-02T13:20:14.000Z</time>
      </trkpt>
      <trkpt lat="45.87488" lon="4.82849">
        <ele>267.45807</ele>
        <time>2023-09-02T13:20:15.000Z</time>
      </trkpt>
      <trkpt lat="45.87491" lon="4.82857">
        <ele>267.17758</ele>
        <time>2023-09-02T13:20:16.000Z</time>
      </trkpt>
      <trkpt lat="45.87494" lon="4.82865">
        <ele>266.91641</ele>
        <time>2023-09-02T13:20:17.000Z</time>
      </trkpt>
      <trkpt lat="45.87497" lon="4.82872">
        <ele>266.83527</ele>
        <time>2023-09-02T13:20:18.000Z</time>
      </trkpt>
      <trkpt lat="45.87501" lon="4.82881">
        <ele>266.76355</ele>
        <time>2023-09-02T13:20:19.000Z</time>
      </trkpt>
      <trkpt lat="45.87504" lon="4.8289">
        <ele>266.64767</ele>
        <time>2023-09-02T13:20:20.000Z</time>
      </trkpt>
      <trkpt lat="45.87508" lon="4.829">
        <ele>266.52811</ele>
        <time>2023-09-02T13:20:21.000Z</time>
      </trkpt>
      <trkpt lat="45.87511" lon="4.82909">
        <ele>266.39087</ele>
        <time>2023-09-02T13:20:22.000Z</time>
      </trkpt>
      <trkpt lat="45.87515" lon="4.82919">
        <ele>266.2692</ele>
        <time>2023-09-02T13:20:23.000Z</time>
      </trkpt>
      <trkpt lat="45.87519" lon="4.82929">
        <ele>266.11151</ele>
        <time>2023-09-02T13:20:24.000Z</time>
      </trkpt>
      <trkpt lat="45.87522" lon="4.8294">
        <ele>265.92117</ele>
        <time>2023-09-02T13:20:25.000Z</time>
      </trkpt>
      <trkpt lat="45.87524" lon="4.8295">
        <ele>265.68927</ele>
        <time>2023-09-02T13:20:26.000Z</time>
      </trkpt>
      <trkpt lat="45.87527" lon="4.8296">
        <ele>265.5824</ele>
        <time>2023-09-02T13:20:27.000Z</time>
      </trkpt>
      <trkpt lat="45.87529" lon="4.82969">
        <ele>265.44937</ele>
        <time>2023-09-02T13:20:28.000Z</time>
      </trkpt>
      <trkpt lat="45.87531" lon="4.82978">
        <ele>265.31195</ele>
        <time>2023-09-02T13:20:29.000Z</time>
      </trkpt>
      <trkpt lat="45.87532" lon="4.82986">
        <ele>265.18243</ele>
        <time>2023-09-02T13:20:30.000Z</time>
      </trkpt>
      <trkpt lat="45.87534" lon="4.82994">
        <ele>265.04446</ele>
        <time>2023-09-02T13:20:31.000Z</time>
      </trkpt>
      <trkpt lat="45.87535" lon="4.83001">
        <ele>264.87558</ele>
        <time>2023-09-02T13:20:32.000Z</time>
      </trkpt>
      <trkpt lat="45.87535" lon="4.83009">
        <ele>264.92953</ele>
        <time>2023-09-02T13:20:33.000Z</time>
      </trkpt>
      <trkpt lat="45.87536" lon="4.83015">
        <ele>265.01453</ele>
        <time>2023-09-02T13:20:34.000Z</time>
      </trkpt>
      <trkpt lat="45.87538" lon="4.83021">
        <ele>265.10611</ele>
        <time>2023-09-02T13:20:35.000Z</time>
      </trkpt>
      <trkpt lat="45.87539" lon="4.83027">
        <ele>265.18274</ele>
        <time>2023-09-02T13:20:36.000Z</time>
      </trkpt>
      <trkpt lat="45.8754" lon="4.83033">
        <ele>265.19629</ele>
        <time>2023-09-02T13:20:37.000Z</time>
      </trkpt>
      <trkpt lat="45.8754" lon="4.83042">
        <ele>265.07849</ele>
        <time>2023-09-02T13:20:38.000Z</time>
      </trkpt>
      <trkpt lat="45.8754" lon="4.83053">
        <ele>264.96695</ele>
        <time>2023-09-02T13:20:39.000Z</time>
      </trkpt>
      <trkpt lat="45.87542" lon="4.83065">
        <ele>264.86777</ele>
        <time>2023-09-02T13:20:40.000Z</time>
      </trkpt>
      <trkpt lat="45.87545" lon="4.83078">
        <ele>264.39032</ele>
        <time>2023-09-02T13:20:41.000Z</time>
      </trkpt>
      <trkpt lat="45.87546" lon="4.83091">
        <ele>263.91147</ele>
        <time>2023-09-02T13:20:42.000Z</time>
      </trkpt>
      <trkpt lat="45.87549" lon="4.83101">
        <ele>263.3703</ele>
        <time>2023-09-02T13:20:43.000Z</time>
      </trkpt>
      <trkpt lat="45.87551" lon="4.83109">
        <ele>262.77762</ele>
        <time>2023-09-02T13:20:44.000Z</time>
      </trkpt>
      <trkpt lat="45.8755" lon="4.83118">
        <ele>262.22098</ele>
        <time>2023-09-02T13:20:45.000Z</time>
      </trkpt>
      <trkpt lat="45.8755" lon="4.83126">
        <ele>261.6925</ele>
        <time>2023-09-02T13:20:46.000Z</time>
      </trkpt>
      <trkpt lat="45.87551" lon="4.83134">
        <ele>260.99832</ele>
        <time>2023-09-02T13:20:47.000Z</time>
      </trkpt>
      <trkpt lat="45.87551" lon="4.83142">
        <ele>260.11435</ele>
        <time>2023-09-02T13:20:48.000Z</time>
      </trkpt>
      <trkpt lat="45.8755" lon="4.83149">
        <ele>259.3205</ele>
        <time>2023-09-02T13:20:49.000Z</time>
      </trkpt>
      <trkpt lat="45.87548" lon="4.83155">
        <ele>258.52805</ele>
        <time>2023-09-02T13:20:50.000Z</time>
      </trkpt>
      <trkpt lat="45.87548" lon="4.83161">
        <ele>257.71631</ele>
        <time>2023-09-02T13:20:51.000Z</time>
      </trkpt>
      <trkpt lat="45.87548" lon="4.83167">
        <ele>256.89667</ele>
        <time>2023-09-02T13:20:52.000Z</time>
      </trkpt>
      <trkpt lat="45.87551" lon="4.83174">
        <ele>256.07355</ele>
        <time>2023-09-02T13:20:53.000Z</time>
      </trkpt>
      <trkpt lat="45.87553" lon="4.8318">
        <ele>255.20691</ele>
        <time>2023-09-02T13:20:54.000Z</time>
      </trkpt>
      <trkpt lat="45.87557" lon="4.83187">
        <ele>254.31465</ele>
        <time>2023-09-02T13:20:55.000Z</time>
      </trkpt>
      <trkpt lat="45.8756" lon="4.83194">
        <ele>253.52998</ele>
        <time>2023-09-02T13:20:56.000Z</time>
      </trkpt>
      <trkpt lat="45.87565" lon="4.83202">
        <ele>252.77335</ele>
        <time>2023-09-02T13:20:57.000Z</time>
      </trkpt>
      <trkpt lat="45.87568" lon="4.83211">
        <ele>251.41489</ele>
        <time>2023-09-02T13:20:58.000Z</time>
      </trkpt>
      <trkpt lat="45.87572" lon="4.83217">
        <ele>250.01697</ele>
        <time>2023-09-02T13:20:59.000Z</time>
      </trkpt>
      <trkpt lat="45.87576" lon="4.83224">
        <ele>248.65901</ele>
        <time>2023-09-02T13:21:00.000Z</time>
      </trkpt>
      <trkpt lat="45.87581" lon="4.83231">
        <ele>247.66483</ele>
        <time>2023-09-02T13:21:01.000Z</time>
      </trkpt>
      <trkpt lat="45.87586" lon="4.83238">
        <ele>246.62259</ele>
        <time>2023-09-02T13:21:02.000Z</time>
      </trkpt>
      <trkpt lat="45.87592" lon="4.83246">
        <ele>245.63123</ele>
        <time>2023-09-02T13:21:03.000Z</time>
      </trkpt>
      <trkpt lat="45.87598" lon="4.83254">
        <ele>244.67085</ele>
        <time>2023-09-02T13:21:04.000Z</time>
      </trkpt>
      <trkpt lat="45.87604" lon="4.83264">
        <ele>243.66743</ele>
        <time>2023-09-02T13:21:05.000Z</time>
      </trkpt>
      <trkpt lat="45.8761" lon="4.83273">
        <ele>242.63354</ele>
        <time>2023-09-02T13:21:06.000Z</time>
      </trkpt>
      <trkpt lat="45.87613" lon="4.83283">
        <ele>241.60416</ele>
        <time>2023-09-02T13:21:07.000Z</time>
      </trkpt>
      <trkpt lat="45.87617" lon="4.8329">
        <ele>240.79741</ele>
        <time>2023-09-02T13:21:08.000Z</time>
      </trkpt>
      <trkpt lat="45.87623" lon="4.83297">
        <ele>239.87317</ele>
        <time>2023-09-02T13:21:09.000Z</time>
      </trkpt>
      <trkpt lat="45.87628" lon="4.83304">
        <ele>238.93132</ele>
        <time>2023-09-02T13:21:10.000Z</time>
      </trkpt>
      <trkpt lat="45.87634" lon="4.83311">
        <ele>238.00504</ele>
        <time>2023-09-02T13:21:11.000Z</time>
      </trkpt>
      <trkpt lat="45.87638" lon="4.83319">
        <ele>237.12503</ele>
        <time>2023-09-02T13:21:12.000Z</time>
      </trkpt>
      <trkpt lat="45.87643" lon="4.83326">
        <ele>236.24265</ele>
        <time>2023-09-02T13:21:13.000Z</time>
      </trkpt>
      <trkpt lat="45.87648" lon="4.83335">
        <ele>235.3831</ele>
        <time>2023-09-02T13:21:14.000Z</time>
      </trkpt>
      <trkpt lat="45.87652" lon="4.83344">
        <ele>234.52754</ele>
        <time>2023-09-02T13:21:15.000Z</time>
      </trkpt>
      <trkpt lat="45.87658" lon="4.83351">
        <ele>233.55655</ele>
        <time>2023-09-02T13:21:16.000Z</time>
      </trkpt>
      <trkpt lat="45.87662" lon="4.83359">
        <ele>232.59604</ele>
        <time>2023-09-02T13:21:17.000Z</time>
      </trkpt>
      <trkpt lat="45.87667" lon="4.83367">
        <ele>232.18619</ele>
        <time>2023-09-02T13:21:18.000Z</time>
      </trkpt>
      <trkpt lat="45.87671" lon="4.83375">
        <ele>231.80635</ele>
        <time>2023-09-02T13:21:19.000Z</time>
      </trkpt>
      <trkpt lat="45.87676" lon="4.83383">
        <ele>231.47949</ele>
        <time>2023-09-02T13:21:20.000Z</time>
      </trkpt>
      <trkpt lat="45.8768" lon="4.83391">
        <ele>231.50754</ele>
        <time>2023-09-02T13:21:21.000Z</time>
      </trkpt>
      <trkpt lat="45.87684" lon="4.83398">
        <ele>231.58391</ele>
        <time>2023-09-02T13:21:22.000Z</time>
      </trkpt>
      <trkpt lat="45.87687" lon="4.83405">
        <ele>231.66866</ele>
        <time>2023-09-02T13:21:23.000Z</time>
      </trkpt>
      <trkpt lat="45.87691" lon="4.83412">
        <ele>231.81332</ele>
        <time>2023-09-02T13:21:24.000Z</time>
      </trkpt>
      <trkpt lat="45.87696" lon="4.83418">
        <ele>231.99016</ele>
        <time>2023-09-02T13:21:25.000Z</time>
      </trkpt>
      <trkpt lat="45.877" lon="4.83425">
        <ele>232.19528</ele>
        <time>2023-09-02T13:21:26.000Z</time>
      </trkpt>
      <trkpt lat="45.87704" lon="4.83431">
        <ele>232.59248</ele>
        <time>2023-09-02T13:21:27.000Z</time>
      </trkpt>
      <trkpt lat="45.87707" lon="4.83438">
        <ele>232.99023</ele>
        <time>2023-09-02T13:21:28.000Z</time>
      </trkpt>
      <trkpt lat="45.87711" lon="4.83445">
        <ele>233.57504</ele>
        <time>2023-09-02T13:21:29.000Z</time>
      </trkpt>
      <trkpt lat="45.87715" lon="4.83452">
        <ele>233.80606</ele>
        <time>2023-09-02T13:21:30.000Z</time>
      </trkpt>
      <trkpt lat="45.87718" lon="4.83458">
        <ele>234.10031</ele>
        <time>2023-09-02T13:21:31.000Z</time>
      </trkpt>
      <trkpt lat="45.87722" lon="4.83464">
        <ele>234.3875</ele>
        <time>2023-09-02T13:21:32.000Z</time>
      </trkpt>
      <trkpt lat="45.87725" lon="4.83471">
        <ele>234.69547</ele>
        <time>2023-09-02T13:21:33.000Z</time>
      </trkpt>
      <trkpt lat="45.87727" lon="4.83477">
        <ele>235.0024</ele>
        <time>2023-09-02T13:21:34.000Z</time>
      </trkpt>
      <trkpt lat="45.8773" lon="4.83482">
        <ele>235.31894</ele>
        <time>2023-09-02T13:21:35.000Z</time>
      </trkpt>
      <trkpt lat="45.87732" lon="4.83486">
        <ele>235.66263</ele>
        <time>2023-09-02T13:21:36.000Z</time>
      </trkpt>
      <trkpt lat="45.87733" lon="4.83489">
        <ele>236.20219</ele>
        <time>2023-09-02T13:21:37.000Z</time>
      </trkpt>
      <trkpt lat="45.87735" lon="4.83491">
        <ele>236.75424</ele>
        <time>2023-09-02T13:21:39.000Z</time>
      </trkpt>
      <trkpt lat="45.87734" lon="4.83494">
        <ele>236.81848</ele>
        <time>2023-09-02T13:21:40.000Z</time>
      </trkpt>
      <trkpt lat="45.87732" lon="4.83495">
        <ele>236.67033</ele>
        <time>2023-09-02T13:21:41.000Z</time>
      </trkpt>
      <trkpt lat="45.87729" lon="4.83498">
        <ele>236.2157</ele>
        <time>2023-09-02T13:21:42.000Z</time>
      </trkpt>
      <trkpt lat="45.87726" lon="4.83502">
        <ele>235.87759</ele>
        <time>2023-09-02T13:21:43.000Z</time>
      </trkpt>
      <trkpt lat="45.87723" lon="4.83507">
        <ele>235.92188</ele>
        <time>2023-09-02T13:21:44.000Z</time>
      </trkpt>
      <trkpt lat="45.8772" lon="4.83512">
        <ele>235.91501</ele>
        <time>2023-09-02T13:21:45.000Z</time>
      </trkpt>
      <trkpt lat="45.87716" lon="4.83516">
        <ele>235.92339</ele>
        <time>2023-09-02T13:21:46.000Z</time>
      </trkpt>
      <trkpt lat="45.87712" lon="4.8352">
        <ele>235.90764</ele>
        <time>2023-09-02T13:21:47.000Z</time>
      </trkpt>
      <trkpt lat="45.87708" lon="4.83524">
        <ele>235.73091</ele>
        <time>2023-09-02T13:21:48.000Z</time>
      </trkpt>
      <trkpt lat="45.87703" lon="4.83528">
        <ele>235.55933</ele>
        <time>2023-09-02T13:21:49.000Z</time>
      </trkpt>
      <trkpt lat="45.87699" lon="4.8353">
        <ele>234.8414</ele>
        <time>2023-09-02T13:21:50.000Z</time>
      </trkpt>
      <trkpt lat="45.87693" lon="4.8353">
        <ele>234.46585</ele>
        <time>2023-09-02T13:21:51.000Z</time>
      </trkpt>
      <trkpt lat="45.87688" lon="4.83531">
        <ele>234.03755</ele>
        <time>2023-09-02T13:21:52.000Z</time>
      </trkpt>
      <trkpt lat="45.87683" lon="4.83532">
        <ele>233.62607</ele>
        <time>2023-09-02T13:21:53.000Z</time>
      </trkpt>
      <trkpt lat="45.87679" lon="4.83538">
        <ele>233.21811</ele>
        <time>2023-09-02T13:21:54.000Z</time>
      </trkpt>
      <trkpt lat="45.87677" lon="4.83546">
        <ele>232.87874</ele>
        <time>2023-09-02T13:21:55.000Z</time>
      </trkpt>
      <trkpt lat="45.87678" lon="4.83554">
        <ele>232.55115</ele>
        <time>2023-09-02T13:21:56.000Z</time>
      </trkpt>
      <trkpt lat="45.8768" lon="4.83562">
        <ele>232.25989</ele>
        <time>2023-09-02T13:21:57.000Z</time>
      </trkpt>
      <trkpt lat="45.87681" lon="4.8357">
        <ele>231.71085</ele>
        <time>2023-09-02T13:21:58.000Z</time>
      </trkpt>
      <trkpt lat="45.87681" lon="4.8358">
        <ele>231.1689</ele>
        <time>2023-09-02T13:21:59.000Z</time>
      </trkpt>
      <trkpt lat="45.87682" lon="4.83587">
        <ele>231.12997</ele>
        <time>2023-09-02T13:22:00.000Z</time>
      </trkpt>
      <trkpt lat="45.87682" lon="4.83596">
        <ele>231.28764</ele>
        <time>2023-09-02T13:22:01.000Z</time>
      </trkpt>
      <trkpt lat="45.87683" lon="4.83604">
        <ele>231.42908</ele>
        <time>2023-09-02T13:22:02.000Z</time>
      </trkpt>
      <trkpt lat="45.87683" lon="4.83612">
        <ele>231.47554</ele>
        <time>2023-09-02T13:22:03.000Z</time>
      </trkpt>
      <trkpt lat="45.87684" lon="4.83619">
        <ele>231.13541</ele>
        <time>2023-09-02T13:22:04.000Z</time>
      </trkpt>
      <trkpt lat="45.87685" lon="4.83627">
        <ele>230.85017</ele>
        <time>2023-09-02T13:22:05.000Z</time>
      </trkpt>
      <trkpt lat="45.87685" lon="4.83635">
        <ele>230.57544</ele>
        <time>2023-09-02T13:22:06.000Z</time>
      </trkpt>
      <trkpt lat="45.87687" lon="4.83643">
        <ele>230.32112</ele>
        <time>2023-09-02T13:22:07.000Z</time>
      </trkpt>
      <trkpt lat="45.87687" lon="4.83651">
        <ele>230.0771</ele>
        <time>2023-09-02T13:22:08.000Z</time>
      </trkpt>
      <trkpt lat="45.87688" lon="4.83659">
        <ele>229.80258</ele>
        <time>2023-09-02T13:22:09.000Z</time>
      </trkpt>
      <trkpt lat="45.87688" lon="4.83667">
        <ele>230.01083</ele>
        <time>2023-09-02T13:22:10.000Z</time>
      </trkpt>
      <trkpt lat="45.87689" lon="4.83675">
        <ele>230.18863</ele>
        <time>2023-09-02T13:22:11.000Z</time>
      </trkpt>
      <trkpt lat="45.87689" lon="4.83683">
        <ele>230.3602</ele>
        <time>2023-09-02T13:22:12.000Z</time>
      </trkpt>
      <trkpt lat="45.87691" lon="4.83691">
        <ele>230.50703</ele>
        <time>2023-09-02T13:22:13.000Z</time>
      </trkpt>
      <trkpt lat="45.87692" lon="4.837">
        <ele>230.66104</ele>
        <time>2023-09-02T13:22:14.000Z</time>
      </trkpt>
      <trkpt lat="45.87692" lon="4.83708">
        <ele>230.74976</ele>
        <time>2023-09-02T13:22:15.000Z</time>
      </trkpt>
      <trkpt lat="45.87693" lon="4.83716">
        <ele>230.81648</ele>
        <time>2023-09-02T13:22:16.000Z</time>
      </trkpt>
      <trkpt lat="45.87693" lon="4.83725">
        <ele>230.85062</ele>
        <time>2023-09-02T13:22:17.000Z</time>
      </trkpt>
      <trkpt lat="45.87694" lon="4.83735">
        <ele>230.92432</ele>
        <time>2023-09-02T13:22:18.000Z</time>
      </trkpt>
      <trkpt lat="45.87695" lon="4.83743">
        <ele>230.9792</ele>
        <time>2023-09-02T13:22:19.000Z</time>
      </trkpt>
      <trkpt lat="45.87695" lon="4.83753">
        <ele>231.01685</ele>
        <time>2023-09-02T13:22:20.000Z</time>
      </trkpt>
      <trkpt lat="45.87695" lon="4.83763">
        <ele>231.04117</ele>
        <time>2023-09-02T13:22:21.000Z</time>
      </trkpt>
      <trkpt lat="45.87697" lon="4.8377">
        <ele>230.98386</ele>
        <time>2023-09-02T13:22:22.000Z</time>
      </trkpt>
      <trkpt lat="45.87698" lon="4.83779">
        <ele>230.9075</ele>
        <time>2023-09-02T13:22:23.000Z</time>
      </trkpt>
      <trkpt lat="45.87699" lon="4.83788">
        <ele>230.84135</ele>
        <time>2023-09-02T13:22:24.000Z</time>
      </trkpt>
      <trkpt lat="45.877" lon="4.83798">
        <ele>230.76242</ele>
        <time>2023-09-02T13:22:25.000Z</time>
      </trkpt>
      <trkpt lat="45.877" lon="4.83807">
        <ele>230.65274</ele>
        <time>2023-09-02T13:22:26.000Z</time>
      </trkpt>
      <trkpt lat="45.877" lon="4.83817">
        <ele>230.56128</ele>
        <time>2023-09-02T13:22:27.000Z</time>
      </trkpt>
      <trkpt lat="45.87701" lon="4.83827">
        <ele>230.53061</ele>
        <time>2023-09-02T13:22:28.000Z</time>
      </trkpt>
      <trkpt lat="45.87702" lon="4.83835">
        <ele>230.37651</ele>
        <time>2023-09-02T13:22:29.000Z</time>
      </trkpt>
      <trkpt lat="45.87703" lon="4.83844">
        <ele>230.13603</ele>
        <time>2023-09-02T13:22:30.000Z</time>
      </trkpt>
      <trkpt lat="45.87706" lon="4.83853">
        <ele>229.96426</ele>
        <time>2023-09-02T13:22:31.000Z</time>
      </trkpt>
      <trkpt lat="45.87711" lon="4.83859">
        <ele>229.86565</ele>
        <time>2023-09-02T13:22:32.000Z</time>
      </trkpt>
      <trkpt lat="45.87715" lon="4.83864">
        <ele>229.68803</ele>
        <time>2023-09-02T13:22:33.000Z</time>
      </trkpt>
      <trkpt lat="45.87718" lon="4.83871">
        <ele>229.49173</ele>
        <time>2023-09-02T13:22:34.000Z</time>
      </trkpt>
      <trkpt lat="45.87718" lon="4.83877">
        <ele>229.23421</ele>
        <time>2023-09-02T13:22:35.000Z</time>
      </trkpt>
      <trkpt lat="45.87718" lon="4.83884">
        <ele>229.01216</ele>
        <time>2023-09-02T13:22:36.000Z</time>
      </trkpt>
      <trkpt lat="45.87718" lon="4.83892">
        <ele>229.56465</ele>
        <time>2023-09-02T13:22:37.000Z</time>
      </trkpt>
      <trkpt lat="45.87718" lon="4.83901">
        <ele>230.23189</ele>
        <time>2023-09-02T13:22:38.000Z</time>
      </trkpt>
      <trkpt lat="45.87719" lon="4.83908">
        <ele>230.96664</ele>
        <time>2023-09-02T13:22:39.000Z</time>
      </trkpt>
      <trkpt lat="45.87719" lon="4.83918">
        <ele>231.65144</ele>
        <time>2023-09-02T13:22:40.000Z</time>
      </trkpt>
      <trkpt lat="45.87719" lon="4.83926">
        <ele>232.2908</ele>
        <time>2023-09-02T13:22:41.000Z</time>
      </trkpt>
      <trkpt lat="45.8772" lon="4.83935">
        <ele>233.16873</ele>
        <time>2023-09-02T13:22:42.000Z</time>
      </trkpt>
      <trkpt lat="45.87722" lon="4.83941">
        <ele>234.11935</ele>
        <time>2023-09-02T13:22:43.000Z</time>
      </trkpt>
      <trkpt lat="45.8772" lon="4.8395">
        <ele>235.08833</ele>
        <time>2023-09-02T13:22:44.000Z</time>
      </trkpt>
      <trkpt lat="45.8772" lon="4.83959">
        <ele>235.90312</ele>
        <time>2023-09-02T13:22:45.000Z</time>
      </trkpt>
      <trkpt lat="45.87721" lon="4.83968">
        <ele>236.80655</ele>
        <time>2023-09-02T13:22:46.000Z</time>
      </trkpt>
      <trkpt lat="45.87723" lon="4.83976">
        <ele>237.62866</ele>
        <time>2023-09-02T13:22:47.000Z</time>
      </trkpt>
      <trkpt lat="45.87723" lon="4.83984">
        <ele>238.40469</ele>
        <time>2023-09-02T13:22:48.000Z</time>
      </trkpt>
      <trkpt lat="45.87723" lon="4.83991">
        <ele>239.06953</ele>
        <time>2023-09-02T13:22:49.000Z</time>
      </trkpt>
      <trkpt lat="45.87722" lon="4.83999">
        <ele>239.64206</ele>
        <time>2023-09-02T13:22:50.000Z</time>
      </trkpt>
      <trkpt lat="45.87722" lon="4.84007">
        <ele>240.1331</ele>
        <time>2023-09-02T13:22:51.000Z</time>
      </trkpt>
      <trkpt lat="45.87723" lon="4.84013">
        <ele>240.58228</ele>
        <time>2023-09-02T13:22:52.000Z</time>
      </trkpt>
      <trkpt lat="45.87723" lon="4.8402">
        <ele>241.15556</ele>
        <time>2023-09-02T13:22:53.000Z</time>
      </trkpt>
      <trkpt lat="45.87721" lon="4.84026">
        <ele>241.76582</ele>
        <time>2023-09-02T13:22:54.000Z</time>
      </trkpt>
      <trkpt lat="45.87719" lon="4.84033">
        <ele>242.43799</ele>
        <time>2023-09-02T13:22:55.000Z</time>
      </trkpt>
      <trkpt lat="45.87716" lon="4.84039">
        <ele>243.10612</ele>
        <time>2023-09-02T13:22:56.000Z</time>
      </trkpt>
      <trkpt lat="45.87711" lon="4.84043">
        <ele>242.47522</ele>
        <time>2023-09-02T13:22:57.000Z</time>
      </trkpt>
      <trkpt lat="45.87708" lon="4.84049">
        <ele>241.76897</ele>
        <time>2023-09-02T13:22:58.000Z</time>
      </trkpt>
      <trkpt lat="45.87705" lon="4.84055">
        <ele>241.00493</ele>
        <time>2023-09-02T13:22:59.000Z</time>
      </trkpt>
      <trkpt lat="45.87703" lon="4.84061">
        <ele>240.32227</ele>
        <time>2023-09-02T13:23:00.000Z</time>
      </trkpt>
      <trkpt lat="45.87701" lon="4.84068">
        <ele>239.66508</ele>
        <time>2023-09-02T13:23:01.000Z</time>
      </trkpt>
      <trkpt lat="45.87699" lon="4.84074">
        <ele>238.87057</ele>
        <time>2023-09-02T13:23:02.000Z</time>
      </trkpt>
      <trkpt lat="45.87696" lon="4.8408">
        <ele>238.01831</ele>
        <time>2023-09-02T13:23:03.000Z</time>
      </trkpt>
      <trkpt lat="45.87694" lon="4.84086">
        <ele>237.16472</ele>
        <time>2023-09-02T13:23:04.000Z</time>
      </trkpt>
      <trkpt lat="45.87692" lon="4.84093">
        <ele>236.46933</ele>
        <time>2023-09-02T13:23:05.000Z</time>
      </trkpt>
      <trkpt lat="45.8769" lon="4.841">
        <ele>235.6962</ele>
        <time>2023-09-02T13:23:06.000Z</time>
      </trkpt>
      <trkpt lat="45.87688" lon="4.84106">
        <ele>234.9938</ele>
        <time>2023-09-02T13:23:07.000Z</time>
      </trkpt>
      <trkpt lat="45.87685" lon="4.84112">
        <ele>234.28069</ele>
        <time>2023-09-02T13:23:08.000Z</time>
      </trkpt>
      <trkpt lat="45.87683" lon="4.84119">
        <ele>233.83916</ele>
        <time>2023-09-02T13:23:09.000Z</time>
      </trkpt>
      <trkpt lat="45.8768" lon="4.84124">
        <ele>233.53413</ele>
        <time>2023-09-02T13:23:10.000Z</time>
      </trkpt>
      <trkpt lat="45.87678" lon="4.84131">
        <ele>233.29855</ele>
        <time>2023-09-02T13:23:11.000Z</time>
      </trkpt>
      <trkpt lat="45.87677" lon="4.84137">
        <ele>233.0385</ele>
        <time>2023-09-02T13:23:12.000Z</time>
      </trkpt>
      <trkpt lat="45.87676" lon="4.84144">
        <ele>232.74495</ele>
        <time>2023-09-02T13:23:13.000Z</time>
      </trkpt>
      <trkpt lat="45.87675" lon="4.8415">
        <ele>232.41293</ele>
        <time>2023-09-02T13:23:14.000Z</time>
      </trkpt>
      <trkpt lat="45.87674" lon="4.84157">
        <ele>232.07683</ele>
        <time>2023-09-02T13:23:15.000Z</time>
      </trkpt>
      <trkpt lat="45.87673" lon="4.84165">
        <ele>231.72881</ele>
        <time>2023-09-02T13:23:16.000Z</time>
      </trkpt>
      <trkpt lat="45.87673" lon="4.84173">
        <ele>231.91089</ele>
        <time>2023-09-02T13:23:17.000Z</time>
      </trkpt>
      <trkpt lat="45.87671" lon="4.8418">
        <ele>232.09175</ele>
        <time>2023-09-02T13:23:18.000Z</time>
      </trkpt>
      <trkpt lat="45.8767" lon="4.84187">
        <ele>232.27942</ele>
        <time>2023-09-02T13:23:19.000Z</time>
      </trkpt>
      <trkpt lat="45.87669" lon="4.84194">
        <ele>232.45674</ele>
        <time>2023-09-02T13:23:20.000Z</time>
      </trkpt>
      <trkpt lat="45.87668" lon="4.84201">
        <ele>232.60608</ele>
        <time>2023-09-02T13:23:21.000Z</time>
      </trkpt>
      <trkpt lat="45.87666" lon="4.84208">
        <ele>232.72714</ele>
        <time>2023-09-02T13:23:22.000Z</time>
      </trkpt>
      <trkpt lat="45.87665" lon="4.84215">
        <ele>232.83931</ele>
        <time>2023-09-02T13:23:23.000Z</time>
      </trkpt>
      <trkpt lat="45.87664" lon="4.84223">
        <ele>232.95549</ele>
        <time>2023-09-02T13:23:24.000Z</time>
      </trkpt>
      <trkpt lat="45.87663" lon="4.8423">
        <ele>233.07639</ele>
        <time>2023-09-02T13:23:25.000Z</time>
      </trkpt>
      <trkpt lat="45.87661" lon="4.84237">
        <ele>233.20175</ele>
        <time>2023-09-02T13:23:26.000Z</time>
      </trkpt>
      <trkpt lat="45.8766" lon="4.84244">
        <ele>233.3269</ele>
        <time>2023-09-02T13:23:27.000Z</time>
      </trkpt>
      <trkpt lat="45.87659" lon="4.84251">
        <ele>233.4559</ele>
        <time>2023-09-02T13:23:28.000Z</time>
      </trkpt>
      <trkpt lat="45.87659" lon="4.84259">
        <ele>233.54826</ele>
        <time>2023-09-02T13:23:29.000Z</time>
      </trkpt>
      <trkpt lat="45.8766" lon="4.84267">
        <ele>234.09761</ele>
        <time>2023-09-02T13:23:30.000Z</time>
      </trkpt>
      <trkpt lat="45.87661" lon="4.84273">
        <ele>234.85188</ele>
        <time>2023-09-02T13:23:31.000Z</time>
      </trkpt>
      <trkpt lat="45.87665" lon="4.84278">
        <ele>235.84067</ele>
        <time>2023-09-02T13:23:32.000Z</time>
      </trkpt>
      <trkpt lat="45.87671" lon="4.84276">
        <ele>236.93159</ele>
        <time>2023-09-02T13:23:33.000Z</time>
      </trkpt>
      <trkpt lat="45.87676" lon="4.84278">
        <ele>237.87569</ele>
        <time>2023-09-02T13:23:34.000Z</time>
      </trkpt>
      <trkpt lat="45.87681" lon="4.8428">
        <ele>238.4832</ele>
        <time>2023-09-02T13:23:35.000Z</time>
      </trkpt>
      <trkpt lat="45.87686" lon="4.84281">
        <ele>239.17363</ele>
        <time>2023-09-02T13:23:36.000Z</time>
      </trkpt>
      <trkpt lat="45.8769" lon="4.84281">
        <ele>239.82942</ele>
        <time>2023-09-02T13:23:37.000Z</time>
      </trkpt>
      <trkpt lat="45.87694" lon="4.84282">
        <ele>239.95573</ele>
        <time>2023-09-02T13:23:38.000Z</time>
      </trkpt>
      <trkpt lat="45.87699" lon="4.84283">
        <ele>240.04794</ele>
        <time>2023-09-02T13:23:39.000Z</time>
      </trkpt>
      <trkpt lat="45.87704" lon="4.84284">
        <ele>240.13547</ele>
        <time>2023-09-02T13:23:40.000Z</time>
      </trkpt>
      <trkpt lat="45.87709" lon="4.84284">
        <ele>240.23364</ele>
        <time>2023-09-02T13:23:41.000Z</time>
      </trkpt>
      <trkpt lat="45.87713" lon="4.84286">
        <ele>240.34953</ele>
        <time>2023-09-02T13:23:42.000Z</time>
      </trkpt>
      <trkpt lat="45.87718" lon="4.84286">
        <ele>240.48767</ele>
        <time>2023-09-02T13:23:43.000Z</time>
      </trkpt>
      <trkpt lat="45.87722" lon="4.84287">
        <ele>240.65024</ele>
        <time>2023-09-02T13:23:44.000Z</time>
      </trkpt>
      <trkpt lat="45.87726" lon="4.84287">
        <ele>240.81474</ele>
        <time>2023-09-02T13:23:45.000Z</time>
      </trkpt>
      <trkpt lat="45.87731" lon="4.8429">
        <ele>240.98799</ele>
        <time>2023-09-02T13:23:46.000Z</time>
      </trkpt>
      <trkpt lat="45.87735" lon="4.84291">
        <ele>241.20528</ele>
        <time>2023-09-02T13:23:47.000Z</time>
      </trkpt>
      <trkpt lat="45.87739" lon="4.84292">
        <ele>241.42822</ele>
        <time>2023-09-02T13:23:48.000Z</time>
      </trkpt>
      <trkpt lat="45.87743" lon="4.84292">
        <ele>241.66455</ele>
        <time>2023-09-02T13:23:49.000Z</time>
      </trkpt>
      <trkpt lat="45.87745" lon="4.84294">
        <ele>241.46945</ele>
        <time>2023-09-02T13:23:50.000Z</time>
      </trkpt>
      <trkpt lat="45.87746" lon="4.84297">
        <ele>241.12263</ele>
        <time>2023-09-02T13:23:51.000Z</time>
      </trkpt>
      <trkpt lat="45.87746" lon="4.843">
        <ele>240.63164</ele>
        <time>2023-09-02T13:23:52.000Z</time>
      </trkpt>
      <trkpt lat="45.87745" lon="4.84307">
        <ele>239.99434</ele>
        <time>2023-09-02T13:23:53.000Z</time>
      </trkpt>
      <trkpt lat="45.87745" lon="4.84313">
        <ele>239.47701</ele>
        <time>2023-09-02T13:23:54.000Z</time>
      </trkpt>
      <trkpt lat="45.87745" lon="4.84319">
        <ele>239.32539</ele>
        <time>2023-09-02T13:23:55.000Z</time>
      </trkpt>
      <trkpt lat="45.87746" lon="4.84325">
        <ele>239.04269</ele>
        <time>2023-09-02T13:23:56.000Z</time>
      </trkpt>
      <trkpt lat="45.87747" lon="4.84331">
        <ele>238.82138</ele>
        <time>2023-09-02T13:23:57.000Z</time>
      </trkpt>
      <trkpt lat="45.87749" lon="4.84337">
        <ele>239.12305</ele>
        <time>2023-09-02T13:23:58.000Z</time>
      </trkpt>
      <trkpt lat="45.87751" lon="4.84342">
        <ele>239.4462</ele>
        <time>2023-09-02T13:23:59.000Z</time>
      </trkpt>
      <trkpt lat="45.87753" lon="4.84348">
        <ele>239.76482</ele>
        <time>2023-09-02T13:24:00.000Z</time>
      </trkpt>
      <trkpt lat="45.87757" lon="4.84354">
        <ele>240.00195</ele>
        <time>2023-09-02T13:24:01.000Z</time>
      </trkpt>
      <trkpt lat="45.8776" lon="4.8436">
        <ele>240.30615</ele>
        <time>2023-09-02T13:24:02.000Z</time>
      </trkpt>
      <trkpt lat="45.87763" lon="4.84365">
        <ele>240.62691</ele>
        <time>2023-09-02T13:24:03.000Z</time>
      </trkpt>
      <trkpt lat="45.87767" lon="4.8437">
        <ele>240.866</ele>
        <time>2023-09-02T13:24:04.000Z</time>
      </trkpt>
      <trkpt lat="45.87771" lon="4.84375">
        <ele>241.11385</ele>
        <time>2023-09-02T13:24:05.000Z</time>
      </trkpt>
      <trkpt lat="45.87774" lon="4.8438">
        <ele>241.32173</ele>
        <time>2023-09-02T13:24:06.000Z</time>
      </trkpt>
      <trkpt lat="45.87778" lon="4.84386">
        <ele>241.56165</ele>
        <time>2023-09-02T13:24:07.000Z</time>
      </trkpt>
      <trkpt lat="45.87781" lon="4.84392">
        <ele>241.78882</ele>
        <time>2023-09-02T13:24:08.000Z</time>
      </trkpt>
      <trkpt lat="45.87784" lon="4.84398">
        <ele>242.02115</ele>
        <time>2023-09-02T13:24:09.000Z</time>
      </trkpt>
      <trkpt lat="45.87787" lon="4.84403">
        <ele>242.16362</ele>
        <time>2023-09-02T13:24:10.000Z</time>
      </trkpt>
      <trkpt lat="45.8779" lon="4.84408">
        <ele>242.24455</ele>
        <time>2023-09-02T13:24:11.000Z</time>
      </trkpt>
      <trkpt lat="45.87794" lon="4.84412">
        <ele>242.22993</ele>
        <time>2023-09-02T13:24:12.000Z</time>
      </trkpt>
      <trkpt lat="45.87798" lon="4.84416">
        <ele>242.2552</ele>
        <time>2023-09-02T13:24:13.000Z</time>
      </trkpt>
      <trkpt lat="45.87801" lon="4.84423">
        <ele>242.28122</ele>
        <time>2023-09-02T13:24:14.000Z</time>
      </trkpt>
      <trkpt lat="45.87805" lon="4.84428">
        <ele>242.37456</ele>
        <time>2023-09-02T13:24:15.000Z</time>
      </trkpt>
      <trkpt lat="45.87808" lon="4.84434">
        <ele>242.49065</ele>
        <time>2023-09-02T13:24:16.000Z</time>
      </trkpt>
      <trkpt lat="45.87811" lon="4.8444">
        <ele>242.55391</ele>
        <time>2023-09-02T13:24:17.000Z</time>
      </trkpt>
      <trkpt lat="45.87814" lon="4.84444">
        <ele>242.61496</ele>
        <time>2023-09-02T13:24:18.000Z</time>
      </trkpt>
      <trkpt lat="45.87816" lon="4.84449">
        <ele>242.66788</ele>
        <time>2023-09-02T13:24:19.000Z</time>
      </trkpt>
      <trkpt lat="45.87819" lon="4.84455">
        <ele>242.73715</ele>
        <time>2023-09-02T13:24:20.000Z</time>
      </trkpt>
      <trkpt lat="45.87822" lon="4.84461">
        <ele>242.8582</ele>
        <time>2023-09-02T13:24:21.000Z</time>
      </trkpt>
      <trkpt lat="45.87826" lon="4.84466">
        <ele>242.8737</ele>
        <time>2023-09-02T13:24:22.000Z</time>
      </trkpt>
      <trkpt lat="45.87827" lon="4.84472">
        <ele>242.827</ele>
        <time>2023-09-02T13:24:23.000Z</time>
      </trkpt>
      <trkpt lat="45.87831" lon="4.84476">
        <ele>242.85901</ele>
        <time>2023-09-02T13:24:24.000Z</time>
      </trkpt>
      <trkpt lat="45.87836" lon="4.84479">
        <ele>243.29155</ele>
        <time>2023-09-02T13:24:25.000Z</time>
      </trkpt>
      <trkpt lat="45.8784" lon="4.84483">
        <ele>243.74545</ele>
        <time>2023-09-02T13:24:26.000Z</time>
      </trkpt>
      <trkpt lat="45.87843" lon="4.84488">
        <ele>244.11401</ele>
        <time>2023-09-02T13:24:27.000Z</time>
      </trkpt>
      <trkpt lat="45.87846" lon="4.84493">
        <ele>244.56589</ele>
        <time>2023-09-02T13:24:28.000Z</time>
      </trkpt>
      <trkpt lat="45.87849" lon="4.845">
        <ele>245.0354</ele>
        <time>2023-09-02T13:24:29.000Z</time>
      </trkpt>
      <trkpt lat="45.87853" lon="4.84506">
        <ele>245.54411</ele>
        <time>2023-09-02T13:24:30.000Z</time>
      </trkpt>
      <trkpt lat="45.87857" lon="4.8451">
        <ele>246.0676</ele>
        <time>2023-09-02T13:24:31.000Z</time>
      </trkpt>
      <trkpt lat="45.8786" lon="4.84514">
        <ele>246.62476</ele>
        <time>2023-09-02T13:24:32.000Z</time>
      </trkpt>
      <trkpt lat="45.87865" lon="4.84516">
        <ele>247.19353</ele>
        <time>2023-09-02T13:24:33.000Z</time>
      </trkpt>
      <trkpt lat="45.87869" lon="4.84519">
        <ele>247.79675</ele>
        <time>2023-09-02T13:24:34.000Z</time>
      </trkpt>
      <trkpt lat="45.87873" lon="4.84522">
        <ele>248.31026</ele>
        <time>2023-09-02T13:24:35.000Z</time>
      </trkpt>
      <trkpt lat="45.87878" lon="4.84525">
        <ele>248.85005</ele>
        <time>2023-09-02T13:24:36.000Z</time>
      </trkpt>
      <trkpt lat="45.87883" lon="4.84527">
        <ele>249.47017</ele>
        <time>2023-09-02T13:24:37.000Z</time>
      </trkpt>
      <trkpt lat="45.87887" lon="4.8453">
        <ele>250.10226</ele>
        <time>2023-09-02T13:24:38.000Z</time>
      </trkpt>
      <trkpt lat="45.87892" lon="4.84534">
        <ele>250.75179</ele>
        <time>2023-09-02T13:24:39.000Z</time>
      </trkpt>
      <trkpt lat="45.87896" lon="4.84537">
        <ele>251.17583</ele>
        <time>2023-09-02T13:24:40.000Z</time>
      </trkpt>
      <trkpt lat="45.87901" lon="4.8454">
        <ele>251.66391</ele>
        <time>2023-09-02T13:24:41.000Z</time>
      </trkpt>
      <trkpt lat="45.87905" lon="4.84544">
        <ele>252.2065</ele>
        <time>2023-09-02T13:24:42.000Z</time>
      </trkpt>
      <trkpt lat="45.8791" lon="4.84548">
        <ele>252.78171</ele>
        <time>2023-09-02T13:24:43.000Z</time>
      </trkpt>
      <trkpt lat="45.87914" lon="4.84552">
        <ele>253.31113</ele>
        <time>2023-09-02T13:24:44.000Z</time>
      </trkpt>
      <trkpt lat="45.87919" lon="4.84555">
        <ele>253.41934</ele>
        <time>2023-09-02T13:24:45.000Z</time>
      </trkpt>
      <trkpt lat="45.87924" lon="4.84557">
        <ele>253.54208</ele>
        <time>2023-09-02T13:24:46.000Z</time>
      </trkpt>
      <trkpt lat="45.87928" lon="4.8456">
        <ele>253.27058</ele>
        <time>2023-09-02T13:24:47.000Z</time>
      </trkpt>
      <trkpt lat="45.87933" lon="4.84563">
        <ele>252.84668</ele>
        <time>2023-09-02T13:24:48.000Z</time>
      </trkpt>
      <trkpt lat="45.87937" lon="4.84567">
        <ele>252.37485</ele>
        <time>2023-09-02T13:24:49.000Z</time>
      </trkpt>
      <trkpt lat="45.87942" lon="4.84571">
        <ele>251.87805</ele>
        <time>2023-09-02T13:24:50.000Z</time>
      </trkpt>
      <trkpt lat="45.87946" lon="4.84573">
        <ele>251.46931</ele>
        <time>2023-09-02T13:24:51.000Z</time>
      </trkpt>
      <trkpt lat="45.8795" lon="4.84577">
        <ele>251.02905</ele>
        <time>2023-09-02T13:24:52.000Z</time>
      </trkpt>
      <trkpt lat="45.87954" lon="4.84581">
        <ele>250.59615</ele>
        <time>2023-09-02T13:24:53.000Z</time>
      </trkpt>
      <trkpt lat="45.87959" lon="4.84584">
        <ele>250.15378</ele>
        <time>2023-09-02T13:24:54.000Z</time>
      </trkpt>
      <trkpt lat="45.87963" lon="4.84588">
        <ele>249.73662</ele>
        <time>2023-09-02T13:24:55.000Z</time>
      </trkpt>
      <trkpt lat="45.87967" lon="4.84592">
        <ele>249.33415</ele>
        <time>2023-09-02T13:24:56.000Z</time>
      </trkpt>
      <trkpt lat="45.87972" lon="4.84595">
        <ele>248.88603</ele>
        <time>2023-09-02T13:24:57.000Z</time>
      </trkpt>
      <trkpt lat="45.87977" lon="4.84598">
        <ele>248.85347</ele>
        <time>2023-09-02T13:24:58.000Z</time>
      </trkpt>
      <trkpt lat="45.87982" lon="4.846">
        <ele>248.80061</ele>
        <time>2023-09-02T13:24:59.000Z</time>
      </trkpt>
      <trkpt lat="45.87986" lon="4.84604">
        <ele>248.95378</ele>
        <time>2023-09-02T13:25:00.000Z</time>
      </trkpt>
      <trkpt lat="45.87991" lon="4.84608">
        <ele>249.06851</ele>
        <time>2023-09-02T13:25:01.000Z</time>
      </trkpt>
      <trkpt lat="45.87996" lon="4.84612">
        <ele>249.15842</ele>
        <time>2023-09-02T13:25:02.000Z</time>
      </trkpt>
      <trkpt lat="45.88001" lon="4.84616">
        <ele>249.21944</ele>
        <time>2023-09-02T13:25:03.000Z</time>
      </trkpt>
      <trkpt lat="45.88007" lon="4.84619">
        <ele>249.31015</ele>
        <time>2023-09-02T13:25:04.000Z</time>
      </trkpt>
      <trkpt lat="45.88012" lon="4.84622">
        <ele>248.91472</ele>
        <time>2023-09-02T13:25:05.000Z</time>
      </trkpt>
      <trkpt lat="45.88017" lon="4.84626">
        <ele>248.49332</ele>
        <time>2023-09-02T13:25:06.000Z</time>
      </trkpt>
      <trkpt lat="45.88023" lon="4.8463">
        <ele>248.48483</ele>
        <time>2023-09-02T13:25:07.000Z</time>
      </trkpt>
      <trkpt lat="45.88027" lon="4.84633">
        <ele>248.5179</ele>
        <time>2023-09-02T13:25:08.000Z</time>
      </trkpt>
      <trkpt lat="45.8803" lon="4.84639">
        <ele>248.55991</ele>
        <time>2023-09-02T13:25:09.000Z</time>
      </trkpt>
      <trkpt lat="45.88034" lon="4.84644">
        <ele>248.64053</ele>
        <time>2023-09-02T13:25:10.000Z</time>
      </trkpt>
      <trkpt lat="45.88039" lon="4.8465">
        <ele>249.13785</ele>
        <time>2023-09-02T13:25:11.000Z</time>
      </trkpt>
      <trkpt lat="45.88043" lon="4.84656">
        <ele>249.64127</ele>
        <time>2023-09-02T13:25:12.000Z</time>
      </trkpt>
      <trkpt lat="45.88048" lon="4.84661">
        <ele>250.14157</ele>
        <time>2023-09-02T13:25:13.000Z</time>
      </trkpt>
      <trkpt lat="45.88052" lon="4.84665">
        <ele>250.77417</ele>
        <time>2023-09-02T13:25:14.000Z</time>
      </trkpt>
      <trkpt lat="45.88058" lon="4.8467">
        <ele>251.40292</ele>
        <time>2023-09-02T13:25:15.000Z</time>
      </trkpt>
      <trkpt lat="45.88063" lon="4.84673">
        <ele>252.0426</ele>
        <time>2023-09-02T13:25:16.000Z</time>
      </trkpt>
      <trkpt lat="45.88068" lon="4.84677">
        <ele>252.69661</ele>
        <time>2023-09-02T13:25:17.000Z</time>
      </trkpt>
      <trkpt lat="45.88073" lon="4.84682">
        <ele>252.91415</ele>
        <time>2023-09-02T13:25:18.000Z</time>
      </trkpt>
      <trkpt lat="45.88077" lon="4.84686">
        <ele>252.99304</ele>
        <time>2023-09-02T13:25:19.000Z</time>
      </trkpt>
      <trkpt lat="45.88081" lon="4.84691">
        <ele>253.12546</ele>
        <time>2023-09-02T13:25:20.000Z</time>
      </trkpt>
      <trkpt lat="45.88085" lon="4.84698">
        <ele>253.26721</ele>
        <time>2023-09-02T13:25:21.000Z</time>
      </trkpt>
      <trkpt lat="45.88088" lon="4.84704">
        <ele>253.358</ele>
        <time>2023-09-02T13:25:22.000Z</time>
      </trkpt>
      <trkpt lat="45.88091" lon="4.84711">
        <ele>253.44295</ele>
        <time>2023-09-02T13:25:23.000Z</time>
      </trkpt>
      <trkpt lat="45.88094" lon="4.84718">
        <ele>253.49309</ele>
        <time>2023-09-02T13:25:24.000Z</time>
      </trkpt>
      <trkpt lat="45.88099" lon="4.84724">
        <ele>254.00504</ele>
        <time>2023-09-02T13:25:25.000Z</time>
      </trkpt>
      <trkpt lat="45.88104" lon="4.84726">
        <ele>254.5416</ele>
        <time>2023-09-02T13:25:26.000Z</time>
      </trkpt>
      <trkpt lat="45.8811" lon="4.84726">
        <ele>255.08481</ele>
        <time>2023-09-02T13:25:27.000Z</time>
      </trkpt>
      <trkpt lat="45.88115" lon="4.84726">
        <ele>255.65396</ele>
        <time>2023-09-02T13:25:28.000Z</time>
      </trkpt>
      <trkpt lat="45.88121" lon="4.84728">
        <ele>256.26288</ele>
        <time>2023-09-02T13:25:29.000Z</time>
      </trkpt>
      <trkpt lat="45.88126" lon="4.84731">
        <ele>256.84488</ele>
        <time>2023-09-02T13:25:30.000Z</time>
      </trkpt>
      <trkpt lat="45.88131" lon="4.84734">
        <ele>256.909</ele>
        <time>2023-09-02T13:25:31.000Z</time>
      </trkpt>
      <trkpt lat="45.88136" lon="4.84738">
        <ele>256.97708</ele>
        <time>2023-09-02T13:25:32.000Z</time>
      </trkpt>
      <trkpt lat="45.88141" lon="4.84742">
        <ele>257.05878</ele>
        <time>2023-09-02T13:25:33.000Z</time>
      </trkpt>
      <trkpt lat="45.88146" lon="4.84745">
        <ele>257.00299</ele>
        <time>2023-09-02T13:25:34.000Z</time>
      </trkpt>
      <trkpt lat="45.88151" lon="4.84749">
        <ele>256.96945</ele>
        <time>2023-09-02T13:25:35.000Z</time>
      </trkpt>
      <trkpt lat="45.88156" lon="4.84754">
        <ele>256.92136</ele>
        <time>2023-09-02T13:25:36.000Z</time>
      </trkpt>
      <trkpt lat="45.88161" lon="4.84758">
        <ele>256.88922</ele>
        <time>2023-09-02T13:25:37.000Z</time>
      </trkpt>
      <trkpt lat="45.88166" lon="4.84762">
        <ele>256.87878</ele>
        <time>2023-09-02T13:25:38.000Z</time>
      </trkpt>
      <trkpt lat="45.88171" lon="4.84766">
        <ele>256.91129</ele>
        <time>2023-09-02T13:25:39.000Z</time>
      </trkpt>
      <trkpt lat="45.88177" lon="4.84768">
        <ele>256.92328</ele>
        <time>2023-09-02T13:25:40.000Z</time>
      </trkpt>
      <trkpt lat="45.88182" lon="4.84772">
        <ele>256.93625</ele>
        <time>2023-09-02T13:25:41.000Z</time>
      </trkpt>
      <trkpt lat="45.88187" lon="4.84775">
        <ele>256.99826</ele>
        <time>2023-09-02T13:25:42.000Z</time>
      </trkpt>
      <trkpt lat="45.88192" lon="4.84778">
        <ele>257.09097</ele>
        <time>2023-09-02T13:25:43.000Z</time>
      </trkpt>
      <trkpt lat="45.88197" lon="4.84782">
        <ele>257.20511</ele>
        <time>2023-09-02T13:25:44.000Z</time>
      </trkpt>
      <trkpt lat="45.88202" lon="4.84786">
        <ele>257.35785</ele>
        <time>2023-09-02T13:25:45.000Z</time>
      </trkpt>
      <trkpt lat="45.88207" lon="4.84789">
        <ele>257.48712</ele>
        <time>2023-09-02T13:25:46.000Z</time>
      </trkpt>
      <trkpt lat="45.88212" lon="4.84792">
        <ele>257.60919</ele>
        <time>2023-09-02T13:25:47.000Z</time>
      </trkpt>
      <trkpt lat="45.88217" lon="4.84796">
        <ele>257.72162</ele>
        <time>2023-09-02T13:25:48.000Z</time>
      </trkpt>
      <trkpt lat="45.88222" lon="4.84801">
        <ele>257.8306</ele>
        <time>2023-09-02T13:25:49.000Z</time>
      </trkpt>
      <trkpt lat="45.88227" lon="4.84804">
        <ele>257.9444</ele>
        <time>2023-09-02T13:25:50.000Z</time>
      </trkpt>
      <trkpt lat="45.88231" lon="4.84807">
        <ele>258.07971</ele>
        <time>2023-09-02T13:25:51.000Z</time>
      </trkpt>
      <trkpt lat="45.88236" lon="4.84811">
        <ele>258.20746</ele>
        <time>2023-09-02T13:25:52.000Z</time>
      </trkpt>
      <trkpt lat="45.88242" lon="4.84815">
        <ele>258.30038</ele>
        <time>2023-09-02T13:25:53.000Z</time>
      </trkpt>
      <trkpt lat="45.88247" lon="4.84819">
        <ele>258.42252</ele>
        <time>2023-09-02T13:25:54.000Z</time>
      </trkpt>
      <trkpt lat="45.88252" lon="4.84823">
        <ele>258.4834</ele>
        <time>2023-09-02T13:25:55.000Z</time>
      </trkpt>
      <trkpt lat="45.88258" lon="4.84826">
        <ele>258.54739</ele>
        <time>2023-09-02T13:25:56.000Z</time>
      </trkpt>
      <trkpt lat="45.88263" lon="4.84828">
        <ele>258.56403</ele>
        <time>2023-09-02T13:25:57.000Z</time>
      </trkpt>
      <trkpt lat="45.88268" lon="4.84832">
        <ele>258.56857</ele>
        <time>2023-09-02T13:25:58.000Z</time>
      </trkpt>
      <trkpt lat="45.88273" lon="4.84836">
        <ele>258.69257</ele>
        <time>2023-09-02T13:25:59.000Z</time>
      </trkpt>
      <trkpt lat="45.88278" lon="4.84839">
        <ele>258.68634</ele>
        <time>2023-09-02T13:26:00.000Z</time>
      </trkpt>
      <trkpt lat="45.88283" lon="4.84843">
        <ele>258.67499</ele>
        <time>2023-09-02T13:26:01.000Z</time>
      </trkpt>
      <trkpt lat="45.88288" lon="4.84846">
        <ele>258.65411</ele>
        <time>2023-09-02T13:26:02.000Z</time>
      </trkpt>
      <trkpt lat="45.88293" lon="4.8485">
        <ele>258.62814</ele>
        <time>2023-09-02T13:26:03.000Z</time>
      </trkpt>
      <trkpt lat="45.88298" lon="4.84854">
        <ele>258.61316</ele>
        <time>2023-09-02T13:26:04.000Z</time>
      </trkpt>
      <trkpt lat="45.88304" lon="4.84858">
        <ele>258.61328</ele>
        <time>2023-09-02T13:26:05.000Z</time>
      </trkpt>
      <trkpt lat="45.88309" lon="4.84861">
        <ele>258.62299</ele>
        <time>2023-09-02T13:26:06.000Z</time>
      </trkpt>
      <trkpt lat="45.88314" lon="4.84864">
        <ele>258.6333</ele>
        <time>2023-09-02T13:26:07.000Z</time>
      </trkpt>
      <trkpt lat="45.8832" lon="4.84868">
        <ele>258.66467</ele>
        <time>2023-09-02T13:26:08.000Z</time>
      </trkpt>
      <trkpt lat="45.88325" lon="4.84871">
        <ele>258.69305</ele>
        <time>2023-09-02T13:26:09.000Z</time>
      </trkpt>
      <trkpt lat="45.88331" lon="4.84874">
        <ele>258.73492</ele>
        <time>2023-09-02T13:26:10.000Z</time>
      </trkpt>
      <trkpt lat="45.88336" lon="4.84877">
        <ele>258.77927</ele>
        <time>2023-09-02T13:26:11.000Z</time>
      </trkpt>
      <trkpt lat="45.88341" lon="4.8488">
        <ele>258.83749</ele>
        <time>2023-09-02T13:26:12.000Z</time>
      </trkpt>
      <trkpt lat="45.88346" lon="4.84884">
        <ele>258.90747</ele>
        <time>2023-09-02T13:26:13.000Z</time>
      </trkpt>
      <trkpt lat="45.88352" lon="4.84887">
        <ele>258.98077</ele>
        <time>2023-09-02T13:26:14.000Z</time>
      </trkpt>
      <trkpt lat="45.88357" lon="4.84891">
        <ele>259.06787</ele>
        <time>2023-09-02T13:26:15.000Z</time>
      </trkpt>
      <trkpt lat="45.88361" lon="4.84894">
        <ele>259.14951</ele>
        <time>2023-09-02T13:26:16.000Z</time>
      </trkpt>
      <trkpt lat="45.88366" lon="4.84898">
        <ele>259.21915</ele>
        <time>2023-09-02T13:26:17.000Z</time>
      </trkpt>
      <trkpt lat="45.88372" lon="4.84901">
        <ele>259.30133</ele>
        <time>2023-09-02T13:26:18.000Z</time>
      </trkpt>
      <trkpt lat="45.88377" lon="4.84904">
        <ele>259.36292</ele>
        <time>2023-09-02T13:26:19.000Z</time>
      </trkpt>
      <trkpt lat="45.88382" lon="4.84907">
        <ele>259.51544</ele>
        <time>2023-09-02T13:26:20.000Z</time>
      </trkpt>
      <trkpt lat="45.88387" lon="4.8491">
        <ele>259.68427</ele>
        <time>2023-09-02T13:26:21.000Z</time>
      </trkpt>
      <trkpt lat="45.88391" lon="4.84915">
        <ele>259.84888</ele>
        <time>2023-09-02T13:26:22.000Z</time>
      </trkpt>
      <trkpt lat="45.88395" lon="4.84919">
        <ele>260.00644</ele>
        <time>2023-09-02T13:26:23.000Z</time>
      </trkpt>
      <trkpt lat="45.88399" lon="4.84924">
        <ele>260.16791</ele>
        <time>2023-09-02T13:26:24.000Z</time>
      </trkpt>
      <trkpt lat="45.88404" lon="4.84927">
        <ele>260.29788</ele>
        <time>2023-09-02T13:26:25.000Z</time>
      </trkpt>
      <trkpt lat="45.88409" lon="4.8493">
        <ele>260.43243</ele>
        <time>2023-09-02T13:26:26.000Z</time>
      </trkpt>
      <trkpt lat="45.88414" lon="4.84933">
        <ele>260.55331</ele>
        <time>2023-09-02T13:26:27.000Z</time>
      </trkpt>
      <trkpt lat="45.88419" lon="4.84936">
        <ele>260.64941</ele>
        <time>2023-09-02T13:26:28.000Z</time>
      </trkpt>
      <trkpt lat="45.88424" lon="4.84939">
        <ele>260.73111</ele>
        <time>2023-09-02T13:26:29.000Z</time>
      </trkpt>
      <trkpt lat="45.88429" lon="4.84943">
        <ele>260.84396</ele>
        <time>2023-09-02T13:26:30.000Z</time>
      </trkpt>
      <trkpt lat="45.88434" lon="4.84947">
        <ele>260.95761</ele>
        <time>2023-09-02T13:26:31.000Z</time>
      </trkpt>
      <trkpt lat="45.88438" lon="4.84951">
        <ele>261.05957</ele>
        <time>2023-09-02T13:26:32.000Z</time>
      </trkpt>
      <trkpt lat="45.88444" lon="4.84953">
        <ele>261.1026</ele>
        <time>2023-09-02T13:26:33.000Z</time>
      </trkpt>
      <trkpt lat="45.88449" lon="4.84957">
        <ele>261.13989</ele>
        <time>2023-09-02T13:26:34.000Z</time>
      </trkpt>
      <trkpt lat="45.88454" lon="4.84961">
        <ele>261.17096</ele>
        <time>2023-09-02T13:26:35.000Z</time>
      </trkpt>
      <trkpt lat="45.88459" lon="4.84964">
        <ele>261.20615</ele>
        <time>2023-09-02T13:26:36.000Z</time>
      </trkpt>
      <trkpt lat="45.88463" lon="4.84967">
        <ele>261.27335</ele>
        <time>2023-09-02T13:26:37.000Z</time>
      </trkpt>
      <trkpt lat="45.88469" lon="4.8497">
        <ele>261.33243</ele>
        <time>2023-09-02T13:26:38.000Z</time>
      </trkpt>
      <trkpt lat="45.88474" lon="4.84973">
        <ele>261.40588</ele>
        <time>2023-09-02T13:26:39.000Z</time>
      </trkpt>
      <trkpt lat="45.88479" lon="4.84977">
        <ele>261.53864</ele>
        <time>2023-09-02T13:26:40.000Z</time>
      </trkpt>
      <trkpt lat="45.88483" lon="4.8498">
        <ele>261.63513</ele>
        <time>2023-09-02T13:26:41.000Z</time>
      </trkpt>
      <trkpt lat="45.88489" lon="4.84984">
        <ele>261.75937</ele>
        <time>2023-09-02T13:26:42.000Z</time>
      </trkpt>
      <trkpt lat="45.88494" lon="4.84988">
        <ele>261.89725</ele>
        <time>2023-09-02T13:26:43.000Z</time>
      </trkpt>
      <trkpt lat="45.88499" lon="4.84992">
        <ele>262.03912</ele>
        <time>2023-09-02T13:26:44.000Z</time>
      </trkpt>
      <trkpt lat="45.88503" lon="4.84995">
        <ele>262.15884</ele>
        <time>2023-09-02T13:26:45.000Z</time>
      </trkpt>
      <trkpt lat="45.88508" lon="4.84999">
        <ele>262.32404</ele>
        <time>2023-09-02T13:26:46.000Z</time>
      </trkpt>
      <trkpt lat="45.88514" lon="4.85002">
        <ele>262.51349</ele>
        <time>2023-09-02T13:26:47.000Z</time>
      </trkpt>
      <trkpt lat="45.88519" lon="4.85006">
        <ele>262.72592</ele>
        <time>2023-09-02T13:26:48.000Z</time>
      </trkpt>
      <trkpt lat="45.88524" lon="4.85009">
        <ele>262.91074</ele>
        <time>2023-09-02T13:26:49.000Z</time>
      </trkpt>
      <trkpt lat="45.88529" lon="4.85013">
        <ele>263.03558</ele>
        <time>2023-09-02T13:26:50.000Z</time>
      </trkpt>
      <trkpt lat="45.88534" lon="4.85017">
        <ele>263.16425</ele>
        <time>2023-09-02T13:26:51.000Z</time>
      </trkpt>
      <trkpt lat="45.8854" lon="4.8502">
        <ele>263.31494</ele>
        <time>2023-09-02T13:26:52.000Z</time>
      </trkpt>
      <trkpt lat="45.88545" lon="4.85024">
        <ele>263.52423</ele>
        <time>2023-09-02T13:26:53.000Z</time>
      </trkpt>
      <trkpt lat="45.8855" lon="4.85027">
        <ele>263.72345</ele>
        <time>2023-09-02T13:26:54.000Z</time>
      </trkpt>
      <trkpt lat="45.88556" lon="4.85031">
        <ele>263.8699</ele>
        <time>2023-09-02T13:26:55.000Z</time>
      </trkpt>
      <trkpt lat="45.88563" lon="4.85032">
        <ele>264.03574</ele>
        <time>2023-09-02T13:26:56.000Z</time>
      </trkpt>
      <trkpt lat="45.88568" lon="4.85033">
        <ele>264.15735</ele>
        <time>2023-09-02T13:26:57.000Z</time>
      </trkpt>
      <trkpt lat="45.88575" lon="4.85034">
        <ele>264.23819</ele>
        <time>2023-09-02T13:26:58.000Z</time>
      </trkpt>
      <trkpt lat="45.88581" lon="4.85036">
        <ele>264.29465</ele>
        <time>2023-09-02T13:26:59.000Z</time>
      </trkpt>
      <trkpt lat="45.88587" lon="4.85037">
        <ele>264.30539</ele>
        <time>2023-09-02T13:27:00.000Z</time>
      </trkpt>
      <trkpt lat="45.88592" lon="4.85038">
        <ele>264.33408</ele>
        <time>2023-09-02T13:27:01.000Z</time>
      </trkpt>
      <trkpt lat="45.88598" lon="4.85038">
        <ele>264.35086</ele>
        <time>2023-09-02T13:27:02.000Z</time>
      </trkpt>
      <trkpt lat="45.88604" lon="4.8504">
        <ele>264.35312</ele>
        <time>2023-09-02T13:27:03.000Z</time>
      </trkpt>
      <trkpt lat="45.8861" lon="4.8504">
        <ele>264.34976</ele>
        <time>2023-09-02T13:27:04.000Z</time>
      </trkpt>
      <trkpt lat="45.88617" lon="4.8504">
        <ele>264.37427</ele>
        <time>2023-09-02T13:27:05.000Z</time>
      </trkpt>
      <trkpt lat="45.88623" lon="4.8504">
        <ele>264.34845</ele>
        <time>2023-09-02T13:27:06.000Z</time>
      </trkpt>
      <trkpt lat="45.88629" lon="4.85041">
        <ele>264.31088</ele>
        <time>2023-09-02T13:27:07.000Z</time>
      </trkpt>
      <trkpt lat="45.88635" lon="4.85041">
        <ele>264.27856</ele>
        <time>2023-09-02T13:27:08.000Z</time>
      </trkpt>
      <trkpt lat="45.88641" lon="4.85042">
        <ele>264.2728</ele>
        <time>2023-09-02T13:27:09.000Z</time>
      </trkpt>
      <trkpt lat="45.88647" lon="4.85043">
        <ele>264.30341</ele>
        <time>2023-09-02T13:27:10.000Z</time>
      </trkpt>
      <trkpt lat="45.88653" lon="4.85042">
        <ele>264.30841</ele>
        <time>2023-09-02T13:27:11.000Z</time>
      </trkpt>
      <trkpt lat="45.88659" lon="4.85044">
        <ele>264.27841</ele>
        <time>2023-09-02T13:27:12.000Z</time>
      </trkpt>
      <trkpt lat="45.88665" lon="4.85045">
        <ele>264.22452</ele>
        <time>2023-09-02T13:27:13.000Z</time>
      </trkpt>
      <trkpt lat="45.88671" lon="4.85046">
        <ele>264.16397</ele>
        <time>2023-09-02T13:27:14.000Z</time>
      </trkpt>
      <trkpt lat="45.88677" lon="4.85048">
        <ele>264.15396</ele>
        <time>2023-09-02T13:27:15.000Z</time>
      </trkpt>
      <trkpt lat="45.88682" lon="4.85049">
        <ele>264.10098</ele>
        <time>2023-09-02T13:27:16.000Z</time>
      </trkpt>
      <trkpt lat="45.88688" lon="4.85051">
        <ele>264.08273</ele>
        <time>2023-09-02T13:27:17.000Z</time>
      </trkpt>
      <trkpt lat="45.88694" lon="4.85053">
        <ele>264.17618</ele>
        <time>2023-09-02T13:27:18.000Z</time>
      </trkpt>
      <trkpt lat="45.88699" lon="4.85054">
        <ele>264.26569</ele>
        <time>2023-09-02T13:27:19.000Z</time>
      </trkpt>
      <trkpt lat="45.88705" lon="4.85057">
        <ele>264.34906</ele>
        <time>2023-09-02T13:27:20.000Z</time>
      </trkpt>
      <trkpt lat="45.8871" lon="4.8506">
        <ele>264.45355</ele>
        <time>2023-09-02T13:27:21.000Z</time>
      </trkpt>
      <trkpt lat="45.88716" lon="4.85064">
        <ele>264.59451</ele>
        <time>2023-09-02T13:27:22.000Z</time>
      </trkpt>
      <trkpt lat="45.88721" lon="4.85066">
        <ele>264.75323</ele>
        <time>2023-09-02T13:27:23.000Z</time>
      </trkpt>
      <trkpt lat="45.88727" lon="4.8507">
        <ele>264.90134</ele>
        <time>2023-09-02T13:27:24.000Z</time>
      </trkpt>
      <trkpt lat="45.88732" lon="4.85073">
        <ele>265.065</ele>
        <time>2023-09-02T13:27:25.000Z</time>
      </trkpt>
      <trkpt lat="45.88736" lon="4.85076">
        <ele>265.21857</ele>
        <time>2023-09-02T13:27:26.000Z</time>
      </trkpt>
      <trkpt lat="45.88741" lon="4.8508">
        <ele>265.36871</ele>
        <time>2023-09-02T13:27:27.000Z</time>
      </trkpt>
      <trkpt lat="45.88746" lon="4.85083">
        <ele>265.49899</ele>
        <time>2023-09-02T13:27:28.000Z</time>
      </trkpt>
      <trkpt lat="45.88751" lon="4.85087">
        <ele>265.63339</ele>
        <time>2023-09-02T13:27:29.000Z</time>
      </trkpt>
      <trkpt lat="45.88756" lon="4.85092">
        <ele>265.74164</ele>
        <time>2023-09-02T13:27:30.000Z</time>
      </trkpt>
      <trkpt lat="45.88761" lon="4.85096">
        <ele>265.86484</ele>
        <time>2023-09-02T13:27:31.000Z</time>
      </trkpt>
      <trkpt lat="45.88766" lon="4.85099">
        <ele>266.03061</ele>
        <time>2023-09-02T13:27:32.000Z</time>
      </trkpt>
      <trkpt lat="45.8877" lon="4.85102">
        <ele>266.22418</ele>
        <time>2023-09-02T13:27:33.000Z</time>
      </trkpt>
      <trkpt lat="45.88775" lon="4.85107">
        <ele>266.4281</ele>
        <time>2023-09-02T13:27:34.000Z</time>
      </trkpt>
      <trkpt lat="45.8878" lon="4.8511">
        <ele>266.63376</ele>
        <time>2023-09-02T13:27:35.000Z</time>
      </trkpt>
      <trkpt lat="45.88785" lon="4.85113">
        <ele>266.85001</ele>
        <time>2023-09-02T13:27:36.000Z</time>
      </trkpt>
      <trkpt lat="45.8879" lon="4.85117">
        <ele>267.04782</ele>
        <time>2023-09-02T13:27:37.000Z</time>
      </trkpt>
      <trkpt lat="45.88795" lon="4.8512">
        <ele>267.15912</ele>
        <time>2023-09-02T13:27:38.000Z</time>
      </trkpt>
      <trkpt lat="45.888" lon="4.85124">
        <ele>267.30844</ele>
        <time>2023-09-02T13:27:39.000Z</time>
      </trkpt>
      <trkpt lat="45.88804" lon="4.85128">
        <ele>267.46307</ele>
        <time>2023-09-02T13:27:40.000Z</time>
      </trkpt>
      <trkpt lat="45.88809" lon="4.85131">
        <ele>267.58865</ele>
        <time>2023-09-02T13:27:41.000Z</time>
      </trkpt>
      <trkpt lat="45.88814" lon="4.85134">
        <ele>267.66779</ele>
        <time>2023-09-02T13:27:42.000Z</time>
      </trkpt>
      <trkpt lat="45.88819" lon="4.85138">
        <ele>267.76398</ele>
        <time>2023-09-02T13:27:43.000Z</time>
      </trkpt>
      <trkpt lat="45.88823" lon="4.85141">
        <ele>267.82294</ele>
        <time>2023-09-02T13:27:44.000Z</time>
      </trkpt>
      <trkpt lat="45.88828" lon="4.85144">
        <ele>267.8797</ele>
        <time>2023-09-02T13:27:45.000Z</time>
      </trkpt>
      <trkpt lat="45.88832" lon="4.85147">
        <ele>267.95856</ele>
        <time>2023-09-02T13:27:46.000Z</time>
      </trkpt>
      <trkpt lat="45.88836" lon="4.85149">
        <ele>267.9856</ele>
        <time>2023-09-02T13:27:47.000Z</time>
      </trkpt>
      <trkpt lat="45.8884" lon="4.85153">
        <ele>267.99927</ele>
        <time>2023-09-02T13:27:48.000Z</time>
      </trkpt>
      <trkpt lat="45.88844" lon="4.85154">
        <ele>267.99374</ele>
        <time>2023-09-02T13:27:49.000Z</time>
      </trkpt>
      <trkpt lat="45.88848" lon="4.85155">
        <ele>268.00409</ele>
        <time>2023-09-02T13:27:50.000Z</time>
      </trkpt>
      <trkpt lat="45.88852" lon="4.85158">
        <ele>268.15762</ele>
        <time>2023-09-02T13:27:51.000Z</time>
      </trkpt>
      <trkpt lat="45.88856" lon="4.85162">
        <ele>268.25543</ele>
        <time>2023-09-02T13:27:52.000Z</time>
      </trkpt>
      <trkpt lat="45.8886" lon="4.85165">
        <ele>268.32584</ele>
        <time>2023-09-02T13:27:53.000Z</time>
      </trkpt>
      <trkpt lat="45.88864" lon="4.85169">
        <ele>268.41888</ele>
        <time>2023-09-02T13:27:54.000Z</time>
      </trkpt>
      <trkpt lat="45.88869" lon="4.85173">
        <ele>268.5275</ele>
        <time>2023-09-02T13:27:55.000Z</time>
      </trkpt>
      <trkpt lat="45.88873" lon="4.85176">
        <ele>268.66364</ele>
        <time>2023-09-02T13:27:56.000Z</time>
      </trkpt>
      <trkpt lat="45.88878" lon="4.85179">
        <ele>268.76944</ele>
        <time>2023-09-02T13:27:57.000Z</time>
      </trkpt>
      <trkpt lat="45.88882" lon="4.85182">
        <ele>268.90988</ele>
        <time>2023-09-02T13:27:58.000Z</time>
      </trkpt>
      <trkpt lat="45.88887" lon="4.85185">
        <ele>269.03433</ele>
        <time>2023-09-02T13:27:59.000Z</time>
      </trkpt>
      <trkpt lat="45.8889" lon="4.85188">
        <ele>269.15598</ele>
        <time>2023-09-02T13:28:00.000Z</time>
      </trkpt>
      <trkpt lat="45.88895" lon="4.85192">
        <ele>269.2757</ele>
        <time>2023-09-02T13:28:01.000Z</time>
      </trkpt>
      <trkpt lat="45.88899" lon="4.85196">
        <ele>269.40021</ele>
        <time>2023-09-02T13:28:02.000Z</time>
      </trkpt>
      <trkpt lat="45.88903" lon="4.852">
        <ele>269.50497</ele>
        <time>2023-09-02T13:28:03.000Z</time>
      </trkpt>
      <trkpt lat="45.88908" lon="4.85203">
        <ele>269.58154</ele>
        <time>2023-09-02T13:28:04.000Z</time>
      </trkpt>
      <trkpt lat="45.88913" lon="4.85206">
        <ele>269.62177</ele>
        <time>2023-09-02T13:28:05.000Z</time>
      </trkpt>
      <trkpt lat="45.88917" lon="4.8521">
        <ele>269.65952</ele>
        <time>2023-09-02T13:28:06.000Z</time>
      </trkpt>
      <trkpt lat="45.8892" lon="4.85214">
        <ele>269.74683</ele>
        <time>2023-09-02T13:28:07.000Z</time>
      </trkpt>
      <trkpt lat="45.88925" lon="4.85218">
        <ele>269.99042</ele>
        <time>2023-09-02T13:28:08.000Z</time>
      </trkpt>
      <trkpt lat="45.88929" lon="4.85223">
        <ele>270.21173</ele>
        <time>2023-09-02T13:28:09.000Z</time>
      </trkpt>
      <trkpt lat="45.88932" lon="4.85227">
        <ele>270.44235</ele>
        <time>2023-09-02T13:28:10.000Z</time>
      </trkpt>
      <trkpt lat="45.88936" lon="4.85231">
        <ele>270.51495</ele>
        <time>2023-09-02T13:28:11.000Z</time>
      </trkpt>
      <trkpt lat="45.8894" lon="4.85236">
        <ele>270.60306</ele>
        <time>2023-09-02T13:28:12.000Z</time>
      </trkpt>
      <trkpt lat="45.88944" lon="4.85241">
        <ele>270.71039</ele>
        <time>2023-09-02T13:28:13.000Z</time>
      </trkpt>
      <trkpt lat="45.88948" lon="4.85245">
        <ele>270.76602</ele>
        <time>2023-09-02T13:28:14.000Z</time>
      </trkpt>
      <trkpt lat="45.88951" lon="4.85249">
        <ele>270.81824</ele>
        <time>2023-09-02T13:28:15.000Z</time>
      </trkpt>
      <trkpt lat="45.88955" lon="4.85254">
        <ele>270.8475</ele>
        <time>2023-09-02T13:28:16.000Z</time>
      </trkpt>
      <trkpt lat="45.88958" lon="4.8526">
        <ele>270.84033</ele>
        <time>2023-09-02T13:28:17.000Z</time>
      </trkpt>
      <trkpt lat="45.88961" lon="4.85266">
        <ele>270.81561</ele>
        <time>2023-09-02T13:28:18.000Z</time>
      </trkpt>
      <trkpt lat="45.88964" lon="4.85272">
        <ele>270.78088</ele>
        <time>2023-09-02T13:28:19.000Z</time>
      </trkpt>
      <trkpt lat="45.88967" lon="4.85278">
        <ele>270.75919</ele>
        <time>2023-09-02T13:28:20.000Z</time>
      </trkpt>
      <trkpt lat="45.8897" lon="4.85284">
        <ele>270.70172</ele>
        <time>2023-09-02T13:28:21.000Z</time>
      </trkpt>
      <trkpt lat="45.88973" lon="4.8529">
        <ele>270.65158</ele>
        <time>2023-09-02T13:28:22.000Z</time>
      </trkpt>
      <trkpt lat="45.88976" lon="4.85297">
        <ele>270.74615</ele>
        <time>2023-09-02T13:28:23.000Z</time>
      </trkpt>
      <trkpt lat="45.88978" lon="4.85304">
        <ele>270.88525</ele>
        <time>2023-09-02T13:28:24.000Z</time>
      </trkpt>
      <trkpt lat="45.88981" lon="4.8531">
        <ele>271.06476</ele>
        <time>2023-09-02T13:28:25.000Z</time>
      </trkpt>
      <trkpt lat="45.88982" lon="4.85317">
        <ele>271.24872</ele>
        <time>2023-09-02T13:28:26.000Z</time>
      </trkpt>
      <trkpt lat="45.88984" lon="4.85324">
        <ele>271.4137</ele>
        <time>2023-09-02T13:28:27.000Z</time>
      </trkpt>
      <trkpt lat="45.88987" lon="4.85328">
        <ele>271.41461</ele>
        <time>2023-09-02T13:28:28.000Z</time>
      </trkpt>
      <trkpt lat="45.8899" lon="4.85333">
        <ele>271.4491</ele>
        <time>2023-09-02T13:28:29.000Z</time>
      </trkpt>
      <trkpt lat="45.88991" lon="4.8534">
        <ele>271.44244</ele>
        <time>2023-09-02T13:28:30.000Z</time>
      </trkpt>
      <trkpt lat="45.88993" lon="4.85347">
        <ele>271.45157</ele>
        <time>2023-09-02T13:28:31.000Z</time>
      </trkpt>
      <trkpt lat="45.88995" lon="4.85353">
        <ele>271.47525</ele>
        <time>2023-09-02T13:28:32.000Z</time>
      </trkpt>
      <trkpt lat="45.88996" lon="4.85359">
        <ele>271.45691</ele>
        <time>2023-09-02T13:28:33.000Z</time>
      </trkpt>
      <trkpt lat="45.88998" lon="4.85364">
        <ele>271.40912</ele>
        <time>2023-09-02T13:28:34.000Z</time>
      </trkpt>
      <trkpt lat="45.88999" lon="4.85369">
        <ele>271.50977</ele>
        <time>2023-09-02T13:28:35.000Z</time>
      </trkpt>
      <trkpt lat="45.89" lon="4.85373">
        <ele>271.57288</ele>
        <time>2023-09-02T13:28:36.000Z</time>
      </trkpt>
      <trkpt lat="45.89" lon="4.85376">
        <ele>271.67731</ele>
        <time>2023-09-02T13:28:37.000Z</time>
      </trkpt>
      <trkpt lat="45.89002" lon="4.85379">
        <ele>271.71851</ele>
        <time>2023-09-02T13:28:39.000Z</time>
      </trkpt>
      <trkpt lat="45.89003" lon="4.8538">
        <ele>271.70599</ele>
        <time>2023-09-02T13:28:54.000Z</time>
      </trkpt>
      <trkpt lat="45.89005" lon="4.85381">
        <ele>271.85077</ele>
        <time>2023-09-02T13:30:20.000Z</time>
      </trkpt>
      <trkpt lat="45.89008" lon="4.85385">
        <ele>272.05215</ele>
        <time>2023-09-02T13:30:22.000Z</time>
      </trkpt>
      <trkpt lat="45.8901" lon="4.85388">
        <ele>272.27396</ele>
        <time>2023-09-02T13:30:23.000Z</time>
      </trkpt>
      <trkpt lat="45.89013" lon="4.8539">
        <ele>272.33853</ele>
        <time>2023-09-02T13:30:24.000Z</time>
      </trkpt>
      <trkpt lat="45.89015" lon="4.85392">
        <ele>272.42291</ele>
        <time>2023-09-02T13:30:25.000Z</time>
      </trkpt>
      <trkpt lat="45.89016" lon="4.85395">
        <ele>272.49161</ele>
        <time>2023-09-02T13:30:26.000Z</time>
      </trkpt>
      <trkpt lat="45.89018" lon="4.85398">
        <ele>272.50986</ele>
        <time>2023-09-02T13:30:27.000Z</time>
      </trkpt>
      <trkpt lat="45.89019" lon="4.85401">
        <ele>272.5412</ele>
        <time>2023-09-02T13:30:28.000Z</time>
      </trkpt>
      <trkpt lat="45.8902" lon="4.85405">
        <ele>272.58081</ele>
        <time>2023-09-02T13:30:29.000Z</time>
      </trkpt>
      <trkpt lat="45.89021" lon="4.85408">
        <ele>272.65573</ele>
        <time>2023-09-02T13:30:30.000Z</time>
      </trkpt>
      <trkpt lat="45.89022" lon="4.85411">
        <ele>272.6777</ele>
        <time>2023-09-02T13:30:31.000Z</time>
      </trkpt>
      <trkpt lat="45.89025" lon="4.85413">
        <ele>272.71738</ele>
        <time>2023-09-02T13:30:33.000Z</time>
      </trkpt>
      <trkpt lat="45.89027" lon="4.85412">
        <ele>272.70035</ele>
        <time>2023-09-02T13:30:34.000Z</time>
      </trkpt>
      <trkpt lat="45.89028" lon="4.8541">
        <ele>272.7576</ele>
        <time>2023-09-02T13:30:35.000Z</time>
      </trkpt>
      <trkpt lat="45.89029" lon="4.85407">
        <ele>272.87231</ele>
        <time>2023-09-02T13:30:36.000Z</time>
      </trkpt>
      <trkpt lat="45.89031" lon="4.85404">
        <ele>272.87143</ele>
        <time>2023-09-02T13:30:37.000Z</time>
      </trkpt>
      <trkpt lat="45.89033" lon="4.85401">
        <ele>272.87851</ele>
        <time>2023-09-02T13:30:38.000Z</time>
      </trkpt>
      <trkpt lat="45.89035" lon="4.85397">
        <ele>272.90945</ele>
        <time>2023-09-02T13:30:39.000Z</time>
      </trkpt>
      <trkpt lat="45.89036" lon="4.85393">
        <ele>273.05786</ele>
        <time>2023-09-02T13:30:40.000Z</time>
      </trkpt>
      <trkpt lat="45.89038" lon="4.8539">
        <ele>273.23407</ele>
        <time>2023-09-02T13:30:41.000Z</time>
      </trkpt>
      <trkpt lat="45.8904" lon="4.85386">
        <ele>273.23395</ele>
        <time>2023-09-02T13:30:42.000Z</time>
      </trkpt>
      <trkpt lat="45.89041" lon="4.85382">
        <ele>273.20798</ele>
        <time>2023-09-02T13:30:43.000Z</time>
      </trkpt>
      <trkpt lat="45.89041" lon="4.85378">
        <ele>273.1142</ele>
        <time>2023-09-02T13:30:44.000Z</time>
      </trkpt>
      <trkpt lat="45.8904" lon="4.85373">
        <ele>273.01227</ele>
        <time>2023-09-02T13:30:45.000Z</time>
      </trkpt>
      <trkpt lat="45.89039" lon="4.85369">
        <ele>272.91302</ele>
        <time>2023-09-02T13:30:46.000Z</time>
      </trkpt>
      <trkpt lat="45.89037" lon="4.85365">
        <ele>272.81476</ele>
        <time>2023-09-02T13:30:47.000Z</time>
      </trkpt>
      <trkpt lat="45.89036" lon="4.8536">
        <ele>272.74817</ele>
        <time>2023-09-02T13:30:48.000Z</time>
      </trkpt>
      <trkpt lat="45.89035" lon="4.85355">
        <ele>272.75229</ele>
        <time>2023-09-02T13:30:49.000Z</time>
      </trkpt>
      <trkpt lat="45.89034" lon="4.8535">
        <ele>272.73273</ele>
        <time>2023-09-02T13:30:50.000Z</time>
      </trkpt>
      <trkpt lat="45.89034" lon="4.85346">
        <ele>272.75757</ele>
        <time>2023-09-02T13:30:51.000Z</time>
      </trkpt>
      <trkpt lat="45.89033" lon="4.85342">
        <ele>272.85623</ele>
        <time>2023-09-02T13:30:52.000Z</time>
      </trkpt>
      <trkpt lat="45.89032" lon="4.85338">
        <ele>272.92142</ele>
        <time>2023-09-02T13:30:53.000Z</time>
      </trkpt>
      <trkpt lat="45.89031" lon="4.85333">
        <ele>273.04227</ele>
        <time>2023-09-02T13:30:54.000Z</time>
      </trkpt>
      <trkpt lat="45.89031" lon="4.85329">
        <ele>273.06104</ele>
        <time>2023-09-02T13:30:55.000Z</time>
      </trkpt>
      <trkpt lat="45.8903" lon="4.85324">
        <ele>273.04071</ele>
        <time>2023-09-02T13:30:56.000Z</time>
      </trkpt>
      <trkpt lat="45.89029" lon="4.8532">
        <ele>272.9317</ele>
        <time>2023-09-02T13:30:57.000Z</time>
      </trkpt>
      <trkpt lat="45.89028" lon="4.85317">
        <ele>272.92096</ele>
        <time>2023-09-02T13:30:58.000Z</time>
      </trkpt>
      <trkpt lat="45.89027" lon="4.85313">
        <ele>273.21368</ele>
        <time>2023-09-02T13:30:59.000Z</time>
      </trkpt>
      <trkpt lat="45.89025" lon="4.85308">
        <ele>273.42523</ele>
        <time>2023-09-02T13:31:00.000Z</time>
      </trkpt>
      <trkpt lat="45.89024" lon="4.85304">
        <ele>273.71442</ele>
        <time>2023-09-02T13:31:01.000Z</time>
      </trkpt>
      <trkpt lat="45.89022" lon="4.853">
        <ele>273.91455</ele>
        <time>2023-09-02T13:31:02.000Z</time>
      </trkpt>
      <trkpt lat="45.8902" lon="4.85297">
        <ele>273.35675</ele>
        <time>2023-09-02T13:31:03.000Z</time>
      </trkpt>
      <trkpt lat="45.89019" lon="4.85293">
        <ele>272.89429</ele>
        <time>2023-09-02T13:31:04.000Z</time>
      </trkpt>
      <trkpt lat="45.89017" lon="4.85289">
        <ele>272.54123</ele>
        <time>2023-09-02T13:31:05.000Z</time>
      </trkpt>
      <trkpt lat="45.89016" lon="4.85285">
        <ele>272.18671</ele>
        <time>2023-09-02T13:31:06.000Z</time>
      </trkpt>
      <trkpt lat="45.89015" lon="4.8528">
        <ele>271.84909</ele>
        <time>2023-09-02T13:31:07.000Z</time>
      </trkpt>
      <trkpt lat="45.89013" lon="4.85276">
        <ele>271.51025</ele>
        <time>2023-09-02T13:31:08.000Z</time>
      </trkpt>
      <trkpt lat="45.89012" lon="4.85272">
        <ele>271.08624</ele>
        <time>2023-09-02T13:31:09.000Z</time>
      </trkpt>
      <trkpt lat="45.89011" lon="4.85268">
        <ele>270.73724</ele>
        <time>2023-09-02T13:31:10.000Z</time>
      </trkpt>
      <trkpt lat="45.8901" lon="4.85264">
        <ele>270.185</ele>
        <time>2023-09-02T13:31:11.000Z</time>
      </trkpt>
      <trkpt lat="45.89009" lon="4.8526">
        <ele>269.69632</ele>
        <time>2023-09-02T13:31:12.000Z</time>
      </trkpt>
      <trkpt lat="45.89008" lon="4.85256">
        <ele>269.26361</ele>
        <time>2023-09-02T13:31:13.000Z</time>
      </trkpt>
      <trkpt lat="45.89008" lon="4.85252">
        <ele>268.73541</ele>
        <time>2023-09-02T13:31:14.000Z</time>
      </trkpt>
      <trkpt lat="45.89007" lon="4.85248">
        <ele>268.31332</ele>
        <time>2023-09-02T13:31:15.000Z</time>
      </trkpt>
      <trkpt lat="45.89007" lon="4.85244">
        <ele>267.82666</ele>
        <time>2023-09-02T13:31:16.000Z</time>
      </trkpt>
      <trkpt lat="45.89006" lon="4.85242">
        <ele>267.2738</ele>
        <time>2023-09-02T13:31:17.000Z</time>
      </trkpt>
      <trkpt lat="45.89005" lon="4.85237">
        <ele>267.23862</ele>
        <time>2023-09-02T13:31:19.000Z</time>
      </trkpt>
      <trkpt lat="45.89004" lon="4.85234">
        <ele>266.91537</ele>
        <time>2023-09-02T13:31:20.000Z</time>
      </trkpt>
      <trkpt lat="45.89003" lon="4.8523">
        <ele>266.52762</ele>
        <time>2023-09-02T13:31:21.000Z</time>
      </trkpt>
      <trkpt lat="45.89002" lon="4.85228">
        <ele>266.19809</ele>
        <time>2023-09-02T13:31:22.000Z</time>
      </trkpt>
      <trkpt lat="45.89001" lon="4.85225">
        <ele>265.88641</ele>
        <time>2023-09-02T13:31:23.000Z</time>
      </trkpt>
      <trkpt lat="45.89" lon="4.85222">
        <ele>266.33533</ele>
        <time>2023-09-02T13:31:24.000Z</time>
      </trkpt>
      <trkpt lat="45.89" lon="4.85218">
        <ele>266.68155</ele>
        <time>2023-09-02T13:31:25.000Z</time>
      </trkpt>
      <trkpt lat="45.88999" lon="4.85215">
        <ele>266.9751</ele>
        <time>2023-09-02T13:31:26.000Z</time>
      </trkpt>
      <trkpt lat="45.88998" lon="4.85212">
        <ele>267.25632</ele>
        <time>2023-09-02T13:31:27.000Z</time>
      </trkpt>
      <trkpt lat="45.88997" lon="4.85209">
        <ele>267.56021</ele>
        <time>2023-09-02T13:31:28.000Z</time>
      </trkpt>
      <trkpt lat="45.88996" lon="4.85206">
        <ele>267.87509</ele>
        <time>2023-09-02T13:31:29.000Z</time>
      </trkpt>
      <trkpt lat="45.88995" lon="4.85204">
        <ele>268.21887</ele>
        <time>2023-09-02T13:31:30.000Z</time>
      </trkpt>
      <trkpt lat="45.88994" lon="4.852">
        <ele>268.62534</ele>
        <time>2023-09-02T13:31:31.000Z</time>
      </trkpt>
      <trkpt lat="45.88993" lon="4.85197">
        <ele>269.0723</ele>
        <time>2023-09-02T13:31:32.000Z</time>
      </trkpt>
      <trkpt lat="45.88992" lon="4.85194">
        <ele>269.34406</ele>
        <time>2023-09-02T13:31:33.000Z</time>
      </trkpt>
      <trkpt lat="45.88991" lon="4.85191">
        <ele>269.50247</ele>
        <time>2023-09-02T13:31:34.000Z</time>
      </trkpt>
      <trkpt lat="45.88989" lon="4.85188">
        <ele>269.88495</ele>
        <time>2023-09-02T13:31:35.000Z</time>
      </trkpt>
      <trkpt lat="45.88988" lon="4.85184">
        <ele>270.31549</ele>
        <time>2023-09-02T13:31:36.000Z</time>
      </trkpt>
      <trkpt lat="45.88987" lon="4.85181">
        <ele>270.96188</ele>
        <time>2023-09-02T13:31:37.000Z</time>
      </trkpt>
      <trkpt lat="45.88986" lon="4.85178">
        <ele>271.80737</ele>
        <time>2023-09-02T13:31:38.000Z</time>
      </trkpt>
      <trkpt lat="45.88984" lon="4.85175">
        <ele>272.07745</ele>
        <time>2023-09-02T13:31:39.000Z</time>
      </trkpt>
      <trkpt lat="45.88983" lon="4.85172">
        <ele>272.38104</ele>
        <time>2023-09-02T13:31:40.000Z</time>
      </trkpt>
      <trkpt lat="45.88981" lon="4.85169">
        <ele>272.87018</ele>
        <time>2023-09-02T13:31:41.000Z</time>
      </trkpt>
      <trkpt lat="45.8898" lon="4.85166">
        <ele>273.29996</ele>
        <time>2023-09-02T13:31:42.000Z</time>
      </trkpt>
      <trkpt lat="45.88979" lon="4.85163">
        <ele>273.91144</ele>
        <time>2023-09-02T13:31:43.000Z</time>
      </trkpt>
      <trkpt lat="45.88978" lon="4.85159">
        <ele>274.40533</ele>
        <time>2023-09-02T13:31:44.000Z</time>
      </trkpt>
      <trkpt lat="45.88976" lon="4.85156">
        <ele>274.88568</ele>
        <time>2023-09-02T13:31:45.000Z</time>
      </trkpt>
      <trkpt lat="45.88975" lon="4.85153">
        <ele>275.04608</ele>
        <time>2023-09-02T13:31:46.000Z</time>
      </trkpt>
      <trkpt lat="45.88974" lon="4.8515">
        <ele>275.20782</ele>
        <time>2023-09-02T13:31:47.000Z</time>
      </trkpt>
      <trkpt lat="45.88973" lon="4.85146">
        <ele>275.47223</ele>
        <time>2023-09-02T13:31:48.000Z</time>
      </trkpt>
      <trkpt lat="45.88971" lon="4.85143">
        <ele>275.81818</ele>
        <time>2023-09-02T13:31:49.000Z</time>
      </trkpt>
      <trkpt lat="45.8897" lon="4.8514">
        <ele>275.93063</ele>
        <time>2023-09-02T13:31:50.000Z</time>
      </trkpt>
      <trkpt lat="45.88969" lon="4.85138">
        <ele>276.41394</ele>
        <time>2023-09-02T13:31:51.000Z</time>
      </trkpt>
      <trkpt lat="45.88967" lon="4.85135">
        <ele>276.74689</ele>
        <time>2023-09-02T13:31:52.000Z</time>
      </trkpt>
      <trkpt lat="45.88965" lon="4.85132">
        <ele>277.22406</ele>
        <time>2023-09-02T13:31:53.000Z</time>
      </trkpt>
      <trkpt lat="45.88963" lon="4.85129">
        <ele>277.62909</ele>
        <time>2023-09-02T13:31:54.000Z</time>
      </trkpt>
      <trkpt lat="45.88961" lon="4.85126">
        <ele>277.94995</ele>
        <time>2023-09-02T13:31:55.000Z</time>
      </trkpt>
      <trkpt lat="45.88959" lon="4.85123">
        <ele>278.18793</ele>
        <time>2023-09-02T13:31:56.000Z</time>
      </trkpt>
      <trkpt lat="45.88957" lon="4.8512">
        <ele>278.15979</ele>
        <time>2023-09-02T13:31:57.000Z</time>
      </trkpt>
      <trkpt lat="45.88955" lon="4.85118">
        <ele>277.81012</ele>
        <time>2023-09-02T13:31:58.000Z</time>
      </trkpt>
      <trkpt lat="45.88953" lon="4.85114">
        <ele>277.242</ele>
        <time>2023-09-02T13:31:59.000Z</time>
      </trkpt>
      <trkpt lat="45.88952" lon="4.85111">
        <ele>276.70172</ele>
        <time>2023-09-02T13:32:00.000Z</time>
      </trkpt>
      <trkpt lat="45.8895" lon="4.85108">
        <ele>276.73093</ele>
        <time>2023-09-02T13:32:01.000Z</time>
      </trkpt>
      <trkpt lat="45.88949" lon="4.85104">
        <ele>276.69995</ele>
        <time>2023-09-02T13:32:02.000Z</time>
      </trkpt>
      <trkpt lat="45.88947" lon="4.851">
        <ele>276.63696</ele>
        <time>2023-09-02T13:32:03.000Z</time>
      </trkpt>
      <trkpt lat="45.88946" lon="4.85096">
        <ele>276.74225</ele>
        <time>2023-09-02T13:32:04.000Z</time>
      </trkpt>
      <trkpt lat="45.88946" lon="4.85092">
        <ele>277.00006</ele>
        <time>2023-09-02T13:32:05.000Z</time>
      </trkpt>
      <trkpt lat="45.88945" lon="4.85089">
        <ele>277.4967</ele>
        <time>2023-09-02T13:32:06.000Z</time>
      </trkpt>
      <trkpt lat="45.88944" lon="4.85085">
        <ele>277.86697</ele>
        <time>2023-09-02T13:32:07.000Z</time>
      </trkpt>
      <trkpt lat="45.88944" lon="4.85081">
        <ele>278.13754</ele>
        <time>2023-09-02T13:32:08.000Z</time>
      </trkpt>
      <trkpt lat="45.88944" lon="4.85078">
        <ele>278.26563</ele>
        <time>2023-09-02T13:32:09.000Z</time>
      </trkpt>
      <trkpt lat="45.88944" lon="4.85075">
        <ele>278.78766</ele>
        <time>2023-09-02T13:32:10.000Z</time>
      </trkpt>
      <trkpt lat="45.88944" lon="4.85071">
        <ele>278.5127</ele>
        <time>2023-09-02T13:32:11.000Z</time>
      </trkpt>
      <trkpt lat="45.88945" lon="4.85068">
        <ele>278.3736</ele>
        <time>2023-09-02T13:32:12.000Z</time>
      </trkpt>
      <trkpt lat="45.88947" lon="4.85063">
        <ele>278.24591</ele>
        <time>2023-09-02T13:32:13.000Z</time>
      </trkpt>
      <trkpt lat="45.88948" lon="4.8506">
        <ele>278.91653</ele>
        <time>2023-09-02T13:32:14.000Z</time>
      </trkpt>
      <trkpt lat="45.88949" lon="4.85056">
        <ele>279.42807</ele>
        <time>2023-09-02T13:32:15.000Z</time>
      </trkpt>
      <trkpt lat="45.8895" lon="4.85052">
        <ele>279.88074</ele>
        <time>2023-09-02T13:32:16.000Z</time>
      </trkpt>
      <trkpt lat="45.88951" lon="4.85048">
        <ele>280.45746</ele>
        <time>2023-09-02T13:32:17.000Z</time>
      </trkpt>
      <trkpt lat="45.88952" lon="4.85044">
        <ele>281.18106</ele>
        <time>2023-09-02T13:32:18.000Z</time>
      </trkpt>
      <trkpt lat="45.88952" lon="4.85041">
        <ele>281.43329</ele>
        <time>2023-09-02T13:32:19.000Z</time>
      </trkpt>
      <trkpt lat="45.88953" lon="4.85038">
        <ele>282.67514</ele>
        <time>2023-09-02T13:32:20.000Z</time>
      </trkpt>
      <trkpt lat="45.88954" lon="4.85035">
        <ele>283.27475</ele>
        <time>2023-09-02T13:32:21.000Z</time>
      </trkpt>
      <trkpt lat="45.88955" lon="4.85029">
        <ele>283.90588</ele>
        <time>2023-09-02T13:32:23.000Z</time>
      </trkpt>
      <trkpt lat="45.88956" lon="4.85026">
        <ele>284.50458</ele>
        <time>2023-09-02T13:32:24.000Z</time>
      </trkpt>
      <trkpt lat="45.88957" lon="4.85022">
        <ele>285.16513</ele>
        <time>2023-09-02T13:32:25.000Z</time>
      </trkpt>
      <trkpt lat="45.88959" lon="4.85019">
        <ele>285.67807</ele>
        <time>2023-09-02T13:32:26.000Z</time>
      </trkpt>
      <trkpt lat="45.8896" lon="4.85016">
        <ele>286.31464</ele>
        <time>2023-09-02T13:32:27.000Z</time>
      </trkpt>
      <trkpt lat="45.88961" lon="4.85013">
        <ele>287.09799</ele>
        <time>2023-09-02T13:32:28.000Z</time>
      </trkpt>
      <trkpt lat="45.88963" lon="4.8501">
        <ele>287.84317</ele>
        <time>2023-09-02T13:32:29.000Z</time>
      </trkpt>
      <trkpt lat="45.88964" lon="4.85006">
        <ele>288.60724</ele>
        <time>2023-09-02T13:32:30.000Z</time>
      </trkpt>
      <trkpt lat="45.88965" lon="4.85003">
        <ele>289.21301</ele>
        <time>2023-09-02T13:32:31.000Z</time>
      </trkpt>
      <trkpt lat="45.88966" lon="4.84999">
        <ele>290.09155</ele>
        <time>2023-09-02T13:32:32.000Z</time>
      </trkpt>
      <trkpt lat="45.88967" lon="4.84996">
        <ele>291.0199</ele>
        <time>2023-09-02T13:32:33.000Z</time>
      </trkpt>
      <trkpt lat="45.88968" lon="4.84993">
        <ele>291.92456</ele>
        <time>2023-09-02T13:32:34.000Z</time>
      </trkpt>
      <trkpt lat="45.88969" lon="4.84988">
        <ele>292.12433</ele>
        <time>2023-09-02T13:32:35.000Z</time>
      </trkpt>
      <trkpt lat="45.88971" lon="4.84984">
        <ele>292.41156</ele>
        <time>2023-09-02T13:32:36.000Z</time>
      </trkpt>
      <trkpt lat="45.88972" lon="4.84982">
        <ele>292.86948</ele>
        <time>2023-09-02T13:32:37.000Z</time>
      </trkpt>
      <trkpt lat="45.88974" lon="4.84978">
        <ele>293.44427</ele>
        <time>2023-09-02T13:32:39.000Z</time>
      </trkpt>
      <trkpt lat="45.88976" lon="4.84977">
        <ele>293.69177</ele>
        <time>2023-09-02T13:32:41.000Z</time>
      </trkpt>
      <trkpt lat="45.88979" lon="4.84978">
        <ele>294.45132</ele>
        <time>2023-09-02T13:32:43.000Z</time>
      </trkpt>
      <trkpt lat="45.88981" lon="4.84979">
        <ele>294.15997</ele>
        <time>2023-09-02T13:32:45.000Z</time>
      </trkpt>
      <trkpt lat="45.88985" lon="4.84981">
        <ele>293.85587</ele>
        <time>2023-09-02T13:32:47.000Z</time>
      </trkpt>
      <trkpt lat="45.88986" lon="4.84984">
        <ele>293.96661</ele>
        <time>2023-09-02T13:32:49.000Z</time>
      </trkpt>
      <trkpt lat="45.88983" lon="4.84985">
        <ele>294.90237</ele>
        <time>2023-09-02T13:32:52.000Z</time>
      </trkpt>
      <trkpt lat="45.88981" lon="4.84982">
        <ele>295.74084</ele>
        <time>2023-09-02T13:32:53.000Z</time>
      </trkpt>
      <trkpt lat="45.88979" lon="4.8498">
        <ele>296.66653</ele>
        <time>2023-09-02T13:32:54.000Z</time>
      </trkpt>
      <trkpt lat="45.88976" lon="4.84978">
        <ele>297.46591</ele>
        <time>2023-09-02T13:32:55.000Z</time>
      </trkpt>
      <trkpt lat="45.88974" lon="4.84976">
        <ele>298.24063</ele>
        <time>2023-09-02T13:32:56.000Z</time>
      </trkpt>
      <trkpt lat="45.8897" lon="4.84974">
        <ele>298.98993</ele>
        <time>2023-09-02T13:32:57.000Z</time>
      </trkpt>
      <trkpt lat="45.88966" lon="4.84972">
        <ele>299.76208</ele>
        <time>2023-09-02T13:32:58.000Z</time>
      </trkpt>
      <trkpt lat="45.88961" lon="4.84969">
        <ele>300.52542</ele>
        <time>2023-09-02T13:32:59.000Z</time>
      </trkpt>
      <trkpt lat="45.88957" lon="4.84965">
        <ele>301.33093</ele>
        <time>2023-09-02T13:33:00.000Z</time>
      </trkpt>
      <trkpt lat="45.88953" lon="4.84961">
        <ele>302.16397</ele>
        <time>2023-09-02T13:33:01.000Z</time>
      </trkpt>
      <trkpt lat="45.88948" lon="4.84958">
        <ele>302.966</ele>
        <time>2023-09-02T13:33:02.000Z</time>
      </trkpt>
      <trkpt lat="45.88944" lon="4.84955">
        <ele>303.80814</ele>
        <time>2023-09-02T13:33:03.000Z</time>
      </trkpt>
      <trkpt lat="45.88939" lon="4.84951">
        <ele>304.68118</ele>
        <time>2023-09-02T13:33:04.000Z</time>
      </trkpt>
      <trkpt lat="45.88935" lon="4.84948">
        <ele>305.42651</ele>
        <time>2023-09-02T13:33:05.000Z</time>
      </trkpt>
      <trkpt lat="45.88931" lon="4.84945">
        <ele>306.06268</ele>
        <time>2023-09-02T13:33:06.000Z</time>
      </trkpt>
      <trkpt lat="45.88927" lon="4.84942">
        <ele>307.08289</ele>
        <time>2023-09-02T13:33:07.000Z</time>
      </trkpt>
      <trkpt lat="45.88923" lon="4.84939">
        <ele>308.24783</ele>
        <time>2023-09-02T13:33:08.000Z</time>
      </trkpt>
      <trkpt lat="45.88918" lon="4.84936">
        <ele>309.38272</ele>
        <time>2023-09-02T13:33:09.000Z</time>
      </trkpt>
      <trkpt lat="45.88914" lon="4.84933">
        <ele>310.33664</ele>
        <time>2023-09-02T13:33:10.000Z</time>
      </trkpt>
      <trkpt lat="45.8891" lon="4.8493">
        <ele>310.86414</ele>
        <time>2023-09-02T13:33:11.000Z</time>
      </trkpt>
      <trkpt lat="45.88906" lon="4.84927">
        <ele>310.53629</ele>
        <time>2023-09-02T13:33:12.000Z</time>
      </trkpt>
      <trkpt lat="45.88902" lon="4.84924">
        <ele>309.10187</ele>
        <time>2023-09-02T13:33:13.000Z</time>
      </trkpt>
      <trkpt lat="45.88899" lon="4.84921">
        <ele>308.03305</ele>
        <time>2023-09-02T13:33:14.000Z</time>
      </trkpt>
      <trkpt lat="45.88895" lon="4.84917">
        <ele>307.00623</ele>
        <time>2023-09-02T13:33:15.000Z</time>
      </trkpt>
      <trkpt lat="45.88891" lon="4.84914">
        <ele>305.97397</ele>
        <time>2023-09-02T13:33:16.000Z</time>
      </trkpt>
      <trkpt lat="45.88887" lon="4.84911">
        <ele>304.94623</ele>
        <time>2023-09-02T13:33:17.000Z</time>
      </trkpt>
      <trkpt lat="45.88883" lon="4.84908">
        <ele>303.92767</ele>
        <time>2023-09-02T13:33:18.000Z</time>
      </trkpt>
      <trkpt lat="45.88878" lon="4.84905">
        <ele>302.89804</ele>
        <time>2023-09-02T13:33:19.000Z</time>
      </trkpt>
      <trkpt lat="45.88874" lon="4.84902">
        <ele>301.87042</ele>
        <time>2023-09-02T13:33:20.000Z</time>
      </trkpt>
      <trkpt lat="45.8887" lon="4.84898">
        <ele>300.85431</ele>
        <time>2023-09-02T13:33:21.000Z</time>
      </trkpt>
      <trkpt lat="45.88866" lon="4.84894">
        <ele>299.83527</ele>
        <time>2023-09-02T13:33:22.000Z</time>
      </trkpt>
      <trkpt lat="45.88862" lon="4.84891">
        <ele>298.80713</ele>
        <time>2023-09-02T13:33:23.000Z</time>
      </trkpt>
      <trkpt lat="45.88858" lon="4.84888">
        <ele>297.78372</ele>
        <time>2023-09-02T13:33:24.000Z</time>
      </trkpt>
      <trkpt lat="45.88854" lon="4.84884">
        <ele>297.39032</ele>
        <time>2023-09-02T13:33:25.000Z</time>
      </trkpt>
      <trkpt lat="45.88849" lon="4.84881">
        <ele>297.00858</ele>
        <time>2023-09-02T13:33:26.000Z</time>
      </trkpt>
      <trkpt lat="45.88845" lon="4.84877">
        <ele>296.65906</ele>
        <time>2023-09-02T13:33:27.000Z</time>
      </trkpt>
      <trkpt lat="45.8884" lon="4.84874">
        <ele>296.31616</ele>
        <time>2023-09-02T13:33:28.000Z</time>
      </trkpt>
      <trkpt lat="45.88836" lon="4.8487">
        <ele>295.98999</ele>
        <time>2023-09-02T13:33:29.000Z</time>
      </trkpt>
      <trkpt lat="45.88831" lon="4.84867">
        <ele>295.81708</ele>
        <time>2023-09-02T13:33:30.000Z</time>
      </trkpt>
      <trkpt lat="45.88827" lon="4.84863">
        <ele>295.61823</ele>
        <time>2023-09-02T13:33:31.000Z</time>
      </trkpt>
      <trkpt lat="45.88822" lon="4.8486">
        <ele>295.40045</ele>
        <time>2023-09-02T13:33:32.000Z</time>
      </trkpt>
      <trkpt lat="45.88817" lon="4.84857">
        <ele>296.29828</ele>
        <time>2023-09-02T13:33:33.000Z</time>
      </trkpt>
      <trkpt lat="45.88813" lon="4.84853">
        <ele>296.79095</ele>
        <time>2023-09-02T13:33:34.000Z</time>
      </trkpt>
      <trkpt lat="45.88808" lon="4.8485">
        <ele>297.30096</ele>
        <time>2023-09-02T13:33:35.000Z</time>
      </trkpt>
      <trkpt lat="45.88803" lon="4.84847">
        <ele>297.83325</ele>
        <time>2023-09-02T13:33:36.000Z</time>
      </trkpt>
      <trkpt lat="45.88798" lon="4.84843">
        <ele>298.36288</ele>
        <time>2023-09-02T13:33:37.000Z</time>
      </trkpt>
      <trkpt lat="45.88794" lon="4.8484">
        <ele>298.89941</ele>
        <time>2023-09-02T13:33:38.000Z</time>
      </trkpt>
      <trkpt lat="45.88788" lon="4.84837">
        <ele>299.44427</ele>
        <time>2023-09-02T13:33:39.000Z</time>
      </trkpt>
      <trkpt lat="45.88784" lon="4.84834">
        <ele>299.99341</ele>
        <time>2023-09-02T13:33:40.000Z</time>
      </trkpt>
      <trkpt lat="45.8878" lon="4.8483">
        <ele>300.55264</ele>
        <time>2023-09-02T13:33:41.000Z</time>
      </trkpt>
      <trkpt lat="45.88775" lon="4.84827">
        <ele>301.11957</ele>
        <time>2023-09-02T13:33:42.000Z</time>
      </trkpt>
      <trkpt lat="45.8877" lon="4.84824">
        <ele>301.67963</ele>
        <time>2023-09-02T13:33:43.000Z</time>
      </trkpt>
      <trkpt lat="45.88766" lon="4.84821">
        <ele>302.22867</ele>
        <time>2023-09-02T13:33:44.000Z</time>
      </trkpt>
      <trkpt lat="45.88761" lon="4.84817">
        <ele>302.1485</ele>
        <time>2023-09-02T13:33:45.000Z</time>
      </trkpt>
      <trkpt lat="45.88757" lon="4.84814">
        <ele>302.05399</ele>
        <time>2023-09-02T13:33:46.000Z</time>
      </trkpt>
      <trkpt lat="45.88752" lon="4.84811">
        <ele>301.95197</ele>
        <time>2023-09-02T13:33:47.000Z</time>
      </trkpt>
      <trkpt lat="45.88748" lon="4.84807">
        <ele>301.85638</ele>
        <time>2023-09-02T13:33:48.000Z</time>
      </trkpt>
      <trkpt lat="45.88743" lon="4.84804">
        <ele>301.75128</ele>
        <time>2023-09-02T13:33:49.000Z</time>
      </trkpt>
      <trkpt lat="45.88739" lon="4.848">
        <ele>301.64731</ele>
        <time>2023-09-02T13:33:50.000Z</time>
      </trkpt>
      <trkpt lat="45.88734" lon="4.84796">
        <ele>301.56989</ele>
        <time>2023-09-02T13:33:51.000Z</time>
      </trkpt>
      <trkpt lat="45.88729" lon="4.84793">
        <ele>301.50665</ele>
        <time>2023-09-02T13:33:52.000Z</time>
      </trkpt>
      <trkpt lat="45.88725" lon="4.84789">
        <ele>301.44049</ele>
        <time>2023-09-02T13:33:53.000Z</time>
      </trkpt>
      <trkpt lat="45.8872" lon="4.84786">
        <ele>301.37943</ele>
        <time>2023-09-02T13:33:54.000Z</time>
      </trkpt>
      <trkpt lat="45.88715" lon="4.84783">
        <ele>301.28986</ele>
        <time>2023-09-02T13:33:55.000Z</time>
      </trkpt>
      <trkpt lat="45.8871" lon="4.8478">
        <ele>301.19873</ele>
        <time>2023-09-02T13:33:56.000Z</time>
      </trkpt>
      <trkpt lat="45.88706" lon="4.84777">
        <ele>301.12207</ele>
        <time>2023-09-02T13:33:57.000Z</time>
      </trkpt>
      <trkpt lat="45.88702" lon="4.84773">
        <ele>301.04514</ele>
        <time>2023-09-02T13:33:58.000Z</time>
      </trkpt>
      <trkpt lat="45.88697" lon="4.8477">
        <ele>300.94931</ele>
        <time>2023-09-02T13:33:59.000Z</time>
      </trkpt>
      <trkpt lat="45.88693" lon="4.84767">
        <ele>300.85303</ele>
        <time>2023-09-02T13:34:00.000Z</time>
      </trkpt>
      <trkpt lat="45.88689" lon="4.84763">
        <ele>300.75507</ele>
        <time>2023-09-02T13:34:01.000Z</time>
      </trkpt>
      <trkpt lat="45.88684" lon="4.84761">
        <ele>300.6637</ele>
        <time>2023-09-02T13:34:02.000Z</time>
      </trkpt>
      <trkpt lat="45.8868" lon="4.84759">
        <ele>300.58588</ele>
        <time>2023-09-02T13:34:03.000Z</time>
      </trkpt>
      <trkpt lat="45.88676" lon="4.84756">
        <ele>300.51654</ele>
        <time>2023-09-02T13:34:04.000Z</time>
      </trkpt>
      <trkpt lat="45.88672" lon="4.84754">
        <ele>300.44296</ele>
        <time>2023-09-02T13:34:05.000Z</time>
      </trkpt>
      <trkpt lat="45.88669" lon="4.8475">
        <ele>300.39008</ele>
        <time>2023-09-02T13:34:06.000Z</time>
      </trkpt>
      <trkpt lat="45.88668" lon="4.84745">
        <ele>300.36566</ele>
        <time>2023-09-02T13:34:07.000Z</time>
      </trkpt>
      <trkpt lat="45.88669" lon="4.8474">
        <ele>300.35596</ele>
        <time>2023-09-02T13:34:08.000Z</time>
      </trkpt>
      <trkpt lat="45.88672" lon="4.84737">
        <ele>300.36761</ele>
        <time>2023-09-02T13:34:09.000Z</time>
      </trkpt>
      <trkpt lat="45.88675" lon="4.84735">
        <ele>300.40622</ele>
        <time>2023-09-02T13:34:10.000Z</time>
      </trkpt>
      <trkpt lat="45.88679" lon="4.84733">
        <ele>300.44684</ele>
        <time>2023-09-02T13:34:11.000Z</time>
      </trkpt>
      <trkpt lat="45.88683" lon="4.84731">
        <ele>300.48813</ele>
        <time>2023-09-02T13:34:12.000Z</time>
      </trkpt>
      <trkpt lat="45.88686" lon="4.84729">
        <ele>300.5192</ele>
        <time>2023-09-02T13:34:13.000Z</time>
      </trkpt>
      <trkpt lat="45.88689" lon="4.84727">
        <ele>300.55832</ele>
        <time>2023-09-02T13:34:14.000Z</time>
      </trkpt>
      <trkpt lat="45.88693" lon="4.84724">
        <ele>300.60251</ele>
        <time>2023-09-02T13:34:15.000Z</time>
      </trkpt>
      <trkpt lat="45.88696" lon="4.84722">
        <ele>300.6452</ele>
        <time>2023-09-02T13:34:16.000Z</time>
      </trkpt>
      <trkpt lat="45.887" lon="4.8472">
        <ele>300.6933</ele>
        <time>2023-09-02T13:34:17.000Z</time>
      </trkpt>
      <trkpt lat="45.88705" lon="4.84719">
        <ele>300.76166</ele>
        <time>2023-09-02T13:34:18.000Z</time>
      </trkpt>
      <trkpt lat="45.88709" lon="4.84718">
        <ele>300.83502</ele>
        <time>2023-09-02T13:34:19.000Z</time>
      </trkpt>
      <trkpt lat="45.88713" lon="4.84717">
        <ele>300.90536</ele>
        <time>2023-09-02T13:34:20.000Z</time>
      </trkpt>
      <trkpt lat="45.88717" lon="4.84716">
        <ele>300.98349</ele>
        <time>2023-09-02T13:34:21.000Z</time>
      </trkpt>
      <trkpt lat="45.88722" lon="4.84715">
        <ele>301.06677</ele>
        <time>2023-09-02T13:34:22.000Z</time>
      </trkpt>
      <trkpt lat="45.88726" lon="4.84714">
        <ele>301.15121</ele>
        <time>2023-09-02T13:34:23.000Z</time>
      </trkpt>
      <trkpt lat="45.8873" lon="4.84713">
        <ele>301.22015</ele>
        <time>2023-09-02T13:34:24.000Z</time>
      </trkpt>
      <trkpt lat="45.88734" lon="4.84712">
        <ele>301.31137</ele>
        <time>2023-09-02T13:34:25.000Z</time>
      </trkpt>
      <trkpt lat="45.88739" lon="4.8471">
        <ele>301.39764</ele>
        <time>2023-09-02T13:34:26.000Z</time>
      </trkpt>
      <trkpt lat="45.88744" lon="4.8471">
        <ele>301.47519</ele>
        <time>2023-09-02T13:34:27.000Z</time>
      </trkpt>
      <trkpt lat="45.88748" lon="4.84709">
        <ele>301.53876</ele>
        <time>2023-09-02T13:34:28.000Z</time>
      </trkpt>
      <trkpt lat="45.88753" lon="4.84708">
        <ele>301.58081</ele>
        <time>2023-09-02T13:34:29.000Z</time>
      </trkpt>
      <trkpt lat="45.88757" lon="4.84707">
        <ele>301.59579</ele>
        <time>2023-09-02T13:34:30.000Z</time>
      </trkpt>
      <trkpt lat="45.88761" lon="4.84705">
        <ele>301.59567</ele>
        <time>2023-09-02T13:34:31.000Z</time>
      </trkpt>
      <trkpt lat="45.88765" lon="4.84703">
        <ele>301.60013</ele>
        <time>2023-09-02T13:34:32.000Z</time>
      </trkpt>
      <trkpt lat="45.8877" lon="4.84703">
        <ele>301.61026</ele>
        <time>2023-09-02T13:34:33.000Z</time>
      </trkpt>
      <trkpt lat="45.88774" lon="4.84701">
        <ele>301.60791</ele>
        <time>2023-09-02T13:34:34.000Z</time>
      </trkpt>
      <trkpt lat="45.88779" lon="4.847">
        <ele>301.6062</ele>
        <time>2023-09-02T13:34:35.000Z</time>
      </trkpt>
      <trkpt lat="45.88783" lon="4.84698">
        <ele>301.60815</ele>
        <time>2023-09-02T13:34:36.000Z</time>
      </trkpt>
      <trkpt lat="45.88787" lon="4.84696">
        <ele>301.61148</ele>
        <time>2023-09-02T13:34:37.000Z</time>
      </trkpt>
      <trkpt lat="45.88791" lon="4.84693">
        <ele>301.58871</ele>
        <time>2023-09-02T13:34:38.000Z</time>
      </trkpt>
      <trkpt lat="45.88795" lon="4.84692">
        <ele>301.57416</ele>
        <time>2023-09-02T13:34:39.000Z</time>
      </trkpt>
      <trkpt lat="45.888" lon="4.84691">
        <ele>301.56915</ele>
        <time>2023-09-02T13:34:40.000Z</time>
      </trkpt>
      <trkpt lat="45.88803" lon="4.84689">
        <ele>301.56076</ele>
        <time>2023-09-02T13:34:41.000Z</time>
      </trkpt>
      <trkpt lat="45.88807" lon="4.84687">
        <ele>301.53412</ele>
        <time>2023-09-02T13:34:42.000Z</time>
      </trkpt>
      <trkpt lat="45.88811" lon="4.84687">
        <ele>301.52066</ele>
        <time>2023-09-02T13:34:43.000Z</time>
      </trkpt>
      <trkpt lat="45.88815" lon="4.84686">
        <ele>301.51791</ele>
        <time>2023-09-02T13:34:44.000Z</time>
      </trkpt>
      <trkpt lat="45.88819" lon="4.84686">
        <ele>301.48749</ele>
        <time>2023-09-02T13:34:45.000Z</time>
      </trkpt>
      <trkpt lat="45.88823" lon="4.84686">
        <ele>301.46005</ele>
        <time>2023-09-02T13:34:46.000Z</time>
      </trkpt>
      <trkpt lat="45.88826" lon="4.84685">
        <ele>301.42657</ele>
        <time>2023-09-02T13:34:47.000Z</time>
      </trkpt>
      <trkpt lat="45.8883" lon="4.84684">
        <ele>301.39877</ele>
        <time>2023-09-02T13:34:48.000Z</time>
      </trkpt>
      <trkpt lat="45.88833" lon="4.84683">
        <ele>301.36877</ele>
        <time>2023-09-02T13:34:49.000Z</time>
      </trkpt>
      <trkpt lat="45.88835" lon="4.84682">
        <ele>301.34311</ele>
        <time>2023-09-02T13:34:50.000Z</time>
      </trkpt>
      <trkpt lat="45.88837" lon="4.84681">
        <ele>301.32306</ele>
        <time>2023-09-02T13:34:51.000Z</time>
      </trkpt>
      <trkpt lat="45.88839" lon="4.8468">
        <ele>301.30133</ele>
        <time>2023-09-02T13:34:52.000Z</time>
      </trkpt>
      <trkpt lat="45.88841" lon="4.8468">
        <ele>301.27249</ele>
        <time>2023-09-02T13:34:58.000Z</time>
      </trkpt>
      <trkpt lat="45.88844" lon="4.84682">
        <ele>301.26065</ele>
        <time>2023-09-02T13:35:00.000Z</time>
      </trkpt>
      <trkpt lat="45.88846" lon="4.84682">
        <ele>301.24359</ele>
        <time>2023-09-02T13:35:01.000Z</time>
      </trkpt>
      <trkpt lat="45.88848" lon="4.84681">
        <ele>301.21207</ele>
        <time>2023-09-02T13:35:02.000Z</time>
      </trkpt>
      <trkpt lat="45.88851" lon="4.8468">
        <ele>301.18085</ele>
        <time>2023-09-02T13:35:03.000Z</time>
      </trkpt>
      <trkpt lat="45.88853" lon="4.84678">
        <ele>301.15936</ele>
        <time>2023-09-02T13:35:04.000Z</time>
      </trkpt>
      <trkpt lat="45.88856" lon="4.84677">
        <ele>301.14709</ele>
        <time>2023-09-02T13:35:05.000Z</time>
      </trkpt>
      <trkpt lat="45.88858" lon="4.84676">
        <ele>301.13672</ele>
        <time>2023-09-02T13:35:06.000Z</time>
      </trkpt>
      <trkpt lat="45.88861" lon="4.84674">
        <ele>301.12082</ele>
        <time>2023-09-02T13:35:07.000Z</time>
      </trkpt>
      <trkpt lat="45.88864" lon="4.84673">
        <ele>301.11667</ele>
        <time>2023-09-02T13:35:08.000Z</time>
      </trkpt>
      <trkpt lat="45.88868" lon="4.84672">
        <ele>301.10178</ele>
        <time>2023-09-02T13:35:09.000Z</time>
      </trkpt>
      <trkpt lat="45.88871" lon="4.84671">
        <ele>301.05569</ele>
        <time>2023-09-02T13:35:10.000Z</time>
      </trkpt>
      <trkpt lat="45.88874" lon="4.84671">
        <ele>301.03662</ele>
        <time>2023-09-02T13:35:11.000Z</time>
      </trkpt>
      <trkpt lat="45.88878" lon="4.84671">
        <ele>301.01099</ele>
        <time>2023-09-02T13:35:12.000Z</time>
      </trkpt>
      <trkpt lat="45.88881" lon="4.84671">
        <ele>300.98514</ele>
        <time>2023-09-02T13:35:13.000Z</time>
      </trkpt>
      <trkpt lat="45.88885" lon="4.84671">
        <ele>300.93893</ele>
        <time>2023-09-02T13:35:14.000Z</time>
      </trkpt>
      <trkpt lat="45.88889" lon="4.8467">
        <ele>300.90421</ele>
        <time>2023-09-02T13:35:15.000Z</time>
      </trkpt>
      <trkpt lat="45.88893" lon="4.8467">
        <ele>300.86957</ele>
        <time>2023-09-02T13:35:16.000Z</time>
      </trkpt>
      <trkpt lat="45.88897" lon="4.84669">
        <ele>300.84589</ele>
        <time>2023-09-02T13:35:17.000Z</time>
      </trkpt>
      <trkpt lat="45.889" lon="4.84668">
        <ele>300.82315</ele>
        <time>2023-09-02T13:35:18.000Z</time>
      </trkpt>
      <trkpt lat="45.88904" lon="4.84667">
        <ele>300.8017</ele>
        <time>2023-09-02T13:35:19.000Z</time>
      </trkpt>
      <trkpt lat="45.88908" lon="4.84666">
        <ele>300.77512</ele>
        <time>2023-09-02T13:35:20.000Z</time>
      </trkpt>
      <trkpt lat="45.88912" lon="4.84665">
        <ele>300.75568</ele>
        <time>2023-09-02T13:35:21.000Z</time>
      </trkpt>
      <trkpt lat="45.88916" lon="4.84664">
        <ele>300.73083</ele>
        <time>2023-09-02T13:35:22.000Z</time>
      </trkpt>
      <trkpt lat="45.8892" lon="4.84663">
        <ele>300.69678</ele>
        <time>2023-09-02T13:35:23.000Z</time>
      </trkpt>
      <trkpt lat="45.88924" lon="4.84662">
        <ele>300.64944</ele>
        <time>2023-09-02T13:35:24.000Z</time>
      </trkpt>
      <trkpt lat="45.88928" lon="4.84661">
        <ele>300.66049</ele>
        <time>2023-09-02T13:35:25.000Z</time>
      </trkpt>
      <trkpt lat="45.88932" lon="4.8466">
        <ele>300.69611</ele>
        <time>2023-09-02T13:35:26.000Z</time>
      </trkpt>
      <trkpt lat="45.88937" lon="4.84659">
        <ele>300.64661</ele>
        <time>2023-09-02T13:35:27.000Z</time>
      </trkpt>
      <trkpt lat="45.88941" lon="4.84657">
        <ele>300.60849</ele>
        <time>2023-09-02T13:35:28.000Z</time>
      </trkpt>
      <trkpt lat="45.88945" lon="4.84656">
        <ele>300.56979</ele>
        <time>2023-09-02T13:35:29.000Z</time>
      </trkpt>
      <trkpt lat="45.88949" lon="4.84654">
        <ele>300.56332</ele>
        <time>2023-09-02T13:35:30.000Z</time>
      </trkpt>
      <trkpt lat="45.88953" lon="4.84653">
        <ele>300.54926</ele>
        <time>2023-09-02T13:35:31.000Z</time>
      </trkpt>
      <trkpt lat="45.88957" lon="4.84652">
        <ele>300.53571</ele>
        <time>2023-09-02T13:35:32.000Z</time>
      </trkpt>
      <trkpt lat="45.88961" lon="4.84651">
        <ele>300.50848</ele>
        <time>2023-09-02T13:35:33.000Z</time>
      </trkpt>
      <trkpt lat="45.88965" lon="4.84649">
        <ele>300.48071</ele>
        <time>2023-09-02T13:35:34.000Z</time>
      </trkpt>
      <trkpt lat="45.88969" lon="4.84646">
        <ele>300.44116</ele>
        <time>2023-09-02T13:35:35.000Z</time>
      </trkpt>
      <trkpt lat="45.88972" lon="4.84642">
        <ele>300.43802</ele>
        <time>2023-09-02T13:35:36.000Z</time>
      </trkpt>
      <trkpt lat="45.88975" lon="4.84636">
        <ele>300.41199</ele>
        <time>2023-09-02T13:35:37.000Z</time>
      </trkpt>
      <trkpt lat="45.88977" lon="4.84629">
        <ele>300.36642</ele>
        <time>2023-09-02T13:35:38.000Z</time>
      </trkpt>
      <trkpt lat="45.88981" lon="4.84624">
        <ele>300.28586</ele>
        <time>2023-09-02T13:35:39.000Z</time>
      </trkpt>
      <trkpt lat="45.88984" lon="4.84617">
        <ele>300.2132</ele>
        <time>2023-09-02T13:35:40.000Z</time>
      </trkpt>
      <trkpt lat="45.88988" lon="4.84613">
        <ele>300.15558</ele>
        <time>2023-09-02T13:35:41.000Z</time>
      </trkpt>
      <trkpt lat="45.88993" lon="4.84609">
        <ele>300.12247</ele>
        <time>2023-09-02T13:35:42.000Z</time>
      </trkpt>
      <trkpt lat="45.88997" lon="4.84606">
        <ele>300.11163</ele>
        <time>2023-09-02T13:35:43.000Z</time>
      </trkpt>
      <trkpt lat="45.89002" lon="4.84602">
        <ele>300.08643</ele>
        <time>2023-09-02T13:35:44.000Z</time>
      </trkpt>
      <trkpt lat="45.89006" lon="4.84599">
        <ele>299.99591</ele>
        <time>2023-09-02T13:35:45.000Z</time>
      </trkpt>
      <trkpt lat="45.8901" lon="4.84597">
        <ele>299.87604</ele>
        <time>2023-09-02T13:35:46.000Z</time>
      </trkpt>
      <trkpt lat="45.89014" lon="4.84595">
        <ele>299.87054</ele>
        <time>2023-09-02T13:35:47.000Z</time>
      </trkpt>
      <trkpt lat="45.89018" lon="4.84593">
        <ele>299.85635</ele>
        <time>2023-09-02T13:35:48.000Z</time>
      </trkpt>
      <trkpt lat="45.89021" lon="4.84591">
        <ele>299.84174</ele>
        <time>2023-09-02T13:35:49.000Z</time>
      </trkpt>
      <trkpt lat="45.89025" lon="4.84589">
        <ele>299.82718</ele>
        <time>2023-09-02T13:35:50.000Z</time>
      </trkpt>
      <trkpt lat="45.89029" lon="4.84588">
        <ele>299.79858</ele>
        <time>2023-09-02T13:35:51.000Z</time>
      </trkpt>
      <trkpt lat="45.89034" lon="4.84587">
        <ele>299.78357</ele>
        <time>2023-09-02T13:35:52.000Z</time>
      </trkpt>
      <trkpt lat="45.89038" lon="4.84585">
        <ele>299.77655</ele>
        <time>2023-09-02T13:35:53.000Z</time>
      </trkpt>
      <trkpt lat="45.89042" lon="4.84582">
        <ele>299.79602</ele>
        <time>2023-09-02T13:35:54.000Z</time>
      </trkpt>
      <trkpt lat="45.89047" lon="4.8458">
        <ele>299.80667</ele>
        <time>2023-09-02T13:35:55.000Z</time>
      </trkpt>
      <trkpt lat="45.89051" lon="4.84578">
        <ele>299.76056</ele>
        <time>2023-09-02T13:35:56.000Z</time>
      </trkpt>
      <trkpt lat="45.89056" lon="4.84576">
        <ele>299.77057</ele>
        <time>2023-09-02T13:35:57.000Z</time>
      </trkpt>
      <trkpt lat="45.89061" lon="4.84574">
        <ele>299.80081</ele>
        <time>2023-09-02T13:35:58.000Z</time>
      </trkpt>
      <trkpt lat="45.89065" lon="4.84573">
        <ele>299.87048</ele>
        <time>2023-09-02T13:35:59.000Z</time>
      </trkpt>
      <trkpt lat="45.8907" lon="4.84571">
        <ele>299.90823</ele>
        <time>2023-09-02T13:36:00.000Z</time>
      </trkpt>
      <trkpt lat="45.89075" lon="4.8457">
        <ele>299.95258</ele>
        <time>2023-09-02T13:36:01.000Z</time>
      </trkpt>
      <trkpt lat="45.89079" lon="4.84567">
        <ele>299.987</ele>
        <time>2023-09-02T13:36:02.000Z</time>
      </trkpt>
      <trkpt lat="45.89083" lon="4.84565">
        <ele>299.99957</ele>
        <time>2023-09-02T13:36:03.000Z</time>
      </trkpt>
      <trkpt lat="45.89088" lon="4.84562">
        <ele>300.03726</ele>
        <time>2023-09-02T13:36:04.000Z</time>
      </trkpt>
      <trkpt lat="45.89092" lon="4.84561">
        <ele>300.06616</ele>
        <time>2023-09-02T13:36:05.000Z</time>
      </trkpt>
      <trkpt lat="45.89096" lon="4.8456">
        <ele>300.09393</ele>
        <time>2023-09-02T13:36:06.000Z</time>
      </trkpt>
      <trkpt lat="45.891" lon="4.84559">
        <ele>300.10565</ele>
        <time>2023-09-02T13:36:07.000Z</time>
      </trkpt>
      <trkpt lat="45.89104" lon="4.84558">
        <ele>300.11835</ele>
        <time>2023-09-02T13:36:08.000Z</time>
      </trkpt>
      <trkpt lat="45.89108" lon="4.84557">
        <ele>300.1088</ele>
        <time>2023-09-02T13:36:09.000Z</time>
      </trkpt>
      <trkpt lat="45.89113" lon="4.84557">
        <ele>300.08408</ele>
        <time>2023-09-02T13:36:10.000Z</time>
      </trkpt>
      <trkpt lat="45.89117" lon="4.84556">
        <ele>300.05991</ele>
        <time>2023-09-02T13:36:11.000Z</time>
      </trkpt>
      <trkpt lat="45.89122" lon="4.84554">
        <ele>300.02448</ele>
        <time>2023-09-02T13:36:12.000Z</time>
      </trkpt>
      <trkpt lat="45.89126" lon="4.84551">
        <ele>299.99457</ele>
        <time>2023-09-02T13:36:13.000Z</time>
      </trkpt>
      <trkpt lat="45.89131" lon="4.84549">
        <ele>299.96005</ele>
        <time>2023-09-02T13:36:14.000Z</time>
      </trkpt>
      <trkpt lat="45.89135" lon="4.84548">
        <ele>299.93631</ele>
        <time>2023-09-02T13:36:15.000Z</time>
      </trkpt>
      <trkpt lat="45.89139" lon="4.84545">
        <ele>299.93854</ele>
        <time>2023-09-02T13:36:16.000Z</time>
      </trkpt>
      <trkpt lat="45.89144" lon="4.84544">
        <ele>299.90076</ele>
        <time>2023-09-02T13:36:17.000Z</time>
      </trkpt>
      <trkpt lat="45.89149" lon="4.84543">
        <ele>299.83908</ele>
        <time>2023-09-02T13:36:18.000Z</time>
      </trkpt>
      <trkpt lat="45.89153" lon="4.84542">
        <ele>299.80557</ele>
        <time>2023-09-02T13:36:19.000Z</time>
      </trkpt>
      <trkpt lat="45.89158" lon="4.84542">
        <ele>299.76834</ele>
        <time>2023-09-02T13:36:20.000Z</time>
      </trkpt>
      <trkpt lat="45.89163" lon="4.84541">
        <ele>299.70709</ele>
        <time>2023-09-02T13:36:21.000Z</time>
      </trkpt>
      <trkpt lat="45.89168" lon="4.8454">
        <ele>299.63626</ele>
        <time>2023-09-02T13:36:22.000Z</time>
      </trkpt>
      <trkpt lat="45.89174" lon="4.84539">
        <ele>299.56479</ele>
        <time>2023-09-02T13:36:23.000Z</time>
      </trkpt>
      <trkpt lat="45.89179" lon="4.84538">
        <ele>299.5098</ele>
        <time>2023-09-02T13:36:24.000Z</time>
      </trkpt>
      <trkpt lat="45.89183" lon="4.84536">
        <ele>299.45816</ele>
        <time>2023-09-02T13:36:25.000Z</time>
      </trkpt>
      <trkpt lat="45.89188" lon="4.84536">
        <ele>299.4086</ele>
        <time>2023-09-02T13:36:26.000Z</time>
      </trkpt>
      <trkpt lat="45.89193" lon="4.84535">
        <ele>299.33502</ele>
        <time>2023-09-02T13:36:27.000Z</time>
      </trkpt>
      <trkpt lat="45.89198" lon="4.84534">
        <ele>299.24466</ele>
        <time>2023-09-02T13:36:28.000Z</time>
      </trkpt>
      <trkpt lat="45.89203" lon="4.84531">
        <ele>299.18964</ele>
        <time>2023-09-02T13:36:29.000Z</time>
      </trkpt>
      <trkpt lat="45.89209" lon="4.8453">
        <ele>299.11673</ele>
        <time>2023-09-02T13:36:30.000Z</time>
      </trkpt>
      <trkpt lat="45.89214" lon="4.84529">
        <ele>299.04749</ele>
        <time>2023-09-02T13:36:31.000Z</time>
      </trkpt>
      <trkpt lat="45.89219" lon="4.84529">
        <ele>298.97617</ele>
        <time>2023-09-02T13:36:32.000Z</time>
      </trkpt>
      <trkpt lat="45.89223" lon="4.84527">
        <ele>298.90045</ele>
        <time>2023-09-02T13:36:33.000Z</time>
      </trkpt>
      <trkpt lat="45.89228" lon="4.84525">
        <ele>298.80945</ele>
        <time>2023-09-02T13:36:34.000Z</time>
      </trkpt>
      <trkpt lat="45.89232" lon="4.84523">
        <ele>298.7403</ele>
        <time>2023-09-02T13:36:35.000Z</time>
      </trkpt>
      <trkpt lat="45.89236" lon="4.84523">
        <ele>298.63736</ele>
        <time>2023-09-02T13:36:36.000Z</time>
      </trkpt>
      <trkpt lat="45.89241" lon="4.84521">
        <ele>298.51199</ele>
        <time>2023-09-02T13:36:37.000Z</time>
      </trkpt>
      <trkpt lat="45.89245" lon="4.84519">
        <ele>298.39374</ele>
        <time>2023-09-02T13:36:38.000Z</time>
      </trkpt>
      <trkpt lat="45.89249" lon="4.84517">
        <ele>298.23761</ele>
        <time>2023-09-02T13:36:39.000Z</time>
      </trkpt>
      <trkpt lat="45.89253" lon="4.84513">
        <ele>298.10886</ele>
        <time>2023-09-02T13:36:40.000Z</time>
      </trkpt>
      <trkpt lat="45.89256" lon="4.84509">
        <ele>297.9729</ele>
        <time>2023-09-02T13:36:41.000Z</time>
      </trkpt>
      <trkpt lat="45.8926" lon="4.84504">
        <ele>297.83517</ele>
        <time>2023-09-02T13:36:42.000Z</time>
      </trkpt>
      <trkpt lat="45.89264" lon="4.845">
        <ele>297.70013</ele>
        <time>2023-09-02T13:36:43.000Z</time>
      </trkpt>
      <trkpt lat="45.89268" lon="4.84496">
        <ele>297.54764</ele>
        <time>2023-09-02T13:36:44.000Z</time>
      </trkpt>
      <trkpt lat="45.89272" lon="4.84493">
        <ele>297.41324</ele>
        <time>2023-09-02T13:36:45.000Z</time>
      </trkpt>
      <trkpt lat="45.89276" lon="4.84489">
        <ele>297.27753</ele>
        <time>2023-09-02T13:36:46.000Z</time>
      </trkpt>
      <trkpt lat="45.8928" lon="4.84486">
        <ele>297.15756</ele>
        <time>2023-09-02T13:36:47.000Z</time>
      </trkpt>
      <trkpt lat="45.89285" lon="4.84483">
        <ele>297.04639</ele>
        <time>2023-09-02T13:36:48.000Z</time>
      </trkpt>
      <trkpt lat="45.89289" lon="4.8448">
        <ele>296.9263</ele>
        <time>2023-09-02T13:36:49.000Z</time>
      </trkpt>
      <trkpt lat="45.89293" lon="4.84476">
        <ele>296.82007</ele>
        <time>2023-09-02T13:36:50.000Z</time>
      </trkpt>
      <trkpt lat="45.89297" lon="4.84471">
        <ele>296.72067</ele>
        <time>2023-09-02T13:36:51.000Z</time>
      </trkpt>
      <trkpt lat="45.893" lon="4.84467">
        <ele>296.62521</ele>
        <time>2023-09-02T13:36:52.000Z</time>
      </trkpt>
      <trkpt lat="45.89304" lon="4.84462">
        <ele>296.53198</ele>
        <time>2023-09-02T13:36:53.000Z</time>
      </trkpt>
      <trkpt lat="45.89308" lon="4.84457">
        <ele>296.45795</ele>
        <time>2023-09-02T13:36:54.000Z</time>
      </trkpt>
      <trkpt lat="45.89312" lon="4.84453">
        <ele>296.39297</ele>
        <time>2023-09-02T13:36:55.000Z</time>
      </trkpt>
      <trkpt lat="45.89316" lon="4.84448">
        <ele>296.35312</ele>
        <time>2023-09-02T13:36:56.000Z</time>
      </trkpt>
      <trkpt lat="45.89319" lon="4.84444">
        <ele>296.32159</ele>
        <time>2023-09-02T13:36:57.000Z</time>
      </trkpt>
      <trkpt lat="45.89323" lon="4.84439">
        <ele>296.31506</ele>
        <time>2023-09-02T13:36:58.000Z</time>
      </trkpt>
      <trkpt lat="45.89326" lon="4.84434">
        <ele>296.32904</ele>
        <time>2023-09-02T13:36:59.000Z</time>
      </trkpt>
      <trkpt lat="45.89329" lon="4.84431">
        <ele>296.33795</ele>
        <time>2023-09-02T13:37:00.000Z</time>
      </trkpt>
      <trkpt lat="45.89333" lon="4.84427">
        <ele>296.34171</ele>
        <time>2023-09-02T13:37:01.000Z</time>
      </trkpt>
      <trkpt lat="45.89336" lon="4.84422">
        <ele>296.35223</ele>
        <time>2023-09-02T13:37:02.000Z</time>
      </trkpt>
      <trkpt lat="45.89339" lon="4.84417">
        <ele>296.36237</ele>
        <time>2023-09-02T13:37:03.000Z</time>
      </trkpt>
      <trkpt lat="45.89342" lon="4.84413">
        <ele>296.36639</ele>
        <time>2023-09-02T13:37:04.000Z</time>
      </trkpt>
      <trkpt lat="45.89346" lon="4.8441">
        <ele>296.35309</ele>
        <time>2023-09-02T13:37:05.000Z</time>
      </trkpt>
      <trkpt lat="45.89348" lon="4.84406">
        <ele>296.35367</ele>
        <time>2023-09-02T13:37:06.000Z</time>
      </trkpt>
      <trkpt lat="45.89352" lon="4.84403">
        <ele>296.35114</ele>
        <time>2023-09-02T13:37:07.000Z</time>
      </trkpt>
      <trkpt lat="45.89355" lon="4.844">
        <ele>296.35706</ele>
        <time>2023-09-02T13:37:08.000Z</time>
      </trkpt>
      <trkpt lat="45.89357" lon="4.84398">
        <ele>296.34036</ele>
        <time>2023-09-02T13:37:09.000Z</time>
      </trkpt>
      <trkpt lat="45.8936" lon="4.84395">
        <ele>296.34631</ele>
        <time>2023-09-02T13:37:10.000Z</time>
      </trkpt>
      <trkpt lat="45.89362" lon="4.84391">
        <ele>296.35611</ele>
        <time>2023-09-02T13:37:11.000Z</time>
      </trkpt>
      <trkpt lat="45.89365" lon="4.84387">
        <ele>296.34848</ele>
        <time>2023-09-02T13:37:12.000Z</time>
      </trkpt>
      <trkpt lat="45.89366" lon="4.84382">
        <ele>296.35681</ele>
        <time>2023-09-02T13:37:13.000Z</time>
      </trkpt>
      <trkpt lat="45.89367" lon="4.8438">
        <ele>296.34723</ele>
        <time>2023-09-02T13:37:14.000Z</time>
      </trkpt>
      <trkpt lat="45.89368" lon="4.84378">
        <ele>296.30475</ele>
        <time>2023-09-02T13:37:17.000Z</time>
      </trkpt>
      <trkpt lat="45.89371" lon="4.84376">
        <ele>296.27176</ele>
        <time>2023-09-02T13:37:18.000Z</time>
      </trkpt>
      <trkpt lat="45.89373" lon="4.84374">
        <ele>296.23541</ele>
        <time>2023-09-02T13:37:19.000Z</time>
      </trkpt>
      <trkpt lat="45.89375" lon="4.84372">
        <ele>296.19647</ele>
        <time>2023-09-02T13:37:20.000Z</time>
      </trkpt>
      <trkpt lat="45.89377" lon="4.8437">
        <ele>296.13489</ele>
        <time>2023-09-02T13:37:21.000Z</time>
      </trkpt>
      <trkpt lat="45.8938" lon="4.84367">
        <ele>296.07037</ele>
        <time>2023-09-02T13:37:22.000Z</time>
      </trkpt>
      <trkpt lat="45.89382" lon="4.84364">
        <ele>296.00119</ele>
        <time>2023-09-02T13:37:23.000Z</time>
      </trkpt>
      <trkpt lat="45.89385" lon="4.84361">
        <ele>295.9425</ele>
        <time>2023-09-02T13:37:24.000Z</time>
      </trkpt>
      <trkpt lat="45.89387" lon="4.84357">
        <ele>295.88055</ele>
        <time>2023-09-02T13:37:25.000Z</time>
      </trkpt>
      <trkpt lat="45.89389" lon="4.84353">
        <ele>295.81903</ele>
        <time>2023-09-02T13:37:26.000Z</time>
      </trkpt>
      <trkpt lat="45.89392" lon="4.8435">
        <ele>295.75604</ele>
        <time>2023-09-02T13:37:27.000Z</time>
      </trkpt>
      <trkpt lat="45.89395" lon="4.84346">
        <ele>295.66934</ele>
        <time>2023-09-02T13:37:28.000Z</time>
      </trkpt>
      <trkpt lat="45.89398" lon="4.84342">
        <ele>295.57086</ele>
        <time>2023-09-02T13:37:29.000Z</time>
      </trkpt>
      <trkpt lat="45.894" lon="4.84339">
        <ele>295.49445</ele>
        <time>2023-09-02T13:37:30.000Z</time>
      </trkpt>
      <trkpt lat="45.89403" lon="4.84335">
        <ele>295.41754</ele>
        <time>2023-09-02T13:37:31.000Z</time>
      </trkpt>
      <trkpt lat="45.89406" lon="4.84331">
        <ele>295.34738</ele>
        <time>2023-09-02T13:37:32.000Z</time>
      </trkpt>
      <trkpt lat="45.89409" lon="4.84328">
        <ele>295.27197</ele>
        <time>2023-09-02T13:37:33.000Z</time>
      </trkpt>
      <trkpt lat="45.89412" lon="4.84324">
        <ele>295.22565</ele>
        <time>2023-09-02T13:37:34.000Z</time>
      </trkpt>
      <trkpt lat="45.89415" lon="4.8432">
        <ele>295.16058</ele>
        <time>2023-09-02T13:37:35.000Z</time>
      </trkpt>
      <trkpt lat="45.89418" lon="4.84316">
        <ele>295.10638</ele>
        <time>2023-09-02T13:37:36.000Z</time>
      </trkpt>
      <trkpt lat="45.8942" lon="4.84313">
        <ele>295.03717</ele>
        <time>2023-09-02T13:37:37.000Z</time>
      </trkpt>
      <trkpt lat="45.89423" lon="4.84309">
        <ele>294.95377</ele>
        <time>2023-09-02T13:37:38.000Z</time>
      </trkpt>
      <trkpt lat="45.89426" lon="4.84306">
        <ele>294.8746</ele>
        <time>2023-09-02T13:37:39.000Z</time>
      </trkpt>
      <trkpt lat="45.89428" lon="4.84302">
        <ele>294.78363</ele>
        <time>2023-09-02T13:37:40.000Z</time>
      </trkpt>
      <trkpt lat="45.8943" lon="4.84298">
        <ele>294.73077</ele>
        <time>2023-09-02T13:37:41.000Z</time>
      </trkpt>
      <trkpt lat="45.89433" lon="4.84294">
        <ele>294.68036</ele>
        <time>2023-09-02T13:37:42.000Z</time>
      </trkpt>
      <trkpt lat="45.89435" lon="4.8429">
        <ele>294.64865</ele>
        <time>2023-09-02T13:37:43.000Z</time>
      </trkpt>
      <trkpt lat="45.89438" lon="4.84286">
        <ele>294.61609</ele>
        <time>2023-09-02T13:37:44.000Z</time>
      </trkpt>
      <trkpt lat="45.8944" lon="4.84282">
        <ele>294.57446</ele>
        <time>2023-09-02T13:37:45.000Z</time>
      </trkpt>
      <trkpt lat="45.89443" lon="4.84279">
        <ele>294.53555</ele>
        <time>2023-09-02T13:37:46.000Z</time>
      </trkpt>
      <trkpt lat="45.89445" lon="4.84275">
        <ele>294.51886</ele>
        <time>2023-09-02T13:37:47.000Z</time>
      </trkpt>
      <trkpt lat="45.89447" lon="4.84271">
        <ele>294.50717</ele>
        <time>2023-09-02T13:37:48.000Z</time>
      </trkpt>
      <trkpt lat="45.8945" lon="4.84267">
        <ele>294.49078</ele>
        <time>2023-09-02T13:37:49.000Z</time>
      </trkpt>
      <trkpt lat="45.89452" lon="4.84264">
        <ele>294.46841</ele>
        <time>2023-09-02T13:37:50.000Z</time>
      </trkpt>
      <trkpt lat="45.89454" lon="4.84261">
        <ele>294.45578</ele>
        <time>2023-09-02T13:37:51.000Z</time>
      </trkpt>
      <trkpt lat="45.89455" lon="4.84258">
        <ele>294.44174</ele>
        <time>2023-09-02T13:37:52.000Z</time>
      </trkpt>
      <trkpt lat="45.89454" lon="4.84255">
        <ele>294.43451</ele>
        <time>2023-09-02T13:37:53.000Z</time>
      </trkpt>
      <trkpt lat="45.89453" lon="4.84254">
        <ele>294.4194</ele>
        <time>2023-09-02T13:37:54.000Z</time>
      </trkpt>
      <trkpt lat="45.8945" lon="4.84255">
        <ele>294.40805</ele>
        <time>2023-09-02T13:37:56.000Z</time>
      </trkpt>
      <trkpt lat="45.8945" lon="4.84257">
        <ele>294.39984</ele>
        <time>2023-09-02T13:38:27.000Z</time>
      </trkpt>
      <trkpt lat="45.89452" lon="4.84258">
        <ele>294.46027</ele>
        <time>2023-09-02T13:38:43.000Z</time>
      </trkpt>
      <trkpt lat="45.89454" lon="4.84258">
        <ele>294.54068</ele>
        <time>2023-09-02T13:39:54.000Z</time>
      </trkpt>
      <trkpt lat="45.89456" lon="4.84259">
        <ele>294.62216</ele>
        <time>2023-09-02T13:39:55.000Z</time>
      </trkpt>
      <trkpt lat="45.89457" lon="4.84262">
        <ele>294.70767</ele>
        <time>2023-09-02T13:39:56.000Z</time>
      </trkpt>
      <trkpt lat="45.89456" lon="4.84265">
        <ele>294.75018</ele>
        <time>2023-09-02T13:39:57.000Z</time>
      </trkpt>
      <trkpt lat="45.89454" lon="4.84268">
        <ele>294.78015</ele>
        <time>2023-09-02T13:39:58.000Z</time>
      </trkpt>
      <trkpt lat="45.89452" lon="4.8427">
        <ele>294.81665</ele>
        <time>2023-09-02T13:39:59.000Z</time>
      </trkpt>
      <trkpt lat="45.8945" lon="4.84272">
        <ele>294.8475</ele>
        <time>2023-09-02T13:40:00.000Z</time>
      </trkpt>
      <trkpt lat="45.89448" lon="4.84274">
        <ele>294.86084</ele>
        <time>2023-09-02T13:40:01.000Z</time>
      </trkpt>
      <trkpt lat="45.89446" lon="4.84276">
        <ele>294.91162</ele>
        <time>2023-09-02T13:40:02.000Z</time>
      </trkpt>
      <trkpt lat="45.89444" lon="4.84278">
        <ele>294.93652</ele>
        <time>2023-09-02T13:40:03.000Z</time>
      </trkpt>
      <trkpt lat="45.89442" lon="4.84282">
        <ele>294.96719</ele>
        <time>2023-09-02T13:40:04.000Z</time>
      </trkpt>
      <trkpt lat="45.8944" lon="4.84284">
        <ele>295.02667</ele>
        <time>2023-09-02T13:40:05.000Z</time>
      </trkpt>
      <trkpt lat="45.89439" lon="4.84287">
        <ele>295.07349</ele>
        <time>2023-09-02T13:40:06.000Z</time>
      </trkpt>
      <trkpt lat="45.89437" lon="4.8429">
        <ele>295.11469</ele>
        <time>2023-09-02T13:40:07.000Z</time>
      </trkpt>
      <trkpt lat="45.89435" lon="4.84293">
        <ele>295.14536</ele>
        <time>2023-09-02T13:40:08.000Z</time>
      </trkpt>
      <trkpt lat="45.89433" lon="4.84296">
        <ele>295.18222</ele>
        <time>2023-09-02T13:40:09.000Z</time>
      </trkpt>
      <trkpt lat="45.89432" lon="4.84299">
        <ele>295.21252</ele>
        <time>2023-09-02T13:40:10.000Z</time>
      </trkpt>
      <trkpt lat="45.8943" lon="4.84301">
        <ele>295.228</ele>
        <time>2023-09-02T13:40:11.000Z</time>
      </trkpt>
      <trkpt lat="45.89427" lon="4.84303">
        <ele>295.24091</ele>
        <time>2023-09-02T13:40:12.000Z</time>
      </trkpt>
      <trkpt lat="45.89425" lon="4.84306">
        <ele>295.20581</ele>
        <time>2023-09-02T13:40:13.000Z</time>
      </trkpt>
      <trkpt lat="45.89423" lon="4.84309">
        <ele>295.16391</ele>
        <time>2023-09-02T13:40:14.000Z</time>
      </trkpt>
      <trkpt lat="45.89422" lon="4.84312">
        <ele>295.16428</ele>
        <time>2023-09-02T13:40:15.000Z</time>
      </trkpt>
      <trkpt lat="45.89421" lon="4.84315">
        <ele>295.15359</ele>
        <time>2023-09-02T13:40:16.000Z</time>
      </trkpt>
      <trkpt lat="45.89419" lon="4.84318">
        <ele>295.15494</ele>
        <time>2023-09-02T13:40:17.000Z</time>
      </trkpt>
      <trkpt lat="45.89417" lon="4.8432">
        <ele>295.14661</ele>
        <time>2023-09-02T13:40:18.000Z</time>
      </trkpt>
      <trkpt lat="45.89415" lon="4.84323">
        <ele>295.13135</ele>
        <time>2023-09-02T13:40:19.000Z</time>
      </trkpt>
      <trkpt lat="45.89413" lon="4.84326">
        <ele>295.11603</ele>
        <time>2023-09-02T13:40:20.000Z</time>
      </trkpt>
      <trkpt lat="45.89411" lon="4.84329">
        <ele>295.12698</ele>
        <time>2023-09-02T13:40:21.000Z</time>
      </trkpt>
      <trkpt lat="45.89409" lon="4.84332">
        <ele>295.1347</ele>
        <time>2023-09-02T13:40:22.000Z</time>
      </trkpt>
      <trkpt lat="45.89406" lon="4.84335">
        <ele>295.14328</ele>
        <time>2023-09-02T13:40:23.000Z</time>
      </trkpt>
      <trkpt lat="45.89404" lon="4.84338">
        <ele>295.16876</ele>
        <time>2023-09-02T13:40:24.000Z</time>
      </trkpt>
      <trkpt lat="45.89402" lon="4.84341">
        <ele>295.19464</ele>
        <time>2023-09-02T13:40:25.000Z</time>
      </trkpt>
      <trkpt lat="45.894" lon="4.84344">
        <ele>295.21097</ele>
        <time>2023-09-02T13:40:26.000Z</time>
      </trkpt>
      <trkpt lat="45.89398" lon="4.84347">
        <ele>295.24194</ele>
        <time>2023-09-02T13:40:27.000Z</time>
      </trkpt>
      <trkpt lat="45.89395" lon="4.8435">
        <ele>295.26709</ele>
        <time>2023-09-02T13:40:28.000Z</time>
      </trkpt>
      <trkpt lat="45.89392" lon="4.84353">
        <ele>295.27289</ele>
        <time>2023-09-02T13:40:29.000Z</time>
      </trkpt>
      <trkpt lat="45.8939" lon="4.84356">
        <ele>295.28296</ele>
        <time>2023-09-02T13:40:30.000Z</time>
      </trkpt>
      <trkpt lat="45.89387" lon="4.84358">
        <ele>295.30438</ele>
        <time>2023-09-02T13:40:31.000Z</time>
      </trkpt>
      <trkpt lat="45.89386" lon="4.84362">
        <ele>295.34595</ele>
        <time>2023-09-02T13:40:32.000Z</time>
      </trkpt>
      <trkpt lat="45.89384" lon="4.84365">
        <ele>295.41083</ele>
        <time>2023-09-02T13:40:33.000Z</time>
      </trkpt>
      <trkpt lat="45.89381" lon="4.84368">
        <ele>295.47418</ele>
        <time>2023-09-02T13:40:34.000Z</time>
      </trkpt>
      <trkpt lat="45.89379" lon="4.8437">
        <ele>295.53375</ele>
        <time>2023-09-02T13:40:35.000Z</time>
      </trkpt>
      <trkpt lat="45.89377" lon="4.84373">
        <ele>295.60562</ele>
        <time>2023-09-02T13:40:36.000Z</time>
      </trkpt>
      <trkpt lat="45.89374" lon="4.84376">
        <ele>295.6897</ele>
        <time>2023-09-02T13:40:37.000Z</time>
      </trkpt>
      <trkpt lat="45.89371" lon="4.84377">
        <ele>295.77328</ele>
        <time>2023-09-02T13:40:38.000Z</time>
      </trkpt>
      <trkpt lat="45.89369" lon="4.84378">
        <ele>295.85217</ele>
        <time>2023-09-02T13:40:39.000Z</time>
      </trkpt>
      <trkpt lat="45.89366" lon="4.8438">
        <ele>295.92548</ele>
        <time>2023-09-02T13:40:41.000Z</time>
      </trkpt>
      <trkpt lat="45.89365" lon="4.84383">
        <ele>295.98135</ele>
        <time>2023-09-02T13:40:42.000Z</time>
      </trkpt>
      <trkpt lat="45.89364" lon="4.84388">
        <ele>296.00717</ele>
        <time>2023-09-02T13:40:43.000Z</time>
      </trkpt>
      <trkpt lat="45.89362" lon="4.84391">
        <ele>296.04037</ele>
        <time>2023-09-02T13:40:44.000Z</time>
      </trkpt>
      <trkpt lat="45.8936" lon="4.84394">
        <ele>296.06866</ele>
        <time>2023-09-02T13:40:45.000Z</time>
      </trkpt>
      <trkpt lat="45.89357" lon="4.84396">
        <ele>296.07834</ele>
        <time>2023-09-02T13:40:46.000Z</time>
      </trkpt>
      <trkpt lat="45.89355" lon="4.84399">
        <ele>296.08746</ele>
        <time>2023-09-02T13:40:47.000Z</time>
      </trkpt>
      <trkpt lat="45.89353" lon="4.84401">
        <ele>296.10489</ele>
        <time>2023-09-02T13:40:48.000Z</time>
      </trkpt>
      <trkpt lat="45.8935" lon="4.84405">
        <ele>296.12836</ele>
        <time>2023-09-02T13:40:49.000Z</time>
      </trkpt>
      <trkpt lat="45.89348" lon="4.84408">
        <ele>296.16522</ele>
        <time>2023-09-02T13:40:50.000Z</time>
      </trkpt>
      <trkpt lat="45.89345" lon="4.84411">
        <ele>296.20453</ele>
        <time>2023-09-02T13:40:51.000Z</time>
      </trkpt>
      <trkpt lat="45.89343" lon="4.84414">
        <ele>296.22147</ele>
        <time>2023-09-02T13:40:52.000Z</time>
      </trkpt>
      <trkpt lat="45.8934" lon="4.84417">
        <ele>296.22769</ele>
        <time>2023-09-02T13:40:53.000Z</time>
      </trkpt>
      <trkpt lat="45.89338" lon="4.84421">
        <ele>296.21603</ele>
        <time>2023-09-02T13:40:54.000Z</time>
      </trkpt>
      <trkpt lat="45.89335" lon="4.84424">
        <ele>296.22443</ele>
        <time>2023-09-02T13:40:55.000Z</time>
      </trkpt>
      <trkpt lat="45.89333" lon="4.84427">
        <ele>296.21829</ele>
        <time>2023-09-02T13:40:56.000Z</time>
      </trkpt>
      <trkpt lat="45.8933" lon="4.8443">
        <ele>296.23346</ele>
        <time>2023-09-02T13:40:57.000Z</time>
      </trkpt>
      <trkpt lat="45.89328" lon="4.84434">
        <ele>296.24945</ele>
        <time>2023-09-02T13:40:58.000Z</time>
      </trkpt>
      <trkpt lat="45.89325" lon="4.84437">
        <ele>296.28802</ele>
        <time>2023-09-02T13:40:59.000Z</time>
      </trkpt>
      <trkpt lat="45.89323" lon="4.8444">
        <ele>296.31854</ele>
        <time>2023-09-02T13:41:00.000Z</time>
      </trkpt>
      <trkpt lat="45.89321" lon="4.84443">
        <ele>296.35977</ele>
        <time>2023-09-02T13:41:01.000Z</time>
      </trkpt>
      <trkpt lat="45.89318" lon="4.84446">
        <ele>296.4545</ele>
        <time>2023-09-02T13:41:02.000Z</time>
      </trkpt>
      <trkpt lat="45.89315" lon="4.84449">
        <ele>296.55902</ele>
        <time>2023-09-02T13:41:03.000Z</time>
      </trkpt>
      <trkpt lat="45.89313" lon="4.84452">
        <ele>296.66077</ele>
        <time>2023-09-02T13:41:04.000Z</time>
      </trkpt>
      <trkpt lat="45.8931" lon="4.84455">
        <ele>296.77237</ele>
        <time>2023-09-02T13:41:05.000Z</time>
      </trkpt>
      <trkpt lat="45.89307" lon="4.84459">
        <ele>296.87088</ele>
        <time>2023-09-02T13:41:06.000Z</time>
      </trkpt>
      <trkpt lat="45.89304" lon="4.84462">
        <ele>296.99667</ele>
        <time>2023-09-02T13:41:07.000Z</time>
      </trkpt>
      <trkpt lat="45.89301" lon="4.84465">
        <ele>297.10361</ele>
        <time>2023-09-02T13:41:08.000Z</time>
      </trkpt>
      <trkpt lat="45.89298" lon="4.84468">
        <ele>297.20908</ele>
        <time>2023-09-02T13:41:09.000Z</time>
      </trkpt>
      <trkpt lat="45.89295" lon="4.84471">
        <ele>297.31781</ele>
        <time>2023-09-02T13:41:10.000Z</time>
      </trkpt>
      <trkpt lat="45.89292" lon="4.84474">
        <ele>297.41809</ele>
        <time>2023-09-02T13:41:11.000Z</time>
      </trkpt>
      <trkpt lat="45.8929" lon="4.84476">
        <ele>297.51523</ele>
        <time>2023-09-02T13:41:12.000Z</time>
      </trkpt>
      <trkpt lat="45.89287" lon="4.84478">
        <ele>297.59009</ele>
        <time>2023-09-02T13:41:13.000Z</time>
      </trkpt>
      <trkpt lat="45.89284" lon="4.84481">
        <ele>297.67792</ele>
        <time>2023-09-02T13:41:14.000Z</time>
      </trkpt>
      <trkpt lat="45.8928" lon="4.84483">
        <ele>297.73935</ele>
        <time>2023-09-02T13:41:15.000Z</time>
      </trkpt>
      <trkpt lat="45.89277" lon="4.84486">
        <ele>297.78299</ele>
        <time>2023-09-02T13:41:16.000Z</time>
      </trkpt>
      <trkpt lat="45.89274" lon="4.84489">
        <ele>297.76987</ele>
        <time>2023-09-02T13:41:17.000Z</time>
      </trkpt>
      <trkpt lat="45.89272" lon="4.84492">
        <ele>297.77399</ele>
        <time>2023-09-02T13:41:18.000Z</time>
      </trkpt>
      <trkpt lat="45.89269" lon="4.84495">
        <ele>297.78204</ele>
        <time>2023-09-02T13:41:19.000Z</time>
      </trkpt>
      <trkpt lat="45.89266" lon="4.84497">
        <ele>297.82071</ele>
        <time>2023-09-02T13:41:20.000Z</time>
      </trkpt>
      <trkpt lat="45.89263" lon="4.845">
        <ele>297.8511</ele>
        <time>2023-09-02T13:41:21.000Z</time>
      </trkpt>
      <trkpt lat="45.89261" lon="4.84503">
        <ele>297.85004</ele>
        <time>2023-09-02T13:41:22.000Z</time>
      </trkpt>
      <trkpt lat="45.89258" lon="4.84506">
        <ele>297.86646</ele>
        <time>2023-09-02T13:41:23.000Z</time>
      </trkpt>
      <trkpt lat="45.89255" lon="4.84509">
        <ele>297.91022</ele>
        <time>2023-09-02T13:41:24.000Z</time>
      </trkpt>
      <trkpt lat="45.89253" lon="4.84512">
        <ele>297.94031</ele>
        <time>2023-09-02T13:41:25.000Z</time>
      </trkpt>
      <trkpt lat="45.89251" lon="4.84515">
        <ele>298.01718</ele>
        <time>2023-09-02T13:41:26.000Z</time>
      </trkpt>
      <trkpt lat="45.89249" lon="4.84518">
        <ele>298.06464</ele>
        <time>2023-09-02T13:41:27.000Z</time>
      </trkpt>
      <trkpt lat="45.89248" lon="4.84521">
        <ele>298.14136</ele>
        <time>2023-09-02T13:41:28.000Z</time>
      </trkpt>
      <trkpt lat="45.89248" lon="4.84525">
        <ele>298.21817</ele>
        <time>2023-09-02T13:41:29.000Z</time>
      </trkpt>
      <trkpt lat="45.89247" lon="4.8453">
        <ele>298.26471</ele>
        <time>2023-09-02T13:41:30.000Z</time>
      </trkpt>
      <trkpt lat="45.89248" lon="4.84534">
        <ele>298.26541</ele>
        <time>2023-09-02T13:41:31.000Z</time>
      </trkpt>
      <trkpt lat="45.89248" lon="4.84538">
        <ele>298.26578</ele>
        <time>2023-09-02T13:41:32.000Z</time>
      </trkpt>
      <trkpt lat="45.89248" lon="4.84542">
        <ele>298.28549</ele>
        <time>2023-09-02T13:41:33.000Z</time>
      </trkpt>
      <trkpt lat="45.89248" lon="4.84546">
        <ele>298.30829</ele>
        <time>2023-09-02T13:41:34.000Z</time>
      </trkpt>
      <trkpt lat="45.89247" lon="4.84551">
        <ele>298.32932</ele>
        <time>2023-09-02T13:41:35.000Z</time>
      </trkpt>
      <trkpt lat="45.89247" lon="4.84555">
        <ele>298.37042</ele>
        <time>2023-09-02T13:41:36.000Z</time>
      </trkpt>
      <trkpt lat="45.89247" lon="4.84559">
        <ele>298.39969</ele>
        <time>2023-09-02T13:41:37.000Z</time>
      </trkpt>
      <trkpt lat="45.89246" lon="4.84563">
        <ele>298.39539</ele>
        <time>2023-09-02T13:41:38.000Z</time>
      </trkpt>
      <trkpt lat="45.89246" lon="4.84567">
        <ele>298.33759</ele>
        <time>2023-09-02T13:41:39.000Z</time>
      </trkpt>
      <trkpt lat="45.89245" lon="4.84571">
        <ele>298.30698</ele>
        <time>2023-09-02T13:41:40.000Z</time>
      </trkpt>
      <trkpt lat="45.89245" lon="4.84575">
        <ele>298.29901</ele>
        <time>2023-09-02T13:41:41.000Z</time>
      </trkpt>
      <trkpt lat="45.89244" lon="4.84579">
        <ele>298.31659</ele>
        <time>2023-09-02T13:41:42.000Z</time>
      </trkpt>
      <trkpt lat="45.89244" lon="4.84584">
        <ele>298.30618</ele>
        <time>2023-09-02T13:41:43.000Z</time>
      </trkpt>
      <trkpt lat="45.89243" lon="4.84588">
        <ele>298.27884</ele>
        <time>2023-09-02T13:41:44.000Z</time>
      </trkpt>
      <trkpt lat="45.89243" lon="4.84592">
        <ele>298.25851</ele>
        <time>2023-09-02T13:41:45.000Z</time>
      </trkpt>
      <trkpt lat="45.89243" lon="4.84597">
        <ele>298.24765</ele>
        <time>2023-09-02T13:41:46.000Z</time>
      </trkpt>
      <trkpt lat="45.89242" lon="4.84602">
        <ele>298.25278</ele>
        <time>2023-09-02T13:41:47.000Z</time>
      </trkpt>
      <trkpt lat="45.89242" lon="4.84606">
        <ele>298.26334</ele>
        <time>2023-09-02T13:41:48.000Z</time>
      </trkpt>
      <trkpt lat="45.89242" lon="4.84611">
        <ele>298.29843</ele>
        <time>2023-09-02T13:41:49.000Z</time>
      </trkpt>
      <trkpt lat="45.89241" lon="4.84615">
        <ele>298.37833</ele>
        <time>2023-09-02T13:41:50.000Z</time>
      </trkpt>
      <trkpt lat="45.8924" lon="4.8462">
        <ele>298.5004</ele>
        <time>2023-09-02T13:41:51.000Z</time>
      </trkpt>
      <trkpt lat="45.8924" lon="4.84626">
        <ele>298.64691</ele>
        <time>2023-09-02T13:41:52.000Z</time>
      </trkpt>
      <trkpt lat="45.89239" lon="4.84631">
        <ele>298.9256</ele>
        <time>2023-09-02T13:41:53.000Z</time>
      </trkpt>
      <trkpt lat="45.89238" lon="4.84636">
        <ele>299.20496</ele>
        <time>2023-09-02T13:41:54.000Z</time>
      </trkpt>
      <trkpt lat="45.89238" lon="4.84641">
        <ele>299.50085</ele>
        <time>2023-09-02T13:41:55.000Z</time>
      </trkpt>
      <trkpt lat="45.89237" lon="4.84646">
        <ele>299.84113</ele>
        <time>2023-09-02T13:41:56.000Z</time>
      </trkpt>
      <trkpt lat="45.89237" lon="4.84651">
        <ele>300.2348</ele>
        <time>2023-09-02T13:41:57.000Z</time>
      </trkpt>
      <trkpt lat="45.89236" lon="4.84655">
        <ele>300.64276</ele>
        <time>2023-09-02T13:41:58.000Z</time>
      </trkpt>
      <trkpt lat="45.89235" lon="4.84661">
        <ele>299.94147</ele>
        <time>2023-09-02T13:41:59.000Z</time>
      </trkpt>
      <trkpt lat="45.89235" lon="4.84666">
        <ele>299.1933</ele>
        <time>2023-09-02T13:42:00.000Z</time>
      </trkpt>
      <trkpt lat="45.89234" lon="4.84672">
        <ele>298.43793</ele>
        <time>2023-09-02T13:42:01.000Z</time>
      </trkpt>
      <trkpt lat="45.89234" lon="4.84677">
        <ele>297.45209</ele>
        <time>2023-09-02T13:42:02.000Z</time>
      </trkpt>
      <trkpt lat="45.89234" lon="4.84682">
        <ele>297.08978</ele>
        <time>2023-09-02T13:42:03.000Z</time>
      </trkpt>
      <trkpt lat="45.89234" lon="4.84686">
        <ele>296.63257</ele>
        <time>2023-09-02T13:42:04.000Z</time>
      </trkpt>
      <trkpt lat="45.89234" lon="4.84691">
        <ele>296.16934</ele>
        <time>2023-09-02T13:42:05.000Z</time>
      </trkpt>
      <trkpt lat="45.89233" lon="4.84697">
        <ele>295.66864</ele>
        <time>2023-09-02T13:42:06.000Z</time>
      </trkpt>
      <trkpt lat="45.89233" lon="4.84702">
        <ele>295.16766</ele>
        <time>2023-09-02T13:42:07.000Z</time>
      </trkpt>
      <trkpt lat="45.89232" lon="4.84707">
        <ele>294.66586</ele>
        <time>2023-09-02T13:42:08.000Z</time>
      </trkpt>
      <trkpt lat="45.89233" lon="4.84712">
        <ele>294.17001</ele>
        <time>2023-09-02T13:42:09.000Z</time>
      </trkpt>
      <trkpt lat="45.89233" lon="4.84717">
        <ele>293.6752</ele>
        <time>2023-09-02T13:42:10.000Z</time>
      </trkpt>
      <trkpt lat="45.89233" lon="4.84723">
        <ele>293.21161</ele>
        <time>2023-09-02T13:42:11.000Z</time>
      </trkpt>
      <trkpt lat="45.89233" lon="4.84728">
        <ele>292.75717</ele>
        <time>2023-09-02T13:42:12.000Z</time>
      </trkpt>
      <trkpt lat="45.89234" lon="4.84733">
        <ele>292.19794</ele>
        <time>2023-09-02T13:42:13.000Z</time>
      </trkpt>
      <trkpt lat="45.89234" lon="4.84739">
        <ele>291.63132</ele>
        <time>2023-09-02T13:42:14.000Z</time>
      </trkpt>
      <trkpt lat="45.89235" lon="4.84744">
        <ele>291.07126</ele>
        <time>2023-09-02T13:42:15.000Z</time>
      </trkpt>
      <trkpt lat="45.89236" lon="4.84749">
        <ele>290.48251</ele>
        <time>2023-09-02T13:42:16.000Z</time>
      </trkpt>
      <trkpt lat="45.89237" lon="4.84753">
        <ele>289.57239</ele>
        <time>2023-09-02T13:42:17.000Z</time>
      </trkpt>
      <trkpt lat="45.89239" lon="4.84758">
        <ele>288.42905</ele>
        <time>2023-09-02T13:42:18.000Z</time>
      </trkpt>
      <trkpt lat="45.89241" lon="4.84762">
        <ele>289.66022</ele>
        <time>2023-09-02T13:42:19.000Z</time>
      </trkpt>
      <trkpt lat="45.89243" lon="4.84766">
        <ele>291.08487</ele>
        <time>2023-09-02T13:42:20.000Z</time>
      </trkpt>
      <trkpt lat="45.89245" lon="4.84769">
        <ele>292.46008</ele>
        <time>2023-09-02T13:42:21.000Z</time>
      </trkpt>
      <trkpt lat="45.89248" lon="4.84772">
        <ele>294.04938</ele>
        <time>2023-09-02T13:42:22.000Z</time>
      </trkpt>
      <trkpt lat="45.8925" lon="4.84775">
        <ele>295.03879</ele>
        <time>2023-09-02T13:42:23.000Z</time>
      </trkpt>
      <trkpt lat="45.89253" lon="4.84779">
        <ele>295.34601</ele>
        <time>2023-09-02T13:42:24.000Z</time>
      </trkpt>
      <trkpt lat="45.89256" lon="4.84782">
        <ele>295.66962</ele>
        <time>2023-09-02T13:42:25.000Z</time>
      </trkpt>
      <trkpt lat="45.89259" lon="4.84785">
        <ele>296.00949</ele>
        <time>2023-09-02T13:42:26.000Z</time>
      </trkpt>
      <trkpt lat="45.89262" lon="4.84788">
        <ele>296.34061</ele>
        <time>2023-09-02T13:42:27.000Z</time>
      </trkpt>
      <trkpt lat="45.89265" lon="4.84791">
        <ele>296.65302</ele>
        <time>2023-09-02T13:42:28.000Z</time>
      </trkpt>
      <trkpt lat="45.89268" lon="4.84794">
        <ele>297.02182</ele>
        <time>2023-09-02T13:42:29.000Z</time>
      </trkpt>
      <trkpt lat="45.89271" lon="4.84797">
        <ele>297.3194</ele>
        <time>2023-09-02T13:42:30.000Z</time>
      </trkpt>
      <trkpt lat="45.89274" lon="4.848">
        <ele>297.26273</ele>
        <time>2023-09-02T13:42:31.000Z</time>
      </trkpt>
      <trkpt lat="45.89277" lon="4.84803">
        <ele>297.21365</ele>
        <time>2023-09-02T13:42:32.000Z</time>
      </trkpt>
      <trkpt lat="45.8928" lon="4.84806">
        <ele>297.1333</ele>
        <time>2023-09-02T13:42:33.000Z</time>
      </trkpt>
      <trkpt lat="45.89283" lon="4.84808">
        <ele>297.05075</ele>
        <time>2023-09-02T13:42:34.000Z</time>
      </trkpt>
      <trkpt lat="45.89286" lon="4.8481">
        <ele>296.6745</ele>
        <time>2023-09-02T13:42:35.000Z</time>
      </trkpt>
      <trkpt lat="45.89289" lon="4.84813">
        <ele>296.63544</ele>
        <time>2023-09-02T13:42:36.000Z</time>
      </trkpt>
      <trkpt lat="45.89292" lon="4.84815">
        <ele>296.82208</ele>
        <time>2023-09-02T13:42:37.000Z</time>
      </trkpt>
      <trkpt lat="45.89295" lon="4.84818">
        <ele>297.2486</ele>
        <time>2023-09-02T13:42:38.000Z</time>
      </trkpt>
      <trkpt lat="45.89298" lon="4.84821">
        <ele>296.48178</ele>
        <time>2023-09-02T13:42:39.000Z</time>
      </trkpt>
      <trkpt lat="45.893" lon="4.84823">
        <ele>295.51813</ele>
        <time>2023-09-02T13:42:40.000Z</time>
      </trkpt>
      <trkpt lat="45.89303" lon="4.84826">
        <ele>294.60828</ele>
        <time>2023-09-02T13:42:41.000Z</time>
      </trkpt>
      <trkpt lat="45.89306" lon="4.84829">
        <ele>293.72308</ele>
        <time>2023-09-02T13:42:42.000Z</time>
      </trkpt>
      <trkpt lat="45.89308" lon="4.84832">
        <ele>292.80908</ele>
        <time>2023-09-02T13:42:43.000Z</time>
      </trkpt>
      <trkpt lat="45.89311" lon="4.84836">
        <ele>292.70978</ele>
        <time>2023-09-02T13:42:44.000Z</time>
      </trkpt>
      <trkpt lat="45.89313" lon="4.84839">
        <ele>292.5954</ele>
        <time>2023-09-02T13:42:45.000Z</time>
      </trkpt>
      <trkpt lat="45.89316" lon="4.84842">
        <ele>292.50034</ele>
        <time>2023-09-02T13:42:46.000Z</time>
      </trkpt>
      <trkpt lat="45.89319" lon="4.84845">
        <ele>292.42523</ele>
        <time>2023-09-02T13:42:47.000Z</time>
      </trkpt>
      <trkpt lat="45.89322" lon="4.84847">
        <ele>292.37085</ele>
        <time>2023-09-02T13:42:48.000Z</time>
      </trkpt>
      <trkpt lat="45.89324" lon="4.8485">
        <ele>292.23334</ele>
        <time>2023-09-02T13:42:49.000Z</time>
      </trkpt>
      <trkpt lat="45.89326" lon="4.84852">
        <ele>292.17633</ele>
        <time>2023-09-02T13:42:50.000Z</time>
      </trkpt>
      <trkpt lat="45.89329" lon="4.84855">
        <ele>292.4632</ele>
        <time>2023-09-02T13:42:51.000Z</time>
      </trkpt>
      <trkpt lat="45.89331" lon="4.84858">
        <ele>292.76547</ele>
        <time>2023-09-02T13:42:52.000Z</time>
      </trkpt>
      <trkpt lat="45.89334" lon="4.8486">
        <ele>293.07471</ele>
        <time>2023-09-02T13:42:53.000Z</time>
      </trkpt>
      <trkpt lat="45.89336" lon="4.84863">
        <ele>293.37399</ele>
        <time>2023-09-02T13:42:54.000Z</time>
      </trkpt>
      <trkpt lat="45.89338" lon="4.84865">
        <ele>295.04791</ele>
        <time>2023-09-02T13:42:55.000Z</time>
      </trkpt>
      <trkpt lat="45.89339" lon="4.84868">
        <ele>296.379</ele>
        <time>2023-09-02T13:42:56.000Z</time>
      </trkpt>
      <trkpt lat="45.89341" lon="4.8487">
        <ele>298.08945</ele>
        <time>2023-09-02T13:42:57.000Z</time>
      </trkpt>
      <trkpt lat="45.89343" lon="4.84872">
        <ele>299.71747</ele>
        <time>2023-09-02T13:42:58.000Z</time>
      </trkpt>
      <trkpt lat="45.89345" lon="4.84875">
        <ele>301.33755</ele>
        <time>2023-09-02T13:42:59.000Z</time>
      </trkpt>
      <trkpt lat="45.89347" lon="4.84877">
        <ele>302.97626</ele>
        <time>2023-09-02T13:43:00.000Z</time>
      </trkpt>
      <trkpt lat="45.89349" lon="4.84879">
        <ele>304.59637</ele>
        <time>2023-09-02T13:43:01.000Z</time>
      </trkpt>
      <trkpt lat="45.89351" lon="4.84882">
        <ele>306.21652</ele>
        <time>2023-09-02T13:43:02.000Z</time>
      </trkpt>
      <trkpt lat="45.89353" lon="4.84884">
        <ele>307.86893</ele>
        <time>2023-09-02T13:43:03.000Z</time>
      </trkpt>
      <trkpt lat="45.89354" lon="4.84886">
        <ele>309.49176</ele>
        <time>2023-09-02T13:43:04.000Z</time>
      </trkpt>
      <trkpt lat="45.89356" lon="4.84888">
        <ele>311.11075</ele>
        <time>2023-09-02T13:43:05.000Z</time>
      </trkpt>
      <trkpt lat="45.89358" lon="4.84891">
        <ele>312.69952</ele>
        <time>2023-09-02T13:43:06.000Z</time>
      </trkpt>
      <trkpt lat="45.89359" lon="4.84893">
        <ele>314.29288</ele>
        <time>2023-09-02T13:43:07.000Z</time>
      </trkpt>
      <trkpt lat="45.89361" lon="4.84895">
        <ele>315.86273</ele>
        <time>2023-09-02T13:43:08.000Z</time>
      </trkpt>
      <trkpt lat="45.89362" lon="4.84898">
        <ele>317.44647</ele>
        <time>2023-09-02T13:43:09.000Z</time>
      </trkpt>
      <trkpt lat="45.89364" lon="4.849">
        <ele>319.01166</ele>
        <time>2023-09-02T13:43:10.000Z</time>
      </trkpt>
      <trkpt lat="45.89366" lon="4.84902">
        <ele>320.57758</ele>
        <time>2023-09-02T13:43:11.000Z</time>
      </trkpt>
      <trkpt lat="45.89368" lon="4.84904">
        <ele>322.12503</ele>
        <time>2023-09-02T13:43:12.000Z</time>
      </trkpt>
      <trkpt lat="45.8937" lon="4.84906">
        <ele>323.66772</ele>
        <time>2023-09-02T13:43:13.000Z</time>
      </trkpt>
      <trkpt lat="45.89372" lon="4.84908">
        <ele>325.22473</ele>
        <time>2023-09-02T13:43:14.000Z</time>
      </trkpt>
      <trkpt lat="45.89373" lon="4.84911">
        <ele>325.67999</ele>
        <time>2023-09-02T13:43:15.000Z</time>
      </trkpt>
      <trkpt lat="45.89375" lon="4.84913">
        <ele>326.1019</ele>
        <time>2023-09-02T13:43:16.000Z</time>
      </trkpt>
      <trkpt lat="45.89377" lon="4.84915">
        <ele>326.25021</ele>
        <time>2023-09-02T13:43:17.000Z</time>
      </trkpt>
      <trkpt lat="45.89379" lon="4.84917">
        <ele>326.30121</ele>
        <time>2023-09-02T13:43:18.000Z</time>
      </trkpt>
      <trkpt lat="45.89381" lon="4.84918">
        <ele>326.21329</ele>
        <time>2023-09-02T13:43:19.000Z</time>
      </trkpt>
      <trkpt lat="45.89383" lon="4.8492">
        <ele>326.11899</ele>
        <time>2023-09-02T13:43:20.000Z</time>
      </trkpt>
      <trkpt lat="45.89384" lon="4.84923">
        <ele>326.41891</ele>
        <time>2023-09-02T13:43:21.000Z</time>
      </trkpt>
      <trkpt lat="45.89386" lon="4.84925">
        <ele>326.62115</ele>
        <time>2023-09-02T13:43:22.000Z</time>
      </trkpt>
      <trkpt lat="45.89388" lon="4.84927">
        <ele>326.80261</ele>
        <time>2023-09-02T13:43:23.000Z</time>
      </trkpt>
      <trkpt lat="45.8939" lon="4.84929">
        <ele>326.9696</ele>
        <time>2023-09-02T13:43:24.000Z</time>
      </trkpt>
      <trkpt lat="45.89392" lon="4.84931">
        <ele>327.13901</ele>
        <time>2023-09-02T13:43:25.000Z</time>
      </trkpt>
      <trkpt lat="45.89394" lon="4.84933">
        <ele>327.30573</ele>
        <time>2023-09-02T13:43:26.000Z</time>
      </trkpt>
      <trkpt lat="45.89396" lon="4.84935">
        <ele>327.45456</ele>
        <time>2023-09-02T13:43:27.000Z</time>
      </trkpt>
      <trkpt lat="45.89398" lon="4.84937">
        <ele>327.61957</ele>
        <time>2023-09-02T13:43:28.000Z</time>
      </trkpt>
      <trkpt lat="45.89399" lon="4.84939">
        <ele>327.7561</ele>
        <time>2023-09-02T13:43:29.000Z</time>
      </trkpt>
      <trkpt lat="45.89401" lon="4.84941">
        <ele>327.88202</ele>
        <time>2023-09-02T13:43:30.000Z</time>
      </trkpt>
      <trkpt lat="45.89403" lon="4.84944">
        <ele>327.99509</ele>
        <time>2023-09-02T13:43:31.000Z</time>
      </trkpt>
      <trkpt lat="45.89404" lon="4.84947">
        <ele>328.10892</ele>
        <time>2023-09-02T13:43:32.000Z</time>
      </trkpt>
      <trkpt lat="45.89405" lon="4.8495">
        <ele>328.20868</ele>
        <time>2023-09-02T13:43:33.000Z</time>
      </trkpt>
      <trkpt lat="45.89406" lon="4.84954">
        <ele>328.30176</ele>
        <time>2023-09-02T13:43:34.000Z</time>
      </trkpt>
      <trkpt lat="45.89407" lon="4.84957">
        <ele>328.40881</ele>
        <time>2023-09-02T13:43:35.000Z</time>
      </trkpt>
      <trkpt lat="45.89409" lon="4.84961">
        <ele>328.53937</ele>
        <time>2023-09-02T13:43:36.000Z</time>
      </trkpt>
      <trkpt lat="45.8941" lon="4.84965">
        <ele>328.66016</ele>
        <time>2023-09-02T13:43:37.000Z</time>
      </trkpt>
      <trkpt lat="45.89411" lon="4.84968">
        <ele>328.94644</ele>
        <time>2023-09-02T13:43:38.000Z</time>
      </trkpt>
      <trkpt lat="45.89412" lon="4.84972">
        <ele>329.36234</ele>
        <time>2023-09-02T13:43:39.000Z</time>
      </trkpt>
      <trkpt lat="45.89414" lon="4.84976">
        <ele>329.759</ele>
        <time>2023-09-02T13:43:40.000Z</time>
      </trkpt>
      <trkpt lat="45.89415" lon="4.8498">
        <ele>329.76004</ele>
        <time>2023-09-02T13:43:41.000Z</time>
      </trkpt>
      <trkpt lat="45.89416" lon="4.84983">
        <ele>329.84601</ele>
        <time>2023-09-02T13:43:42.000Z</time>
      </trkpt>
      <trkpt lat="45.89417" lon="4.84987">
        <ele>329.94681</ele>
        <time>2023-09-02T13:43:43.000Z</time>
      </trkpt>
      <trkpt lat="45.89419" lon="4.84991">
        <ele>330.04306</ele>
        <time>2023-09-02T13:43:44.000Z</time>
      </trkpt>
      <trkpt lat="45.8942" lon="4.84995">
        <ele>329.92755</ele>
        <time>2023-09-02T13:43:45.000Z</time>
      </trkpt>
      <trkpt lat="45.89421" lon="4.85">
        <ele>329.81699</ele>
        <time>2023-09-02T13:43:46.000Z</time>
      </trkpt>
      <trkpt lat="45.89422" lon="4.85004">
        <ele>329.70856</ele>
        <time>2023-09-02T13:43:47.000Z</time>
      </trkpt>
      <trkpt lat="45.89423" lon="4.85007">
        <ele>329.59955</ele>
        <time>2023-09-02T13:43:48.000Z</time>
      </trkpt>
      <trkpt lat="45.89424" lon="4.85011">
        <ele>329.51456</ele>
        <time>2023-09-02T13:43:49.000Z</time>
      </trkpt>
      <trkpt lat="45.89426" lon="4.85015">
        <ele>329.42886</ele>
        <time>2023-09-02T13:43:50.000Z</time>
      </trkpt>
      <trkpt lat="45.89427" lon="4.85019">
        <ele>329.34131</ele>
        <time>2023-09-02T13:43:51.000Z</time>
      </trkpt>
      <trkpt lat="45.89428" lon="4.85023">
        <ele>329.25772</ele>
        <time>2023-09-02T13:43:52.000Z</time>
      </trkpt>
      <trkpt lat="45.89429" lon="4.85026">
        <ele>329.19055</ele>
        <time>2023-09-02T13:43:53.000Z</time>
      </trkpt>
      <trkpt lat="45.8943" lon="4.8503">
        <ele>329.11014</ele>
        <time>2023-09-02T13:43:54.000Z</time>
      </trkpt>
      <trkpt lat="45.89431" lon="4.85034">
        <ele>329.02936</ele>
        <time>2023-09-02T13:43:55.000Z</time>
      </trkpt>
      <trkpt lat="45.89432" lon="4.85037">
        <ele>328.92139</ele>
        <time>2023-09-02T13:43:56.000Z</time>
      </trkpt>
      <trkpt lat="45.89433" lon="4.85041">
        <ele>328.6676</ele>
        <time>2023-09-02T13:43:57.000Z</time>
      </trkpt>
      <trkpt lat="45.89434" lon="4.85045">
        <ele>328.40735</ele>
        <time>2023-09-02T13:43:58.000Z</time>
      </trkpt>
      <trkpt lat="45.89436" lon="4.85049">
        <ele>328.58002</ele>
        <time>2023-09-02T13:43:59.000Z</time>
      </trkpt>
      <trkpt lat="45.89437" lon="4.85053">
        <ele>328.69193</ele>
        <time>2023-09-02T13:44:00.000Z</time>
      </trkpt>
      <trkpt lat="45.89438" lon="4.85058">
        <ele>328.82538</ele>
        <time>2023-09-02T13:44:01.000Z</time>
      </trkpt>
      <trkpt lat="45.8944" lon="4.85062">
        <ele>328.92706</ele>
        <time>2023-09-02T13:44:02.000Z</time>
      </trkpt>
      <trkpt lat="45.89441" lon="4.85066">
        <ele>329.01697</ele>
        <time>2023-09-02T13:44:03.000Z</time>
      </trkpt>
      <trkpt lat="45.89443" lon="4.85071">
        <ele>329.10547</ele>
        <time>2023-09-02T13:44:04.000Z</time>
      </trkpt>
      <trkpt lat="45.89444" lon="4.85075">
        <ele>329.41232</ele>
        <time>2023-09-02T13:44:05.000Z</time>
      </trkpt>
      <trkpt lat="45.89445" lon="4.8508">
        <ele>329.6904</ele>
        <time>2023-09-02T13:44:06.000Z</time>
      </trkpt>
      <trkpt lat="45.89447" lon="4.85084">
        <ele>329.96564</ele>
        <time>2023-09-02T13:44:07.000Z</time>
      </trkpt>
      <trkpt lat="45.89449" lon="4.85088">
        <ele>330.22565</ele>
        <time>2023-09-02T13:44:08.000Z</time>
      </trkpt>
      <trkpt lat="45.89451" lon="4.85093">
        <ele>330.47076</ele>
        <time>2023-09-02T13:44:09.000Z</time>
      </trkpt>
      <trkpt lat="45.89452" lon="4.85097">
        <ele>330.71088</ele>
        <time>2023-09-02T13:44:10.000Z</time>
      </trkpt>
      <trkpt lat="45.89454" lon="4.85102">
        <ele>330.95264</ele>
        <time>2023-09-02T13:44:11.000Z</time>
      </trkpt>
      <trkpt lat="45.89455" lon="4.85107">
        <ele>331.17444</ele>
        <time>2023-09-02T13:44:12.000Z</time>
      </trkpt>
      <trkpt lat="45.89456" lon="4.85111">
        <ele>331.38333</ele>
        <time>2023-09-02T13:44:13.000Z</time>
      </trkpt>
      <trkpt lat="45.89458" lon="4.85116">
        <ele>331.59174</ele>
        <time>2023-09-02T13:44:14.000Z</time>
      </trkpt>
      <trkpt lat="45.89459" lon="4.85121">
        <ele>331.79504</ele>
        <time>2023-09-02T13:44:15.000Z</time>
      </trkpt>
      <trkpt lat="45.8946" lon="4.85127">
        <ele>332.01724</ele>
        <time>2023-09-02T13:44:16.000Z</time>
      </trkpt>
      <trkpt lat="45.89462" lon="4.85132">
        <ele>332.38425</ele>
        <time>2023-09-02T13:44:17.000Z</time>
      </trkpt>
      <trkpt lat="45.89464" lon="4.85137">
        <ele>332.56064</ele>
        <time>2023-09-02T13:44:18.000Z</time>
      </trkpt>
      <trkpt lat="45.89465" lon="4.85142">
        <ele>332.31155</ele>
        <time>2023-09-02T13:44:19.000Z</time>
      </trkpt>
      <trkpt lat="45.89467" lon="4.85146">
        <ele>332.13675</ele>
        <time>2023-09-02T13:44:20.000Z</time>
      </trkpt>
      <trkpt lat="45.89468" lon="4.85151">
        <ele>331.94897</ele>
        <time>2023-09-02T13:44:21.000Z</time>
      </trkpt>
      <trkpt lat="45.8947" lon="4.85156">
        <ele>331.77789</ele>
        <time>2023-09-02T13:44:22.000Z</time>
      </trkpt>
      <trkpt lat="45.89472" lon="4.85161">
        <ele>331.59961</ele>
        <time>2023-09-02T13:44:23.000Z</time>
      </trkpt>
      <trkpt lat="45.89473" lon="4.85166">
        <ele>331.42651</ele>
        <time>2023-09-02T13:44:24.000Z</time>
      </trkpt>
      <trkpt lat="45.89475" lon="4.85171">
        <ele>331.2338</ele>
        <time>2023-09-02T13:44:25.000Z</time>
      </trkpt>
      <trkpt lat="45.89477" lon="4.85176">
        <ele>331.07391</ele>
        <time>2023-09-02T13:44:26.000Z</time>
      </trkpt>
      <trkpt lat="45.89478" lon="4.85181">
        <ele>330.92642</ele>
        <time>2023-09-02T13:44:27.000Z</time>
      </trkpt>
      <trkpt lat="45.8948" lon="4.85186">
        <ele>330.78909</ele>
        <time>2023-09-02T13:44:28.000Z</time>
      </trkpt>
      <trkpt lat="45.89482" lon="4.85191">
        <ele>330.65887</ele>
        <time>2023-09-02T13:44:29.000Z</time>
      </trkpt>
      <trkpt lat="45.89483" lon="4.85195">
        <ele>330.54007</ele>
        <time>2023-09-02T13:44:30.000Z</time>
      </trkpt>
      <trkpt lat="45.89485" lon="4.852">
        <ele>330.26651</ele>
        <time>2023-09-02T13:44:31.000Z</time>
      </trkpt>
      <trkpt lat="45.89486" lon="4.85204">
        <ele>330.01581</ele>
        <time>2023-09-02T13:44:32.000Z</time>
      </trkpt>
      <trkpt lat="45.89488" lon="4.85208">
        <ele>329.7728</ele>
        <time>2023-09-02T13:44:33.000Z</time>
      </trkpt>
      <trkpt lat="45.89489" lon="4.85212">
        <ele>330.01251</ele>
        <time>2023-09-02T13:44:34.000Z</time>
      </trkpt>
      <trkpt lat="45.8949" lon="4.85216">
        <ele>330.19797</ele>
        <time>2023-09-02T13:44:35.000Z</time>
      </trkpt>
      <trkpt lat="45.89491" lon="4.8522">
        <ele>330.37949</ele>
        <time>2023-09-02T13:44:36.000Z</time>
      </trkpt>
      <trkpt lat="45.89492" lon="4.85224">
        <ele>330.56256</ele>
        <time>2023-09-02T13:44:37.000Z</time>
      </trkpt>
      <trkpt lat="45.89493" lon="4.85228">
        <ele>330.95062</ele>
        <time>2023-09-02T13:44:38.000Z</time>
      </trkpt>
      <trkpt lat="45.89494" lon="4.85233">
        <ele>331.33063</ele>
        <time>2023-09-02T13:44:39.000Z</time>
      </trkpt>
      <trkpt lat="45.89495" lon="4.85237">
        <ele>331.72141</ele>
        <time>2023-09-02T13:44:40.000Z</time>
      </trkpt>
      <trkpt lat="45.89495" lon="4.85242">
        <ele>332.10986</ele>
        <time>2023-09-02T13:44:41.000Z</time>
      </trkpt>
      <trkpt lat="45.89496" lon="4.85246">
        <ele>332.50458</ele>
        <time>2023-09-02T13:44:42.000Z</time>
      </trkpt>
      <trkpt lat="45.89496" lon="4.85251">
        <ele>332.93207</ele>
        <time>2023-09-02T13:44:43.000Z</time>
      </trkpt>
      <trkpt lat="45.89497" lon="4.85255">
        <ele>333.36215</ele>
        <time>2023-09-02T13:44:44.000Z</time>
      </trkpt>
      <trkpt lat="45.89498" lon="4.85259">
        <ele>333.78918</ele>
        <time>2023-09-02T13:44:45.000Z</time>
      </trkpt>
      <trkpt lat="45.89498" lon="4.85264">
        <ele>334.19009</ele>
        <time>2023-09-02T13:44:46.000Z</time>
      </trkpt>
      <trkpt lat="45.89499" lon="4.85268">
        <ele>334.56665</ele>
        <time>2023-09-02T13:44:47.000Z</time>
      </trkpt>
      <trkpt lat="45.89499" lon="4.85273">
        <ele>334.93796</ele>
        <time>2023-09-02T13:44:48.000Z</time>
      </trkpt>
      <trkpt lat="45.89499" lon="4.85278">
        <ele>335.31436</ele>
        <time>2023-09-02T13:44:49.000Z</time>
      </trkpt>
      <trkpt lat="45.895" lon="4.85283">
        <ele>335.69254</ele>
        <time>2023-09-02T13:44:50.000Z</time>
      </trkpt>
      <trkpt lat="45.89501" lon="4.85288">
        <ele>336.22491</ele>
        <time>2023-09-02T13:44:51.000Z</time>
      </trkpt>
      <trkpt lat="45.89502" lon="4.85293">
        <ele>336.73749</ele>
        <time>2023-09-02T13:44:52.000Z</time>
      </trkpt>
      <trkpt lat="45.89503" lon="4.85297">
        <ele>337.25748</ele>
        <time>2023-09-02T13:44:53.000Z</time>
      </trkpt>
      <trkpt lat="45.89504" lon="4.85302">
        <ele>337.29752</ele>
        <time>2023-09-02T13:44:54.000Z</time>
      </trkpt>
      <trkpt lat="45.89504" lon="4.85307">
        <ele>337.40375</ele>
        <time>2023-09-02T13:44:55.000Z</time>
      </trkpt>
      <trkpt lat="45.89505" lon="4.85312">
        <ele>337.51157</ele>
        <time>2023-09-02T13:44:56.000Z</time>
      </trkpt>
      <trkpt lat="45.89505" lon="4.85318">
        <ele>337.61227</ele>
        <time>2023-09-02T13:44:57.000Z</time>
      </trkpt>
      <trkpt lat="45.89505" lon="4.85323">
        <ele>337.70172</ele>
        <time>2023-09-02T13:44:58.000Z</time>
      </trkpt>
      <trkpt lat="45.89505" lon="4.85328">
        <ele>337.79483</ele>
        <time>2023-09-02T13:44:59.000Z</time>
      </trkpt>
      <trkpt lat="45.89505" lon="4.85333">
        <ele>337.87869</ele>
        <time>2023-09-02T13:45:00.000Z</time>
      </trkpt>
      <trkpt lat="45.89505" lon="4.85338">
        <ele>337.93683</ele>
        <time>2023-09-02T13:45:01.000Z</time>
      </trkpt>
      <trkpt lat="45.89506" lon="4.85342">
        <ele>337.98819</ele>
        <time>2023-09-02T13:45:02.000Z</time>
      </trkpt>
      <trkpt lat="45.89506" lon="4.85347">
        <ele>338.00571</ele>
        <time>2023-09-02T13:45:03.000Z</time>
      </trkpt>
      <trkpt lat="45.89506" lon="4.85351">
        <ele>338.02359</ele>
        <time>2023-09-02T13:45:04.000Z</time>
      </trkpt>
      <trkpt lat="45.89506" lon="4.85356">
        <ele>337.80878</ele>
        <time>2023-09-02T13:45:05.000Z</time>
      </trkpt>
      <trkpt lat="45.89506" lon="4.85359">
        <ele>337.6019</ele>
        <time>2023-09-02T13:45:06.000Z</time>
      </trkpt>
      <trkpt lat="45.89504" lon="4.8536">
        <ele>337.41132</ele>
        <time>2023-09-02T13:45:10.000Z</time>
      </trkpt>
      <trkpt lat="45.89503" lon="4.85364">
        <ele>338.21249</ele>
        <time>2023-09-02T13:45:28.000Z</time>
      </trkpt>
      <trkpt lat="45.89503" lon="4.85366">
        <ele>339.00473</ele>
        <time>2023-09-02T13:45:29.000Z</time>
      </trkpt>
      <trkpt lat="45.89504" lon="4.8537">
        <ele>339.78629</ele>
        <time>2023-09-02T13:45:30.000Z</time>
      </trkpt>
      <trkpt lat="45.89504" lon="4.85374">
        <ele>340.57224</ele>
        <time>2023-09-02T13:45:31.000Z</time>
      </trkpt>
      <trkpt lat="45.89505" lon="4.85378">
        <ele>341.3443</ele>
        <time>2023-09-02T13:45:32.000Z</time>
      </trkpt>
      <trkpt lat="45.89506" lon="4.85383">
        <ele>342.09637</ele>
        <time>2023-09-02T13:45:33.000Z</time>
      </trkpt>
      <trkpt lat="45.89507" lon="4.85388">
        <ele>342.8317</ele>
        <time>2023-09-02T13:45:34.000Z</time>
      </trkpt>
      <trkpt lat="45.89508" lon="4.85393">
        <ele>343.54056</ele>
        <time>2023-09-02T13:45:35.000Z</time>
      </trkpt>
      <trkpt lat="45.89509" lon="4.85397">
        <ele>344.24768</ele>
        <time>2023-09-02T13:45:36.000Z</time>
      </trkpt>
      <trkpt lat="45.8951" lon="4.854">
        <ele>344.94244</ele>
        <time>2023-09-02T13:45:37.000Z</time>
      </trkpt>
      <trkpt lat="45.89511" lon="4.85404">
        <ele>345.63452</ele>
        <time>2023-09-02T13:45:38.000Z</time>
      </trkpt>
      <trkpt lat="45.89512" lon="4.85408">
        <ele>346.31076</ele>
        <time>2023-09-02T13:45:39.000Z</time>
      </trkpt>
      <trkpt lat="45.89513" lon="4.85411">
        <ele>346.98819</ele>
        <time>2023-09-02T13:45:40.000Z</time>
      </trkpt>
      <trkpt lat="45.89515" lon="4.85412">
        <ele>347.68896</ele>
        <time>2023-09-02T13:45:50.000Z</time>
      </trkpt>
      <trkpt lat="45.89517" lon="4.85417">
        <ele>348.38385</ele>
        <time>2023-09-02T13:45:52.000Z</time>
      </trkpt>
      <trkpt lat="45.89518" lon="4.8542">
        <ele>349.07108</ele>
        <time>2023-09-02T13:45:53.000Z</time>
      </trkpt>
      <trkpt lat="45.8952" lon="4.85424">
        <ele>349.746</ele>
        <time>2023-09-02T13:45:54.000Z</time>
      </trkpt>
      <trkpt lat="45.89521" lon="4.85428">
        <ele>350.67606</ele>
        <time>2023-09-02T13:45:55.000Z</time>
      </trkpt>
      <trkpt lat="45.89522" lon="4.85431">
        <ele>351.61267</ele>
        <time>2023-09-02T13:45:56.000Z</time>
      </trkpt>
      <trkpt lat="45.89523" lon="4.85435">
        <ele>352.52979</ele>
        <time>2023-09-02T13:45:57.000Z</time>
      </trkpt>
      <trkpt lat="45.89524" lon="4.85438">
        <ele>352.44574</ele>
        <time>2023-09-02T13:45:58.000Z</time>
      </trkpt>
      <trkpt lat="45.89526" lon="4.85442">
        <ele>352.36264</ele>
        <time>2023-09-02T13:45:59.000Z</time>
      </trkpt>
      <trkpt lat="45.89527" lon="4.85446">
        <ele>352.28149</ele>
        <time>2023-09-02T13:46:00.000Z</time>
      </trkpt>
      <trkpt lat="45.89528" lon="4.8545">
        <ele>352.19083</ele>
        <time>2023-09-02T13:46:01.000Z</time>
      </trkpt>
      <trkpt lat="45.89529" lon="4.85454">
        <ele>352.12909</ele>
        <time>2023-09-02T13:46:02.000Z</time>
      </trkpt>
      <trkpt lat="45.8953" lon="4.85459">
        <ele>352.07559</ele>
        <time>2023-09-02T13:46:03.000Z</time>
      </trkpt>
      <trkpt lat="45.89531" lon="4.85463">
        <ele>352.05688</ele>
        <time>2023-09-02T13:46:04.000Z</time>
      </trkpt>
      <trkpt lat="45.89532" lon="4.85467">
        <ele>352.07346</ele>
        <time>2023-09-02T13:46:05.000Z</time>
      </trkpt>
      <trkpt lat="45.89532" lon="4.8547">
        <ele>352.07397</ele>
        <time>2023-09-02T13:46:06.000Z</time>
      </trkpt>
      <trkpt lat="45.89533" lon="4.85472">
        <ele>352.08344</ele>
        <time>2023-09-02T13:46:07.000Z</time>
      </trkpt>
      <trkpt lat="45.89534" lon="4.85474">
        <ele>352.09683</ele>
        <time>2023-09-02T13:46:08.000Z</time>
      </trkpt>
      <trkpt lat="45.89536" lon="4.85475">
        <ele>352.10803</ele>
        <time>2023-09-02T13:46:09.000Z</time>
      </trkpt>
      <trkpt lat="45.89538" lon="4.85477">
        <ele>352.09048</ele>
        <time>2023-09-02T13:46:10.000Z</time>
      </trkpt>
      <trkpt lat="45.89541" lon="4.85479">
        <ele>352.06802</ele>
        <time>2023-09-02T13:46:11.000Z</time>
      </trkpt>
      <trkpt lat="45.89543" lon="4.85483">
        <ele>352.04462</ele>
        <time>2023-09-02T13:46:12.000Z</time>
      </trkpt>
      <trkpt lat="45.89545" lon="4.85487">
        <ele>352.03912</ele>
        <time>2023-09-02T13:46:13.000Z</time>
      </trkpt>
      <trkpt lat="45.89547" lon="4.85491">
        <ele>352.0343</ele>
        <time>2023-09-02T13:46:14.000Z</time>
      </trkpt>
      <trkpt lat="45.89549" lon="4.85495">
        <ele>352.00977</ele>
        <time>2023-09-02T13:46:15.000Z</time>
      </trkpt>
      <trkpt lat="45.89551" lon="4.855">
        <ele>351.99075</ele>
        <time>2023-09-02T13:46:16.000Z</time>
      </trkpt>
      <trkpt lat="45.89553" lon="4.85505">
        <ele>351.97189</ele>
        <time>2023-09-02T13:46:17.000Z</time>
      </trkpt>
      <trkpt lat="45.89556" lon="4.85509">
        <ele>351.96619</ele>
        <time>2023-09-02T13:46:18.000Z</time>
      </trkpt>
      <trkpt lat="45.89558" lon="4.85514">
        <ele>351.95416</ele>
        <time>2023-09-02T13:46:19.000Z</time>
      </trkpt>
      <trkpt lat="45.89561" lon="4.85518">
        <ele>351.94293</ele>
        <time>2023-09-02T13:46:20.000Z</time>
      </trkpt>
      <trkpt lat="45.89564" lon="4.85522">
        <ele>351.94684</ele>
        <time>2023-09-02T13:46:21.000Z</time>
      </trkpt>
      <trkpt lat="45.89568" lon="4.85527">
        <ele>351.8996</ele>
        <time>2023-09-02T13:46:22.000Z</time>
      </trkpt>
      <trkpt lat="45.89571" lon="4.85532">
        <ele>351.85806</ele>
        <time>2023-09-02T13:46:23.000Z</time>
      </trkpt>
      <trkpt lat="45.89574" lon="4.85537">
        <ele>351.80597</ele>
        <time>2023-09-02T13:46:24.000Z</time>
      </trkpt>
      <trkpt lat="45.89578" lon="4.85541">
        <ele>351.73615</ele>
        <time>2023-09-02T13:46:25.000Z</time>
      </trkpt>
      <trkpt lat="45.89581" lon="4.85545">
        <ele>351.66217</ele>
        <time>2023-09-02T13:46:26.000Z</time>
      </trkpt>
      <trkpt lat="45.89585" lon="4.8555">
        <ele>351.60727</ele>
        <time>2023-09-02T13:46:27.000Z</time>
      </trkpt>
      <trkpt lat="45.89589" lon="4.85555">
        <ele>351.54129</ele>
        <time>2023-09-02T13:46:28.000Z</time>
      </trkpt>
      <trkpt lat="45.89593" lon="4.85559">
        <ele>351.46042</ele>
        <time>2023-09-02T13:46:29.000Z</time>
      </trkpt>
      <trkpt lat="45.89597" lon="4.85563">
        <ele>351.40457</ele>
        <time>2023-09-02T13:46:30.000Z</time>
      </trkpt>
      <trkpt lat="45.89601" lon="4.85568">
        <ele>351.3688</ele>
        <time>2023-09-02T13:46:31.000Z</time>
      </trkpt>
      <trkpt lat="45.89606" lon="4.85571">
        <ele>351.3573</ele>
        <time>2023-09-02T13:46:32.000Z</time>
      </trkpt>
      <trkpt lat="45.8961" lon="4.85574">
        <ele>351.34406</ele>
        <time>2023-09-02T13:46:33.000Z</time>
      </trkpt>
      <trkpt lat="45.89614" lon="4.85578">
        <ele>351.34613</ele>
        <time>2023-09-02T13:46:34.000Z</time>
      </trkpt>
      <trkpt lat="45.89618" lon="4.85582">
        <ele>351.35312</ele>
        <time>2023-09-02T13:46:35.000Z</time>
      </trkpt>
      <trkpt lat="45.89622" lon="4.85586">
        <ele>351.33521</ele>
        <time>2023-09-02T13:46:36.000Z</time>
      </trkpt>
      <trkpt lat="45.89625" lon="4.85591">
        <ele>351.34027</ele>
        <time>2023-09-02T13:46:37.000Z</time>
      </trkpt>
      <trkpt lat="45.8963" lon="4.85595">
        <ele>351.34232</ele>
        <time>2023-09-02T13:46:38.000Z</time>
      </trkpt>
      <trkpt lat="45.89634" lon="4.85599">
        <ele>351.30182</ele>
        <time>2023-09-02T13:46:39.000Z</time>
      </trkpt>
      <trkpt lat="45.89638" lon="4.85603">
        <ele>351.23981</ele>
        <time>2023-09-02T13:46:40.000Z</time>
      </trkpt>
      <trkpt lat="45.89643" lon="4.85608">
        <ele>351.17725</ele>
        <time>2023-09-02T13:46:41.000Z</time>
      </trkpt>
      <trkpt lat="45.89646" lon="4.85613">
        <ele>351.11191</ele>
        <time>2023-09-02T13:46:42.000Z</time>
      </trkpt>
      <trkpt lat="45.89651" lon="4.85618">
        <ele>351.05716</ele>
        <time>2023-09-02T13:46:43.000Z</time>
      </trkpt>
      <trkpt lat="45.89656" lon="4.85622">
        <ele>351.0166</ele>
        <time>2023-09-02T13:46:44.000Z</time>
      </trkpt>
      <trkpt lat="45.89661" lon="4.85626">
        <ele>350.98022</ele>
        <time>2023-09-02T13:46:45.000Z</time>
      </trkpt>
      <trkpt lat="45.89665" lon="4.8563">
        <ele>350.96973</ele>
        <time>2023-09-02T13:46:46.000Z</time>
      </trkpt>
      <trkpt lat="45.8967" lon="4.85633">
        <ele>350.92661</ele>
        <time>2023-09-02T13:46:47.000Z</time>
      </trkpt>
      <trkpt lat="45.89674" lon="4.85637">
        <ele>350.90466</ele>
        <time>2023-09-02T13:46:48.000Z</time>
      </trkpt>
      <trkpt lat="45.89679" lon="4.85641">
        <ele>350.8913</ele>
        <time>2023-09-02T13:46:49.000Z</time>
      </trkpt>
      <trkpt lat="45.89683" lon="4.85646">
        <ele>350.88794</ele>
        <time>2023-09-02T13:46:50.000Z</time>
      </trkpt>
      <trkpt lat="45.89689" lon="4.8565">
        <ele>350.85397</ele>
        <time>2023-09-02T13:46:51.000Z</time>
      </trkpt>
      <trkpt lat="45.89694" lon="4.85655">
        <ele>350.78928</ele>
        <time>2023-09-02T13:46:52.000Z</time>
      </trkpt>
      <trkpt lat="45.89699" lon="4.85661">
        <ele>350.72372</ele>
        <time>2023-09-02T13:46:53.000Z</time>
      </trkpt>
      <trkpt lat="45.89705" lon="4.85665">
        <ele>350.64151</ele>
        <time>2023-09-02T13:46:54.000Z</time>
      </trkpt>
      <trkpt lat="45.8971" lon="4.85671">
        <ele>350.5455</ele>
        <time>2023-09-02T13:46:55.000Z</time>
      </trkpt>
      <trkpt lat="45.89715" lon="4.85677">
        <ele>350.46106</ele>
        <time>2023-09-02T13:46:56.000Z</time>
      </trkpt>
      <trkpt lat="45.8972" lon="4.85682">
        <ele>350.36679</ele>
        <time>2023-09-02T13:46:57.000Z</time>
      </trkpt>
      <trkpt lat="45.89725" lon="4.85688">
        <ele>350.26578</ele>
        <time>2023-09-02T13:46:58.000Z</time>
      </trkpt>
      <trkpt lat="45.89729" lon="4.85695">
        <ele>350.18839</ele>
        <time>2023-09-02T13:46:59.000Z</time>
      </trkpt>
      <trkpt lat="45.89734" lon="4.85701">
        <ele>350.10977</ele>
        <time>2023-09-02T13:47:00.000Z</time>
      </trkpt>
      <trkpt lat="45.89738" lon="4.85707">
        <ele>350.00735</ele>
        <time>2023-09-02T13:47:01.000Z</time>
      </trkpt>
      <trkpt lat="45.89743" lon="4.85713">
        <ele>349.93692</ele>
        <time>2023-09-02T13:47:02.000Z</time>
      </trkpt>
      <trkpt lat="45.89747" lon="4.8572">
        <ele>349.8443</ele>
        <time>2023-09-02T13:47:03.000Z</time>
      </trkpt>
      <trkpt lat="45.89751" lon="4.85727">
        <ele>349.75122</ele>
        <time>2023-09-02T13:47:04.000Z</time>
      </trkpt>
      <trkpt lat="45.89755" lon="4.85733">
        <ele>349.64261</ele>
        <time>2023-09-02T13:47:05.000Z</time>
      </trkpt>
      <trkpt lat="45.89759" lon="4.8574">
        <ele>349.51855</ele>
        <time>2023-09-02T13:47:06.000Z</time>
      </trkpt>
      <trkpt lat="45.89763" lon="4.85746">
        <ele>349.40601</ele>
        <time>2023-09-02T13:47:07.000Z</time>
      </trkpt>
      <trkpt lat="45.89766" lon="4.85752">
        <ele>349.28671</ele>
        <time>2023-09-02T13:47:08.000Z</time>
      </trkpt>
      <trkpt lat="45.89769" lon="4.85758">
        <ele>349.18719</ele>
        <time>2023-09-02T13:47:09.000Z</time>
      </trkpt>
      <trkpt lat="45.89773" lon="4.85765">
        <ele>349.07111</ele>
        <time>2023-09-02T13:47:10.000Z</time>
      </trkpt>
      <trkpt lat="45.89777" lon="4.85772">
        <ele>348.98138</ele>
        <time>2023-09-02T13:47:11.000Z</time>
      </trkpt>
      <trkpt lat="45.89779" lon="4.85778">
        <ele>348.88934</ele>
        <time>2023-09-02T13:47:12.000Z</time>
      </trkpt>
      <trkpt lat="45.89782" lon="4.85785">
        <ele>348.78528</ele>
        <time>2023-09-02T13:47:13.000Z</time>
      </trkpt>
      <trkpt lat="45.89785" lon="4.85791">
        <ele>348.68863</ele>
        <time>2023-09-02T13:47:14.000Z</time>
      </trkpt>
      <trkpt lat="45.89787" lon="4.85798">
        <ele>348.59637</ele>
        <time>2023-09-02T13:47:15.000Z</time>
      </trkpt>
      <trkpt lat="45.8979" lon="4.85805">
        <ele>348.5231</ele>
        <time>2023-09-02T13:47:16.000Z</time>
      </trkpt>
      <trkpt lat="45.89793" lon="4.85811">
        <ele>348.45419</ele>
        <time>2023-09-02T13:47:17.000Z</time>
      </trkpt>
      <trkpt lat="45.89796" lon="4.85816">
        <ele>348.39258</ele>
        <time>2023-09-02T13:47:18.000Z</time>
      </trkpt>
      <trkpt lat="45.89799" lon="4.85821">
        <ele>348.35367</ele>
        <time>2023-09-02T13:47:19.000Z</time>
      </trkpt>
      <trkpt lat="45.89801" lon="4.85827">
        <ele>348.32324</ele>
        <time>2023-09-02T13:47:20.000Z</time>
      </trkpt>
      <trkpt lat="45.89804" lon="4.85833">
        <ele>348.28683</ele>
        <time>2023-09-02T13:47:21.000Z</time>
      </trkpt>
      <trkpt lat="45.89807" lon="4.85838">
        <ele>348.25433</ele>
        <time>2023-09-02T13:47:22.000Z</time>
      </trkpt>
      <trkpt lat="45.89809" lon="4.85844">
        <ele>348.22607</ele>
        <time>2023-09-02T13:47:23.000Z</time>
      </trkpt>
      <trkpt lat="45.89811" lon="4.85849">
        <ele>348.18671</ele>
        <time>2023-09-02T13:47:24.000Z</time>
      </trkpt>
      <trkpt lat="45.89812" lon="4.85854">
        <ele>348.14453</ele>
        <time>2023-09-02T13:47:25.000Z</time>
      </trkpt>
      <trkpt lat="45.89814" lon="4.85859">
        <ele>348.09583</ele>
        <time>2023-09-02T13:47:26.000Z</time>
      </trkpt>
      <trkpt lat="45.89816" lon="4.85864">
        <ele>348.05469</ele>
        <time>2023-09-02T13:47:27.000Z</time>
      </trkpt>
      <trkpt lat="45.89818" lon="4.85867">
        <ele>348.01852</ele>
        <time>2023-09-02T13:47:28.000Z</time>
      </trkpt>
      <trkpt lat="45.89819" lon="4.85872">
        <ele>347.98395</ele>
        <time>2023-09-02T13:47:29.000Z</time>
      </trkpt>
      <trkpt lat="45.8982" lon="4.85877">
        <ele>347.97491</ele>
        <time>2023-09-02T13:47:30.000Z</time>
      </trkpt>
      <trkpt lat="45.89821" lon="4.85882">
        <ele>347.95786</ele>
        <time>2023-09-02T13:47:31.000Z</time>
      </trkpt>
      <trkpt lat="45.89822" lon="4.85887">
        <ele>347.96527</ele>
        <time>2023-09-02T13:47:32.000Z</time>
      </trkpt>
      <trkpt lat="45.89824" lon="4.85891">
        <ele>347.96994</ele>
        <time>2023-09-02T13:47:33.000Z</time>
      </trkpt>
      <trkpt lat="45.89826" lon="4.85896">
        <ele>347.9913</ele>
        <time>2023-09-02T13:47:34.000Z</time>
      </trkpt>
      <trkpt lat="45.89827" lon="4.85901">
        <ele>348.01996</ele>
        <time>2023-09-02T13:47:35.000Z</time>
      </trkpt>
      <trkpt lat="45.89828" lon="4.85906">
        <ele>348.0274</ele>
        <time>2023-09-02T13:47:36.000Z</time>
      </trkpt>
      <trkpt lat="45.89829" lon="4.85911">
        <ele>348.02264</ele>
        <time>2023-09-02T13:47:37.000Z</time>
      </trkpt>
      <trkpt lat="45.89831" lon="4.85916">
        <ele>348.01099</ele>
        <time>2023-09-02T13:47:38.000Z</time>
      </trkpt>
      <trkpt lat="45.89833" lon="4.85922">
        <ele>347.99976</ele>
        <time>2023-09-02T13:47:39.000Z</time>
      </trkpt>
      <trkpt lat="45.89834" lon="4.85927">
        <ele>348.01398</ele>
        <time>2023-09-02T13:47:40.000Z</time>
      </trkpt>
      <trkpt lat="45.89835" lon="4.85932">
        <ele>348.04895</ele>
        <time>2023-09-02T13:47:41.000Z</time>
      </trkpt>
      <trkpt lat="45.89837" lon="4.85938">
        <ele>348.09039</ele>
        <time>2023-09-02T13:47:42.000Z</time>
      </trkpt>
      <trkpt lat="45.89838" lon="4.85943">
        <ele>348.11633</ele>
        <time>2023-09-02T13:47:43.000Z</time>
      </trkpt>
      <trkpt lat="45.89839" lon="4.85948">
        <ele>348.16382</ele>
        <time>2023-09-02T13:47:44.000Z</time>
      </trkpt>
      <trkpt lat="45.8984" lon="4.85954">
        <ele>348.22217</ele>
        <time>2023-09-02T13:47:45.000Z</time>
      </trkpt>
      <trkpt lat="45.89841" lon="4.85959">
        <ele>348.29767</ele>
        <time>2023-09-02T13:47:46.000Z</time>
      </trkpt>
      <trkpt lat="45.89842" lon="4.85963">
        <ele>348.38458</ele>
        <time>2023-09-02T13:47:47.000Z</time>
      </trkpt>
      <trkpt lat="45.89843" lon="4.85968">
        <ele>348.47159</ele>
        <time>2023-09-02T13:47:48.000Z</time>
      </trkpt>
      <trkpt lat="45.89844" lon="4.85972">
        <ele>348.50192</ele>
        <time>2023-09-02T13:47:49.000Z</time>
      </trkpt>
      <trkpt lat="45.89845" lon="4.85977">
        <ele>348.52802</ele>
        <time>2023-09-02T13:47:50.000Z</time>
      </trkpt>
      <trkpt lat="45.89847" lon="4.85981">
        <ele>348.54572</ele>
        <time>2023-09-02T13:47:51.000Z</time>
      </trkpt>
      <trkpt lat="45.89848" lon="4.85985">
        <ele>348.54501</ele>
        <time>2023-09-02T13:47:52.000Z</time>
      </trkpt>
      <trkpt lat="45.89849" lon="4.85989">
        <ele>348.56287</ele>
        <time>2023-09-02T13:47:53.000Z</time>
      </trkpt>
      <trkpt lat="45.8985" lon="4.85993">
        <ele>348.56824</ele>
        <time>2023-09-02T13:47:54.000Z</time>
      </trkpt>
      <trkpt lat="45.89852" lon="4.85998">
        <ele>348.56876</ele>
        <time>2023-09-02T13:47:55.000Z</time>
      </trkpt>
      <trkpt lat="45.89854" lon="4.86002">
        <ele>348.61798</ele>
        <time>2023-09-02T13:47:56.000Z</time>
      </trkpt>
      <trkpt lat="45.89856" lon="4.86006">
        <ele>348.68448</ele>
        <time>2023-09-02T13:47:57.000Z</time>
      </trkpt>
      <trkpt lat="45.89857" lon="4.86011">
        <ele>348.74991</ele>
        <time>2023-09-02T13:47:58.000Z</time>
      </trkpt>
      <trkpt lat="45.89858" lon="4.86016">
        <ele>348.75775</ele>
        <time>2023-09-02T13:47:59.000Z</time>
      </trkpt>
      <trkpt lat="45.89859" lon="4.8602">
        <ele>348.76611</ele>
        <time>2023-09-02T13:48:00.000Z</time>
      </trkpt>
      <trkpt lat="45.8986" lon="4.86025">
        <ele>348.76929</ele>
        <time>2023-09-02T13:48:01.000Z</time>
      </trkpt>
      <trkpt lat="45.8986" lon="4.8603">
        <ele>348.77667</ele>
        <time>2023-09-02T13:48:02.000Z</time>
      </trkpt>
      <trkpt lat="45.89859" lon="4.86035">
        <ele>348.7973</ele>
        <time>2023-09-02T13:48:03.000Z</time>
      </trkpt>
      <trkpt lat="45.89858" lon="4.8604">
        <ele>348.80182</ele>
        <time>2023-09-02T13:48:04.000Z</time>
      </trkpt>
      <trkpt lat="45.89856" lon="4.86045">
        <ele>348.79507</ele>
        <time>2023-09-02T13:48:05.000Z</time>
      </trkpt>
      <trkpt lat="45.89854" lon="4.86049">
        <ele>348.77393</ele>
        <time>2023-09-02T13:48:06.000Z</time>
      </trkpt>
      <trkpt lat="45.89852" lon="4.86054">
        <ele>348.73059</ele>
        <time>2023-09-02T13:48:07.000Z</time>
      </trkpt>
      <trkpt lat="45.89849" lon="4.86058">
        <ele>348.68069</ele>
        <time>2023-09-02T13:48:08.000Z</time>
      </trkpt>
      <trkpt lat="45.89847" lon="4.86063">
        <ele>348.68011</ele>
        <time>2023-09-02T13:48:09.000Z</time>
      </trkpt>
      <trkpt lat="45.89845" lon="4.86068">
        <ele>348.67188</ele>
        <time>2023-09-02T13:48:10.000Z</time>
      </trkpt>
      <trkpt lat="45.89843" lon="4.86073">
        <ele>348.65842</ele>
        <time>2023-09-02T13:48:11.000Z</time>
      </trkpt>
      <trkpt lat="45.89841" lon="4.86078">
        <ele>348.6503</ele>
        <time>2023-09-02T13:48:12.000Z</time>
      </trkpt>
      <trkpt lat="45.89839" lon="4.86083">
        <ele>348.63425</ele>
        <time>2023-09-02T13:48:13.000Z</time>
      </trkpt>
      <trkpt lat="45.89837" lon="4.86088">
        <ele>348.62469</ele>
        <time>2023-09-02T13:48:14.000Z</time>
      </trkpt>
      <trkpt lat="45.89834" lon="4.86093">
        <ele>348.62717</ele>
        <time>2023-09-02T13:48:15.000Z</time>
      </trkpt>
      <trkpt lat="45.89832" lon="4.86098">
        <ele>348.58377</ele>
        <time>2023-09-02T13:48:16.000Z</time>
      </trkpt>
      <trkpt lat="45.8983" lon="4.86104">
        <ele>348.53287</ele>
        <time>2023-09-02T13:48:17.000Z</time>
      </trkpt>
      <trkpt lat="45.89827" lon="4.86109">
        <ele>348.47076</ele>
        <time>2023-09-02T13:48:18.000Z</time>
      </trkpt>
      <trkpt lat="45.89825" lon="4.86115">
        <ele>348.46729</ele>
        <time>2023-09-02T13:48:19.000Z</time>
      </trkpt>
      <trkpt lat="45.89823" lon="4.8612">
        <ele>348.45493</ele>
        <time>2023-09-02T13:48:20.000Z</time>
      </trkpt>
      <trkpt lat="45.89821" lon="4.86126">
        <ele>348.45721</ele>
        <time>2023-09-02T13:48:21.000Z</time>
      </trkpt>
      <trkpt lat="45.89818" lon="4.86132">
        <ele>348.43988</ele>
        <time>2023-09-02T13:48:22.000Z</time>
      </trkpt>
      <trkpt lat="45.89816" lon="4.86138">
        <ele>348.43118</ele>
        <time>2023-09-02T13:48:23.000Z</time>
      </trkpt>
      <trkpt lat="45.89814" lon="4.86144">
        <ele>348.41055</ele>
        <time>2023-09-02T13:48:24.000Z</time>
      </trkpt>
      <trkpt lat="45.89811" lon="4.8615">
        <ele>348.39398</ele>
        <time>2023-09-02T13:48:25.000Z</time>
      </trkpt>
      <trkpt lat="45.89808" lon="4.86156">
        <ele>348.3992</ele>
        <time>2023-09-02T13:48:26.000Z</time>
      </trkpt>
      <trkpt lat="45.89806" lon="4.86162">
        <ele>348.44662</ele>
        <time>2023-09-02T13:48:27.000Z</time>
      </trkpt>
      <trkpt lat="45.89804" lon="4.86168">
        <ele>348.34772</ele>
        <time>2023-09-02T13:48:28.000Z</time>
      </trkpt>
      <trkpt lat="45.89802" lon="4.86173">
        <ele>348.24796</ele>
        <time>2023-09-02T13:48:29.000Z</time>
      </trkpt>
      <trkpt lat="45.898" lon="4.86179">
        <ele>348.14905</ele>
        <time>2023-09-02T13:48:30.000Z</time>
      </trkpt>
      <trkpt lat="45.89798" lon="4.86186">
        <ele>348.05914</ele>
        <time>2023-09-02T13:48:31.000Z</time>
      </trkpt>
      <trkpt lat="45.89796" lon="4.86191">
        <ele>347.96671</ele>
        <time>2023-09-02T13:48:32.000Z</time>
      </trkpt>
      <trkpt lat="45.89793" lon="4.86196">
        <ele>347.87823</ele>
        <time>2023-09-02T13:48:33.000Z</time>
      </trkpt>
      <trkpt lat="45.89791" lon="4.86199">
        <ele>347.77887</ele>
        <time>2023-09-02T13:48:34.000Z</time>
      </trkpt>
      <trkpt lat="45.89787" lon="4.86196">
        <ele>347.67709</ele>
        <time>2023-09-02T13:48:35.000Z</time>
      </trkpt>
      <trkpt lat="45.89783" lon="4.86192">
        <ele>347.6853</ele>
        <time>2023-09-02T13:48:36.000Z</time>
      </trkpt>
      <trkpt lat="45.89781" lon="4.86188">
        <ele>347.69403</ele>
        <time>2023-09-02T13:48:37.000Z</time>
      </trkpt>
      <trkpt lat="45.89778" lon="4.86184">
        <ele>347.71182</ele>
        <time>2023-09-02T13:48:38.000Z</time>
      </trkpt>
      <trkpt lat="45.89775" lon="4.8618">
        <ele>347.74078</ele>
        <time>2023-09-02T13:48:39.000Z</time>
      </trkpt>
      <trkpt lat="45.89772" lon="4.86176">
        <ele>347.75327</ele>
        <time>2023-09-02T13:48:40.000Z</time>
      </trkpt>
      <trkpt lat="45.89769" lon="4.86172">
        <ele>347.77673</ele>
        <time>2023-09-02T13:48:41.000Z</time>
      </trkpt>
      <trkpt lat="45.89766" lon="4.86167">
        <ele>347.79788</ele>
        <time>2023-09-02T13:48:42.000Z</time>
      </trkpt>
      <trkpt lat="45.89763" lon="4.86163">
        <ele>347.80258</ele>
        <time>2023-09-02T13:48:43.000Z</time>
      </trkpt>
      <trkpt lat="45.8976" lon="4.86158">
        <ele>347.81256</ele>
        <time>2023-09-02T13:48:44.000Z</time>
      </trkpt>
      <trkpt lat="45.89758" lon="4.86154">
        <ele>347.84409</ele>
        <time>2023-09-02T13:48:45.000Z</time>
      </trkpt>
      <trkpt lat="45.89755" lon="4.86149">
        <ele>347.86038</ele>
        <time>2023-09-02T13:48:46.000Z</time>
      </trkpt>
      <trkpt lat="45.89752" lon="4.86145">
        <ele>347.82623</ele>
        <time>2023-09-02T13:48:47.000Z</time>
      </trkpt>
      <trkpt lat="45.89749" lon="4.8614">
        <ele>347.94229</ele>
        <time>2023-09-02T13:48:48.000Z</time>
      </trkpt>
      <trkpt lat="45.89746" lon="4.86136">
        <ele>348.06973</ele>
        <time>2023-09-02T13:48:49.000Z</time>
      </trkpt>
      <trkpt lat="45.89744" lon="4.86131">
        <ele>348.19574</ele>
        <time>2023-09-02T13:48:50.000Z</time>
      </trkpt>
      <trkpt lat="45.89741" lon="4.86126">
        <ele>348.32886</ele>
        <time>2023-09-02T13:48:51.000Z</time>
      </trkpt>
      <trkpt lat="45.89738" lon="4.86121">
        <ele>348.46927</ele>
        <time>2023-09-02T13:48:52.000Z</time>
      </trkpt>
      <trkpt lat="45.89735" lon="4.86117">
        <ele>348.65027</ele>
        <time>2023-09-02T13:48:53.000Z</time>
      </trkpt>
      <trkpt lat="45.89732" lon="4.86112">
        <ele>348.73978</ele>
        <time>2023-09-02T13:48:54.000Z</time>
      </trkpt>
      <trkpt lat="45.8973" lon="4.86107">
        <ele>348.81949</ele>
        <time>2023-09-02T13:48:55.000Z</time>
      </trkpt>
      <trkpt lat="45.89727" lon="4.86101">
        <ele>348.79266</ele>
        <time>2023-09-02T13:48:56.000Z</time>
      </trkpt>
      <trkpt lat="45.89724" lon="4.86097">
        <ele>348.75494</ele>
        <time>2023-09-02T13:48:57.000Z</time>
      </trkpt>
      <trkpt lat="45.89721" lon="4.86092">
        <ele>348.72211</ele>
        <time>2023-09-02T13:48:58.000Z</time>
      </trkpt>
      <trkpt lat="45.89718" lon="4.86087">
        <ele>348.67755</ele>
        <time>2023-09-02T13:48:59.000Z</time>
      </trkpt>
      <trkpt lat="45.89715" lon="4.86083">
        <ele>348.62881</ele>
        <time>2023-09-02T13:49:00.000Z</time>
      </trkpt>
      <trkpt lat="45.89712" lon="4.86078">
        <ele>348.54633</ele>
        <time>2023-09-02T13:49:01.000Z</time>
      </trkpt>
      <trkpt lat="45.89709" lon="4.86073">
        <ele>348.46982</ele>
        <time>2023-09-02T13:49:02.000Z</time>
      </trkpt>
      <trkpt lat="45.89706" lon="4.86067">
        <ele>348.39944</ele>
        <time>2023-09-02T13:49:03.000Z</time>
      </trkpt>
      <trkpt lat="45.89704" lon="4.86062">
        <ele>348.36111</ele>
        <time>2023-09-02T13:49:04.000Z</time>
      </trkpt>
      <trkpt lat="45.897" lon="4.86058">
        <ele>348.31607</ele>
        <time>2023-09-02T13:49:05.000Z</time>
      </trkpt>
      <trkpt lat="45.89697" lon="4.86053">
        <ele>348.23019</ele>
        <time>2023-09-02T13:49:06.000Z</time>
      </trkpt>
      <trkpt lat="45.89694" lon="4.86048">
        <ele>348.15274</ele>
        <time>2023-09-02T13:49:07.000Z</time>
      </trkpt>
      <trkpt lat="45.89691" lon="4.86043">
        <ele>348.07611</ele>
        <time>2023-09-02T13:49:08.000Z</time>
      </trkpt>
      <trkpt lat="45.89687" lon="4.86038">
        <ele>347.97968</ele>
        <time>2023-09-02T13:49:09.000Z</time>
      </trkpt>
      <trkpt lat="45.89684" lon="4.86033">
        <ele>347.87317</ele>
        <time>2023-09-02T13:49:10.000Z</time>
      </trkpt>
      <trkpt lat="45.89681" lon="4.86027">
        <ele>347.77573</ele>
        <time>2023-09-02T13:49:11.000Z</time>
      </trkpt>
      <trkpt lat="45.89678" lon="4.86022">
        <ele>347.67773</ele>
        <time>2023-09-02T13:49:12.000Z</time>
      </trkpt>
      <trkpt lat="45.89674" lon="4.86016">
        <ele>347.52972</ele>
        <time>2023-09-02T13:49:13.000Z</time>
      </trkpt>
      <trkpt lat="45.89671" lon="4.8601">
        <ele>347.4646</ele>
        <time>2023-09-02T13:49:14.000Z</time>
      </trkpt>
      <trkpt lat="45.89667" lon="4.86004">
        <ele>347.41278</ele>
        <time>2023-09-02T13:49:15.000Z</time>
      </trkpt>
      <trkpt lat="45.89663" lon="4.85999">
        <ele>347.3743</ele>
        <time>2023-09-02T13:49:16.000Z</time>
      </trkpt>
      <trkpt lat="45.89659" lon="4.85993">
        <ele>347.33878</ele>
        <time>2023-09-02T13:49:17.000Z</time>
      </trkpt>
      <trkpt lat="45.89655" lon="4.85987">
        <ele>347.31317</ele>
        <time>2023-09-02T13:49:18.000Z</time>
      </trkpt>
      <trkpt lat="45.89652" lon="4.85982">
        <ele>347.29001</ele>
        <time>2023-09-02T13:49:19.000Z</time>
      </trkpt>
      <trkpt lat="45.89649" lon="4.85976">
        <ele>347.27655</ele>
        <time>2023-09-02T13:49:20.000Z</time>
      </trkpt>
      <trkpt lat="45.89645" lon="4.8597">
        <ele>347.22641</ele>
        <time>2023-09-02T13:49:21.000Z</time>
      </trkpt>
      <trkpt lat="45.89641" lon="4.85965">
        <ele>347.18243</ele>
        <time>2023-09-02T13:49:22.000Z</time>
      </trkpt>
      <trkpt lat="45.89638" lon="4.8596">
        <ele>347.13126</ele>
        <time>2023-09-02T13:49:23.000Z</time>
      </trkpt>
      <trkpt lat="45.89635" lon="4.85953">
        <ele>346.96466</ele>
        <time>2023-09-02T13:49:24.000Z</time>
      </trkpt>
      <trkpt lat="45.89632" lon="4.85948">
        <ele>346.79276</ele>
        <time>2023-09-02T13:49:25.000Z</time>
      </trkpt>
      <trkpt lat="45.89628" lon="4.85942">
        <ele>346.67242</ele>
        <time>2023-09-02T13:49:26.000Z</time>
      </trkpt>
      <trkpt lat="45.89625" lon="4.85936">
        <ele>346.55878</ele>
        <time>2023-09-02T13:49:27.000Z</time>
      </trkpt>
      <trkpt lat="45.89621" lon="4.85932">
        <ele>346.45319</ele>
        <time>2023-09-02T13:49:28.000Z</time>
      </trkpt>
      <trkpt lat="45.89618" lon="4.85927">
        <ele>346.36569</ele>
        <time>2023-09-02T13:49:29.000Z</time>
      </trkpt>
      <trkpt lat="45.89614" lon="4.85922">
        <ele>346.28021</ele>
        <time>2023-09-02T13:49:30.000Z</time>
      </trkpt>
      <trkpt lat="45.8961" lon="4.85917">
        <ele>346.15952</ele>
        <time>2023-09-02T13:49:31.000Z</time>
      </trkpt>
      <trkpt lat="45.89607" lon="4.85912">
        <ele>346.04532</ele>
        <time>2023-09-02T13:49:32.000Z</time>
      </trkpt>
      <trkpt lat="45.89603" lon="4.85907">
        <ele>345.90927</ele>
        <time>2023-09-02T13:49:33.000Z</time>
      </trkpt>
      <trkpt lat="45.896" lon="4.85902">
        <ele>345.74677</ele>
        <time>2023-09-02T13:49:34.000Z</time>
      </trkpt>
      <trkpt lat="45.89597" lon="4.85896">
        <ele>345.57617</ele>
        <time>2023-09-02T13:49:35.000Z</time>
      </trkpt>
      <trkpt lat="45.89594" lon="4.85891">
        <ele>345.40106</ele>
        <time>2023-09-02T13:49:36.000Z</time>
      </trkpt>
      <trkpt lat="45.89591" lon="4.85885">
        <ele>345.26019</ele>
        <time>2023-09-02T13:49:37.000Z</time>
      </trkpt>
      <trkpt lat="45.89588" lon="4.8588">
        <ele>345.09186</ele>
        <time>2023-09-02T13:49:38.000Z</time>
      </trkpt>
      <trkpt lat="45.89585" lon="4.85875">
        <ele>344.89197</ele>
        <time>2023-09-02T13:49:39.000Z</time>
      </trkpt>
      <trkpt lat="45.89582" lon="4.8587">
        <ele>344.7146</ele>
        <time>2023-09-02T13:49:40.000Z</time>
      </trkpt>
      <trkpt lat="45.89578" lon="4.85866">
        <ele>344.56</ele>
        <time>2023-09-02T13:49:41.000Z</time>
      </trkpt>
      <trkpt lat="45.89574" lon="4.85862">
        <ele>344.49072</ele>
        <time>2023-09-02T13:49:42.000Z</time>
      </trkpt>
      <trkpt lat="45.89571" lon="4.85857">
        <ele>344.42542</ele>
        <time>2023-09-02T13:49:43.000Z</time>
      </trkpt>
      <trkpt lat="45.89567" lon="4.85854">
        <ele>344.49637</ele>
        <time>2023-09-02T13:49:44.000Z</time>
      </trkpt>
      <trkpt lat="45.89564" lon="4.85849">
        <ele>344.48651</ele>
        <time>2023-09-02T13:49:45.000Z</time>
      </trkpt>
      <trkpt lat="45.89561" lon="4.85845">
        <ele>344.48148</ele>
        <time>2023-09-02T13:49:46.000Z</time>
      </trkpt>
      <trkpt lat="45.89558" lon="4.8584">
        <ele>344.50043</ele>
        <time>2023-09-02T13:49:47.000Z</time>
      </trkpt>
      <trkpt lat="45.89555" lon="4.85834">
        <ele>344.50311</ele>
        <time>2023-09-02T13:49:48.000Z</time>
      </trkpt>
      <trkpt lat="45.89553" lon="4.85828">
        <ele>344.49384</ele>
        <time>2023-09-02T13:49:49.000Z</time>
      </trkpt>
      <trkpt lat="45.89551" lon="4.85822">
        <ele>344.4939</ele>
        <time>2023-09-02T13:49:50.000Z</time>
      </trkpt>
      <trkpt lat="45.89548" lon="4.85818">
        <ele>344.50504</ele>
        <time>2023-09-02T13:49:51.000Z</time>
      </trkpt>
      <trkpt lat="45.89545" lon="4.85813">
        <ele>344.52109</ele>
        <time>2023-09-02T13:49:52.000Z</time>
      </trkpt>
      <trkpt lat="45.89542" lon="4.85809">
        <ele>344.57202</ele>
        <time>2023-09-02T13:49:53.000Z</time>
      </trkpt>
      <trkpt lat="45.8954" lon="4.85805">
        <ele>344.65878</ele>
        <time>2023-09-02T13:49:54.000Z</time>
      </trkpt>
      <trkpt lat="45.89537" lon="4.85801">
        <ele>344.76334</ele>
        <time>2023-09-02T13:49:55.000Z</time>
      </trkpt>
      <trkpt lat="45.89535" lon="4.85797">
        <ele>344.88843</ele>
        <time>2023-09-02T13:49:56.000Z</time>
      </trkpt>
      <trkpt lat="45.89532" lon="4.85793">
        <ele>345.00113</ele>
        <time>2023-09-02T13:49:57.000Z</time>
      </trkpt>
      <trkpt lat="45.89531" lon="4.85789">
        <ele>345.1087</ele>
        <time>2023-09-02T13:49:58.000Z</time>
      </trkpt>
      <trkpt lat="45.89529" lon="4.85785">
        <ele>345.25519</ele>
        <time>2023-09-02T13:49:59.000Z</time>
      </trkpt>
      <trkpt lat="45.89527" lon="4.85782">
        <ele>345.39938</ele>
        <time>2023-09-02T13:50:00.000Z</time>
      </trkpt>
      <trkpt lat="45.89525" lon="4.85778">
        <ele>345.56976</ele>
        <time>2023-09-02T13:50:01.000Z</time>
      </trkpt>
      <trkpt lat="45.89523" lon="4.85774">
        <ele>345.68414</ele>
        <time>2023-09-02T13:50:02.000Z</time>
      </trkpt>
      <trkpt lat="45.8952" lon="4.85771">
        <ele>345.80743</ele>
        <time>2023-09-02T13:50:03.000Z</time>
      </trkpt>
      <trkpt lat="45.89518" lon="4.85767">
        <ele>345.87958</ele>
        <time>2023-09-02T13:50:04.000Z</time>
      </trkpt>
      <trkpt lat="45.89516" lon="4.85763">
        <ele>346.02982</ele>
        <time>2023-09-02T13:50:05.000Z</time>
      </trkpt>
      <trkpt lat="45.89514" lon="4.8576">
        <ele>346.16391</ele>
        <time>2023-09-02T13:50:06.000Z</time>
      </trkpt>
      <trkpt lat="45.89512" lon="4.85756">
        <ele>346.28864</ele>
        <time>2023-09-02T13:50:07.000Z</time>
      </trkpt>
      <trkpt lat="45.8951" lon="4.85753">
        <ele>346.44086</ele>
        <time>2023-09-02T13:50:08.000Z</time>
      </trkpt>
      <trkpt lat="45.89508" lon="4.8575">
        <ele>346.61755</ele>
        <time>2023-09-02T13:50:09.000Z</time>
      </trkpt>
      <trkpt lat="45.89506" lon="4.85747">
        <ele>346.80411</ele>
        <time>2023-09-02T13:50:10.000Z</time>
      </trkpt>
      <trkpt lat="45.89504" lon="4.85743">
        <ele>347.01028</ele>
        <time>2023-09-02T13:50:11.000Z</time>
      </trkpt>
      <trkpt lat="45.89501" lon="4.85739">
        <ele>347.2218</ele>
        <time>2023-09-02T13:50:12.000Z</time>
      </trkpt>
      <trkpt lat="45.89499" lon="4.85735">
        <ele>347.43188</ele>
        <time>2023-09-02T13:50:13.000Z</time>
      </trkpt>
      <trkpt lat="45.89497" lon="4.85731">
        <ele>347.64468</ele>
        <time>2023-09-02T13:50:14.000Z</time>
      </trkpt>
      <trkpt lat="45.89495" lon="4.85726">
        <ele>347.8504</ele>
        <time>2023-09-02T13:50:15.000Z</time>
      </trkpt>
      <trkpt lat="45.89492" lon="4.85722">
        <ele>348.03033</ele>
        <time>2023-09-02T13:50:16.000Z</time>
      </trkpt>
      <trkpt lat="45.8949" lon="4.85718">
        <ele>348.18994</ele>
        <time>2023-09-02T13:50:17.000Z</time>
      </trkpt>
      <trkpt lat="45.89488" lon="4.85714">
        <ele>348.36572</ele>
        <time>2023-09-02T13:50:18.000Z</time>
      </trkpt>
      <trkpt lat="45.89485" lon="4.8571">
        <ele>348.54489</ele>
        <time>2023-09-02T13:50:19.000Z</time>
      </trkpt>
      <trkpt lat="45.89483" lon="4.85706">
        <ele>348.6962</ele>
        <time>2023-09-02T13:50:20.000Z</time>
      </trkpt>
      <trkpt lat="45.8948" lon="4.85703">
        <ele>348.86102</ele>
        <time>2023-09-02T13:50:21.000Z</time>
      </trkpt>
      <trkpt lat="45.89478" lon="4.85699">
        <ele>348.99039</ele>
        <time>2023-09-02T13:50:22.000Z</time>
      </trkpt>
      <trkpt lat="45.89476" lon="4.85694">
        <ele>349.1217</ele>
        <time>2023-09-02T13:50:23.000Z</time>
      </trkpt>
      <trkpt lat="45.89474" lon="4.8569">
        <ele>349.22943</ele>
        <time>2023-09-02T13:50:24.000Z</time>
      </trkpt>
      <trkpt lat="45.89472" lon="4.85686">
        <ele>349.33902</ele>
        <time>2023-09-02T13:50:25.000Z</time>
      </trkpt>
      <trkpt lat="45.8947" lon="4.85682">
        <ele>349.45383</ele>
        <time>2023-09-02T13:50:26.000Z</time>
      </trkpt>
      <trkpt lat="45.89468" lon="4.85679">
        <ele>349.62589</ele>
        <time>2023-09-02T13:50:27.000Z</time>
      </trkpt>
      <trkpt lat="45.89465" lon="4.85675">
        <ele>349.77234</ele>
        <time>2023-09-02T13:50:28.000Z</time>
      </trkpt>
      <trkpt lat="45.89463" lon="4.85672">
        <ele>349.9006</ele>
        <time>2023-09-02T13:50:29.000Z</time>
      </trkpt>
      <trkpt lat="45.89461" lon="4.85668">
        <ele>350.0145</ele>
        <time>2023-09-02T13:50:30.000Z</time>
      </trkpt>
      <trkpt lat="45.8946" lon="4.85664">
        <ele>350.12531</ele>
        <time>2023-09-02T13:50:31.000Z</time>
      </trkpt>
      <trkpt lat="45.89458" lon="4.85661">
        <ele>350.21701</ele>
        <time>2023-09-02T13:50:32.000Z</time>
      </trkpt>
      <trkpt lat="45.89456" lon="4.85657">
        <ele>350.30704</ele>
        <time>2023-09-02T13:50:33.000Z</time>
      </trkpt>
      <trkpt lat="45.89454" lon="4.85654">
        <ele>350.38123</ele>
        <time>2023-09-02T13:50:34.000Z</time>
      </trkpt>
      <trkpt lat="45.89452" lon="4.85651">
        <ele>350.45035</ele>
        <time>2023-09-02T13:50:35.000Z</time>
      </trkpt>
      <trkpt lat="45.8945" lon="4.85647">
        <ele>350.52063</ele>
        <time>2023-09-02T13:50:36.000Z</time>
      </trkpt>
      <trkpt lat="45.89447" lon="4.85644">
        <ele>350.6026</ele>
        <time>2023-09-02T13:50:37.000Z</time>
      </trkpt>
      <trkpt lat="45.89446" lon="4.8564">
        <ele>350.70856</ele>
        <time>2023-09-02T13:50:38.000Z</time>
      </trkpt>
      <trkpt lat="45.89444" lon="4.85637">
        <ele>350.80576</ele>
        <time>2023-09-02T13:50:39.000Z</time>
      </trkpt>
      <trkpt lat="45.89442" lon="4.85633">
        <ele>350.91656</ele>
        <time>2023-09-02T13:50:40.000Z</time>
      </trkpt>
      <trkpt lat="45.8944" lon="4.85629">
        <ele>351.02069</ele>
        <time>2023-09-02T13:50:41.000Z</time>
      </trkpt>
      <trkpt lat="45.89438" lon="4.85626">
        <ele>351.13605</ele>
        <time>2023-09-02T13:50:42.000Z</time>
      </trkpt>
      <trkpt lat="45.89436" lon="4.85622">
        <ele>351.22751</ele>
        <time>2023-09-02T13:50:43.000Z</time>
      </trkpt>
      <trkpt lat="45.89434" lon="4.85618">
        <ele>351.33456</ele>
        <time>2023-09-02T13:50:44.000Z</time>
      </trkpt>
      <trkpt lat="45.89432" lon="4.85614">
        <ele>351.45746</ele>
        <time>2023-09-02T13:50:45.000Z</time>
      </trkpt>
      <trkpt lat="45.8943" lon="4.8561">
        <ele>351.5799</ele>
        <time>2023-09-02T13:50:46.000Z</time>
      </trkpt>
      <trkpt lat="45.89428" lon="4.85607">
        <ele>351.60303</ele>
        <time>2023-09-02T13:50:47.000Z</time>
      </trkpt>
      <trkpt lat="45.89426" lon="4.85603">
        <ele>351.62936</ele>
        <time>2023-09-02T13:50:48.000Z</time>
      </trkpt>
      <trkpt lat="45.89424" lon="4.85599">
        <ele>351.65457</ele>
        <time>2023-09-02T13:50:49.000Z</time>
      </trkpt>
      <trkpt lat="45.89422" lon="4.85595">
        <ele>351.67853</ele>
        <time>2023-09-02T13:50:50.000Z</time>
      </trkpt>
      <trkpt lat="45.8942" lon="4.85591">
        <ele>351.69443</ele>
        <time>2023-09-02T13:50:51.000Z</time>
      </trkpt>
      <trkpt lat="45.89418" lon="4.85587">
        <ele>354.00818</ele>
        <time>2023-09-02T13:50:52.000Z</time>
      </trkpt>
      <trkpt lat="45.89415" lon="4.85583">
        <ele>354.13507</ele>
        <time>2023-09-02T13:50:53.000Z</time>
      </trkpt>
      <trkpt lat="45.89413" lon="4.85579">
        <ele>354.28235</ele>
        <time>2023-09-02T13:50:54.000Z</time>
      </trkpt>
      <trkpt lat="45.8941" lon="4.85575">
        <ele>354.4328</ele>
        <time>2023-09-02T13:50:55.000Z</time>
      </trkpt>
      <trkpt lat="45.89408" lon="4.85571">
        <ele>354.5899</ele>
        <time>2023-09-02T13:50:56.000Z</time>
      </trkpt>
      <trkpt lat="45.89405" lon="4.85566">
        <ele>354.74286</ele>
        <time>2023-09-02T13:50:57.000Z</time>
      </trkpt>
      <trkpt lat="45.89403" lon="4.85561">
        <ele>358.42166</ele>
        <time>2023-09-02T13:50:58.000Z</time>
      </trkpt>
      <trkpt lat="45.89401" lon="4.85557">
        <ele>358.74445</ele>
        <time>2023-09-02T13:50:59.000Z</time>
      </trkpt>
      <trkpt lat="45.89399" lon="4.85552">
        <ele>359.8924</ele>
        <time>2023-09-02T13:51:00.000Z</time>
      </trkpt>
      <trkpt lat="45.89397" lon="4.85547">
        <ele>361.46088</ele>
        <time>2023-09-02T13:51:01.000Z</time>
      </trkpt>
      <trkpt lat="45.89395" lon="4.85543">
        <ele>363.01587</ele>
        <time>2023-09-02T13:51:02.000Z</time>
      </trkpt>
      <trkpt lat="45.89393" lon="4.85538">
        <ele>364.59503</ele>
        <time>2023-09-02T13:51:03.000Z</time>
      </trkpt>
      <trkpt lat="45.89391" lon="4.85534">
        <ele>366.18173</ele>
        <time>2023-09-02T13:51:04.000Z</time>
      </trkpt>
      <trkpt lat="45.8939" lon="4.85531">
        <ele>367.74268</ele>
        <time>2023-09-02T13:51:05.000Z</time>
      </trkpt>
      <trkpt lat="45.89388" lon="4.85527">
        <ele>369.30258</ele>
        <time>2023-09-02T13:51:06.000Z</time>
      </trkpt>
      <trkpt lat="45.89386" lon="4.85525">
        <ele>369.52637</ele>
        <time>2023-09-02T13:51:07.000Z</time>
      </trkpt>
      <trkpt lat="45.89384" lon="4.85524">
        <ele>369.73663</ele>
        <time>2023-09-02T13:51:08.000Z</time>
      </trkpt>
      <trkpt lat="45.89382" lon="4.85524">
        <ele>369.93356</ele>
        <time>2023-09-02T13:51:10.000Z</time>
      </trkpt>
      <trkpt lat="45.89381" lon="4.85521">
        <ele>370.13058</ele>
        <time>2023-09-02T13:51:14.000Z</time>
      </trkpt>
      <trkpt lat="45.89381" lon="4.85517">
        <ele>370.32809</ele>
        <time>2023-09-02T13:51:16.000Z</time>
      </trkpt>
      <trkpt lat="45.89381" lon="4.85515">
        <ele>368.23712</ele>
        <time>2023-09-02T13:51:17.000Z</time>
      </trkpt>
      <trkpt lat="45.8938" lon="4.85512">
        <ele>368.32697</ele>
        <time>2023-09-02T13:51:18.000Z</time>
      </trkpt>
      <trkpt lat="45.89379" lon="4.85509">
        <ele>369.75</ele>
        <time>2023-09-02T13:51:19.000Z</time>
      </trkpt>
      <trkpt lat="45.89378" lon="4.85505">
        <ele>370.63309</ele>
        <time>2023-09-02T13:51:20.000Z</time>
      </trkpt>
      <trkpt lat="45.89376" lon="4.85502">
        <ele>371.71429</ele>
        <time>2023-09-02T13:51:21.000Z</time>
      </trkpt>
      <trkpt lat="45.89374" lon="4.85498">
        <ele>372.78534</ele>
        <time>2023-09-02T13:51:22.000Z</time>
      </trkpt>
      <trkpt lat="45.89372" lon="4.85495">
        <ele>370.29587</ele>
        <time>2023-09-02T13:51:23.000Z</time>
      </trkpt>
      <trkpt lat="45.8937" lon="4.85492">
        <ele>371.16367</ele>
        <time>2023-09-02T13:51:24.000Z</time>
      </trkpt>
      <trkpt lat="45.89368" lon="4.85488">
        <ele>371.22076</ele>
        <time>2023-09-02T13:51:25.000Z</time>
      </trkpt>
      <trkpt lat="45.89366" lon="4.85484">
        <ele>370.85602</ele>
        <time>2023-09-02T13:51:26.000Z</time>
      </trkpt>
      <trkpt lat="45.89363" lon="4.8548">
        <ele>370.49115</ele>
        <time>2023-09-02T13:51:27.000Z</time>
      </trkpt>
      <trkpt lat="45.89361" lon="4.85476">
        <ele>370.11624</ele>
        <time>2023-09-02T13:51:28.000Z</time>
      </trkpt>
      <trkpt lat="45.89359" lon="4.85471">
        <ele>369.74091</ele>
        <time>2023-09-02T13:51:29.000Z</time>
      </trkpt>
      <trkpt lat="45.89356" lon="4.85467">
        <ele>369.3819</ele>
        <time>2023-09-02T13:51:30.000Z</time>
      </trkpt>
      <trkpt lat="45.89353" lon="4.85463">
        <ele>369.02725</ele>
        <time>2023-09-02T13:51:31.000Z</time>
      </trkpt>
      <trkpt lat="45.89351" lon="4.85459">
        <ele>370.03387</ele>
        <time>2023-09-02T13:51:32.000Z</time>
      </trkpt>
      <trkpt lat="45.89349" lon="4.85454">
        <ele>371.0607</ele>
        <time>2023-09-02T13:51:33.000Z</time>
      </trkpt>
      <trkpt lat="45.89347" lon="4.85449">
        <ele>372.08905</ele>
        <time>2023-09-02T13:51:34.000Z</time>
      </trkpt>
      <trkpt lat="45.89345" lon="4.85444">
        <ele>373.09958</ele>
        <time>2023-09-02T13:51:35.000Z</time>
      </trkpt>
      <trkpt lat="45.89342" lon="4.8544">
        <ele>374.11871</ele>
        <time>2023-09-02T13:51:36.000Z</time>
      </trkpt>
      <trkpt lat="45.89339" lon="4.85436">
        <ele>375.12738</ele>
        <time>2023-09-02T13:51:37.000Z</time>
      </trkpt>
      <trkpt lat="45.89337" lon="4.85431">
        <ele>376.11383</ele>
        <time>2023-09-02T13:51:38.000Z</time>
      </trkpt>
      <trkpt lat="45.89334" lon="4.85427">
        <ele>375.7121</ele>
        <time>2023-09-02T13:51:39.000Z</time>
      </trkpt>
      <trkpt lat="45.89332" lon="4.85422">
        <ele>375.88382</ele>
        <time>2023-09-02T13:51:40.000Z</time>
      </trkpt>
      <trkpt lat="45.89329" lon="4.85418">
        <ele>375.85004</ele>
        <time>2023-09-02T13:51:41.000Z</time>
      </trkpt>
      <trkpt lat="45.89326" lon="4.85415">
        <ele>375.84204</ele>
        <time>2023-09-02T13:51:42.000Z</time>
      </trkpt>
      <trkpt lat="45.89322" lon="4.85413">
        <ele>375.8515</ele>
        <time>2023-09-02T13:51:43.000Z</time>
      </trkpt>
      <trkpt lat="45.89318" lon="4.85412">
        <ele>375.85519</ele>
        <time>2023-09-02T13:51:44.000Z</time>
      </trkpt>
      <trkpt lat="45.89314" lon="4.85412">
        <ele>375.84549</ele>
        <time>2023-09-02T13:51:45.000Z</time>
      </trkpt>
      <trkpt lat="45.8931" lon="4.85414">
        <ele>375.82971</ele>
        <time>2023-09-02T13:51:46.000Z</time>
      </trkpt>
      <trkpt lat="45.89307" lon="4.85416">
        <ele>373.23837</ele>
        <time>2023-09-02T13:51:47.000Z</time>
      </trkpt>
      <trkpt lat="45.89303" lon="4.85418">
        <ele>373.10941</ele>
        <time>2023-09-02T13:51:48.000Z</time>
      </trkpt>
      <trkpt lat="45.893" lon="4.8542">
        <ele>372.96735</ele>
        <time>2023-09-02T13:51:49.000Z</time>
      </trkpt>
      <trkpt lat="45.89296" lon="4.85422">
        <ele>372.80963</ele>
        <time>2023-09-02T13:51:50.000Z</time>
      </trkpt>
      <trkpt lat="45.89293" lon="4.85424">
        <ele>372.64136</ele>
        <time>2023-09-02T13:51:51.000Z</time>
      </trkpt>
      <trkpt lat="45.89289" lon="4.85426">
        <ele>372.46402</ele>
        <time>2023-09-02T13:51:52.000Z</time>
      </trkpt>
      <trkpt lat="45.89285" lon="4.85428">
        <ele>369.82013</ele>
        <time>2023-09-02T13:51:53.000Z</time>
      </trkpt>
      <trkpt lat="45.89281" lon="4.8543">
        <ele>369.50433</ele>
        <time>2023-09-02T13:51:54.000Z</time>
      </trkpt>
      <trkpt lat="45.89277" lon="4.85432">
        <ele>369.18927</ele>
        <time>2023-09-02T13:51:55.000Z</time>
      </trkpt>
      <trkpt lat="45.89274" lon="4.85432">
        <ele>368.84821</ele>
        <time>2023-09-02T13:51:56.000Z</time>
      </trkpt>
      <trkpt lat="45.89271" lon="4.85433">
        <ele>368.49255</ele>
        <time>2023-09-02T13:51:57.000Z</time>
      </trkpt>
      <trkpt lat="45.89268" lon="4.85433">
        <ele>365.82111</ele>
        <time>2023-09-02T13:51:59.000Z</time>
      </trkpt>
      <trkpt lat="45.89265" lon="4.8543">
        <ele>365.38412</ele>
        <time>2023-09-02T13:52:01.000Z</time>
      </trkpt>
      <trkpt lat="45.89264" lon="4.85427">
        <ele>364.88443</ele>
        <time>2023-09-02T13:52:02.000Z</time>
      </trkpt>
      <trkpt lat="45.89263" lon="4.85423">
        <ele>364.35956</ele>
        <time>2023-09-02T13:52:03.000Z</time>
      </trkpt>
      <trkpt lat="45.89262" lon="4.85418">
        <ele>363.785</ele>
        <time>2023-09-02T13:52:04.000Z</time>
      </trkpt>
      <trkpt lat="45.89261" lon="4.85413">
        <ele>361.06131</ele>
        <time>2023-09-02T13:52:05.000Z</time>
      </trkpt>
      <trkpt lat="45.8926" lon="4.85408">
        <ele>360.32181</ele>
        <time>2023-09-02T13:52:06.000Z</time>
      </trkpt>
      <trkpt lat="45.89259" lon="4.85402">
        <ele>359.54514</ele>
        <time>2023-09-02T13:52:07.000Z</time>
      </trkpt>
      <trkpt lat="45.89258" lon="4.85395">
        <ele>358.7301</ele>
        <time>2023-09-02T13:52:08.000Z</time>
      </trkpt>
      <trkpt lat="45.89256" lon="4.85389">
        <ele>360.45953</ele>
        <time>2023-09-02T13:52:09.000Z</time>
      </trkpt>
      <trkpt lat="45.89255" lon="4.85382">
        <ele>359.82062</ele>
        <time>2023-09-02T13:52:10.000Z</time>
      </trkpt>
      <trkpt lat="45.89253" lon="4.85374">
        <ele>357.26752</ele>
        <time>2023-09-02T13:52:11.000Z</time>
      </trkpt>
      <trkpt lat="45.89252" lon="4.85367">
        <ele>356.48251</ele>
        <time>2023-09-02T13:52:12.000Z</time>
      </trkpt>
      <trkpt lat="45.8925" lon="4.85359">
        <ele>355.66617</ele>
        <time>2023-09-02T13:52:13.000Z</time>
      </trkpt>
      <trkpt lat="45.89249" lon="4.8535">
        <ele>354.81738</ele>
        <time>2023-09-02T13:52:14.000Z</time>
      </trkpt>
      <trkpt lat="45.89247" lon="4.85341">
        <ele>356.38495</ele>
        <time>2023-09-02T13:52:15.000Z</time>
      </trkpt>
      <trkpt lat="45.89246" lon="4.85332">
        <ele>355.7132</ele>
        <time>2023-09-02T13:52:16.000Z</time>
      </trkpt>
      <trkpt lat="45.89245" lon="4.85323">
        <ele>353.09222</ele>
        <time>2023-09-02T13:52:17.000Z</time>
      </trkpt>
      <trkpt lat="45.89242" lon="4.85314">
        <ele>352.28738</ele>
        <time>2023-09-02T13:52:18.000Z</time>
      </trkpt>
      <trkpt lat="45.89238" lon="4.85305">
        <ele>351.45935</ele>
        <time>2023-09-02T13:52:19.000Z</time>
      </trkpt>
      <trkpt lat="45.89233" lon="4.85296">
        <ele>352.92703</ele>
        <time>2023-09-02T13:52:20.000Z</time>
      </trkpt>
      <trkpt lat="45.89228" lon="4.85287">
        <ele>350.90216</ele>
        <time>2023-09-02T13:52:21.000Z</time>
      </trkpt>
      <trkpt lat="45.89223" lon="4.8528">
        <ele>348.9563</ele>
        <time>2023-09-02T13:52:22.000Z</time>
      </trkpt>
      <trkpt lat="45.89217" lon="4.85271">
        <ele>347.0184</ele>
        <time>2023-09-02T13:52:23.000Z</time>
      </trkpt>
      <trkpt lat="45.89212" lon="4.85263">
        <ele>345.09076</ele>
        <time>2023-09-02T13:52:24.000Z</time>
      </trkpt>
      <trkpt lat="45.89207" lon="4.85256">
        <ele>345.31384</ele>
        <time>2023-09-02T13:52:25.000Z</time>
      </trkpt>
      <trkpt lat="45.89202" lon="4.85248">
        <ele>343.53354</ele>
        <time>2023-09-02T13:52:26.000Z</time>
      </trkpt>
      <trkpt lat="45.89197" lon="4.85241">
        <ele>341.80383</ele>
        <time>2023-09-02T13:52:27.000Z</time>
      </trkpt>
      <trkpt lat="45.89193" lon="4.85233">
        <ele>340.09863</ele>
        <time>2023-09-02T13:52:28.000Z</time>
      </trkpt>
      <trkpt lat="45.89187" lon="4.85226">
        <ele>338.30444</ele>
        <time>2023-09-02T13:52:29.000Z</time>
      </trkpt>
      <trkpt lat="45.89183" lon="4.85219">
        <ele>336.40149</ele>
        <time>2023-09-02T13:52:30.000Z</time>
      </trkpt>
      <trkpt lat="45.89179" lon="4.85213">
        <ele>336.82281</ele>
        <time>2023-09-02T13:52:31.000Z</time>
      </trkpt>
      <trkpt lat="45.89175" lon="4.85208">
        <ele>335.423</ele>
        <time>2023-09-02T13:52:32.000Z</time>
      </trkpt>
      <trkpt lat="45.89171" lon="4.85203">
        <ele>334.07895</ele>
        <time>2023-09-02T13:52:33.000Z</time>
      </trkpt>
      <trkpt lat="45.89168" lon="4.85198">
        <ele>332.77448</ele>
        <time>2023-09-02T13:52:34.000Z</time>
      </trkpt>
      <trkpt lat="45.89165" lon="4.85194">
        <ele>331.51837</ele>
        <time>2023-09-02T13:52:35.000Z</time>
      </trkpt>
      <trkpt lat="45.89161" lon="4.85189">
        <ele>330.18451</ele>
        <time>2023-09-02T13:52:36.000Z</time>
      </trkpt>
      <trkpt lat="45.89158" lon="4.85185">
        <ele>330.7995</ele>
        <time>2023-09-02T13:52:37.000Z</time>
      </trkpt>
      <trkpt lat="45.89155" lon="4.85181">
        <ele>329.44882</ele>
        <time>2023-09-02T13:52:38.000Z</time>
      </trkpt>
      <trkpt lat="45.89152" lon="4.85177">
        <ele>328.12012</ele>
        <time>2023-09-02T13:52:39.000Z</time>
      </trkpt>
      <trkpt lat="45.89147" lon="4.85174">
        <ele>326.82745</ele>
        <time>2023-09-02T13:52:40.000Z</time>
      </trkpt>
      <trkpt lat="45.89144" lon="4.85171">
        <ele>326.83389</ele>
        <time>2023-09-02T13:52:41.000Z</time>
      </trkpt>
      <trkpt lat="45.89141" lon="4.85168">
        <ele>326.79678</ele>
        <time>2023-09-02T13:52:42.000Z</time>
      </trkpt>
      <trkpt lat="45.89137" lon="4.85165">
        <ele>326.78357</ele>
        <time>2023-09-02T13:52:43.000Z</time>
      </trkpt>
      <trkpt lat="45.89134" lon="4.85163">
        <ele>326.80148</ele>
        <time>2023-09-02T13:52:44.000Z</time>
      </trkpt>
      <trkpt lat="45.89131" lon="4.85161">
        <ele>326.7807</ele>
        <time>2023-09-02T13:52:45.000Z</time>
      </trkpt>
      <trkpt lat="45.89128" lon="4.85158">
        <ele>326.75702</ele>
        <time>2023-09-02T13:52:46.000Z</time>
      </trkpt>
      <trkpt lat="45.89126" lon="4.85155">
        <ele>326.6217</ele>
        <time>2023-09-02T13:52:47.000Z</time>
      </trkpt>
      <trkpt lat="45.89124" lon="4.85153">
        <ele>326.43896</ele>
        <time>2023-09-02T13:52:48.000Z</time>
      </trkpt>
      <trkpt lat="45.89123" lon="4.85149">
        <ele>326.79361</ele>
        <time>2023-09-02T13:52:49.000Z</time>
      </trkpt>
      <trkpt lat="45.89121" lon="4.85145">
        <ele>327.13089</ele>
        <time>2023-09-02T13:52:50.000Z</time>
      </trkpt>
      <trkpt lat="45.89121" lon="4.8514">
        <ele>327.02759</ele>
        <time>2023-09-02T13:52:51.000Z</time>
      </trkpt>
      <trkpt lat="45.89122" lon="4.85135">
        <ele>326.99841</ele>
        <time>2023-09-02T13:52:52.000Z</time>
      </trkpt>
      <trkpt lat="45.89124" lon="4.8513">
        <ele>326.9371</ele>
        <time>2023-09-02T13:52:53.000Z</time>
      </trkpt>
      <trkpt lat="45.89126" lon="4.85125">
        <ele>326.90961</ele>
        <time>2023-09-02T13:52:54.000Z</time>
      </trkpt>
      <trkpt lat="45.89132" lon="4.85121">
        <ele>326.83682</ele>
        <time>2023-09-02T13:52:55.000Z</time>
      </trkpt>
      <trkpt lat="45.89135" lon="4.85115">
        <ele>326.74957</ele>
        <time>2023-09-02T13:52:56.000Z</time>
      </trkpt>
      <trkpt lat="45.89136" lon="4.85108">
        <ele>326.62256</ele>
        <time>2023-09-02T13:52:57.000Z</time>
      </trkpt>
      <trkpt lat="45.89135" lon="4.85102">
        <ele>326.47006</ele>
        <time>2023-09-02T13:52:58.000Z</time>
      </trkpt>
      <trkpt lat="45.89133" lon="4.85096">
        <ele>326.18881</ele>
        <time>2023-09-02T13:52:59.000Z</time>
      </trkpt>
      <trkpt lat="45.89131" lon="4.8509">
        <ele>326.25143</ele>
        <time>2023-09-02T13:53:00.000Z</time>
      </trkpt>
      <trkpt lat="45.89125" lon="4.85087">
        <ele>326.66037</ele>
        <time>2023-09-02T13:53:01.000Z</time>
      </trkpt>
      <trkpt lat="45.89119" lon="4.85085">
        <ele>327.06168</ele>
        <time>2023-09-02T13:53:02.000Z</time>
      </trkpt>
      <trkpt lat="45.89115" lon="4.85082">
        <ele>327.41754</ele>
        <time>2023-09-02T13:53:03.000Z</time>
      </trkpt>
      <trkpt lat="45.89111" lon="4.8508">
        <ele>327.74112</ele>
        <time>2023-09-02T13:53:04.000Z</time>
      </trkpt>
      <trkpt lat="45.89107" lon="4.85079">
        <ele>328.11389</ele>
        <time>2023-09-02T13:53:05.000Z</time>
      </trkpt>
      <trkpt lat="45.89102" lon="4.85077">
        <ele>328.0881</ele>
        <time>2023-09-02T13:53:06.000Z</time>
      </trkpt>
      <trkpt lat="45.891" lon="4.85075">
        <ele>328.03879</ele>
        <time>2023-09-02T13:53:07.000Z</time>
      </trkpt>
      <trkpt lat="45.89096" lon="4.85072">
        <ele>328.1701</ele>
        <time>2023-09-02T13:53:08.000Z</time>
      </trkpt>
      <trkpt lat="45.89092" lon="4.85068">
        <ele>327.66629</ele>
        <time>2023-09-02T13:53:09.000Z</time>
      </trkpt>
      <trkpt lat="45.89088" lon="4.85065">
        <ele>327.17368</ele>
        <time>2023-09-02T13:53:10.000Z</time>
      </trkpt>
      <trkpt lat="45.89084" lon="4.85063">
        <ele>326.72333</ele>
        <time>2023-09-02T13:53:11.000Z</time>
      </trkpt>
      <trkpt lat="45.89079" lon="4.85058">
        <ele>326.24936</ele>
        <time>2023-09-02T13:53:12.000Z</time>
      </trkpt>
      <trkpt lat="45.89075" lon="4.85055">
        <ele>325.77054</ele>
        <time>2023-09-02T13:53:13.000Z</time>
      </trkpt>
      <trkpt lat="45.8907" lon="4.85051">
        <ele>325.18127</ele>
        <time>2023-09-02T13:53:14.000Z</time>
      </trkpt>
      <trkpt lat="45.89065" lon="4.85048">
        <ele>324.67535</ele>
        <time>2023-09-02T13:53:15.000Z</time>
      </trkpt>
      <trkpt lat="45.89061" lon="4.85044">
        <ele>324.13544</ele>
        <time>2023-09-02T13:53:16.000Z</time>
      </trkpt>
      <trkpt lat="45.89057" lon="4.85041">
        <ele>323.64142</ele>
        <time>2023-09-02T13:53:17.000Z</time>
      </trkpt>
      <trkpt lat="45.89053" lon="4.85038">
        <ele>323.55994</ele>
        <time>2023-09-02T13:53:18.000Z</time>
      </trkpt>
      <trkpt lat="45.8905" lon="4.85037">
        <ele>323.46371</ele>
        <time>2023-09-02T13:53:19.000Z</time>
      </trkpt>
      <trkpt lat="45.89045" lon="4.85033">
        <ele>323.09357</ele>
        <time>2023-09-02T13:53:20.000Z</time>
      </trkpt>
      <trkpt lat="45.89039" lon="4.8503">
        <ele>322.39423</ele>
        <time>2023-09-02T13:53:21.000Z</time>
      </trkpt>
      <trkpt lat="45.89035" lon="4.85027">
        <ele>321.56604</ele>
        <time>2023-09-02T13:53:22.000Z</time>
      </trkpt>
      <trkpt lat="45.8903" lon="4.85023">
        <ele>320.67853</ele>
        <time>2023-09-02T13:53:23.000Z</time>
      </trkpt>
      <trkpt lat="45.89028" lon="4.85021">
        <ele>319.74481</ele>
        <time>2023-09-02T13:53:24.000Z</time>
      </trkpt>
      <trkpt lat="45.89023" lon="4.85018">
        <ele>318.80338</ele>
        <time>2023-09-02T13:53:25.000Z</time>
      </trkpt>
      <trkpt lat="45.89017" lon="4.85014">
        <ele>318.27756</ele>
        <time>2023-09-02T13:53:26.000Z</time>
      </trkpt>
      <trkpt lat="45.89014" lon="4.8501">
        <ele>317.8103</ele>
        <time>2023-09-02T13:53:27.000Z</time>
      </trkpt>
      <trkpt lat="45.89008" lon="4.85005">
        <ele>317.14676</ele>
        <time>2023-09-02T13:53:28.000Z</time>
      </trkpt>
      <trkpt lat="45.89003" lon="4.85">
        <ele>316.5816</ele>
        <time>2023-09-02T13:53:29.000Z</time>
      </trkpt>
      <trkpt lat="45.88998" lon="4.84994">
        <ele>316.02936</ele>
        <time>2023-09-02T13:53:30.000Z</time>
      </trkpt>
      <trkpt lat="45.88993" lon="4.84989">
        <ele>315.77045</ele>
        <time>2023-09-02T13:53:31.000Z</time>
      </trkpt>
      <trkpt lat="45.88988" lon="4.84986">
        <ele>315.52008</ele>
        <time>2023-09-02T13:53:32.000Z</time>
      </trkpt>
      <trkpt lat="45.88984" lon="4.84981">
        <ele>315.25568</ele>
        <time>2023-09-02T13:53:33.000Z</time>
      </trkpt>
      <trkpt lat="45.8898" lon="4.8498">
        <ele>315.0336</ele>
        <time>2023-09-02T13:53:34.000Z</time>
      </trkpt>
      <trkpt lat="45.88977" lon="4.8498">
        <ele>314.87921</ele>
        <time>2023-09-02T13:53:35.000Z</time>
      </trkpt>
      <trkpt lat="45.88973" lon="4.84983">
        <ele>314.76495</ele>
        <time>2023-09-02T13:53:36.000Z</time>
      </trkpt>
      <trkpt lat="45.88971" lon="4.84987">
        <ele>313.78339</ele>
        <time>2023-09-02T13:53:37.000Z</time>
      </trkpt>
      <trkpt lat="45.88969" lon="4.8499">
        <ele>312.42145</ele>
        <time>2023-09-02T13:53:38.000Z</time>
      </trkpt>
      <trkpt lat="45.88968" lon="4.84995">
        <ele>311.24631</ele>
        <time>2023-09-02T13:53:39.000Z</time>
      </trkpt>
      <trkpt lat="45.88967" lon="4.85002">
        <ele>309.97751</ele>
        <time>2023-09-02T13:53:40.000Z</time>
      </trkpt>
      <trkpt lat="45.88967" lon="4.85005">
        <ele>308.70343</ele>
        <time>2023-09-02T13:53:41.000Z</time>
      </trkpt>
      <trkpt lat="45.88965" lon="4.8501">
        <ele>307.58728</ele>
        <time>2023-09-02T13:53:42.000Z</time>
      </trkpt>
      <trkpt lat="45.88964" lon="4.85014">
        <ele>306.09808</ele>
        <time>2023-09-02T13:53:43.000Z</time>
      </trkpt>
      <trkpt lat="45.88963" lon="4.85018">
        <ele>304.65024</ele>
        <time>2023-09-02T13:53:44.000Z</time>
      </trkpt>
      <trkpt lat="45.88962" lon="4.85023">
        <ele>303.13995</ele>
        <time>2023-09-02T13:53:45.000Z</time>
      </trkpt>
      <trkpt lat="45.88961" lon="4.85028">
        <ele>301.59821</ele>
        <time>2023-09-02T13:53:46.000Z</time>
      </trkpt>
      <trkpt lat="45.88959" lon="4.85032">
        <ele>300.23322</ele>
        <time>2023-09-02T13:53:47.000Z</time>
      </trkpt>
      <trkpt lat="45.88958" lon="4.85037">
        <ele>299.00604</ele>
        <time>2023-09-02T13:53:48.000Z</time>
      </trkpt>
      <trkpt lat="45.88956" lon="4.85043">
        <ele>297.96802</ele>
        <time>2023-09-02T13:53:49.000Z</time>
      </trkpt>
      <trkpt lat="45.88953" lon="4.85049">
        <ele>296.67618</ele>
        <time>2023-09-02T13:53:50.000Z</time>
      </trkpt>
      <trkpt lat="45.8895" lon="4.85055">
        <ele>295.0777</ele>
        <time>2023-09-02T13:53:51.000Z</time>
      </trkpt>
      <trkpt lat="45.88949" lon="4.8506">
        <ele>293.6153</ele>
        <time>2023-09-02T13:53:52.000Z</time>
      </trkpt>
      <trkpt lat="45.88948" lon="4.85067">
        <ele>292.20758</ele>
        <time>2023-09-02T13:53:53.000Z</time>
      </trkpt>
      <trkpt lat="45.88946" lon="4.85075">
        <ele>290.7963</ele>
        <time>2023-09-02T13:53:54.000Z</time>
      </trkpt>
      <trkpt lat="45.88947" lon="4.85083">
        <ele>289.10718</ele>
        <time>2023-09-02T13:53:55.000Z</time>
      </trkpt>
      <trkpt lat="45.88947" lon="4.85091">
        <ele>287.32471</ele>
        <time>2023-09-02T13:53:56.000Z</time>
      </trkpt>
      <trkpt lat="45.8895" lon="4.85096">
        <ele>286.46414</ele>
        <time>2023-09-02T13:53:57.000Z</time>
      </trkpt>
      <trkpt lat="45.88954" lon="4.85101">
        <ele>285.72485</ele>
        <time>2023-09-02T13:53:58.000Z</time>
      </trkpt>
      <trkpt lat="45.88957" lon="4.85109">
        <ele>284.97797</ele>
        <time>2023-09-02T13:53:59.000Z</time>
      </trkpt>
      <trkpt lat="45.88961" lon="4.85116">
        <ele>284.2478</ele>
        <time>2023-09-02T13:54:00.000Z</time>
      </trkpt>
      <trkpt lat="45.88965" lon="4.85122">
        <ele>283.51224</ele>
        <time>2023-09-02T13:54:01.000Z</time>
      </trkpt>
      <trkpt lat="45.8897" lon="4.85128">
        <ele>282.74063</ele>
        <time>2023-09-02T13:54:02.000Z</time>
      </trkpt>
      <trkpt lat="45.88972" lon="4.85136">
        <ele>282.87775</ele>
        <time>2023-09-02T13:54:03.000Z</time>
      </trkpt>
      <trkpt lat="45.88974" lon="4.85141">
        <ele>282.83932</ele>
        <time>2023-09-02T13:54:04.000Z</time>
      </trkpt>
      <trkpt lat="45.88975" lon="4.85143">
        <ele>282.87518</ele>
        <time>2023-09-02T13:54:05.000Z</time>
      </trkpt>
      <trkpt lat="45.88973" lon="4.85148">
        <ele>282.95276</ele>
        <time>2023-09-02T13:54:06.000Z</time>
      </trkpt>
      <trkpt lat="45.88976" lon="4.85151">
        <ele>282.69855</ele>
        <time>2023-09-02T13:54:08.000Z</time>
      </trkpt>
      <trkpt lat="45.88977" lon="4.85154">
        <ele>282.53824</ele>
        <time>2023-09-02T13:54:12.000Z</time>
      </trkpt>
      <trkpt lat="45.88977" lon="4.85156">
        <ele>281.97153</ele>
        <time>2023-09-02T13:54:16.000Z</time>
      </trkpt>
      <trkpt lat="45.88978" lon="4.85159">
        <ele>281.75024</ele>
        <time>2023-09-02T13:54:17.000Z</time>
      </trkpt>
      <trkpt lat="45.8898" lon="4.85162">
        <ele>281.52667</ele>
        <time>2023-09-02T13:54:18.000Z</time>
      </trkpt>
      <trkpt lat="45.88981" lon="4.85167">
        <ele>281.17664</ele>
        <time>2023-09-02T13:54:19.000Z</time>
      </trkpt>
      <trkpt lat="45.88983" lon="4.85171">
        <ele>280.79263</ele>
        <time>2023-09-02T13:54:20.000Z</time>
      </trkpt>
      <trkpt lat="45.88986" lon="4.85176">
        <ele>280.40314</ele>
        <time>2023-09-02T13:54:21.000Z</time>
      </trkpt>
      <trkpt lat="45.88988" lon="4.8518">
        <ele>280.17865</ele>
        <time>2023-09-02T13:54:22.000Z</time>
      </trkpt>
      <trkpt lat="45.88991" lon="4.85186">
        <ele>280.03888</ele>
        <time>2023-09-02T13:54:23.000Z</time>
      </trkpt>
      <trkpt lat="45.88994" lon="4.85189">
        <ele>279.78543</ele>
        <time>2023-09-02T13:54:24.000Z</time>
      </trkpt>
      <trkpt lat="45.88997" lon="4.85195">
        <ele>279.53119</ele>
        <time>2023-09-02T13:54:25.000Z</time>
      </trkpt>
      <trkpt lat="45.88999" lon="4.85202">
        <ele>279.1774</ele>
        <time>2023-09-02T13:54:26.000Z</time>
      </trkpt>
      <trkpt lat="45.89" lon="4.8521">
        <ele>278.78906</ele>
        <time>2023-09-02T13:54:27.000Z</time>
      </trkpt>
      <trkpt lat="45.89002" lon="4.85218">
        <ele>278.29745</ele>
        <time>2023-09-02T13:54:28.000Z</time>
      </trkpt>
      <trkpt lat="45.89005" lon="4.85225">
        <ele>277.82306</ele>
        <time>2023-09-02T13:54:29.000Z</time>
      </trkpt>
      <trkpt lat="45.89007" lon="4.85235">
        <ele>277.04135</ele>
        <time>2023-09-02T13:54:30.000Z</time>
      </trkpt>
      <trkpt lat="45.89007" lon="4.85244">
        <ele>276.46985</ele>
        <time>2023-09-02T13:54:31.000Z</time>
      </trkpt>
      <trkpt lat="45.89008" lon="4.85255">
        <ele>275.88861</ele>
        <time>2023-09-02T13:54:32.000Z</time>
      </trkpt>
      <trkpt lat="45.89012" lon="4.85263">
        <ele>275.27151</ele>
        <time>2023-09-02T13:54:33.000Z</time>
      </trkpt>
      <trkpt lat="45.89015" lon="4.85272">
        <ele>274.84149</ele>
        <time>2023-09-02T13:54:34.000Z</time>
      </trkpt>
      <trkpt lat="45.89018" lon="4.85283">
        <ele>274.65527</ele>
        <time>2023-09-02T13:54:35.000Z</time>
      </trkpt>
      <trkpt lat="45.89021" lon="4.85293">
        <ele>274.78952</ele>
        <time>2023-09-02T13:54:36.000Z</time>
      </trkpt>
      <trkpt lat="45.89024" lon="4.85304">
        <ele>274.8143</ele>
        <time>2023-09-02T13:54:37.000Z</time>
      </trkpt>
      <trkpt lat="45.89027" lon="4.85316">
        <ele>274.83832</ele>
        <time>2023-09-02T13:54:38.000Z</time>
      </trkpt>
      <trkpt lat="45.8903" lon="4.85325">
        <ele>274.81216</ele>
        <time>2023-09-02T13:54:39.000Z</time>
      </trkpt>
      <trkpt lat="45.89032" lon="4.85337">
        <ele>274.83286</ele>
        <time>2023-09-02T13:54:40.000Z</time>
      </trkpt>
      <trkpt lat="45.89034" lon="4.85347">
        <ele>274.86768</ele>
        <time>2023-09-02T13:54:41.000Z</time>
      </trkpt>
      <trkpt lat="45.89032" lon="4.85363">
        <ele>274.96555</ele>
        <time>2023-09-02T13:54:42.000Z</time>
      </trkpt>
      <trkpt lat="45.89032" lon="4.85372">
        <ele>275.09024</ele>
        <time>2023-09-02T13:54:43.000Z</time>
      </trkpt>
      <trkpt lat="45.89034" lon="4.85377">
        <ele>275.28253</ele>
        <time>2023-09-02T13:54:44.000Z</time>
      </trkpt>
      <trkpt lat="45.89035" lon="4.85384">
        <ele>275.48752</ele>
        <time>2023-09-02T13:54:45.000Z</time>
      </trkpt>
      <trkpt lat="45.89033" lon="4.85392">
        <ele>275.77734</ele>
        <time>2023-09-02T13:54:46.000Z</time>
      </trkpt>
      <trkpt lat="45.89033" lon="4.85394">
        <ele>276.06644</ele>
        <time>2023-09-02T13:54:47.000Z</time>
      </trkpt>
      <trkpt lat="45.89031" lon="4.85397">
        <ele>276.43408</ele>
        <time>2023-09-02T13:54:48.000Z</time>
      </trkpt>
      <trkpt lat="45.89029" lon="4.854">
        <ele>276.76056</ele>
        <time>2023-09-02T13:54:49.000Z</time>
      </trkpt>
      <trkpt lat="45.89028" lon="4.85402">
        <ele>276.92661</ele>
        <time>2023-09-02T13:54:50.000Z</time>
      </trkpt>
      <trkpt lat="45.89026" lon="4.85405">
        <ele>277.09241</ele>
        <time>2023-09-02T13:54:51.000Z</time>
      </trkpt>
      <trkpt lat="45.89024" lon="4.85407">
        <ele>277.23529</ele>
        <time>2023-09-02T13:54:52.000Z</time>
      </trkpt>
      <trkpt lat="45.89023" lon="4.85411">
        <ele>277.38812</ele>
        <time>2023-09-02T13:54:53.000Z</time>
      </trkpt>
      <trkpt lat="45.89021" lon="4.85412">
        <ele>277.53964</ele>
        <time>2023-09-02T13:54:54.000Z</time>
      </trkpt>
      <trkpt lat="45.89019" lon="4.85411">
        <ele>277.246</ele>
        <time>2023-09-02T13:54:55.000Z</time>
      </trkpt>
      <trkpt lat="45.89018" lon="4.85408">
        <ele>277.00458</ele>
        <time>2023-09-02T13:54:56.000Z</time>
      </trkpt>
      <trkpt lat="45.89017" lon="4.85404">
        <ele>276.79044</ele>
        <time>2023-09-02T13:54:57.000Z</time>
      </trkpt>
      <trkpt lat="45.89015" lon="4.85401">
        <ele>276.58527</ele>
        <time>2023-09-02T13:54:58.000Z</time>
      </trkpt>
      <trkpt lat="45.89014" lon="4.85397">
        <ele>276.42456</ele>
        <time>2023-09-02T13:54:59.000Z</time>
      </trkpt>
      <trkpt lat="45.89012" lon="4.85394">
        <ele>276.21393</ele>
        <time>2023-09-02T13:55:00.000Z</time>
      </trkpt>
      <trkpt lat="45.8901" lon="4.8539">
        <ele>276.05389</ele>
        <time>2023-09-02T13:55:01.000Z</time>
      </trkpt>
      <trkpt lat="45.89009" lon="4.85386">
        <ele>275.85236</ele>
        <time>2023-09-02T13:55:02.000Z</time>
      </trkpt>
      <trkpt lat="45.89007" lon="4.85381">
        <ele>275.62805</ele>
        <time>2023-09-02T13:55:03.000Z</time>
      </trkpt>
      <trkpt lat="45.89005" lon="4.85375">
        <ele>275.50748</ele>
        <time>2023-09-02T13:55:04.000Z</time>
      </trkpt>
      <trkpt lat="45.89003" lon="4.8537">
        <ele>275.32901</ele>
        <time>2023-09-02T13:55:05.000Z</time>
      </trkpt>
      <trkpt lat="45.89002" lon="4.85364">
        <ele>275.12521</ele>
        <time>2023-09-02T13:55:06.000Z</time>
      </trkpt>
      <trkpt lat="45.89" lon="4.85358">
        <ele>274.97174</ele>
        <time>2023-09-02T13:55:07.000Z</time>
      </trkpt>
      <trkpt lat="45.88997" lon="4.85352">
        <ele>274.83295</ele>
        <time>2023-09-02T13:55:08.000Z</time>
      </trkpt>
      <trkpt lat="45.88995" lon="4.85346">
        <ele>274.70599</ele>
        <time>2023-09-02T13:55:09.000Z</time>
      </trkpt>
      <trkpt lat="45.88993" lon="4.8534">
        <ele>274.60727</ele>
        <time>2023-09-02T13:55:10.000Z</time>
      </trkpt>
      <trkpt lat="45.88991" lon="4.85333">
        <ele>274.48273</ele>
        <time>2023-09-02T13:55:11.000Z</time>
      </trkpt>
      <trkpt lat="45.88988" lon="4.85327">
        <ele>274.3732</ele>
        <time>2023-09-02T13:55:12.000Z</time>
      </trkpt>
      <trkpt lat="45.88985" lon="4.8532">
        <ele>274.25656</ele>
        <time>2023-09-02T13:55:13.000Z</time>
      </trkpt>
      <trkpt lat="45.88983" lon="4.85313">
        <ele>274.15585</ele>
        <time>2023-09-02T13:55:14.000Z</time>
      </trkpt>
      <trkpt lat="45.8898" lon="4.85306">
        <ele>274.1004</ele>
        <time>2023-09-02T13:55:15.000Z</time>
      </trkpt>
      <trkpt lat="45.88978" lon="4.853">
        <ele>273.99634</ele>
        <time>2023-09-02T13:55:16.000Z</time>
      </trkpt>
      <trkpt lat="45.88975" lon="4.85292">
        <ele>273.86362</ele>
        <time>2023-09-02T13:55:17.000Z</time>
      </trkpt>
      <trkpt lat="45.88973" lon="4.85285">
        <ele>273.71762</ele>
        <time>2023-09-02T13:55:18.000Z</time>
      </trkpt>
      <trkpt lat="45.88969" lon="4.85279">
        <ele>273.51678</ele>
        <time>2023-09-02T13:55:19.000Z</time>
      </trkpt>
      <trkpt lat="45.88966" lon="4.85273">
        <ele>273.33221</ele>
        <time>2023-09-02T13:55:20.000Z</time>
      </trkpt>
      <trkpt lat="45.88963" lon="4.85267">
        <ele>273.09943</ele>
        <time>2023-09-02T13:55:21.000Z</time>
      </trkpt>
      <trkpt lat="45.88959" lon="4.85261">
        <ele>272.83942</ele>
        <time>2023-09-02T13:55:22.000Z</time>
      </trkpt>
      <trkpt lat="45.88956" lon="4.85256">
        <ele>272.60645</ele>
        <time>2023-09-02T13:55:23.000Z</time>
      </trkpt>
      <trkpt lat="45.88952" lon="4.8525">
        <ele>272.26166</ele>
        <time>2023-09-02T13:55:24.000Z</time>
      </trkpt>
      <trkpt lat="45.88949" lon="4.85245">
        <ele>271.9938</ele>
        <time>2023-09-02T13:55:25.000Z</time>
      </trkpt>
      <trkpt lat="45.88944" lon="4.85239">
        <ele>271.72736</ele>
        <time>2023-09-02T13:55:26.000Z</time>
      </trkpt>
      <trkpt lat="45.88941" lon="4.85234">
        <ele>271.44983</ele>
        <time>2023-09-02T13:55:27.000Z</time>
      </trkpt>
      <trkpt lat="45.88937" lon="4.85229">
        <ele>271.1673</ele>
        <time>2023-09-02T13:55:28.000Z</time>
      </trkpt>
      <trkpt lat="45.88932" lon="4.85225">
        <ele>270.84717</ele>
        <time>2023-09-02T13:55:29.000Z</time>
      </trkpt>
      <trkpt lat="45.88927" lon="4.8522">
        <ele>270.46552</ele>
        <time>2023-09-02T13:55:30.000Z</time>
      </trkpt>
      <trkpt lat="45.88924" lon="4.85214">
        <ele>270.06812</ele>
        <time>2023-09-02T13:55:31.000Z</time>
      </trkpt>
      <trkpt lat="45.88919" lon="4.85209">
        <ele>269.68719</ele>
        <time>2023-09-02T13:55:32.000Z</time>
      </trkpt>
      <trkpt lat="45.88913" lon="4.85205">
        <ele>269.39737</ele>
        <time>2023-09-02T13:55:33.000Z</time>
      </trkpt>
      <trkpt lat="45.88908" lon="4.85201">
        <ele>269.10931</ele>
        <time>2023-09-02T13:55:34.000Z</time>
      </trkpt>
      <trkpt lat="45.88903" lon="4.85198">
        <ele>268.80658</ele>
        <time>2023-09-02T13:55:35.000Z</time>
      </trkpt>
      <trkpt lat="45.88898" lon="4.85194">
        <ele>268.54199</ele>
        <time>2023-09-02T13:55:36.000Z</time>
      </trkpt>
      <trkpt lat="45.88892" lon="4.8519">
        <ele>268.3349</ele>
        <time>2023-09-02T13:55:37.000Z</time>
      </trkpt>
      <trkpt lat="45.88887" lon="4.85185">
        <ele>268.1333</ele>
        <time>2023-09-02T13:55:38.000Z</time>
      </trkpt>
      <trkpt lat="45.88882" lon="4.85181">
        <ele>267.98477</ele>
        <time>2023-09-02T13:55:39.000Z</time>
      </trkpt>
      <trkpt lat="45.88876" lon="4.85177">
        <ele>267.84756</ele>
        <time>2023-09-02T13:55:40.000Z</time>
      </trkpt>
      <trkpt lat="45.8887" lon="4.85173">
        <ele>267.74457</ele>
        <time>2023-09-02T13:55:41.000Z</time>
      </trkpt>
      <trkpt lat="45.88865" lon="4.85169">
        <ele>267.64734</ele>
        <time>2023-09-02T13:55:42.000Z</time>
      </trkpt>
      <trkpt lat="45.88858" lon="4.85166">
        <ele>267.53558</ele>
        <time>2023-09-02T13:55:43.000Z</time>
      </trkpt>
      <trkpt lat="45.88853" lon="4.85161">
        <ele>267.40686</ele>
        <time>2023-09-02T13:55:44.000Z</time>
      </trkpt>
      <trkpt lat="45.88848" lon="4.85155">
        <ele>267.26791</ele>
        <time>2023-09-02T13:55:45.000Z</time>
      </trkpt>
      <trkpt lat="45.88843" lon="4.85151">
        <ele>267.12708</ele>
        <time>2023-09-02T13:55:46.000Z</time>
      </trkpt>
      <trkpt lat="45.88837" lon="4.85148">
        <ele>267.01236</ele>
        <time>2023-09-02T13:55:47.000Z</time>
      </trkpt>
      <trkpt lat="45.88831" lon="4.85145">
        <ele>266.86786</ele>
        <time>2023-09-02T13:55:48.000Z</time>
      </trkpt>
      <trkpt lat="45.88825" lon="4.85141">
        <ele>266.78119</ele>
        <time>2023-09-02T13:55:49.000Z</time>
      </trkpt>
      <trkpt lat="45.88819" lon="4.85137">
        <ele>266.7663</ele>
        <time>2023-09-02T13:55:50.000Z</time>
      </trkpt>
      <trkpt lat="45.88814" lon="4.85132">
        <ele>266.77512</ele>
        <time>2023-09-02T13:55:51.000Z</time>
      </trkpt>
      <trkpt lat="45.88809" lon="4.85127">
        <ele>266.75812</ele>
        <time>2023-09-02T13:55:52.000Z</time>
      </trkpt>
      <trkpt lat="45.88805" lon="4.85123">
        <ele>266.61719</ele>
        <time>2023-09-02T13:55:53.000Z</time>
      </trkpt>
      <trkpt lat="45.888" lon="4.85118">
        <ele>266.47934</ele>
        <time>2023-09-02T13:55:54.000Z</time>
      </trkpt>
      <trkpt lat="45.88795" lon="4.85114">
        <ele>266.35883</ele>
        <time>2023-09-02T13:55:55.000Z</time>
      </trkpt>
      <trkpt lat="45.8879" lon="4.85111">
        <ele>266.22964</ele>
        <time>2023-09-02T13:55:56.000Z</time>
      </trkpt>
      <trkpt lat="45.88784" lon="4.85107">
        <ele>266.05823</ele>
        <time>2023-09-02T13:55:57.000Z</time>
      </trkpt>
      <trkpt lat="45.88779" lon="4.85103">
        <ele>265.8877</ele>
        <time>2023-09-02T13:55:58.000Z</time>
      </trkpt>
      <trkpt lat="45.88774" lon="4.85099">
        <ele>265.70639</ele>
        <time>2023-09-02T13:55:59.000Z</time>
      </trkpt>
      <trkpt lat="45.88768" lon="4.85096">
        <ele>265.51941</ele>
        <time>2023-09-02T13:56:00.000Z</time>
      </trkpt>
      <trkpt lat="45.88762" lon="4.85091">
        <ele>265.39682</ele>
        <time>2023-09-02T13:56:01.000Z</time>
      </trkpt>
      <trkpt lat="45.88756" lon="4.85088">
        <ele>265.28607</ele>
        <time>2023-09-02T13:56:02.000Z</time>
      </trkpt>
      <trkpt lat="45.88751" lon="4.85085">
        <ele>265.19135</ele>
        <time>2023-09-02T13:56:03.000Z</time>
      </trkpt>
      <trkpt lat="45.88746" lon="4.85081">
        <ele>265.1142</ele>
        <time>2023-09-02T13:56:04.000Z</time>
      </trkpt>
      <trkpt lat="45.8874" lon="4.85078">
        <ele>265.07758</ele>
        <time>2023-09-02T13:56:05.000Z</time>
      </trkpt>
      <trkpt lat="45.88735" lon="4.85073">
        <ele>265.04709</ele>
        <time>2023-09-02T13:56:06.000Z</time>
      </trkpt>
      <trkpt lat="45.88729" lon="4.85069">
        <ele>264.99368</ele>
        <time>2023-09-02T13:56:07.000Z</time>
      </trkpt>
      <trkpt lat="45.88723" lon="4.85065">
        <ele>264.95453</ele>
        <time>2023-09-02T13:56:08.000Z</time>
      </trkpt>
      <trkpt lat="45.88718" lon="4.85061">
        <ele>264.87344</ele>
        <time>2023-09-02T13:56:09.000Z</time>
      </trkpt>
      <trkpt lat="45.88712" lon="4.85057">
        <ele>264.8428</ele>
        <time>2023-09-02T13:56:10.000Z</time>
      </trkpt>
      <trkpt lat="45.88707" lon="4.85054">
        <ele>264.80853</ele>
        <time>2023-09-02T13:56:11.000Z</time>
      </trkpt>
      <trkpt lat="45.887" lon="4.85052">
        <ele>264.75229</ele>
        <time>2023-09-02T13:56:12.000Z</time>
      </trkpt>
      <trkpt lat="45.88694" lon="4.85049">
        <ele>264.73975</ele>
        <time>2023-09-02T13:56:13.000Z</time>
      </trkpt>
      <trkpt lat="45.88688" lon="4.85047">
        <ele>264.72278</ele>
        <time>2023-09-02T13:56:14.000Z</time>
      </trkpt>
      <trkpt lat="45.88681" lon="4.85046">
        <ele>264.70575</ele>
        <time>2023-09-02T13:56:15.000Z</time>
      </trkpt>
      <trkpt lat="45.88675" lon="4.85042">
        <ele>264.64368</ele>
        <time>2023-09-02T13:56:16.000Z</time>
      </trkpt>
      <trkpt lat="45.88667" lon="4.85041">
        <ele>264.58121</ele>
        <time>2023-09-02T13:56:17.000Z</time>
      </trkpt>
      <trkpt lat="45.8866" lon="4.85039">
        <ele>264.53293</ele>
        <time>2023-09-02T13:56:18.000Z</time>
      </trkpt>
      <trkpt lat="45.88654" lon="4.85038">
        <ele>264.50806</ele>
        <time>2023-09-02T13:56:19.000Z</time>
      </trkpt>
      <trkpt lat="45.88647" lon="4.85036">
        <ele>264.45398</ele>
        <time>2023-09-02T13:56:20.000Z</time>
      </trkpt>
      <trkpt lat="45.88641" lon="4.85035">
        <ele>264.33527</ele>
        <time>2023-09-02T13:56:21.000Z</time>
      </trkpt>
      <trkpt lat="45.88634" lon="4.85033">
        <ele>264.2226</ele>
        <time>2023-09-02T13:56:22.000Z</time>
      </trkpt>
      <trkpt lat="45.88628" lon="4.85033">
        <ele>264.10974</ele>
        <time>2023-09-02T13:56:23.000Z</time>
      </trkpt>
      <trkpt lat="45.88621" lon="4.85032">
        <ele>263.99994</ele>
        <time>2023-09-02T13:56:24.000Z</time>
      </trkpt>
      <trkpt lat="45.88615" lon="4.85032">
        <ele>263.89795</ele>
        <time>2023-09-02T13:56:25.000Z</time>
      </trkpt>
      <trkpt lat="45.88608" lon="4.85031">
        <ele>263.81573</ele>
        <time>2023-09-02T13:56:26.000Z</time>
      </trkpt>
      <trkpt lat="45.88601" lon="4.85032">
        <ele>263.72559</ele>
        <time>2023-09-02T13:56:27.000Z</time>
      </trkpt>
      <trkpt lat="45.88594" lon="4.85032">
        <ele>263.66</ele>
        <time>2023-09-02T13:56:28.000Z</time>
      </trkpt>
      <trkpt lat="45.88589" lon="4.85031">
        <ele>263.65842</ele>
        <time>2023-09-02T13:56:29.000Z</time>
      </trkpt>
      <trkpt lat="45.88583" lon="4.85032">
        <ele>263.60248</ele>
        <time>2023-09-02T13:56:30.000Z</time>
      </trkpt>
      <trkpt lat="45.88577" lon="4.85031">
        <ele>263.51627</ele>
        <time>2023-09-02T13:56:31.000Z</time>
      </trkpt>
      <trkpt lat="45.88571" lon="4.85029">
        <ele>263.42975</ele>
        <time>2023-09-02T13:56:32.000Z</time>
      </trkpt>
      <trkpt lat="45.88565" lon="4.85026">
        <ele>263.35529</ele>
        <time>2023-09-02T13:56:33.000Z</time>
      </trkpt>
      <trkpt lat="45.88559" lon="4.85026">
        <ele>263.28851</ele>
        <time>2023-09-02T13:56:34.000Z</time>
      </trkpt>
      <trkpt lat="45.88553" lon="4.85023">
        <ele>263.23965</ele>
        <time>2023-09-02T13:56:35.000Z</time>
      </trkpt>
      <trkpt lat="45.88547" lon="4.85021">
        <ele>263.242</ele>
        <time>2023-09-02T13:56:36.000Z</time>
      </trkpt>
      <trkpt lat="45.88541" lon="4.85018">
        <ele>263.28174</ele>
        <time>2023-09-02T13:56:37.000Z</time>
      </trkpt>
      <trkpt lat="45.88534" lon="4.85015">
        <ele>263.28036</ele>
        <time>2023-09-02T13:56:38.000Z</time>
      </trkpt>
      <trkpt lat="45.88528" lon="4.85011">
        <ele>263.25525</ele>
        <time>2023-09-02T13:56:39.000Z</time>
      </trkpt>
      <trkpt lat="45.88523" lon="4.85007">
        <ele>263.24832</ele>
        <time>2023-09-02T13:56:40.000Z</time>
      </trkpt>
      <trkpt lat="45.88517" lon="4.85003">
        <ele>263.22641</ele>
        <time>2023-09-02T13:56:41.000Z</time>
      </trkpt>
      <trkpt lat="45.88511" lon="4.84999">
        <ele>263.18732</ele>
        <time>2023-09-02T13:56:42.000Z</time>
      </trkpt>
      <trkpt lat="45.88506" lon="4.84996">
        <ele>263.14014</ele>
        <time>2023-09-02T13:56:43.000Z</time>
      </trkpt>
      <trkpt lat="45.88501" lon="4.8499">
        <ele>263.09164</ele>
        <time>2023-09-02T13:56:44.000Z</time>
      </trkpt>
      <trkpt lat="45.88495" lon="4.84986">
        <ele>262.99542</ele>
        <time>2023-09-02T13:56:45.000Z</time>
      </trkpt>
      <trkpt lat="45.8849" lon="4.84983">
        <ele>262.89923</ele>
        <time>2023-09-02T13:56:46.000Z</time>
      </trkpt>
      <trkpt lat="45.88484" lon="4.8498">
        <ele>262.80118</ele>
        <time>2023-09-02T13:56:47.000Z</time>
      </trkpt>
      <trkpt lat="45.88478" lon="4.84977">
        <ele>262.7272</ele>
        <time>2023-09-02T13:56:48.000Z</time>
      </trkpt>
      <trkpt lat="45.88472" lon="4.84974">
        <ele>262.62054</ele>
        <time>2023-09-02T13:56:49.000Z</time>
      </trkpt>
      <trkpt lat="45.88466" lon="4.84971">
        <ele>262.5332</ele>
        <time>2023-09-02T13:56:50.000Z</time>
      </trkpt>
      <trkpt lat="45.88461" lon="4.84968">
        <ele>262.46558</ele>
        <time>2023-09-02T13:56:51.000Z</time>
      </trkpt>
      <trkpt lat="45.88456" lon="4.84964">
        <ele>262.40399</ele>
        <time>2023-09-02T13:56:52.000Z</time>
      </trkpt>
      <trkpt lat="45.88451" lon="4.8496">
        <ele>262.33234</ele>
        <time>2023-09-02T13:56:53.000Z</time>
      </trkpt>
      <trkpt lat="45.88447" lon="4.84955">
        <ele>262.23492</ele>
        <time>2023-09-02T13:56:54.000Z</time>
      </trkpt>
      <trkpt lat="45.88442" lon="4.84954">
        <ele>262.10345</ele>
        <time>2023-09-02T13:56:55.000Z</time>
      </trkpt>
      <trkpt lat="45.88436" lon="4.84949">
        <ele>261.96542</ele>
        <time>2023-09-02T13:56:56.000Z</time>
      </trkpt>
      <trkpt lat="45.8843" lon="4.84944">
        <ele>261.83453</ele>
        <time>2023-09-02T13:56:57.000Z</time>
      </trkpt>
      <trkpt lat="45.88425" lon="4.8494">
        <ele>261.74054</ele>
        <time>2023-09-02T13:56:58.000Z</time>
      </trkpt>
      <trkpt lat="45.88419" lon="4.84936">
        <ele>261.659</ele>
        <time>2023-09-02T13:56:59.000Z</time>
      </trkpt>
      <trkpt lat="45.88413" lon="4.84932">
        <ele>261.57703</ele>
        <time>2023-09-02T13:57:00.000Z</time>
      </trkpt>
      <trkpt lat="45.88408" lon="4.84928">
        <ele>261.50934</ele>
        <time>2023-09-02T13:57:01.000Z</time>
      </trkpt>
      <trkpt lat="45.88402" lon="4.84924">
        <ele>261.43277</ele>
        <time>2023-09-02T13:57:02.000Z</time>
      </trkpt>
      <trkpt lat="45.88396" lon="4.8492">
        <ele>261.33939</ele>
        <time>2023-09-02T13:57:03.000Z</time>
      </trkpt>
      <trkpt lat="45.8839" lon="4.84916">
        <ele>261.24164</ele>
        <time>2023-09-02T13:57:04.000Z</time>
      </trkpt>
      <trkpt lat="45.88385" lon="4.84912">
        <ele>261.15161</ele>
        <time>2023-09-02T13:57:05.000Z</time>
      </trkpt>
      <trkpt lat="45.88379" lon="4.84908">
        <ele>261.04037</ele>
        <time>2023-09-02T13:57:06.000Z</time>
      </trkpt>
      <trkpt lat="45.88373" lon="4.84903">
        <ele>260.93817</ele>
        <time>2023-09-02T13:57:07.000Z</time>
      </trkpt>
      <trkpt lat="45.88367" lon="4.84899">
        <ele>260.81949</ele>
        <time>2023-09-02T13:57:08.000Z</time>
      </trkpt>
      <trkpt lat="45.88362" lon="4.84895">
        <ele>260.69757</ele>
        <time>2023-09-02T13:57:09.000Z</time>
      </trkpt>
      <trkpt lat="45.88357" lon="4.8489">
        <ele>260.53912</ele>
        <time>2023-09-02T13:57:10.000Z</time>
      </trkpt>
      <trkpt lat="45.88352" lon="4.84885">
        <ele>260.37946</ele>
        <time>2023-09-02T13:57:11.000Z</time>
      </trkpt>
      <trkpt lat="45.88346" lon="4.84881">
        <ele>260.24725</ele>
        <time>2023-09-02T13:57:12.000Z</time>
      </trkpt>
      <trkpt lat="45.8834" lon="4.84877">
        <ele>260.12396</ele>
        <time>2023-09-02T13:57:13.000Z</time>
      </trkpt>
      <trkpt lat="45.88334" lon="4.84873">
        <ele>260.03888</ele>
        <time>2023-09-02T13:57:14.000Z</time>
      </trkpt>
      <trkpt lat="45.88329" lon="4.8487">
        <ele>259.97528</ele>
        <time>2023-09-02T13:57:15.000Z</time>
      </trkpt>
      <trkpt lat="45.88323" lon="4.84867">
        <ele>259.90225</ele>
        <time>2023-09-02T13:57:16.000Z</time>
      </trkpt>
      <trkpt lat="45.88318" lon="4.84863">
        <ele>259.80142</ele>
        <time>2023-09-02T13:57:17.000Z</time>
      </trkpt>
      <trkpt lat="45.88311" lon="4.84859">
        <ele>259.69745</ele>
        <time>2023-09-02T13:57:18.000Z</time>
      </trkpt>
      <trkpt lat="45.88306" lon="4.84855">
        <ele>259.58231</ele>
        <time>2023-09-02T13:57:19.000Z</time>
      </trkpt>
      <trkpt lat="45.883" lon="4.84851">
        <ele>259.44653</ele>
        <time>2023-09-02T13:57:20.000Z</time>
      </trkpt>
      <trkpt lat="45.88295" lon="4.84847">
        <ele>259.30804</ele>
        <time>2023-09-02T13:57:21.000Z</time>
      </trkpt>
      <trkpt lat="45.88289" lon="4.84842">
        <ele>259.19708</ele>
        <time>2023-09-02T13:57:22.000Z</time>
      </trkpt>
      <trkpt lat="45.88284" lon="4.84838">
        <ele>259.07574</ele>
        <time>2023-09-02T13:57:23.000Z</time>
      </trkpt>
      <trkpt lat="45.88278" lon="4.84835">
        <ele>258.99075</ele>
        <time>2023-09-02T13:57:24.000Z</time>
      </trkpt>
      <trkpt lat="45.88272" lon="4.84831">
        <ele>258.91562</ele>
        <time>2023-09-02T13:57:25.000Z</time>
      </trkpt>
      <trkpt lat="45.88267" lon="4.84826">
        <ele>258.84668</ele>
        <time>2023-09-02T13:57:26.000Z</time>
      </trkpt>
      <trkpt lat="45.88261" lon="4.84823">
        <ele>258.78064</ele>
        <time>2023-09-02T13:57:27.000Z</time>
      </trkpt>
      <trkpt lat="45.88255" lon="4.8482">
        <ele>258.69257</ele>
        <time>2023-09-02T13:57:28.000Z</time>
      </trkpt>
      <trkpt lat="45.8825" lon="4.84816">
        <ele>258.60968</ele>
        <time>2023-09-02T13:57:29.000Z</time>
      </trkpt>
      <trkpt lat="45.88245" lon="4.84812">
        <ele>258.52115</ele>
        <time>2023-09-02T13:57:30.000Z</time>
      </trkpt>
      <trkpt lat="45.8824" lon="4.84808">
        <ele>258.46109</ele>
        <time>2023-09-02T13:57:31.000Z</time>
      </trkpt>
      <trkpt lat="45.88234" lon="4.84805">
        <ele>258.39441</ele>
        <time>2023-09-02T13:57:32.000Z</time>
      </trkpt>
      <trkpt lat="45.88229" lon="4.84802">
        <ele>258.32184</ele>
        <time>2023-09-02T13:57:33.000Z</time>
      </trkpt>
      <trkpt lat="45.88224" lon="4.84798">
        <ele>258.24149</ele>
        <time>2023-09-02T13:57:34.000Z</time>
      </trkpt>
      <trkpt lat="45.88219" lon="4.84795">
        <ele>258.12756</ele>
        <time>2023-09-02T13:57:35.000Z</time>
      </trkpt>
      <trkpt lat="45.88213" lon="4.8479">
        <ele>258.04147</ele>
        <time>2023-09-02T13:57:36.000Z</time>
      </trkpt>
      <trkpt lat="45.88207" lon="4.84787">
        <ele>257.94327</ele>
        <time>2023-09-02T13:57:37.000Z</time>
      </trkpt>
      <trkpt lat="45.882" lon="4.84783">
        <ele>257.83505</ele>
        <time>2023-09-02T13:57:38.000Z</time>
      </trkpt>
      <trkpt lat="45.88195" lon="4.8478">
        <ele>257.71954</ele>
        <time>2023-09-02T13:57:39.000Z</time>
      </trkpt>
      <trkpt lat="45.8819" lon="4.84777">
        <ele>257.63531</ele>
        <time>2023-09-02T13:57:40.000Z</time>
      </trkpt>
      <trkpt lat="45.88185" lon="4.84772">
        <ele>257.54327</ele>
        <time>2023-09-02T13:57:41.000Z</time>
      </trkpt>
      <trkpt lat="45.8818" lon="4.84768">
        <ele>257.46747</ele>
        <time>2023-09-02T13:57:42.000Z</time>
      </trkpt>
      <trkpt lat="45.88175" lon="4.84764">
        <ele>257.46869</ele>
        <time>2023-09-02T13:57:43.000Z</time>
      </trkpt>
      <trkpt lat="45.88169" lon="4.84761">
        <ele>257.46191</ele>
        <time>2023-09-02T13:57:44.000Z</time>
      </trkpt>
      <trkpt lat="45.88164" lon="4.84758">
        <ele>257.44949</ele>
        <time>2023-09-02T13:57:45.000Z</time>
      </trkpt>
      <trkpt lat="45.88158" lon="4.84756">
        <ele>257.45926</ele>
        <time>2023-09-02T13:57:46.000Z</time>
      </trkpt>
      <trkpt lat="45.88154" lon="4.84751">
        <ele>257.46973</ele>
        <time>2023-09-02T13:57:47.000Z</time>
      </trkpt>
      <trkpt lat="45.88148" lon="4.84747">
        <ele>257.48743</ele>
        <time>2023-09-02T13:57:48.000Z</time>
      </trkpt>
      <trkpt lat="45.88143" lon="4.84742">
        <ele>257.46204</ele>
        <time>2023-09-02T13:57:49.000Z</time>
      </trkpt>
      <trkpt lat="45.88138" lon="4.84738">
        <ele>257.46848</ele>
        <time>2023-09-02T13:57:50.000Z</time>
      </trkpt>
      <trkpt lat="45.88132" lon="4.84734">
        <ele>257.45038</ele>
        <time>2023-09-02T13:57:51.000Z</time>
      </trkpt>
      <trkpt lat="45.88127" lon="4.8473">
        <ele>257.4411</ele>
        <time>2023-09-02T13:57:52.000Z</time>
      </trkpt>
      <trkpt lat="45.88122" lon="4.84727">
        <ele>257.4411</ele>
        <time>2023-09-02T13:57:53.000Z</time>
      </trkpt>
      <trkpt lat="45.88117" lon="4.84723">
        <ele>257.44858</ele>
        <time>2023-09-02T13:57:54.000Z</time>
      </trkpt>
      <trkpt lat="45.88111" lon="4.8472">
        <ele>257.46405</ele>
        <time>2023-09-02T13:57:55.000Z</time>
      </trkpt>
      <trkpt lat="45.88106" lon="4.84716">
        <ele>257.4458</ele>
        <time>2023-09-02T13:57:56.000Z</time>
      </trkpt>
      <trkpt lat="45.88101" lon="4.84711">
        <ele>257.43903</ele>
        <time>2023-09-02T13:57:57.000Z</time>
      </trkpt>
      <trkpt lat="45.88097" lon="4.84706">
        <ele>257.44699</ele>
        <time>2023-09-02T13:57:58.000Z</time>
      </trkpt>
      <trkpt lat="45.88092" lon="4.84701">
        <ele>257.46075</ele>
        <time>2023-09-02T13:57:59.000Z</time>
      </trkpt>
      <trkpt lat="45.88088" lon="4.84696">
        <ele>257.4649</ele>
        <time>2023-09-02T13:58:00.000Z</time>
      </trkpt>
      <trkpt lat="45.88083" lon="4.8469">
        <ele>257.46378</ele>
        <time>2023-09-02T13:58:01.000Z</time>
      </trkpt>
      <trkpt lat="45.88078" lon="4.84684">
        <ele>257.41571</ele>
        <time>2023-09-02T13:58:02.000Z</time>
      </trkpt>
      <trkpt lat="45.88073" lon="4.84678">
        <ele>257.29181</ele>
        <time>2023-09-02T13:58:03.000Z</time>
      </trkpt>
      <trkpt lat="45.88069" lon="4.84675">
        <ele>257.03159</ele>
        <time>2023-09-02T13:58:04.000Z</time>
      </trkpt>
      <trkpt lat="45.88062" lon="4.84671">
        <ele>256.75659</ele>
        <time>2023-09-02T13:58:05.000Z</time>
      </trkpt>
      <trkpt lat="45.88056" lon="4.84668">
        <ele>256.49158</ele>
        <time>2023-09-02T13:58:06.000Z</time>
      </trkpt>
      <trkpt lat="45.8805" lon="4.84664">
        <ele>256.23248</ele>
        <time>2023-09-02T13:58:07.000Z</time>
      </trkpt>
      <trkpt lat="45.88044" lon="4.8466">
        <ele>255.99039</ele>
        <time>2023-09-02T13:58:08.000Z</time>
      </trkpt>
      <trkpt lat="45.88038" lon="4.84656">
        <ele>255.79031</ele>
        <time>2023-09-02T13:58:09.000Z</time>
      </trkpt>
      <trkpt lat="45.88032" lon="4.84651">
        <ele>255.57016</ele>
        <time>2023-09-02T13:58:10.000Z</time>
      </trkpt>
      <trkpt lat="45.88026" lon="4.84647">
        <ele>255.36055</ele>
        <time>2023-09-02T13:58:11.000Z</time>
      </trkpt>
      <trkpt lat="45.8802" lon="4.84642">
        <ele>254.82466</ele>
        <time>2023-09-02T13:58:12.000Z</time>
      </trkpt>
      <trkpt lat="45.88014" lon="4.84637">
        <ele>254.30244</ele>
        <time>2023-09-02T13:58:13.000Z</time>
      </trkpt>
      <trkpt lat="45.88008" lon="4.84634">
        <ele>253.78821</ele>
        <time>2023-09-02T13:58:14.000Z</time>
      </trkpt>
      <trkpt lat="45.88004" lon="4.84629">
        <ele>253.27119</ele>
        <time>2023-09-02T13:58:15.000Z</time>
      </trkpt>
      <trkpt lat="45.87998" lon="4.84626">
        <ele>252.79301</ele>
        <time>2023-09-02T13:58:16.000Z</time>
      </trkpt>
      <trkpt lat="45.87993" lon="4.84623">
        <ele>252.20552</ele>
        <time>2023-09-02T13:58:17.000Z</time>
      </trkpt>
      <trkpt lat="45.87989" lon="4.84618">
        <ele>252.11569</ele>
        <time>2023-09-02T13:58:18.000Z</time>
      </trkpt>
      <trkpt lat="45.87984" lon="4.84613">
        <ele>252.03833</ele>
        <time>2023-09-02T13:58:19.000Z</time>
      </trkpt>
      <trkpt lat="45.87978" lon="4.84609">
        <ele>251.94954</ele>
        <time>2023-09-02T13:58:20.000Z</time>
      </trkpt>
      <trkpt lat="45.87973" lon="4.84605">
        <ele>251.85291</ele>
        <time>2023-09-02T13:58:21.000Z</time>
      </trkpt>
      <trkpt lat="45.87968" lon="4.84601">
        <ele>251.77921</ele>
        <time>2023-09-02T13:58:22.000Z</time>
      </trkpt>
      <trkpt lat="45.87963" lon="4.84598">
        <ele>251.75581</ele>
        <time>2023-09-02T13:58:23.000Z</time>
      </trkpt>
      <trkpt lat="45.87958" lon="4.84595">
        <ele>251.86398</ele>
        <time>2023-09-02T13:58:24.000Z</time>
      </trkpt>
      <trkpt lat="45.87952" lon="4.84592">
        <ele>251.98604</ele>
        <time>2023-09-02T13:58:25.000Z</time>
      </trkpt>
      <trkpt lat="45.87947" lon="4.84588">
        <ele>252.08496</ele>
        <time>2023-09-02T13:58:26.000Z</time>
      </trkpt>
      <trkpt lat="45.87941" lon="4.84584">
        <ele>252.16182</ele>
        <time>2023-09-02T13:58:27.000Z</time>
      </trkpt>
      <trkpt lat="45.87936" lon="4.8458">
        <ele>252.2187</ele>
        <time>2023-09-02T13:58:28.000Z</time>
      </trkpt>
      <trkpt lat="45.87931" lon="4.84576">
        <ele>252.27019</ele>
        <time>2023-09-02T13:58:29.000Z</time>
      </trkpt>
      <trkpt lat="45.87925" lon="4.84573">
        <ele>252.33853</ele>
        <time>2023-09-02T13:58:30.000Z</time>
      </trkpt>
      <trkpt lat="45.8792" lon="4.84569">
        <ele>252.40996</ele>
        <time>2023-09-02T13:58:31.000Z</time>
      </trkpt>
      <trkpt lat="45.87915" lon="4.84565">
        <ele>252.7959</ele>
        <time>2023-09-02T13:58:32.000Z</time>
      </trkpt>
      <trkpt lat="45.87909" lon="4.8456">
        <ele>252.7554</ele>
        <time>2023-09-02T13:58:33.000Z</time>
      </trkpt>
      <trkpt lat="45.87904" lon="4.84556">
        <ele>252.66977</ele>
        <time>2023-09-02T13:58:34.000Z</time>
      </trkpt>
      <trkpt lat="45.87898" lon="4.84552">
        <ele>252.61386</ele>
        <time>2023-09-02T13:58:35.000Z</time>
      </trkpt>
      <trkpt lat="45.87893" lon="4.84548">
        <ele>252.51077</ele>
        <time>2023-09-02T13:58:36.000Z</time>
      </trkpt>
      <trkpt lat="45.87887" lon="4.84545">
        <ele>252.50073</ele>
        <time>2023-09-02T13:58:37.000Z</time>
      </trkpt>
      <trkpt lat="45.87881" lon="4.84541">
        <ele>251.99265</ele>
        <time>2023-09-02T13:58:38.000Z</time>
      </trkpt>
      <trkpt lat="45.87876" lon="4.84536">
        <ele>251.47466</ele>
        <time>2023-09-02T13:58:39.000Z</time>
      </trkpt>
      <trkpt lat="45.87871" lon="4.84532">
        <ele>250.98044</ele>
        <time>2023-09-02T13:58:40.000Z</time>
      </trkpt>
      <trkpt lat="45.87865" lon="4.84527">
        <ele>250.46463</ele>
        <time>2023-09-02T13:58:41.000Z</time>
      </trkpt>
      <trkpt lat="45.8786" lon="4.84522">
        <ele>249.93904</ele>
        <time>2023-09-02T13:58:42.000Z</time>
      </trkpt>
      <trkpt lat="45.87855" lon="4.84516">
        <ele>249.36667</ele>
        <time>2023-09-02T13:58:43.000Z</time>
      </trkpt>
      <trkpt lat="45.8785" lon="4.8451">
        <ele>248.7662</ele>
        <time>2023-09-02T13:58:44.000Z</time>
      </trkpt>
      <trkpt lat="45.87846" lon="4.84504">
        <ele>248.17105</ele>
        <time>2023-09-02T13:58:45.000Z</time>
      </trkpt>
      <trkpt lat="45.87841" lon="4.84498">
        <ele>247.55313</ele>
        <time>2023-09-02T13:58:46.000Z</time>
      </trkpt>
      <trkpt lat="45.87837" lon="4.84491">
        <ele>246.96078</ele>
        <time>2023-09-02T13:58:47.000Z</time>
      </trkpt>
      <trkpt lat="45.87833" lon="4.84484">
        <ele>246.3829</ele>
        <time>2023-09-02T13:58:48.000Z</time>
      </trkpt>
      <trkpt lat="45.87829" lon="4.84477">
        <ele>245.82837</ele>
        <time>2023-09-02T13:58:49.000Z</time>
      </trkpt>
      <trkpt lat="45.87825" lon="4.8447">
        <ele>245.28125</ele>
        <time>2023-09-02T13:58:50.000Z</time>
      </trkpt>
      <trkpt lat="45.87821" lon="4.84463">
        <ele>244.72505</ele>
        <time>2023-09-02T13:58:51.000Z</time>
      </trkpt>
      <trkpt lat="45.87817" lon="4.84455">
        <ele>244.1709</ele>
        <time>2023-09-02T13:58:52.000Z</time>
      </trkpt>
      <trkpt lat="45.87812" lon="4.84447">
        <ele>244.0144</ele>
        <time>2023-09-02T13:58:53.000Z</time>
      </trkpt>
      <trkpt lat="45.87808" lon="4.84441">
        <ele>243.93074</ele>
        <time>2023-09-02T13:58:54.000Z</time>
      </trkpt>
      <trkpt lat="45.87803" lon="4.84435">
        <ele>243.85544</ele>
        <time>2023-09-02T13:58:55.000Z</time>
      </trkpt>
      <trkpt lat="45.87798" lon="4.84427">
        <ele>243.78271</ele>
        <time>2023-09-02T13:58:56.000Z</time>
      </trkpt>
      <trkpt lat="45.87794" lon="4.8442">
        <ele>243.69986</ele>
        <time>2023-09-02T13:58:57.000Z</time>
      </trkpt>
      <trkpt lat="45.87789" lon="4.84412">
        <ele>243.59502</ele>
        <time>2023-09-02T13:58:58.000Z</time>
      </trkpt>
      <trkpt lat="45.87783" lon="4.84405">
        <ele>244.13017</ele>
        <time>2023-09-02T13:58:59.000Z</time>
      </trkpt>
      <trkpt lat="45.87779" lon="4.84397">
        <ele>244.63074</ele>
        <time>2023-09-02T13:59:00.000Z</time>
      </trkpt>
      <trkpt lat="45.87775" lon="4.8439">
        <ele>245.17276</ele>
        <time>2023-09-02T13:59:01.000Z</time>
      </trkpt>
      <trkpt lat="45.87771" lon="4.84381">
        <ele>245.65543</ele>
        <time>2023-09-02T13:59:02.000Z</time>
      </trkpt>
      <trkpt lat="45.87767" lon="4.84372">
        <ele>246.15967</ele>
        <time>2023-09-02T13:59:03.000Z</time>
      </trkpt>
      <trkpt lat="45.87763" lon="4.84364">
        <ele>246.78337</ele>
        <time>2023-09-02T13:59:04.000Z</time>
      </trkpt>
      <trkpt lat="45.87759" lon="4.84357">
        <ele>246.5741</ele>
        <time>2023-09-02T13:59:05.000Z</time>
      </trkpt>
      <trkpt lat="45.87754" lon="4.8435">
        <ele>246.38358</ele>
        <time>2023-09-02T13:59:06.000Z</time>
      </trkpt>
      <trkpt lat="45.87752" lon="4.84341">
        <ele>246.16251</ele>
        <time>2023-09-02T13:59:07.000Z</time>
      </trkpt>
      <trkpt lat="45.87749" lon="4.84331">
        <ele>246.55203</ele>
        <time>2023-09-02T13:59:08.000Z</time>
      </trkpt>
      <trkpt lat="45.87748" lon="4.84322">
        <ele>246.88486</ele>
        <time>2023-09-02T13:59:09.000Z</time>
      </trkpt>
      <trkpt lat="45.87747" lon="4.84312">
        <ele>247.28276</ele>
        <time>2023-09-02T13:59:10.000Z</time>
      </trkpt>
      <trkpt lat="45.87749" lon="4.84301">
        <ele>247.03105</ele>
        <time>2023-09-02T13:59:11.000Z</time>
      </trkpt>
      <trkpt lat="45.8775" lon="4.8429">
        <ele>246.793</ele>
        <time>2023-09-02T13:59:12.000Z</time>
      </trkpt>
      <trkpt lat="45.87751" lon="4.84278">
        <ele>246.56351</ele>
        <time>2023-09-02T13:59:13.000Z</time>
      </trkpt>
      <trkpt lat="45.87752" lon="4.84268">
        <ele>246.28926</ele>
        <time>2023-09-02T13:59:14.000Z</time>
      </trkpt>
      <trkpt lat="45.87754" lon="4.84256">
        <ele>246.0054</ele>
        <time>2023-09-02T13:59:15.000Z</time>
      </trkpt>
      <trkpt lat="45.87755" lon="4.84244">
        <ele>245.70938</ele>
        <time>2023-09-02T13:59:16.000Z</time>
      </trkpt>
      <trkpt lat="45.87757" lon="4.8423">
        <ele>245.42534</ele>
        <time>2023-09-02T13:59:17.000Z</time>
      </trkpt>
      <trkpt lat="45.8776" lon="4.84218">
        <ele>245.16182</ele>
        <time>2023-09-02T13:59:18.000Z</time>
      </trkpt>
      <trkpt lat="45.87761" lon="4.84208">
        <ele>244.23538</ele>
        <time>2023-09-02T13:59:19.000Z</time>
      </trkpt>
      <trkpt lat="45.87763" lon="4.842">
        <ele>243.32124</ele>
        <time>2023-09-02T13:59:20.000Z</time>
      </trkpt>
      <trkpt lat="45.87764" lon="4.84193">
        <ele>242.39029</ele>
        <time>2023-09-02T13:59:21.000Z</time>
      </trkpt>
      <trkpt lat="45.87763" lon="4.84189">
        <ele>241.52554</ele>
        <time>2023-09-02T13:59:22.000Z</time>
      </trkpt>
      <trkpt lat="45.87765" lon="4.84186">
        <ele>240.65327</ele>
        <time>2023-09-02T13:59:23.000Z</time>
      </trkpt>
      <trkpt lat="45.87766" lon="4.84182">
        <ele>239.66055</ele>
        <time>2023-09-02T13:59:24.000Z</time>
      </trkpt>
      <trkpt lat="45.87767" lon="4.84176">
        <ele>239.49736</ele>
        <time>2023-09-02T13:59:25.000Z</time>
      </trkpt>
      <trkpt lat="45.87769" lon="4.8417">
        <ele>239.34061</ele>
        <time>2023-09-02T13:59:26.000Z</time>
      </trkpt>
      <trkpt lat="45.8777" lon="4.84165">
        <ele>239.2148</ele>
        <time>2023-09-02T13:59:27.000Z</time>
      </trkpt>
      <trkpt lat="45.87772" lon="4.84158">
        <ele>238.47971</ele>
        <time>2023-09-02T13:59:28.000Z</time>
      </trkpt>
      <trkpt lat="45.87774" lon="4.84151">
        <ele>237.77449</ele>
        <time>2023-09-02T13:59:29.000Z</time>
      </trkpt>
      <trkpt lat="45.87775" lon="4.84143">
        <ele>236.94536</ele>
        <time>2023-09-02T13:59:30.000Z</time>
      </trkpt>
      <trkpt lat="45.87776" lon="4.84136">
        <ele>236.77583</ele>
        <time>2023-09-02T13:59:31.000Z</time>
      </trkpt>
      <trkpt lat="45.87777" lon="4.84128">
        <ele>236.57988</ele>
        <time>2023-09-02T13:59:32.000Z</time>
      </trkpt>
      <trkpt lat="45.87779" lon="4.84118">
        <ele>236.42061</ele>
        <time>2023-09-02T13:59:33.000Z</time>
      </trkpt>
      <trkpt lat="45.87781" lon="4.8411">
        <ele>236.28397</ele>
        <time>2023-09-02T13:59:34.000Z</time>
      </trkpt>
      <trkpt lat="45.87783" lon="4.84101">
        <ele>236.14253</ele>
        <time>2023-09-02T13:59:35.000Z</time>
      </trkpt>
      <trkpt lat="45.87784" lon="4.84094">
        <ele>236.03194</ele>
        <time>2023-09-02T13:59:36.000Z</time>
      </trkpt>
      <trkpt lat="45.87781" lon="4.84084">
        <ele>236.83279</ele>
        <time>2023-09-02T13:59:37.000Z</time>
      </trkpt>
      <trkpt lat="45.87779" lon="4.84076">
        <ele>237.67764</ele>
        <time>2023-09-02T13:59:38.000Z</time>
      </trkpt>
      <trkpt lat="45.87777" lon="4.84068">
        <ele>238.56271</ele>
        <time>2023-09-02T13:59:39.000Z</time>
      </trkpt>
      <trkpt lat="45.8777" lon="4.84066">
        <ele>239.33977</ele>
        <time>2023-09-02T13:59:40.000Z</time>
      </trkpt>
      <trkpt lat="45.87764" lon="4.84062">
        <ele>240.1282</ele>
        <time>2023-09-02T13:59:41.000Z</time>
      </trkpt>
      <trkpt lat="45.87758" lon="4.84057">
        <ele>240.84164</ele>
        <time>2023-09-02T13:59:42.000Z</time>
      </trkpt>
      <trkpt lat="45.87755" lon="4.84049">
        <ele>241.70903</ele>
        <time>2023-09-02T13:59:43.000Z</time>
      </trkpt>
      <trkpt lat="45.87752" lon="4.84042">
        <ele>242.45749</ele>
        <time>2023-09-02T13:59:44.000Z</time>
      </trkpt>
      <trkpt lat="45.87752" lon="4.84036">
        <ele>243.32039</ele>
        <time>2023-09-02T13:59:45.000Z</time>
      </trkpt>
      <trkpt lat="45.87752" lon="4.84031">
        <ele>244.22319</ele>
        <time>2023-09-02T13:59:46.000Z</time>
      </trkpt>
      <trkpt lat="45.87753" lon="4.84025">
        <ele>245.10588</ele>
        <time>2023-09-02T13:59:47.000Z</time>
      </trkpt>
      <trkpt lat="45.87753" lon="4.84019">
        <ele>245.95895</ele>
        <time>2023-09-02T13:59:48.000Z</time>
      </trkpt>
      <trkpt lat="45.87753" lon="4.84012">
        <ele>246.29248</ele>
        <time>2023-09-02T13:59:49.000Z</time>
      </trkpt>
      <trkpt lat="45.87753" lon="4.84005">
        <ele>246.05315</ele>
        <time>2023-09-02T13:59:50.000Z</time>
      </trkpt>
      <trkpt lat="45.87753" lon="4.83998">
        <ele>245.81714</ele>
        <time>2023-09-02T13:59:51.000Z</time>
      </trkpt>
      <trkpt lat="45.87752" lon="4.83991">
        <ele>245.66731</ele>
        <time>2023-09-02T13:59:52.000Z</time>
      </trkpt>
      <trkpt lat="45.87751" lon="4.83984">
        <ele>246.08586</ele>
        <time>2023-09-02T13:59:53.000Z</time>
      </trkpt>
      <trkpt lat="45.8775" lon="4.83976">
        <ele>246.57593</ele>
        <time>2023-09-02T13:59:54.000Z</time>
      </trkpt>
      <trkpt lat="45.87749" lon="4.83969">
        <ele>247.01254</ele>
        <time>2023-09-02T13:59:55.000Z</time>
      </trkpt>
      <trkpt lat="45.87748" lon="4.83961">
        <ele>247.43318</ele>
        <time>2023-09-02T13:59:56.000Z</time>
      </trkpt>
      <trkpt lat="45.87747" lon="4.83953">
        <ele>247.18567</ele>
        <time>2023-09-02T13:59:57.000Z</time>
      </trkpt>
      <trkpt lat="45.87747" lon="4.83946">
        <ele>246.88567</ele>
        <time>2023-09-02T13:59:58.000Z</time>
      </trkpt>
      <trkpt lat="45.87746" lon="4.83938">
        <ele>246.57259</ele>
        <time>2023-09-02T13:59:59.000Z</time>
      </trkpt>
      <trkpt lat="45.87744" lon="4.83932">
        <ele>246.54309</ele>
        <time>2023-09-02T14:00:00.000Z</time>
      </trkpt>
      <trkpt lat="45.87743" lon="4.83924">
        <ele>246.51677</ele>
        <time>2023-09-02T14:00:01.000Z</time>
      </trkpt>
      <trkpt lat="45.87742" lon="4.83917">
        <ele>246.09305</ele>
        <time>2023-09-02T14:00:02.000Z</time>
      </trkpt>
      <trkpt lat="45.87741" lon="4.83909">
        <ele>245.57944</ele>
        <time>2023-09-02T14:00:03.000Z</time>
      </trkpt>
      <trkpt lat="45.8774" lon="4.83902">
        <ele>245.20296</ele>
        <time>2023-09-02T14:00:04.000Z</time>
      </trkpt>
      <trkpt lat="45.8774" lon="4.83894">
        <ele>244.74846</ele>
        <time>2023-09-02T14:00:05.000Z</time>
      </trkpt>
      <trkpt lat="45.87739" lon="4.8389">
        <ele>244.32373</ele>
        <time>2023-09-02T14:00:06.000Z</time>
      </trkpt>
      <trkpt lat="45.87739" lon="4.83886">
        <ele>243.21758</ele>
        <time>2023-09-02T14:00:07.000Z</time>
      </trkpt>
      <trkpt lat="45.87739" lon="4.83882">
        <ele>242.13969</ele>
        <time>2023-09-02T14:00:08.000Z</time>
      </trkpt>
      <trkpt lat="45.87738" lon="4.83878">
        <ele>241.58598</ele>
        <time>2023-09-02T14:00:09.000Z</time>
      </trkpt>
      <trkpt lat="45.87738" lon="4.83874">
        <ele>241.62395</ele>
        <time>2023-09-02T14:00:10.000Z</time>
      </trkpt>
      <trkpt lat="45.87738" lon="4.83871">
        <ele>241.68672</ele>
        <time>2023-09-02T14:00:11.000Z</time>
      </trkpt>
      <trkpt lat="45.87737" lon="4.83868">
        <ele>241.66116</ele>
        <time>2023-09-02T14:00:12.000Z</time>
      </trkpt>
      <trkpt lat="45.87737" lon="4.83864">
        <ele>241.03618</ele>
        <time>2023-09-02T14:00:13.000Z</time>
      </trkpt>
      <trkpt lat="45.87736" lon="4.83862">
        <ele>240.33487</ele>
        <time>2023-09-02T14:00:14.000Z</time>
      </trkpt>
      <trkpt lat="45.87736" lon="4.83858">
        <ele>239.74472</ele>
        <time>2023-09-02T14:00:15.000Z</time>
      </trkpt>
      <trkpt lat="45.87736" lon="4.83855">
        <ele>239.13725</ele>
        <time>2023-09-02T14:00:16.000Z</time>
      </trkpt>
      <trkpt lat="45.87736" lon="4.83851">
        <ele>238.29297</ele>
        <time>2023-09-02T14:00:17.000Z</time>
      </trkpt>
      <trkpt lat="45.87735" lon="4.83847">
        <ele>237.49728</ele>
        <time>2023-09-02T14:00:18.000Z</time>
      </trkpt>
      <trkpt lat="45.87735" lon="4.83843">
        <ele>236.62912</ele>
        <time>2023-09-02T14:00:19.000Z</time>
      </trkpt>
      <trkpt lat="45.87734" lon="4.83839">
        <ele>235.58577</ele>
        <time>2023-09-02T14:00:20.000Z</time>
      </trkpt>
      <trkpt lat="45.87734" lon="4.83835">
        <ele>234.57442</ele>
        <time>2023-09-02T14:00:21.000Z</time>
      </trkpt>
      <trkpt lat="45.87733" lon="4.83831">
        <ele>234.0123</ele>
        <time>2023-09-02T14:00:22.000Z</time>
      </trkpt>
      <trkpt lat="45.8773" lon="4.83828">
        <ele>233.35091</ele>
        <time>2023-09-02T14:00:23.000Z</time>
      </trkpt>
      <trkpt lat="45.87728" lon="4.83827">
        <ele>232.69478</ele>
        <time>2023-09-02T14:00:24.000Z</time>
      </trkpt>
      <trkpt lat="45.87724" lon="4.83826">
        <ele>232.06531</ele>
        <time>2023-09-02T14:00:25.000Z</time>
      </trkpt>
      <trkpt lat="45.87722" lon="4.83825">
        <ele>231.28943</ele>
        <time>2023-09-02T14:00:26.000Z</time>
      </trkpt>
      <trkpt lat="45.87719" lon="4.83824">
        <ele>231.21782</ele>
        <time>2023-09-02T14:00:27.000Z</time>
      </trkpt>
      <trkpt lat="45.87716" lon="4.83823">
        <ele>231.11259</ele>
        <time>2023-09-02T14:00:28.000Z</time>
      </trkpt>
      <trkpt lat="45.87713" lon="4.83823">
        <ele>231.05264</ele>
        <time>2023-09-02T14:00:29.000Z</time>
      </trkpt>
      <trkpt lat="45.87711" lon="4.83822">
        <ele>230.96858</ele>
        <time>2023-09-02T14:00:30.000Z</time>
      </trkpt>
      <trkpt lat="45.87709" lon="4.83821">
        <ele>230.83467</ele>
        <time>2023-09-02T14:00:31.000Z</time>
      </trkpt>
      <trkpt lat="45.87707" lon="4.83819">
        <ele>230.7419</ele>
        <time>2023-09-02T14:00:32.000Z</time>
      </trkpt>
      <trkpt lat="45.87705" lon="4.83816">
        <ele>230.66931</ele>
        <time>2023-09-02T14:00:33.000Z</time>
      </trkpt>
      <trkpt lat="45.87704" lon="4.83812">
        <ele>230.60466</ele>
        <time>2023-09-02T14:00:34.000Z</time>
      </trkpt>
      <trkpt lat="45.87703" lon="4.83808">
        <ele>230.50447</ele>
        <time>2023-09-02T14:00:35.000Z</time>
      </trkpt>
      <trkpt lat="45.87703" lon="4.83804">
        <ele>230.39355</ele>
        <time>2023-09-02T14:00:36.000Z</time>
      </trkpt>
      <trkpt lat="45.87703" lon="4.838">
        <ele>230.31406</ele>
        <time>2023-09-02T14:00:37.000Z</time>
      </trkpt>
      <trkpt lat="45.87703" lon="4.83795">
        <ele>230.21658</ele>
        <time>2023-09-02T14:00:38.000Z</time>
      </trkpt>
      <trkpt lat="45.87703" lon="4.83791">
        <ele>230.14774</ele>
        <time>2023-09-02T14:00:39.000Z</time>
      </trkpt>
      <trkpt lat="45.87702" lon="4.83786">
        <ele>230.11836</ele>
        <time>2023-09-02T14:00:40.000Z</time>
      </trkpt>
      <trkpt lat="45.87702" lon="4.83782">
        <ele>230.08891</ele>
        <time>2023-09-02T14:00:41.000Z</time>
      </trkpt>
      <trkpt lat="45.87701" lon="4.83778">
        <ele>230.1512</ele>
        <time>2023-09-02T14:00:42.000Z</time>
      </trkpt>
      <trkpt lat="45.87701" lon="4.83773">
        <ele>230.15034</ele>
        <time>2023-09-02T14:00:43.000Z</time>
      </trkpt>
      <trkpt lat="45.87701" lon="4.83769">
        <ele>230.13394</ele>
        <time>2023-09-02T14:00:44.000Z</time>
      </trkpt>
      <trkpt lat="45.877" lon="4.83764">
        <ele>230.07925</ele>
        <time>2023-09-02T14:00:45.000Z</time>
      </trkpt>
      <trkpt lat="45.877" lon="4.8376">
        <ele>230.0988</ele>
        <time>2023-09-02T14:00:46.000Z</time>
      </trkpt>
      <trkpt lat="45.87699" lon="4.83756">
        <ele>230.11929</ele>
        <time>2023-09-02T14:00:47.000Z</time>
      </trkpt>
      <trkpt lat="45.87699" lon="4.83751">
        <ele>230.16208</ele>
        <time>2023-09-02T14:00:48.000Z</time>
      </trkpt>
      <trkpt lat="45.87698" lon="4.83747">
        <ele>230.18982</ele>
        <time>2023-09-02T14:00:49.000Z</time>
      </trkpt>
      <trkpt lat="45.87698" lon="4.83742">
        <ele>230.23856</ele>
        <time>2023-09-02T14:00:50.000Z</time>
      </trkpt>
      <trkpt lat="45.87698" lon="4.83737">
        <ele>230.29622</ele>
        <time>2023-09-02T14:00:51.000Z</time>
      </trkpt>
      <trkpt lat="45.87698" lon="4.83733">
        <ele>230.31143</ele>
        <time>2023-09-02T14:00:52.000Z</time>
      </trkpt>
      <trkpt lat="45.87698" lon="4.83728">
        <ele>230.35823</ele>
        <time>2023-09-02T14:00:53.000Z</time>
      </trkpt>
      <trkpt lat="45.87697" lon="4.83723">
        <ele>230.41182</ele>
        <time>2023-09-02T14:00:54.000Z</time>
      </trkpt>
      <trkpt lat="45.87696" lon="4.83719">
        <ele>230.44077</ele>
        <time>2023-09-02T14:00:55.000Z</time>
      </trkpt>
      <trkpt lat="45.87696" lon="4.83714">
        <ele>230.51477</ele>
        <time>2023-09-02T14:00:56.000Z</time>
      </trkpt>
      <trkpt lat="45.87696" lon="4.83709">
        <ele>230.47568</ele>
        <time>2023-09-02T14:00:57.000Z</time>
      </trkpt>
      <trkpt lat="45.87695" lon="4.83704">
        <ele>230.42912</ele>
        <time>2023-09-02T14:00:58.000Z</time>
      </trkpt>
      <trkpt lat="45.87695" lon="4.837">
        <ele>230.42387</ele>
        <time>2023-09-02T14:00:59.000Z</time>
      </trkpt>
      <trkpt lat="45.87694" lon="4.83696">
        <ele>230.43767</ele>
        <time>2023-09-02T14:01:00.000Z</time>
      </trkpt>
      <trkpt lat="45.87694" lon="4.83691">
        <ele>230.40898</ele>
        <time>2023-09-02T14:01:01.000Z</time>
      </trkpt>
      <trkpt lat="45.87693" lon="4.83687">
        <ele>230.37988</ele>
        <time>2023-09-02T14:01:02.000Z</time>
      </trkpt>
      <trkpt lat="45.87693" lon="4.83682">
        <ele>230.4375</ele>
        <time>2023-09-02T14:01:03.000Z</time>
      </trkpt>
      <trkpt lat="45.87692" lon="4.83678">
        <ele>230.5201</ele>
        <time>2023-09-02T14:01:04.000Z</time>
      </trkpt>
      <trkpt lat="45.87692" lon="4.83673">
        <ele>230.57686</ele>
        <time>2023-09-02T14:01:05.000Z</time>
      </trkpt>
      <trkpt lat="45.87692" lon="4.83669">
        <ele>230.60904</ele>
        <time>2023-09-02T14:01:06.000Z</time>
      </trkpt>
      <trkpt lat="45.87692" lon="4.83664">
        <ele>230.54614</ele>
        <time>2023-09-02T14:01:07.000Z</time>
      </trkpt>
      <trkpt lat="45.87691" lon="4.83659">
        <ele>230.48129</ele>
        <time>2023-09-02T14:01:08.000Z</time>
      </trkpt>
      <trkpt lat="45.87691" lon="4.83654">
        <ele>230.37833</ele>
        <time>2023-09-02T14:01:09.000Z</time>
      </trkpt>
      <trkpt lat="45.87691" lon="4.8365">
        <ele>230.32735</ele>
        <time>2023-09-02T14:01:10.000Z</time>
      </trkpt>
      <trkpt lat="45.8769" lon="4.83644">
        <ele>230.28964</ele>
        <time>2023-09-02T14:01:11.000Z</time>
      </trkpt>
      <trkpt lat="45.8769" lon="4.83639">
        <ele>230.30225</ele>
        <time>2023-09-02T14:01:12.000Z</time>
      </trkpt>
      <trkpt lat="45.87689" lon="4.83634">
        <ele>230.28398</ele>
        <time>2023-09-02T14:01:13.000Z</time>
      </trkpt>
      <trkpt lat="45.87688" lon="4.83629">
        <ele>230.23926</ele>
        <time>2023-09-02T14:01:14.000Z</time>
      </trkpt>
      <trkpt lat="45.87687" lon="4.83623">
        <ele>230.17317</ele>
        <time>2023-09-02T14:01:15.000Z</time>
      </trkpt>
      <trkpt lat="45.87687" lon="4.83617">
        <ele>230.11758</ele>
        <time>2023-09-02T14:01:16.000Z</time>
      </trkpt>
      <trkpt lat="45.87687" lon="4.83612">
        <ele>230.15683</ele>
        <time>2023-09-02T14:01:17.000Z</time>
      </trkpt>
      <trkpt lat="45.87686" lon="4.83606">
        <ele>230.15019</ele>
        <time>2023-09-02T14:01:18.000Z</time>
      </trkpt>
      <trkpt lat="45.87686" lon="4.83601">
        <ele>230.16313</ele>
        <time>2023-09-02T14:01:19.000Z</time>
      </trkpt>
      <trkpt lat="45.87686" lon="4.83595">
        <ele>230.12524</ele>
        <time>2023-09-02T14:01:20.000Z</time>
      </trkpt>
      <trkpt lat="45.87685" lon="4.8359">
        <ele>230.08713</ele>
        <time>2023-09-02T14:01:21.000Z</time>
      </trkpt>
      <trkpt lat="45.87684" lon="4.83584">
        <ele>229.97012</ele>
        <time>2023-09-02T14:01:22.000Z</time>
      </trkpt>
      <trkpt lat="45.87684" lon="4.83579">
        <ele>229.93481</ele>
        <time>2023-09-02T14:01:23.000Z</time>
      </trkpt>
      <trkpt lat="45.87683" lon="4.83574">
        <ele>229.89799</ele>
        <time>2023-09-02T14:01:24.000Z</time>
      </trkpt>
      <trkpt lat="45.87684" lon="4.83569">
        <ele>229.88132</ele>
        <time>2023-09-02T14:01:25.000Z</time>
      </trkpt>
      <trkpt lat="45.87685" lon="4.83565">
        <ele>229.79581</ele>
        <time>2023-09-02T14:01:26.000Z</time>
      </trkpt>
      <trkpt lat="45.87687" lon="4.8356">
        <ele>229.80013</ele>
        <time>2023-09-02T14:01:27.000Z</time>
      </trkpt>
      <trkpt lat="45.8769" lon="4.83556">
        <ele>229.8582</ele>
        <time>2023-09-02T14:01:28.000Z</time>
      </trkpt>
      <trkpt lat="45.87693" lon="4.83553">
        <ele>229.95398</ele>
        <time>2023-09-02T14:01:29.000Z</time>
      </trkpt>
      <trkpt lat="45.87695" lon="4.83551">
        <ele>230.00945</ele>
        <time>2023-09-02T14:01:30.000Z</time>
      </trkpt>
      <trkpt lat="45.87697" lon="4.8355">
        <ele>230.16277</ele>
        <time>2023-09-02T14:01:33.000Z</time>
      </trkpt>
      <trkpt lat="45.87697" lon="4.83547">
        <ele>230.22981</ele>
        <time>2023-09-02T14:01:39.000Z</time>
      </trkpt>
      <trkpt lat="45.87697" lon="4.83543">
        <ele>230.28378</ele>
        <time>2023-09-02T14:01:40.000Z</time>
      </trkpt>
      <trkpt lat="45.87699" lon="4.83539">
        <ele>230.32956</ele>
        <time>2023-09-02T14:01:41.000Z</time>
      </trkpt>
      <trkpt lat="45.87701" lon="4.83535">
        <ele>230.38852</ele>
        <time>2023-09-02T14:01:42.000Z</time>
      </trkpt>
      <trkpt lat="45.87703" lon="4.83531">
        <ele>230.43039</ele>
        <time>2023-09-02T14:01:43.000Z</time>
      </trkpt>
      <trkpt lat="45.87704" lon="4.83528">
        <ele>230.45364</ele>
        <time>2023-09-02T14:01:44.000Z</time>
      </trkpt>
      <trkpt lat="45.87705" lon="4.83525">
        <ele>230.47969</ele>
        <time>2023-09-02T14:01:45.000Z</time>
      </trkpt>
      <trkpt lat="45.87707" lon="4.83524">
        <ele>230.44214</ele>
        <time>2023-09-02T14:01:46.000Z</time>
      </trkpt>
      <trkpt lat="45.8771" lon="4.83522">
        <ele>231.09775</ele>
        <time>2023-09-02T14:01:47.000Z</time>
      </trkpt>
      <trkpt lat="45.87712" lon="4.83519">
        <ele>231.09213</ele>
        <time>2023-09-02T14:01:48.000Z</time>
      </trkpt>
      <trkpt lat="45.87714" lon="4.83517">
        <ele>231.09586</ele>
        <time>2023-09-02T14:01:49.000Z</time>
      </trkpt>
      <trkpt lat="45.87717" lon="4.83514">
        <ele>231.05771</ele>
        <time>2023-09-02T14:01:50.000Z</time>
      </trkpt>
      <trkpt lat="45.87719" lon="4.83511">
        <ele>230.98174</ele>
        <time>2023-09-02T14:01:51.000Z</time>
      </trkpt>
      <trkpt lat="45.87722" lon="4.83508">
        <ele>230.75342</ele>
        <time>2023-09-02T14:01:52.000Z</time>
      </trkpt>
      <trkpt lat="45.87724" lon="4.83505">
        <ele>230.65036</ele>
        <time>2023-09-02T14:01:53.000Z</time>
      </trkpt>
      <trkpt lat="45.87727" lon="4.83501">
        <ele>230.53088</ele>
        <time>2023-09-02T14:01:54.000Z</time>
      </trkpt>
      <trkpt lat="45.87729" lon="4.83498">
        <ele>230.36002</ele>
        <time>2023-09-02T14:01:55.000Z</time>
      </trkpt>
      <trkpt lat="45.8773" lon="4.83494">
        <ele>230.17166</ele>
        <time>2023-09-02T14:01:56.000Z</time>
      </trkpt>
      <trkpt lat="45.8773" lon="4.83489">
        <ele>230.00854</ele>
        <time>2023-09-02T14:01:57.000Z</time>
      </trkpt>
      <trkpt lat="45.87728" lon="4.83485">
        <ele>229.75374</ele>
        <time>2023-09-02T14:01:58.000Z</time>
      </trkpt>
      <trkpt lat="45.87726" lon="4.83481">
        <ele>229.62503</ele>
        <time>2023-09-02T14:01:59.000Z</time>
      </trkpt>
      <trkpt lat="45.87723" lon="4.83477">
        <ele>229.5321</ele>
        <time>2023-09-02T14:02:00.000Z</time>
      </trkpt>
      <trkpt lat="45.8772" lon="4.83474">
        <ele>229.4581</ele>
        <time>2023-09-02T14:02:01.000Z</time>
      </trkpt>
      <trkpt lat="45.87717" lon="4.83471">
        <ele>229.26982</ele>
        <time>2023-09-02T14:02:02.000Z</time>
      </trkpt>
      <trkpt lat="45.87714" lon="4.83468">
        <ele>229.50911</ele>
        <time>2023-09-02T14:02:03.000Z</time>
      </trkpt>
      <trkpt lat="45.87711" lon="4.83465">
        <ele>229.78665</ele>
        <time>2023-09-02T14:02:04.000Z</time>
      </trkpt>
      <trkpt lat="45.87708" lon="4.83461">
        <ele>230.10808</ele>
        <time>2023-09-02T14:02:05.000Z</time>
      </trkpt>
      <trkpt lat="45.87705" lon="4.83457">
        <ele>230.5096</ele>
        <time>2023-09-02T14:02:06.000Z</time>
      </trkpt>
      <trkpt lat="45.87703" lon="4.83453">
        <ele>229.83029</ele>
        <time>2023-09-02T14:02:07.000Z</time>
      </trkpt>
      <trkpt lat="45.87701" lon="4.83449">
        <ele>229.81448</ele>
        <time>2023-09-02T14:02:08.000Z</time>
      </trkpt>
      <trkpt lat="45.87699" lon="4.83445">
        <ele>229.7847</ele>
        <time>2023-09-02T14:02:09.000Z</time>
      </trkpt>
      <trkpt lat="45.87696" lon="4.83441">
        <ele>229.72534</ele>
        <time>2023-09-02T14:02:10.000Z</time>
      </trkpt>
      <trkpt lat="45.87694" lon="4.83437">
        <ele>229.70625</ele>
        <time>2023-09-02T14:02:11.000Z</time>
      </trkpt>
      <trkpt lat="45.87692" lon="4.83433">
        <ele>229.83804</ele>
        <time>2023-09-02T14:02:12.000Z</time>
      </trkpt>
      <trkpt lat="45.8769" lon="4.83429">
        <ele>229.92749</ele>
        <time>2023-09-02T14:02:13.000Z</time>
      </trkpt>
      <trkpt lat="45.87687" lon="4.83425">
        <ele>230.01909</ele>
        <time>2023-09-02T14:02:14.000Z</time>
      </trkpt>
      <trkpt lat="45.87685" lon="4.83421">
        <ele>230.13557</ele>
        <time>2023-09-02T14:02:15.000Z</time>
      </trkpt>
      <trkpt lat="45.87682" lon="4.83417">
        <ele>230.25862</ele>
        <time>2023-09-02T14:02:16.000Z</time>
      </trkpt>
      <trkpt lat="45.87679" lon="4.83413">
        <ele>230.37727</ele>
        <time>2023-09-02T14:02:17.000Z</time>
      </trkpt>
      <trkpt lat="45.87677" lon="4.8341">
        <ele>230.37997</ele>
        <time>2023-09-02T14:02:18.000Z</time>
      </trkpt>
      <trkpt lat="45.87674" lon="4.83406">
        <ele>230.30244</ele>
        <time>2023-09-02T14:02:19.000Z</time>
      </trkpt>
      <trkpt lat="45.87672" lon="4.83401">
        <ele>230.21725</ele>
        <time>2023-09-02T14:02:20.000Z</time>
      </trkpt>
      <trkpt lat="45.8767" lon="4.83396">
        <ele>230.1228</ele>
        <time>2023-09-02T14:02:21.000Z</time>
      </trkpt>
      <trkpt lat="45.87668" lon="4.83392">
        <ele>230.1384</ele>
        <time>2023-09-02T14:02:22.000Z</time>
      </trkpt>
      <trkpt lat="45.87665" lon="4.83387">
        <ele>229.73605</ele>
        <time>2023-09-02T14:02:23.000Z</time>
      </trkpt>
      <trkpt lat="45.87663" lon="4.83383">
        <ele>229.3101</ele>
        <time>2023-09-02T14:02:24.000Z</time>
      </trkpt>
      <trkpt lat="45.87661" lon="4.83378">
        <ele>228.88501</ele>
        <time>2023-09-02T14:02:25.000Z</time>
      </trkpt>
      <trkpt lat="45.87659" lon="4.83373">
        <ele>228.45149</ele>
        <time>2023-09-02T14:02:26.000Z</time>
      </trkpt>
      <trkpt lat="45.87656" lon="4.83369">
        <ele>228.41257</ele>
        <time>2023-09-02T14:02:27.000Z</time>
      </trkpt>
      <trkpt lat="45.87654" lon="4.83364">
        <ele>228.39217</ele>
        <time>2023-09-02T14:02:28.000Z</time>
      </trkpt>
      <trkpt lat="45.87652" lon="4.83359">
        <ele>228.37529</ele>
        <time>2023-09-02T14:02:29.000Z</time>
      </trkpt>
      <trkpt lat="45.8765" lon="4.83354">
        <ele>228.35812</ele>
        <time>2023-09-02T14:02:30.000Z</time>
      </trkpt>
      <trkpt lat="45.87648" lon="4.83349">
        <ele>228.32475</ele>
        <time>2023-09-02T14:02:31.000Z</time>
      </trkpt>
      <trkpt lat="45.87646" lon="4.83344">
        <ele>228.27719</ele>
        <time>2023-09-02T14:02:32.000Z</time>
      </trkpt>
      <trkpt lat="45.87644" lon="4.8334">
        <ele>228.22739</ele>
        <time>2023-09-02T14:02:33.000Z</time>
      </trkpt>
      <trkpt lat="45.87641" lon="4.83335">
        <ele>228.20247</ele>
        <time>2023-09-02T14:02:34.000Z</time>
      </trkpt>
      <trkpt lat="45.87639" lon="4.83331">
        <ele>228.2769</ele>
        <time>2023-09-02T14:02:35.000Z</time>
      </trkpt>
      <trkpt lat="45.87637" lon="4.83327">
        <ele>228.35196</ele>
        <time>2023-09-02T14:02:36.000Z</time>
      </trkpt>
      <trkpt lat="45.87635" lon="4.83323">
        <ele>228.44035</ele>
        <time>2023-09-02T14:02:37.000Z</time>
      </trkpt>
      <trkpt lat="45.87632" lon="4.83319">
        <ele>228.67935</ele>
        <time>2023-09-02T14:02:38.000Z</time>
      </trkpt>
      <trkpt lat="45.8763" lon="4.83315">
        <ele>228.84238</ele>
        <time>2023-09-02T14:02:39.000Z</time>
      </trkpt>
      <trkpt lat="45.87627" lon="4.83311">
        <ele>228.96957</ele>
        <time>2023-09-02T14:02:40.000Z</time>
      </trkpt>
      <trkpt lat="45.87624" lon="4.83308">
        <ele>229.1012</ele>
        <time>2023-09-02T14:02:41.000Z</time>
      </trkpt>
      <trkpt lat="45.87622" lon="4.83305">
        <ele>229.2522</ele>
        <time>2023-09-02T14:02:42.000Z</time>
      </trkpt>
      <trkpt lat="45.8762" lon="4.83302">
        <ele>229.41988</ele>
        <time>2023-09-02T14:02:43.000Z</time>
      </trkpt>
      <trkpt lat="45.87618" lon="4.83298">
        <ele>229.6147</ele>
        <time>2023-09-02T14:02:44.000Z</time>
      </trkpt>
      <trkpt lat="45.87616" lon="4.83295">
        <ele>229.81462</ele>
        <time>2023-09-02T14:02:45.000Z</time>
      </trkpt>
      <trkpt lat="45.87613" lon="4.83291">
        <ele>230.00529</ele>
        <time>2023-09-02T14:02:46.000Z</time>
      </trkpt>
      <trkpt lat="45.87611" lon="4.83288">
        <ele>230.19243</ele>
        <time>2023-09-02T14:02:47.000Z</time>
      </trkpt>
      <trkpt lat="45.87608" lon="4.83285">
        <ele>230.3717</ele>
        <time>2023-09-02T14:02:48.000Z</time>
      </trkpt>
      <trkpt lat="45.87606" lon="4.83281">
        <ele>230.55879</ele>
        <time>2023-09-02T14:02:49.000Z</time>
      </trkpt>
      <trkpt lat="45.87604" lon="4.83278">
        <ele>230.76743</ele>
        <time>2023-09-02T14:02:50.000Z</time>
      </trkpt>
      <trkpt lat="45.87602" lon="4.83274">
        <ele>230.96365</ele>
        <time>2023-09-02T14:02:51.000Z</time>
      </trkpt>
      <trkpt lat="45.876" lon="4.8327">
        <ele>231.1814</ele>
        <time>2023-09-02T14:02:52.000Z</time>
      </trkpt>
      <trkpt lat="45.87598" lon="4.83267">
        <ele>231.41753</ele>
        <time>2023-09-02T14:02:53.000Z</time>
      </trkpt>
      <trkpt lat="45.87596" lon="4.83263">
        <ele>231.65874</ele>
        <time>2023-09-02T14:02:54.000Z</time>
      </trkpt>
      <trkpt lat="45.87594" lon="4.8326">
        <ele>231.80176</ele>
        <time>2023-09-02T14:02:55.000Z</time>
      </trkpt>
      <trkpt lat="45.87592" lon="4.83257">
        <ele>231.94125</ele>
        <time>2023-09-02T14:02:56.000Z</time>
      </trkpt>
      <trkpt lat="45.8759" lon="4.83254">
        <ele>232.07085</ele>
        <time>2023-09-02T14:02:57.000Z</time>
      </trkpt>
      <trkpt lat="45.87588" lon="4.8325">
        <ele>232.15996</ele>
        <time>2023-09-02T14:02:58.000Z</time>
      </trkpt>
      <trkpt lat="45.87586" lon="4.83247">
        <ele>232.32768</ele>
        <time>2023-09-02T14:02:59.000Z</time>
      </trkpt>
      <trkpt lat="45.87584" lon="4.83243">
        <ele>232.52763</ele>
        <time>2023-09-02T14:03:00.000Z</time>
      </trkpt>
      <trkpt lat="45.87581" lon="4.8324">
        <ele>232.74533</ele>
        <time>2023-09-02T14:03:01.000Z</time>
      </trkpt>
      <trkpt lat="45.87579" lon="4.83237">
        <ele>232.98979</ele>
        <time>2023-09-02T14:03:02.000Z</time>
      </trkpt>
      <trkpt lat="45.87577" lon="4.83234">
        <ele>233.2137</ele>
        <time>2023-09-02T14:03:03.000Z</time>
      </trkpt>
      <trkpt lat="45.87574" lon="4.83232">
        <ele>233.42612</ele>
        <time>2023-09-02T14:03:04.000Z</time>
      </trkpt>
      <trkpt lat="45.87572" lon="4.83229">
        <ele>233.61877</ele>
        <time>2023-09-02T14:03:05.000Z</time>
      </trkpt>
      <trkpt lat="45.8757" lon="4.83225">
        <ele>233.81548</ele>
        <time>2023-09-02T14:03:06.000Z</time>
      </trkpt>
      <trkpt lat="45.87569" lon="4.83221">
        <ele>234.03821</ele>
        <time>2023-09-02T14:03:07.000Z</time>
      </trkpt>
      <trkpt lat="45.87568" lon="4.83215">
        <ele>234.23894</ele>
        <time>2023-09-02T14:03:08.000Z</time>
      </trkpt>
      <trkpt lat="45.87566" lon="4.83211">
        <ele>234.42307</ele>
        <time>2023-09-02T14:03:09.000Z</time>
      </trkpt>
      <trkpt lat="45.87565" lon="4.83207">
        <ele>234.57356</ele>
        <time>2023-09-02T14:03:10.000Z</time>
      </trkpt>
      <trkpt lat="45.87563" lon="4.83203">
        <ele>234.75098</ele>
        <time>2023-09-02T14:03:11.000Z</time>
      </trkpt>
      <trkpt lat="45.87561" lon="4.83199">
        <ele>234.9239</ele>
        <time>2023-09-02T14:03:12.000Z</time>
      </trkpt>
      <trkpt lat="45.87559" lon="4.83194">
        <ele>235.11938</ele>
        <time>2023-09-02T14:03:13.000Z</time>
      </trkpt>
      <trkpt lat="45.87557" lon="4.8319">
        <ele>235.28679</ele>
        <time>2023-09-02T14:03:14.000Z</time>
      </trkpt>
      <trkpt lat="45.87554" lon="4.83186">
        <ele>235.43814</ele>
        <time>2023-09-02T14:03:15.000Z</time>
      </trkpt>
      <trkpt lat="45.87552" lon="4.83183">
        <ele>235.60506</ele>
        <time>2023-09-02T14:03:16.000Z</time>
      </trkpt>
      <trkpt lat="45.8755" lon="4.83179">
        <ele>236.56479</ele>
        <time>2023-09-02T14:03:17.000Z</time>
      </trkpt>
      <trkpt lat="45.87548" lon="4.83175">
        <ele>237.78613</ele>
        <time>2023-09-02T14:03:18.000Z</time>
      </trkpt>
      <trkpt lat="45.87546" lon="4.8317">
        <ele>239.18884</ele>
        <time>2023-09-02T14:03:19.000Z</time>
      </trkpt>
      <trkpt lat="45.87544" lon="4.83166">
        <ele>240.08301</ele>
        <time>2023-09-02T14:03:20.000Z</time>
      </trkpt>
      <trkpt lat="45.87543" lon="4.83162">
        <ele>241.08391</ele>
        <time>2023-09-02T14:03:21.000Z</time>
      </trkpt>
      <trkpt lat="45.87543" lon="4.83159">
        <ele>242.0341</ele>
        <time>2023-09-02T14:03:22.000Z</time>
      </trkpt>
      <trkpt lat="45.87544" lon="4.83155">
        <ele>242.98235</ele>
        <time>2023-09-02T14:03:23.000Z</time>
      </trkpt>
      <trkpt lat="45.87545" lon="4.83152">
        <ele>243.94107</ele>
        <time>2023-09-02T14:03:24.000Z</time>
      </trkpt>
      <trkpt lat="45.87545" lon="4.83149">
        <ele>244.91875</ele>
        <time>2023-09-02T14:03:25.000Z</time>
      </trkpt>
      <trkpt lat="45.87546" lon="4.83145">
        <ele>245.88232</ele>
        <time>2023-09-02T14:03:26.000Z</time>
      </trkpt>
      <trkpt lat="45.87545" lon="4.83141">
        <ele>246.82449</ele>
        <time>2023-09-02T14:03:27.000Z</time>
      </trkpt>
      <trkpt lat="45.87545" lon="4.83138">
        <ele>247.78682</ele>
        <time>2023-09-02T14:03:28.000Z</time>
      </trkpt>
      <trkpt lat="45.87544" lon="4.83134">
        <ele>248.76704</ele>
        <time>2023-09-02T14:03:29.000Z</time>
      </trkpt>
      <trkpt lat="45.87544" lon="4.8313">
        <ele>249.74956</ele>
        <time>2023-09-02T14:03:30.000Z</time>
      </trkpt>
      <trkpt lat="45.87543" lon="4.83127">
        <ele>250.60611</ele>
        <time>2023-09-02T14:03:31.000Z</time>
      </trkpt>
      <trkpt lat="45.87544" lon="4.83122">
        <ele>251.54973</ele>
        <time>2023-09-02T14:03:32.000Z</time>
      </trkpt>
      <trkpt lat="45.87544" lon="4.83117">
        <ele>252.28589</ele>
        <time>2023-09-02T14:03:33.000Z</time>
      </trkpt>
      <trkpt lat="45.87544" lon="4.83113">
        <ele>253.32344</ele>
        <time>2023-09-02T14:03:34.000Z</time>
      </trkpt>
      <trkpt lat="45.87544" lon="4.83108">
        <ele>254.37276</ele>
        <time>2023-09-02T14:03:35.000Z</time>
      </trkpt>
      <trkpt lat="45.87543" lon="4.83104">
        <ele>255.42044</ele>
        <time>2023-09-02T14:03:36.000Z</time>
      </trkpt>
      <trkpt lat="45.87543" lon="4.831">
        <ele>255.67233</ele>
        <time>2023-09-02T14:03:37.000Z</time>
      </trkpt>
      <trkpt lat="45.87542" lon="4.83095">
        <ele>255.68999</ele>
        <time>2023-09-02T14:03:38.000Z</time>
      </trkpt>
      <trkpt lat="45.87542" lon="4.8309">
        <ele>255.54216</ele>
        <time>2023-09-02T14:03:39.000Z</time>
      </trkpt>
      <trkpt lat="45.87541" lon="4.83087">
        <ele>255.88504</ele>
        <time>2023-09-02T14:03:40.000Z</time>
      </trkpt>
      <trkpt lat="45.8754" lon="4.83083">
        <ele>256.11771</ele>
        <time>2023-09-02T14:03:41.000Z</time>
      </trkpt>
      <trkpt lat="45.87539" lon="4.83078">
        <ele>256.40115</ele>
        <time>2023-09-02T14:03:42.000Z</time>
      </trkpt>
      <trkpt lat="45.87539" lon="4.83074">
        <ele>256.69775</ele>
        <time>2023-09-02T14:03:43.000Z</time>
      </trkpt>
      <trkpt lat="45.87538" lon="4.8307">
        <ele>256.97162</ele>
        <time>2023-09-02T14:03:44.000Z</time>
      </trkpt>
      <trkpt lat="45.87538" lon="4.83066">
        <ele>257.22858</ele>
        <time>2023-09-02T14:03:45.000Z</time>
      </trkpt>
      <trkpt lat="45.87538" lon="4.83062">
        <ele>257.49048</ele>
        <time>2023-09-02T14:03:46.000Z</time>
      </trkpt>
      <trkpt lat="45.87538" lon="4.83059">
        <ele>257.74313</ele>
        <time>2023-09-02T14:03:47.000Z</time>
      </trkpt>
      <trkpt lat="45.87538" lon="4.83055">
        <ele>257.98904</ele>
        <time>2023-09-02T14:03:48.000Z</time>
      </trkpt>
      <trkpt lat="45.87538" lon="4.83052">
        <ele>258.27972</ele>
        <time>2023-09-02T14:03:49.000Z</time>
      </trkpt>
      <trkpt lat="45.87537" lon="4.83049">
        <ele>258.61688</ele>
        <time>2023-09-02T14:03:50.000Z</time>
      </trkpt>
      <trkpt lat="45.87537" lon="4.83046">
        <ele>259.06036</ele>
        <time>2023-09-02T14:03:51.000Z</time>
      </trkpt>
      <trkpt lat="45.87536" lon="4.83043">
        <ele>259.41977</ele>
        <time>2023-09-02T14:03:52.000Z</time>
      </trkpt>
      <trkpt lat="45.87536" lon="4.8304">
        <ele>260.01456</ele>
        <time>2023-09-02T14:03:53.000Z</time>
      </trkpt>
      <trkpt lat="45.87536" lon="4.83036">
        <ele>260.34027</ele>
        <time>2023-09-02T14:03:54.000Z</time>
      </trkpt>
      <trkpt lat="45.87536" lon="4.83034">
        <ele>260.43933</ele>
        <time>2023-09-02T14:03:55.000Z</time>
      </trkpt>
      <trkpt lat="45.87535" lon="4.83028">
        <ele>260.60809</ele>
        <time>2023-09-02T14:03:57.000Z</time>
      </trkpt>
      <trkpt lat="45.87534" lon="4.83024">
        <ele>260.78186</ele>
        <time>2023-09-02T14:03:58.000Z</time>
      </trkpt>
      <trkpt lat="45.87534" lon="4.83021">
        <ele>260.96796</ele>
        <time>2023-09-02T14:03:59.000Z</time>
      </trkpt>
      <trkpt lat="45.87535" lon="4.83016">
        <ele>261.19586</ele>
        <time>2023-09-02T14:04:00.000Z</time>
      </trkpt>
      <trkpt lat="45.87536" lon="4.83013">
        <ele>261.45975</ele>
        <time>2023-09-02T14:04:01.000Z</time>
      </trkpt>
      <trkpt lat="45.87536" lon="4.83009">
        <ele>261.76947</ele>
        <time>2023-09-02T14:04:02.000Z</time>
      </trkpt>
      <trkpt lat="45.87536" lon="4.83004">
        <ele>262.0686</ele>
        <time>2023-09-02T14:04:03.000Z</time>
      </trkpt>
      <trkpt lat="45.87535" lon="4.83">
        <ele>262.34103</ele>
        <time>2023-09-02T14:04:04.000Z</time>
      </trkpt>
      <trkpt lat="45.87534" lon="4.82997">
        <ele>262.5741</ele>
        <time>2023-09-02T14:04:05.000Z</time>
      </trkpt>
      <trkpt lat="45.87533" lon="4.82993">
        <ele>262.97113</ele>
        <time>2023-09-02T14:04:06.000Z</time>
      </trkpt>
      <trkpt lat="45.87533" lon="4.82989">
        <ele>263.34656</ele>
        <time>2023-09-02T14:04:07.000Z</time>
      </trkpt>
      <trkpt lat="45.87532" lon="4.82985">
        <ele>263.71503</ele>
        <time>2023-09-02T14:04:08.000Z</time>
      </trkpt>
      <trkpt lat="45.87531" lon="4.82981">
        <ele>263.9671</ele>
        <time>2023-09-02T14:04:09.000Z</time>
      </trkpt>
      <trkpt lat="45.8753" lon="4.82977">
        <ele>264.1398</ele>
        <time>2023-09-02T14:04:10.000Z</time>
      </trkpt>
      <trkpt lat="45.87529" lon="4.82973">
        <ele>264.26239</ele>
        <time>2023-09-02T14:04:11.000Z</time>
      </trkpt>
      <trkpt lat="45.87528" lon="4.82969">
        <ele>264.48492</ele>
        <time>2023-09-02T14:04:12.000Z</time>
      </trkpt>
      <trkpt lat="45.87527" lon="4.82964">
        <ele>264.67276</ele>
        <time>2023-09-02T14:04:13.000Z</time>
      </trkpt>
      <trkpt lat="45.87526" lon="4.8296">
        <ele>264.56812</ele>
        <time>2023-09-02T14:04:14.000Z</time>
      </trkpt>
      <trkpt lat="45.87525" lon="4.82956">
        <ele>264.47919</ele>
        <time>2023-09-02T14:04:15.000Z</time>
      </trkpt>
      <trkpt lat="45.87524" lon="4.82951">
        <ele>264.64365</ele>
        <time>2023-09-02T14:04:16.000Z</time>
      </trkpt>
      <trkpt lat="45.87523" lon="4.82947">
        <ele>264.71469</ele>
        <time>2023-09-02T14:04:17.000Z</time>
      </trkpt>
      <trkpt lat="45.87522" lon="4.82943">
        <ele>264.81976</ele>
        <time>2023-09-02T14:04:18.000Z</time>
      </trkpt>
      <trkpt lat="45.87521" lon="4.82939">
        <ele>264.91547</ele>
        <time>2023-09-02T14:04:19.000Z</time>
      </trkpt>
      <trkpt lat="45.8752" lon="4.82935">
        <ele>264.97128</ele>
        <time>2023-09-02T14:04:20.000Z</time>
      </trkpt>
      <trkpt lat="45.87518" lon="4.82932">
        <ele>265.01288</ele>
        <time>2023-09-02T14:04:21.000Z</time>
      </trkpt>
      <trkpt lat="45.87517" lon="4.82928">
        <ele>265.02704</ele>
        <time>2023-09-02T14:04:22.000Z</time>
      </trkpt>
      <trkpt lat="45.87516" lon="4.82924">
        <ele>265.0285</ele>
        <time>2023-09-02T14:04:23.000Z</time>
      </trkpt>
      <trkpt lat="45.87514" lon="4.8292">
        <ele>265.03906</ele>
        <time>2023-09-02T14:04:24.000Z</time>
      </trkpt>
      <trkpt lat="45.87513" lon="4.82916">
        <ele>265.08551</ele>
        <time>2023-09-02T14:04:25.000Z</time>
      </trkpt>
      <trkpt lat="45.87512" lon="4.82912">
        <ele>264.97363</ele>
        <time>2023-09-02T14:04:26.000Z</time>
      </trkpt>
      <trkpt lat="45.8751" lon="4.82908">
        <ele>264.90939</ele>
        <time>2023-09-02T14:04:27.000Z</time>
      </trkpt>
      <trkpt lat="45.87509" lon="4.82905">
        <ele>264.88678</ele>
        <time>2023-09-02T14:04:28.000Z</time>
      </trkpt>
      <trkpt lat="45.87507" lon="4.82901">
        <ele>264.99731</ele>
        <time>2023-09-02T14:04:29.000Z</time>
      </trkpt>
      <trkpt lat="45.87506" lon="4.82897">
        <ele>265.16702</ele>
        <time>2023-09-02T14:04:30.000Z</time>
      </trkpt>
      <trkpt lat="45.87505" lon="4.82893">
        <ele>265.35046</ele>
        <time>2023-09-02T14:04:31.000Z</time>
      </trkpt>
      <trkpt lat="45.87503" lon="4.82889">
        <ele>265.47595</ele>
        <time>2023-09-02T14:04:32.000Z</time>
      </trkpt>
      <trkpt lat="45.87501" lon="4.82885">
        <ele>265.60416</ele>
        <time>2023-09-02T14:04:33.000Z</time>
      </trkpt>
      <trkpt lat="45.875" lon="4.82882">
        <ele>265.9509</ele>
        <time>2023-09-02T14:04:34.000Z</time>
      </trkpt>
      <trkpt lat="45.87498" lon="4.82878">
        <ele>266.27002</ele>
        <time>2023-09-02T14:04:35.000Z</time>
      </trkpt>
      <trkpt lat="45.87496" lon="4.82874">
        <ele>266.5773</ele>
        <time>2023-09-02T14:04:36.000Z</time>
      </trkpt>
      <trkpt lat="45.87494" lon="4.8287">
        <ele>266.90692</ele>
        <time>2023-09-02T14:04:37.000Z</time>
      </trkpt>
      <trkpt lat="45.87493" lon="4.82866">
        <ele>267.22296</ele>
        <time>2023-09-02T14:04:38.000Z</time>
      </trkpt>
      <trkpt lat="45.87491" lon="4.82862">
        <ele>267.50586</ele>
        <time>2023-09-02T14:04:39.000Z</time>
      </trkpt>
      <trkpt lat="45.87489" lon="4.82858">
        <ele>267.79846</ele>
        <time>2023-09-02T14:04:40.000Z</time>
      </trkpt>
      <trkpt lat="45.87488" lon="4.82854">
        <ele>268.04794</ele>
        <time>2023-09-02T14:04:41.000Z</time>
      </trkpt>
      <trkpt lat="45.87486" lon="4.8285">
        <ele>268.26996</ele>
        <time>2023-09-02T14:04:42.000Z</time>
      </trkpt>
      <trkpt lat="45.87484" lon="4.82846">
        <ele>268.48874</ele>
        <time>2023-09-02T14:04:43.000Z</time>
      </trkpt>
      <trkpt lat="45.87483" lon="4.82842">
        <ele>268.67755</ele>
        <time>2023-09-02T14:04:44.000Z</time>
      </trkpt>
      <trkpt lat="45.87481" lon="4.82838">
        <ele>268.95193</ele>
        <time>2023-09-02T14:04:45.000Z</time>
      </trkpt>
      <trkpt lat="45.87479" lon="4.82834">
        <ele>269.22583</ele>
        <time>2023-09-02T14:04:46.000Z</time>
      </trkpt>
      <trkpt lat="45.87477" lon="4.82829">
        <ele>269.48486</ele>
        <time>2023-09-02T14:04:47.000Z</time>
      </trkpt>
      <trkpt lat="45.87475" lon="4.82825">
        <ele>269.72223</ele>
        <time>2023-09-02T14:04:48.000Z</time>
      </trkpt>
      <trkpt lat="45.87473" lon="4.8282">
        <ele>269.95023</ele>
        <time>2023-09-02T14:04:49.000Z</time>
      </trkpt>
      <trkpt lat="45.87471" lon="4.82816">
        <ele>270.1557</ele>
        <time>2023-09-02T14:04:50.000Z</time>
      </trkpt>
      <trkpt lat="45.87469" lon="4.82812">
        <ele>270.362</ele>
        <time>2023-09-02T14:04:51.000Z</time>
      </trkpt>
      <trkpt lat="45.87467" lon="4.82807">
        <ele>270.58499</ele>
        <time>2023-09-02T14:04:52.000Z</time>
      </trkpt>
      <trkpt lat="45.87465" lon="4.82803">
        <ele>270.66086</ele>
        <time>2023-09-02T14:04:53.000Z</time>
      </trkpt>
      <trkpt lat="45.87463" lon="4.82798">
        <ele>270.77274</ele>
        <time>2023-09-02T14:04:54.000Z</time>
      </trkpt>
      <trkpt lat="45.87461" lon="4.82794">
        <ele>270.81897</ele>
        <time>2023-09-02T14:04:55.000Z</time>
      </trkpt>
      <trkpt lat="45.87459" lon="4.82789">
        <ele>270.85358</ele>
        <time>2023-09-02T14:04:56.000Z</time>
      </trkpt>
      <trkpt lat="45.87457" lon="4.82784">
        <ele>270.8634</ele>
        <time>2023-09-02T14:04:57.000Z</time>
      </trkpt>
      <trkpt lat="45.87455" lon="4.82779">
        <ele>270.84836</ele>
        <time>2023-09-02T14:04:58.000Z</time>
      </trkpt>
      <trkpt lat="45.87453" lon="4.82774">
        <ele>270.83444</ele>
        <time>2023-09-02T14:04:59.000Z</time>
      </trkpt>
      <trkpt lat="45.87451" lon="4.8277">
        <ele>270.81659</ele>
        <time>2023-09-02T14:05:00.000Z</time>
      </trkpt>
      <trkpt lat="45.87448" lon="4.82765">
        <ele>270.80045</ele>
        <time>2023-09-02T14:05:01.000Z</time>
      </trkpt>
      <trkpt lat="45.87446" lon="4.82758">
        <ele>270.78397</ele>
        <time>2023-09-02T14:05:02.000Z</time>
      </trkpt>
      <trkpt lat="45.87444" lon="4.82753">
        <ele>270.77786</ele>
        <time>2023-09-02T14:05:03.000Z</time>
      </trkpt>
      <trkpt lat="45.87442" lon="4.82748">
        <ele>270.80054</ele>
        <time>2023-09-02T14:05:04.000Z</time>
      </trkpt>
      <trkpt lat="45.87439" lon="4.82742">
        <ele>270.68698</ele>
        <time>2023-09-02T14:05:05.000Z</time>
      </trkpt>
      <trkpt lat="45.87437" lon="4.82738">
        <ele>270.66241</ele>
        <time>2023-09-02T14:05:06.000Z</time>
      </trkpt>
      <trkpt lat="45.87434" lon="4.82733">
        <ele>270.63901</ele>
        <time>2023-09-02T14:05:07.000Z</time>
      </trkpt>
      <trkpt lat="45.87431" lon="4.82728">
        <ele>270.61835</ele>
        <time>2023-09-02T14:05:08.000Z</time>
      </trkpt>
      <trkpt lat="45.87428" lon="4.82723">
        <ele>270.59366</ele>
        <time>2023-09-02T14:05:09.000Z</time>
      </trkpt>
      <trkpt lat="45.87425" lon="4.82718">
        <ele>270.55542</ele>
        <time>2023-09-02T14:05:10.000Z</time>
      </trkpt>
      <trkpt lat="45.87423" lon="4.82713">
        <ele>270.48175</ele>
        <time>2023-09-02T14:05:11.000Z</time>
      </trkpt>
      <trkpt lat="45.8742" lon="4.82707">
        <ele>270.36725</ele>
        <time>2023-09-02T14:05:12.000Z</time>
      </trkpt>
      <trkpt lat="45.87417" lon="4.82702">
        <ele>270.41461</ele>
        <time>2023-09-02T14:05:13.000Z</time>
      </trkpt>
      <trkpt lat="45.87415" lon="4.82695">
        <ele>270.46622</ele>
        <time>2023-09-02T14:05:14.000Z</time>
      </trkpt>
      <trkpt lat="45.87412" lon="4.82689">
        <ele>270.5354</ele>
        <time>2023-09-02T14:05:15.000Z</time>
      </trkpt>
      <trkpt lat="45.8741" lon="4.82683">
        <ele>270.57095</ele>
        <time>2023-09-02T14:05:16.000Z</time>
      </trkpt>
      <trkpt lat="45.87408" lon="4.82677">
        <ele>270.58737</ele>
        <time>2023-09-02T14:05:17.000Z</time>
      </trkpt>
      <trkpt lat="45.87406" lon="4.82672">
        <ele>270.59207</ele>
        <time>2023-09-02T14:05:18.000Z</time>
      </trkpt>
      <trkpt lat="45.87403" lon="4.82667">
        <ele>270.58649</ele>
        <time>2023-09-02T14:05:19.000Z</time>
      </trkpt>
      <trkpt lat="45.874" lon="4.82662">
        <ele>270.58273</ele>
        <time>2023-09-02T14:05:20.000Z</time>
      </trkpt>
      <trkpt lat="45.87397" lon="4.82656">
        <ele>270.60724</ele>
        <time>2023-09-02T14:05:21.000Z</time>
      </trkpt>
      <trkpt lat="45.87396" lon="4.82649">
        <ele>270.63235</ele>
        <time>2023-09-02T14:05:22.000Z</time>
      </trkpt>
      <trkpt lat="45.87393" lon="4.82643">
        <ele>270.67047</ele>
        <time>2023-09-02T14:05:23.000Z</time>
      </trkpt>
      <trkpt lat="45.87391" lon="4.82638">
        <ele>270.71124</ele>
        <time>2023-09-02T14:05:24.000Z</time>
      </trkpt>
      <trkpt lat="45.87388" lon="4.82633">
        <ele>270.86844</ele>
        <time>2023-09-02T14:05:25.000Z</time>
      </trkpt>
      <trkpt lat="45.87384" lon="4.82628">
        <ele>270.92023</ele>
        <time>2023-09-02T14:05:26.000Z</time>
      </trkpt>
      <trkpt lat="45.87383" lon="4.82622">
        <ele>271.01065</ele>
        <time>2023-09-02T14:05:27.000Z</time>
      </trkpt>
      <trkpt lat="45.8738" lon="4.82618">
        <ele>270.91785</ele>
        <time>2023-09-02T14:05:28.000Z</time>
      </trkpt>
      <trkpt lat="45.87378" lon="4.82613">
        <ele>270.87671</ele>
        <time>2023-09-02T14:05:29.000Z</time>
      </trkpt>
      <trkpt lat="45.87376" lon="4.82608">
        <ele>270.85822</ele>
        <time>2023-09-02T14:05:30.000Z</time>
      </trkpt>
      <trkpt lat="45.87374" lon="4.82604">
        <ele>270.94376</ele>
        <time>2023-09-02T14:05:31.000Z</time>
      </trkpt>
      <trkpt lat="45.87371" lon="4.82599">
        <ele>271.01874</ele>
        <time>2023-09-02T14:05:32.000Z</time>
      </trkpt>
      <trkpt lat="45.87369" lon="4.82595">
        <ele>271.16013</ele>
        <time>2023-09-02T14:05:33.000Z</time>
      </trkpt>
      <trkpt lat="45.87367" lon="4.82591">
        <ele>271.13885</ele>
        <time>2023-09-02T14:05:34.000Z</time>
      </trkpt>
      <trkpt lat="45.87366" lon="4.82586">
        <ele>271.18561</ele>
        <time>2023-09-02T14:05:35.000Z</time>
      </trkpt>
      <trkpt lat="45.87364" lon="4.82582">
        <ele>271.2767</ele>
        <time>2023-09-02T14:05:36.000Z</time>
      </trkpt>
      <trkpt lat="45.87361" lon="4.82578">
        <ele>271.40103</ele>
        <time>2023-09-02T14:05:37.000Z</time>
      </trkpt>
      <trkpt lat="45.87359" lon="4.82573">
        <ele>271.53912</ele>
        <time>2023-09-02T14:05:38.000Z</time>
      </trkpt>
      <trkpt lat="45.87356" lon="4.82568">
        <ele>271.73535</ele>
        <time>2023-09-02T14:05:39.000Z</time>
      </trkpt>
      <trkpt lat="45.87354" lon="4.82564">
        <ele>271.90814</ele>
        <time>2023-09-02T14:05:40.000Z</time>
      </trkpt>
      <trkpt lat="45.87352" lon="4.82559">
        <ele>272.08237</ele>
        <time>2023-09-02T14:05:41.000Z</time>
      </trkpt>
      <trkpt lat="45.8735" lon="4.82554">
        <ele>272.2406</ele>
        <time>2023-09-02T14:05:42.000Z</time>
      </trkpt>
      <trkpt lat="45.87348" lon="4.82549">
        <ele>272.3609</ele>
        <time>2023-09-02T14:05:43.000Z</time>
      </trkpt>
      <trkpt lat="45.87346" lon="4.82544">
        <ele>272.4826</ele>
        <time>2023-09-02T14:05:44.000Z</time>
      </trkpt>
      <trkpt lat="45.87344" lon="4.82539">
        <ele>272.5535</ele>
        <time>2023-09-02T14:05:45.000Z</time>
      </trkpt>
      <trkpt lat="45.87342" lon="4.82534">
        <ele>272.62604</ele>
        <time>2023-09-02T14:05:46.000Z</time>
      </trkpt>
      <trkpt lat="45.87339" lon="4.82528">
        <ele>272.63721</ele>
        <time>2023-09-02T14:05:47.000Z</time>
      </trkpt>
      <trkpt lat="45.87337" lon="4.82523">
        <ele>272.845</ele>
        <time>2023-09-02T14:05:48.000Z</time>
      </trkpt>
      <trkpt lat="45.87335" lon="4.82519">
        <ele>273.07254</ele>
        <time>2023-09-02T14:05:49.000Z</time>
      </trkpt>
      <trkpt lat="45.87333" lon="4.82514">
        <ele>273.28912</ele>
        <time>2023-09-02T14:05:50.000Z</time>
      </trkpt>
      <trkpt lat="45.8733" lon="4.82509">
        <ele>273.46063</ele>
        <time>2023-09-02T14:05:51.000Z</time>
      </trkpt>
      <trkpt lat="45.87327" lon="4.82504">
        <ele>273.61676</ele>
        <time>2023-09-02T14:05:52.000Z</time>
      </trkpt>
      <trkpt lat="45.87325" lon="4.82497">
        <ele>273.71463</ele>
        <time>2023-09-02T14:05:53.000Z</time>
      </trkpt>
      <trkpt lat="45.87322" lon="4.82491">
        <ele>273.98016</ele>
        <time>2023-09-02T14:05:54.000Z</time>
      </trkpt>
      <trkpt lat="45.87319" lon="4.82486">
        <ele>274.21259</ele>
        <time>2023-09-02T14:05:55.000Z</time>
      </trkpt>
      <trkpt lat="45.87317" lon="4.82481">
        <ele>274.28629</ele>
        <time>2023-09-02T14:05:56.000Z</time>
      </trkpt>
      <trkpt lat="45.87314" lon="4.82476">
        <ele>274.34637</ele>
        <time>2023-09-02T14:05:57.000Z</time>
      </trkpt>
      <trkpt lat="45.87311" lon="4.8247">
        <ele>274.40082</ele>
        <time>2023-09-02T14:05:58.000Z</time>
      </trkpt>
      <trkpt lat="45.87308" lon="4.82465">
        <ele>274.40897</ele>
        <time>2023-09-02T14:05:59.000Z</time>
      </trkpt>
      <trkpt lat="45.87305" lon="4.82459">
        <ele>274.39532</ele>
        <time>2023-09-02T14:06:00.000Z</time>
      </trkpt>
      <trkpt lat="45.87302" lon="4.82454">
        <ele>274.32922</ele>
        <time>2023-09-02T14:06:01.000Z</time>
      </trkpt>
      <trkpt lat="45.87298" lon="4.82449">
        <ele>274.23978</ele>
        <time>2023-09-02T14:06:02.000Z</time>
      </trkpt>
      <trkpt lat="45.87295" lon="4.82442">
        <ele>274.14716</ele>
        <time>2023-09-02T14:06:03.000Z</time>
      </trkpt>
      <trkpt lat="45.87291" lon="4.82435">
        <ele>274.05728</ele>
        <time>2023-09-02T14:06:04.000Z</time>
      </trkpt>
      <trkpt lat="45.87288" lon="4.82429">
        <ele>273.95709</ele>
        <time>2023-09-02T14:06:05.000Z</time>
      </trkpt>
      <trkpt lat="45.87284" lon="4.82422">
        <ele>273.86115</ele>
        <time>2023-09-02T14:06:06.000Z</time>
      </trkpt>
      <trkpt lat="45.87279" lon="4.82416">
        <ele>273.75494</ele>
        <time>2023-09-02T14:06:07.000Z</time>
      </trkpt>
      <trkpt lat="45.87275" lon="4.82409">
        <ele>273.60693</ele>
        <time>2023-09-02T14:06:08.000Z</time>
      </trkpt>
      <trkpt lat="45.8727" lon="4.82402">
        <ele>273.36139</ele>
        <time>2023-09-02T14:06:09.000Z</time>
      </trkpt>
      <trkpt lat="45.87266" lon="4.82395">
        <ele>273.09427</ele>
        <time>2023-09-02T14:06:10.000Z</time>
      </trkpt>
      <trkpt lat="45.87262" lon="4.82387">
        <ele>272.78513</ele>
        <time>2023-09-02T14:06:11.000Z</time>
      </trkpt>
      <trkpt lat="45.87258" lon="4.82379">
        <ele>272.44266</ele>
        <time>2023-09-02T14:06:12.000Z</time>
      </trkpt>
      <trkpt lat="45.87254" lon="4.82371">
        <ele>272.17822</ele>
        <time>2023-09-02T14:06:13.000Z</time>
      </trkpt>
      <trkpt lat="45.87249" lon="4.82363">
        <ele>271.84641</ele>
        <time>2023-09-02T14:06:14.000Z</time>
      </trkpt>
      <trkpt lat="45.87243" lon="4.82356">
        <ele>271.50119</ele>
        <time>2023-09-02T14:06:15.000Z</time>
      </trkpt>
      <trkpt lat="45.87238" lon="4.82347">
        <ele>271.32825</ele>
        <time>2023-09-02T14:06:16.000Z</time>
      </trkpt>
      <trkpt lat="45.87233" lon="4.82338">
        <ele>270.93927</ele>
        <time>2023-09-02T14:06:17.000Z</time>
      </trkpt>
      <trkpt lat="45.87228" lon="4.82329">
        <ele>270.56625</ele>
        <time>2023-09-02T14:06:18.000Z</time>
      </trkpt>
      <trkpt lat="45.87223" lon="4.82319">
        <ele>270.15976</ele>
        <time>2023-09-02T14:06:19.000Z</time>
      </trkpt>
      <trkpt lat="45.87217" lon="4.82309">
        <ele>269.81204</ele>
        <time>2023-09-02T14:06:20.000Z</time>
      </trkpt>
      <trkpt lat="45.87213" lon="4.82296">
        <ele>269.49677</ele>
        <time>2023-09-02T14:06:21.000Z</time>
      </trkpt>
      <trkpt lat="45.87209" lon="4.82286">
        <ele>269.16339</ele>
        <time>2023-09-02T14:06:22.000Z</time>
      </trkpt>
      <trkpt lat="45.87205" lon="4.82275">
        <ele>268.82861</ele>
        <time>2023-09-02T14:06:23.000Z</time>
      </trkpt>
      <trkpt lat="45.87201" lon="4.82266">
        <ele>268.54431</ele>
        <time>2023-09-02T14:06:24.000Z</time>
      </trkpt>
      <trkpt lat="45.87198" lon="4.82255">
        <ele>268.27167</ele>
        <time>2023-09-02T14:06:25.000Z</time>
      </trkpt>
      <trkpt lat="45.87194" lon="4.82245">
        <ele>267.94989</ele>
        <time>2023-09-02T14:06:26.000Z</time>
      </trkpt>
      <trkpt lat="45.8719" lon="4.82236">
        <ele>267.64081</ele>
        <time>2023-09-02T14:06:27.000Z</time>
      </trkpt>
      <trkpt lat="45.87188" lon="4.82226">
        <ele>267.37427</ele>
        <time>2023-09-02T14:06:28.000Z</time>
      </trkpt>
      <trkpt lat="45.87184" lon="4.82218">
        <ele>267.11768</ele>
        <time>2023-09-02T14:06:29.000Z</time>
      </trkpt>
      <trkpt lat="45.87182" lon="4.82209">
        <ele>266.87653</ele>
        <time>2023-09-02T14:06:30.000Z</time>
      </trkpt>
      <trkpt lat="45.8718" lon="4.822">
        <ele>266.69995</ele>
        <time>2023-09-02T14:06:31.000Z</time>
      </trkpt>
      <trkpt lat="45.87178" lon="4.82194">
        <ele>266.58838</ele>
        <time>2023-09-02T14:06:32.000Z</time>
      </trkpt>
      <trkpt lat="45.87175" lon="4.82188">
        <ele>266.42831</ele>
        <time>2023-09-02T14:06:33.000Z</time>
      </trkpt>
      <trkpt lat="45.87173" lon="4.82181">
        <ele>266.32675</ele>
        <time>2023-09-02T14:06:34.000Z</time>
      </trkpt>
      <trkpt lat="45.87171" lon="4.82173">
        <ele>266.23218</ele>
        <time>2023-09-02T14:06:35.000Z</time>
      </trkpt>
      <trkpt lat="45.87168" lon="4.82168">
        <ele>266.0975</ele>
        <time>2023-09-02T14:06:36.000Z</time>
      </trkpt>
      <trkpt lat="45.87166" lon="4.82162">
        <ele>266.14465</ele>
        <time>2023-09-02T14:06:37.000Z</time>
      </trkpt>
      <trkpt lat="45.87164" lon="4.82156">
        <ele>266.14929</ele>
        <time>2023-09-02T14:06:38.000Z</time>
      </trkpt>
      <trkpt lat="45.87162" lon="4.8215">
        <ele>266.30612</ele>
        <time>2023-09-02T14:06:39.000Z</time>
      </trkpt>
      <trkpt lat="45.8716" lon="4.82144">
        <ele>266.40103</ele>
        <time>2023-09-02T14:06:40.000Z</time>
      </trkpt>
      <trkpt lat="45.87157" lon="4.82139">
        <ele>266.51025</ele>
        <time>2023-09-02T14:06:41.000Z</time>
      </trkpt>
      <trkpt lat="45.87154" lon="4.82134">
        <ele>266.6803</ele>
        <time>2023-09-02T14:06:42.000Z</time>
      </trkpt>
      <trkpt lat="45.87152" lon="4.8213">
        <ele>266.8898</ele>
        <time>2023-09-02T14:06:43.000Z</time>
      </trkpt>
      <trkpt lat="45.87149" lon="4.82125">
        <ele>267.04669</ele>
        <time>2023-09-02T14:06:44.000Z</time>
      </trkpt>
      <trkpt lat="45.87145" lon="4.82122">
        <ele>267.16837</ele>
        <time>2023-09-02T14:06:45.000Z</time>
      </trkpt>
      <trkpt lat="45.87141" lon="4.82119">
        <ele>267.3558</ele>
        <time>2023-09-02T14:06:46.000Z</time>
      </trkpt>
      <trkpt lat="45.87137" lon="4.82117">
        <ele>267.53937</ele>
        <time>2023-09-02T14:06:47.000Z</time>
      </trkpt>
      <trkpt lat="45.87132" lon="4.82115">
        <ele>267.71371</ele>
        <time>2023-09-02T14:06:48.000Z</time>
      </trkpt>
      <trkpt lat="45.87128" lon="4.82111">
        <ele>269.29083</ele>
        <time>2023-09-02T14:06:49.000Z</time>
      </trkpt>
      <trkpt lat="45.87124" lon="4.82106">
        <ele>270.87933</ele>
        <time>2023-09-02T14:06:50.000Z</time>
      </trkpt>
      <trkpt lat="45.8712" lon="4.82102">
        <ele>271.68716</ele>
        <time>2023-09-02T14:06:51.000Z</time>
      </trkpt>
      <trkpt lat="45.87117" lon="4.82098">
        <ele>272.56119</ele>
        <time>2023-09-02T14:06:52.000Z</time>
      </trkpt>
      <trkpt lat="45.87112" lon="4.82096">
        <ele>273.39999</ele>
        <time>2023-09-02T14:06:53.000Z</time>
      </trkpt>
      <trkpt lat="45.87107" lon="4.82095">
        <ele>274.23651</ele>
        <time>2023-09-02T14:06:54.000Z</time>
      </trkpt>
      <trkpt lat="45.87102" lon="4.82092">
        <ele>275.19415</ele>
        <time>2023-09-02T14:06:55.000Z</time>
      </trkpt>
      <trkpt lat="45.87099" lon="4.8209">
        <ele>276.0556</ele>
        <time>2023-09-02T14:06:56.000Z</time>
      </trkpt>
      <trkpt lat="45.87094" lon="4.82087">
        <ele>276.96878</ele>
        <time>2023-09-02T14:06:57.000Z</time>
      </trkpt>
      <trkpt lat="45.8709" lon="4.82085">
        <ele>278.25983</ele>
        <time>2023-09-02T14:06:58.000Z</time>
      </trkpt>
      <trkpt lat="45.87086" lon="4.82082">
        <ele>279.46149</ele>
        <time>2023-09-02T14:06:59.000Z</time>
      </trkpt>
      <trkpt lat="45.87082" lon="4.8208">
        <ele>280.84753</ele>
        <time>2023-09-02T14:07:00.000Z</time>
      </trkpt>
      <trkpt lat="45.87078" lon="4.82077">
        <ele>282.33109</ele>
        <time>2023-09-02T14:07:01.000Z</time>
      </trkpt>
      <trkpt lat="45.87074" lon="4.82076">
        <ele>283.07007</ele>
        <time>2023-09-02T14:07:02.000Z</time>
      </trkpt>
      <trkpt lat="45.8707" lon="4.82073">
        <ele>283.96893</ele>
        <time>2023-09-02T14:07:03.000Z</time>
      </trkpt>
      <trkpt lat="45.87067" lon="4.8207">
        <ele>284.83136</ele>
        <time>2023-09-02T14:07:04.000Z</time>
      </trkpt>
      <trkpt lat="45.87063" lon="4.82068">
        <ele>285.72739</ele>
        <time>2023-09-02T14:07:05.000Z</time>
      </trkpt>
      <trkpt lat="45.8706" lon="4.82065">
        <ele>286.60336</ele>
        <time>2023-09-02T14:07:06.000Z</time>
      </trkpt>
      <trkpt lat="45.87057" lon="4.82062">
        <ele>287.49707</ele>
        <time>2023-09-02T14:07:07.000Z</time>
      </trkpt>
      <trkpt lat="45.87054" lon="4.82061">
        <ele>288.43805</ele>
        <time>2023-09-02T14:07:08.000Z</time>
      </trkpt>
      <trkpt lat="45.8705" lon="4.82058">
        <ele>287.96021</ele>
        <time>2023-09-02T14:07:09.000Z</time>
      </trkpt>
      <trkpt lat="45.87047" lon="4.82056">
        <ele>287.47348</ele>
        <time>2023-09-02T14:07:10.000Z</time>
      </trkpt>
      <trkpt lat="45.87044" lon="4.82053">
        <ele>287.74689</ele>
        <time>2023-09-02T14:07:11.000Z</time>
      </trkpt>
      <trkpt lat="45.8704" lon="4.82051">
        <ele>288.26828</ele>
        <time>2023-09-02T14:07:12.000Z</time>
      </trkpt>
      <trkpt lat="45.87036" lon="4.82048">
        <ele>288.78302</ele>
        <time>2023-09-02T14:07:13.000Z</time>
      </trkpt>
      <trkpt lat="45.87033" lon="4.82046">
        <ele>289.45874</ele>
        <time>2023-09-02T14:07:14.000Z</time>
      </trkpt>
      <trkpt lat="45.8703" lon="4.82044">
        <ele>290.10892</ele>
        <time>2023-09-02T14:07:15.000Z</time>
      </trkpt>
      <trkpt lat="45.87027" lon="4.82042">
        <ele>290.14642</ele>
        <time>2023-09-02T14:07:16.000Z</time>
      </trkpt>
      <trkpt lat="45.87024" lon="4.82041">
        <ele>290.28931</ele>
        <time>2023-09-02T14:07:17.000Z</time>
      </trkpt>
      <trkpt lat="45.87021" lon="4.82039">
        <ele>290.0965</ele>
        <time>2023-09-02T14:07:18.000Z</time>
      </trkpt>
      <trkpt lat="45.87018" lon="4.82037">
        <ele>289.88593</ele>
        <time>2023-09-02T14:07:19.000Z</time>
      </trkpt>
      <trkpt lat="45.87015" lon="4.82034">
        <ele>289.55304</ele>
        <time>2023-09-02T14:07:20.000Z</time>
      </trkpt>
      <trkpt lat="45.87012" lon="4.82032">
        <ele>289.1214</ele>
        <time>2023-09-02T14:07:21.000Z</time>
      </trkpt>
      <trkpt lat="45.8701" lon="4.82031">
        <ele>289.46185</ele>
        <time>2023-09-02T14:07:22.000Z</time>
      </trkpt>
      <trkpt lat="45.87008" lon="4.82029">
        <ele>289.56232</ele>
        <time>2023-09-02T14:07:23.000Z</time>
      </trkpt>
      <trkpt lat="45.87005" lon="4.82027">
        <ele>289.69839</ele>
        <time>2023-09-02T14:07:24.000Z</time>
      </trkpt>
      <trkpt lat="45.87003" lon="4.82026">
        <ele>289.83365</ele>
        <time>2023-09-02T14:07:25.000Z</time>
      </trkpt>
      <trkpt lat="45.87001" lon="4.82024">
        <ele>289.98761</ele>
        <time>2023-09-02T14:07:26.000Z</time>
      </trkpt>
      <trkpt lat="45.86999" lon="4.82023">
        <ele>290.14349</ele>
        <time>2023-09-02T14:07:27.000Z</time>
      </trkpt>
      <trkpt lat="45.86997" lon="4.82021">
        <ele>290.20709</ele>
        <time>2023-09-02T14:07:28.000Z</time>
      </trkpt>
      <trkpt lat="45.86997" lon="4.82018">
        <ele>290.28894</ele>
        <time>2023-09-02T14:07:29.000Z</time>
      </trkpt>
      <trkpt lat="45.86997" lon="4.82014">
        <ele>290.36505</ele>
        <time>2023-09-02T14:07:31.000Z</time>
      </trkpt>
      <trkpt lat="45.86998" lon="4.8201">
        <ele>290.67688</ele>
        <time>2023-09-02T14:07:33.000Z</time>
      </trkpt>
      <trkpt lat="45.86998" lon="4.82006">
        <ele>290.73154</ele>
        <time>2023-09-02T14:07:35.000Z</time>
      </trkpt>
      <trkpt lat="45.86998" lon="4.82003">
        <ele>290.78632</ele>
        <time>2023-09-02T14:07:37.000Z</time>
      </trkpt>
      <trkpt lat="45.87" lon="4.82002">
        <ele>290.70517</ele>
        <time>2023-09-02T14:09:29.000Z</time>
      </trkpt>
      <trkpt lat="45.87" lon="4.82007">
        <ele>290.36282</ele>
        <time>2023-09-02T14:09:31.000Z</time>
      </trkpt>
      <trkpt lat="45.86999" lon="4.8201">
        <ele>290.67841</ele>
        <time>2023-09-02T14:09:32.000Z</time>
      </trkpt>
      <trkpt lat="45.86999" lon="4.82013">
        <ele>290.854</ele>
        <time>2023-09-02T14:09:33.000Z</time>
      </trkpt>
      <trkpt lat="45.86999" lon="4.82015">
        <ele>291.33563</ele>
        <time>2023-09-02T14:09:34.000Z</time>
      </trkpt>
      <trkpt lat="45.86999" lon="4.82018">
        <ele>291.80603</ele>
        <time>2023-09-02T14:09:35.000Z</time>
      </trkpt>
      <trkpt lat="45.86999" lon="4.82021">
        <ele>292.47455</ele>
        <time>2023-09-02T14:09:36.000Z</time>
      </trkpt>
      <trkpt lat="45.86997" lon="4.82022">
        <ele>293.14362</ele>
        <time>2023-09-02T14:09:37.000Z</time>
      </trkpt>
      <trkpt lat="45.86995" lon="4.82022">
        <ele>293.10507</ele>
        <time>2023-09-02T14:09:38.000Z</time>
      </trkpt>
      <trkpt lat="45.86994" lon="4.8202">
        <ele>293.23212</ele>
        <time>2023-09-02T14:09:39.000Z</time>
      </trkpt>
      <trkpt lat="45.86992" lon="4.82018">
        <ele>293.3696</ele>
        <time>2023-09-02T14:09:40.000Z</time>
      </trkpt>
      <trkpt lat="45.86991" lon="4.82015">
        <ele>293.63843</ele>
        <time>2023-09-02T14:09:41.000Z</time>
      </trkpt>
      <trkpt lat="45.86989" lon="4.82013">
        <ele>293.83197</ele>
        <time>2023-09-02T14:09:42.000Z</time>
      </trkpt>
      <trkpt lat="45.86986" lon="4.82012">
        <ele>293.95013</ele>
        <time>2023-09-02T14:09:43.000Z</time>
      </trkpt>
      <trkpt lat="45.86983" lon="4.82011">
        <ele>294.10583</ele>
        <time>2023-09-02T14:09:44.000Z</time>
      </trkpt>
      <trkpt lat="45.86981" lon="4.8201">
        <ele>294.22809</ele>
        <time>2023-09-02T14:09:45.000Z</time>
      </trkpt>
      <trkpt lat="45.86979" lon="4.82007">
        <ele>294.40213</ele>
        <time>2023-09-02T14:09:46.000Z</time>
      </trkpt>
      <trkpt lat="45.86979" lon="4.82004">
        <ele>294.42365</ele>
        <time>2023-09-02T14:09:47.000Z</time>
      </trkpt>
      <trkpt lat="45.86978" lon="4.82001">
        <ele>294.50714</ele>
        <time>2023-09-02T14:09:48.000Z</time>
      </trkpt>
      <trkpt lat="45.86978" lon="4.81998">
        <ele>294.71796</ele>
        <time>2023-09-02T14:09:49.000Z</time>
      </trkpt>
      <trkpt lat="45.86977" lon="4.81993">
        <ele>295.0672</ele>
        <time>2023-09-02T14:09:51.000Z</time>
      </trkpt>
      <trkpt lat="45.86976" lon="4.81989">
        <ele>295.68317</ele>
        <time>2023-09-02T14:09:53.000Z</time>
      </trkpt>
      <trkpt lat="45.86974" lon="4.8199">
        <ele>296.86096</ele>
        <time>2023-09-02T14:09:57.000Z</time>
      </trkpt>
      <trkpt lat="45.86975" lon="4.81987">
        <ele>297.76505</ele>
        <time>2023-09-02T14:12:08.000Z</time>
      </trkpt>
      <trkpt lat="45.86975" lon="4.81984">
        <ele>298.33807</ele>
        <time>2023-09-02T14:12:10.000Z</time>
      </trkpt>
      <trkpt lat="45.86974" lon="4.8198">
        <ele>299.24347</ele>
        <time>2023-09-02T14:12:12.000Z</time>
      </trkpt>
      <trkpt lat="45.86975" lon="4.81976">
        <ele>299.96075</ele>
        <time>2023-09-02T14:12:13.000Z</time>
      </trkpt>
      <trkpt lat="45.86975" lon="4.81973">
        <ele>300.64188</ele>
        <time>2023-09-02T14:12:14.000Z</time>
      </trkpt>
      <trkpt lat="45.86975" lon="4.8197">
        <ele>302.21991</ele>
        <time>2023-09-02T14:12:15.000Z</time>
      </trkpt>
      <trkpt lat="45.86975" lon="4.81967">
        <ele>303.01193</ele>
        <time>2023-09-02T14:12:16.000Z</time>
      </trkpt>
      <trkpt lat="45.86974" lon="4.81964">
        <ele>303.97064</ele>
        <time>2023-09-02T14:12:17.000Z</time>
      </trkpt>
      <trkpt lat="45.86973" lon="4.81961">
        <ele>304.66425</ele>
        <time>2023-09-02T14:12:18.000Z</time>
      </trkpt>
      <trkpt lat="45.86971" lon="4.81957">
        <ele>305.32431</ele>
        <time>2023-09-02T14:12:19.000Z</time>
      </trkpt>
      <trkpt lat="45.8697" lon="4.81954">
        <ele>306.09906</ele>
        <time>2023-09-02T14:12:20.000Z</time>
      </trkpt>
      <trkpt lat="45.86968" lon="4.81951">
        <ele>306.8923</ele>
        <time>2023-09-02T14:12:21.000Z</time>
      </trkpt>
      <trkpt lat="45.86966" lon="4.81949">
        <ele>307.71381</ele>
        <time>2023-09-02T14:12:22.000Z</time>
      </trkpt>
      <trkpt lat="45.86965" lon="4.81947">
        <ele>308.40533</ele>
        <time>2023-09-02T14:12:23.000Z</time>
      </trkpt>
      <trkpt lat="45.86963" lon="4.81945">
        <ele>308.96371</ele>
        <time>2023-09-02T14:12:24.000Z</time>
      </trkpt>
      <trkpt lat="45.86962" lon="4.81943">
        <ele>309.33145</ele>
        <time>2023-09-02T14:12:25.000Z</time>
      </trkpt>
      <trkpt lat="45.86961" lon="4.8194">
        <ele>309.45377</ele>
        <time>2023-09-02T14:12:26.000Z</time>
      </trkpt>
      <trkpt lat="45.8696" lon="4.81937">
        <ele>309.8876</ele>
        <time>2023-09-02T14:12:27.000Z</time>
      </trkpt>
      <trkpt lat="45.86957" lon="4.81933">
        <ele>310.14502</ele>
        <time>2023-09-02T14:12:29.000Z</time>
      </trkpt>
      <trkpt lat="45.86955" lon="4.81931">
        <ele>309.83746</ele>
        <time>2023-09-02T14:12:30.000Z</time>
      </trkpt>
      <trkpt lat="45.86953" lon="4.81928">
        <ele>309.65933</ele>
        <time>2023-09-02T14:12:31.000Z</time>
      </trkpt>
      <trkpt lat="45.8695" lon="4.81926">
        <ele>309.35391</ele>
        <time>2023-09-02T14:12:32.000Z</time>
      </trkpt>
      <trkpt lat="45.86948" lon="4.81925">
        <ele>309.04288</ele>
        <time>2023-09-02T14:12:33.000Z</time>
      </trkpt>
      <trkpt lat="45.86945" lon="4.81922">
        <ele>307.85614</ele>
        <time>2023-09-02T14:12:34.000Z</time>
      </trkpt>
      <trkpt lat="45.86943" lon="4.81919">
        <ele>306.82324</ele>
        <time>2023-09-02T14:12:35.000Z</time>
      </trkpt>
      <trkpt lat="45.86941" lon="4.81916">
        <ele>305.6485</ele>
        <time>2023-09-02T14:12:36.000Z</time>
      </trkpt>
      <trkpt lat="45.8694" lon="4.81912">
        <ele>305.02536</ele>
        <time>2023-09-02T14:12:37.000Z</time>
      </trkpt>
      <trkpt lat="45.86938" lon="4.81909">
        <ele>304.69672</ele>
        <time>2023-09-02T14:12:38.000Z</time>
      </trkpt>
      <trkpt lat="45.86937" lon="4.81906">
        <ele>304.3548</ele>
        <time>2023-09-02T14:12:39.000Z</time>
      </trkpt>
      <trkpt lat="45.86934" lon="4.81904">
        <ele>304.04089</ele>
        <time>2023-09-02T14:12:40.000Z</time>
      </trkpt>
      <trkpt lat="45.86932" lon="4.81902">
        <ele>303.7392</ele>
        <time>2023-09-02T14:12:41.000Z</time>
      </trkpt>
      <trkpt lat="45.86929" lon="4.81899">
        <ele>303.46344</ele>
        <time>2023-09-02T14:12:42.000Z</time>
      </trkpt>
      <trkpt lat="45.86927" lon="4.81897">
        <ele>303.4758</ele>
        <time>2023-09-02T14:12:43.000Z</time>
      </trkpt>
      <trkpt lat="45.86924" lon="4.81896">
        <ele>303.41867</ele>
        <time>2023-09-02T14:12:44.000Z</time>
      </trkpt>
      <trkpt lat="45.86922" lon="4.81895">
        <ele>302.74042</ele>
        <time>2023-09-02T14:12:45.000Z</time>
      </trkpt>
      <trkpt lat="45.86919" lon="4.81894">
        <ele>302.22333</ele>
        <time>2023-09-02T14:12:46.000Z</time>
      </trkpt>
      <trkpt lat="45.86916" lon="4.81893">
        <ele>301.86197</ele>
        <time>2023-09-02T14:12:47.000Z</time>
      </trkpt>
      <trkpt lat="45.86914" lon="4.81891">
        <ele>300.98273</ele>
        <time>2023-09-02T14:12:48.000Z</time>
      </trkpt>
      <trkpt lat="45.86911" lon="4.8189">
        <ele>300.18359</ele>
        <time>2023-09-02T14:12:49.000Z</time>
      </trkpt>
      <trkpt lat="45.86908" lon="4.81889">
        <ele>299.44736</ele>
        <time>2023-09-02T14:12:50.000Z</time>
      </trkpt>
      <trkpt lat="45.86906" lon="4.81887">
        <ele>298.85672</ele>
        <time>2023-09-02T14:12:51.000Z</time>
      </trkpt>
      <trkpt lat="45.86903" lon="4.81886">
        <ele>298.40488</ele>
        <time>2023-09-02T14:12:52.000Z</time>
      </trkpt>
      <trkpt lat="45.86901" lon="4.81885">
        <ele>297.60468</ele>
        <time>2023-09-02T14:12:53.000Z</time>
      </trkpt>
      <trkpt lat="45.86898" lon="4.81883">
        <ele>297.67108</ele>
        <time>2023-09-02T14:12:54.000Z</time>
      </trkpt>
      <trkpt lat="45.86896" lon="4.81882">
        <ele>297.57919</ele>
        <time>2023-09-02T14:12:55.000Z</time>
      </trkpt>
      <trkpt lat="45.86894" lon="4.81881">
        <ele>297.41504</ele>
        <time>2023-09-02T14:12:56.000Z</time>
      </trkpt>
      <trkpt lat="45.86891" lon="4.8188">
        <ele>297.38007</ele>
        <time>2023-09-02T14:12:57.000Z</time>
      </trkpt>
      <trkpt lat="45.86888" lon="4.81879">
        <ele>296.89236</ele>
        <time>2023-09-02T14:12:58.000Z</time>
      </trkpt>
      <trkpt lat="45.86886" lon="4.81878">
        <ele>296.58209</ele>
        <time>2023-09-02T14:12:59.000Z</time>
      </trkpt>
      <trkpt lat="45.86884" lon="4.81877">
        <ele>296.34863</ele>
        <time>2023-09-02T14:13:00.000Z</time>
      </trkpt>
      <trkpt lat="45.86881" lon="4.81876">
        <ele>296.05649</ele>
        <time>2023-09-02T14:13:01.000Z</time>
      </trkpt>
      <trkpt lat="45.86878" lon="4.81876">
        <ele>295.7207</ele>
        <time>2023-09-02T14:13:02.000Z</time>
      </trkpt>
      <trkpt lat="45.86876" lon="4.81875">
        <ele>295.12534</ele>
        <time>2023-09-02T14:13:03.000Z</time>
      </trkpt>
      <trkpt lat="45.86873" lon="4.81873">
        <ele>294.68115</ele>
        <time>2023-09-02T14:13:04.000Z</time>
      </trkpt>
      <trkpt lat="45.8687" lon="4.81872">
        <ele>294.93179</ele>
        <time>2023-09-02T14:13:05.000Z</time>
      </trkpt>
      <trkpt lat="45.86867" lon="4.81871">
        <ele>295.04401</ele>
        <time>2023-09-02T14:13:06.000Z</time>
      </trkpt>
      <trkpt lat="45.86865" lon="4.81871">
        <ele>295.15228</ele>
        <time>2023-09-02T14:13:07.000Z</time>
      </trkpt>
      <trkpt lat="45.86862" lon="4.8187">
        <ele>295.28094</ele>
        <time>2023-09-02T14:13:08.000Z</time>
      </trkpt>
      <trkpt lat="45.8686" lon="4.81868">
        <ele>295.41187</ele>
        <time>2023-09-02T14:13:09.000Z</time>
      </trkpt>
      <trkpt lat="45.86857" lon="4.81866">
        <ele>295.56342</ele>
        <time>2023-09-02T14:13:10.000Z</time>
      </trkpt>
      <trkpt lat="45.86855" lon="4.81864">
        <ele>295.74994</ele>
        <time>2023-09-02T14:13:11.000Z</time>
      </trkpt>
      <trkpt lat="45.86853" lon="4.81861">
        <ele>296.43317</ele>
        <time>2023-09-02T14:13:12.000Z</time>
      </trkpt>
      <trkpt lat="45.86851" lon="4.81859">
        <ele>296.11334</ele>
        <time>2023-09-02T14:13:13.000Z</time>
      </trkpt>
      <trkpt lat="45.86849" lon="4.81855">
        <ele>295.89142</ele>
        <time>2023-09-02T14:13:14.000Z</time>
      </trkpt>
      <trkpt lat="45.86848" lon="4.81852">
        <ele>295.78891</ele>
        <time>2023-09-02T14:13:15.000Z</time>
      </trkpt>
      <trkpt lat="45.86846" lon="4.81848">
        <ele>295.47119</ele>
        <time>2023-09-02T14:13:16.000Z</time>
      </trkpt>
      <trkpt lat="45.86844" lon="4.81844">
        <ele>295.80569</ele>
        <time>2023-09-02T14:13:17.000Z</time>
      </trkpt>
      <trkpt lat="45.86843" lon="4.8184">
        <ele>296.0174</ele>
        <time>2023-09-02T14:13:18.000Z</time>
      </trkpt>
      <trkpt lat="45.86841" lon="4.81836">
        <ele>296.18884</ele>
        <time>2023-09-02T14:13:19.000Z</time>
      </trkpt>
      <trkpt lat="45.8684" lon="4.81832">
        <ele>296.35321</ele>
        <time>2023-09-02T14:13:20.000Z</time>
      </trkpt>
      <trkpt lat="45.86838" lon="4.81828">
        <ele>296.50946</ele>
        <time>2023-09-02T14:13:21.000Z</time>
      </trkpt>
      <trkpt lat="45.86836" lon="4.81824">
        <ele>296.64716</ele>
        <time>2023-09-02T14:13:22.000Z</time>
      </trkpt>
      <trkpt lat="45.86834" lon="4.8182">
        <ele>296.78265</ele>
        <time>2023-09-02T14:13:23.000Z</time>
      </trkpt>
      <trkpt lat="45.86832" lon="4.81817">
        <ele>296.94934</ele>
        <time>2023-09-02T14:13:24.000Z</time>
      </trkpt>
      <trkpt lat="45.86831" lon="4.81813">
        <ele>297.06467</ele>
        <time>2023-09-02T14:13:25.000Z</time>
      </trkpt>
      <trkpt lat="45.86829" lon="4.81809">
        <ele>297.1857</ele>
        <time>2023-09-02T14:13:26.000Z</time>
      </trkpt>
      <trkpt lat="45.86827" lon="4.81805">
        <ele>297.26715</ele>
        <time>2023-09-02T14:13:27.000Z</time>
      </trkpt>
      <trkpt lat="45.86825" lon="4.81802">
        <ele>297.3941</ele>
        <time>2023-09-02T14:13:28.000Z</time>
      </trkpt>
      <trkpt lat="45.86824" lon="4.81799">
        <ele>297.49835</ele>
        <time>2023-09-02T14:13:29.000Z</time>
      </trkpt>
      <trkpt lat="45.86823" lon="4.81795">
        <ele>297.62372</ele>
        <time>2023-09-02T14:13:30.000Z</time>
      </trkpt>
      <trkpt lat="45.86822" lon="4.8179">
        <ele>297.76926</ele>
        <time>2023-09-02T14:13:31.000Z</time>
      </trkpt>
      <trkpt lat="45.86822" lon="4.81786">
        <ele>297.43683</ele>
        <time>2023-09-02T14:13:32.000Z</time>
      </trkpt>
      <trkpt lat="45.86822" lon="4.81782">
        <ele>298.14688</ele>
        <time>2023-09-02T14:13:33.000Z</time>
      </trkpt>
      <trkpt lat="45.86821" lon="4.81778">
        <ele>298.74591</ele>
        <time>2023-09-02T14:13:34.000Z</time>
      </trkpt>
      <trkpt lat="45.86821" lon="4.81775">
        <ele>299.25317</ele>
        <time>2023-09-02T14:13:35.000Z</time>
      </trkpt>
      <trkpt lat="45.86821" lon="4.81771">
        <ele>299.961</ele>
        <time>2023-09-02T14:13:36.000Z</time>
      </trkpt>
      <trkpt lat="45.86821" lon="4.81768">
        <ele>300.10526</ele>
        <time>2023-09-02T14:13:37.000Z</time>
      </trkpt>
      <trkpt lat="45.8682" lon="4.81765">
        <ele>300.68939</ele>
        <time>2023-09-02T14:13:38.000Z</time>
      </trkpt>
      <trkpt lat="45.86819" lon="4.81761">
        <ele>301.55023</ele>
        <time>2023-09-02T14:13:39.000Z</time>
      </trkpt>
      <trkpt lat="45.86819" lon="4.81756">
        <ele>302.07281</ele>
        <time>2023-09-02T14:13:41.000Z</time>
      </trkpt>
      <trkpt lat="45.86819" lon="4.81753">
        <ele>302.22394</ele>
        <time>2023-09-02T14:13:42.000Z</time>
      </trkpt>
      <trkpt lat="45.86819" lon="4.81748">
        <ele>302.39572</ele>
        <time>2023-09-02T14:13:43.000Z</time>
      </trkpt>
      <trkpt lat="45.86818" lon="4.81743">
        <ele>302.57266</ele>
        <time>2023-09-02T14:13:44.000Z</time>
      </trkpt>
      <trkpt lat="45.86818" lon="4.81739">
        <ele>302.72809</ele>
        <time>2023-09-02T14:13:45.000Z</time>
      </trkpt>
      <trkpt lat="45.86818" lon="4.81734">
        <ele>302.89441</ele>
        <time>2023-09-02T14:13:46.000Z</time>
      </trkpt>
      <trkpt lat="45.86818" lon="4.8173">
        <ele>306.27051</ele>
        <time>2023-09-02T14:13:47.000Z</time>
      </trkpt>
      <trkpt lat="45.86819" lon="4.81725">
        <ele>306.64484</ele>
        <time>2023-09-02T14:13:48.000Z</time>
      </trkpt>
      <trkpt lat="45.86819" lon="4.81721">
        <ele>307.00189</ele>
        <time>2023-09-02T14:13:49.000Z</time>
      </trkpt>
      <trkpt lat="45.8682" lon="4.81716">
        <ele>307.39813</ele>
        <time>2023-09-02T14:13:50.000Z</time>
      </trkpt>
      <trkpt lat="45.86821" lon="4.81711">
        <ele>307.76834</ele>
        <time>2023-09-02T14:13:51.000Z</time>
      </trkpt>
      <trkpt lat="45.86821" lon="4.81707">
        <ele>308.12036</ele>
        <time>2023-09-02T14:13:52.000Z</time>
      </trkpt>
      <trkpt lat="45.86822" lon="4.81702">
        <ele>311.07037</ele>
        <time>2023-09-02T14:13:53.000Z</time>
      </trkpt>
      <trkpt lat="45.86823" lon="4.81698">
        <ele>311.54559</ele>
        <time>2023-09-02T14:13:54.000Z</time>
      </trkpt>
      <trkpt lat="45.86823" lon="4.81693">
        <ele>312.02875</ele>
        <time>2023-09-02T14:13:55.000Z</time>
      </trkpt>
      <trkpt lat="45.86824" lon="4.81688">
        <ele>312.534</ele>
        <time>2023-09-02T14:13:56.000Z</time>
      </trkpt>
      <trkpt lat="45.86824" lon="4.81683">
        <ele>313.06073</ele>
        <time>2023-09-02T14:13:57.000Z</time>
      </trkpt>
      <trkpt lat="45.86825" lon="4.81679">
        <ele>313.51828</ele>
        <time>2023-09-02T14:13:58.000Z</time>
      </trkpt>
      <trkpt lat="45.86825" lon="4.81674">
        <ele>316.47128</ele>
        <time>2023-09-02T14:13:59.000Z</time>
      </trkpt>
      <trkpt lat="45.86826" lon="4.8167">
        <ele>316.4845</ele>
        <time>2023-09-02T14:14:00.000Z</time>
      </trkpt>
      <trkpt lat="45.86827" lon="4.81666">
        <ele>316.83322</ele>
        <time>2023-09-02T14:14:01.000Z</time>
      </trkpt>
      <trkpt lat="45.86828" lon="4.81661">
        <ele>317.57123</ele>
        <time>2023-09-02T14:14:02.000Z</time>
      </trkpt>
      <trkpt lat="45.86829" lon="4.81657">
        <ele>318.33859</ele>
        <time>2023-09-02T14:14:03.000Z</time>
      </trkpt>
      <trkpt lat="45.86829" lon="4.81653">
        <ele>319.13574</ele>
        <time>2023-09-02T14:14:04.000Z</time>
      </trkpt>
      <trkpt lat="45.86829" lon="4.81648">
        <ele>323.00214</ele>
        <time>2023-09-02T14:14:05.000Z</time>
      </trkpt>
      <trkpt lat="45.8683" lon="4.81644">
        <ele>324.01584</ele>
        <time>2023-09-02T14:14:06.000Z</time>
      </trkpt>
      <trkpt lat="45.8683" lon="4.81641">
        <ele>321.89462</ele>
        <time>2023-09-02T14:14:07.000Z</time>
      </trkpt>
      <trkpt lat="45.8683" lon="4.81637">
        <ele>322.67584</ele>
        <time>2023-09-02T14:14:08.000Z</time>
      </trkpt>
      <trkpt lat="45.86831" lon="4.81633">
        <ele>323.47736</ele>
        <time>2023-09-02T14:14:09.000Z</time>
      </trkpt>
      <trkpt lat="45.86831" lon="4.81629">
        <ele>324.30115</ele>
        <time>2023-09-02T14:14:10.000Z</time>
      </trkpt>
      <trkpt lat="45.86831" lon="4.81625">
        <ele>329.51898</ele>
        <time>2023-09-02T14:14:11.000Z</time>
      </trkpt>
      <trkpt lat="45.86831" lon="4.81621">
        <ele>330.60651</ele>
        <time>2023-09-02T14:14:12.000Z</time>
      </trkpt>
      <trkpt lat="45.86831" lon="4.81616">
        <ele>329.12485</ele>
        <time>2023-09-02T14:14:13.000Z</time>
      </trkpt>
      <trkpt lat="45.86831" lon="4.81611">
        <ele>330.02759</ele>
        <time>2023-09-02T14:14:14.000Z</time>
      </trkpt>
      <trkpt lat="45.86831" lon="4.81606">
        <ele>330.95172</ele>
        <time>2023-09-02T14:14:15.000Z</time>
      </trkpt>
      <trkpt lat="45.86831" lon="4.81602">
        <ele>331.89786</ele>
        <time>2023-09-02T14:14:16.000Z</time>
      </trkpt>
      <trkpt lat="45.8683" lon="4.81598">
        <ele>337.6478</ele>
        <time>2023-09-02T14:14:17.000Z</time>
      </trkpt>
      <trkpt lat="45.8683" lon="4.81593">
        <ele>338.87717</ele>
        <time>2023-09-02T14:14:18.000Z</time>
      </trkpt>
      <trkpt lat="45.8683" lon="4.81589">
        <ele>337.33585</ele>
        <time>2023-09-02T14:14:19.000Z</time>
      </trkpt>
      <trkpt lat="45.86831" lon="4.81584">
        <ele>338.37909</ele>
        <time>2023-09-02T14:14:20.000Z</time>
      </trkpt>
      <trkpt lat="45.86832" lon="4.8158">
        <ele>339.47382</ele>
        <time>2023-09-02T14:14:21.000Z</time>
      </trkpt>
      <trkpt lat="45.86831" lon="4.81576">
        <ele>340.60583</ele>
        <time>2023-09-02T14:14:22.000Z</time>
      </trkpt>
      <trkpt lat="45.86831" lon="4.81572">
        <ele>346.83554</ele>
        <time>2023-09-02T14:14:23.000Z</time>
      </trkpt>
      <trkpt lat="45.86831" lon="4.81567">
        <ele>348.26041</ele>
        <time>2023-09-02T14:14:24.000Z</time>
      </trkpt>
      <trkpt lat="45.8683" lon="4.81563">
        <ele>346.67838</ele>
        <time>2023-09-02T14:14:25.000Z</time>
      </trkpt>
      <trkpt lat="45.8683" lon="4.81559">
        <ele>347.86218</ele>
        <time>2023-09-02T14:14:26.000Z</time>
      </trkpt>
      <trkpt lat="45.8683" lon="4.81554">
        <ele>349.0545</ele>
        <time>2023-09-02T14:14:27.000Z</time>
      </trkpt>
      <trkpt lat="45.8683" lon="4.81549">
        <ele>350.41254</ele>
        <time>2023-09-02T14:14:28.000Z</time>
      </trkpt>
      <trkpt lat="45.8683" lon="4.81545">
        <ele>355.64691</ele>
        <time>2023-09-02T14:14:29.000Z</time>
      </trkpt>
      <trkpt lat="45.86829" lon="4.81541">
        <ele>357.2554</ele>
        <time>2023-09-02T14:14:30.000Z</time>
      </trkpt>
      <trkpt lat="45.86828" lon="4.81538">
        <ele>354.53043</ele>
        <time>2023-09-02T14:14:31.000Z</time>
      </trkpt>
      <trkpt lat="45.86827" lon="4.81535">
        <ele>355.78098</ele>
        <time>2023-09-02T14:14:32.000Z</time>
      </trkpt>
      <trkpt lat="45.86826" lon="4.81532">
        <ele>357.0397</ele>
        <time>2023-09-02T14:14:33.000Z</time>
      </trkpt>
      <trkpt lat="45.86825" lon="4.81529">
        <ele>358.43542</ele>
        <time>2023-09-02T14:14:34.000Z</time>
      </trkpt>
      <trkpt lat="45.86824" lon="4.81525">
        <ele>364.33789</ele>
        <time>2023-09-02T14:14:35.000Z</time>
      </trkpt>
      <trkpt lat="45.86822" lon="4.8152">
        <ele>366.0072</ele>
        <time>2023-09-02T14:14:36.000Z</time>
      </trkpt>
      <trkpt lat="45.86821" lon="4.81515">
        <ele>362.93091</ele>
        <time>2023-09-02T14:14:37.000Z</time>
      </trkpt>
      <trkpt lat="45.86819" lon="4.8151">
        <ele>364.19507</ele>
        <time>2023-09-02T14:14:38.000Z</time>
      </trkpt>
      <trkpt lat="45.86818" lon="4.81506">
        <ele>365.461</ele>
        <time>2023-09-02T14:14:39.000Z</time>
      </trkpt>
      <trkpt lat="45.86818" lon="4.81502">
        <ele>366.86725</ele>
        <time>2023-09-02T14:14:40.000Z</time>
      </trkpt>
      <trkpt lat="45.86817" lon="4.81498">
        <ele>372.36786</ele>
        <time>2023-09-02T14:14:41.000Z</time>
      </trkpt>
      <trkpt lat="45.86816" lon="4.81493">
        <ele>374.01254</ele>
        <time>2023-09-02T14:14:42.000Z</time>
      </trkpt>
      <trkpt lat="45.86815" lon="4.81489">
        <ele>370.60492</ele>
        <time>2023-09-02T14:14:43.000Z</time>
      </trkpt>
      <trkpt lat="45.86814" lon="4.81485">
        <ele>371.7934</ele>
        <time>2023-09-02T14:14:44.000Z</time>
      </trkpt>
      <trkpt lat="45.86813" lon="4.8148">
        <ele>372.97003</ele>
        <time>2023-09-02T14:14:45.000Z</time>
      </trkpt>
      <trkpt lat="45.86812" lon="4.81476">
        <ele>374.28464</ele>
        <time>2023-09-02T14:14:46.000Z</time>
      </trkpt>
      <trkpt lat="45.8681" lon="4.81472">
        <ele>379.71588</ele>
        <time>2023-09-02T14:14:47.000Z</time>
      </trkpt>
      <trkpt lat="45.86809" lon="4.81467">
        <ele>381.24893</ele>
        <time>2023-09-02T14:14:48.000Z</time>
      </trkpt>
      <trkpt lat="45.86809" lon="4.81463">
        <ele>378.94318</ele>
        <time>2023-09-02T14:14:49.000Z</time>
      </trkpt>
      <trkpt lat="45.86808" lon="4.81459">
        <ele>380.108</ele>
        <time>2023-09-02T14:14:50.000Z</time>
      </trkpt>
      <trkpt lat="45.86807" lon="4.81454">
        <ele>381.25064</ele>
        <time>2023-09-02T14:14:51.000Z</time>
      </trkpt>
      <trkpt lat="45.86806" lon="4.81449">
        <ele>382.58664</ele>
        <time>2023-09-02T14:14:52.000Z</time>
      </trkpt>
      <trkpt lat="45.86805" lon="4.81444">
        <ele>387.22156</ele>
        <time>2023-09-02T14:14:53.000Z</time>
      </trkpt>
      <trkpt lat="45.86804" lon="4.81439">
        <ele>388.73065</ele>
        <time>2023-09-02T14:14:54.000Z</time>
      </trkpt>
      <trkpt lat="45.86803" lon="4.81435">
        <ele>385.76334</ele>
        <time>2023-09-02T14:14:55.000Z</time>
      </trkpt>
      <trkpt lat="45.86802" lon="4.81431">
        <ele>386.83459</ele>
        <time>2023-09-02T14:14:56.000Z</time>
      </trkpt>
      <trkpt lat="45.86801" lon="4.81427">
        <ele>387.87595</ele>
        <time>2023-09-02T14:14:57.000Z</time>
      </trkpt>
      <trkpt lat="45.868" lon="4.81422">
        <ele>389.1232</ele>
        <time>2023-09-02T14:14:58.000Z</time>
      </trkpt>
      <trkpt lat="45.86799" lon="4.81417">
        <ele>393.03485</ele>
        <time>2023-09-02T14:14:59.000Z</time>
      </trkpt>
      <trkpt lat="45.86798" lon="4.81412">
        <ele>394.41354</ele>
        <time>2023-09-02T14:15:00.000Z</time>
      </trkpt>
      <trkpt lat="45.86797" lon="4.81408">
        <ele>391.71466</ele>
        <time>2023-09-02T14:15:01.000Z</time>
      </trkpt>
      <trkpt lat="45.86796" lon="4.81403">
        <ele>392.68204</ele>
        <time>2023-09-02T14:15:02.000Z</time>
      </trkpt>
      <trkpt lat="45.86795" lon="4.81398">
        <ele>393.61551</ele>
        <time>2023-09-02T14:15:03.000Z</time>
      </trkpt>
      <trkpt lat="45.86795" lon="4.81393">
        <ele>394.76605</ele>
        <time>2023-09-02T14:15:04.000Z</time>
      </trkpt>
      <trkpt lat="45.86794" lon="4.81388">
        <ele>398.2999</ele>
        <time>2023-09-02T14:15:05.000Z</time>
      </trkpt>
      <trkpt lat="45.86793" lon="4.81383">
        <ele>399.56638</ele>
        <time>2023-09-02T14:15:06.000Z</time>
      </trkpt>
      <trkpt lat="45.86793" lon="4.81378">
        <ele>396.72037</ele>
        <time>2023-09-02T14:15:07.000Z</time>
      </trkpt>
      <trkpt lat="45.86792" lon="4.81374">
        <ele>398.77887</ele>
        <time>2023-09-02T14:15:08.000Z</time>
      </trkpt>
      <trkpt lat="45.86791" lon="4.81369">
        <ele>399.65536</ele>
        <time>2023-09-02T14:15:09.000Z</time>
      </trkpt>
      <trkpt lat="45.8679" lon="4.81364">
        <ele>401.89267</ele>
        <time>2023-09-02T14:15:10.000Z</time>
      </trkpt>
      <trkpt lat="45.86789" lon="4.8136">
        <ele>403.97043</ele>
        <time>2023-09-02T14:15:11.000Z</time>
      </trkpt>
      <trkpt lat="45.86788" lon="4.81355">
        <ele>405.9812</ele>
        <time>2023-09-02T14:15:12.000Z</time>
      </trkpt>
      <trkpt lat="45.86787" lon="4.8135">
        <ele>404.45813</ele>
        <time>2023-09-02T14:15:13.000Z</time>
      </trkpt>
      <trkpt lat="45.86787" lon="4.81346">
        <ele>405.72696</ele>
        <time>2023-09-02T14:15:14.000Z</time>
      </trkpt>
      <trkpt lat="45.86786" lon="4.81341">
        <ele>406.78119</ele>
        <time>2023-09-02T14:15:15.000Z</time>
      </trkpt>
      <trkpt lat="45.86785" lon="4.81337">
        <ele>408.12323</ele>
        <time>2023-09-02T14:15:16.000Z</time>
      </trkpt>
      <trkpt lat="45.86783" lon="4.81333">
        <ele>409.79462</ele>
        <time>2023-09-02T14:15:17.000Z</time>
      </trkpt>
      <trkpt lat="45.86782" lon="4.8133">
        <ele>411.59381</ele>
        <time>2023-09-02T14:15:18.000Z</time>
      </trkpt>
      <trkpt lat="45.8678" lon="4.81326">
        <ele>410.75226</ele>
        <time>2023-09-02T14:15:19.000Z</time>
      </trkpt>
      <trkpt lat="45.86778" lon="4.81322">
        <ele>412.56622</ele>
        <time>2023-09-02T14:15:20.000Z</time>
      </trkpt>
      <trkpt lat="45.86776" lon="4.81318">
        <ele>414.27271</ele>
        <time>2023-09-02T14:15:21.000Z</time>
      </trkpt>
      <trkpt lat="45.86775" lon="4.81314">
        <ele>416.12964</ele>
        <time>2023-09-02T14:15:22.000Z</time>
      </trkpt>
      <trkpt lat="45.86773" lon="4.81309">
        <ele>418.06128</ele>
        <time>2023-09-02T14:15:23.000Z</time>
      </trkpt>
      <trkpt lat="45.86772" lon="4.81305">
        <ele>419.93549</ele>
        <time>2023-09-02T14:15:24.000Z</time>
      </trkpt>
      <trkpt lat="45.8677" lon="4.813">
        <ele>419.2355</ele>
        <time>2023-09-02T14:15:25.000Z</time>
      </trkpt>
      <trkpt lat="45.86769" lon="4.81296">
        <ele>420.43011</ele>
        <time>2023-09-02T14:15:26.000Z</time>
      </trkpt>
      <trkpt lat="45.86768" lon="4.8129">
        <ele>421.99356</ele>
        <time>2023-09-02T14:15:27.000Z</time>
      </trkpt>
      <trkpt lat="45.86767" lon="4.81285">
        <ele>422.34991</ele>
        <time>2023-09-02T14:15:28.000Z</time>
      </trkpt>
      <trkpt lat="45.86766" lon="4.8128">
        <ele>423.98154</ele>
        <time>2023-09-02T14:15:29.000Z</time>
      </trkpt>
      <trkpt lat="45.86764" lon="4.81276">
        <ele>424.3736</ele>
        <time>2023-09-02T14:15:30.000Z</time>
      </trkpt>
      <trkpt lat="45.86763" lon="4.81272">
        <ele>425.41245</ele>
        <time>2023-09-02T14:15:31.000Z</time>
      </trkpt>
      <trkpt lat="45.86762" lon="4.81267">
        <ele>426.65753</ele>
        <time>2023-09-02T14:15:32.000Z</time>
      </trkpt>
      <trkpt lat="45.8676" lon="4.81263">
        <ele>426.32852</ele>
        <time>2023-09-02T14:15:33.000Z</time>
      </trkpt>
      <trkpt lat="45.86759" lon="4.81258">
        <ele>426.80664</ele>
        <time>2023-09-02T14:15:34.000Z</time>
      </trkpt>
      <trkpt lat="45.86758" lon="4.81254">
        <ele>427.50464</ele>
        <time>2023-09-02T14:15:35.000Z</time>
      </trkpt>
      <trkpt lat="45.86757" lon="4.81251">
        <ele>427.95914</ele>
        <time>2023-09-02T14:15:36.000Z</time>
      </trkpt>
      <trkpt lat="45.86756" lon="4.81246">
        <ele>427.80176</ele>
        <time>2023-09-02T14:15:37.000Z</time>
      </trkpt>
      <trkpt lat="45.86756" lon="4.81242">
        <ele>427.69394</ele>
        <time>2023-09-02T14:15:38.000Z</time>
      </trkpt>
      <trkpt lat="45.86755" lon="4.81237">
        <ele>427.52899</ele>
        <time>2023-09-02T14:15:39.000Z</time>
      </trkpt>
      <trkpt lat="45.86754" lon="4.81232">
        <ele>427.27231</ele>
        <time>2023-09-02T14:15:40.000Z</time>
      </trkpt>
      <trkpt lat="45.86753" lon="4.81228">
        <ele>427.28387</ele>
        <time>2023-09-02T14:15:41.000Z</time>
      </trkpt>
      <trkpt lat="45.86752" lon="4.81223">
        <ele>427.2442</ele>
        <time>2023-09-02T14:15:42.000Z</time>
      </trkpt>
      <trkpt lat="45.8675" lon="4.81219">
        <ele>426.75082</ele>
        <time>2023-09-02T14:15:43.000Z</time>
      </trkpt>
      <trkpt lat="45.86748" lon="4.81215">
        <ele>426.54559</ele>
        <time>2023-09-02T14:15:44.000Z</time>
      </trkpt>
      <trkpt lat="45.86747" lon="4.81211">
        <ele>426.41998</ele>
        <time>2023-09-02T14:15:45.000Z</time>
      </trkpt>
      <trkpt lat="45.86745" lon="4.81206">
        <ele>426.20297</ele>
        <time>2023-09-02T14:15:46.000Z</time>
      </trkpt>
      <trkpt lat="45.86744" lon="4.81202">
        <ele>425.69305</ele>
        <time>2023-09-02T14:15:47.000Z</time>
      </trkpt>
      <trkpt lat="45.86742" lon="4.81198">
        <ele>425.48325</ele>
        <time>2023-09-02T14:15:48.000Z</time>
      </trkpt>
      <trkpt lat="45.86741" lon="4.81194">
        <ele>425.0997</ele>
        <time>2023-09-02T14:15:49.000Z</time>
      </trkpt>
      <trkpt lat="45.86739" lon="4.81189">
        <ele>424.82803</ele>
        <time>2023-09-02T14:15:50.000Z</time>
      </trkpt>
      <trkpt lat="45.86737" lon="4.81186">
        <ele>423.82611</ele>
        <time>2023-09-02T14:15:51.000Z</time>
      </trkpt>
      <trkpt lat="45.86736" lon="4.81181">
        <ele>422.81363</ele>
        <time>2023-09-02T14:15:52.000Z</time>
      </trkpt>
      <trkpt lat="45.86734" lon="4.81176">
        <ele>423.47052</ele>
        <time>2023-09-02T14:15:53.000Z</time>
      </trkpt>
      <trkpt lat="45.86733" lon="4.81171">
        <ele>423.37402</ele>
        <time>2023-09-02T14:15:54.000Z</time>
      </trkpt>
      <trkpt lat="45.86732" lon="4.81167">
        <ele>422.97858</ele>
        <time>2023-09-02T14:15:55.000Z</time>
      </trkpt>
      <trkpt lat="45.86731" lon="4.81163">
        <ele>423.09311</ele>
        <time>2023-09-02T14:15:56.000Z</time>
      </trkpt>
      <trkpt lat="45.8673" lon="4.81158">
        <ele>423.40704</ele>
        <time>2023-09-02T14:15:57.000Z</time>
      </trkpt>
      <trkpt lat="45.86729" lon="4.81154">
        <ele>423.50348</ele>
        <time>2023-09-02T14:15:58.000Z</time>
      </trkpt>
      <trkpt lat="45.86728" lon="4.81148">
        <ele>423.56366</ele>
        <time>2023-09-02T14:15:59.000Z</time>
      </trkpt>
      <trkpt lat="45.86727" lon="4.81144">
        <ele>423.20239</ele>
        <time>2023-09-02T14:16:00.000Z</time>
      </trkpt>
      <trkpt lat="45.86726" lon="4.81139">
        <ele>422.21777</ele>
        <time>2023-09-02T14:16:01.000Z</time>
      </trkpt>
      <trkpt lat="45.86725" lon="4.81134">
        <ele>420.63007</ele>
        <time>2023-09-02T14:16:02.000Z</time>
      </trkpt>
      <trkpt lat="45.86724" lon="4.8113">
        <ele>419.32919</ele>
        <time>2023-09-02T14:16:03.000Z</time>
      </trkpt>
      <trkpt lat="45.86723" lon="4.81125">
        <ele>417.58047</ele>
        <time>2023-09-02T14:16:04.000Z</time>
      </trkpt>
      <trkpt lat="45.86722" lon="4.81121">
        <ele>417.16156</ele>
        <time>2023-09-02T14:16:05.000Z</time>
      </trkpt>
      <trkpt lat="45.86721" lon="4.81116">
        <ele>417.12701</ele>
        <time>2023-09-02T14:16:06.000Z</time>
      </trkpt>
      <trkpt lat="45.8672" lon="4.81111">
        <ele>416.95151</ele>
        <time>2023-09-02T14:16:07.000Z</time>
      </trkpt>
      <trkpt lat="45.86719" lon="4.81107">
        <ele>416.60822</ele>
        <time>2023-09-02T14:16:08.000Z</time>
      </trkpt>
      <trkpt lat="45.86718" lon="4.81102">
        <ele>414.75922</ele>
        <time>2023-09-02T14:16:09.000Z</time>
      </trkpt>
      <trkpt lat="45.86717" lon="4.81098">
        <ele>412.80728</ele>
        <time>2023-09-02T14:16:10.000Z</time>
      </trkpt>
      <trkpt lat="45.86716" lon="4.81093">
        <ele>411.08954</ele>
        <time>2023-09-02T14:16:11.000Z</time>
      </trkpt>
      <trkpt lat="45.86714" lon="4.81088">
        <ele>409.18402</ele>
        <time>2023-09-02T14:16:12.000Z</time>
      </trkpt>
      <trkpt lat="45.86713" lon="4.81083">
        <ele>407.37268</ele>
        <time>2023-09-02T14:16:13.000Z</time>
      </trkpt>
      <trkpt lat="45.86711" lon="4.81078">
        <ele>405.79935</ele>
        <time>2023-09-02T14:16:14.000Z</time>
      </trkpt>
      <trkpt lat="45.8671" lon="4.81073">
        <ele>404.4549</ele>
        <time>2023-09-02T14:16:15.000Z</time>
      </trkpt>
      <trkpt lat="45.86708" lon="4.81069">
        <ele>402.72137</ele>
        <time>2023-09-02T14:16:16.000Z</time>
      </trkpt>
      <trkpt lat="45.86706" lon="4.81066">
        <ele>401.03238</ele>
        <time>2023-09-02T14:16:17.000Z</time>
      </trkpt>
      <trkpt lat="45.86705" lon="4.81062">
        <ele>399.35687</ele>
        <time>2023-09-02T14:16:18.000Z</time>
      </trkpt>
      <trkpt lat="45.86704" lon="4.81057">
        <ele>397.69269</ele>
        <time>2023-09-02T14:16:19.000Z</time>
      </trkpt>
      <trkpt lat="45.86704" lon="4.81053">
        <ele>396.38916</ele>
        <time>2023-09-02T14:16:20.000Z</time>
      </trkpt>
      <trkpt lat="45.86703" lon="4.81049">
        <ele>395.87802</ele>
        <time>2023-09-02T14:16:21.000Z</time>
      </trkpt>
      <trkpt lat="45.86702" lon="4.81046">
        <ele>396.0235</ele>
        <time>2023-09-02T14:16:22.000Z</time>
      </trkpt>
      <trkpt lat="45.86701" lon="4.81044">
        <ele>396.22662</ele>
        <time>2023-09-02T14:16:23.000Z</time>
      </trkpt>
      <trkpt lat="45.867" lon="4.8104">
        <ele>396.6377</ele>
        <time>2023-09-02T14:16:25.000Z</time>
      </trkpt>
      <trkpt lat="45.86698" lon="4.81037">
        <ele>396.51685</ele>
        <time>2023-09-02T14:16:27.000Z</time>
      </trkpt>
      <trkpt lat="45.86697" lon="4.81034">
        <ele>396.90881</ele>
        <time>2023-09-02T14:16:29.000Z</time>
      </trkpt>
      <trkpt lat="45.86697" lon="4.81037">
        <ele>396.73804</ele>
        <time>2023-09-02T14:16:47.000Z</time>
      </trkpt>
      <trkpt lat="45.86699" lon="4.81038">
        <ele>396.72784</ele>
        <time>2023-09-02T14:17:12.000Z</time>
      </trkpt>
      <trkpt lat="45.86699" lon="4.81035">
        <ele>397.46393</ele>
        <time>2023-09-02T14:17:51.000Z</time>
      </trkpt>
      <trkpt lat="45.86698" lon="4.81031">
        <ele>398.22559</ele>
        <time>2023-09-02T14:17:53.000Z</time>
      </trkpt>
      <trkpt lat="45.86696" lon="4.81029">
        <ele>399.21439</ele>
        <time>2023-09-02T14:17:55.000Z</time>
      </trkpt>
      <trkpt lat="45.86694" lon="4.81026">
        <ele>400.8812</ele>
        <time>2023-09-02T14:17:57.000Z</time>
      </trkpt>
      <trkpt lat="45.86694" lon="4.81023">
        <ele>402.4523</ele>
        <time>2023-09-02T14:17:58.000Z</time>
      </trkpt>
      <trkpt lat="45.86693" lon="4.81019">
        <ele>403.89795</ele>
        <time>2023-09-02T14:17:59.000Z</time>
      </trkpt>
      <trkpt lat="45.86692" lon="4.81016">
        <ele>405.48712</ele>
        <time>2023-09-02T14:18:00.000Z</time>
      </trkpt>
      <trkpt lat="45.86692" lon="4.81011">
        <ele>407.00287</ele>
        <time>2023-09-02T14:18:01.000Z</time>
      </trkpt>
      <trkpt lat="45.86691" lon="4.81008">
        <ele>408.62589</ele>
        <time>2023-09-02T14:18:02.000Z</time>
      </trkpt>
      <trkpt lat="45.8669" lon="4.81004">
        <ele>410.31256</ele>
        <time>2023-09-02T14:18:03.000Z</time>
      </trkpt>
      <trkpt lat="45.86689" lon="4.81001">
        <ele>412.04224</ele>
        <time>2023-09-02T14:18:04.000Z</time>
      </trkpt>
      <trkpt lat="45.86687" lon="4.80996">
        <ele>413.43866</ele>
        <time>2023-09-02T14:18:05.000Z</time>
      </trkpt>
      <trkpt lat="45.86686" lon="4.80991">
        <ele>414.64746</ele>
        <time>2023-09-02T14:18:06.000Z</time>
      </trkpt>
      <trkpt lat="45.86685" lon="4.80986">
        <ele>416.29428</ele>
        <time>2023-09-02T14:18:07.000Z</time>
      </trkpt>
      <trkpt lat="45.86684" lon="4.80982">
        <ele>417.73282</ele>
        <time>2023-09-02T14:18:08.000Z</time>
      </trkpt>
      <trkpt lat="45.86682" lon="4.80978">
        <ele>419.04239</ele>
        <time>2023-09-02T14:18:09.000Z</time>
      </trkpt>
      <trkpt lat="45.8668" lon="4.80974">
        <ele>419.65503</ele>
        <time>2023-09-02T14:18:10.000Z</time>
      </trkpt>
      <trkpt lat="45.86678" lon="4.8097">
        <ele>419.68658</ele>
        <time>2023-09-02T14:18:11.000Z</time>
      </trkpt>
      <trkpt lat="45.86677" lon="4.80967">
        <ele>420.55719</ele>
        <time>2023-09-02T14:18:12.000Z</time>
      </trkpt>
      <trkpt lat="45.86675" lon="4.80963">
        <ele>421.28339</ele>
        <time>2023-09-02T14:18:13.000Z</time>
      </trkpt>
      <trkpt lat="45.86674" lon="4.8096">
        <ele>422.95953</ele>
        <time>2023-09-02T14:18:14.000Z</time>
      </trkpt>
      <trkpt lat="45.86672" lon="4.80956">
        <ele>423.26718</ele>
        <time>2023-09-02T14:18:15.000Z</time>
      </trkpt>
      <trkpt lat="45.8667" lon="4.80953">
        <ele>423.3609</ele>
        <time>2023-09-02T14:18:16.000Z</time>
      </trkpt>
      <trkpt lat="45.86668" lon="4.8095">
        <ele>422.70441</ele>
        <time>2023-09-02T14:18:17.000Z</time>
      </trkpt>
      <trkpt lat="45.86666" lon="4.80947">
        <ele>422.3208</ele>
        <time>2023-09-02T14:18:18.000Z</time>
      </trkpt>
      <trkpt lat="45.86664" lon="4.80945">
        <ele>422.15283</ele>
        <time>2023-09-02T14:18:19.000Z</time>
      </trkpt>
      <trkpt lat="45.86662" lon="4.80943">
        <ele>421.91376</ele>
        <time>2023-09-02T14:18:20.000Z</time>
      </trkpt>
      <trkpt lat="45.8666" lon="4.80941">
        <ele>421.65543</ele>
        <time>2023-09-02T14:18:21.000Z</time>
      </trkpt>
      <trkpt lat="45.86657" lon="4.8094">
        <ele>421.30875</ele>
        <time>2023-09-02T14:18:22.000Z</time>
      </trkpt>
      <trkpt lat="45.86654" lon="4.80938">
        <ele>421.23456</ele>
        <time>2023-09-02T14:18:23.000Z</time>
      </trkpt>
      <trkpt lat="45.86652" lon="4.80937">
        <ele>421.19476</ele>
        <time>2023-09-02T14:18:24.000Z</time>
      </trkpt>
      <trkpt lat="45.86649" lon="4.80935">
        <ele>421.45483</ele>
        <time>2023-09-02T14:18:25.000Z</time>
      </trkpt>
      <trkpt lat="45.86647" lon="4.80935">
        <ele>421.55234</ele>
        <time>2023-09-02T14:18:26.000Z</time>
      </trkpt>
      <trkpt lat="45.86644" lon="4.80934">
        <ele>422.00064</ele>
        <time>2023-09-02T14:18:27.000Z</time>
      </trkpt>
      <trkpt lat="45.86641" lon="4.80934">
        <ele>422.39752</ele>
        <time>2023-09-02T14:18:28.000Z</time>
      </trkpt>
      <trkpt lat="45.86638" lon="4.80934">
        <ele>422.91422</ele>
        <time>2023-09-02T14:18:29.000Z</time>
      </trkpt>
      <trkpt lat="45.86635" lon="4.80934">
        <ele>423.89639</ele>
        <time>2023-09-02T14:18:30.000Z</time>
      </trkpt>
      <trkpt lat="45.86632" lon="4.80934">
        <ele>423.66324</ele>
        <time>2023-09-02T14:18:31.000Z</time>
      </trkpt>
      <trkpt lat="45.8663" lon="4.80935">
        <ele>423.32437</ele>
        <time>2023-09-02T14:18:32.000Z</time>
      </trkpt>
      <trkpt lat="45.86627" lon="4.80936">
        <ele>422.82904</ele>
        <time>2023-09-02T14:18:33.000Z</time>
      </trkpt>
      <trkpt lat="45.86624" lon="4.80936">
        <ele>421.8815</ele>
        <time>2023-09-02T14:18:34.000Z</time>
      </trkpt>
      <trkpt lat="45.8662" lon="4.80936">
        <ele>422.15472</ele>
        <time>2023-09-02T14:18:35.000Z</time>
      </trkpt>
      <trkpt lat="45.86617" lon="4.80936">
        <ele>422.36615</ele>
        <time>2023-09-02T14:18:36.000Z</time>
      </trkpt>
      <trkpt lat="45.86614" lon="4.80936">
        <ele>423.79218</ele>
        <time>2023-09-02T14:18:37.000Z</time>
      </trkpt>
      <trkpt lat="45.86612" lon="4.80937">
        <ele>423.82367</ele>
        <time>2023-09-02T14:18:38.000Z</time>
      </trkpt>
      <trkpt lat="45.86609" lon="4.80938">
        <ele>423.93695</ele>
        <time>2023-09-02T14:18:39.000Z</time>
      </trkpt>
      <trkpt lat="45.86607" lon="4.80939">
        <ele>424.8707</ele>
        <time>2023-09-02T14:18:40.000Z</time>
      </trkpt>
      <trkpt lat="45.86605" lon="4.8094">
        <ele>425.93839</ele>
        <time>2023-09-02T14:18:41.000Z</time>
      </trkpt>
      <trkpt lat="45.86602" lon="4.80941">
        <ele>427.07089</ele>
        <time>2023-09-02T14:18:42.000Z</time>
      </trkpt>
      <trkpt lat="45.86599" lon="4.80941">
        <ele>428.13974</ele>
        <time>2023-09-02T14:18:43.000Z</time>
      </trkpt>
      <trkpt lat="45.86597" lon="4.80941">
        <ele>429.14706</ele>
        <time>2023-09-02T14:18:44.000Z</time>
      </trkpt>
      <trkpt lat="45.86594" lon="4.80942">
        <ele>429.80145</ele>
        <time>2023-09-02T14:18:45.000Z</time>
      </trkpt>
      <trkpt lat="45.86591" lon="4.80943">
        <ele>430.56265</ele>
        <time>2023-09-02T14:18:46.000Z</time>
      </trkpt>
      <trkpt lat="45.86589" lon="4.80943">
        <ele>430.25845</ele>
        <time>2023-09-02T14:18:47.000Z</time>
      </trkpt>
      <trkpt lat="45.86586" lon="4.80944">
        <ele>430.63306</ele>
        <time>2023-09-02T14:18:49.000Z</time>
      </trkpt>
      <trkpt lat="45.86585" lon="4.80943">
        <ele>431.27237</ele>
        <time>2023-09-02T14:18:55.000Z</time>
      </trkpt>
      <trkpt lat="45.86581" lon="4.80943">
        <ele>430.37372</ele>
        <time>2023-09-02T14:19:00.000Z</time>
      </trkpt>
      <trkpt lat="45.86578" lon="4.80943">
        <ele>431.03271</ele>
        <time>2023-09-02T14:19:02.000Z</time>
      </trkpt>
      <trkpt lat="45.86575" lon="4.80944">
        <ele>431.40756</ele>
        <time>2023-09-02T14:19:04.000Z</time>
      </trkpt>
      <trkpt lat="45.86572" lon="4.80944">
        <ele>431.69443</ele>
        <time>2023-09-02T14:19:05.000Z</time>
      </trkpt>
      <trkpt lat="45.8657" lon="4.80943">
        <ele>432.14502</ele>
        <time>2023-09-02T14:19:06.000Z</time>
      </trkpt>
      <trkpt lat="45.86567" lon="4.80942">
        <ele>433.30997</ele>
        <time>2023-09-02T14:19:07.000Z</time>
      </trkpt>
      <trkpt lat="45.86564" lon="4.80941">
        <ele>434.96371</ele>
        <time>2023-09-02T14:19:08.000Z</time>
      </trkpt>
      <trkpt lat="45.86562" lon="4.80941">
        <ele>435.85114</ele>
        <time>2023-09-02T14:19:09.000Z</time>
      </trkpt>
      <trkpt lat="45.86558" lon="4.8094">
        <ele>436.63501</ele>
        <time>2023-09-02T14:19:10.000Z</time>
      </trkpt>
      <trkpt lat="45.86554" lon="4.80939">
        <ele>437.24127</ele>
        <time>2023-09-02T14:19:11.000Z</time>
      </trkpt>
      <trkpt lat="45.86551" lon="4.80938">
        <ele>436.84351</ele>
        <time>2023-09-02T14:19:12.000Z</time>
      </trkpt>
      <trkpt lat="45.86546" lon="4.80936">
        <ele>436.37628</ele>
        <time>2023-09-02T14:19:13.000Z</time>
      </trkpt>
      <trkpt lat="45.86542" lon="4.80935">
        <ele>435.81171</ele>
        <time>2023-09-02T14:19:14.000Z</time>
      </trkpt>
      <trkpt lat="45.86538" lon="4.80932">
        <ele>434.74911</ele>
        <time>2023-09-02T14:19:15.000Z</time>
      </trkpt>
      <trkpt lat="45.86533" lon="4.8093">
        <ele>433.38019</ele>
        <time>2023-09-02T14:19:16.000Z</time>
      </trkpt>
      <trkpt lat="45.86529" lon="4.80927">
        <ele>432.4642</ele>
        <time>2023-09-02T14:19:17.000Z</time>
      </trkpt>
      <trkpt lat="45.86525" lon="4.80924">
        <ele>431.6983</ele>
        <time>2023-09-02T14:19:18.000Z</time>
      </trkpt>
      <trkpt lat="45.86521" lon="4.80921">
        <ele>431.03067</ele>
        <time>2023-09-02T14:19:19.000Z</time>
      </trkpt>
      <trkpt lat="45.86517" lon="4.80918">
        <ele>430.02264</ele>
        <time>2023-09-02T14:19:20.000Z</time>
      </trkpt>
      <trkpt lat="45.86514" lon="4.80914">
        <ele>428.67828</ele>
        <time>2023-09-02T14:19:21.000Z</time>
      </trkpt>
      <trkpt lat="45.8651" lon="4.8091">
        <ele>428.61337</ele>
        <time>2023-09-02T14:19:22.000Z</time>
      </trkpt>
      <trkpt lat="45.86507" lon="4.80907">
        <ele>428.664</ele>
        <time>2023-09-02T14:19:23.000Z</time>
      </trkpt>
      <trkpt lat="45.86503" lon="4.80903">
        <ele>428.87018</ele>
        <time>2023-09-02T14:19:24.000Z</time>
      </trkpt>
      <trkpt lat="45.86498" lon="4.80899">
        <ele>429.8877</ele>
        <time>2023-09-02T14:19:25.000Z</time>
      </trkpt>
      <trkpt lat="45.86494" lon="4.80894">
        <ele>431.0047</ele>
        <time>2023-09-02T14:19:26.000Z</time>
      </trkpt>
      <trkpt lat="45.86491" lon="4.80892">
        <ele>431.67612</ele>
        <time>2023-09-02T14:19:27.000Z</time>
      </trkpt>
      <trkpt lat="45.86486" lon="4.80889">
        <ele>430.90982</ele>
        <time>2023-09-02T14:19:28.000Z</time>
      </trkpt>
      <trkpt lat="45.86483" lon="4.80886">
        <ele>430.14008</ele>
        <time>2023-09-02T14:19:29.000Z</time>
      </trkpt>
      <trkpt lat="45.86478" lon="4.80883">
        <ele>430.83554</ele>
        <time>2023-09-02T14:19:30.000Z</time>
      </trkpt>
      <trkpt lat="45.86475" lon="4.80879">
        <ele>431.5629</ele>
        <time>2023-09-02T14:19:31.000Z</time>
      </trkpt>
      <trkpt lat="45.86471" lon="4.80875">
        <ele>432.39835</ele>
        <time>2023-09-02T14:19:32.000Z</time>
      </trkpt>
      <trkpt lat="45.86467" lon="4.80871">
        <ele>433.13712</ele>
        <time>2023-09-02T14:19:33.000Z</time>
      </trkpt>
      <trkpt lat="45.86463" lon="4.80867">
        <ele>433.71991</ele>
        <time>2023-09-02T14:19:34.000Z</time>
      </trkpt>
      <trkpt lat="45.8646" lon="4.80863">
        <ele>434.47455</ele>
        <time>2023-09-02T14:19:35.000Z</time>
      </trkpt>
      <trkpt lat="45.86456" lon="4.80858">
        <ele>435.35995</ele>
        <time>2023-09-02T14:19:36.000Z</time>
      </trkpt>
      <trkpt lat="45.86452" lon="4.80857">
        <ele>436.20953</ele>
        <time>2023-09-02T14:19:37.000Z</time>
      </trkpt>
      <trkpt lat="45.86447" lon="4.80855">
        <ele>436.8653</ele>
        <time>2023-09-02T14:19:38.000Z</time>
      </trkpt>
      <trkpt lat="45.86445" lon="4.80849">
        <ele>437.64532</ele>
        <time>2023-09-02T14:19:39.000Z</time>
      </trkpt>
      <trkpt lat="45.86441" lon="4.80845">
        <ele>438.25131</ele>
        <time>2023-09-02T14:19:40.000Z</time>
      </trkpt>
      <trkpt lat="45.86437" lon="4.80841">
        <ele>438.8981</ele>
        <time>2023-09-02T14:19:41.000Z</time>
      </trkpt>
      <trkpt lat="45.86434" lon="4.80838">
        <ele>438.99478</ele>
        <time>2023-09-02T14:19:42.000Z</time>
      </trkpt>
      <trkpt lat="45.86431" lon="4.80834">
        <ele>438.69913</ele>
        <time>2023-09-02T14:19:43.000Z</time>
      </trkpt>
      <trkpt lat="45.86429" lon="4.8083">
        <ele>438.52881</ele>
        <time>2023-09-02T14:19:44.000Z</time>
      </trkpt>
      <trkpt lat="45.86427" lon="4.80826">
        <ele>437.8479</ele>
        <time>2023-09-02T14:19:45.000Z</time>
      </trkpt>
      <trkpt lat="45.86424" lon="4.80822">
        <ele>437.65936</ele>
        <time>2023-09-02T14:19:46.000Z</time>
      </trkpt>
      <trkpt lat="45.86422" lon="4.80819">
        <ele>437.2417</ele>
        <time>2023-09-02T14:19:47.000Z</time>
      </trkpt>
      <trkpt lat="45.86419" lon="4.80817">
        <ele>437.54868</ele>
        <time>2023-09-02T14:19:48.000Z</time>
      </trkpt>
      <trkpt lat="45.86418" lon="4.80815">
        <ele>437.64215</ele>
        <time>2023-09-02T14:19:49.000Z</time>
      </trkpt>
      <trkpt lat="45.86417" lon="4.80813">
        <ele>437.53156</ele>
        <time>2023-09-02T14:19:50.000Z</time>
      </trkpt>
      <trkpt lat="45.86415" lon="4.80811">
        <ele>437.28329</ele>
        <time>2023-09-02T14:19:51.000Z</time>
      </trkpt>
      <trkpt lat="45.86412" lon="4.80809">
        <ele>436.97086</ele>
        <time>2023-09-02T14:19:53.000Z</time>
      </trkpt>
      <trkpt lat="45.8641" lon="4.80808">
        <ele>436.84091</ele>
        <time>2023-09-02T14:19:54.000Z</time>
      </trkpt>
      <trkpt lat="45.86409" lon="4.80806">
        <ele>437.28256</ele>
        <time>2023-09-02T14:19:55.000Z</time>
      </trkpt>
      <trkpt lat="45.86407" lon="4.80803">
        <ele>437.28876</ele>
        <time>2023-09-02T14:19:57.000Z</time>
      </trkpt>
      <trkpt lat="45.86407" lon="4.80799">
        <ele>437.76123</ele>
        <time>2023-09-02T14:19:59.000Z</time>
      </trkpt>
      <trkpt lat="45.86406" lon="4.80794">
        <ele>438.31403</ele>
        <time>2023-09-02T14:20:01.000Z</time>
      </trkpt>
      <trkpt lat="45.86405" lon="4.80791">
        <ele>438.84113</ele>
        <time>2023-09-02T14:20:02.000Z</time>
      </trkpt>
      <trkpt lat="45.86404" lon="4.80788">
        <ele>439.51865</ele>
        <time>2023-09-02T14:20:03.000Z</time>
      </trkpt>
      <trkpt lat="45.86404" lon="4.80785">
        <ele>440.92572</ele>
        <time>2023-09-02T14:20:04.000Z</time>
      </trkpt>
      <trkpt lat="45.86404" lon="4.80782">
        <ele>442.63565</ele>
        <time>2023-09-02T14:20:05.000Z</time>
      </trkpt>
      <trkpt lat="45.86403" lon="4.80776">
        <ele>443.4166</ele>
        <time>2023-09-02T14:20:07.000Z</time>
      </trkpt>
      <trkpt lat="45.86404" lon="4.80772">
        <ele>444.3938</ele>
        <time>2023-09-02T14:20:08.000Z</time>
      </trkpt>
      <trkpt lat="45.86404" lon="4.80768">
        <ele>445.16693</ele>
        <time>2023-09-02T14:20:09.000Z</time>
      </trkpt>
      <trkpt lat="45.86405" lon="4.80764">
        <ele>445.97833</ele>
        <time>2023-09-02T14:20:10.000Z</time>
      </trkpt>
      <trkpt lat="45.86406" lon="4.8076">
        <ele>446.37042</ele>
        <time>2023-09-02T14:20:11.000Z</time>
      </trkpt>
      <trkpt lat="45.86407" lon="4.80756">
        <ele>446.53937</ele>
        <time>2023-09-02T14:20:12.000Z</time>
      </trkpt>
      <trkpt lat="45.86409" lon="4.80752">
        <ele>447.57608</ele>
        <time>2023-09-02T14:20:13.000Z</time>
      </trkpt>
      <trkpt lat="45.8641" lon="4.80748">
        <ele>448.40643</ele>
        <time>2023-09-02T14:20:14.000Z</time>
      </trkpt>
      <trkpt lat="45.8641" lon="4.80744">
        <ele>449.37036</ele>
        <time>2023-09-02T14:20:15.000Z</time>
      </trkpt>
      <trkpt lat="45.86411" lon="4.8074">
        <ele>450.25772</ele>
        <time>2023-09-02T14:20:16.000Z</time>
      </trkpt>
      <trkpt lat="45.86412" lon="4.80736">
        <ele>450.99878</ele>
        <time>2023-09-02T14:20:17.000Z</time>
      </trkpt>
      <trkpt lat="45.86413" lon="4.80732">
        <ele>451.54922</ele>
        <time>2023-09-02T14:20:18.000Z</time>
      </trkpt>
      <trkpt lat="45.86414" lon="4.80728">
        <ele>451.87299</ele>
        <time>2023-09-02T14:20:19.000Z</time>
      </trkpt>
      <trkpt lat="45.86414" lon="4.80725">
        <ele>451.6123</ele>
        <time>2023-09-02T14:20:20.000Z</time>
      </trkpt>
      <trkpt lat="45.86415" lon="4.80721">
        <ele>451.39038</ele>
        <time>2023-09-02T14:20:21.000Z</time>
      </trkpt>
      <trkpt lat="45.86415" lon="4.80718">
        <ele>450.99063</ele>
        <time>2023-09-02T14:20:22.000Z</time>
      </trkpt>
      <trkpt lat="45.86416" lon="4.80714">
        <ele>450.51593</ele>
        <time>2023-09-02T14:20:23.000Z</time>
      </trkpt>
      <trkpt lat="45.86417" lon="4.80711">
        <ele>450.08893</ele>
        <time>2023-09-02T14:20:24.000Z</time>
      </trkpt>
      <trkpt lat="45.86418" lon="4.80707">
        <ele>449.48599</ele>
        <time>2023-09-02T14:20:25.000Z</time>
      </trkpt>
      <trkpt lat="45.86419" lon="4.80703">
        <ele>448.55267</ele>
        <time>2023-09-02T14:20:26.000Z</time>
      </trkpt>
      <trkpt lat="45.8642" lon="4.80699">
        <ele>448.62955</ele>
        <time>2023-09-02T14:20:27.000Z</time>
      </trkpt>
      <trkpt lat="45.86421" lon="4.80694">
        <ele>448.58807</ele>
        <time>2023-09-02T14:20:28.000Z</time>
      </trkpt>
      <trkpt lat="45.86421" lon="4.8069">
        <ele>448.74432</ele>
        <time>2023-09-02T14:20:29.000Z</time>
      </trkpt>
      <trkpt lat="45.86422" lon="4.80686">
        <ele>449.02032</ele>
        <time>2023-09-02T14:20:30.000Z</time>
      </trkpt>
      <trkpt lat="45.86423" lon="4.80677">
        <ele>448.8974</ele>
        <time>2023-09-02T14:20:31.000Z</time>
      </trkpt>
      <trkpt lat="45.86422" lon="4.80674">
        <ele>449.05917</ele>
        <time>2023-09-02T14:20:32.000Z</time>
      </trkpt>
      <trkpt lat="45.86421" lon="4.8067">
        <ele>448.32379</ele>
        <time>2023-09-02T14:20:33.000Z</time>
      </trkpt>
      <trkpt lat="45.86419" lon="4.80666">
        <ele>447.59872</ele>
        <time>2023-09-02T14:20:34.000Z</time>
      </trkpt>
      <trkpt lat="45.86419" lon="4.80662">
        <ele>446.56137</ele>
        <time>2023-09-02T14:20:35.000Z</time>
      </trkpt>
      <trkpt lat="45.86418" lon="4.80657">
        <ele>445.71011</ele>
        <time>2023-09-02T14:20:36.000Z</time>
      </trkpt>
      <trkpt lat="45.86416" lon="4.80654">
        <ele>445.03339</ele>
        <time>2023-09-02T14:20:37.000Z</time>
      </trkpt>
      <trkpt lat="45.86415" lon="4.8065">
        <ele>444.47305</ele>
        <time>2023-09-02T14:20:38.000Z</time>
      </trkpt>
      <trkpt lat="45.86414" lon="4.80645">
        <ele>443.81088</ele>
        <time>2023-09-02T14:20:39.000Z</time>
      </trkpt>
      <trkpt lat="45.86414" lon="4.80639">
        <ele>444.74991</ele>
        <time>2023-09-02T14:20:40.000Z</time>
      </trkpt>
      <trkpt lat="45.86413" lon="4.80636">
        <ele>445.40982</ele>
        <time>2023-09-02T14:20:41.000Z</time>
      </trkpt>
      <trkpt lat="45.86412" lon="4.80631">
        <ele>446.29507</ele>
        <time>2023-09-02T14:20:42.000Z</time>
      </trkpt>
      <trkpt lat="45.86411" lon="4.80627">
        <ele>446.26016</ele>
        <time>2023-09-02T14:20:43.000Z</time>
      </trkpt>
      <trkpt lat="45.8641" lon="4.80623">
        <ele>446.33066</ele>
        <time>2023-09-02T14:20:44.000Z</time>
      </trkpt>
      <trkpt lat="45.86408" lon="4.8062">
        <ele>445.93481</ele>
        <time>2023-09-02T14:20:45.000Z</time>
      </trkpt>
      <trkpt lat="45.86407" lon="4.80616">
        <ele>445.47931</ele>
        <time>2023-09-02T14:20:46.000Z</time>
      </trkpt>
      <trkpt lat="45.86406" lon="4.80612">
        <ele>445.37158</ele>
        <time>2023-09-02T14:20:47.000Z</time>
      </trkpt>
      <trkpt lat="45.86404" lon="4.80608">
        <ele>445.20059</ele>
        <time>2023-09-02T14:20:48.000Z</time>
      </trkpt>
      <trkpt lat="45.86403" lon="4.80604">
        <ele>444.86823</ele>
        <time>2023-09-02T14:20:49.000Z</time>
      </trkpt>
      <trkpt lat="45.86402" lon="4.806">
        <ele>444.33609</ele>
        <time>2023-09-02T14:20:50.000Z</time>
      </trkpt>
      <trkpt lat="45.86401" lon="4.80597">
        <ele>444.26685</ele>
        <time>2023-09-02T14:20:51.000Z</time>
      </trkpt>
      <trkpt lat="45.864" lon="4.80593">
        <ele>444.14639</ele>
        <time>2023-09-02T14:20:52.000Z</time>
      </trkpt>
      <trkpt lat="45.86399" lon="4.80589">
        <ele>444.44067</ele>
        <time>2023-09-02T14:20:53.000Z</time>
      </trkpt>
      <trkpt lat="45.86398" lon="4.80584">
        <ele>444.81866</ele>
        <time>2023-09-02T14:20:54.000Z</time>
      </trkpt>
      <trkpt lat="45.86398" lon="4.8058">
        <ele>445.71884</ele>
        <time>2023-09-02T14:20:55.000Z</time>
      </trkpt>
      <trkpt lat="45.86397" lon="4.80576">
        <ele>446.61981</ele>
        <time>2023-09-02T14:20:56.000Z</time>
      </trkpt>
      <trkpt lat="45.86396" lon="4.80572">
        <ele>447.5314</ele>
        <time>2023-09-02T14:20:57.000Z</time>
      </trkpt>
      <trkpt lat="45.86395" lon="4.80568">
        <ele>448.43839</ele>
        <time>2023-09-02T14:20:58.000Z</time>
      </trkpt>
      <trkpt lat="45.86394" lon="4.80564">
        <ele>449.70538</ele>
        <time>2023-09-02T14:20:59.000Z</time>
      </trkpt>
      <trkpt lat="45.86393" lon="4.80559">
        <ele>450.29541</ele>
        <time>2023-09-02T14:21:00.000Z</time>
      </trkpt>
      <trkpt lat="45.86391" lon="4.80555">
        <ele>451.18198</ele>
        <time>2023-09-02T14:21:01.000Z</time>
      </trkpt>
      <trkpt lat="45.8639" lon="4.8055">
        <ele>451.0563</ele>
        <time>2023-09-02T14:21:02.000Z</time>
      </trkpt>
      <trkpt lat="45.86388" lon="4.80546">
        <ele>451.99902</ele>
        <time>2023-09-02T14:21:03.000Z</time>
      </trkpt>
      <trkpt lat="45.86387" lon="4.80542">
        <ele>452.66876</ele>
        <time>2023-09-02T14:21:04.000Z</time>
      </trkpt>
      <trkpt lat="45.86386" lon="4.80538">
        <ele>453.32114</ele>
        <time>2023-09-02T14:21:05.000Z</time>
      </trkpt>
      <trkpt lat="45.86384" lon="4.80534">
        <ele>453.98642</ele>
        <time>2023-09-02T14:21:06.000Z</time>
      </trkpt>
      <trkpt lat="45.86383" lon="4.8053">
        <ele>454.51718</ele>
        <time>2023-09-02T14:21:07.000Z</time>
      </trkpt>
      <trkpt lat="45.86381" lon="4.80526">
        <ele>455.0546</ele>
        <time>2023-09-02T14:21:08.000Z</time>
      </trkpt>
      <trkpt lat="45.8638" lon="4.80522">
        <ele>455.70825</ele>
        <time>2023-09-02T14:21:09.000Z</time>
      </trkpt>
      <trkpt lat="45.86379" lon="4.80517">
        <ele>456.32916</ele>
        <time>2023-09-02T14:21:10.000Z</time>
      </trkpt>
      <trkpt lat="45.86377" lon="4.80513">
        <ele>456.81665</ele>
        <time>2023-09-02T14:21:11.000Z</time>
      </trkpt>
      <trkpt lat="45.86376" lon="4.80509">
        <ele>457.35239</ele>
        <time>2023-09-02T14:21:12.000Z</time>
      </trkpt>
      <trkpt lat="45.86374" lon="4.80505">
        <ele>457.81891</ele>
        <time>2023-09-02T14:21:13.000Z</time>
      </trkpt>
      <trkpt lat="45.86373" lon="4.805">
        <ele>458.53247</ele>
        <time>2023-09-02T14:21:14.000Z</time>
      </trkpt>
      <trkpt lat="45.86372" lon="4.80496">
        <ele>458.80185</ele>
        <time>2023-09-02T14:21:15.000Z</time>
      </trkpt>
      <trkpt lat="45.86371" lon="4.80492">
        <ele>458.95416</ele>
        <time>2023-09-02T14:21:16.000Z</time>
      </trkpt>
      <trkpt lat="45.86369" lon="4.80488">
        <ele>459.13531</ele>
        <time>2023-09-02T14:21:17.000Z</time>
      </trkpt>
      <trkpt lat="45.86368" lon="4.80484">
        <ele>459.47357</ele>
        <time>2023-09-02T14:21:18.000Z</time>
      </trkpt>
      <trkpt lat="45.86367" lon="4.8048">
        <ele>458.56061</ele>
        <time>2023-09-02T14:21:19.000Z</time>
      </trkpt>
      <trkpt lat="45.86366" lon="4.80476">
        <ele>457.95392</ele>
        <time>2023-09-02T14:21:20.000Z</time>
      </trkpt>
      <trkpt lat="45.86366" lon="4.80472">
        <ele>456.95752</ele>
        <time>2023-09-02T14:21:21.000Z</time>
      </trkpt>
      <trkpt lat="45.86365" lon="4.80468">
        <ele>456.88394</ele>
        <time>2023-09-02T14:21:22.000Z</time>
      </trkpt>
      <trkpt lat="45.86364" lon="4.80464">
        <ele>456.70502</ele>
        <time>2023-09-02T14:21:23.000Z</time>
      </trkpt>
      <trkpt lat="45.86362" lon="4.8046">
        <ele>456.4873</ele>
        <time>2023-09-02T14:21:24.000Z</time>
      </trkpt>
      <trkpt lat="45.86361" lon="4.80457">
        <ele>456.20905</ele>
        <time>2023-09-02T14:21:25.000Z</time>
      </trkpt>
      <trkpt lat="45.8636" lon="4.80453">
        <ele>455.9964</ele>
        <time>2023-09-02T14:21:26.000Z</time>
      </trkpt>
      <trkpt lat="45.86359" lon="4.80449">
        <ele>455.73346</ele>
        <time>2023-09-02T14:21:27.000Z</time>
      </trkpt>
      <trkpt lat="45.86358" lon="4.80445">
        <ele>455.5795</ele>
        <time>2023-09-02T14:21:28.000Z</time>
      </trkpt>
      <trkpt lat="45.86356" lon="4.80442">
        <ele>455.27042</ele>
        <time>2023-09-02T14:21:29.000Z</time>
      </trkpt>
      <trkpt lat="45.86354" lon="4.80439">
        <ele>454.93146</ele>
        <time>2023-09-02T14:21:30.000Z</time>
      </trkpt>
      <trkpt lat="45.86353" lon="4.80435">
        <ele>454.62988</ele>
        <time>2023-09-02T14:21:31.000Z</time>
      </trkpt>
      <trkpt lat="45.86351" lon="4.80431">
        <ele>454.32916</ele>
        <time>2023-09-02T14:21:32.000Z</time>
      </trkpt>
      <trkpt lat="45.86351" lon="4.80428">
        <ele>453.98004</ele>
        <time>2023-09-02T14:21:33.000Z</time>
      </trkpt>
      <trkpt lat="45.8635" lon="4.80424">
        <ele>453.41602</ele>
        <time>2023-09-02T14:21:34.000Z</time>
      </trkpt>
      <trkpt lat="45.86348" lon="4.8042">
        <ele>453.11508</ele>
        <time>2023-09-02T14:21:35.000Z</time>
      </trkpt>
      <trkpt lat="45.86347" lon="4.80416">
        <ele>452.95868</ele>
        <time>2023-09-02T14:21:36.000Z</time>
      </trkpt>
      <trkpt lat="45.86345" lon="4.80412">
        <ele>452.82111</ele>
        <time>2023-09-02T14:21:37.000Z</time>
      </trkpt>
      <trkpt lat="45.86344" lon="4.80407">
        <ele>452.74649</ele>
        <time>2023-09-02T14:21:38.000Z</time>
      </trkpt>
      <trkpt lat="45.86342" lon="4.80403">
        <ele>453.4877</ele>
        <time>2023-09-02T14:21:39.000Z</time>
      </trkpt>
      <trkpt lat="45.86341" lon="4.80398">
        <ele>454.04361</ele>
        <time>2023-09-02T14:21:40.000Z</time>
      </trkpt>
      <trkpt lat="45.86339" lon="4.80394">
        <ele>454.61719</ele>
        <time>2023-09-02T14:21:41.000Z</time>
      </trkpt>
      <trkpt lat="45.86338" lon="4.80389">
        <ele>455.18207</ele>
        <time>2023-09-02T14:21:42.000Z</time>
      </trkpt>
      <trkpt lat="45.86336" lon="4.80385">
        <ele>455.76764</ele>
        <time>2023-09-02T14:21:43.000Z</time>
      </trkpt>
      <trkpt lat="45.86335" lon="4.80382">
        <ele>456.59955</ele>
        <time>2023-09-02T14:21:44.000Z</time>
      </trkpt>
      <trkpt lat="45.86334" lon="4.80378">
        <ele>456.75775</ele>
        <time>2023-09-02T14:21:45.000Z</time>
      </trkpt>
      <trkpt lat="45.86333" lon="4.80373">
        <ele>457.01328</ele>
        <time>2023-09-02T14:21:46.000Z</time>
      </trkpt>
      <trkpt lat="45.86332" lon="4.80369">
        <ele>457.28043</ele>
        <time>2023-09-02T14:21:47.000Z</time>
      </trkpt>
      <trkpt lat="45.8633" lon="4.80365">
        <ele>457.51791</ele>
        <time>2023-09-02T14:21:48.000Z</time>
      </trkpt>
      <trkpt lat="45.86329" lon="4.80362">
        <ele>457.81577</ele>
        <time>2023-09-02T14:21:49.000Z</time>
      </trkpt>
      <trkpt lat="45.86328" lon="4.80358">
        <ele>458.20319</ele>
        <time>2023-09-02T14:21:50.000Z</time>
      </trkpt>
      <trkpt lat="45.86327" lon="4.80355">
        <ele>458.69565</ele>
        <time>2023-09-02T14:21:51.000Z</time>
      </trkpt>
      <trkpt lat="45.86326" lon="4.80351">
        <ele>459.2951</ele>
        <time>2023-09-02T14:21:52.000Z</time>
      </trkpt>
      <trkpt lat="45.86326" lon="4.80347">
        <ele>459.88297</ele>
        <time>2023-09-02T14:21:53.000Z</time>
      </trkpt>
      <trkpt lat="45.86325" lon="4.80343">
        <ele>460.41351</ele>
        <time>2023-09-02T14:21:54.000Z</time>
      </trkpt>
      <trkpt lat="45.86324" lon="4.80338">
        <ele>460.79608</ele>
        <time>2023-09-02T14:21:55.000Z</time>
      </trkpt>
      <trkpt lat="45.86322" lon="4.80334">
        <ele>461.34613</ele>
        <time>2023-09-02T14:21:56.000Z</time>
      </trkpt>
      <trkpt lat="45.8632" lon="4.80329">
        <ele>461.78546</ele>
        <time>2023-09-02T14:21:57.000Z</time>
      </trkpt>
      <trkpt lat="45.86318" lon="4.80325">
        <ele>461.99081</ele>
        <time>2023-09-02T14:21:58.000Z</time>
      </trkpt>
      <trkpt lat="45.86316" lon="4.80322">
        <ele>462.31631</ele>
        <time>2023-09-02T14:21:59.000Z</time>
      </trkpt>
      <trkpt lat="45.86313" lon="4.80318">
        <ele>462.66699</ele>
        <time>2023-09-02T14:22:00.000Z</time>
      </trkpt>
      <trkpt lat="45.86311" lon="4.80315">
        <ele>463.08194</ele>
        <time>2023-09-02T14:22:01.000Z</time>
      </trkpt>
      <trkpt lat="45.86309" lon="4.80312">
        <ele>463.35333</ele>
        <time>2023-09-02T14:22:02.000Z</time>
      </trkpt>
      <trkpt lat="45.86307" lon="4.80308">
        <ele>463.56134</ele>
        <time>2023-09-02T14:22:03.000Z</time>
      </trkpt>
      <trkpt lat="45.86306" lon="4.80303">
        <ele>463.56354</ele>
        <time>2023-09-02T14:22:04.000Z</time>
      </trkpt>
      <trkpt lat="45.86304" lon="4.803">
        <ele>464.29385</ele>
        <time>2023-09-02T14:22:05.000Z</time>
      </trkpt>
      <trkpt lat="45.86303" lon="4.80297">
        <ele>465.0047</ele>
        <time>2023-09-02T14:22:06.000Z</time>
      </trkpt>
      <trkpt lat="45.86302" lon="4.80294">
        <ele>466.25302</ele>
        <time>2023-09-02T14:22:07.000Z</time>
      </trkpt>
      <trkpt lat="45.863" lon="4.80291">
        <ele>467.41632</ele>
        <time>2023-09-02T14:22:08.000Z</time>
      </trkpt>
      <trkpt lat="45.86299" lon="4.80287">
        <ele>468.58389</ele>
        <time>2023-09-02T14:22:09.000Z</time>
      </trkpt>
      <trkpt lat="45.86298" lon="4.80284">
        <ele>469.66217</ele>
        <time>2023-09-02T14:22:10.000Z</time>
      </trkpt>
      <trkpt lat="45.86298" lon="4.8028">
        <ele>470.64438</ele>
        <time>2023-09-02T14:22:11.000Z</time>
      </trkpt>
      <trkpt lat="45.86297" lon="4.80277">
        <ele>471.53204</ele>
        <time>2023-09-02T14:22:12.000Z</time>
      </trkpt>
      <trkpt lat="45.86296" lon="4.80274">
        <ele>472.43036</ele>
        <time>2023-09-02T14:22:13.000Z</time>
      </trkpt>
      <trkpt lat="45.86295" lon="4.80271">
        <ele>473.41522</ele>
        <time>2023-09-02T14:22:14.000Z</time>
      </trkpt>
      <trkpt lat="45.86294" lon="4.80268">
        <ele>474.52817</ele>
        <time>2023-09-02T14:22:15.000Z</time>
      </trkpt>
      <trkpt lat="45.86293" lon="4.80265">
        <ele>475.38385</ele>
        <time>2023-09-02T14:22:16.000Z</time>
      </trkpt>
      <trkpt lat="45.86293" lon="4.80261">
        <ele>475.52924</ele>
        <time>2023-09-02T14:22:17.000Z</time>
      </trkpt>
      <trkpt lat="45.86293" lon="4.80257">
        <ele>475.84711</ele>
        <time>2023-09-02T14:22:18.000Z</time>
      </trkpt>
      <trkpt lat="45.86293" lon="4.80254">
        <ele>476.09564</ele>
        <time>2023-09-02T14:22:19.000Z</time>
      </trkpt>
      <trkpt lat="45.86293" lon="4.8025">
        <ele>476.31583</ele>
        <time>2023-09-02T14:22:20.000Z</time>
      </trkpt>
      <trkpt lat="45.86291" lon="4.80246">
        <ele>476.54996</ele>
        <time>2023-09-02T14:22:21.000Z</time>
      </trkpt>
      <trkpt lat="45.8629" lon="4.80243">
        <ele>476.77231</ele>
        <time>2023-09-02T14:22:22.000Z</time>
      </trkpt>
      <trkpt lat="45.8629" lon="4.80239">
        <ele>477.30096</ele>
        <time>2023-09-02T14:22:23.000Z</time>
      </trkpt>
      <trkpt lat="45.8629" lon="4.80235">
        <ele>477.77286</ele>
        <time>2023-09-02T14:22:24.000Z</time>
      </trkpt>
      <trkpt lat="45.86291" lon="4.8023">
        <ele>478.48065</ele>
        <time>2023-09-02T14:22:25.000Z</time>
      </trkpt>
      <trkpt lat="45.86291" lon="4.80226">
        <ele>479.08521</ele>
        <time>2023-09-02T14:22:26.000Z</time>
      </trkpt>
      <trkpt lat="45.86291" lon="4.80222">
        <ele>478.55185</ele>
        <time>2023-09-02T14:22:27.000Z</time>
      </trkpt>
      <trkpt lat="45.8629" lon="4.80218">
        <ele>478.21475</ele>
        <time>2023-09-02T14:22:28.000Z</time>
      </trkpt>
      <trkpt lat="45.86289" lon="4.80214">
        <ele>477.85986</ele>
        <time>2023-09-02T14:22:29.000Z</time>
      </trkpt>
      <trkpt lat="45.86287" lon="4.8021">
        <ele>477.45392</ele>
        <time>2023-09-02T14:22:30.000Z</time>
      </trkpt>
      <trkpt lat="45.86284" lon="4.80208">
        <ele>476.95294</ele>
        <time>2023-09-02T14:22:31.000Z</time>
      </trkpt>
      <trkpt lat="45.86281" lon="4.80205">
        <ele>476.33588</ele>
        <time>2023-09-02T14:22:32.000Z</time>
      </trkpt>
      <trkpt lat="45.86278" lon="4.80202">
        <ele>475.65527</ele>
        <time>2023-09-02T14:22:33.000Z</time>
      </trkpt>
      <trkpt lat="45.86276" lon="4.80199">
        <ele>475.03815</ele>
        <time>2023-09-02T14:22:34.000Z</time>
      </trkpt>
      <trkpt lat="45.86273" lon="4.80196">
        <ele>474.32632</ele>
        <time>2023-09-02T14:22:35.000Z</time>
      </trkpt>
      <trkpt lat="45.86271" lon="4.80193">
        <ele>473.65552</ele>
        <time>2023-09-02T14:22:36.000Z</time>
      </trkpt>
      <trkpt lat="45.8627" lon="4.8019">
        <ele>473.96973</ele>
        <time>2023-09-02T14:22:37.000Z</time>
      </trkpt>
      <trkpt lat="45.86269" lon="4.80186">
        <ele>473.64087</ele>
        <time>2023-09-02T14:22:38.000Z</time>
      </trkpt>
      <trkpt lat="45.86268" lon="4.80184">
        <ele>473.38593</ele>
        <time>2023-09-02T14:22:39.000Z</time>
      </trkpt>
      <trkpt lat="45.86267" lon="4.80181">
        <ele>473.1329</ele>
        <time>2023-09-02T14:22:40.000Z</time>
      </trkpt>
      <trkpt lat="45.86266" lon="4.80178">
        <ele>472.95856</ele>
        <time>2023-09-02T14:22:41.000Z</time>
      </trkpt>
      <trkpt lat="45.86265" lon="4.80175">
        <ele>472.91693</ele>
        <time>2023-09-02T14:22:42.000Z</time>
      </trkpt>
      <trkpt lat="45.86265" lon="4.80172">
        <ele>472.62189</ele>
        <time>2023-09-02T14:22:43.000Z</time>
      </trkpt>
      <trkpt lat="45.86264" lon="4.80169">
        <ele>472.40747</ele>
        <time>2023-09-02T14:22:44.000Z</time>
      </trkpt>
      <trkpt lat="45.86264" lon="4.80166">
        <ele>471.98477</ele>
        <time>2023-09-02T14:22:45.000Z</time>
      </trkpt>
      <trkpt lat="45.86263" lon="4.80163">
        <ele>471.69867</ele>
        <time>2023-09-02T14:22:46.000Z</time>
      </trkpt>
      <trkpt lat="45.86263" lon="4.80159">
        <ele>472.29474</ele>
        <time>2023-09-02T14:22:47.000Z</time>
      </trkpt>
      <trkpt lat="45.86262" lon="4.80156">
        <ele>472.81046</ele>
        <time>2023-09-02T14:22:48.000Z</time>
      </trkpt>
      <trkpt lat="45.86262" lon="4.80153">
        <ele>473.32281</ele>
        <time>2023-09-02T14:22:49.000Z</time>
      </trkpt>
      <trkpt lat="45.86262" lon="4.8015">
        <ele>474.05875</ele>
        <time>2023-09-02T14:22:50.000Z</time>
      </trkpt>
      <trkpt lat="45.86262" lon="4.80147">
        <ele>474.95477</ele>
        <time>2023-09-02T14:22:51.000Z</time>
      </trkpt>
      <trkpt lat="45.86261" lon="4.80144">
        <ele>475.44775</ele>
        <time>2023-09-02T14:22:52.000Z</time>
      </trkpt>
      <trkpt lat="45.8626" lon="4.80141">
        <ele>476.06561</ele>
        <time>2023-09-02T14:22:53.000Z</time>
      </trkpt>
      <trkpt lat="45.86259" lon="4.80137">
        <ele>476.45825</ele>
        <time>2023-09-02T14:22:54.000Z</time>
      </trkpt>
      <trkpt lat="45.86258" lon="4.80134">
        <ele>476.81168</ele>
        <time>2023-09-02T14:22:55.000Z</time>
      </trkpt>
      <trkpt lat="45.86257" lon="4.80131">
        <ele>477.14493</ele>
        <time>2023-09-02T14:22:56.000Z</time>
      </trkpt>
      <trkpt lat="45.86256" lon="4.80128">
        <ele>477.30756</ele>
        <time>2023-09-02T14:22:57.000Z</time>
      </trkpt>
      <trkpt lat="45.86255" lon="4.80125">
        <ele>478.0224</ele>
        <time>2023-09-02T14:22:58.000Z</time>
      </trkpt>
      <trkpt lat="45.86254" lon="4.80123">
        <ele>478.94342</ele>
        <time>2023-09-02T14:22:59.000Z</time>
      </trkpt>
      <trkpt lat="45.86254" lon="4.8012">
        <ele>479.79022</ele>
        <time>2023-09-02T14:23:00.000Z</time>
      </trkpt>
      <trkpt lat="45.86253" lon="4.80117">
        <ele>480.61832</ele>
        <time>2023-09-02T14:23:01.000Z</time>
      </trkpt>
      <trkpt lat="45.86252" lon="4.80114">
        <ele>480.92328</ele>
        <time>2023-09-02T14:23:02.000Z</time>
      </trkpt>
      <trkpt lat="45.86251" lon="4.80112">
        <ele>481.20883</ele>
        <time>2023-09-02T14:23:03.000Z</time>
      </trkpt>
      <trkpt lat="45.8625" lon="4.80109">
        <ele>481.48837</ele>
        <time>2023-09-02T14:23:04.000Z</time>
      </trkpt>
      <trkpt lat="45.86249" lon="4.80106">
        <ele>481.84604</ele>
        <time>2023-09-02T14:23:05.000Z</time>
      </trkpt>
      <trkpt lat="45.86248" lon="4.80103">
        <ele>482.13184</ele>
        <time>2023-09-02T14:23:06.000Z</time>
      </trkpt>
      <trkpt lat="45.86247" lon="4.80099">
        <ele>482.36493</ele>
        <time>2023-09-02T14:23:07.000Z</time>
      </trkpt>
      <trkpt lat="45.86246" lon="4.80096">
        <ele>482.43057</ele>
        <time>2023-09-02T14:23:08.000Z</time>
      </trkpt>
      <trkpt lat="45.86245" lon="4.80092">
        <ele>482.54071</ele>
        <time>2023-09-02T14:23:09.000Z</time>
      </trkpt>
      <trkpt lat="45.86245" lon="4.80089">
        <ele>482.61328</ele>
        <time>2023-09-02T14:23:10.000Z</time>
      </trkpt>
      <trkpt lat="45.86244" lon="4.80086">
        <ele>482.62482</ele>
        <time>2023-09-02T14:23:11.000Z</time>
      </trkpt>
      <trkpt lat="45.86243" lon="4.80083">
        <ele>483.31348</ele>
        <time>2023-09-02T14:23:12.000Z</time>
      </trkpt>
      <trkpt lat="45.86242" lon="4.8008">
        <ele>483.53986</ele>
        <time>2023-09-02T14:23:13.000Z</time>
      </trkpt>
      <trkpt lat="45.86242" lon="4.80077">
        <ele>483.86017</ele>
        <time>2023-09-02T14:23:14.000Z</time>
      </trkpt>
      <trkpt lat="45.86242" lon="4.80073">
        <ele>484.22388</ele>
        <time>2023-09-02T14:23:15.000Z</time>
      </trkpt>
      <trkpt lat="45.86241" lon="4.8007">
        <ele>484.58392</ele>
        <time>2023-09-02T14:23:16.000Z</time>
      </trkpt>
      <trkpt lat="45.86241" lon="4.80066">
        <ele>484.94272</ele>
        <time>2023-09-02T14:23:17.000Z</time>
      </trkpt>
      <trkpt lat="45.86241" lon="4.80063">
        <ele>485.25089</ele>
        <time>2023-09-02T14:23:18.000Z</time>
      </trkpt>
      <trkpt lat="45.86241" lon="4.80059">
        <ele>485.39429</ele>
        <time>2023-09-02T14:23:19.000Z</time>
      </trkpt>
      <trkpt lat="45.86242" lon="4.80055">
        <ele>485.56479</ele>
        <time>2023-09-02T14:23:20.000Z</time>
      </trkpt>
      <trkpt lat="45.86242" lon="4.80051">
        <ele>485.60712</ele>
        <time>2023-09-02T14:23:21.000Z</time>
      </trkpt>
      <trkpt lat="45.86242" lon="4.80048">
        <ele>486.08856</ele>
        <time>2023-09-02T14:23:22.000Z</time>
      </trkpt>
      <trkpt lat="45.86242" lon="4.80044">
        <ele>486.54379</ele>
        <time>2023-09-02T14:23:23.000Z</time>
      </trkpt>
      <trkpt lat="45.86242" lon="4.8004">
        <ele>486.91879</ele>
        <time>2023-09-02T14:23:24.000Z</time>
      </trkpt>
      <trkpt lat="45.86242" lon="4.80036">
        <ele>487.22845</ele>
        <time>2023-09-02T14:23:25.000Z</time>
      </trkpt>
      <trkpt lat="45.86242" lon="4.80033">
        <ele>487.52652</ele>
        <time>2023-09-02T14:23:26.000Z</time>
      </trkpt>
      <trkpt lat="45.86242" lon="4.80029">
        <ele>487.62027</ele>
        <time>2023-09-02T14:23:27.000Z</time>
      </trkpt>
      <trkpt lat="45.86242" lon="4.80026">
        <ele>487.78677</ele>
        <time>2023-09-02T14:23:28.000Z</time>
      </trkpt>
      <trkpt lat="45.86243" lon="4.80022">
        <ele>487.90561</ele>
        <time>2023-09-02T14:23:29.000Z</time>
      </trkpt>
      <trkpt lat="45.86243" lon="4.80018">
        <ele>487.90991</ele>
        <time>2023-09-02T14:23:30.000Z</time>
      </trkpt>
      <trkpt lat="45.86242" lon="4.80014">
        <ele>487.89728</ele>
        <time>2023-09-02T14:23:31.000Z</time>
      </trkpt>
      <trkpt lat="45.86242" lon="4.80012">
        <ele>487.73883</ele>
        <time>2023-09-02T14:23:32.000Z</time>
      </trkpt>
      <trkpt lat="45.8624" lon="4.80008">
        <ele>487.56171</ele>
        <time>2023-09-02T14:23:34.000Z</time>
      </trkpt>
      <trkpt lat="45.86239" lon="4.80005">
        <ele>487.35089</ele>
        <time>2023-09-02T14:23:47.000Z</time>
      </trkpt>
      <trkpt lat="45.86238" lon="4.80003">
        <ele>487.08676</ele>
        <time>2023-09-02T14:23:50.000Z</time>
      </trkpt>
      <trkpt lat="45.86235" lon="4.80003">
        <ele>486.8251</ele>
        <time>2023-09-02T14:23:55.000Z</time>
      </trkpt>
      <trkpt lat="45.86232" lon="4.80004">
        <ele>486.54437</ele>
        <time>2023-09-02T14:23:57.000Z</time>
      </trkpt>
      <trkpt lat="45.8623" lon="4.80004">
        <ele>486.23447</ele>
        <time>2023-09-02T14:23:58.000Z</time>
      </trkpt>
      <trkpt lat="45.86228" lon="4.80002">
        <ele>485.75375</ele>
        <time>2023-09-02T14:23:59.000Z</time>
      </trkpt>
      <trkpt lat="45.86226" lon="4.79998">
        <ele>485.31305</ele>
        <time>2023-09-02T14:24:00.000Z</time>
      </trkpt>
      <trkpt lat="45.86224" lon="4.79996">
        <ele>484.86465</ele>
        <time>2023-09-02T14:24:01.000Z</time>
      </trkpt>
      <trkpt lat="45.86222" lon="4.79994">
        <ele>484.42218</ele>
        <time>2023-09-02T14:24:02.000Z</time>
      </trkpt>
      <trkpt lat="45.8622" lon="4.79994">
        <ele>483.97836</ele>
        <time>2023-09-02T14:24:03.000Z</time>
      </trkpt>
      <trkpt lat="45.86218" lon="4.79994">
        <ele>483.57877</ele>
        <time>2023-09-02T14:24:04.000Z</time>
      </trkpt>
      <trkpt lat="45.86215" lon="4.79994">
        <ele>483.17783</ele>
        <time>2023-09-02T14:24:05.000Z</time>
      </trkpt>
      <trkpt lat="45.86213" lon="4.79994">
        <ele>482.78448</ele>
        <time>2023-09-02T14:24:06.000Z</time>
      </trkpt>
      <trkpt lat="45.8621" lon="4.79993">
        <ele>482.42123</ele>
        <time>2023-09-02T14:24:07.000Z</time>
      </trkpt>
      <trkpt lat="45.86208" lon="4.79992">
        <ele>482.03091</ele>
        <time>2023-09-02T14:24:08.000Z</time>
      </trkpt>
      <trkpt lat="45.86205" lon="4.79991">
        <ele>481.63315</ele>
        <time>2023-09-02T14:24:09.000Z</time>
      </trkpt>
      <trkpt lat="45.86203" lon="4.7999">
        <ele>481.28497</ele>
        <time>2023-09-02T14:24:10.000Z</time>
      </trkpt>
      <trkpt lat="45.862" lon="4.7999">
        <ele>480.91034</ele>
        <time>2023-09-02T14:24:11.000Z</time>
      </trkpt>
      <trkpt lat="45.86197" lon="4.7999">
        <ele>480.51343</ele>
        <time>2023-09-02T14:24:12.000Z</time>
      </trkpt>
      <trkpt lat="45.86195" lon="4.7999">
        <ele>480.48578</ele>
        <time>2023-09-02T14:24:13.000Z</time>
      </trkpt>
      <trkpt lat="45.86192" lon="4.79989">
        <ele>480.44254</ele>
        <time>2023-09-02T14:24:14.000Z</time>
      </trkpt>
      <trkpt lat="45.8619" lon="4.79988">
        <ele>480.4538</ele>
        <time>2023-09-02T14:24:15.000Z</time>
      </trkpt>
      <trkpt lat="45.86188" lon="4.79988">
        <ele>480.5163</ele>
        <time>2023-09-02T14:24:16.000Z</time>
      </trkpt>
      <trkpt lat="45.86185" lon="4.79987">
        <ele>480.60019</ele>
        <time>2023-09-02T14:24:17.000Z</time>
      </trkpt>
      <trkpt lat="45.86183" lon="4.79985">
        <ele>480.70575</ele>
        <time>2023-09-02T14:24:18.000Z</time>
      </trkpt>
      <trkpt lat="45.86181" lon="4.79983">
        <ele>480.81793</ele>
        <time>2023-09-02T14:24:19.000Z</time>
      </trkpt>
      <trkpt lat="45.86182" lon="4.79979">
        <ele>480.91724</ele>
        <time>2023-09-02T14:24:20.000Z</time>
      </trkpt>
      <trkpt lat="45.86184" lon="4.79976">
        <ele>481.03799</ele>
        <time>2023-09-02T14:24:21.000Z</time>
      </trkpt>
      <trkpt lat="45.86187" lon="4.79975">
        <ele>481.22989</ele>
        <time>2023-09-02T14:24:22.000Z</time>
      </trkpt>
      <trkpt lat="45.86191" lon="4.79975">
        <ele>481.41351</ele>
        <time>2023-09-02T14:24:23.000Z</time>
      </trkpt>
      <trkpt lat="45.86195" lon="4.79975">
        <ele>481.66104</ele>
        <time>2023-09-02T14:24:24.000Z</time>
      </trkpt>
      <trkpt lat="45.86198" lon="4.79975">
        <ele>481.90323</ele>
        <time>2023-09-02T14:24:25.000Z</time>
      </trkpt>
      <trkpt lat="45.86201" lon="4.79975">
        <ele>482.09015</ele>
        <time>2023-09-02T14:24:26.000Z</time>
      </trkpt>
      <trkpt lat="45.86205" lon="4.79975">
        <ele>482.28799</ele>
        <time>2023-09-02T14:24:27.000Z</time>
      </trkpt>
      <trkpt lat="45.86208" lon="4.79973">
        <ele>482.50098</ele>
        <time>2023-09-02T14:24:28.000Z</time>
      </trkpt>
      <trkpt lat="45.86211" lon="4.7997">
        <ele>482.73419</ele>
        <time>2023-09-02T14:24:29.000Z</time>
      </trkpt>
      <trkpt lat="45.86213" lon="4.79967">
        <ele>482.94125</ele>
        <time>2023-09-02T14:24:30.000Z</time>
      </trkpt>
      <trkpt lat="45.86215" lon="4.79963">
        <ele>483.15131</ele>
        <time>2023-09-02T14:24:31.000Z</time>
      </trkpt>
      <trkpt lat="45.86216" lon="4.79959">
        <ele>483.38217</ele>
        <time>2023-09-02T14:24:32.000Z</time>
      </trkpt>
      <trkpt lat="45.86217" lon="4.79955">
        <ele>483.67319</ele>
        <time>2023-09-02T14:24:33.000Z</time>
      </trkpt>
      <trkpt lat="45.86218" lon="4.7995">
        <ele>483.97495</ele>
        <time>2023-09-02T14:24:34.000Z</time>
      </trkpt>
      <trkpt lat="45.86217" lon="4.79945">
        <ele>484.25958</ele>
        <time>2023-09-02T14:24:35.000Z</time>
      </trkpt>
      <trkpt lat="45.86217" lon="4.7994">
        <ele>484.53961</ele>
        <time>2023-09-02T14:24:36.000Z</time>
      </trkpt>
      <trkpt lat="45.86217" lon="4.79936">
        <ele>484.84076</ele>
        <time>2023-09-02T14:24:37.000Z</time>
      </trkpt>
      <trkpt lat="45.86218" lon="4.79931">
        <ele>485.16577</ele>
        <time>2023-09-02T14:24:38.000Z</time>
      </trkpt>
      <trkpt lat="45.86218" lon="4.79927">
        <ele>485.48941</ele>
        <time>2023-09-02T14:24:39.000Z</time>
      </trkpt>
      <trkpt lat="45.86219" lon="4.79923">
        <ele>485.9588</ele>
        <time>2023-09-02T14:24:40.000Z</time>
      </trkpt>
      <trkpt lat="45.8622" lon="4.79919">
        <ele>486.39404</ele>
        <time>2023-09-02T14:24:41.000Z</time>
      </trkpt>
      <trkpt lat="45.86222" lon="4.79915">
        <ele>486.78043</ele>
        <time>2023-09-02T14:24:42.000Z</time>
      </trkpt>
      <trkpt lat="45.86224" lon="4.79911">
        <ele>487.16953</ele>
        <time>2023-09-02T14:24:43.000Z</time>
      </trkpt>
      <trkpt lat="45.86227" lon="4.79909">
        <ele>487.52106</ele>
        <time>2023-09-02T14:24:44.000Z</time>
      </trkpt>
      <trkpt lat="45.8623" lon="4.79907">
        <ele>487.84418</ele>
        <time>2023-09-02T14:24:45.000Z</time>
      </trkpt>
      <trkpt lat="45.86233" lon="4.79906">
        <ele>488.17657</ele>
        <time>2023-09-02T14:24:46.000Z</time>
      </trkpt>
      <trkpt lat="45.86236" lon="4.79905">
        <ele>488.48154</ele>
        <time>2023-09-02T14:24:47.000Z</time>
      </trkpt>
      <trkpt lat="45.86239" lon="4.79904">
        <ele>488.83734</ele>
        <time>2023-09-02T14:24:48.000Z</time>
      </trkpt>
      <trkpt lat="45.86242" lon="4.79903">
        <ele>489.18417</ele>
        <time>2023-09-02T14:24:49.000Z</time>
      </trkpt>
      <trkpt lat="45.86245" lon="4.79902">
        <ele>489.55548</ele>
        <time>2023-09-02T14:24:50.000Z</time>
      </trkpt>
      <trkpt lat="45.86248" lon="4.799">
        <ele>489.91107</ele>
        <time>2023-09-02T14:24:51.000Z</time>
      </trkpt>
      <trkpt lat="45.86251" lon="4.79899">
        <ele>490.21182</ele>
        <time>2023-09-02T14:24:52.000Z</time>
      </trkpt>
      <trkpt lat="45.86254" lon="4.79897">
        <ele>490.47934</ele>
        <time>2023-09-02T14:24:53.000Z</time>
      </trkpt>
      <trkpt lat="45.86257" lon="4.79895">
        <ele>490.75479</ele>
        <time>2023-09-02T14:24:54.000Z</time>
      </trkpt>
      <trkpt lat="45.8626" lon="4.79892">
        <ele>491.04068</ele>
        <time>2023-09-02T14:24:55.000Z</time>
      </trkpt>
      <trkpt lat="45.86263" lon="4.7989">
        <ele>491.29688</ele>
        <time>2023-09-02T14:24:56.000Z</time>
      </trkpt>
      <trkpt lat="45.86266" lon="4.79887">
        <ele>491.53271</ele>
        <time>2023-09-02T14:24:57.000Z</time>
      </trkpt>
      <trkpt lat="45.86268" lon="4.79885">
        <ele>491.7482</ele>
        <time>2023-09-02T14:24:58.000Z</time>
      </trkpt>
      <trkpt lat="45.86271" lon="4.79883">
        <ele>491.95523</ele>
        <time>2023-09-02T14:24:59.000Z</time>
      </trkpt>
      <trkpt lat="45.86274" lon="4.79881">
        <ele>492.04999</ele>
        <time>2023-09-02T14:25:00.000Z</time>
      </trkpt>
      <trkpt lat="45.86277" lon="4.79879">
        <ele>492.16473</ele>
        <time>2023-09-02T14:25:01.000Z</time>
      </trkpt>
      <trkpt lat="45.86279" lon="4.79877">
        <ele>492.23843</ele>
        <time>2023-09-02T14:25:02.000Z</time>
      </trkpt>
      <trkpt lat="45.86282" lon="4.79875">
        <ele>492.68033</ele>
        <time>2023-09-02T14:25:03.000Z</time>
      </trkpt>
      <trkpt lat="45.86285" lon="4.79872">
        <ele>493.11938</ele>
        <time>2023-09-02T14:25:04.000Z</time>
      </trkpt>
      <trkpt lat="45.86287" lon="4.79868">
        <ele>493.5687</ele>
        <time>2023-09-02T14:25:05.000Z</time>
      </trkpt>
      <trkpt lat="45.8629" lon="4.79865">
        <ele>493.92398</ele>
        <time>2023-09-02T14:25:06.000Z</time>
      </trkpt>
      <trkpt lat="45.86294" lon="4.79863">
        <ele>494.30518</ele>
        <time>2023-09-02T14:25:07.000Z</time>
      </trkpt>
      <trkpt lat="45.86298" lon="4.79861">
        <ele>494.63605</ele>
        <time>2023-09-02T14:25:08.000Z</time>
      </trkpt>
      <trkpt lat="45.86304" lon="4.7986">
        <ele>494.98456</ele>
        <time>2023-09-02T14:25:09.000Z</time>
      </trkpt>
      <trkpt lat="45.86308" lon="4.79859">
        <ele>495.31378</ele>
        <time>2023-09-02T14:25:10.000Z</time>
      </trkpt>
      <trkpt lat="45.86313" lon="4.79858">
        <ele>495.64819</ele>
        <time>2023-09-02T14:25:11.000Z</time>
      </trkpt>
      <trkpt lat="45.86318" lon="4.79858">
        <ele>496.05011</ele>
        <time>2023-09-02T14:25:12.000Z</time>
      </trkpt>
      <trkpt lat="45.86323" lon="4.79856">
        <ele>496.42389</ele>
        <time>2023-09-02T14:25:13.000Z</time>
      </trkpt>
      <trkpt lat="45.86328" lon="4.79856">
        <ele>496.79044</ele>
        <time>2023-09-02T14:25:14.000Z</time>
      </trkpt>
      <trkpt lat="45.86333" lon="4.79856">
        <ele>497.23349</ele>
        <time>2023-09-02T14:25:15.000Z</time>
      </trkpt>
      <trkpt lat="45.86338" lon="4.79855">
        <ele>497.61957</ele>
        <time>2023-09-02T14:25:16.000Z</time>
      </trkpt>
      <trkpt lat="45.86342" lon="4.79855">
        <ele>497.97455</ele>
        <time>2023-09-02T14:25:17.000Z</time>
      </trkpt>
      <trkpt lat="45.86346" lon="4.79856">
        <ele>498.31915</ele>
        <time>2023-09-02T14:25:18.000Z</time>
      </trkpt>
      <trkpt lat="45.86351" lon="4.79856">
        <ele>498.67255</ele>
        <time>2023-09-02T14:25:19.000Z</time>
      </trkpt>
      <trkpt lat="45.86356" lon="4.79857">
        <ele>499.05508</ele>
        <time>2023-09-02T14:25:20.000Z</time>
      </trkpt>
      <trkpt lat="45.8636" lon="4.79857">
        <ele>499.4165</ele>
        <time>2023-09-02T14:25:21.000Z</time>
      </trkpt>
      <trkpt lat="45.86365" lon="4.79858">
        <ele>499.84015</ele>
        <time>2023-09-02T14:25:22.000Z</time>
      </trkpt>
      <trkpt lat="45.8637" lon="4.79859">
        <ele>499.88849</ele>
        <time>2023-09-02T14:25:23.000Z</time>
      </trkpt>
      <trkpt lat="45.86374" lon="4.79859">
        <ele>499.93637</ele>
        <time>2023-09-02T14:25:24.000Z</time>
      </trkpt>
      <trkpt lat="45.86379" lon="4.7986">
        <ele>500.01041</ele>
        <time>2023-09-02T14:25:25.000Z</time>
      </trkpt>
      <trkpt lat="45.86385" lon="4.79862">
        <ele>500.19565</ele>
        <time>2023-09-02T14:25:26.000Z</time>
      </trkpt>
      <trkpt lat="45.86389" lon="4.79862">
        <ele>500.37091</ele>
        <time>2023-09-02T14:25:27.000Z</time>
      </trkpt>
      <trkpt lat="45.86394" lon="4.79863">
        <ele>500.6203</ele>
        <time>2023-09-02T14:25:28.000Z</time>
      </trkpt>
      <trkpt lat="45.86399" lon="4.79865">
        <ele>500.78931</ele>
        <time>2023-09-02T14:25:29.000Z</time>
      </trkpt>
      <trkpt lat="45.86402" lon="4.79865">
        <ele>500.92206</ele>
        <time>2023-09-02T14:25:30.000Z</time>
      </trkpt>
      <trkpt lat="45.86407" lon="4.79867">
        <ele>501.09311</ele>
        <time>2023-09-02T14:25:31.000Z</time>
      </trkpt>
      <trkpt lat="45.86412" lon="4.79869">
        <ele>501.2226</ele>
        <time>2023-09-02T14:25:32.000Z</time>
      </trkpt>
      <trkpt lat="45.86416" lon="4.79872">
        <ele>501.37915</ele>
        <time>2023-09-02T14:25:33.000Z</time>
      </trkpt>
      <trkpt lat="45.86421" lon="4.79874">
        <ele>501.52963</ele>
        <time>2023-09-02T14:25:34.000Z</time>
      </trkpt>
      <trkpt lat="45.86425" lon="4.79877">
        <ele>501.24942</ele>
        <time>2023-09-02T14:25:35.000Z</time>
      </trkpt>
      <trkpt lat="45.8643" lon="4.7988">
        <ele>501.04706</ele>
        <time>2023-09-02T14:25:36.000Z</time>
      </trkpt>
      <trkpt lat="45.86434" lon="4.7988">
        <ele>500.8371</ele>
        <time>2023-09-02T14:25:37.000Z</time>
      </trkpt>
      <trkpt lat="45.86439" lon="4.79882">
        <ele>500.61865</ele>
        <time>2023-09-02T14:25:38.000Z</time>
      </trkpt>
      <trkpt lat="45.86443" lon="4.79884">
        <ele>500.39508</ele>
        <time>2023-09-02T14:25:39.000Z</time>
      </trkpt>
      <trkpt lat="45.86447" lon="4.79887">
        <ele>500.14362</ele>
        <time>2023-09-02T14:25:40.000Z</time>
      </trkpt>
      <trkpt lat="45.86452" lon="4.79889">
        <ele>499.9035</ele>
        <time>2023-09-02T14:25:41.000Z</time>
      </trkpt>
      <trkpt lat="45.86456" lon="4.79891">
        <ele>499.61041</ele>
        <time>2023-09-02T14:25:42.000Z</time>
      </trkpt>
      <trkpt lat="45.86461" lon="4.79894">
        <ele>499.32022</ele>
        <time>2023-09-02T14:25:43.000Z</time>
      </trkpt>
      <trkpt lat="45.86465" lon="4.79896">
        <ele>499.02716</ele>
        <time>2023-09-02T14:25:44.000Z</time>
      </trkpt>
      <trkpt lat="45.8647" lon="4.79897">
        <ele>498.72125</ele>
        <time>2023-09-02T14:25:45.000Z</time>
      </trkpt>
      <trkpt lat="45.86475" lon="4.79898">
        <ele>498.44229</ele>
        <time>2023-09-02T14:25:46.000Z</time>
      </trkpt>
      <trkpt lat="45.86478" lon="4.79902">
        <ele>498.22095</ele>
        <time>2023-09-02T14:25:47.000Z</time>
      </trkpt>
      <trkpt lat="45.86483" lon="4.79904">
        <ele>497.92642</ele>
        <time>2023-09-02T14:25:48.000Z</time>
      </trkpt>
      <trkpt lat="45.86487" lon="4.79906">
        <ele>497.69952</ele>
        <time>2023-09-02T14:25:49.000Z</time>
      </trkpt>
      <trkpt lat="45.86491" lon="4.79907">
        <ele>497.50897</ele>
        <time>2023-09-02T14:25:50.000Z</time>
      </trkpt>
      <trkpt lat="45.86495" lon="4.79909">
        <ele>497.26117</ele>
        <time>2023-09-02T14:25:51.000Z</time>
      </trkpt>
      <trkpt lat="45.865" lon="4.7991">
        <ele>497.04523</ele>
        <time>2023-09-02T14:25:52.000Z</time>
      </trkpt>
      <trkpt lat="45.86504" lon="4.7991">
        <ele>496.80096</ele>
        <time>2023-09-02T14:25:53.000Z</time>
      </trkpt>
      <trkpt lat="45.86508" lon="4.79911">
        <ele>496.58585</ele>
        <time>2023-09-02T14:25:54.000Z</time>
      </trkpt>
      <trkpt lat="45.86512" lon="4.79912">
        <ele>496.71198</ele>
        <time>2023-09-02T14:25:55.000Z</time>
      </trkpt>
      <trkpt lat="45.86517" lon="4.79913">
        <ele>496.83212</ele>
        <time>2023-09-02T14:25:56.000Z</time>
      </trkpt>
      <trkpt lat="45.86521" lon="4.79913">
        <ele>496.97894</ele>
        <time>2023-09-02T14:25:57.000Z</time>
      </trkpt>
      <trkpt lat="45.86525" lon="4.79912">
        <ele>497.09155</ele>
        <time>2023-09-02T14:25:58.000Z</time>
      </trkpt>
      <trkpt lat="45.86528" lon="4.79913">
        <ele>497.22003</ele>
        <time>2023-09-02T14:25:59.000Z</time>
      </trkpt>
      <trkpt lat="45.86532" lon="4.79913">
        <ele>497.69019</ele>
        <time>2023-09-02T14:26:00.000Z</time>
      </trkpt>
      <trkpt lat="45.86536" lon="4.79914">
        <ele>498.17764</ele>
        <time>2023-09-02T14:26:01.000Z</time>
      </trkpt>
      <trkpt lat="45.86539" lon="4.79913">
        <ele>498.67401</ele>
        <time>2023-09-02T14:26:02.000Z</time>
      </trkpt>
      <trkpt lat="45.86542" lon="4.79911">
        <ele>499.11139</ele>
        <time>2023-09-02T14:26:03.000Z</time>
      </trkpt>
      <trkpt lat="45.86546" lon="4.7991">
        <ele>499.55267</ele>
        <time>2023-09-02T14:26:04.000Z</time>
      </trkpt>
      <trkpt lat="45.8655" lon="4.79909">
        <ele>499.96649</ele>
        <time>2023-09-02T14:26:05.000Z</time>
      </trkpt>
      <trkpt lat="45.86554" lon="4.79909">
        <ele>500.39362</ele>
        <time>2023-09-02T14:26:06.000Z</time>
      </trkpt>
      <trkpt lat="45.86557" lon="4.79909">
        <ele>500.74063</ele>
        <time>2023-09-02T14:26:07.000Z</time>
      </trkpt>
      <trkpt lat="45.86561" lon="4.79909">
        <ele>500.58365</ele>
        <time>2023-09-02T14:26:08.000Z</time>
      </trkpt>
      <trkpt lat="45.86565" lon="4.79908">
        <ele>500.37735</ele>
        <time>2023-09-02T14:26:09.000Z</time>
      </trkpt>
      <trkpt lat="45.86569" lon="4.79907">
        <ele>500.38614</ele>
        <time>2023-09-02T14:26:10.000Z</time>
      </trkpt>
      <trkpt lat="45.86573" lon="4.79905">
        <ele>500.74863</ele>
        <time>2023-09-02T14:26:11.000Z</time>
      </trkpt>
      <trkpt lat="45.86578" lon="4.79902">
        <ele>501.05063</ele>
        <time>2023-09-02T14:26:12.000Z</time>
      </trkpt>
      <trkpt lat="45.86581" lon="4.79899">
        <ele>501.34229</ele>
        <time>2023-09-02T14:26:13.000Z</time>
      </trkpt>
      <trkpt lat="45.86585" lon="4.79896">
        <ele>501.60199</ele>
        <time>2023-09-02T14:26:14.000Z</time>
      </trkpt>
      <trkpt lat="45.86589" lon="4.79893">
        <ele>501.89093</ele>
        <time>2023-09-02T14:26:15.000Z</time>
      </trkpt>
      <trkpt lat="45.86594" lon="4.79889">
        <ele>502.14301</ele>
        <time>2023-09-02T14:26:16.000Z</time>
      </trkpt>
      <trkpt lat="45.86598" lon="4.79885">
        <ele>502.35562</ele>
        <time>2023-09-02T14:26:17.000Z</time>
      </trkpt>
      <trkpt lat="45.86603" lon="4.79881">
        <ele>502.63354</ele>
        <time>2023-09-02T14:26:18.000Z</time>
      </trkpt>
      <trkpt lat="45.86609" lon="4.79875">
        <ele>502.88321</ele>
        <time>2023-09-02T14:26:19.000Z</time>
      </trkpt>
      <trkpt lat="45.86613" lon="4.79868">
        <ele>502.79559</ele>
        <time>2023-09-02T14:26:20.000Z</time>
      </trkpt>
      <trkpt lat="45.86618" lon="4.79861">
        <ele>502.72681</ele>
        <time>2023-09-02T14:26:21.000Z</time>
      </trkpt>
      <trkpt lat="45.86623" lon="4.79853">
        <ele>502.65634</ele>
        <time>2023-09-02T14:26:22.000Z</time>
      </trkpt>
      <trkpt lat="45.86626" lon="4.79842">
        <ele>502.62881</ele>
        <time>2023-09-02T14:26:23.000Z</time>
      </trkpt>
      <trkpt lat="45.86631" lon="4.79832">
        <ele>502.60376</ele>
        <time>2023-09-02T14:26:24.000Z</time>
      </trkpt>
      <trkpt lat="45.86634" lon="4.79822">
        <ele>502.53214</ele>
        <time>2023-09-02T14:26:25.000Z</time>
      </trkpt>
      <trkpt lat="45.86638" lon="4.79812">
        <ele>502.42169</ele>
        <time>2023-09-02T14:26:26.000Z</time>
      </trkpt>
      <trkpt lat="45.86642" lon="4.798">
        <ele>502.31192</ele>
        <time>2023-09-02T14:26:27.000Z</time>
      </trkpt>
      <trkpt lat="45.86646" lon="4.7979">
        <ele>502.69815</ele>
        <time>2023-09-02T14:26:28.000Z</time>
      </trkpt>
      <trkpt lat="45.86651" lon="4.7978">
        <ele>503.14493</ele>
        <time>2023-09-02T14:26:29.000Z</time>
      </trkpt>
      <trkpt lat="45.86657" lon="4.79768">
        <ele>506.41885</ele>
        <time>2023-09-02T14:26:30.000Z</time>
      </trkpt>
      <trkpt lat="45.8666" lon="4.79758">
        <ele>507.55463</ele>
        <time>2023-09-02T14:26:31.000Z</time>
      </trkpt>
      <trkpt lat="45.86666" lon="4.79747">
        <ele>507.76691</ele>
        <time>2023-09-02T14:26:32.000Z</time>
      </trkpt>
      <trkpt lat="45.86668" lon="4.79734">
        <ele>507.96719</ele>
        <time>2023-09-02T14:26:33.000Z</time>
      </trkpt>
      <trkpt lat="45.8667" lon="4.79722">
        <ele>508.19839</ele>
        <time>2023-09-02T14:26:34.000Z</time>
      </trkpt>
      <trkpt lat="45.86672" lon="4.7971">
        <ele>508.35748</ele>
        <time>2023-09-02T14:26:35.000Z</time>
      </trkpt>
      <trkpt lat="45.8667" lon="4.797">
        <ele>508.21591</ele>
        <time>2023-09-02T14:26:36.000Z</time>
      </trkpt>
      <trkpt lat="45.86671" lon="4.79692">
        <ele>508.02057</ele>
        <time>2023-09-02T14:26:37.000Z</time>
      </trkpt>
      <trkpt lat="45.8667" lon="4.79685">
        <ele>508.2583</ele>
        <time>2023-09-02T14:26:38.000Z</time>
      </trkpt>
      <trkpt lat="45.86668" lon="4.79679">
        <ele>508.51132</ele>
        <time>2023-09-02T14:26:39.000Z</time>
      </trkpt>
      <trkpt lat="45.86666" lon="4.79672">
        <ele>508.76212</ele>
        <time>2023-09-02T14:26:40.000Z</time>
      </trkpt>
      <trkpt lat="45.86665" lon="4.79667">
        <ele>508.9938</ele>
        <time>2023-09-02T14:26:41.000Z</time>
      </trkpt>
      <trkpt lat="45.86664" lon="4.7966">
        <ele>508.75885</ele>
        <time>2023-09-02T14:26:42.000Z</time>
      </trkpt>
      <trkpt lat="45.86661" lon="4.79655">
        <ele>508.53595</ele>
        <time>2023-09-02T14:26:43.000Z</time>
      </trkpt>
      <trkpt lat="45.86658" lon="4.79653">
        <ele>508.30536</ele>
        <time>2023-09-02T14:26:44.000Z</time>
      </trkpt>
      <trkpt lat="45.86657" lon="4.7965">
        <ele>508.16162</ele>
        <time>2023-09-02T14:26:45.000Z</time>
      </trkpt>
      <trkpt lat="45.86653" lon="4.79646">
        <ele>507.99747</ele>
        <time>2023-09-02T14:26:46.000Z</time>
      </trkpt>
      <trkpt lat="45.86653" lon="4.79641">
        <ele>507.86996</ele>
        <time>2023-09-02T14:26:47.000Z</time>
      </trkpt>
      <trkpt lat="45.86652" lon="4.79637">
        <ele>508.65277</ele>
        <time>2023-09-02T14:26:48.000Z</time>
      </trkpt>
      <trkpt lat="45.86651" lon="4.79632">
        <ele>509.41348</ele>
        <time>2023-09-02T14:26:49.000Z</time>
      </trkpt>
      <trkpt lat="45.86651" lon="4.79629">
        <ele>506.84833</ele>
        <time>2023-09-02T14:26:50.000Z</time>
      </trkpt>
      <trkpt lat="45.8665" lon="4.79625">
        <ele>506.1521</ele>
        <time>2023-09-02T14:26:51.000Z</time>
      </trkpt>
      <trkpt lat="45.86649" lon="4.79621">
        <ele>506.45978</ele>
        <time>2023-09-02T14:26:52.000Z</time>
      </trkpt>
      <trkpt lat="45.86647" lon="4.79618">
        <ele>506.94867</ele>
        <time>2023-09-02T14:26:53.000Z</time>
      </trkpt>
      <trkpt lat="45.86645" lon="4.79615">
        <ele>507.44278</ele>
        <time>2023-09-02T14:26:54.000Z</time>
      </trkpt>
      <trkpt lat="45.86643" lon="4.79611">
        <ele>508.06927</ele>
        <time>2023-09-02T14:26:55.000Z</time>
      </trkpt>
      <trkpt lat="45.86642" lon="4.79607">
        <ele>509.04581</ele>
        <time>2023-09-02T14:26:56.000Z</time>
      </trkpt>
      <trkpt lat="45.8664" lon="4.79603">
        <ele>510.12518</ele>
        <time>2023-09-02T14:26:57.000Z</time>
      </trkpt>
      <trkpt lat="45.86638" lon="4.79599">
        <ele>510.75214</ele>
        <time>2023-09-02T14:26:58.000Z</time>
      </trkpt>
      <trkpt lat="45.86636" lon="4.79596">
        <ele>511.32153</ele>
        <time>2023-09-02T14:26:59.000Z</time>
      </trkpt>
      <trkpt lat="45.86634" lon="4.79593">
        <ele>511.90259</ele>
        <time>2023-09-02T14:27:00.000Z</time>
      </trkpt>
      <trkpt lat="45.86632" lon="4.79589">
        <ele>512.47748</ele>
        <time>2023-09-02T14:27:01.000Z</time>
      </trkpt>
      <trkpt lat="45.8663" lon="4.79586">
        <ele>513.34283</ele>
        <time>2023-09-02T14:27:02.000Z</time>
      </trkpt>
      <trkpt lat="45.86627" lon="4.79583">
        <ele>514.27142</ele>
        <time>2023-09-02T14:27:03.000Z</time>
      </trkpt>
      <trkpt lat="45.86625" lon="4.7958">
        <ele>515.38263</ele>
        <time>2023-09-02T14:27:04.000Z</time>
      </trkpt>
      <trkpt lat="45.86623" lon="4.79577">
        <ele>516.13037</ele>
        <time>2023-09-02T14:27:05.000Z</time>
      </trkpt>
      <trkpt lat="45.8662" lon="4.79573">
        <ele>516.92664</ele>
        <time>2023-09-02T14:27:06.000Z</time>
      </trkpt>
      <trkpt lat="45.86618" lon="4.79569">
        <ele>517.77936</ele>
        <time>2023-09-02T14:27:07.000Z</time>
      </trkpt>
      <trkpt lat="45.86616" lon="4.79566">
        <ele>517.69507</ele>
        <time>2023-09-02T14:27:08.000Z</time>
      </trkpt>
      <trkpt lat="45.86615" lon="4.79563">
        <ele>517.64172</ele>
        <time>2023-09-02T14:27:09.000Z</time>
      </trkpt>
      <trkpt lat="45.86614" lon="4.79559">
        <ele>517.86292</ele>
        <time>2023-09-02T14:27:10.000Z</time>
      </trkpt>
      <trkpt lat="45.86613" lon="4.79555">
        <ele>518.06885</ele>
        <time>2023-09-02T14:27:11.000Z</time>
      </trkpt>
      <trkpt lat="45.86611" lon="4.79552">
        <ele>518.24756</ele>
        <time>2023-09-02T14:27:12.000Z</time>
      </trkpt>
      <trkpt lat="45.8661" lon="4.79548">
        <ele>518.28564</ele>
        <time>2023-09-02T14:27:13.000Z</time>
      </trkpt>
      <trkpt lat="45.86608" lon="4.79545">
        <ele>518.29803</ele>
        <time>2023-09-02T14:27:14.000Z</time>
      </trkpt>
      <trkpt lat="45.86606" lon="4.79542">
        <ele>518.23059</ele>
        <time>2023-09-02T14:27:15.000Z</time>
      </trkpt>
      <trkpt lat="45.86604" lon="4.79538">
        <ele>521.41595</ele>
        <time>2023-09-02T14:27:16.000Z</time>
      </trkpt>
      <trkpt lat="45.86602" lon="4.79535">
        <ele>521.46033</ele>
        <time>2023-09-02T14:27:17.000Z</time>
      </trkpt>
      <trkpt lat="45.866" lon="4.79531">
        <ele>521.83832</ele>
        <time>2023-09-02T14:27:18.000Z</time>
      </trkpt>
      <trkpt lat="45.86597" lon="4.79528">
        <ele>522.37439</ele>
        <time>2023-09-02T14:27:19.000Z</time>
      </trkpt>
      <trkpt lat="45.86594" lon="4.79525">
        <ele>522.48645</ele>
        <time>2023-09-02T14:27:20.000Z</time>
      </trkpt>
      <trkpt lat="45.86591" lon="4.79523">
        <ele>522.59778</ele>
        <time>2023-09-02T14:27:21.000Z</time>
      </trkpt>
      <trkpt lat="45.86589" lon="4.79521">
        <ele>522.90027</ele>
        <time>2023-09-02T14:27:22.000Z</time>
      </trkpt>
      <trkpt lat="45.86586" lon="4.79518">
        <ele>523.15131</ele>
        <time>2023-09-02T14:27:23.000Z</time>
      </trkpt>
      <trkpt lat="45.86583" lon="4.79515">
        <ele>523.23547</ele>
        <time>2023-09-02T14:27:24.000Z</time>
      </trkpt>
      <trkpt lat="45.86581" lon="4.79512">
        <ele>526.15509</ele>
        <time>2023-09-02T14:27:25.000Z</time>
      </trkpt>
      <trkpt lat="45.86579" lon="4.79509">
        <ele>526.70416</ele>
        <time>2023-09-02T14:27:26.000Z</time>
      </trkpt>
      <trkpt lat="45.86577" lon="4.79505">
        <ele>527.19299</ele>
        <time>2023-09-02T14:27:27.000Z</time>
      </trkpt>
      <trkpt lat="45.86575" lon="4.79502">
        <ele>527.73859</ele>
        <time>2023-09-02T14:27:28.000Z</time>
      </trkpt>
      <trkpt lat="45.86573" lon="4.795">
        <ele>528.28314</ele>
        <time>2023-09-02T14:27:29.000Z</time>
      </trkpt>
      <trkpt lat="45.86571" lon="4.79498">
        <ele>528.85553</ele>
        <time>2023-09-02T14:27:30.000Z</time>
      </trkpt>
      <trkpt lat="45.8657" lon="4.79495">
        <ele>531.49719</ele>
        <time>2023-09-02T14:27:31.000Z</time>
      </trkpt>
      <trkpt lat="45.86568" lon="4.79493">
        <ele>532.16858</ele>
        <time>2023-09-02T14:27:32.000Z</time>
      </trkpt>
      <trkpt lat="45.86566" lon="4.7949">
        <ele>532.86469</ele>
        <time>2023-09-02T14:27:33.000Z</time>
      </trkpt>
      <trkpt lat="45.86563" lon="4.79487">
        <ele>533.59363</ele>
        <time>2023-09-02T14:27:34.000Z</time>
      </trkpt>
      <trkpt lat="45.86561" lon="4.79484">
        <ele>534.3584</ele>
        <time>2023-09-02T14:27:35.000Z</time>
      </trkpt>
      <trkpt lat="45.86559" lon="4.79481">
        <ele>531.88727</ele>
        <time>2023-09-02T14:27:36.000Z</time>
      </trkpt>
      <trkpt lat="45.86557" lon="4.79478">
        <ele>534.65271</ele>
        <time>2023-09-02T14:27:37.000Z</time>
      </trkpt>
      <trkpt lat="45.86555" lon="4.79475">
        <ele>534.97937</ele>
        <time>2023-09-02T14:27:38.000Z</time>
      </trkpt>
      <trkpt lat="45.86553" lon="4.79474">
        <ele>535.21002</ele>
        <time>2023-09-02T14:27:39.000Z</time>
      </trkpt>
      <trkpt lat="45.8655" lon="4.79471">
        <ele>535.85181</ele>
        <time>2023-09-02T14:27:41.000Z</time>
      </trkpt>
      <trkpt lat="45.86548" lon="4.7947">
        <ele>536.52008</ele>
        <time>2023-09-02T14:27:42.000Z</time>
      </trkpt>
      <trkpt lat="45.86546" lon="4.79468">
        <ele>539.24756</ele>
        <time>2023-09-02T14:27:43.000Z</time>
      </trkpt>
      <trkpt lat="45.86543" lon="4.79466">
        <ele>540.06494</ele>
        <time>2023-09-02T14:27:44.000Z</time>
      </trkpt>
      <trkpt lat="45.8654" lon="4.79463">
        <ele>540.91064</ele>
        <time>2023-09-02T14:27:45.000Z</time>
      </trkpt>
      <trkpt lat="45.86538" lon="4.79461">
        <ele>539.30237</ele>
        <time>2023-09-02T14:27:46.000Z</time>
      </trkpt>
      <trkpt lat="45.86535" lon="4.79458">
        <ele>539.95972</ele>
        <time>2023-09-02T14:27:47.000Z</time>
      </trkpt>
      <trkpt lat="45.86533" lon="4.79456">
        <ele>540.6225</ele>
        <time>2023-09-02T14:27:48.000Z</time>
      </trkpt>
      <trkpt lat="45.8653" lon="4.79453">
        <ele>543.13928</ele>
        <time>2023-09-02T14:27:49.000Z</time>
      </trkpt>
      <trkpt lat="45.86527" lon="4.79451">
        <ele>543.90936</ele>
        <time>2023-09-02T14:27:50.000Z</time>
      </trkpt>
      <trkpt lat="45.86525" lon="4.79449">
        <ele>544.69067</ele>
        <time>2023-09-02T14:27:51.000Z</time>
      </trkpt>
      <trkpt lat="45.86522" lon="4.79447">
        <ele>543.39038</ele>
        <time>2023-09-02T14:27:52.000Z</time>
      </trkpt>
      <trkpt lat="45.8652" lon="4.79445">
        <ele>543.98505</ele>
        <time>2023-09-02T14:27:53.000Z</time>
      </trkpt>
      <trkpt lat="45.86518" lon="4.79442">
        <ele>544.57587</ele>
        <time>2023-09-02T14:27:54.000Z</time>
      </trkpt>
      <trkpt lat="45.86516" lon="4.79439">
        <ele>541.13983</ele>
        <time>2023-09-02T14:27:55.000Z</time>
      </trkpt>
      <trkpt lat="45.86513" lon="4.79435">
        <ele>541.51715</ele>
        <time>2023-09-02T14:27:56.000Z</time>
      </trkpt>
      <trkpt lat="45.86511" lon="4.79432">
        <ele>541.87512</ele>
        <time>2023-09-02T14:27:57.000Z</time>
      </trkpt>
      <trkpt lat="45.8651" lon="4.79429">
        <ele>540.13257</ele>
        <time>2023-09-02T14:27:58.000Z</time>
      </trkpt>
      <trkpt lat="45.86507" lon="4.79427">
        <ele>540.40662</ele>
        <time>2023-09-02T14:27:59.000Z</time>
      </trkpt>
      <trkpt lat="45.86505" lon="4.79424">
        <ele>540.67792</ele>
        <time>2023-09-02T14:28:00.000Z</time>
      </trkpt>
      <trkpt lat="45.86502" lon="4.79422">
        <ele>536.70056</ele>
        <time>2023-09-02T14:28:01.000Z</time>
      </trkpt>
      <trkpt lat="45.865" lon="4.7942">
        <ele>536.74298</ele>
        <time>2023-09-02T14:28:02.000Z</time>
      </trkpt>
      <trkpt lat="45.86497" lon="4.79418">
        <ele>534.72272</ele>
        <time>2023-09-02T14:28:03.000Z</time>
      </trkpt>
      <trkpt lat="45.86494" lon="4.79416">
        <ele>534.49646</ele>
        <time>2023-09-02T14:28:04.000Z</time>
      </trkpt>
      <trkpt lat="45.86491" lon="4.79414">
        <ele>534.21808</ele>
        <time>2023-09-02T14:28:05.000Z</time>
      </trkpt>
      <trkpt lat="45.86487" lon="4.79411">
        <ele>533.88342</ele>
        <time>2023-09-02T14:28:06.000Z</time>
      </trkpt>
      <trkpt lat="45.86484" lon="4.79407">
        <ele>529.57745</ele>
        <time>2023-09-02T14:28:07.000Z</time>
      </trkpt>
      <trkpt lat="45.86481" lon="4.79405">
        <ele>529.05829</ele>
        <time>2023-09-02T14:28:08.000Z</time>
      </trkpt>
      <trkpt lat="45.86478" lon="4.79402">
        <ele>526.63477</ele>
        <time>2023-09-02T14:28:09.000Z</time>
      </trkpt>
      <trkpt lat="45.86475" lon="4.79399">
        <ele>525.80951</ele>
        <time>2023-09-02T14:28:10.000Z</time>
      </trkpt>
      <trkpt lat="45.86472" lon="4.79396">
        <ele>524.90454</ele>
        <time>2023-09-02T14:28:11.000Z</time>
      </trkpt>
      <trkpt lat="45.86469" lon="4.79393">
        <ele>523.91522</ele>
        <time>2023-09-02T14:28:12.000Z</time>
      </trkpt>
      <trkpt lat="45.86468" lon="4.7939">
        <ele>526.11322</ele>
        <time>2023-09-02T14:28:13.000Z</time>
      </trkpt>
      <trkpt lat="45.86466" lon="4.79387">
        <ele>525.2196</ele>
        <time>2023-09-02T14:28:14.000Z</time>
      </trkpt>
      <trkpt lat="45.86464" lon="4.79384">
        <ele>528.27344</ele>
        <time>2023-09-02T14:28:15.000Z</time>
      </trkpt>
      <trkpt lat="45.8646" lon="4.79379">
        <ele>527.63013</ele>
        <time>2023-09-02T14:28:16.000Z</time>
      </trkpt>
      <trkpt lat="45.86456" lon="4.79374">
        <ele>526.93573</ele>
        <time>2023-09-02T14:28:17.000Z</time>
      </trkpt>
      <trkpt lat="45.86445" lon="4.79364">
        <ele>526.18878</ele>
        <time>2023-09-02T14:28:18.000Z</time>
      </trkpt>
      <trkpt lat="45.86441" lon="4.79358">
        <ele>528.59998</ele>
        <time>2023-09-02T14:28:19.000Z</time>
      </trkpt>
      <trkpt lat="45.8644" lon="4.79355">
        <ele>528.00964</ele>
        <time>2023-09-02T14:28:20.000Z</time>
      </trkpt>
      <trkpt lat="45.86438" lon="4.79352">
        <ele>531.62701</ele>
        <time>2023-09-02T14:28:21.000Z</time>
      </trkpt>
      <trkpt lat="45.86436" lon="4.79348">
        <ele>531.37335</ele>
        <time>2023-09-02T14:28:22.000Z</time>
      </trkpt>
      <trkpt lat="45.86434" lon="4.79345">
        <ele>531.10486</ele>
        <time>2023-09-02T14:28:23.000Z</time>
      </trkpt>
      <trkpt lat="45.86432" lon="4.79342">
        <ele>530.92395</ele>
        <time>2023-09-02T14:28:24.000Z</time>
      </trkpt>
      <trkpt lat="45.8643" lon="4.79337">
        <ele>526.84778</ele>
        <time>2023-09-02T14:28:25.000Z</time>
      </trkpt>
      <trkpt lat="45.86427" lon="4.79334">
        <ele>526.47931</ele>
        <time>2023-09-02T14:28:26.000Z</time>
      </trkpt>
      <trkpt lat="45.86425" lon="4.79333">
        <ele>530.14417</ele>
        <time>2023-09-02T14:28:27.000Z</time>
      </trkpt>
      <trkpt lat="45.86422" lon="4.7933">
        <ele>530.17249</ele>
        <time>2023-09-02T14:28:28.000Z</time>
      </trkpt>
      <trkpt lat="45.8642" lon="4.79327">
        <ele>530.22821</ele>
        <time>2023-09-02T14:28:29.000Z</time>
      </trkpt>
      <trkpt lat="45.86418" lon="4.79324">
        <ele>530.4079</ele>
        <time>2023-09-02T14:28:30.000Z</time>
      </trkpt>
      <trkpt lat="45.86416" lon="4.79322">
        <ele>527.45117</ele>
        <time>2023-09-02T14:28:31.000Z</time>
      </trkpt>
      <trkpt lat="45.86414" lon="4.79321">
        <ele>527.57849</ele>
        <time>2023-09-02T14:28:32.000Z</time>
      </trkpt>
      <trkpt lat="45.86411" lon="4.79318">
        <ele>524.5899</ele>
        <time>2023-09-02T14:28:33.000Z</time>
      </trkpt>
      <trkpt lat="45.86408" lon="4.79314">
        <ele>524.51373</ele>
        <time>2023-09-02T14:28:34.000Z</time>
      </trkpt>
      <trkpt lat="45.86405" lon="4.7931">
        <ele>524.47839</ele>
        <time>2023-09-02T14:28:35.000Z</time>
      </trkpt>
      <trkpt lat="45.86402" lon="4.79307">
        <ele>524.2887</ele>
        <time>2023-09-02T14:28:36.000Z</time>
      </trkpt>
      <trkpt lat="45.86399" lon="4.79303">
        <ele>521.37451</ele>
        <time>2023-09-02T14:28:37.000Z</time>
      </trkpt>
      <trkpt lat="45.86396" lon="4.79301">
        <ele>521.0965</ele>
        <time>2023-09-02T14:28:38.000Z</time>
      </trkpt>
      <trkpt lat="45.86393" lon="4.79298">
        <ele>517.73352</ele>
        <time>2023-09-02T14:28:39.000Z</time>
      </trkpt>
      <trkpt lat="45.8639" lon="4.79296">
        <ele>517.19019</ele>
        <time>2023-09-02T14:28:40.000Z</time>
      </trkpt>
      <trkpt lat="45.86388" lon="4.79294">
        <ele>516.64923</ele>
        <time>2023-09-02T14:28:41.000Z</time>
      </trkpt>
      <trkpt lat="45.86385" lon="4.79291">
        <ele>515.90033</ele>
        <time>2023-09-02T14:28:42.000Z</time>
      </trkpt>
      <trkpt lat="45.86382" lon="4.79289">
        <ele>511.86615</ele>
        <time>2023-09-02T14:28:43.000Z</time>
      </trkpt>
      <trkpt lat="45.8638" lon="4.79286">
        <ele>510.90424</ele>
        <time>2023-09-02T14:28:44.000Z</time>
      </trkpt>
      <trkpt lat="45.86377" lon="4.79283">
        <ele>513.80078</ele>
        <time>2023-09-02T14:28:45.000Z</time>
      </trkpt>
      <trkpt lat="45.86373" lon="4.79279">
        <ele>513.14844</ele>
        <time>2023-09-02T14:28:46.000Z</time>
      </trkpt>
      <trkpt lat="45.8637" lon="4.79276">
        <ele>512.48187</ele>
        <time>2023-09-02T14:28:47.000Z</time>
      </trkpt>
      <trkpt lat="45.86368" lon="4.79273">
        <ele>511.59872</ele>
        <time>2023-09-02T14:28:48.000Z</time>
      </trkpt>
      <trkpt lat="45.86365" lon="4.79269">
        <ele>507.81708</ele>
        <time>2023-09-02T14:28:49.000Z</time>
      </trkpt>
      <trkpt lat="45.86362" lon="4.79266">
        <ele>506.69653</ele>
        <time>2023-09-02T14:28:50.000Z</time>
      </trkpt>
      <trkpt lat="45.86359" lon="4.79263">
        <ele>508.6976</ele>
        <time>2023-09-02T14:28:51.000Z</time>
      </trkpt>
      <trkpt lat="45.86356" lon="4.7926">
        <ele>507.75992</ele>
        <time>2023-09-02T14:28:52.000Z</time>
      </trkpt>
      <trkpt lat="45.86353" lon="4.79256">
        <ele>506.76898</ele>
        <time>2023-09-02T14:28:53.000Z</time>
      </trkpt>
      <trkpt lat="45.8635" lon="4.79253">
        <ele>505.87793</ele>
        <time>2023-09-02T14:28:54.000Z</time>
      </trkpt>
      <trkpt lat="45.86346" lon="4.7925">
        <ele>503.00238</ele>
        <time>2023-09-02T14:28:55.000Z</time>
      </trkpt>
      <trkpt lat="45.86343" lon="4.79247">
        <ele>501.92856</ele>
        <time>2023-09-02T14:28:56.000Z</time>
      </trkpt>
      <trkpt lat="45.8634" lon="4.79245">
        <ele>503.55768</ele>
        <time>2023-09-02T14:28:57.000Z</time>
      </trkpt>
      <trkpt lat="45.86339" lon="4.79242">
        <ele>502.66684</ele>
        <time>2023-09-02T14:28:58.000Z</time>
      </trkpt>
      <trkpt lat="45.86337" lon="4.79239">
        <ele>501.74536</ele>
        <time>2023-09-02T14:28:59.000Z</time>
      </trkpt>
      <trkpt lat="45.86335" lon="4.79236">
        <ele>500.94595</ele>
        <time>2023-09-02T14:29:00.000Z</time>
      </trkpt>
      <trkpt lat="45.86332" lon="4.79231">
        <ele>497.7558</ele>
        <time>2023-09-02T14:29:01.000Z</time>
      </trkpt>
      <trkpt lat="45.86329" lon="4.79226">
        <ele>496.81113</ele>
        <time>2023-09-02T14:29:02.000Z</time>
      </trkpt>
      <trkpt lat="45.86326" lon="4.79222">
        <ele>499.11725</ele>
        <time>2023-09-02T14:29:03.000Z</time>
      </trkpt>
      <trkpt lat="45.86324" lon="4.79218">
        <ele>498.4798</ele>
        <time>2023-09-02T14:29:04.000Z</time>
      </trkpt>
      <trkpt lat="45.86321" lon="4.79214">
        <ele>497.85855</ele>
        <time>2023-09-02T14:29:05.000Z</time>
      </trkpt>
      <trkpt lat="45.86318" lon="4.79211">
        <ele>497.06143</ele>
        <time>2023-09-02T14:29:06.000Z</time>
      </trkpt>
      <trkpt lat="45.86316" lon="4.79207">
        <ele>500.90781</ele>
        <time>2023-09-02T14:29:07.000Z</time>
      </trkpt>
      <trkpt lat="45.86314" lon="4.79204">
        <ele>500.32916</ele>
        <time>2023-09-02T14:29:08.000Z</time>
      </trkpt>
      <trkpt lat="45.86311" lon="4.79201">
        <ele>502.61859</ele>
        <time>2023-09-02T14:29:09.000Z</time>
      </trkpt>
      <trkpt lat="45.86308" lon="4.79198">
        <ele>502.35864</ele>
        <time>2023-09-02T14:29:10.000Z</time>
      </trkpt>
      <trkpt lat="45.86305" lon="4.79195">
        <ele>502.14175</ele>
        <time>2023-09-02T14:29:11.000Z</time>
      </trkpt>
      <trkpt lat="45.86302" lon="4.79193">
        <ele>501.81396</ele>
        <time>2023-09-02T14:29:12.000Z</time>
      </trkpt>
      <trkpt lat="45.86299" lon="4.79191">
        <ele>505.9184</ele>
        <time>2023-09-02T14:29:13.000Z</time>
      </trkpt>
      <trkpt lat="45.86296" lon="4.79189">
        <ele>505.87589</ele>
        <time>2023-09-02T14:29:14.000Z</time>
      </trkpt>
      <trkpt lat="45.86294" lon="4.79186">
        <ele>507.81952</ele>
        <time>2023-09-02T14:29:15.000Z</time>
      </trkpt>
      <trkpt lat="45.86291" lon="4.79184">
        <ele>508.06039</ele>
        <time>2023-09-02T14:29:16.000Z</time>
      </trkpt>
      <trkpt lat="45.86288" lon="4.79182">
        <ele>508.367</ele>
        <time>2023-09-02T14:29:17.000Z</time>
      </trkpt>
      <trkpt lat="45.86285" lon="4.79179">
        <ele>508.60748</ele>
        <time>2023-09-02T14:29:18.000Z</time>
      </trkpt>
      <trkpt lat="45.86282" lon="4.79176">
        <ele>512.96271</ele>
        <time>2023-09-02T14:29:19.000Z</time>
      </trkpt>
      <trkpt lat="45.86279" lon="4.79173">
        <ele>513.52356</ele>
        <time>2023-09-02T14:29:20.000Z</time>
      </trkpt>
      <trkpt lat="45.86276" lon="4.7917">
        <ele>516.5304</ele>
        <time>2023-09-02T14:29:21.000Z</time>
      </trkpt>
      <trkpt lat="45.86274" lon="4.79167">
        <ele>517.46912</ele>
        <time>2023-09-02T14:29:22.000Z</time>
      </trkpt>
      <trkpt lat="45.86271" lon="4.79163">
        <ele>518.50195</ele>
        <time>2023-09-02T14:29:23.000Z</time>
      </trkpt>
      <trkpt lat="45.86269" lon="4.79159">
        <ele>519.47119</ele>
        <time>2023-09-02T14:29:24.000Z</time>
      </trkpt>
      <trkpt lat="45.86267" lon="4.79155">
        <ele>523.9895</ele>
        <time>2023-09-02T14:29:25.000Z</time>
      </trkpt>
      <trkpt lat="45.86265" lon="4.79152">
        <ele>525.29602</ele>
        <time>2023-09-02T14:29:26.000Z</time>
      </trkpt>
      <trkpt lat="45.86262" lon="4.79149">
        <ele>522.05701</ele>
        <time>2023-09-02T14:29:27.000Z</time>
      </trkpt>
      <trkpt lat="45.8626" lon="4.79146">
        <ele>523.11438</ele>
        <time>2023-09-02T14:29:28.000Z</time>
      </trkpt>
      <trkpt lat="45.86258" lon="4.79143">
        <ele>524.25366</ele>
        <time>2023-09-02T14:29:29.000Z</time>
      </trkpt>
      <trkpt lat="45.86256" lon="4.7914">
        <ele>525.33545</ele>
        <time>2023-09-02T14:29:30.000Z</time>
      </trkpt>
      <trkpt lat="45.86255" lon="4.79138">
        <ele>523.526</ele>
        <time>2023-09-02T14:29:31.000Z</time>
      </trkpt>
      <trkpt lat="45.86253" lon="4.79136">
        <ele>524.59528</ele>
        <time>2023-09-02T14:29:32.000Z</time>
      </trkpt>
      <trkpt lat="45.86251" lon="4.79134">
        <ele>521.33264</ele>
        <time>2023-09-02T14:29:34.000Z</time>
      </trkpt>
      <trkpt lat="45.8625" lon="4.79132">
        <ele>519.41455</ele>
        <time>2023-09-02T14:29:44.000Z</time>
      </trkpt>
      <trkpt lat="45.86249" lon="4.79129">
        <ele>517.33246</ele>
        <time>2023-09-02T14:31:00.000Z</time>
      </trkpt>
      <trkpt lat="45.86249" lon="4.79126">
        <ele>515.9267</ele>
        <time>2023-09-02T14:31:37.000Z</time>
      </trkpt>
      <trkpt lat="45.8625" lon="4.79123">
        <ele>516.32001</ele>
        <time>2023-09-02T14:31:39.000Z</time>
      </trkpt>
      <trkpt lat="45.86249" lon="4.79119">
        <ele>516.71765</ele>
        <time>2023-09-02T14:31:42.000Z</time>
      </trkpt>
      <trkpt lat="45.86247" lon="4.79117">
        <ele>510.27344</ele>
        <time>2023-09-02T14:31:44.000Z</time>
      </trkpt>
      <trkpt lat="45.86244" lon="4.79114">
        <ele>508.69293</ele>
        <time>2023-09-02T14:31:46.000Z</time>
      </trkpt>
      <trkpt lat="45.86243" lon="4.79112">
        <ele>507.07733</ele>
        <time>2023-09-02T14:31:47.000Z</time>
      </trkpt>
      <trkpt lat="45.86241" lon="4.7911">
        <ele>505.16235</ele>
        <time>2023-09-02T14:31:48.000Z</time>
      </trkpt>
      <trkpt lat="45.86238" lon="4.79107">
        <ele>503.30646</ele>
        <time>2023-09-02T14:31:50.000Z</time>
      </trkpt>
      <trkpt lat="45.86235" lon="4.79105">
        <ele>501.36249</ele>
        <time>2023-09-02T14:31:52.000Z</time>
      </trkpt>
      <trkpt lat="45.86234" lon="4.79103">
        <ele>496.98834</ele>
        <time>2023-09-02T14:31:53.000Z</time>
      </trkpt>
      <trkpt lat="45.86231" lon="4.79101">
        <ele>495.63828</ele>
        <time>2023-09-02T14:31:54.000Z</time>
      </trkpt>
      <trkpt lat="45.86229" lon="4.79099">
        <ele>494.15543</ele>
        <time>2023-09-02T14:31:55.000Z</time>
      </trkpt>
      <trkpt lat="45.86227" lon="4.79097">
        <ele>492.76035</ele>
        <time>2023-09-02T14:31:56.000Z</time>
      </trkpt>
      <trkpt lat="45.86225" lon="4.79095">
        <ele>491.24268</ele>
        <time>2023-09-02T14:31:57.000Z</time>
      </trkpt>
      <trkpt lat="45.86223" lon="4.79093">
        <ele>487.80396</ele>
        <time>2023-09-02T14:31:58.000Z</time>
      </trkpt>
      <trkpt lat="45.86216" lon="4.79085">
        <ele>487.66806</ele>
        <time>2023-09-02T14:31:59.000Z</time>
      </trkpt>
      <trkpt lat="45.86214" lon="4.79082">
        <ele>484.63193</ele>
        <time>2023-09-02T14:32:00.000Z</time>
      </trkpt>
      <trkpt lat="45.86211" lon="4.79078">
        <ele>482.63373</ele>
        <time>2023-09-02T14:32:01.000Z</time>
      </trkpt>
      <trkpt lat="45.86208" lon="4.79074">
        <ele>482.76984</ele>
        <time>2023-09-02T14:32:02.000Z</time>
      </trkpt>
      <trkpt lat="45.86204" lon="4.79069">
        <ele>482.83105</ele>
        <time>2023-09-02T14:32:03.000Z</time>
      </trkpt>
      <trkpt lat="45.862" lon="4.79067">
        <ele>482.11786</ele>
        <time>2023-09-02T14:32:04.000Z</time>
      </trkpt>
      <trkpt lat="45.86198" lon="4.79065">
        <ele>479.66885</ele>
        <time>2023-09-02T14:32:05.000Z</time>
      </trkpt>
      <trkpt lat="45.86196" lon="4.79062">
        <ele>476.7149</ele>
        <time>2023-09-02T14:32:06.000Z</time>
      </trkpt>
      <trkpt lat="45.86194" lon="4.79059">
        <ele>476.58527</ele>
        <time>2023-09-02T14:32:07.000Z</time>
      </trkpt>
      <trkpt lat="45.86191" lon="4.79056">
        <ele>475.33585</ele>
        <time>2023-09-02T14:32:08.000Z</time>
      </trkpt>
      <trkpt lat="45.86188" lon="4.79053">
        <ele>473.99707</ele>
        <time>2023-09-02T14:32:09.000Z</time>
      </trkpt>
      <trkpt lat="45.86185" lon="4.79049">
        <ele>472.77548</ele>
        <time>2023-09-02T14:32:10.000Z</time>
      </trkpt>
      <trkpt lat="45.86182" lon="4.79044">
        <ele>471.59131</ele>
        <time>2023-09-02T14:32:11.000Z</time>
      </trkpt>
      <trkpt lat="45.86179" lon="4.7904">
        <ele>470.43124</ele>
        <time>2023-09-02T14:32:12.000Z</time>
      </trkpt>
      <trkpt lat="45.86176" lon="4.79037">
        <ele>468.17017</ele>
        <time>2023-09-02T14:32:13.000Z</time>
      </trkpt>
      <trkpt lat="45.86174" lon="4.79034">
        <ele>466.15308</ele>
        <time>2023-09-02T14:32:14.000Z</time>
      </trkpt>
      <trkpt lat="45.86173" lon="4.79031">
        <ele>464.1813</ele>
        <time>2023-09-02T14:32:15.000Z</time>
      </trkpt>
      <trkpt lat="45.8617" lon="4.79024">
        <ele>462.21637</ele>
        <time>2023-09-02T14:32:16.000Z</time>
      </trkpt>
      <trkpt lat="45.86165" lon="4.7902">
        <ele>459.80045</ele>
        <time>2023-09-02T14:32:17.000Z</time>
      </trkpt>
      <trkpt lat="45.86161" lon="4.79017">
        <ele>459.24146</ele>
        <time>2023-09-02T14:32:18.000Z</time>
      </trkpt>
      <trkpt lat="45.86158" lon="4.79011">
        <ele>458.53833</ele>
        <time>2023-09-02T14:32:19.000Z</time>
      </trkpt>
      <trkpt lat="45.86156" lon="4.79008">
        <ele>457.97836</ele>
        <time>2023-09-02T14:32:20.000Z</time>
      </trkpt>
      <trkpt lat="45.86153" lon="4.79004">
        <ele>456.3963</ele>
        <time>2023-09-02T14:32:21.000Z</time>
      </trkpt>
      <trkpt lat="45.86149" lon="4.79001">
        <ele>455.51154</ele>
        <time>2023-09-02T14:32:22.000Z</time>
      </trkpt>
      <trkpt lat="45.86147" lon="4.78998">
        <ele>455.70331</ele>
        <time>2023-09-02T14:32:23.000Z</time>
      </trkpt>
      <trkpt lat="45.86145" lon="4.78994">
        <ele>455.66714</ele>
        <time>2023-09-02T14:32:24.000Z</time>
      </trkpt>
      <trkpt lat="45.86141" lon="4.78988">
        <ele>455.73193</ele>
        <time>2023-09-02T14:32:25.000Z</time>
      </trkpt>
      <trkpt lat="45.86139" lon="4.7898">
        <ele>456.17056</ele>
        <time>2023-09-02T14:32:26.000Z</time>
      </trkpt>
      <trkpt lat="45.86136" lon="4.78976">
        <ele>456.59009</ele>
        <time>2023-09-02T14:32:27.000Z</time>
      </trkpt>
      <trkpt lat="45.86135" lon="4.78973">
        <ele>456.52448</ele>
        <time>2023-09-02T14:32:28.000Z</time>
      </trkpt>
      <trkpt lat="45.86132" lon="4.78969">
        <ele>456.21329</ele>
        <time>2023-09-02T14:32:29.000Z</time>
      </trkpt>
      <trkpt lat="45.8613" lon="4.78965">
        <ele>455.86288</ele>
        <time>2023-09-02T14:32:30.000Z</time>
      </trkpt>
      <trkpt lat="45.86126" lon="4.78962">
        <ele>456.07538</ele>
        <time>2023-09-02T14:32:31.000Z</time>
      </trkpt>
      <trkpt lat="45.86123" lon="4.78956">
        <ele>456.04874</ele>
        <time>2023-09-02T14:32:32.000Z</time>
      </trkpt>
      <trkpt lat="45.86118" lon="4.7895">
        <ele>456.1416</ele>
        <time>2023-09-02T14:32:33.000Z</time>
      </trkpt>
      <trkpt lat="45.86115" lon="4.78945">
        <ele>456.13998</ele>
        <time>2023-09-02T14:32:34.000Z</time>
      </trkpt>
      <trkpt lat="45.86112" lon="4.78941">
        <ele>456.15619</ele>
        <time>2023-09-02T14:32:35.000Z</time>
      </trkpt>
      <trkpt lat="45.86108" lon="4.78937">
        <ele>456.10352</ele>
        <time>2023-09-02T14:32:36.000Z</time>
      </trkpt>
      <trkpt lat="45.86107" lon="4.78932">
        <ele>456.34906</ele>
        <time>2023-09-02T14:32:37.000Z</time>
      </trkpt>
      <trkpt lat="45.86103" lon="4.78928">
        <ele>456.40634</ele>
        <time>2023-09-02T14:32:38.000Z</time>
      </trkpt>
      <trkpt lat="45.861" lon="4.78924">
        <ele>456.19775</ele>
        <time>2023-09-02T14:32:39.000Z</time>
      </trkpt>
      <trkpt lat="45.86096" lon="4.7892">
        <ele>455.9816</ele>
        <time>2023-09-02T14:32:40.000Z</time>
      </trkpt>
      <trkpt lat="45.86091" lon="4.78916">
        <ele>455.83185</ele>
        <time>2023-09-02T14:32:41.000Z</time>
      </trkpt>
      <trkpt lat="45.86091" lon="4.78913">
        <ele>455.72568</ele>
        <time>2023-09-02T14:32:42.000Z</time>
      </trkpt>
      <trkpt lat="45.86088" lon="4.78911">
        <ele>455.90982</ele>
        <time>2023-09-02T14:32:43.000Z</time>
      </trkpt>
      <trkpt lat="45.86085" lon="4.7891">
        <ele>455.46942</ele>
        <time>2023-09-02T14:32:44.000Z</time>
      </trkpt>
      <trkpt lat="45.86082" lon="4.78908">
        <ele>454.83081</ele>
        <time>2023-09-02T14:32:45.000Z</time>
      </trkpt>
      <trkpt lat="45.8608" lon="4.78906">
        <ele>454.27167</ele>
        <time>2023-09-02T14:32:46.000Z</time>
      </trkpt>
      <trkpt lat="45.86076" lon="4.78905">
        <ele>453.65103</ele>
        <time>2023-09-02T14:32:47.000Z</time>
      </trkpt>
      <trkpt lat="45.86073" lon="4.78903">
        <ele>453.58099</ele>
        <time>2023-09-02T14:32:48.000Z</time>
      </trkpt>
      <trkpt lat="45.86069" lon="4.78901">
        <ele>460.75455</ele>
        <time>2023-09-02T14:32:49.000Z</time>
      </trkpt>
      <trkpt lat="45.86066" lon="4.78899">
        <ele>461.45273</ele>
        <time>2023-09-02T14:32:50.000Z</time>
      </trkpt>
      <trkpt lat="45.86062" lon="4.78897">
        <ele>461.47949</ele>
        <time>2023-09-02T14:32:51.000Z</time>
      </trkpt>
      <trkpt lat="45.86059" lon="4.78894">
        <ele>461.75903</ele>
        <time>2023-09-02T14:32:52.000Z</time>
      </trkpt>
      <trkpt lat="45.86055" lon="4.78893">
        <ele>461.94708</ele>
        <time>2023-09-02T14:32:53.000Z</time>
      </trkpt>
      <trkpt lat="45.86053" lon="4.78891">
        <ele>462.21371</ele>
        <time>2023-09-02T14:32:54.000Z</time>
      </trkpt>
      <trkpt lat="45.86049" lon="4.7889">
        <ele>469.20264</ele>
        <time>2023-09-02T14:32:55.000Z</time>
      </trkpt>
      <trkpt lat="45.86046" lon="4.78888">
        <ele>469.97266</ele>
        <time>2023-09-02T14:32:56.000Z</time>
      </trkpt>
      <trkpt lat="45.86042" lon="4.78885">
        <ele>471.0036</ele>
        <time>2023-09-02T14:32:57.000Z</time>
      </trkpt>
      <trkpt lat="45.86039" lon="4.78883">
        <ele>472.28156</ele>
        <time>2023-09-02T14:32:58.000Z</time>
      </trkpt>
      <trkpt lat="45.86035" lon="4.78881">
        <ele>473.6347</ele>
        <time>2023-09-02T14:32:59.000Z</time>
      </trkpt>
      <trkpt lat="45.86032" lon="4.78879">
        <ele>474.95239</ele>
        <time>2023-09-02T14:33:00.000Z</time>
      </trkpt>
      <trkpt lat="45.86029" lon="4.78878">
        <ele>482.30688</ele>
        <time>2023-09-02T14:33:01.000Z</time>
      </trkpt>
      <trkpt lat="45.86025" lon="4.78876">
        <ele>483.89923</ele>
        <time>2023-09-02T14:33:02.000Z</time>
      </trkpt>
      <trkpt lat="45.86021" lon="4.78875">
        <ele>484.44531</ele>
        <time>2023-09-02T14:33:03.000Z</time>
      </trkpt>
      <trkpt lat="45.86018" lon="4.78873">
        <ele>485.87207</ele>
        <time>2023-09-02T14:33:04.000Z</time>
      </trkpt>
      <trkpt lat="45.86014" lon="4.78871">
        <ele>487.39218</ele>
        <time>2023-09-02T14:33:05.000Z</time>
      </trkpt>
      <trkpt lat="45.86011" lon="4.78869">
        <ele>489.02026</ele>
        <time>2023-09-02T14:33:06.000Z</time>
      </trkpt>
      <trkpt lat="45.86009" lon="4.78868">
        <ele>496.16919</ele>
        <time>2023-09-02T14:33:07.000Z</time>
      </trkpt>
      <trkpt lat="45.86006" lon="4.78867">
        <ele>498.29507</ele>
        <time>2023-09-02T14:33:08.000Z</time>
      </trkpt>
      <trkpt lat="45.86002" lon="4.78865">
        <ele>493.62558</ele>
        <time>2023-09-02T14:33:09.000Z</time>
      </trkpt>
      <trkpt lat="45.85998" lon="4.78863">
        <ele>495.26913</ele>
        <time>2023-09-02T14:33:10.000Z</time>
      </trkpt>
      <trkpt lat="45.85994" lon="4.78861">
        <ele>496.95996</ele>
        <time>2023-09-02T14:33:11.000Z</time>
      </trkpt>
      <trkpt lat="45.8599" lon="4.78858">
        <ele>498.73398</ele>
        <time>2023-09-02T14:33:12.000Z</time>
      </trkpt>
      <trkpt lat="45.85986" lon="4.78855">
        <ele>505.63608</ele>
        <time>2023-09-02T14:33:13.000Z</time>
      </trkpt>
      <trkpt lat="45.85982" lon="4.78853">
        <ele>507.8205</ele>
        <time>2023-09-02T14:33:14.000Z</time>
      </trkpt>
      <trkpt lat="45.85979" lon="4.78851">
        <ele>503.39618</ele>
        <time>2023-09-02T14:33:15.000Z</time>
      </trkpt>
      <trkpt lat="45.85975" lon="4.78849">
        <ele>505.10587</ele>
        <time>2023-09-02T14:33:16.000Z</time>
      </trkpt>
      <trkpt lat="45.85971" lon="4.78847">
        <ele>506.86249</ele>
        <time>2023-09-02T14:33:17.000Z</time>
      </trkpt>
      <trkpt lat="45.85967" lon="4.78845">
        <ele>508.65543</ele>
        <time>2023-09-02T14:33:18.000Z</time>
      </trkpt>
      <trkpt lat="45.85964" lon="4.78843">
        <ele>514.63147</ele>
        <time>2023-09-02T14:33:19.000Z</time>
      </trkpt>
      <trkpt lat="45.8596" lon="4.78842">
        <ele>516.68127</ele>
        <time>2023-09-02T14:33:20.000Z</time>
      </trkpt>
      <trkpt lat="45.85956" lon="4.7884">
        <ele>512.66113</ele>
        <time>2023-09-02T14:33:21.000Z</time>
      </trkpt>
      <trkpt lat="45.85952" lon="4.78839">
        <ele>514.17883</ele>
        <time>2023-09-02T14:33:22.000Z</time>
      </trkpt>
      <trkpt lat="45.85948" lon="4.78838">
        <ele>515.69281</ele>
        <time>2023-09-02T14:33:23.000Z</time>
      </trkpt>
      <trkpt lat="45.85944" lon="4.78837">
        <ele>517.25519</ele>
        <time>2023-09-02T14:33:24.000Z</time>
      </trkpt>
      <trkpt lat="45.85941" lon="4.78835">
        <ele>522.77881</ele>
        <time>2023-09-02T14:33:25.000Z</time>
      </trkpt>
      <trkpt lat="45.85937" lon="4.78834">
        <ele>524.54816</ele>
        <time>2023-09-02T14:33:26.000Z</time>
      </trkpt>
      <trkpt lat="45.85934" lon="4.78833">
        <ele>520.91302</ele>
        <time>2023-09-02T14:33:27.000Z</time>
      </trkpt>
      <trkpt lat="45.85931" lon="4.78832">
        <ele>522.15027</ele>
        <time>2023-09-02T14:33:28.000Z</time>
      </trkpt>
      <trkpt lat="45.85929" lon="4.78832">
        <ele>523.34302</ele>
        <time>2023-09-02T14:33:29.000Z</time>
      </trkpt>
      <trkpt lat="45.85928" lon="4.78832">
        <ele>524.82886</ele>
        <time>2023-09-02T14:33:30.000Z</time>
      </trkpt>
      <trkpt lat="45.85926" lon="4.78832">
        <ele>529.69324</ele>
        <time>2023-09-02T14:33:31.000Z</time>
      </trkpt>
      <trkpt lat="45.85923" lon="4.78832">
        <ele>531.3299</ele>
        <time>2023-09-02T14:33:33.000Z</time>
      </trkpt>
      <trkpt lat="45.85922" lon="4.78831">
        <ele>530.73669</ele>
        <time>2023-09-02T14:33:54.000Z</time>
      </trkpt>
      <trkpt lat="45.8592" lon="4.78832">
        <ele>531.99176</ele>
        <time>2023-09-02T14:33:58.000Z</time>
      </trkpt>
      <trkpt lat="45.85918" lon="4.7883">
        <ele>535.93738</ele>
        <time>2023-09-02T14:34:08.000Z</time>
      </trkpt>
      <trkpt lat="45.85914" lon="4.78829">
        <ele>537.56445</ele>
        <time>2023-09-02T14:34:10.000Z</time>
      </trkpt>
      <trkpt lat="45.85911" lon="4.78829">
        <ele>539.18738</ele>
        <time>2023-09-02T14:34:12.000Z</time>
      </trkpt>
      <trkpt lat="45.85909" lon="4.78828">
        <ele>540.80365</ele>
        <time>2023-09-02T14:34:13.000Z</time>
      </trkpt>
      <trkpt lat="45.85906" lon="4.78828">
        <ele>540.68811</ele>
        <time>2023-09-02T14:34:15.000Z</time>
      </trkpt>
      <trkpt lat="45.85904" lon="4.78827">
        <ele>541.99097</ele>
        <time>2023-09-02T14:34:16.000Z</time>
      </trkpt>
      <trkpt lat="45.85901" lon="4.78827">
        <ele>543.25647</ele>
        <time>2023-09-02T14:34:18.000Z</time>
      </trkpt>
      <trkpt lat="45.85899" lon="4.78827">
        <ele>544.78625</ele>
        <time>2023-09-02T14:34:19.000Z</time>
      </trkpt>
      <trkpt lat="45.85896" lon="4.78827">
        <ele>546.31659</ele>
        <time>2023-09-02T14:34:20.000Z</time>
      </trkpt>
      <trkpt lat="45.85894" lon="4.78827">
        <ele>550.15228</ele>
        <time>2023-09-02T14:34:21.000Z</time>
      </trkpt>
      <trkpt lat="45.85892" lon="4.78827">
        <ele>547.84265</ele>
        <time>2023-09-02T14:34:22.000Z</time>
      </trkpt>
      <trkpt lat="45.85889" lon="4.78826">
        <ele>549.09583</ele>
        <time>2023-09-02T14:34:23.000Z</time>
      </trkpt>
      <trkpt lat="45.85887" lon="4.78825">
        <ele>550.32324</ele>
        <time>2023-09-02T14:34:24.000Z</time>
      </trkpt>
      <trkpt lat="45.85884" lon="4.78825">
        <ele>551.79376</ele>
        <time>2023-09-02T14:34:25.000Z</time>
      </trkpt>
      <trkpt lat="45.85881" lon="4.78824">
        <ele>553.27594</ele>
        <time>2023-09-02T14:34:26.000Z</time>
      </trkpt>
      <trkpt lat="45.85879" lon="4.78824">
        <ele>556.82159</ele>
        <time>2023-09-02T14:34:27.000Z</time>
      </trkpt>
      <trkpt lat="45.85877" lon="4.78824">
        <ele>555.03479</ele>
        <time>2023-09-02T14:34:28.000Z</time>
      </trkpt>
      <trkpt lat="45.85875" lon="4.78824">
        <ele>556.30188</ele>
        <time>2023-09-02T14:34:29.000Z</time>
      </trkpt>
      <trkpt lat="45.85873" lon="4.78823">
        <ele>554.72009</ele>
        <time>2023-09-02T14:34:30.000Z</time>
      </trkpt>
      <trkpt lat="45.8587" lon="4.78824">
        <ele>555.91931</ele>
        <time>2023-09-02T14:34:31.000Z</time>
      </trkpt>
      <trkpt lat="45.85868" lon="4.78825">
        <ele>554.37854</ele>
        <time>2023-09-02T14:34:32.000Z</time>
      </trkpt>
      <trkpt lat="45.85865" lon="4.78825">
        <ele>557.31189</ele>
        <time>2023-09-02T14:34:33.000Z</time>
      </trkpt>
      <trkpt lat="45.85862" lon="4.78826">
        <ele>558.29919</ele>
        <time>2023-09-02T14:34:34.000Z</time>
      </trkpt>
      <trkpt lat="45.8586" lon="4.78827">
        <ele>559.25476</ele>
        <time>2023-09-02T14:34:35.000Z</time>
      </trkpt>
      <trkpt lat="45.85858" lon="4.78828">
        <ele>557.74298</ele>
        <time>2023-09-02T14:34:36.000Z</time>
      </trkpt>
      <trkpt lat="45.85856" lon="4.78829">
        <ele>558.5957</ele>
        <time>2023-09-02T14:34:37.000Z</time>
      </trkpt>
      <trkpt lat="45.85854" lon="4.7883">
        <ele>561.31635</ele>
        <time>2023-09-02T14:34:39.000Z</time>
      </trkpt>
      <trkpt lat="45.85852" lon="4.78832">
        <ele>562.21936</ele>
        <time>2023-09-02T14:34:41.000Z</time>
      </trkpt>
      <trkpt lat="45.8585" lon="4.78832">
        <ele>564.69324</ele>
        <time>2023-09-02T14:34:48.000Z</time>
      </trkpt>
      <trkpt lat="45.85848" lon="4.78832">
        <ele>563.30756</ele>
        <time>2023-09-02T14:34:51.000Z</time>
      </trkpt>
      <trkpt lat="45.85846" lon="4.78832">
        <ele>563.96533</ele>
        <time>2023-09-02T14:34:52.000Z</time>
      </trkpt>
      <trkpt lat="45.85843" lon="4.78831">
        <ele>566.27094</ele>
        <time>2023-09-02T14:34:53.000Z</time>
      </trkpt>
      <trkpt lat="45.8584" lon="4.78829">
        <ele>568.54285</ele>
        <time>2023-09-02T14:34:54.000Z</time>
      </trkpt>
      <trkpt lat="45.85838" lon="4.78827">
        <ele>570.80811</ele>
        <time>2023-09-02T14:34:55.000Z</time>
      </trkpt>
      <trkpt lat="45.85837" lon="4.78824">
        <ele>572.94952</ele>
        <time>2023-09-02T14:34:56.000Z</time>
      </trkpt>
      <trkpt lat="45.85835" lon="4.78821">
        <ele>572.96075</ele>
        <time>2023-09-02T14:34:57.000Z</time>
      </trkpt>
      <trkpt lat="45.85833" lon="4.78818">
        <ele>574.87848</ele>
        <time>2023-09-02T14:34:58.000Z</time>
      </trkpt>
      <trkpt lat="45.85831" lon="4.78816">
        <ele>576.83337</ele>
        <time>2023-09-02T14:34:59.000Z</time>
      </trkpt>
      <trkpt lat="45.85829" lon="4.78814">
        <ele>578.6795</ele>
        <time>2023-09-02T14:35:00.000Z</time>
      </trkpt>
      <trkpt lat="45.85827" lon="4.78812">
        <ele>580.56628</ele>
        <time>2023-09-02T14:35:01.000Z</time>
      </trkpt>
      <trkpt lat="45.85825" lon="4.78811">
        <ele>582.33557</ele>
        <time>2023-09-02T14:35:02.000Z</time>
      </trkpt>
      <trkpt lat="45.85822" lon="4.78809">
        <ele>582.32959</ele>
        <time>2023-09-02T14:35:04.000Z</time>
      </trkpt>
      <trkpt lat="45.8582" lon="4.78807">
        <ele>583.99432</ele>
        <time>2023-09-02T14:35:06.000Z</time>
      </trkpt>
      <trkpt lat="45.85819" lon="4.78805">
        <ele>585.67938</ele>
        <time>2023-09-02T14:35:12.000Z</time>
      </trkpt>
      <trkpt lat="45.85816" lon="4.78805">
        <ele>587.26099</ele>
        <time>2023-09-02T14:35:15.000Z</time>
      </trkpt>
      <trkpt lat="45.85814" lon="4.78805">
        <ele>588.78027</ele>
        <time>2023-09-02T14:35:16.000Z</time>
      </trkpt>
      <trkpt lat="45.85811" lon="4.78805">
        <ele>588.30353</ele>
        <time>2023-09-02T14:35:17.000Z</time>
      </trkpt>
      <trkpt lat="45.85809" lon="4.78804">
        <ele>589.56793</ele>
        <time>2023-09-02T14:35:18.000Z</time>
      </trkpt>
      <trkpt lat="45.85808" lon="4.78801">
        <ele>589.19226</ele>
        <time>2023-09-02T14:35:19.000Z</time>
      </trkpt>
      <trkpt lat="45.85806" lon="4.78798">
        <ele>590.29425</ele>
        <time>2023-09-02T14:35:20.000Z</time>
      </trkpt>
      <trkpt lat="45.85804" lon="4.78796">
        <ele>591.47351</ele>
        <time>2023-09-02T14:35:21.000Z</time>
      </trkpt>
      <trkpt lat="45.85802" lon="4.78795">
        <ele>591.1178</ele>
        <time>2023-09-02T14:35:22.000Z</time>
      </trkpt>
      <trkpt lat="45.85799" lon="4.78795">
        <ele>590.7431</ele>
        <time>2023-09-02T14:35:23.000Z</time>
      </trkpt>
      <trkpt lat="45.85796" lon="4.78793">
        <ele>590.32825</ele>
        <time>2023-09-02T14:35:25.000Z</time>
      </trkpt>
      <trkpt lat="45.85794" lon="4.78793">
        <ele>589.98529</ele>
        <time>2023-09-02T14:35:26.000Z</time>
      </trkpt>
      <trkpt lat="45.85791" lon="4.78792">
        <ele>589.6571</ele>
        <time>2023-09-02T14:35:27.000Z</time>
      </trkpt>
      <trkpt lat="45.85789" lon="4.78791">
        <ele>589.28754</ele>
        <time>2023-09-02T14:35:28.000Z</time>
      </trkpt>
      <trkpt lat="45.85787" lon="4.7879">
        <ele>588.96674</ele>
        <time>2023-09-02T14:35:29.000Z</time>
      </trkpt>
      <trkpt lat="45.85784" lon="4.78789">
        <ele>588.69452</ele>
        <time>2023-09-02T14:35:30.000Z</time>
      </trkpt>
      <trkpt lat="45.85782" lon="4.78788">
        <ele>588.46204</ele>
        <time>2023-09-02T14:35:31.000Z</time>
      </trkpt>
      <trkpt lat="45.8578" lon="4.78787">
        <ele>588.31879</ele>
        <time>2023-09-02T14:35:32.000Z</time>
      </trkpt>
      <trkpt lat="45.85778" lon="4.78785">
        <ele>588.00928</ele>
        <time>2023-09-02T14:35:33.000Z</time>
      </trkpt>
      <trkpt lat="45.85777" lon="4.78783">
        <ele>587.88885</ele>
        <time>2023-09-02T14:35:34.000Z</time>
      </trkpt>
      <trkpt lat="45.85774" lon="4.78782">
        <ele>587.69073</ele>
        <time>2023-09-02T14:35:35.000Z</time>
      </trkpt>
      <trkpt lat="45.85772" lon="4.7878">
        <ele>587.57745</ele>
        <time>2023-09-02T14:35:36.000Z</time>
      </trkpt>
      <trkpt lat="45.8577" lon="4.7878">
        <ele>587.63879</ele>
        <time>2023-09-02T14:35:37.000Z</time>
      </trkpt>
      <trkpt lat="45.85768" lon="4.7878">
        <ele>587.75183</ele>
        <time>2023-09-02T14:35:38.000Z</time>
      </trkpt>
      <trkpt lat="45.85764" lon="4.7878">
        <ele>587.84607</ele>
        <time>2023-09-02T14:35:40.000Z</time>
      </trkpt>
      <trkpt lat="45.85762" lon="4.7878">
        <ele>587.94299</ele>
        <time>2023-09-02T14:35:41.000Z</time>
      </trkpt>
      <trkpt lat="45.85759" lon="4.7878">
        <ele>588.05267</ele>
        <time>2023-09-02T14:35:42.000Z</time>
      </trkpt>
      <trkpt lat="45.85757" lon="4.78779">
        <ele>588.15778</ele>
        <time>2023-09-02T14:35:43.000Z</time>
      </trkpt>
      <trkpt lat="45.85755" lon="4.78778">
        <ele>588.25378</ele>
        <time>2023-09-02T14:35:44.000Z</time>
      </trkpt>
      <trkpt lat="45.85753" lon="4.78777">
        <ele>588.37128</ele>
        <time>2023-09-02T14:35:45.000Z</time>
      </trkpt>
      <trkpt lat="45.85752" lon="4.78776">
        <ele>588.46912</ele>
        <time>2023-09-02T14:35:46.000Z</time>
      </trkpt>
      <trkpt lat="45.85751" lon="4.78774">
        <ele>588.54065</ele>
        <time>2023-09-02T14:35:47.000Z</time>
      </trkpt>
      <trkpt lat="45.85748" lon="4.7877">
        <ele>588.61395</ele>
        <time>2023-09-02T14:35:49.000Z</time>
      </trkpt>
      <trkpt lat="45.85745" lon="4.78768">
        <ele>588.72473</ele>
        <time>2023-09-02T14:35:51.000Z</time>
      </trkpt>
      <trkpt lat="45.85743" lon="4.78767">
        <ele>588.84387</ele>
        <time>2023-09-02T14:35:52.000Z</time>
      </trkpt>
      <trkpt lat="45.85742" lon="4.78766">
        <ele>588.96051</ele>
        <time>2023-09-02T14:35:53.000Z</time>
      </trkpt>
      <trkpt lat="45.85739" lon="4.78764">
        <ele>589.08331</ele>
        <time>2023-09-02T14:35:55.000Z</time>
      </trkpt>
      <trkpt lat="45.85737" lon="4.78762">
        <ele>589.16217</ele>
        <time>2023-09-02T14:35:56.000Z</time>
      </trkpt>
      <trkpt lat="45.85735" lon="4.78761">
        <ele>589.25549</ele>
        <time>2023-09-02T14:35:57.000Z</time>
      </trkpt>
      <trkpt lat="45.85733" lon="4.7876">
        <ele>589.37622</ele>
        <time>2023-09-02T14:35:58.000Z</time>
      </trkpt>
      <trkpt lat="45.85731" lon="4.78759">
        <ele>589.52606</ele>
        <time>2023-09-02T14:35:59.000Z</time>
      </trkpt>
      <trkpt lat="45.85729" lon="4.78758">
        <ele>589.65796</ele>
        <time>2023-09-02T14:36:00.000Z</time>
      </trkpt>
      <trkpt lat="45.85727" lon="4.78756">
        <ele>589.77747</ele>
        <time>2023-09-02T14:36:01.000Z</time>
      </trkpt>
      <trkpt lat="45.85725" lon="4.78754">
        <ele>589.89478</ele>
        <time>2023-09-02T14:36:02.000Z</time>
      </trkpt>
      <trkpt lat="45.85724" lon="4.78752">
        <ele>590.07367</ele>
        <time>2023-09-02T14:36:03.000Z</time>
      </trkpt>
      <trkpt lat="45.85722" lon="4.78749">
        <ele>590.21936</ele>
        <time>2023-09-02T14:36:04.000Z</time>
      </trkpt>
      <trkpt lat="45.85721" lon="4.78747">
        <ele>590.37225</ele>
        <time>2023-09-02T14:36:05.000Z</time>
      </trkpt>
      <trkpt lat="45.85719" lon="4.78745">
        <ele>590.4845</ele>
        <time>2023-09-02T14:36:06.000Z</time>
      </trkpt>
      <trkpt lat="45.85717" lon="4.78743">
        <ele>590.62457</ele>
        <time>2023-09-02T14:36:07.000Z</time>
      </trkpt>
      <trkpt lat="45.85716" lon="4.78741">
        <ele>590.69714</ele>
        <time>2023-09-02T14:36:08.000Z</time>
      </trkpt>
      <trkpt lat="45.85714" lon="4.78738">
        <ele>590.78931</ele>
        <time>2023-09-02T14:36:09.000Z</time>
      </trkpt>
      <trkpt lat="45.85713" lon="4.78736">
        <ele>590.89001</ele>
        <time>2023-09-02T14:36:10.000Z</time>
      </trkpt>
      <trkpt lat="45.85712" lon="4.78734">
        <ele>590.99359</ele>
        <time>2023-09-02T14:36:11.000Z</time>
      </trkpt>
      <trkpt lat="45.8571" lon="4.78732">
        <ele>591.06079</ele>
        <time>2023-09-02T14:36:12.000Z</time>
      </trkpt>
      <trkpt lat="45.85709" lon="4.78729">
        <ele>591.10266</ele>
        <time>2023-09-02T14:36:13.000Z</time>
      </trkpt>
      <trkpt lat="45.85708" lon="4.78726">
        <ele>591.1181</ele>
        <time>2023-09-02T14:36:14.000Z</time>
      </trkpt>
      <trkpt lat="45.85706" lon="4.78724">
        <ele>591.23157</ele>
        <time>2023-09-02T14:36:15.000Z</time>
      </trkpt>
      <trkpt lat="45.85705" lon="4.78722">
        <ele>591.37799</ele>
        <time>2023-09-02T14:36:16.000Z</time>
      </trkpt>
      <trkpt lat="45.85704" lon="4.7872">
        <ele>591.55237</ele>
        <time>2023-09-02T14:36:17.000Z</time>
      </trkpt>
      <trkpt lat="45.85702" lon="4.78717">
        <ele>591.7066</ele>
        <time>2023-09-02T14:36:18.000Z</time>
      </trkpt>
      <trkpt lat="45.85701" lon="4.78714">
        <ele>591.8252</ele>
        <time>2023-09-02T14:36:19.000Z</time>
      </trkpt>
      <trkpt lat="45.857" lon="4.78711">
        <ele>591.91052</ele>
        <time>2023-09-02T14:36:20.000Z</time>
      </trkpt>
      <trkpt lat="45.85698" lon="4.78707">
        <ele>591.98535</ele>
        <time>2023-09-02T14:36:21.000Z</time>
      </trkpt>
      <trkpt lat="45.85696" lon="4.78704">
        <ele>592.06903</ele>
        <time>2023-09-02T14:36:22.000Z</time>
      </trkpt>
      <trkpt lat="45.85694" lon="4.78702">
        <ele>592.08569</ele>
        <time>2023-09-02T14:36:23.000Z</time>
      </trkpt>
      <trkpt lat="45.85691" lon="4.78699">
        <ele>592.10876</ele>
        <time>2023-09-02T14:36:24.000Z</time>
      </trkpt>
      <trkpt lat="45.85689" lon="4.78697">
        <ele>592.11493</ele>
        <time>2023-09-02T14:36:25.000Z</time>
      </trkpt>
      <trkpt lat="45.85686" lon="4.78694">
        <ele>592.14539</ele>
        <time>2023-09-02T14:36:26.000Z</time>
      </trkpt>
      <trkpt lat="45.85683" lon="4.78691">
        <ele>592.16913</ele>
        <time>2023-09-02T14:36:27.000Z</time>
      </trkpt>
      <trkpt lat="45.8568" lon="4.78689">
        <ele>592.198</ele>
        <time>2023-09-02T14:36:28.000Z</time>
      </trkpt>
      <trkpt lat="45.85677" lon="4.78687">
        <ele>592.22485</ele>
        <time>2023-09-02T14:36:29.000Z</time>
      </trkpt>
      <trkpt lat="45.85675" lon="4.78686">
        <ele>592.25696</ele>
        <time>2023-09-02T14:36:30.000Z</time>
      </trkpt>
      <trkpt lat="45.85672" lon="4.78685">
        <ele>592.29498</ele>
        <time>2023-09-02T14:36:31.000Z</time>
      </trkpt>
      <trkpt lat="45.8567" lon="4.78683">
        <ele>592.37671</ele>
        <time>2023-09-02T14:36:32.000Z</time>
      </trkpt>
      <trkpt lat="45.85668" lon="4.78681">
        <ele>592.45886</ele>
        <time>2023-09-02T14:36:33.000Z</time>
      </trkpt>
      <trkpt lat="45.85665" lon="4.78678">
        <ele>592.75439</ele>
        <time>2023-09-02T14:36:34.000Z</time>
      </trkpt>
      <trkpt lat="45.85663" lon="4.78675">
        <ele>592.89514</ele>
        <time>2023-09-02T14:36:35.000Z</time>
      </trkpt>
      <trkpt lat="45.8566" lon="4.78673">
        <ele>593.02063</ele>
        <time>2023-09-02T14:36:36.000Z</time>
      </trkpt>
      <trkpt lat="45.85657" lon="4.78671">
        <ele>593.08044</ele>
        <time>2023-09-02T14:36:37.000Z</time>
      </trkpt>
      <trkpt lat="45.85654" lon="4.7867">
        <ele>593.03613</ele>
        <time>2023-09-02T14:36:38.000Z</time>
      </trkpt>
      <trkpt lat="45.85651" lon="4.78669">
        <ele>592.9469</ele>
        <time>2023-09-02T14:36:39.000Z</time>
      </trkpt>
      <trkpt lat="45.85649" lon="4.78667">
        <ele>592.86688</ele>
        <time>2023-09-02T14:36:40.000Z</time>
      </trkpt>
      <trkpt lat="45.85647" lon="4.78666">
        <ele>592.90546</ele>
        <time>2023-09-02T14:36:41.000Z</time>
      </trkpt>
      <trkpt lat="45.85644" lon="4.78665">
        <ele>592.96283</ele>
        <time>2023-09-02T14:36:42.000Z</time>
      </trkpt>
      <trkpt lat="45.85643" lon="4.78664">
        <ele>593.06482</ele>
        <time>2023-09-02T14:36:43.000Z</time>
      </trkpt>
      <trkpt lat="45.85641" lon="4.78662">
        <ele>593.20227</ele>
        <time>2023-09-02T14:36:44.000Z</time>
      </trkpt>
      <trkpt lat="45.85639" lon="4.78661">
        <ele>593.32843</ele>
        <time>2023-09-02T14:36:45.000Z</time>
      </trkpt>
      <trkpt lat="45.85637" lon="4.78659">
        <ele>593.47888</ele>
        <time>2023-09-02T14:36:46.000Z</time>
      </trkpt>
      <trkpt lat="45.85635" lon="4.78658">
        <ele>593.64441</ele>
        <time>2023-09-02T14:36:47.000Z</time>
      </trkpt>
      <trkpt lat="45.85633" lon="4.78656">
        <ele>593.8324</ele>
        <time>2023-09-02T14:36:48.000Z</time>
      </trkpt>
      <trkpt lat="45.85631" lon="4.78654">
        <ele>594.0119</ele>
        <time>2023-09-02T14:36:49.000Z</time>
      </trkpt>
      <trkpt lat="45.85629" lon="4.78653">
        <ele>594.1767</ele>
        <time>2023-09-02T14:36:50.000Z</time>
      </trkpt>
      <trkpt lat="45.85628" lon="4.78651">
        <ele>594.32373</ele>
        <time>2023-09-02T14:36:51.000Z</time>
      </trkpt>
      <trkpt lat="45.85626" lon="4.78649">
        <ele>594.45691</ele>
        <time>2023-09-02T14:36:52.000Z</time>
      </trkpt>
      <trkpt lat="45.85625" lon="4.78647">
        <ele>594.51843</ele>
        <time>2023-09-02T14:36:53.000Z</time>
      </trkpt>
      <trkpt lat="45.85623" lon="4.78644">
        <ele>594.36292</ele>
        <time>2023-09-02T14:36:54.000Z</time>
      </trkpt>
      <trkpt lat="45.85621" lon="4.78642">
        <ele>594.23108</ele>
        <time>2023-09-02T14:36:55.000Z</time>
      </trkpt>
      <trkpt lat="45.85618" lon="4.7864">
        <ele>594.07458</ele>
        <time>2023-09-02T14:36:56.000Z</time>
      </trkpt>
      <trkpt lat="45.85616" lon="4.78638">
        <ele>593.94897</ele>
        <time>2023-09-02T14:36:57.000Z</time>
      </trkpt>
      <trkpt lat="45.85612" lon="4.78635">
        <ele>594.07288</ele>
        <time>2023-09-02T14:36:58.000Z</time>
      </trkpt>
      <trkpt lat="45.85609" lon="4.78634">
        <ele>594.23181</ele>
        <time>2023-09-02T14:36:59.000Z</time>
      </trkpt>
      <trkpt lat="45.85605" lon="4.78631">
        <ele>594.20056</ele>
        <time>2023-09-02T14:37:00.000Z</time>
      </trkpt>
      <trkpt lat="45.85602" lon="4.7863">
        <ele>594.01093</ele>
        <time>2023-09-02T14:37:01.000Z</time>
      </trkpt>
      <trkpt lat="45.85599" lon="4.78627">
        <ele>593.84192</ele>
        <time>2023-09-02T14:37:02.000Z</time>
      </trkpt>
      <trkpt lat="45.85594" lon="4.78628">
        <ele>593.75775</ele>
        <time>2023-09-02T14:37:03.000Z</time>
      </trkpt>
      <trkpt lat="45.85591" lon="4.78625">
        <ele>593.70551</ele>
        <time>2023-09-02T14:37:04.000Z</time>
      </trkpt>
      <trkpt lat="45.85587" lon="4.78623">
        <ele>593.68079</ele>
        <time>2023-09-02T14:37:05.000Z</time>
      </trkpt>
      <trkpt lat="45.85585" lon="4.7862">
        <ele>593.67487</ele>
        <time>2023-09-02T14:37:06.000Z</time>
      </trkpt>
      <trkpt lat="45.85582" lon="4.78619">
        <ele>593.62823</ele>
        <time>2023-09-02T14:37:07.000Z</time>
      </trkpt>
      <trkpt lat="45.85578" lon="4.78617">
        <ele>593.55524</ele>
        <time>2023-09-02T14:37:08.000Z</time>
      </trkpt>
      <trkpt lat="45.85576" lon="4.78615">
        <ele>593.43518</ele>
        <time>2023-09-02T14:37:09.000Z</time>
      </trkpt>
      <trkpt lat="45.85573" lon="4.78612">
        <ele>593.33313</ele>
        <time>2023-09-02T14:37:10.000Z</time>
      </trkpt>
      <trkpt lat="45.85571" lon="4.78609">
        <ele>593.31781</ele>
        <time>2023-09-02T14:37:11.000Z</time>
      </trkpt>
      <trkpt lat="45.85568" lon="4.78606">
        <ele>593.25903</ele>
        <time>2023-09-02T14:37:12.000Z</time>
      </trkpt>
      <trkpt lat="45.85567" lon="4.78604">
        <ele>593.30359</ele>
        <time>2023-09-02T14:37:13.000Z</time>
      </trkpt>
      <trkpt lat="45.85565" lon="4.78602">
        <ele>593.39301</ele>
        <time>2023-09-02T14:37:14.000Z</time>
      </trkpt>
      <trkpt lat="45.85562" lon="4.786">
        <ele>593.4975</ele>
        <time>2023-09-02T14:37:15.000Z</time>
      </trkpt>
      <trkpt lat="45.8556" lon="4.78599">
        <ele>593.5968</ele>
        <time>2023-09-02T14:37:16.000Z</time>
      </trkpt>
      <trkpt lat="45.85556" lon="4.78598">
        <ele>593.67444</ele>
        <time>2023-09-02T14:37:17.000Z</time>
      </trkpt>
      <trkpt lat="45.85552" lon="4.78597">
        <ele>593.58392</ele>
        <time>2023-09-02T14:37:18.000Z</time>
      </trkpt>
      <trkpt lat="45.85549" lon="4.78596">
        <ele>593.55353</ele>
        <time>2023-09-02T14:37:19.000Z</time>
      </trkpt>
      <trkpt lat="45.85545" lon="4.78594">
        <ele>593.67871</ele>
        <time>2023-09-02T14:37:20.000Z</time>
      </trkpt>
      <trkpt lat="45.85541" lon="4.78591">
        <ele>593.94348</ele>
        <time>2023-09-02T14:37:21.000Z</time>
      </trkpt>
      <trkpt lat="45.85537" lon="4.78589">
        <ele>594.15131</ele>
        <time>2023-09-02T14:37:22.000Z</time>
      </trkpt>
      <trkpt lat="45.85533" lon="4.78586">
        <ele>594.30994</ele>
        <time>2023-09-02T14:37:23.000Z</time>
      </trkpt>
      <trkpt lat="45.85529" lon="4.78583">
        <ele>594.44293</ele>
        <time>2023-09-02T14:37:24.000Z</time>
      </trkpt>
      <trkpt lat="45.85526" lon="4.7858">
        <ele>594.56439</ele>
        <time>2023-09-02T14:37:25.000Z</time>
      </trkpt>
      <trkpt lat="45.85522" lon="4.78577">
        <ele>594.64941</ele>
        <time>2023-09-02T14:37:26.000Z</time>
      </trkpt>
      <trkpt lat="45.85519" lon="4.78574">
        <ele>594.73914</ele>
        <time>2023-09-02T14:37:27.000Z</time>
      </trkpt>
      <trkpt lat="45.85515" lon="4.78572">
        <ele>594.82068</ele>
        <time>2023-09-02T14:37:28.000Z</time>
      </trkpt>
      <trkpt lat="45.85512" lon="4.78568">
        <ele>594.96582</ele>
        <time>2023-09-02T14:37:29.000Z</time>
      </trkpt>
      <trkpt lat="45.85508" lon="4.78566">
        <ele>595.07098</ele>
        <time>2023-09-02T14:37:30.000Z</time>
      </trkpt>
      <trkpt lat="45.85505" lon="4.78563">
        <ele>595.18457</ele>
        <time>2023-09-02T14:37:31.000Z</time>
      </trkpt>
      <trkpt lat="45.85502" lon="4.78559">
        <ele>595.27795</ele>
        <time>2023-09-02T14:37:32.000Z</time>
      </trkpt>
      <trkpt lat="45.85499" lon="4.78556">
        <ele>595.38928</ele>
        <time>2023-09-02T14:37:33.000Z</time>
      </trkpt>
      <trkpt lat="45.85496" lon="4.78552">
        <ele>594.01794</ele>
        <time>2023-09-02T14:37:34.000Z</time>
      </trkpt>
      <trkpt lat="45.85493" lon="4.78549">
        <ele>592.76447</ele>
        <time>2023-09-02T14:37:35.000Z</time>
      </trkpt>
      <trkpt lat="45.8549" lon="4.78545">
        <ele>591.51477</ele>
        <time>2023-09-02T14:37:36.000Z</time>
      </trkpt>
      <trkpt lat="45.85487" lon="4.78542">
        <ele>590.30963</ele>
        <time>2023-09-02T14:37:37.000Z</time>
      </trkpt>
      <trkpt lat="45.85484" lon="4.78539">
        <ele>590.151</ele>
        <time>2023-09-02T14:37:38.000Z</time>
      </trkpt>
      <trkpt lat="45.85481" lon="4.78535">
        <ele>589.88391</ele>
        <time>2023-09-02T14:37:39.000Z</time>
      </trkpt>
      <trkpt lat="45.85478" lon="4.78532">
        <ele>590.12689</ele>
        <time>2023-09-02T14:37:40.000Z</time>
      </trkpt>
      <trkpt lat="45.85475" lon="4.78529">
        <ele>590.1767</ele>
        <time>2023-09-02T14:37:41.000Z</time>
      </trkpt>
      <trkpt lat="45.85472" lon="4.78525">
        <ele>590.60596</ele>
        <time>2023-09-02T14:37:42.000Z</time>
      </trkpt>
      <trkpt lat="45.85469" lon="4.78521">
        <ele>590.9917</ele>
        <time>2023-09-02T14:37:43.000Z</time>
      </trkpt>
      <trkpt lat="45.85466" lon="4.78518">
        <ele>590.97968</ele>
        <time>2023-09-02T14:37:44.000Z</time>
      </trkpt>
      <trkpt lat="45.85463" lon="4.78514">
        <ele>590.96252</ele>
        <time>2023-09-02T14:37:45.000Z</time>
      </trkpt>
      <trkpt lat="45.8546" lon="4.78511">
        <ele>590.91412</ele>
        <time>2023-09-02T14:37:46.000Z</time>
      </trkpt>
      <trkpt lat="45.85457" lon="4.78507">
        <ele>590.89685</ele>
        <time>2023-09-02T14:37:47.000Z</time>
      </trkpt>
      <trkpt lat="45.85454" lon="4.78504">
        <ele>591.08173</ele>
        <time>2023-09-02T14:37:48.000Z</time>
      </trkpt>
      <trkpt lat="45.85451" lon="4.78501">
        <ele>591.09021</ele>
        <time>2023-09-02T14:37:49.000Z</time>
      </trkpt>
      <trkpt lat="45.85449" lon="4.78497">
        <ele>591.23444</ele>
        <time>2023-09-02T14:37:50.000Z</time>
      </trkpt>
      <trkpt lat="45.85446" lon="4.78495">
        <ele>591.29614</ele>
        <time>2023-09-02T14:37:51.000Z</time>
      </trkpt>
      <trkpt lat="45.85443" lon="4.78491">
        <ele>591.4151</ele>
        <time>2023-09-02T14:37:52.000Z</time>
      </trkpt>
      <trkpt lat="45.8544" lon="4.78488">
        <ele>591.49353</ele>
        <time>2023-09-02T14:37:53.000Z</time>
      </trkpt>
      <trkpt lat="45.85438" lon="4.78485">
        <ele>593.05377</ele>
        <time>2023-09-02T14:37:54.000Z</time>
      </trkpt>
      <trkpt lat="45.85435" lon="4.78482">
        <ele>594.5119</ele>
        <time>2023-09-02T14:37:55.000Z</time>
      </trkpt>
      <trkpt lat="45.85432" lon="4.78478">
        <ele>595.99054</ele>
        <time>2023-09-02T14:37:56.000Z</time>
      </trkpt>
      <trkpt lat="45.8543" lon="4.78476">
        <ele>597.46277</ele>
        <time>2023-09-02T14:37:57.000Z</time>
      </trkpt>
      <trkpt lat="45.85427" lon="4.78473">
        <ele>597.91632</ele>
        <time>2023-09-02T14:37:58.000Z</time>
      </trkpt>
      <trkpt lat="45.85424" lon="4.78469">
        <ele>598.44586</ele>
        <time>2023-09-02T14:37:59.000Z</time>
      </trkpt>
      <trkpt lat="45.85421" lon="4.78466">
        <ele>598.50372</ele>
        <time>2023-09-02T14:38:00.000Z</time>
      </trkpt>
      <trkpt lat="45.85419" lon="4.78464">
        <ele>598.63123</ele>
        <time>2023-09-02T14:38:01.000Z</time>
      </trkpt>
      <trkpt lat="45.85416" lon="4.7846">
        <ele>598.37457</ele>
        <time>2023-09-02T14:38:02.000Z</time>
      </trkpt>
      <trkpt lat="45.85413" lon="4.78457">
        <ele>598.14368</ele>
        <time>2023-09-02T14:38:03.000Z</time>
      </trkpt>
      <trkpt lat="45.8541" lon="4.78455">
        <ele>598.28461</ele>
        <time>2023-09-02T14:38:04.000Z</time>
      </trkpt>
      <trkpt lat="45.85408" lon="4.78451">
        <ele>598.41229</ele>
        <time>2023-09-02T14:38:05.000Z</time>
      </trkpt>
      <trkpt lat="45.85405" lon="4.78448">
        <ele>598.57141</ele>
        <time>2023-09-02T14:38:06.000Z</time>
      </trkpt>
      <trkpt lat="45.85402" lon="4.78445">
        <ele>598.72583</ele>
        <time>2023-09-02T14:38:07.000Z</time>
      </trkpt>
      <trkpt lat="45.85399" lon="4.78441">
        <ele>598.71814</ele>
        <time>2023-09-02T14:38:08.000Z</time>
      </trkpt>
      <trkpt lat="45.85396" lon="4.78438">
        <ele>598.89905</ele>
        <time>2023-09-02T14:38:09.000Z</time>
      </trkpt>
      <trkpt lat="45.85394" lon="4.78434">
        <ele>598.98389</ele>
        <time>2023-09-02T14:38:10.000Z</time>
      </trkpt>
      <trkpt lat="45.85391" lon="4.78431">
        <ele>599.03094</ele>
        <time>2023-09-02T14:38:11.000Z</time>
      </trkpt>
      <trkpt lat="45.85388" lon="4.78428">
        <ele>599.05304</ele>
        <time>2023-09-02T14:38:12.000Z</time>
      </trkpt>
      <trkpt lat="45.85386" lon="4.78424">
        <ele>599.08984</ele>
        <time>2023-09-02T14:38:13.000Z</time>
      </trkpt>
      <trkpt lat="45.85383" lon="4.78421">
        <ele>599.11145</ele>
        <time>2023-09-02T14:38:14.000Z</time>
      </trkpt>
      <trkpt lat="45.8538" lon="4.78418">
        <ele>599.08807</ele>
        <time>2023-09-02T14:38:15.000Z</time>
      </trkpt>
      <trkpt lat="45.85377" lon="4.78414">
        <ele>599.00989</ele>
        <time>2023-09-02T14:38:16.000Z</time>
      </trkpt>
      <trkpt lat="45.85375" lon="4.7841">
        <ele>598.92828</ele>
        <time>2023-09-02T14:38:17.000Z</time>
      </trkpt>
      <trkpt lat="45.85372" lon="4.78406">
        <ele>598.80511</ele>
        <time>2023-09-02T14:38:18.000Z</time>
      </trkpt>
      <trkpt lat="45.85369" lon="4.78403">
        <ele>598.64532</ele>
        <time>2023-09-02T14:38:19.000Z</time>
      </trkpt>
      <trkpt lat="45.85366" lon="4.78401">
        <ele>598.50452</ele>
        <time>2023-09-02T14:38:20.000Z</time>
      </trkpt>
      <trkpt lat="45.85363" lon="4.78398">
        <ele>598.41229</ele>
        <time>2023-09-02T14:38:21.000Z</time>
      </trkpt>
      <trkpt lat="45.8536" lon="4.78394">
        <ele>598.31744</ele>
        <time>2023-09-02T14:38:22.000Z</time>
      </trkpt>
      <trkpt lat="45.85358" lon="4.78391">
        <ele>598.20135</ele>
        <time>2023-09-02T14:38:23.000Z</time>
      </trkpt>
      <trkpt lat="45.85356" lon="4.78387">
        <ele>598.11121</ele>
        <time>2023-09-02T14:38:24.000Z</time>
      </trkpt>
      <trkpt lat="45.85353" lon="4.78383">
        <ele>598.02863</ele>
        <time>2023-09-02T14:38:25.000Z</time>
      </trkpt>
      <trkpt lat="45.85352" lon="4.7838">
        <ele>598.01074</ele>
        <time>2023-09-02T14:38:26.000Z</time>
      </trkpt>
      <trkpt lat="45.8535" lon="4.78376">
        <ele>597.94</ele>
        <time>2023-09-02T14:38:27.000Z</time>
      </trkpt>
      <trkpt lat="45.85348" lon="4.78372">
        <ele>597.89124</ele>
        <time>2023-09-02T14:38:28.000Z</time>
      </trkpt>
      <trkpt lat="45.85346" lon="4.78368">
        <ele>597.84222</ele>
        <time>2023-09-02T14:38:29.000Z</time>
      </trkpt>
      <trkpt lat="45.85344" lon="4.78364">
        <ele>597.76575</ele>
        <time>2023-09-02T14:38:30.000Z</time>
      </trkpt>
      <trkpt lat="45.85342" lon="4.7836">
        <ele>597.7439</ele>
        <time>2023-09-02T14:38:31.000Z</time>
      </trkpt>
      <trkpt lat="45.8534" lon="4.78357">
        <ele>597.69977</ele>
        <time>2023-09-02T14:38:32.000Z</time>
      </trkpt>
      <trkpt lat="45.85337" lon="4.78355">
        <ele>597.5611</ele>
        <time>2023-09-02T14:38:33.000Z</time>
      </trkpt>
      <trkpt lat="45.85334" lon="4.78353">
        <ele>597.32227</ele>
        <time>2023-09-02T14:38:34.000Z</time>
      </trkpt>
      <trkpt lat="45.85331" lon="4.78351">
        <ele>597.16113</ele>
        <time>2023-09-02T14:38:35.000Z</time>
      </trkpt>
      <trkpt lat="45.85329" lon="4.7835">
        <ele>597.02319</ele>
        <time>2023-09-02T14:38:36.000Z</time>
      </trkpt>
      <trkpt lat="45.85326" lon="4.78349">
        <ele>596.90509</ele>
        <time>2023-09-02T14:38:37.000Z</time>
      </trkpt>
      <trkpt lat="45.85323" lon="4.78346">
        <ele>597.02051</ele>
        <time>2023-09-02T14:38:38.000Z</time>
      </trkpt>
      <trkpt lat="45.85321" lon="4.78342">
        <ele>597.13977</ele>
        <time>2023-09-02T14:38:39.000Z</time>
      </trkpt>
      <trkpt lat="45.85319" lon="4.78339">
        <ele>597.3089</ele>
        <time>2023-09-02T14:38:40.000Z</time>
      </trkpt>
      <trkpt lat="45.85317" lon="4.78337">
        <ele>597.23865</ele>
        <time>2023-09-02T14:38:41.000Z</time>
      </trkpt>
      <trkpt lat="45.85315" lon="4.78334">
        <ele>597.4801</ele>
        <time>2023-09-02T14:38:42.000Z</time>
      </trkpt>
      <trkpt lat="45.85313" lon="4.78331">
        <ele>597.70667</ele>
        <time>2023-09-02T14:38:43.000Z</time>
      </trkpt>
      <trkpt lat="45.85311" lon="4.78328">
        <ele>597.89722</ele>
        <time>2023-09-02T14:38:44.000Z</time>
      </trkpt>
      <trkpt lat="45.85308" lon="4.78325">
        <ele>598.05383</ele>
        <time>2023-09-02T14:38:45.000Z</time>
      </trkpt>
      <trkpt lat="45.85306" lon="4.78323">
        <ele>598.16718</ele>
        <time>2023-09-02T14:38:46.000Z</time>
      </trkpt>
      <trkpt lat="45.85303" lon="4.7832">
        <ele>598.44568</ele>
        <time>2023-09-02T14:38:47.000Z</time>
      </trkpt>
      <trkpt lat="45.85301" lon="4.78317">
        <ele>598.76111</ele>
        <time>2023-09-02T14:38:48.000Z</time>
      </trkpt>
      <trkpt lat="45.85298" lon="4.78315">
        <ele>599.03381</ele>
        <time>2023-09-02T14:38:49.000Z</time>
      </trkpt>
      <trkpt lat="45.85297" lon="4.78312">
        <ele>599.30896</ele>
        <time>2023-09-02T14:38:50.000Z</time>
      </trkpt>
      <trkpt lat="45.85295" lon="4.78309">
        <ele>599.54236</ele>
        <time>2023-09-02T14:38:51.000Z</time>
      </trkpt>
      <trkpt lat="45.85293" lon="4.78306">
        <ele>599.83594</ele>
        <time>2023-09-02T14:38:52.000Z</time>
      </trkpt>
      <trkpt lat="45.8529" lon="4.78302">
        <ele>600.22333</ele>
        <time>2023-09-02T14:38:53.000Z</time>
      </trkpt>
      <trkpt lat="45.85287" lon="4.78297">
        <ele>600.51563</ele>
        <time>2023-09-02T14:38:54.000Z</time>
      </trkpt>
      <trkpt lat="45.85284" lon="4.78293">
        <ele>600.75238</ele>
        <time>2023-09-02T14:38:55.000Z</time>
      </trkpt>
      <trkpt lat="45.85282" lon="4.78289">
        <ele>601.06055</ele>
        <time>2023-09-02T14:38:56.000Z</time>
      </trkpt>
      <trkpt lat="45.85278" lon="4.78285">
        <ele>601.33362</ele>
        <time>2023-09-02T14:38:57.000Z</time>
      </trkpt>
      <trkpt lat="45.85275" lon="4.78281">
        <ele>601.422</ele>
        <time>2023-09-02T14:38:58.000Z</time>
      </trkpt>
      <trkpt lat="45.85273" lon="4.78278">
        <ele>601.71594</ele>
        <time>2023-09-02T14:38:59.000Z</time>
      </trkpt>
      <trkpt lat="45.8527" lon="4.78274">
        <ele>601.92859</ele>
        <time>2023-09-02T14:39:00.000Z</time>
      </trkpt>
      <trkpt lat="45.85268" lon="4.78271">
        <ele>602.31683</ele>
        <time>2023-09-02T14:39:01.000Z</time>
      </trkpt>
      <trkpt lat="45.85266" lon="4.78268">
        <ele>602.45093</ele>
        <time>2023-09-02T14:39:02.000Z</time>
      </trkpt>
      <trkpt lat="45.85264" lon="4.78265">
        <ele>602.5871</ele>
        <time>2023-09-02T14:39:03.000Z</time>
      </trkpt>
      <trkpt lat="45.85263" lon="4.78261">
        <ele>602.71594</ele>
        <time>2023-09-02T14:39:04.000Z</time>
      </trkpt>
      <trkpt lat="45.85262" lon="4.78258">
        <ele>602.90448</ele>
        <time>2023-09-02T14:39:05.000Z</time>
      </trkpt>
      <trkpt lat="45.85261" lon="4.78253">
        <ele>603.09277</ele>
        <time>2023-09-02T14:39:06.000Z</time>
      </trkpt>
      <trkpt lat="45.8526" lon="4.7825">
        <ele>603.15076</ele>
        <time>2023-09-02T14:39:07.000Z</time>
      </trkpt>
      <trkpt lat="45.85257" lon="4.78245">
        <ele>603.1369</ele>
        <time>2023-09-02T14:39:08.000Z</time>
      </trkpt>
      <trkpt lat="45.85255" lon="4.78241">
        <ele>603.13287</ele>
        <time>2023-09-02T14:39:09.000Z</time>
      </trkpt>
      <trkpt lat="45.85252" lon="4.78236">
        <ele>603.13367</ele>
        <time>2023-09-02T14:39:10.000Z</time>
      </trkpt>
      <trkpt lat="45.85249" lon="4.78231">
        <ele>603.14783</ele>
        <time>2023-09-02T14:39:11.000Z</time>
      </trkpt>
      <trkpt lat="45.85246" lon="4.78227">
        <ele>603.12823</ele>
        <time>2023-09-02T14:39:12.000Z</time>
      </trkpt>
      <trkpt lat="45.85243" lon="4.78222">
        <ele>603.11377</ele>
        <time>2023-09-02T14:39:13.000Z</time>
      </trkpt>
      <trkpt lat="45.85239" lon="4.78217">
        <ele>603.28796</ele>
        <time>2023-09-02T14:39:14.000Z</time>
      </trkpt>
      <trkpt lat="45.85236" lon="4.78212">
        <ele>603.50189</ele>
        <time>2023-09-02T14:39:15.000Z</time>
      </trkpt>
      <trkpt lat="45.85233" lon="4.78208">
        <ele>603.65576</ele>
        <time>2023-09-02T14:39:16.000Z</time>
      </trkpt>
      <trkpt lat="45.8523" lon="4.78204">
        <ele>603.82428</ele>
        <time>2023-09-02T14:39:17.000Z</time>
      </trkpt>
      <trkpt lat="45.85228" lon="4.78201">
        <ele>603.99548</ele>
        <time>2023-09-02T14:39:18.000Z</time>
      </trkpt>
      <trkpt lat="45.85226" lon="4.78197">
        <ele>603.96472</ele>
        <time>2023-09-02T14:39:19.000Z</time>
      </trkpt>
      <trkpt lat="45.85223" lon="4.78193">
        <ele>603.96802</ele>
        <time>2023-09-02T14:39:20.000Z</time>
      </trkpt>
      <trkpt lat="45.8522" lon="4.78189">
        <ele>604.01593</ele>
        <time>2023-09-02T14:39:21.000Z</time>
      </trkpt>
      <trkpt lat="45.85218" lon="4.78185">
        <ele>604.03632</ele>
        <time>2023-09-02T14:39:22.000Z</time>
      </trkpt>
      <trkpt lat="45.85216" lon="4.78182">
        <ele>604.02185</ele>
        <time>2023-09-02T14:39:23.000Z</time>
      </trkpt>
      <trkpt lat="45.85215" lon="4.78179">
        <ele>604.02209</ele>
        <time>2023-09-02T14:39:24.000Z</time>
      </trkpt>
      <trkpt lat="45.85213" lon="4.78174">
        <ele>604.05066</ele>
        <time>2023-09-02T14:39:25.000Z</time>
      </trkpt>
      <trkpt lat="45.8521" lon="4.7817">
        <ele>604.05743</ele>
        <time>2023-09-02T14:39:26.000Z</time>
      </trkpt>
      <trkpt lat="45.85207" lon="4.78166">
        <ele>604.08069</ele>
        <time>2023-09-02T14:39:27.000Z</time>
      </trkpt>
      <trkpt lat="45.85203" lon="4.78161">
        <ele>604.1217</ele>
        <time>2023-09-02T14:39:28.000Z</time>
      </trkpt>
      <trkpt lat="45.852" lon="4.78157">
        <ele>604.17053</ele>
        <time>2023-09-02T14:39:29.000Z</time>
      </trkpt>
      <trkpt lat="45.85197" lon="4.78154">
        <ele>604.26367</ele>
        <time>2023-09-02T14:39:30.000Z</time>
      </trkpt>
      <trkpt lat="45.85195" lon="4.7815">
        <ele>604.3725</ele>
        <time>2023-09-02T14:39:31.000Z</time>
      </trkpt>
      <trkpt lat="45.85193" lon="4.78146">
        <ele>604.48425</ele>
        <time>2023-09-02T14:39:32.000Z</time>
      </trkpt>
      <trkpt lat="45.8519" lon="4.7814">
        <ele>604.5423</ele>
        <time>2023-09-02T14:39:33.000Z</time>
      </trkpt>
      <trkpt lat="45.85187" lon="4.78134">
        <ele>604.61957</ele>
        <time>2023-09-02T14:39:34.000Z</time>
      </trkpt>
      <trkpt lat="45.85184" lon="4.7813">
        <ele>604.57068</ele>
        <time>2023-09-02T14:39:35.000Z</time>
      </trkpt>
      <trkpt lat="45.85182" lon="4.78125">
        <ele>604.57166</ele>
        <time>2023-09-02T14:39:36.000Z</time>
      </trkpt>
      <trkpt lat="45.85179" lon="4.7812">
        <ele>604.58514</ele>
        <time>2023-09-02T14:39:37.000Z</time>
      </trkpt>
      <trkpt lat="45.85176" lon="4.78115">
        <ele>604.57434</ele>
        <time>2023-09-02T14:39:38.000Z</time>
      </trkpt>
      <trkpt lat="45.85174" lon="4.7811">
        <ele>604.59949</ele>
        <time>2023-09-02T14:39:39.000Z</time>
      </trkpt>
      <trkpt lat="45.85171" lon="4.78105">
        <ele>604.61395</ele>
        <time>2023-09-02T14:39:40.000Z</time>
      </trkpt>
      <trkpt lat="45.85168" lon="4.78099">
        <ele>604.61133</ele>
        <time>2023-09-02T14:39:41.000Z</time>
      </trkpt>
      <trkpt lat="45.85165" lon="4.78094">
        <ele>604.6073</ele>
        <time>2023-09-02T14:39:42.000Z</time>
      </trkpt>
      <trkpt lat="45.85162" lon="4.78089">
        <ele>604.66058</ele>
        <time>2023-09-02T14:39:43.000Z</time>
      </trkpt>
      <trkpt lat="45.8516" lon="4.78085">
        <ele>604.72491</ele>
        <time>2023-09-02T14:39:44.000Z</time>
      </trkpt>
      <trkpt lat="45.85158" lon="4.7808">
        <ele>604.7926</ele>
        <time>2023-09-02T14:39:45.000Z</time>
      </trkpt>
      <trkpt lat="45.85156" lon="4.78076">
        <ele>604.89258</ele>
        <time>2023-09-02T14:39:46.000Z</time>
      </trkpt>
      <trkpt lat="45.85154" lon="4.78073">
        <ele>604.9906</ele>
        <time>2023-09-02T14:39:47.000Z</time>
      </trkpt>
      <trkpt lat="45.85152" lon="4.78069">
        <ele>605.0929</ele>
        <time>2023-09-02T14:39:48.000Z</time>
      </trkpt>
      <trkpt lat="45.8515" lon="4.78065">
        <ele>605.17444</ele>
        <time>2023-09-02T14:39:49.000Z</time>
      </trkpt>
      <trkpt lat="45.85149" lon="4.78061">
        <ele>605.19373</ele>
        <time>2023-09-02T14:39:50.000Z</time>
      </trkpt>
      <trkpt lat="45.85147" lon="4.78057">
        <ele>605.20178</ele>
        <time>2023-09-02T14:39:51.000Z</time>
      </trkpt>
      <trkpt lat="45.85146" lon="4.78053">
        <ele>605.26074</ele>
        <time>2023-09-02T14:39:52.000Z</time>
      </trkpt>
      <trkpt lat="45.85145" lon="4.78049">
        <ele>605.35443</ele>
        <time>2023-09-02T14:39:53.000Z</time>
      </trkpt>
      <trkpt lat="45.85144" lon="4.78045">
        <ele>605.45465</ele>
        <time>2023-09-02T14:39:54.000Z</time>
      </trkpt>
      <trkpt lat="45.85142" lon="4.78041">
        <ele>605.65002</ele>
        <time>2023-09-02T14:39:55.000Z</time>
      </trkpt>
      <trkpt lat="45.8514" lon="4.78036">
        <ele>605.77893</ele>
        <time>2023-09-02T14:39:56.000Z</time>
      </trkpt>
      <trkpt lat="45.85138" lon="4.78032">
        <ele>605.89441</ele>
        <time>2023-09-02T14:39:57.000Z</time>
      </trkpt>
      <trkpt lat="45.85135" lon="4.78026">
        <ele>606.0199</ele>
        <time>2023-09-02T14:39:58.000Z</time>
      </trkpt>
      <trkpt lat="45.85132" lon="4.78021">
        <ele>606.18469</ele>
        <time>2023-09-02T14:39:59.000Z</time>
      </trkpt>
      <trkpt lat="45.8513" lon="4.78016">
        <ele>606.3219</ele>
        <time>2023-09-02T14:40:00.000Z</time>
      </trkpt>
      <trkpt lat="45.85129" lon="4.7801">
        <ele>606.43512</ele>
        <time>2023-09-02T14:40:01.000Z</time>
      </trkpt>
      <trkpt lat="45.85127" lon="4.78004">
        <ele>606.56921</ele>
        <time>2023-09-02T14:40:02.000Z</time>
      </trkpt>
      <trkpt lat="45.85126" lon="4.77999">
        <ele>606.66193</ele>
        <time>2023-09-02T14:40:03.000Z</time>
      </trkpt>
      <trkpt lat="45.85125" lon="4.77994">
        <ele>606.73755</ele>
        <time>2023-09-02T14:40:04.000Z</time>
      </trkpt>
      <trkpt lat="45.85124" lon="4.77988">
        <ele>606.75647</ele>
        <time>2023-09-02T14:40:05.000Z</time>
      </trkpt>
      <trkpt lat="45.85123" lon="4.77982">
        <ele>606.771</ele>
        <time>2023-09-02T14:40:06.000Z</time>
      </trkpt>
      <trkpt lat="45.85122" lon="4.77976">
        <ele>606.78711</ele>
        <time>2023-09-02T14:40:07.000Z</time>
      </trkpt>
      <trkpt lat="45.85121" lon="4.7797">
        <ele>606.81055</ele>
        <time>2023-09-02T14:40:08.000Z</time>
      </trkpt>
      <trkpt lat="45.85121" lon="4.77964">
        <ele>606.82263</ele>
        <time>2023-09-02T14:40:09.000Z</time>
      </trkpt>
      <trkpt lat="45.8512" lon="4.77957">
        <ele>606.953</ele>
        <time>2023-09-02T14:40:10.000Z</time>
      </trkpt>
      <trkpt lat="45.8512" lon="4.77951">
        <ele>607.11072</ele>
        <time>2023-09-02T14:40:11.000Z</time>
      </trkpt>
      <trkpt lat="45.8512" lon="4.77945">
        <ele>607.24158</ele>
        <time>2023-09-02T14:40:12.000Z</time>
      </trkpt>
      <trkpt lat="45.8512" lon="4.7794">
        <ele>607.33948</ele>
        <time>2023-09-02T14:40:13.000Z</time>
      </trkpt>
      <trkpt lat="45.85119" lon="4.77936">
        <ele>607.43939</ele>
        <time>2023-09-02T14:40:14.000Z</time>
      </trkpt>
      <trkpt lat="45.85118" lon="4.77932">
        <ele>607.58368</ele>
        <time>2023-09-02T14:40:15.000Z</time>
      </trkpt>
      <trkpt lat="45.85116" lon="4.77928">
        <ele>607.7951</ele>
        <time>2023-09-02T14:40:16.000Z</time>
      </trkpt>
      <trkpt lat="45.85114" lon="4.77924">
        <ele>607.99451</ele>
        <time>2023-09-02T14:40:17.000Z</time>
      </trkpt>
      <trkpt lat="45.85112" lon="4.77922">
        <ele>608.27136</ele>
        <time>2023-09-02T14:40:18.000Z</time>
      </trkpt>
      <trkpt lat="45.85111" lon="4.7792">
        <ele>608.508</ele>
        <time>2023-09-02T14:40:19.000Z</time>
      </trkpt>
      <trkpt lat="45.85109" lon="4.77918">
        <ele>608.7301</ele>
        <time>2023-09-02T14:40:20.000Z</time>
      </trkpt>
      <trkpt lat="45.85107" lon="4.77913">
        <ele>608.75378</ele>
        <time>2023-09-02T14:40:22.000Z</time>
      </trkpt>
      <trkpt lat="45.85106" lon="4.7791">
        <ele>608.76208</ele>
        <time>2023-09-02T14:40:23.000Z</time>
      </trkpt>
      <trkpt lat="45.85104" lon="4.77907">
        <ele>608.7616</ele>
        <time>2023-09-02T14:40:24.000Z</time>
      </trkpt>
      <trkpt lat="45.85102" lon="4.77903">
        <ele>608.76636</ele>
        <time>2023-09-02T14:40:25.000Z</time>
      </trkpt>
      <trkpt lat="45.851" lon="4.779">
        <ele>609.06622</ele>
        <time>2023-09-02T14:40:26.000Z</time>
      </trkpt>
      <trkpt lat="45.85098" lon="4.77896">
        <ele>609.48792</ele>
        <time>2023-09-02T14:40:27.000Z</time>
      </trkpt>
      <trkpt lat="45.85096" lon="4.77891">
        <ele>608.81165</ele>
        <time>2023-09-02T14:40:28.000Z</time>
      </trkpt>
      <trkpt lat="45.85096" lon="4.77885">
        <ele>608.54871</ele>
        <time>2023-09-02T14:40:29.000Z</time>
      </trkpt>
      <trkpt lat="45.85097" lon="4.7788">
        <ele>608.39795</ele>
        <time>2023-09-02T14:40:30.000Z</time>
      </trkpt>
      <trkpt lat="45.85099" lon="4.77876">
        <ele>608.61145</ele>
        <time>2023-09-02T14:40:31.000Z</time>
      </trkpt>
      <trkpt lat="45.85101" lon="4.7787">
        <ele>609.03986</ele>
        <time>2023-09-02T14:40:32.000Z</time>
      </trkpt>
      <trkpt lat="45.85102" lon="4.77865">
        <ele>609.47253</ele>
        <time>2023-09-02T14:40:33.000Z</time>
      </trkpt>
      <trkpt lat="45.85103" lon="4.77859">
        <ele>609.90839</ele>
        <time>2023-09-02T14:40:34.000Z</time>
      </trkpt>
      <trkpt lat="45.85104" lon="4.77848">
        <ele>610.30072</ele>
        <time>2023-09-02T14:40:35.000Z</time>
      </trkpt>
      <trkpt lat="45.85103" lon="4.77841">
        <ele>610.6842</ele>
        <time>2023-09-02T14:40:36.000Z</time>
      </trkpt>
      <trkpt lat="45.85103" lon="4.77834">
        <ele>611.02545</ele>
        <time>2023-09-02T14:40:37.000Z</time>
      </trkpt>
      <trkpt lat="45.85103" lon="4.77826">
        <ele>611.40375</ele>
        <time>2023-09-02T14:40:38.000Z</time>
      </trkpt>
      <trkpt lat="45.85104" lon="4.77819">
        <ele>611.70709</ele>
        <time>2023-09-02T14:40:39.000Z</time>
      </trkpt>
      <trkpt lat="45.85106" lon="4.7781">
        <ele>611.95532</ele>
        <time>2023-09-02T14:40:40.000Z</time>
      </trkpt>
      <trkpt lat="45.85105" lon="4.778">
        <ele>612.18567</ele>
        <time>2023-09-02T14:40:41.000Z</time>
      </trkpt>
      <trkpt lat="45.85105" lon="4.77792">
        <ele>612.62024</ele>
        <time>2023-09-02T14:40:42.000Z</time>
      </trkpt>
      <trkpt lat="45.85105" lon="4.77783">
        <ele>613.08521</ele>
        <time>2023-09-02T14:40:43.000Z</time>
      </trkpt>
      <trkpt lat="45.85103" lon="4.77773">
        <ele>613.6051</ele>
        <time>2023-09-02T14:40:44.000Z</time>
      </trkpt>
      <trkpt lat="45.85101" lon="4.77764">
        <ele>613.9317</ele>
        <time>2023-09-02T14:40:45.000Z</time>
      </trkpt>
      <trkpt lat="45.851" lon="4.77754">
        <ele>613.92755</ele>
        <time>2023-09-02T14:40:46.000Z</time>
      </trkpt>
      <trkpt lat="45.85096" lon="4.77744">
        <ele>613.78912</ele>
        <time>2023-09-02T14:40:47.000Z</time>
      </trkpt>
      <trkpt lat="45.85092" lon="4.77735">
        <ele>614.67371</ele>
        <time>2023-09-02T14:40:48.000Z</time>
      </trkpt>
      <trkpt lat="45.85089" lon="4.77726">
        <ele>615.10876</ele>
        <time>2023-09-02T14:40:49.000Z</time>
      </trkpt>
      <trkpt lat="45.85085" lon="4.77716">
        <ele>615.44611</ele>
        <time>2023-09-02T14:40:50.000Z</time>
      </trkpt>
      <trkpt lat="45.85081" lon="4.77707">
        <ele>615.26331</ele>
        <time>2023-09-02T14:40:51.000Z</time>
      </trkpt>
      <trkpt lat="45.85077" lon="4.77696">
        <ele>614.83813</ele>
        <time>2023-09-02T14:40:52.000Z</time>
      </trkpt>
      <trkpt lat="45.85074" lon="4.77688">
        <ele>614.40857</ele>
        <time>2023-09-02T14:40:53.000Z</time>
      </trkpt>
      <trkpt lat="45.85071" lon="4.77681">
        <ele>614.04846</ele>
        <time>2023-09-02T14:40:54.000Z</time>
      </trkpt>
      <trkpt lat="45.85068" lon="4.77673">
        <ele>613.70795</ele>
        <time>2023-09-02T14:40:55.000Z</time>
      </trkpt>
      <trkpt lat="45.85066" lon="4.77665">
        <ele>613.36603</ele>
        <time>2023-09-02T14:40:56.000Z</time>
      </trkpt>
      <trkpt lat="45.85064" lon="4.77658">
        <ele>612.97772</ele>
        <time>2023-09-02T14:40:57.000Z</time>
      </trkpt>
      <trkpt lat="45.85058" lon="4.77652">
        <ele>612.5498</ele>
        <time>2023-09-02T14:40:58.000Z</time>
      </trkpt>
      <trkpt lat="45.85055" lon="4.77644">
        <ele>612.09052</ele>
        <time>2023-09-02T14:40:59.000Z</time>
      </trkpt>
      <trkpt lat="45.85054" lon="4.77646">
        <ele>611.6369</ele>
        <time>2023-09-02T14:41:00.000Z</time>
      </trkpt>
      <trkpt lat="45.85052" lon="4.77646">
        <ele>611.21234</ele>
        <time>2023-09-02T14:41:07.000Z</time>
      </trkpt>
      <trkpt lat="45.8505" lon="4.77647">
        <ele>610.78088</ele>
        <time>2023-09-02T14:41:13.000Z</time>
      </trkpt>
      <trkpt lat="45.85049" lon="4.77645">
        <ele>610.3811</ele>
        <time>2023-09-02T14:44:03.000Z</time>
      </trkpt>
      <trkpt lat="45.85046" lon="4.77642">
        <ele>609.91675</ele>
        <time>2023-09-02T14:44:06.000Z</time>
      </trkpt>
      <trkpt lat="45.85043" lon="4.77639">
        <ele>609.65741</ele>
        <time>2023-09-02T14:44:08.000Z</time>
      </trkpt>
      <trkpt lat="45.85041" lon="4.77638">
        <ele>609.43103</ele>
        <time>2023-09-02T14:44:10.000Z</time>
      </trkpt>
      <trkpt lat="45.8504" lon="4.7764">
        <ele>609.25403</ele>
        <time>2023-09-02T14:44:20.000Z</time>
      </trkpt>
      <trkpt lat="45.85037" lon="4.77639">
        <ele>609.11359</ele>
        <time>2023-09-02T14:44:22.000Z</time>
      </trkpt>
      <trkpt lat="45.85035" lon="4.77638">
        <ele>608.99957</ele>
        <time>2023-09-02T14:44:23.000Z</time>
      </trkpt>
      <trkpt lat="45.85032" lon="4.77636">
        <ele>608.8963</ele>
        <time>2023-09-02T14:44:25.000Z</time>
      </trkpt>
      <trkpt lat="45.8503" lon="4.77635">
        <ele>608.9162</ele>
        <time>2023-09-02T14:44:26.000Z</time>
      </trkpt>
      <trkpt lat="45.85029" lon="4.77634">
        <ele>608.95544</ele>
        <time>2023-09-02T14:44:27.000Z</time>
      </trkpt>
      <trkpt lat="45.85025" lon="4.77633">
        <ele>608.93982</ele>
        <time>2023-09-02T14:44:29.000Z</time>
      </trkpt>
      <trkpt lat="45.85023" lon="4.77631">
        <ele>608.89978</ele>
        <time>2023-09-02T14:44:30.000Z</time>
      </trkpt>
      <trkpt lat="45.85021" lon="4.7763">
        <ele>608.88519</ele>
        <time>2023-09-02T14:44:32.000Z</time>
      </trkpt>
      <trkpt lat="45.85018" lon="4.7763">
        <ele>608.8197</ele>
        <time>2023-09-02T14:44:34.000Z</time>
      </trkpt>
      <trkpt lat="45.85015" lon="4.77629">
        <ele>608.81506</ele>
        <time>2023-09-02T14:44:36.000Z</time>
      </trkpt>
      <trkpt lat="45.85013" lon="4.77629">
        <ele>608.849</ele>
        <time>2023-09-02T14:44:37.000Z</time>
      </trkpt>
      <trkpt lat="45.85011" lon="4.77629">
        <ele>608.92908</ele>
        <time>2023-09-02T14:44:38.000Z</time>
      </trkpt>
      <trkpt lat="45.85008" lon="4.77629">
        <ele>609.05597</ele>
        <time>2023-09-02T14:44:40.000Z</time>
      </trkpt>
      <trkpt lat="45.85005" lon="4.77629">
        <ele>609.2088</ele>
        <time>2023-09-02T14:44:41.000Z</time>
      </trkpt>
      <trkpt lat="45.85003" lon="4.77628">
        <ele>609.40405</ele>
        <time>2023-09-02T14:44:42.000Z</time>
      </trkpt>
      <trkpt lat="45.85001" lon="4.77628">
        <ele>609.50842</ele>
        <time>2023-09-02T14:44:43.000Z</time>
      </trkpt>
      <trkpt lat="45.84998" lon="4.77628">
        <ele>609.64392</ele>
        <time>2023-09-02T14:44:44.000Z</time>
      </trkpt>
      <trkpt lat="45.84997" lon="4.77627">
        <ele>609.75818</ele>
        <time>2023-09-02T14:44:45.000Z</time>
      </trkpt>
      <trkpt lat="45.84994" lon="4.77626">
        <ele>609.86438</ele>
        <time>2023-09-02T14:44:46.000Z</time>
      </trkpt>
      <trkpt lat="45.84992" lon="4.77626">
        <ele>609.93018</ele>
        <time>2023-09-02T14:44:47.000Z</time>
      </trkpt>
      <trkpt lat="45.8499" lon="4.77626">
        <ele>610.03552</ele>
        <time>2023-09-02T14:44:48.000Z</time>
      </trkpt>
      <trkpt lat="45.84987" lon="4.77625">
        <ele>610.1073</ele>
        <time>2023-09-02T14:44:49.000Z</time>
      </trkpt>
      <trkpt lat="45.84985" lon="4.77625">
        <ele>610.16724</ele>
        <time>2023-09-02T14:44:50.000Z</time>
      </trkpt>
      <trkpt lat="45.84982" lon="4.77624">
        <ele>610.13281</ele>
        <time>2023-09-02T14:44:51.000Z</time>
      </trkpt>
      <trkpt lat="45.8498" lon="4.77623">
        <ele>610.07745</ele>
        <time>2023-09-02T14:44:52.000Z</time>
      </trkpt>
      <trkpt lat="45.84978" lon="4.77623">
        <ele>610.1037</ele>
        <time>2023-09-02T14:44:53.000Z</time>
      </trkpt>
      <trkpt lat="45.84976" lon="4.77623">
        <ele>610.16516</ele>
        <time>2023-09-02T14:44:54.000Z</time>
      </trkpt>
      <trkpt lat="45.84974" lon="4.77622">
        <ele>610.21582</ele>
        <time>2023-09-02T14:44:55.000Z</time>
      </trkpt>
      <trkpt lat="45.84971" lon="4.77622">
        <ele>610.2887</ele>
        <time>2023-09-02T14:44:56.000Z</time>
      </trkpt>
      <trkpt lat="45.84969" lon="4.77622">
        <ele>610.32318</ele>
        <time>2023-09-02T14:44:57.000Z</time>
      </trkpt>
      <trkpt lat="45.84966" lon="4.77622">
        <ele>610.32349</ele>
        <time>2023-09-02T14:44:58.000Z</time>
      </trkpt>
      <trkpt lat="45.84964" lon="4.77622">
        <ele>610.3031</ele>
        <time>2023-09-02T14:44:59.000Z</time>
      </trkpt>
      <trkpt lat="45.84961" lon="4.77622">
        <ele>610.27557</ele>
        <time>2023-09-02T14:45:00.000Z</time>
      </trkpt>
      <trkpt lat="45.84958" lon="4.77622">
        <ele>610.24963</ele>
        <time>2023-09-02T14:45:01.000Z</time>
      </trkpt>
      <trkpt lat="45.84956" lon="4.77621">
        <ele>609.422</ele>
        <time>2023-09-02T14:45:02.000Z</time>
      </trkpt>
      <trkpt lat="45.84954" lon="4.7762">
        <ele>608.63391</ele>
        <time>2023-09-02T14:45:03.000Z</time>
      </trkpt>
      <trkpt lat="45.84951" lon="4.7762">
        <ele>607.74036</ele>
        <time>2023-09-02T14:45:04.000Z</time>
      </trkpt>
      <trkpt lat="45.84949" lon="4.77619">
        <ele>607.18689</ele>
        <time>2023-09-02T14:45:05.000Z</time>
      </trkpt>
      <trkpt lat="45.84946" lon="4.77619">
        <ele>606.13934</ele>
        <time>2023-09-02T14:45:06.000Z</time>
      </trkpt>
      <trkpt lat="45.84944" lon="4.77618">
        <ele>604.97528</ele>
        <time>2023-09-02T14:45:07.000Z</time>
      </trkpt>
      <trkpt lat="45.84942" lon="4.77618">
        <ele>604.58966</ele>
        <time>2023-09-02T14:45:08.000Z</time>
      </trkpt>
      <trkpt lat="45.84939" lon="4.77617">
        <ele>604.32501</ele>
        <time>2023-09-02T14:45:09.000Z</time>
      </trkpt>
      <trkpt lat="45.84936" lon="4.77617">
        <ele>604.05872</ele>
        <time>2023-09-02T14:45:10.000Z</time>
      </trkpt>
      <trkpt lat="45.84933" lon="4.77617">
        <ele>603.81366</ele>
        <time>2023-09-02T14:45:11.000Z</time>
      </trkpt>
      <trkpt lat="45.8493" lon="4.77617">
        <ele>603.547</ele>
        <time>2023-09-02T14:45:12.000Z</time>
      </trkpt>
      <trkpt lat="45.84927" lon="4.77617">
        <ele>603.45221</ele>
        <time>2023-09-02T14:45:13.000Z</time>
      </trkpt>
      <trkpt lat="45.84924" lon="4.77616">
        <ele>603.37531</ele>
        <time>2023-09-02T14:45:14.000Z</time>
      </trkpt>
      <trkpt lat="45.84923" lon="4.77616">
        <ele>603.276</ele>
        <time>2023-09-02T14:45:15.000Z</time>
      </trkpt>
      <trkpt lat="45.8492" lon="4.77616">
        <ele>603.17346</ele>
        <time>2023-09-02T14:45:16.000Z</time>
      </trkpt>
      <trkpt lat="45.84916" lon="4.77616">
        <ele>603.12738</ele>
        <time>2023-09-02T14:45:17.000Z</time>
      </trkpt>
      <trkpt lat="45.84914" lon="4.77616">
        <ele>603.03802</ele>
        <time>2023-09-02T14:45:18.000Z</time>
      </trkpt>
      <trkpt lat="45.84911" lon="4.77616">
        <ele>602.94873</ele>
        <time>2023-09-02T14:45:19.000Z</time>
      </trkpt>
      <trkpt lat="45.84908" lon="4.77615">
        <ele>602.85266</ele>
        <time>2023-09-02T14:45:20.000Z</time>
      </trkpt>
      <trkpt lat="45.84905" lon="4.77615">
        <ele>602.74536</ele>
        <time>2023-09-02T14:45:21.000Z</time>
      </trkpt>
      <trkpt lat="45.84902" lon="4.77615">
        <ele>603.401</ele>
        <time>2023-09-02T14:45:22.000Z</time>
      </trkpt>
      <trkpt lat="45.84898" lon="4.77615">
        <ele>604.05402</ele>
        <time>2023-09-02T14:45:23.000Z</time>
      </trkpt>
      <trkpt lat="45.84894" lon="4.77615">
        <ele>604.81818</ele>
        <time>2023-09-02T14:45:24.000Z</time>
      </trkpt>
      <trkpt lat="45.8489" lon="4.77616">
        <ele>605.25568</ele>
        <time>2023-09-02T14:45:25.000Z</time>
      </trkpt>
      <trkpt lat="45.84886" lon="4.77616">
        <ele>606.20782</ele>
        <time>2023-09-02T14:45:26.000Z</time>
      </trkpt>
      <trkpt lat="45.84883" lon="4.77616">
        <ele>607.25732</ele>
        <time>2023-09-02T14:45:27.000Z</time>
      </trkpt>
      <trkpt lat="45.84879" lon="4.77616">
        <ele>607.50647</ele>
        <time>2023-09-02T14:45:28.000Z</time>
      </trkpt>
      <trkpt lat="45.84875" lon="4.77617">
        <ele>607.69183</ele>
        <time>2023-09-02T14:45:29.000Z</time>
      </trkpt>
      <trkpt lat="45.84871" lon="4.77617">
        <ele>607.86346</ele>
        <time>2023-09-02T14:45:30.000Z</time>
      </trkpt>
      <trkpt lat="45.84864" lon="4.77617">
        <ele>607.94623</ele>
        <time>2023-09-02T14:45:31.000Z</time>
      </trkpt>
      <trkpt lat="45.84858" lon="4.77617">
        <ele>608.0293</ele>
        <time>2023-09-02T14:45:32.000Z</time>
      </trkpt>
      <trkpt lat="45.84854" lon="4.77617">
        <ele>607.88403</ele>
        <time>2023-09-02T14:45:33.000Z</time>
      </trkpt>
      <trkpt lat="45.84849" lon="4.77619">
        <ele>607.68085</ele>
        <time>2023-09-02T14:45:34.000Z</time>
      </trkpt>
      <trkpt lat="45.84843" lon="4.7762">
        <ele>607.48792</ele>
        <time>2023-09-02T14:45:35.000Z</time>
      </trkpt>
      <trkpt lat="45.84837" lon="4.77621">
        <ele>607.2934</ele>
        <time>2023-09-02T14:45:36.000Z</time>
      </trkpt>
      <trkpt lat="45.84833" lon="4.77622">
        <ele>607.09143</ele>
        <time>2023-09-02T14:45:37.000Z</time>
      </trkpt>
      <trkpt lat="45.84826" lon="4.77622">
        <ele>606.93555</ele>
        <time>2023-09-02T14:45:38.000Z</time>
      </trkpt>
      <trkpt lat="45.8482" lon="4.7762">
        <ele>606.78906</ele>
        <time>2023-09-02T14:45:39.000Z</time>
      </trkpt>
      <trkpt lat="45.84814" lon="4.77621">
        <ele>606.65881</ele>
        <time>2023-09-02T14:45:40.000Z</time>
      </trkpt>
      <trkpt lat="45.84808" lon="4.77623">
        <ele>606.52332</ele>
        <time>2023-09-02T14:45:41.000Z</time>
      </trkpt>
      <trkpt lat="45.84802" lon="4.77623">
        <ele>606.41394</ele>
        <time>2023-09-02T14:45:42.000Z</time>
      </trkpt>
      <trkpt lat="45.84797" lon="4.77623">
        <ele>606.26459</ele>
        <time>2023-09-02T14:45:43.000Z</time>
      </trkpt>
      <trkpt lat="45.84791" lon="4.77623">
        <ele>606.1676</ele>
        <time>2023-09-02T14:45:44.000Z</time>
      </trkpt>
      <trkpt lat="45.84785" lon="4.77624">
        <ele>606.086</ele>
        <time>2023-09-02T14:45:45.000Z</time>
      </trkpt>
      <trkpt lat="45.8478" lon="4.77623">
        <ele>605.99341</ele>
        <time>2023-09-02T14:45:46.000Z</time>
      </trkpt>
      <trkpt lat="45.84777" lon="4.77623">
        <ele>605.89783</ele>
        <time>2023-09-02T14:45:47.000Z</time>
      </trkpt>
      <trkpt lat="45.84772" lon="4.77622">
        <ele>605.80518</ele>
        <time>2023-09-02T14:45:48.000Z</time>
      </trkpt>
      <trkpt lat="45.84769" lon="4.77621">
        <ele>604.19495</ele>
        <time>2023-09-02T14:45:49.000Z</time>
      </trkpt>
      <trkpt lat="45.84764" lon="4.7762">
        <ele>602.63977</ele>
        <time>2023-09-02T14:45:50.000Z</time>
      </trkpt>
      <trkpt lat="45.8476" lon="4.77619">
        <ele>601.36432</ele>
        <time>2023-09-02T14:45:51.000Z</time>
      </trkpt>
      <trkpt lat="45.84757" lon="4.77617">
        <ele>600.8432</ele>
        <time>2023-09-02T14:45:52.000Z</time>
      </trkpt>
      <trkpt lat="45.84754" lon="4.77613">
        <ele>600.27332</ele>
        <time>2023-09-02T14:45:53.000Z</time>
      </trkpt>
      <trkpt lat="45.8475" lon="4.77611">
        <ele>599.74377</ele>
        <time>2023-09-02T14:45:54.000Z</time>
      </trkpt>
      <trkpt lat="45.84745" lon="4.7761">
        <ele>599.19855</ele>
        <time>2023-09-02T14:45:55.000Z</time>
      </trkpt>
      <trkpt lat="45.84742" lon="4.77609">
        <ele>598.66089</ele>
        <time>2023-09-02T14:45:56.000Z</time>
      </trkpt>
      <trkpt lat="45.84739" lon="4.77608">
        <ele>597.9657</ele>
        <time>2023-09-02T14:45:57.000Z</time>
      </trkpt>
      <trkpt lat="45.84736" lon="4.77606">
        <ele>597.20154</ele>
        <time>2023-09-02T14:45:58.000Z</time>
      </trkpt>
      <trkpt lat="45.84733" lon="4.77605">
        <ele>596.07739</ele>
        <time>2023-09-02T14:45:59.000Z</time>
      </trkpt>
      <trkpt lat="45.84731" lon="4.77604">
        <ele>594.84344</ele>
        <time>2023-09-02T14:46:00.000Z</time>
      </trkpt>
      <trkpt lat="45.84728" lon="4.77602">
        <ele>594.08435</ele>
        <time>2023-09-02T14:46:01.000Z</time>
      </trkpt>
      <trkpt lat="45.84725" lon="4.77601">
        <ele>593.21588</ele>
        <time>2023-09-02T14:46:02.000Z</time>
      </trkpt>
      <trkpt lat="45.84723" lon="4.77599">
        <ele>592.07159</ele>
        <time>2023-09-02T14:46:03.000Z</time>
      </trkpt>
      <trkpt lat="45.8472" lon="4.77597">
        <ele>591.55829</ele>
        <time>2023-09-02T14:46:04.000Z</time>
      </trkpt>
      <trkpt lat="45.84717" lon="4.77594">
        <ele>590.99957</ele>
        <time>2023-09-02T14:46:05.000Z</time>
      </trkpt>
      <trkpt lat="45.84715" lon="4.77591">
        <ele>590.44861</ele>
        <time>2023-09-02T14:46:06.000Z</time>
      </trkpt>
      <trkpt lat="45.84712" lon="4.77588">
        <ele>589.92279</ele>
        <time>2023-09-02T14:46:07.000Z</time>
      </trkpt>
      <trkpt lat="45.8471" lon="4.77584">
        <ele>589.40021</ele>
        <time>2023-09-02T14:46:08.000Z</time>
      </trkpt>
      <trkpt lat="45.84707" lon="4.77581">
        <ele>590.31653</ele>
        <time>2023-09-02T14:46:09.000Z</time>
      </trkpt>
      <trkpt lat="45.84705" lon="4.77578">
        <ele>591.18365</ele>
        <time>2023-09-02T14:46:10.000Z</time>
      </trkpt>
      <trkpt lat="45.84703" lon="4.77575">
        <ele>591.89166</ele>
        <time>2023-09-02T14:46:11.000Z</time>
      </trkpt>
      <trkpt lat="45.84701" lon="4.77573">
        <ele>591.90881</ele>
        <time>2023-09-02T14:46:12.000Z</time>
      </trkpt>
      <trkpt lat="45.84699" lon="4.77571">
        <ele>592.25494</ele>
        <time>2023-09-02T14:46:13.000Z</time>
      </trkpt>
      <trkpt lat="45.84697" lon="4.7757">
        <ele>592.56042</ele>
        <time>2023-09-02T14:46:14.000Z</time>
      </trkpt>
      <trkpt lat="45.84696" lon="4.77568">
        <ele>592.89044</ele>
        <time>2023-09-02T14:46:15.000Z</time>
      </trkpt>
      <trkpt lat="45.84694" lon="4.77566">
        <ele>593.33118</ele>
        <time>2023-09-02T14:46:16.000Z</time>
      </trkpt>
      <trkpt lat="45.84692" lon="4.77565">
        <ele>593.93073</ele>
        <time>2023-09-02T14:46:17.000Z</time>
      </trkpt>
      <trkpt lat="45.8469" lon="4.77564">
        <ele>594.58966</ele>
        <time>2023-09-02T14:46:18.000Z</time>
      </trkpt>
      <trkpt lat="45.84688" lon="4.77562">
        <ele>595.58173</ele>
        <time>2023-09-02T14:46:19.000Z</time>
      </trkpt>
      <trkpt lat="45.84685" lon="4.77561">
        <ele>596.66882</ele>
        <time>2023-09-02T14:46:20.000Z</time>
      </trkpt>
      <trkpt lat="45.84683" lon="4.77561">
        <ele>597.28699</ele>
        <time>2023-09-02T14:46:21.000Z</time>
      </trkpt>
      <trkpt lat="45.8468" lon="4.7756">
        <ele>598.03357</ele>
        <time>2023-09-02T14:46:22.000Z</time>
      </trkpt>
      <trkpt lat="45.84677" lon="4.7756">
        <ele>599.08215</ele>
        <time>2023-09-02T14:46:23.000Z</time>
      </trkpt>
      <trkpt lat="45.84675" lon="4.7756">
        <ele>599.46741</ele>
        <time>2023-09-02T14:46:24.000Z</time>
      </trkpt>
      <trkpt lat="45.84672" lon="4.7756">
        <ele>599.88403</ele>
        <time>2023-09-02T14:46:25.000Z</time>
      </trkpt>
      <trkpt lat="45.84669" lon="4.77559">
        <ele>600.2951</ele>
        <time>2023-09-02T14:46:26.000Z</time>
      </trkpt>
      <trkpt lat="45.84667" lon="4.77558">
        <ele>600.69128</ele>
        <time>2023-09-02T14:46:27.000Z</time>
      </trkpt>
      <trkpt lat="45.84666" lon="4.77557">
        <ele>601.05261</ele>
        <time>2023-09-02T14:46:50.000Z</time>
      </trkpt>
      <trkpt lat="45.84662" lon="4.77558">
        <ele>601.45715</ele>
        <time>2023-09-02T14:46:52.000Z</time>
      </trkpt>
      <trkpt lat="45.8466" lon="4.77558">
        <ele>601.88586</ele>
        <time>2023-09-02T14:46:53.000Z</time>
      </trkpt>
      <trkpt lat="45.84658" lon="4.77558">
        <ele>602.30139</ele>
        <time>2023-09-02T14:46:54.000Z</time>
      </trkpt>
      <trkpt lat="45.84656" lon="4.77558">
        <ele>602.66559</ele>
        <time>2023-09-02T14:46:55.000Z</time>
      </trkpt>
      <trkpt lat="45.84653" lon="4.77558">
        <ele>602.74127</ele>
        <time>2023-09-02T14:46:56.000Z</time>
      </trkpt>
      <trkpt lat="45.84649" lon="4.77557">
        <ele>602.80646</ele>
        <time>2023-09-02T14:46:57.000Z</time>
      </trkpt>
      <trkpt lat="45.84645" lon="4.77557">
        <ele>602.4552</ele>
        <time>2023-09-02T14:46:58.000Z</time>
      </trkpt>
      <trkpt lat="45.84641" lon="4.77558">
        <ele>602.26471</ele>
        <time>2023-09-02T14:46:59.000Z</time>
      </trkpt>
      <trkpt lat="45.84637" lon="4.77559">
        <ele>601.98792</ele>
        <time>2023-09-02T14:47:00.000Z</time>
      </trkpt>
      <trkpt lat="45.84632" lon="4.7756">
        <ele>601.8468</ele>
        <time>2023-09-02T14:47:01.000Z</time>
      </trkpt>
      <trkpt lat="45.84626" lon="4.77562">
        <ele>601.71301</ele>
        <time>2023-09-02T14:47:02.000Z</time>
      </trkpt>
      <trkpt lat="45.84621" lon="4.77564">
        <ele>601.5813</ele>
        <time>2023-09-02T14:47:03.000Z</time>
      </trkpt>
      <trkpt lat="45.84616" lon="4.77565">
        <ele>601.43988</ele>
        <time>2023-09-02T14:47:04.000Z</time>
      </trkpt>
      <trkpt lat="45.8461" lon="4.77568">
        <ele>601.25403</ele>
        <time>2023-09-02T14:47:05.000Z</time>
      </trkpt>
      <trkpt lat="45.84604" lon="4.7757">
        <ele>601.16174</ele>
        <time>2023-09-02T14:47:06.000Z</time>
      </trkpt>
      <trkpt lat="45.84597" lon="4.77572">
        <ele>601.0542</ele>
        <time>2023-09-02T14:47:07.000Z</time>
      </trkpt>
      <trkpt lat="45.8459" lon="4.77577">
        <ele>600.94061</ele>
        <time>2023-09-02T14:47:08.000Z</time>
      </trkpt>
      <trkpt lat="45.84583" lon="4.7758">
        <ele>600.82318</ele>
        <time>2023-09-02T14:47:09.000Z</time>
      </trkpt>
      <trkpt lat="45.84576" lon="4.77582">
        <ele>600.10773</ele>
        <time>2023-09-02T14:47:10.000Z</time>
      </trkpt>
      <trkpt lat="45.84569" lon="4.77585">
        <ele>599.41937</ele>
        <time>2023-09-02T14:47:11.000Z</time>
      </trkpt>
      <trkpt lat="45.84561" lon="4.7759">
        <ele>598.74658</ele>
        <time>2023-09-02T14:47:12.000Z</time>
      </trkpt>
      <trkpt lat="45.84553" lon="4.77594">
        <ele>598.03827</ele>
        <time>2023-09-02T14:47:13.000Z</time>
      </trkpt>
      <trkpt lat="45.84547" lon="4.77597">
        <ele>597.19513</ele>
        <time>2023-09-02T14:47:14.000Z</time>
      </trkpt>
      <trkpt lat="45.84541" lon="4.77602">
        <ele>596.36749</ele>
        <time>2023-09-02T14:47:15.000Z</time>
      </trkpt>
      <trkpt lat="45.84537" lon="4.77606">
        <ele>595.53339</ele>
        <time>2023-09-02T14:47:16.000Z</time>
      </trkpt>
      <trkpt lat="45.84533" lon="4.7761">
        <ele>594.70129</ele>
        <time>2023-09-02T14:47:17.000Z</time>
      </trkpt>
      <trkpt lat="45.84527" lon="4.77614">
        <ele>594.19446</ele>
        <time>2023-09-02T14:47:18.000Z</time>
      </trkpt>
      <trkpt lat="45.84523" lon="4.77616">
        <ele>593.39246</ele>
        <time>2023-09-02T14:47:19.000Z</time>
      </trkpt>
      <trkpt lat="45.84519" lon="4.77617">
        <ele>592.88599</ele>
        <time>2023-09-02T14:47:20.000Z</time>
      </trkpt>
      <trkpt lat="45.84515" lon="4.77619">
        <ele>592.49744</ele>
        <time>2023-09-02T14:47:21.000Z</time>
      </trkpt>
      <trkpt lat="45.84511" lon="4.7762">
        <ele>592.08136</ele>
        <time>2023-09-02T14:47:22.000Z</time>
      </trkpt>
      <trkpt lat="45.84506" lon="4.77624">
        <ele>591.62195</ele>
        <time>2023-09-02T14:47:23.000Z</time>
      </trkpt>
      <trkpt lat="45.84501" lon="4.77626">
        <ele>591.0946</ele>
        <time>2023-09-02T14:47:24.000Z</time>
      </trkpt>
      <trkpt lat="45.84495" lon="4.77629">
        <ele>590.56525</ele>
        <time>2023-09-02T14:47:25.000Z</time>
      </trkpt>
      <trkpt lat="45.8449" lon="4.77631">
        <ele>589.90417</ele>
        <time>2023-09-02T14:47:26.000Z</time>
      </trkpt>
      <trkpt lat="45.84484" lon="4.77636">
        <ele>588.72253</ele>
        <time>2023-09-02T14:47:27.000Z</time>
      </trkpt>
      <trkpt lat="45.84479" lon="4.77637">
        <ele>587.65271</ele>
        <time>2023-09-02T14:47:28.000Z</time>
      </trkpt>
      <trkpt lat="45.84475" lon="4.77639">
        <ele>586.55505</ele>
        <time>2023-09-02T14:47:29.000Z</time>
      </trkpt>
      <trkpt lat="45.8447" lon="4.77643">
        <ele>585.96472</ele>
        <time>2023-09-02T14:47:30.000Z</time>
      </trkpt>
      <trkpt lat="45.84465" lon="4.77645">
        <ele>585.90411</ele>
        <time>2023-09-02T14:47:31.000Z</time>
      </trkpt>
      <trkpt lat="45.84461" lon="4.77647">
        <ele>585.83221</ele>
        <time>2023-09-02T14:47:32.000Z</time>
      </trkpt>
      <trkpt lat="45.84456" lon="4.7765">
        <ele>585.7973</ele>
        <time>2023-09-02T14:47:33.000Z</time>
      </trkpt>
      <trkpt lat="45.84452" lon="4.77652">
        <ele>585.79651</ele>
        <time>2023-09-02T14:47:34.000Z</time>
      </trkpt>
      <trkpt lat="45.84446" lon="4.77654">
        <ele>585.84027</ele>
        <time>2023-09-02T14:47:35.000Z</time>
      </trkpt>
      <trkpt lat="45.84441" lon="4.77658">
        <ele>585.89734</ele>
        <time>2023-09-02T14:47:36.000Z</time>
      </trkpt>
      <trkpt lat="45.84436" lon="4.77661">
        <ele>585.92053</ele>
        <time>2023-09-02T14:47:37.000Z</time>
      </trkpt>
      <trkpt lat="45.84432" lon="4.77665">
        <ele>586.21399</ele>
        <time>2023-09-02T14:47:38.000Z</time>
      </trkpt>
      <trkpt lat="45.84429" lon="4.77667">
        <ele>586.56848</ele>
        <time>2023-09-02T14:47:39.000Z</time>
      </trkpt>
      <trkpt lat="45.84426" lon="4.7767">
        <ele>586.53564</ele>
        <time>2023-09-02T14:47:40.000Z</time>
      </trkpt>
      <trkpt lat="45.84421" lon="4.77673">
        <ele>586.19202</ele>
        <time>2023-09-02T14:47:41.000Z</time>
      </trkpt>
      <trkpt lat="45.84416" lon="4.77677">
        <ele>585.76563</ele>
        <time>2023-09-02T14:47:42.000Z</time>
      </trkpt>
      <trkpt lat="45.84412" lon="4.77679">
        <ele>584.78235</ele>
        <time>2023-09-02T14:47:43.000Z</time>
      </trkpt>
      <trkpt lat="45.84408" lon="4.7768">
        <ele>584.6366</ele>
        <time>2023-09-02T14:47:44.000Z</time>
      </trkpt>
      <trkpt lat="45.84403" lon="4.77683">
        <ele>584.54425</ele>
        <time>2023-09-02T14:47:45.000Z</time>
      </trkpt>
      <trkpt lat="45.84398" lon="4.77684">
        <ele>584.36981</ele>
        <time>2023-09-02T14:47:46.000Z</time>
      </trkpt>
      <trkpt lat="45.84393" lon="4.77687">
        <ele>584.71179</ele>
        <time>2023-09-02T14:47:47.000Z</time>
      </trkpt>
      <trkpt lat="45.84388" lon="4.77692">
        <ele>584.96454</ele>
        <time>2023-09-02T14:47:48.000Z</time>
      </trkpt>
      <trkpt lat="45.84382" lon="4.77695">
        <ele>585.26337</ele>
        <time>2023-09-02T14:47:49.000Z</time>
      </trkpt>
      <trkpt lat="45.84378" lon="4.77695">
        <ele>585.80652</ele>
        <time>2023-09-02T14:47:50.000Z</time>
      </trkpt>
      <trkpt lat="45.84373" lon="4.77697">
        <ele>585.61243</ele>
        <time>2023-09-02T14:47:51.000Z</time>
      </trkpt>
      <trkpt lat="45.8437" lon="4.77698">
        <ele>585.51233</ele>
        <time>2023-09-02T14:47:52.000Z</time>
      </trkpt>
      <trkpt lat="45.84368" lon="4.777">
        <ele>585.40253</ele>
        <time>2023-09-02T14:47:53.000Z</time>
      </trkpt>
      <trkpt lat="45.84365" lon="4.77701">
        <ele>585.38281</ele>
        <time>2023-09-02T14:47:54.000Z</time>
      </trkpt>
      <trkpt lat="45.84363" lon="4.77703">
        <ele>585.30719</ele>
        <time>2023-09-02T14:47:55.000Z</time>
      </trkpt>
      <trkpt lat="45.84359" lon="4.77706">
        <ele>585.23474</ele>
        <time>2023-09-02T14:47:56.000Z</time>
      </trkpt>
      <trkpt lat="45.84355" lon="4.77708">
        <ele>581.84253</ele>
        <time>2023-09-02T14:47:57.000Z</time>
      </trkpt>
      <trkpt lat="45.84352" lon="4.7771">
        <ele>580.67975</ele>
        <time>2023-09-02T14:47:58.000Z</time>
      </trkpt>
      <trkpt lat="45.84349" lon="4.7771">
        <ele>579.36493</ele>
        <time>2023-09-02T14:47:59.000Z</time>
      </trkpt>
      <trkpt lat="45.84345" lon="4.77711">
        <ele>578.1908</ele>
        <time>2023-09-02T14:48:00.000Z</time>
      </trkpt>
      <trkpt lat="45.84341" lon="4.77712">
        <ele>576.98273</ele>
        <time>2023-09-02T14:48:01.000Z</time>
      </trkpt>
      <trkpt lat="45.84338" lon="4.77713">
        <ele>575.86835</ele>
        <time>2023-09-02T14:48:02.000Z</time>
      </trkpt>
      <trkpt lat="45.84334" lon="4.77714">
        <ele>575.57031</ele>
        <time>2023-09-02T14:48:03.000Z</time>
      </trkpt>
      <trkpt lat="45.8433" lon="4.77715">
        <ele>574.41248</ele>
        <time>2023-09-02T14:48:04.000Z</time>
      </trkpt>
      <trkpt lat="45.84328" lon="4.77716">
        <ele>573.15338</ele>
        <time>2023-09-02T14:48:05.000Z</time>
      </trkpt>
      <trkpt lat="45.84325" lon="4.77717">
        <ele>572.58386</ele>
        <time>2023-09-02T14:48:06.000Z</time>
      </trkpt>
      <trkpt lat="45.84322" lon="4.77719">
        <ele>571.99451</ele>
        <time>2023-09-02T14:48:07.000Z</time>
      </trkpt>
      <trkpt lat="45.84317" lon="4.77721">
        <ele>571.35864</ele>
        <time>2023-09-02T14:48:08.000Z</time>
      </trkpt>
      <trkpt lat="45.84313" lon="4.77722">
        <ele>570.67834</ele>
        <time>2023-09-02T14:48:09.000Z</time>
      </trkpt>
      <trkpt lat="45.84309" lon="4.77725">
        <ele>569.80481</ele>
        <time>2023-09-02T14:48:10.000Z</time>
      </trkpt>
      <trkpt lat="45.84305" lon="4.77727">
        <ele>568.43097</ele>
        <time>2023-09-02T14:48:11.000Z</time>
      </trkpt>
      <trkpt lat="45.843" lon="4.77729">
        <ele>566.96619</ele>
        <time>2023-09-02T14:48:12.000Z</time>
      </trkpt>
      <trkpt lat="45.84296" lon="4.77729">
        <ele>565.51666</ele>
        <time>2023-09-02T14:48:13.000Z</time>
      </trkpt>
      <trkpt lat="45.84292" lon="4.7773">
        <ele>564.07092</ele>
        <time>2023-09-02T14:48:14.000Z</time>
      </trkpt>
      <trkpt lat="45.84288" lon="4.7773">
        <ele>562.61841</ele>
        <time>2023-09-02T14:48:15.000Z</time>
      </trkpt>
      <trkpt lat="45.84282" lon="4.77731">
        <ele>561.15851</ele>
        <time>2023-09-02T14:48:16.000Z</time>
      </trkpt>
      <trkpt lat="45.84278" lon="4.77733">
        <ele>562.99066</ele>
        <time>2023-09-02T14:48:17.000Z</time>
      </trkpt>
      <trkpt lat="45.84274" lon="4.77735">
        <ele>562.42267</ele>
        <time>2023-09-02T14:48:18.000Z</time>
      </trkpt>
      <trkpt lat="45.8427" lon="4.77736">
        <ele>561.98328</ele>
        <time>2023-09-02T14:48:19.000Z</time>
      </trkpt>
      <trkpt lat="45.84267" lon="4.77738">
        <ele>561.57727</ele>
        <time>2023-09-02T14:48:20.000Z</time>
      </trkpt>
      <trkpt lat="45.84262" lon="4.7774">
        <ele>561.25922</ele>
        <time>2023-09-02T14:48:21.000Z</time>
      </trkpt>
      <trkpt lat="45.8426" lon="4.7774">
        <ele>560.91901</ele>
        <time>2023-09-02T14:48:22.000Z</time>
      </trkpt>
      <trkpt lat="45.84258" lon="4.77742">
        <ele>560.37207</ele>
        <time>2023-09-02T14:48:23.000Z</time>
      </trkpt>
      <trkpt lat="45.84255" lon="4.77744">
        <ele>559.88623</ele>
        <time>2023-09-02T14:48:24.000Z</time>
      </trkpt>
      <trkpt lat="45.84251" lon="4.77747">
        <ele>559.4986</ele>
        <time>2023-09-02T14:48:25.000Z</time>
      </trkpt>
      <trkpt lat="45.84247" lon="4.7775">
        <ele>558.57275</ele>
        <time>2023-09-02T14:48:26.000Z</time>
      </trkpt>
      <trkpt lat="45.84243" lon="4.77751">
        <ele>557.87219</ele>
        <time>2023-09-02T14:48:27.000Z</time>
      </trkpt>
      <trkpt lat="45.8424" lon="4.77753">
        <ele>557.16608</ele>
        <time>2023-09-02T14:48:28.000Z</time>
      </trkpt>
      <trkpt lat="45.84237" lon="4.77755">
        <ele>556.45642</ele>
        <time>2023-09-02T14:48:29.000Z</time>
      </trkpt>
      <trkpt lat="45.84234" lon="4.77757">
        <ele>555.7453</ele>
        <time>2023-09-02T14:48:30.000Z</time>
      </trkpt>
      <trkpt lat="45.8423" lon="4.77757">
        <ele>555.71594</ele>
        <time>2023-09-02T14:48:31.000Z</time>
      </trkpt>
      <trkpt lat="45.84227" lon="4.77756">
        <ele>552.57928</ele>
        <time>2023-09-02T14:48:32.000Z</time>
      </trkpt>
      <trkpt lat="45.84223" lon="4.77755">
        <ele>552.38214</ele>
        <time>2023-09-02T14:48:33.000Z</time>
      </trkpt>
      <trkpt lat="45.84216" lon="4.77754">
        <ele>552.17682</ele>
        <time>2023-09-02T14:48:34.000Z</time>
      </trkpt>
      <trkpt lat="45.84209" lon="4.77755">
        <ele>551.96899</ele>
        <time>2023-09-02T14:48:35.000Z</time>
      </trkpt>
      <trkpt lat="45.84205" lon="4.77756">
        <ele>551.76196</ele>
        <time>2023-09-02T14:48:36.000Z</time>
      </trkpt>
      <trkpt lat="45.84199" lon="4.77755">
        <ele>551.61523</ele>
        <time>2023-09-02T14:48:37.000Z</time>
      </trkpt>
      <trkpt lat="45.84194" lon="4.77757">
        <ele>547.84448</ele>
        <time>2023-09-02T14:48:38.000Z</time>
      </trkpt>
      <trkpt lat="45.84189" lon="4.77759">
        <ele>547.47229</ele>
        <time>2023-09-02T14:48:39.000Z</time>
      </trkpt>
      <trkpt lat="45.84186" lon="4.77759">
        <ele>547.07141</ele>
        <time>2023-09-02T14:48:40.000Z</time>
      </trkpt>
      <trkpt lat="45.84179" lon="4.77762">
        <ele>546.65875</ele>
        <time>2023-09-02T14:48:41.000Z</time>
      </trkpt>
      <trkpt lat="45.84173" lon="4.77762">
        <ele>546.27417</ele>
        <time>2023-09-02T14:48:42.000Z</time>
      </trkpt>
      <trkpt lat="45.84168" lon="4.77763">
        <ele>545.86511</ele>
        <time>2023-09-02T14:48:43.000Z</time>
      </trkpt>
      <trkpt lat="45.84166" lon="4.77762">
        <ele>541.09723</ele>
        <time>2023-09-02T14:48:44.000Z</time>
      </trkpt>
      <trkpt lat="45.84162" lon="4.77764">
        <ele>540.4502</ele>
        <time>2023-09-02T14:48:45.000Z</time>
      </trkpt>
      <trkpt lat="45.84158" lon="4.77764">
        <ele>539.74084</ele>
        <time>2023-09-02T14:48:46.000Z</time>
      </trkpt>
      <trkpt lat="45.84154" lon="4.77767">
        <ele>538.79926</ele>
        <time>2023-09-02T14:48:47.000Z</time>
      </trkpt>
      <trkpt lat="45.84151" lon="4.77769">
        <ele>537.84558</ele>
        <time>2023-09-02T14:48:48.000Z</time>
      </trkpt>
      <trkpt lat="45.84148" lon="4.77773">
        <ele>536.87958</ele>
        <time>2023-09-02T14:48:49.000Z</time>
      </trkpt>
      <trkpt lat="45.84143" lon="4.77776">
        <ele>533.06616</ele>
        <time>2023-09-02T14:48:50.000Z</time>
      </trkpt>
      <trkpt lat="45.84139" lon="4.77779">
        <ele>531.93225</ele>
        <time>2023-09-02T14:48:51.000Z</time>
      </trkpt>
      <trkpt lat="45.84136" lon="4.77781">
        <ele>533.84973</ele>
        <time>2023-09-02T14:48:52.000Z</time>
      </trkpt>
      <trkpt lat="45.84133" lon="4.77782">
        <ele>532.91321</ele>
        <time>2023-09-02T14:48:53.000Z</time>
      </trkpt>
      <trkpt lat="45.8413" lon="4.77783">
        <ele>531.93982</ele>
        <time>2023-09-02T14:48:54.000Z</time>
      </trkpt>
      <trkpt lat="45.84126" lon="4.77783">
        <ele>530.92792</ele>
        <time>2023-09-02T14:48:55.000Z</time>
      </trkpt>
      <trkpt lat="45.84122" lon="4.77782">
        <ele>527.8371</ele>
        <time>2023-09-02T14:48:56.000Z</time>
      </trkpt>
      <trkpt lat="45.84118" lon="4.77781">
        <ele>526.64087</ele>
        <time>2023-09-02T14:48:57.000Z</time>
      </trkpt>
      <trkpt lat="45.84112" lon="4.77783">
        <ele>528.99255</ele>
        <time>2023-09-02T14:48:58.000Z</time>
      </trkpt>
      <trkpt lat="45.84106" lon="4.77784">
        <ele>528.04993</ele>
        <time>2023-09-02T14:48:59.000Z</time>
      </trkpt>
      <trkpt lat="45.84102" lon="4.77785">
        <ele>527.0788</ele>
        <time>2023-09-02T14:49:00.000Z</time>
      </trkpt>
      <trkpt lat="45.84098" lon="4.77786">
        <ele>526.07922</ele>
        <time>2023-09-02T14:49:01.000Z</time>
      </trkpt>
      <trkpt lat="45.84095" lon="4.77786">
        <ele>522.73383</ele>
        <time>2023-09-02T14:49:02.000Z</time>
      </trkpt>
      <trkpt lat="45.84092" lon="4.77787">
        <ele>521.55676</ele>
        <time>2023-09-02T14:49:03.000Z</time>
      </trkpt>
      <trkpt lat="45.84089" lon="4.77786">
        <ele>524.73077</ele>
        <time>2023-09-02T14:49:04.000Z</time>
      </trkpt>
      <trkpt lat="45.84086" lon="4.77787">
        <ele>523.91241</ele>
        <time>2023-09-02T14:49:05.000Z</time>
      </trkpt>
      <trkpt lat="45.84082" lon="4.77787">
        <ele>523.08551</ele>
        <time>2023-09-02T14:49:06.000Z</time>
      </trkpt>
      <trkpt lat="45.8408" lon="4.77785">
        <ele>522.25275</ele>
        <time>2023-09-02T14:49:07.000Z</time>
      </trkpt>
      <trkpt lat="45.84077" lon="4.77784">
        <ele>519.55139</ele>
        <time>2023-09-02T14:49:08.000Z</time>
      </trkpt>
      <trkpt lat="45.84075" lon="4.77782">
        <ele>518.63672</ele>
        <time>2023-09-02T14:49:09.000Z</time>
      </trkpt>
      <trkpt lat="45.84073" lon="4.77779">
        <ele>519.55615</ele>
        <time>2023-09-02T14:49:11.000Z</time>
      </trkpt>
      <trkpt lat="45.84071" lon="4.77779">
        <ele>517.67792</ele>
        <time>2023-09-02T14:49:12.000Z</time>
      </trkpt>
      <trkpt lat="45.84068" lon="4.7778">
        <ele>515.59729</ele>
        <time>2023-09-02T14:49:13.000Z</time>
      </trkpt>
      <trkpt lat="45.84066" lon="4.77782">
        <ele>513.25604</ele>
        <time>2023-09-02T14:49:14.000Z</time>
      </trkpt>
      <trkpt lat="45.84065" lon="4.77785">
        <ele>510.92511</ele>
        <time>2023-09-02T14:49:15.000Z</time>
      </trkpt>
      <trkpt lat="45.84063" lon="4.77787">
        <ele>508.61554</ele>
        <time>2023-09-02T14:49:16.000Z</time>
      </trkpt>
      <trkpt lat="45.84059" lon="4.77789">
        <ele>508.39917</ele>
        <time>2023-09-02T14:49:17.000Z</time>
      </trkpt>
      <trkpt lat="45.84056" lon="4.7779">
        <ele>506.1723</ele>
        <time>2023-09-02T14:49:18.000Z</time>
      </trkpt>
      <trkpt lat="45.84053" lon="4.77792">
        <ele>504.03912</ele>
        <time>2023-09-02T14:49:19.000Z</time>
      </trkpt>
      <trkpt lat="45.84049" lon="4.77793">
        <ele>501.77216</ele>
        <time>2023-09-02T14:49:20.000Z</time>
      </trkpt>
      <trkpt lat="45.84046" lon="4.77794">
        <ele>499.63647</ele>
        <time>2023-09-02T14:49:21.000Z</time>
      </trkpt>
      <trkpt lat="45.84042" lon="4.77796">
        <ele>497.21576</ele>
        <time>2023-09-02T14:49:22.000Z</time>
      </trkpt>
      <trkpt lat="45.84038" lon="4.77798">
        <ele>496.98834</ele>
        <time>2023-09-02T14:49:23.000Z</time>
      </trkpt>
      <trkpt lat="45.84035" lon="4.77799">
        <ele>494.71329</ele>
        <time>2023-09-02T14:49:24.000Z</time>
      </trkpt>
      <trkpt lat="45.84032" lon="4.778">
        <ele>492.31244</ele>
        <time>2023-09-02T14:49:25.000Z</time>
      </trkpt>
      <trkpt lat="45.84027" lon="4.77801">
        <ele>489.63116</ele>
        <time>2023-09-02T14:49:26.000Z</time>
      </trkpt>
      <trkpt lat="45.84022" lon="4.778">
        <ele>487.13428</ele>
        <time>2023-09-02T14:49:27.000Z</time>
      </trkpt>
      <trkpt lat="45.84017" lon="4.77799">
        <ele>484.73834</ele>
        <time>2023-09-02T14:49:28.000Z</time>
      </trkpt>
      <trkpt lat="45.84011" lon="4.77798">
        <ele>484.31354</ele>
        <time>2023-09-02T14:49:29.000Z</time>
      </trkpt>
      <trkpt lat="45.84005" lon="4.77797">
        <ele>482.11215</ele>
        <time>2023-09-02T14:49:30.000Z</time>
      </trkpt>
      <trkpt lat="45.83999" lon="4.77797">
        <ele>480.76825</ele>
        <time>2023-09-02T14:49:31.000Z</time>
      </trkpt>
      <trkpt lat="45.83991" lon="4.77798">
        <ele>479.69565</ele>
        <time>2023-09-02T14:49:32.000Z</time>
      </trkpt>
      <trkpt lat="45.83984" lon="4.77798">
        <ele>478.9982</ele>
        <time>2023-09-02T14:49:33.000Z</time>
      </trkpt>
      <trkpt lat="45.83977" lon="4.77799">
        <ele>478.33853</ele>
        <time>2023-09-02T14:49:34.000Z</time>
      </trkpt>
      <trkpt lat="45.83967" lon="4.77803">
        <ele>477.65411</ele>
        <time>2023-09-02T14:49:35.000Z</time>
      </trkpt>
      <trkpt lat="45.8396" lon="4.77803">
        <ele>476.45709</ele>
        <time>2023-09-02T14:49:36.000Z</time>
      </trkpt>
      <trkpt lat="45.83952" lon="4.77802">
        <ele>475.33383</ele>
        <time>2023-09-02T14:49:37.000Z</time>
      </trkpt>
      <trkpt lat="45.83943" lon="4.77801">
        <ele>474.55762</ele>
        <time>2023-09-02T14:49:38.000Z</time>
      </trkpt>
      <trkpt lat="45.83935" lon="4.77801">
        <ele>473.57855</ele>
        <time>2023-09-02T14:49:39.000Z</time>
      </trkpt>
      <trkpt lat="45.83925" lon="4.77802">
        <ele>473.2579</ele>
        <time>2023-09-02T14:49:40.000Z</time>
      </trkpt>
      <trkpt lat="45.83916" lon="4.77803">
        <ele>472.65399</ele>
        <time>2023-09-02T14:49:41.000Z</time>
      </trkpt>
      <trkpt lat="45.83906" lon="4.77803">
        <ele>472.35345</ele>
        <time>2023-09-02T14:49:42.000Z</time>
      </trkpt>
      <trkpt lat="45.83898" lon="4.77803">
        <ele>472.211</ele>
        <time>2023-09-02T14:49:43.000Z</time>
      </trkpt>
      <trkpt lat="45.83888" lon="4.77804">
        <ele>471.9599</ele>
        <time>2023-09-02T14:49:44.000Z</time>
      </trkpt>
      <trkpt lat="45.83878" lon="4.77804">
        <ele>471.88092</ele>
        <time>2023-09-02T14:49:45.000Z</time>
      </trkpt>
      <trkpt lat="45.83868" lon="4.77805">
        <ele>473.93375</ele>
        <time>2023-09-02T14:49:46.000Z</time>
      </trkpt>
      <trkpt lat="45.83859" lon="4.77801">
        <ele>475.37518</ele>
        <time>2023-09-02T14:49:47.000Z</time>
      </trkpt>
      <trkpt lat="45.83849" lon="4.77796">
        <ele>476.77539</ele>
        <time>2023-09-02T14:49:48.000Z</time>
      </trkpt>
      <trkpt lat="45.83841" lon="4.77787">
        <ele>478.05573</ele>
        <time>2023-09-02T14:49:49.000Z</time>
      </trkpt>
      <trkpt lat="45.83833" lon="4.77779">
        <ele>479.33374</ele>
        <time>2023-09-02T14:49:50.000Z</time>
      </trkpt>
      <trkpt lat="45.83826" lon="4.77767">
        <ele>480.79312</ele>
        <time>2023-09-02T14:49:51.000Z</time>
      </trkpt>
      <trkpt lat="45.8382" lon="4.77753">
        <ele>482.06244</ele>
        <time>2023-09-02T14:49:52.000Z</time>
      </trkpt>
      <trkpt lat="45.83816" lon="4.7774">
        <ele>483.20514</ele>
        <time>2023-09-02T14:49:53.000Z</time>
      </trkpt>
      <trkpt lat="45.83814" lon="4.77722">
        <ele>484.40976</ele>
        <time>2023-09-02T14:49:54.000Z</time>
      </trkpt>
      <trkpt lat="45.8381" lon="4.77707">
        <ele>485.63681</ele>
        <time>2023-09-02T14:49:55.000Z</time>
      </trkpt>
      <trkpt lat="45.83807" lon="4.77693">
        <ele>487.38931</ele>
        <time>2023-09-02T14:49:56.000Z</time>
      </trkpt>
      <trkpt lat="45.83803" lon="4.77677">
        <ele>489.03696</ele>
        <time>2023-09-02T14:49:57.000Z</time>
      </trkpt>
      <trkpt lat="45.838" lon="4.77661">
        <ele>490.34375</ele>
        <time>2023-09-02T14:49:58.000Z</time>
      </trkpt>
      <trkpt lat="45.83797" lon="4.77645">
        <ele>491.82407</ele>
        <time>2023-09-02T14:49:59.000Z</time>
      </trkpt>
      <trkpt lat="45.83792" lon="4.7763">
        <ele>492.66837</ele>
        <time>2023-09-02T14:50:00.000Z</time>
      </trkpt>
      <trkpt lat="45.83787" lon="4.77614">
        <ele>493.67456</ele>
        <time>2023-09-02T14:50:01.000Z</time>
      </trkpt>
      <trkpt lat="45.83782" lon="4.77599">
        <ele>494.99472</ele>
        <time>2023-09-02T14:50:02.000Z</time>
      </trkpt>
      <trkpt lat="45.83779" lon="4.77583">
        <ele>496.27588</ele>
        <time>2023-09-02T14:50:03.000Z</time>
      </trkpt>
      <trkpt lat="45.83777" lon="4.77567">
        <ele>497.52872</ele>
        <time>2023-09-02T14:50:04.000Z</time>
      </trkpt>
      <trkpt lat="45.83775" lon="4.77552">
        <ele>498.82535</ele>
        <time>2023-09-02T14:50:05.000Z</time>
      </trkpt>
      <trkpt lat="45.83775" lon="4.77536">
        <ele>498.08896</ele>
        <time>2023-09-02T14:50:06.000Z</time>
      </trkpt>
      <trkpt lat="45.83773" lon="4.77522">
        <ele>497.8147</ele>
        <time>2023-09-02T14:50:07.000Z</time>
      </trkpt>
      <trkpt lat="45.8377" lon="4.77509">
        <ele>497.46796</ele>
        <time>2023-09-02T14:50:08.000Z</time>
      </trkpt>
      <trkpt lat="45.83765" lon="4.77498">
        <ele>497.12891</ele>
        <time>2023-09-02T14:50:09.000Z</time>
      </trkpt>
      <trkpt lat="45.8376" lon="4.77488">
        <ele>496.82397</ele>
        <time>2023-09-02T14:50:10.000Z</time>
      </trkpt>
      <trkpt lat="45.83757" lon="4.77478">
        <ele>496.52188</ele>
        <time>2023-09-02T14:50:11.000Z</time>
      </trkpt>
      <trkpt lat="45.83754" lon="4.77467">
        <ele>496.25497</ele>
        <time>2023-09-02T14:50:12.000Z</time>
      </trkpt>
      <trkpt lat="45.83753" lon="4.77456">
        <ele>495.86115</ele>
        <time>2023-09-02T14:50:13.000Z</time>
      </trkpt>
      <trkpt lat="45.83755" lon="4.77444">
        <ele>495.44058</ele>
        <time>2023-09-02T14:50:14.000Z</time>
      </trkpt>
      <trkpt lat="45.83758" lon="4.77433">
        <ele>495.01587</ele>
        <time>2023-09-02T14:50:15.000Z</time>
      </trkpt>
      <trkpt lat="45.83762" lon="4.77423">
        <ele>494.82626</ele>
        <time>2023-09-02T14:50:16.000Z</time>
      </trkpt>
      <trkpt lat="45.83768" lon="4.77414">
        <ele>494.69693</ele>
        <time>2023-09-02T14:50:17.000Z</time>
      </trkpt>
      <trkpt lat="45.83774" lon="4.77405">
        <ele>494.34564</ele>
        <time>2023-09-02T14:50:18.000Z</time>
      </trkpt>
      <trkpt lat="45.8378" lon="4.77396">
        <ele>494.03574</ele>
        <time>2023-09-02T14:50:19.000Z</time>
      </trkpt>
      <trkpt lat="45.83786" lon="4.77389">
        <ele>493.69141</ele>
        <time>2023-09-02T14:50:20.000Z</time>
      </trkpt>
      <trkpt lat="45.83792" lon="4.7738">
        <ele>493.40265</ele>
        <time>2023-09-02T14:50:21.000Z</time>
      </trkpt>
      <trkpt lat="45.83798" lon="4.77371">
        <ele>492.42316</ele>
        <time>2023-09-02T14:50:22.000Z</time>
      </trkpt>
      <trkpt lat="45.83805" lon="4.77366">
        <ele>491.86172</ele>
        <time>2023-09-02T14:50:23.000Z</time>
      </trkpt>
      <trkpt lat="45.8381" lon="4.77358">
        <ele>491.32159</ele>
        <time>2023-09-02T14:50:24.000Z</time>
      </trkpt>
      <trkpt lat="45.83815" lon="4.77351">
        <ele>491.75653</ele>
        <time>2023-09-02T14:50:25.000Z</time>
      </trkpt>
      <trkpt lat="45.83819" lon="4.77342">
        <ele>491.75522</ele>
        <time>2023-09-02T14:50:26.000Z</time>
      </trkpt>
      <trkpt lat="45.83819" lon="4.77332">
        <ele>492.45581</ele>
        <time>2023-09-02T14:50:27.000Z</time>
      </trkpt>
      <trkpt lat="45.83816" lon="4.77325">
        <ele>493.1413</ele>
        <time>2023-09-02T14:50:28.000Z</time>
      </trkpt>
      <trkpt lat="45.83812" lon="4.77318">
        <ele>493.87534</ele>
        <time>2023-09-02T14:50:29.000Z</time>
      </trkpt>
      <trkpt lat="45.83807" lon="4.7731">
        <ele>493.81976</ele>
        <time>2023-09-02T14:50:30.000Z</time>
      </trkpt>
      <trkpt lat="45.83803" lon="4.77302">
        <ele>493.87054</ele>
        <time>2023-09-02T14:50:31.000Z</time>
      </trkpt>
      <trkpt lat="45.83798" lon="4.77293">
        <ele>493.94147</ele>
        <time>2023-09-02T14:50:32.000Z</time>
      </trkpt>
      <trkpt lat="45.83795" lon="4.77285">
        <ele>493.24609</ele>
        <time>2023-09-02T14:50:33.000Z</time>
      </trkpt>
      <trkpt lat="45.8379" lon="4.77275">
        <ele>492.64014</ele>
        <time>2023-09-02T14:50:34.000Z</time>
      </trkpt>
      <trkpt lat="45.83786" lon="4.77262">
        <ele>492.15985</ele>
        <time>2023-09-02T14:50:35.000Z</time>
      </trkpt>
      <trkpt lat="45.83781" lon="4.77251">
        <ele>491.74649</ele>
        <time>2023-09-02T14:50:36.000Z</time>
      </trkpt>
      <trkpt lat="45.83777" lon="4.7724">
        <ele>491.27042</ele>
        <time>2023-09-02T14:50:37.000Z</time>
      </trkpt>
      <trkpt lat="45.83774" lon="4.7723">
        <ele>491.11206</ele>
        <time>2023-09-02T14:50:38.000Z</time>
      </trkpt>
      <trkpt lat="45.83773" lon="4.7722">
        <ele>491.01334</ele>
        <time>2023-09-02T14:50:39.000Z</time>
      </trkpt>
      <trkpt lat="45.83771" lon="4.7721">
        <ele>490.931</ele>
        <time>2023-09-02T14:50:40.000Z</time>
      </trkpt>
      <trkpt lat="45.8377" lon="4.77201">
        <ele>490.33759</ele>
        <time>2023-09-02T14:50:41.000Z</time>
      </trkpt>
      <trkpt lat="45.8377" lon="4.77193">
        <ele>490.22223</ele>
        <time>2023-09-02T14:50:42.000Z</time>
      </trkpt>
      <trkpt lat="45.83772" lon="4.77186">
        <ele>489.74014</ele>
        <time>2023-09-02T14:50:43.000Z</time>
      </trkpt>
      <trkpt lat="45.83774" lon="4.77182">
        <ele>489.26166</ele>
        <time>2023-09-02T14:50:44.000Z</time>
      </trkpt>
      <trkpt lat="45.83776" lon="4.77177">
        <ele>487.78351</ele>
        <time>2023-09-02T14:50:45.000Z</time>
      </trkpt>
      <trkpt lat="45.83775" lon="4.77172">
        <ele>486.74545</ele>
        <time>2023-09-02T14:50:46.000Z</time>
      </trkpt>
      <trkpt lat="45.83774" lon="4.77168">
        <ele>485.00684</ele>
        <time>2023-09-02T14:50:47.000Z</time>
      </trkpt>
      <trkpt lat="45.83772" lon="4.77167">
        <ele>483.3089</ele>
        <time>2023-09-02T14:50:48.000Z</time>
      </trkpt>
      <trkpt lat="45.83769" lon="4.77166">
        <ele>481.87726</ele>
        <time>2023-09-02T14:50:49.000Z</time>
      </trkpt>
      <trkpt lat="45.83767" lon="4.77164">
        <ele>481.23203</ele>
        <time>2023-09-02T14:50:50.000Z</time>
      </trkpt>
      <trkpt lat="45.83765" lon="4.77159">
        <ele>480.50067</ele>
        <time>2023-09-02T14:50:52.000Z</time>
      </trkpt>
      <trkpt lat="45.83764" lon="4.77156">
        <ele>479.74991</ele>
        <time>2023-09-02T14:50:53.000Z</time>
      </trkpt>
      <trkpt lat="45.83763" lon="4.77153">
        <ele>479.86539</ele>
        <time>2023-09-02T14:50:54.000Z</time>
      </trkpt>
      <trkpt lat="45.83762" lon="4.77149">
        <ele>480.1817</ele>
        <time>2023-09-02T14:50:55.000Z</time>
      </trkpt>
      <trkpt lat="45.8376" lon="4.77143">
        <ele>479.71298</ele>
        <time>2023-09-02T14:50:56.000Z</time>
      </trkpt>
      <trkpt lat="45.83759" lon="4.77137">
        <ele>478.67169</ele>
        <time>2023-09-02T14:50:57.000Z</time>
      </trkpt>
      <trkpt lat="45.83759" lon="4.77129">
        <ele>477.54834</ele>
        <time>2023-09-02T14:50:58.000Z</time>
      </trkpt>
      <trkpt lat="45.83759" lon="4.77121">
        <ele>477.23984</ele>
        <time>2023-09-02T14:50:59.000Z</time>
      </trkpt>
      <trkpt lat="45.83759" lon="4.77113">
        <ele>476.81039</ele>
        <time>2023-09-02T14:51:00.000Z</time>
      </trkpt>
      <trkpt lat="45.8376" lon="4.77104">
        <ele>476.37128</ele>
        <time>2023-09-02T14:51:01.000Z</time>
      </trkpt>
      <trkpt lat="45.83759" lon="4.77097">
        <ele>476.40292</ele>
        <time>2023-09-02T14:51:02.000Z</time>
      </trkpt>
      <trkpt lat="45.83758" lon="4.77088">
        <ele>477.67316</ele>
        <time>2023-09-02T14:51:03.000Z</time>
      </trkpt>
      <trkpt lat="45.83759" lon="4.77078">
        <ele>476.8252</ele>
        <time>2023-09-02T14:51:04.000Z</time>
      </trkpt>
      <trkpt lat="45.83758" lon="4.77068">
        <ele>475.96298</ele>
        <time>2023-09-02T14:51:05.000Z</time>
      </trkpt>
      <trkpt lat="45.83756" lon="4.77059">
        <ele>474.98438</ele>
        <time>2023-09-02T14:51:06.000Z</time>
      </trkpt>
      <trkpt lat="45.83754" lon="4.77052">
        <ele>474.06436</ele>
        <time>2023-09-02T14:51:07.000Z</time>
      </trkpt>
      <trkpt lat="45.83754" lon="4.77044">
        <ele>473.12433</ele>
        <time>2023-09-02T14:51:08.000Z</time>
      </trkpt>
      <trkpt lat="45.83753" lon="4.77037">
        <ele>472.20728</ele>
        <time>2023-09-02T14:51:09.000Z</time>
      </trkpt>
      <trkpt lat="45.83751" lon="4.77032">
        <ele>470.89935</ele>
        <time>2023-09-02T14:51:10.000Z</time>
      </trkpt>
      <trkpt lat="45.8375" lon="4.77024">
        <ele>469.56583</ele>
        <time>2023-09-02T14:51:11.000Z</time>
      </trkpt>
      <trkpt lat="45.83748" lon="4.77018">
        <ele>468.20615</ele>
        <time>2023-09-02T14:51:12.000Z</time>
      </trkpt>
      <trkpt lat="45.83745" lon="4.77012">
        <ele>466.90607</ele>
        <time>2023-09-02T14:51:13.000Z</time>
      </trkpt>
      <trkpt lat="45.83743" lon="4.77005">
        <ele>465.67642</ele>
        <time>2023-09-02T14:51:14.000Z</time>
      </trkpt>
      <trkpt lat="45.8374" lon="4.76998">
        <ele>464.20856</ele>
        <time>2023-09-02T14:51:15.000Z</time>
      </trkpt>
      <trkpt lat="45.83737" lon="4.7699">
        <ele>463.44034</ele>
        <time>2023-09-02T14:51:16.000Z</time>
      </trkpt>
      <trkpt lat="45.83732" lon="4.76982">
        <ele>462.92172</ele>
        <time>2023-09-02T14:51:17.000Z</time>
      </trkpt>
      <trkpt lat="45.83729" lon="4.76973">
        <ele>462.49579</ele>
        <time>2023-09-02T14:51:18.000Z</time>
      </trkpt>
      <trkpt lat="45.83725" lon="4.76963">
        <ele>461.28265</ele>
        <time>2023-09-02T14:51:19.000Z</time>
      </trkpt>
      <trkpt lat="45.83721" lon="4.76954">
        <ele>460.04794</ele>
        <time>2023-09-02T14:51:20.000Z</time>
      </trkpt>
      <trkpt lat="45.83717" lon="4.76944">
        <ele>458.76105</ele>
        <time>2023-09-02T14:51:21.000Z</time>
      </trkpt>
      <trkpt lat="45.83713" lon="4.76935">
        <ele>457.461</ele>
        <time>2023-09-02T14:51:22.000Z</time>
      </trkpt>
      <trkpt lat="45.83709" lon="4.76926">
        <ele>454.83917</ele>
        <time>2023-09-02T14:51:23.000Z</time>
      </trkpt>
      <trkpt lat="45.83706" lon="4.76915">
        <ele>454.31357</ele>
        <time>2023-09-02T14:51:24.000Z</time>
      </trkpt>
      <trkpt lat="45.83702" lon="4.76905">
        <ele>453.77554</ele>
        <time>2023-09-02T14:51:25.000Z</time>
      </trkpt>
      <trkpt lat="45.83698" lon="4.76896">
        <ele>453.30542</ele>
        <time>2023-09-02T14:51:26.000Z</time>
      </trkpt>
      <trkpt lat="45.83694" lon="4.76886">
        <ele>452.75235</ele>
        <time>2023-09-02T14:51:27.000Z</time>
      </trkpt>
      <trkpt lat="45.8369" lon="4.76876">
        <ele>452.21036</ele>
        <time>2023-09-02T14:51:28.000Z</time>
      </trkpt>
      <trkpt lat="45.83686" lon="4.76866">
        <ele>451.79938</ele>
        <time>2023-09-02T14:51:29.000Z</time>
      </trkpt>
      <trkpt lat="45.83682" lon="4.76856">
        <ele>451.6398</ele>
        <time>2023-09-02T14:51:30.000Z</time>
      </trkpt>
      <trkpt lat="45.83678" lon="4.76847">
        <ele>451.50677</ele>
        <time>2023-09-02T14:51:31.000Z</time>
      </trkpt>
      <trkpt lat="45.83674" lon="4.76837">
        <ele>451.38013</ele>
        <time>2023-09-02T14:51:32.000Z</time>
      </trkpt>
      <trkpt lat="45.83669" lon="4.76828">
        <ele>451.22418</ele>
        <time>2023-09-02T14:51:33.000Z</time>
      </trkpt>
      <trkpt lat="45.83665" lon="4.76818">
        <ele>451.02753</ele>
        <time>2023-09-02T14:51:34.000Z</time>
      </trkpt>
      <trkpt lat="45.83661" lon="4.76808">
        <ele>449.21075</ele>
        <time>2023-09-02T14:51:35.000Z</time>
      </trkpt>
      <trkpt lat="45.83657" lon="4.76798">
        <ele>448.95587</ele>
        <time>2023-09-02T14:51:36.000Z</time>
      </trkpt>
      <trkpt lat="45.83652" lon="4.76788">
        <ele>448.72369</ele>
        <time>2023-09-02T14:51:37.000Z</time>
      </trkpt>
      <trkpt lat="45.83647" lon="4.76778">
        <ele>448.49887</ele>
        <time>2023-09-02T14:51:38.000Z</time>
      </trkpt>
      <trkpt lat="45.83642" lon="4.76769">
        <ele>448.25952</ele>
        <time>2023-09-02T14:51:39.000Z</time>
      </trkpt>
      <trkpt lat="45.83636" lon="4.7676">
        <ele>448.04523</ele>
        <time>2023-09-02T14:51:40.000Z</time>
      </trkpt>
      <trkpt lat="45.83631" lon="4.76752">
        <ele>446.31073</ele>
        <time>2023-09-02T14:51:41.000Z</time>
      </trkpt>
      <trkpt lat="45.83624" lon="4.76746">
        <ele>444.6102</ele>
        <time>2023-09-02T14:51:42.000Z</time>
      </trkpt>
      <trkpt lat="45.83617" lon="4.76741">
        <ele>442.92245</ele>
        <time>2023-09-02T14:51:43.000Z</time>
      </trkpt>
      <trkpt lat="45.8361" lon="4.76736">
        <ele>441.24512</ele>
        <time>2023-09-02T14:51:44.000Z</time>
      </trkpt>
      <trkpt lat="45.83603" lon="4.76732">
        <ele>439.59064</ele>
        <time>2023-09-02T14:51:45.000Z</time>
      </trkpt>
      <trkpt lat="45.83595" lon="4.76729">
        <ele>437.96051</ele>
        <time>2023-09-02T14:51:46.000Z</time>
      </trkpt>
      <trkpt lat="45.83588" lon="4.76726">
        <ele>436.35507</ele>
        <time>2023-09-02T14:51:47.000Z</time>
      </trkpt>
      <trkpt lat="45.8358" lon="4.76723">
        <ele>434.73062</ele>
        <time>2023-09-02T14:51:48.000Z</time>
      </trkpt>
      <trkpt lat="45.83572" lon="4.76722">
        <ele>432.97714</ele>
        <time>2023-09-02T14:51:49.000Z</time>
      </trkpt>
      <trkpt lat="45.83565" lon="4.76715">
        <ele>431.09189</ele>
        <time>2023-09-02T14:51:50.000Z</time>
      </trkpt>
      <trkpt lat="45.83557" lon="4.76709">
        <ele>429.17792</ele>
        <time>2023-09-02T14:51:51.000Z</time>
      </trkpt>
      <trkpt lat="45.83552" lon="4.76704">
        <ele>427.25293</ele>
        <time>2023-09-02T14:51:52.000Z</time>
      </trkpt>
      <trkpt lat="45.83545" lon="4.76697">
        <ele>425.31412</ele>
        <time>2023-09-02T14:51:53.000Z</time>
      </trkpt>
      <trkpt lat="45.83539" lon="4.76687">
        <ele>423.39243</ele>
        <time>2023-09-02T14:51:54.000Z</time>
      </trkpt>
      <trkpt lat="45.83534" lon="4.76677">
        <ele>423.11728</ele>
        <time>2023-09-02T14:51:55.000Z</time>
      </trkpt>
      <trkpt lat="45.83528" lon="4.76665">
        <ele>421.24103</ele>
        <time>2023-09-02T14:51:56.000Z</time>
      </trkpt>
      <trkpt lat="45.83524" lon="4.76652">
        <ele>419.35068</ele>
        <time>2023-09-02T14:51:57.000Z</time>
      </trkpt>
      <trkpt lat="45.83519" lon="4.7664">
        <ele>417.4549</ele>
        <time>2023-09-02T14:51:58.000Z</time>
      </trkpt>
      <trkpt lat="45.83515" lon="4.76627">
        <ele>415.55597</ele>
        <time>2023-09-02T14:51:59.000Z</time>
      </trkpt>
      <trkpt lat="45.8351" lon="4.76615">
        <ele>413.64941</ele>
        <time>2023-09-02T14:52:00.000Z</time>
      </trkpt>
      <trkpt lat="45.83505" lon="4.76602">
        <ele>413.32391</ele>
        <time>2023-09-02T14:52:01.000Z</time>
      </trkpt>
      <trkpt lat="45.83498" lon="4.7659">
        <ele>412.99756</ele>
        <time>2023-09-02T14:52:02.000Z</time>
      </trkpt>
      <trkpt lat="45.83491" lon="4.7658">
        <ele>413.39224</ele>
        <time>2023-09-02T14:52:03.000Z</time>
      </trkpt>
      <trkpt lat="45.83483" lon="4.7657">
        <ele>413.78619</ele>
        <time>2023-09-02T14:52:04.000Z</time>
      </trkpt>
      <trkpt lat="45.83475" lon="4.76561">
        <ele>414.1496</ele>
        <time>2023-09-02T14:52:05.000Z</time>
      </trkpt>
      <trkpt lat="45.83467" lon="4.76551">
        <ele>414.49301</ele>
        <time>2023-09-02T14:52:06.000Z</time>
      </trkpt>
      <trkpt lat="45.83459" lon="4.76541">
        <ele>414.84415</ele>
        <time>2023-09-02T14:52:07.000Z</time>
      </trkpt>
      <trkpt lat="45.83453" lon="4.76529">
        <ele>415.22079</ele>
        <time>2023-09-02T14:52:08.000Z</time>
      </trkpt>
      <trkpt lat="45.83449" lon="4.76517">
        <ele>414.94745</ele>
        <time>2023-09-02T14:52:09.000Z</time>
      </trkpt>
      <trkpt lat="45.83445" lon="4.76503">
        <ele>414.6778</ele>
        <time>2023-09-02T14:52:10.000Z</time>
      </trkpt>
      <trkpt lat="45.83442" lon="4.76491">
        <ele>414.44116</ele>
        <time>2023-09-02T14:52:11.000Z</time>
      </trkpt>
      <trkpt lat="45.83441" lon="4.76478">
        <ele>414.2063</ele>
        <time>2023-09-02T14:52:12.000Z</time>
      </trkpt>
      <trkpt lat="45.8344" lon="4.76466">
        <ele>414.02286</ele>
        <time>2023-09-02T14:52:13.000Z</time>
      </trkpt>
      <trkpt lat="45.83439" lon="4.76454">
        <ele>413.83853</ele>
        <time>2023-09-02T14:52:14.000Z</time>
      </trkpt>
      <trkpt lat="45.83438" lon="4.76445">
        <ele>413.67676</ele>
        <time>2023-09-02T14:52:15.000Z</time>
      </trkpt>
      <trkpt lat="45.83438" lon="4.76435">
        <ele>413.54532</ele>
        <time>2023-09-02T14:52:16.000Z</time>
      </trkpt>
      <trkpt lat="45.83438" lon="4.76427">
        <ele>413.26532</ele>
        <time>2023-09-02T14:52:17.000Z</time>
      </trkpt>
      <trkpt lat="45.83438" lon="4.76419">
        <ele>413.03906</ele>
        <time>2023-09-02T14:52:18.000Z</time>
      </trkpt>
      <trkpt lat="45.83438" lon="4.76412">
        <ele>412.79095</ele>
        <time>2023-09-02T14:52:19.000Z</time>
      </trkpt>
      <trkpt lat="45.83437" lon="4.76406">
        <ele>412.57437</ele>
        <time>2023-09-02T14:52:20.000Z</time>
      </trkpt>
      <trkpt lat="45.83437" lon="4.76399">
        <ele>412.3623</ele>
        <time>2023-09-02T14:52:21.000Z</time>
      </trkpt>
      <trkpt lat="45.83437" lon="4.76394">
        <ele>412.15665</ele>
        <time>2023-09-02T14:52:22.000Z</time>
      </trkpt>
      <trkpt lat="45.83436" lon="4.76389">
        <ele>411.24121</ele>
        <time>2023-09-02T14:52:23.000Z</time>
      </trkpt>
      <trkpt lat="45.83437" lon="4.76382">
        <ele>410.32285</ele>
        <time>2023-09-02T14:52:24.000Z</time>
      </trkpt>
      <trkpt lat="45.83436" lon="4.76377">
        <ele>409.43744</ele>
        <time>2023-09-02T14:52:25.000Z</time>
      </trkpt>
      <trkpt lat="45.83435" lon="4.76372">
        <ele>408.58948</ele>
        <time>2023-09-02T14:52:26.000Z</time>
      </trkpt>
      <trkpt lat="45.83434" lon="4.76368">
        <ele>407.7861</ele>
        <time>2023-09-02T14:52:27.000Z</time>
      </trkpt>
      <trkpt lat="45.83433" lon="4.76363">
        <ele>406.98346</ele>
        <time>2023-09-02T14:52:28.000Z</time>
      </trkpt>
      <trkpt lat="45.83431" lon="4.76358">
        <ele>406.85962</ele>
        <time>2023-09-02T14:52:29.000Z</time>
      </trkpt>
      <trkpt lat="45.83429" lon="4.76353">
        <ele>406.7637</ele>
        <time>2023-09-02T14:52:30.000Z</time>
      </trkpt>
      <trkpt lat="45.83427" lon="4.76349">
        <ele>406.67145</ele>
        <time>2023-09-02T14:52:31.000Z</time>
      </trkpt>
      <trkpt lat="45.83424" lon="4.76344">
        <ele>406.60736</ele>
        <time>2023-09-02T14:52:32.000Z</time>
      </trkpt>
      <trkpt lat="45.83421" lon="4.76341">
        <ele>406.51303</ele>
        <time>2023-09-02T14:52:33.000Z</time>
      </trkpt>
      <trkpt lat="45.83417" lon="4.76338">
        <ele>406.43301</ele>
        <time>2023-09-02T14:52:34.000Z</time>
      </trkpt>
      <trkpt lat="45.83412" lon="4.76337">
        <ele>406.31677</ele>
        <time>2023-09-02T14:52:35.000Z</time>
      </trkpt>
      <trkpt lat="45.83407" lon="4.76337">
        <ele>406.20273</ele>
        <time>2023-09-02T14:52:36.000Z</time>
      </trkpt>
      <trkpt lat="45.83402" lon="4.76336">
        <ele>406.26523</ele>
        <time>2023-09-02T14:52:37.000Z</time>
      </trkpt>
      <trkpt lat="45.83397" lon="4.76336">
        <ele>406.27747</ele>
        <time>2023-09-02T14:52:38.000Z</time>
      </trkpt>
      <trkpt lat="45.83392" lon="4.76334">
        <ele>406.35083</ele>
        <time>2023-09-02T14:52:39.000Z</time>
      </trkpt>
      <trkpt lat="45.83388" lon="4.76334">
        <ele>406.42178</ele>
        <time>2023-09-02T14:52:40.000Z</time>
      </trkpt>
      <trkpt lat="45.83382" lon="4.76335">
        <ele>406.5029</ele>
        <time>2023-09-02T14:52:41.000Z</time>
      </trkpt>
      <trkpt lat="45.83377" lon="4.76334">
        <ele>406.55402</ele>
        <time>2023-09-02T14:52:42.000Z</time>
      </trkpt>
      <trkpt lat="45.83371" lon="4.76335">
        <ele>406.54053</ele>
        <time>2023-09-02T14:52:43.000Z</time>
      </trkpt>
      <trkpt lat="45.83366" lon="4.76336">
        <ele>406.51364</ele>
        <time>2023-09-02T14:52:44.000Z</time>
      </trkpt>
      <trkpt lat="45.83361" lon="4.76338">
        <ele>406.46527</ele>
        <time>2023-09-02T14:52:45.000Z</time>
      </trkpt>
      <trkpt lat="45.83355" lon="4.7634">
        <ele>406.39679</ele>
        <time>2023-09-02T14:52:46.000Z</time>
      </trkpt>
      <trkpt lat="45.8335" lon="4.76338">
        <ele>406.28601</ele>
        <time>2023-09-02T14:52:47.000Z</time>
      </trkpt>
      <trkpt lat="45.83344" lon="4.76334">
        <ele>406.1871</ele>
        <time>2023-09-02T14:52:48.000Z</time>
      </trkpt>
      <trkpt lat="45.8334" lon="4.76328">
        <ele>405.99292</ele>
        <time>2023-09-02T14:52:49.000Z</time>
      </trkpt>
      <trkpt lat="45.83337" lon="4.7632">
        <ele>405.64331</ele>
        <time>2023-09-02T14:52:50.000Z</time>
      </trkpt>
      <trkpt lat="45.83334" lon="4.76313">
        <ele>405.59155</ele>
        <time>2023-09-02T14:52:51.000Z</time>
      </trkpt>
      <trkpt lat="45.83332" lon="4.76306">
        <ele>405.40302</ele>
        <time>2023-09-02T14:52:52.000Z</time>
      </trkpt>
      <trkpt lat="45.8333" lon="4.76299">
        <ele>405.18381</ele>
        <time>2023-09-02T14:52:53.000Z</time>
      </trkpt>
      <trkpt lat="45.83328" lon="4.76293">
        <ele>404.89359</ele>
        <time>2023-09-02T14:52:54.000Z</time>
      </trkpt>
      <trkpt lat="45.83326" lon="4.76288">
        <ele>404.61783</ele>
        <time>2023-09-02T14:52:55.000Z</time>
      </trkpt>
      <trkpt lat="45.83325" lon="4.76283">
        <ele>404.33307</ele>
        <time>2023-09-02T14:52:56.000Z</time>
      </trkpt>
      <trkpt lat="45.83326" lon="4.76277">
        <ele>404.01361</ele>
        <time>2023-09-02T14:52:57.000Z</time>
      </trkpt>
      <trkpt lat="45.83327" lon="4.76271">
        <ele>403.70905</ele>
        <time>2023-09-02T14:52:58.000Z</time>
      </trkpt>
      <trkpt lat="45.83328" lon="4.76264">
        <ele>403.33594</ele>
        <time>2023-09-02T14:52:59.000Z</time>
      </trkpt>
      <trkpt lat="45.83327" lon="4.76259">
        <ele>402.92676</ele>
        <time>2023-09-02T14:53:00.000Z</time>
      </trkpt>
      <trkpt lat="45.83324" lon="4.76255">
        <ele>402.52484</ele>
        <time>2023-09-02T14:53:01.000Z</time>
      </trkpt>
      <trkpt lat="45.8332" lon="4.76255">
        <ele>402.16638</ele>
        <time>2023-09-02T14:53:02.000Z</time>
      </trkpt>
      <trkpt lat="45.83314" lon="4.76255">
        <ele>401.89456</ele>
        <time>2023-09-02T14:53:03.000Z</time>
      </trkpt>
      <trkpt lat="45.8331" lon="4.76258">
        <ele>401.73608</ele>
        <time>2023-09-02T14:53:04.000Z</time>
      </trkpt>
      <trkpt lat="45.83306" lon="4.76259">
        <ele>400.1102</ele>
        <time>2023-09-02T14:53:05.000Z</time>
      </trkpt>
      <trkpt lat="45.83302" lon="4.76261">
        <ele>398.50885</ele>
        <time>2023-09-02T14:53:06.000Z</time>
      </trkpt>
      <trkpt lat="45.83298" lon="4.76262">
        <ele>396.90515</ele>
        <time>2023-09-02T14:53:07.000Z</time>
      </trkpt>
      <trkpt lat="45.83293" lon="4.76263">
        <ele>396.50131</ele>
        <time>2023-09-02T14:53:08.000Z</time>
      </trkpt>
      <trkpt lat="45.83289" lon="4.76262">
        <ele>396.34717</ele>
        <time>2023-09-02T14:53:09.000Z</time>
      </trkpt>
      <trkpt lat="45.83286" lon="4.76263">
        <ele>396.26825</ele>
        <time>2023-09-02T14:53:10.000Z</time>
      </trkpt>
      <trkpt lat="45.83283" lon="4.76262">
        <ele>395.89783</ele>
        <time>2023-09-02T14:53:11.000Z</time>
      </trkpt>
      <trkpt lat="45.83279" lon="4.7626">
        <ele>395.63837</ele>
        <time>2023-09-02T14:53:12.000Z</time>
      </trkpt>
      <trkpt lat="45.83277" lon="4.76256">
        <ele>395.37854</ele>
        <time>2023-09-02T14:53:13.000Z</time>
      </trkpt>
      <trkpt lat="45.83276" lon="4.7625">
        <ele>395.14063</ele>
        <time>2023-09-02T14:53:14.000Z</time>
      </trkpt>
      <trkpt lat="45.83276" lon="4.76243">
        <ele>394.81625</ele>
        <time>2023-09-02T14:53:15.000Z</time>
      </trkpt>
      <trkpt lat="45.83277" lon="4.76236">
        <ele>394.47293</ele>
        <time>2023-09-02T14:53:16.000Z</time>
      </trkpt>
      <trkpt lat="45.83276" lon="4.76229">
        <ele>394.172</ele>
        <time>2023-09-02T14:53:17.000Z</time>
      </trkpt>
      <trkpt lat="45.83276" lon="4.76221">
        <ele>393.86237</ele>
        <time>2023-09-02T14:53:18.000Z</time>
      </trkpt>
      <trkpt lat="45.83275" lon="4.76213">
        <ele>393.58636</ele>
        <time>2023-09-02T14:53:19.000Z</time>
      </trkpt>
      <trkpt lat="45.83274" lon="4.76204">
        <ele>393.33948</ele>
        <time>2023-09-02T14:53:20.000Z</time>
      </trkpt>
      <trkpt lat="45.83274" lon="4.76195">
        <ele>393.08713</ele>
        <time>2023-09-02T14:53:21.000Z</time>
      </trkpt>
      <trkpt lat="45.83273" lon="4.76186">
        <ele>392.79474</ele>
        <time>2023-09-02T14:53:22.000Z</time>
      </trkpt>
      <trkpt lat="45.83272" lon="4.76178">
        <ele>392.45319</ele>
        <time>2023-09-02T14:53:23.000Z</time>
      </trkpt>
      <trkpt lat="45.8327" lon="4.76169">
        <ele>392.01044</ele>
        <time>2023-09-02T14:53:24.000Z</time>
      </trkpt>
      <trkpt lat="45.83268" lon="4.7616">
        <ele>391.74008</ele>
        <time>2023-09-02T14:53:25.000Z</time>
      </trkpt>
      <trkpt lat="45.83267" lon="4.7615">
        <ele>391.63312</ele>
        <time>2023-09-02T14:53:26.000Z</time>
      </trkpt>
      <trkpt lat="45.83266" lon="4.7614">
        <ele>391.51334</ele>
        <time>2023-09-02T14:53:27.000Z</time>
      </trkpt>
      <trkpt lat="45.83266" lon="4.76131">
        <ele>390.17462</ele>
        <time>2023-09-02T14:53:28.000Z</time>
      </trkpt>
      <trkpt lat="45.83266" lon="4.7612">
        <ele>389.23312</ele>
        <time>2023-09-02T14:53:29.000Z</time>
      </trkpt>
      <trkpt lat="45.8327" lon="4.76111">
        <ele>388.11761</ele>
        <time>2023-09-02T14:53:30.000Z</time>
      </trkpt>
      <trkpt lat="45.83273" lon="4.76101">
        <ele>387.82794</ele>
        <time>2023-09-02T14:53:31.000Z</time>
      </trkpt>
      <trkpt lat="45.83276" lon="4.76092">
        <ele>387.44</ele>
        <time>2023-09-02T14:53:32.000Z</time>
      </trkpt>
      <trkpt lat="45.8328" lon="4.76083">
        <ele>387.1373</ele>
        <time>2023-09-02T14:53:33.000Z</time>
      </trkpt>
      <trkpt lat="45.83282" lon="4.76072">
        <ele>386.72351</ele>
        <time>2023-09-02T14:53:34.000Z</time>
      </trkpt>
      <trkpt lat="45.83284" lon="4.76062">
        <ele>386.39069</ele>
        <time>2023-09-02T14:53:35.000Z</time>
      </trkpt>
      <trkpt lat="45.83285" lon="4.76053">
        <ele>386.08151</ele>
        <time>2023-09-02T14:53:36.000Z</time>
      </trkpt>
      <trkpt lat="45.83284" lon="4.76043">
        <ele>384.67563</ele>
        <time>2023-09-02T14:53:37.000Z</time>
      </trkpt>
      <trkpt lat="45.83283" lon="4.76034">
        <ele>383.2803</ele>
        <time>2023-09-02T14:53:38.000Z</time>
      </trkpt>
      <trkpt lat="45.83281" lon="4.76025">
        <ele>381.88272</ele>
        <time>2023-09-02T14:53:39.000Z</time>
      </trkpt>
      <trkpt lat="45.83278" lon="4.76017">
        <ele>381.62411</ele>
        <time>2023-09-02T14:53:40.000Z</time>
      </trkpt>
      <trkpt lat="45.83276" lon="4.76009">
        <ele>381.35593</ele>
        <time>2023-09-02T14:53:41.000Z</time>
      </trkpt>
      <trkpt lat="45.83273" lon="4.76001">
        <ele>381.10281</ele>
        <time>2023-09-02T14:53:42.000Z</time>
      </trkpt>
      <trkpt lat="45.83271" lon="4.75993">
        <ele>380.64969</ele>
        <time>2023-09-02T14:53:43.000Z</time>
      </trkpt>
      <trkpt lat="45.83268" lon="4.75985">
        <ele>380.20776</ele>
        <time>2023-09-02T14:53:44.000Z</time>
      </trkpt>
      <trkpt lat="45.83265" lon="4.75977">
        <ele>381.09134</ele>
        <time>2023-09-02T14:53:45.000Z</time>
      </trkpt>
      <trkpt lat="45.83263" lon="4.75969">
        <ele>381.80096</ele>
        <time>2023-09-02T14:53:46.000Z</time>
      </trkpt>
      <trkpt lat="45.8326" lon="4.75961">
        <ele>382.52042</ele>
        <time>2023-09-02T14:53:47.000Z</time>
      </trkpt>
      <trkpt lat="45.83258" lon="4.75953">
        <ele>383.24878</ele>
        <time>2023-09-02T14:53:48.000Z</time>
      </trkpt>
      <trkpt lat="45.83255" lon="4.75945">
        <ele>383.55304</ele>
        <time>2023-09-02T14:53:49.000Z</time>
      </trkpt>
      <trkpt lat="45.83253" lon="4.75937">
        <ele>384.03339</ele>
        <time>2023-09-02T14:53:50.000Z</time>
      </trkpt>
      <trkpt lat="45.8325" lon="4.75929">
        <ele>383.67792</ele>
        <time>2023-09-02T14:53:51.000Z</time>
      </trkpt>
      <trkpt lat="45.83249" lon="4.75922">
        <ele>383.43365</ele>
        <time>2023-09-02T14:53:52.000Z</time>
      </trkpt>
      <trkpt lat="45.83247" lon="4.75915">
        <ele>383.26654</ele>
        <time>2023-09-02T14:53:53.000Z</time>
      </trkpt>
      <trkpt lat="45.83246" lon="4.75908">
        <ele>383.10172</ele>
        <time>2023-09-02T14:53:54.000Z</time>
      </trkpt>
      <trkpt lat="45.83246" lon="4.75902">
        <ele>382.95413</ele>
        <time>2023-09-02T14:53:55.000Z</time>
      </trkpt>
      <trkpt lat="45.83245" lon="4.75896">
        <ele>382.83109</ele>
        <time>2023-09-02T14:53:56.000Z</time>
      </trkpt>
      <trkpt lat="45.83244" lon="4.7589">
        <ele>383.80493</ele>
        <time>2023-09-02T14:53:57.000Z</time>
      </trkpt>
      <trkpt lat="45.83245" lon="4.75884">
        <ele>384.76895</ele>
        <time>2023-09-02T14:53:58.000Z</time>
      </trkpt>
      <trkpt lat="45.83244" lon="4.75877">
        <ele>385.81577</ele>
        <time>2023-09-02T14:53:59.000Z</time>
      </trkpt>
      <trkpt lat="45.83244" lon="4.75871">
        <ele>385.75336</ele>
        <time>2023-09-02T14:54:00.000Z</time>
      </trkpt>
      <trkpt lat="45.83244" lon="4.75863">
        <ele>385.68298</ele>
        <time>2023-09-02T14:54:01.000Z</time>
      </trkpt>
      <trkpt lat="45.83243" lon="4.75856">
        <ele>385.60757</ele>
        <time>2023-09-02T14:54:02.000Z</time>
      </trkpt>
      <trkpt lat="45.83243" lon="4.75848">
        <ele>385.74033</ele>
        <time>2023-09-02T14:54:03.000Z</time>
      </trkpt>
      <trkpt lat="45.83243" lon="4.75842">
        <ele>385.86615</ele>
        <time>2023-09-02T14:54:04.000Z</time>
      </trkpt>
      <trkpt lat="45.83242" lon="4.75835">
        <ele>385.99622</ele>
        <time>2023-09-02T14:54:05.000Z</time>
      </trkpt>
      <trkpt lat="45.83242" lon="4.75829">
        <ele>386.12164</ele>
        <time>2023-09-02T14:54:06.000Z</time>
      </trkpt>
      <trkpt lat="45.83241" lon="4.75823">
        <ele>386.25284</ele>
        <time>2023-09-02T14:54:07.000Z</time>
      </trkpt>
      <trkpt lat="45.83239" lon="4.75816">
        <ele>386.35712</ele>
        <time>2023-09-02T14:54:08.000Z</time>
      </trkpt>
      <trkpt lat="45.83237" lon="4.75811">
        <ele>386.24451</ele>
        <time>2023-09-02T14:54:09.000Z</time>
      </trkpt>
      <trkpt lat="45.83235" lon="4.75805">
        <ele>386.17197</ele>
        <time>2023-09-02T14:54:10.000Z</time>
      </trkpt>
      <trkpt lat="45.83232" lon="4.75797">
        <ele>386.16248</ele>
        <time>2023-09-02T14:54:11.000Z</time>
      </trkpt>
      <trkpt lat="45.83231" lon="4.7579">
        <ele>386.12677</ele>
        <time>2023-09-02T14:54:12.000Z</time>
      </trkpt>
      <trkpt lat="45.83228" lon="4.75785">
        <ele>385.94867</ele>
        <time>2023-09-02T14:54:13.000Z</time>
      </trkpt>
      <trkpt lat="45.83225" lon="4.75779">
        <ele>385.89899</ele>
        <time>2023-09-02T14:54:14.000Z</time>
      </trkpt>
      <trkpt lat="45.83223" lon="4.75774">
        <ele>385.82364</ele>
        <time>2023-09-02T14:54:15.000Z</time>
      </trkpt>
      <trkpt lat="45.8322" lon="4.75768">
        <ele>385.74176</ele>
        <time>2023-09-02T14:54:16.000Z</time>
      </trkpt>
      <trkpt lat="45.83218" lon="4.75763">
        <ele>385.63654</ele>
        <time>2023-09-02T14:54:17.000Z</time>
      </trkpt>
      <trkpt lat="45.83215" lon="4.75756">
        <ele>385.42346</ele>
        <time>2023-09-02T14:54:18.000Z</time>
      </trkpt>
      <trkpt lat="45.83212" lon="4.7575">
        <ele>385.19687</ele>
        <time>2023-09-02T14:54:19.000Z</time>
      </trkpt>
      <trkpt lat="45.83209" lon="4.75743">
        <ele>384.91464</ele>
        <time>2023-09-02T14:54:20.000Z</time>
      </trkpt>
      <trkpt lat="45.83207" lon="4.75737">
        <ele>384.61713</ele>
        <time>2023-09-02T14:54:21.000Z</time>
      </trkpt>
      <trkpt lat="45.83204" lon="4.75731">
        <ele>384.30753</ele>
        <time>2023-09-02T14:54:22.000Z</time>
      </trkpt>
      <trkpt lat="45.83201" lon="4.75724">
        <ele>383.98456</ele>
        <time>2023-09-02T14:54:23.000Z</time>
      </trkpt>
      <trkpt lat="45.83198" lon="4.75718">
        <ele>383.74518</ele>
        <time>2023-09-02T14:54:24.000Z</time>
      </trkpt>
      <trkpt lat="45.83194" lon="4.75711">
        <ele>383.50296</ele>
        <time>2023-09-02T14:54:25.000Z</time>
      </trkpt>
      <trkpt lat="45.83191" lon="4.75705">
        <ele>383.26749</ele>
        <time>2023-09-02T14:54:26.000Z</time>
      </trkpt>
      <trkpt lat="45.83187" lon="4.75698">
        <ele>383.03909</ele>
        <time>2023-09-02T14:54:27.000Z</time>
      </trkpt>
      <trkpt lat="45.83184" lon="4.75692">
        <ele>382.82721</ele>
        <time>2023-09-02T14:54:28.000Z</time>
      </trkpt>
      <trkpt lat="45.8318" lon="4.75685">
        <ele>382.68979</ele>
        <time>2023-09-02T14:54:29.000Z</time>
      </trkpt>
      <trkpt lat="45.83176" lon="4.75679">
        <ele>382.57941</ele>
        <time>2023-09-02T14:54:30.000Z</time>
      </trkpt>
      <trkpt lat="45.83173" lon="4.75673">
        <ele>383.08405</ele>
        <time>2023-09-02T14:54:31.000Z</time>
      </trkpt>
      <trkpt lat="45.8317" lon="4.75666">
        <ele>383.58835</ele>
        <time>2023-09-02T14:54:32.000Z</time>
      </trkpt>
      <trkpt lat="45.83166" lon="4.7566">
        <ele>384.1088</ele>
        <time>2023-09-02T14:54:33.000Z</time>
      </trkpt>
      <trkpt lat="45.83164" lon="4.75653">
        <ele>384.62943</ele>
        <time>2023-09-02T14:54:34.000Z</time>
      </trkpt>
      <trkpt lat="45.83163" lon="4.75646">
        <ele>385.17722</ele>
        <time>2023-09-02T14:54:35.000Z</time>
      </trkpt>
      <trkpt lat="45.83163" lon="4.75639">
        <ele>385.77448</ele>
        <time>2023-09-02T14:54:36.000Z</time>
      </trkpt>
      <trkpt lat="45.83163" lon="4.75633">
        <ele>386.37048</ele>
        <time>2023-09-02T14:54:37.000Z</time>
      </trkpt>
      <trkpt lat="45.83163" lon="4.75625">
        <ele>387.04776</ele>
        <time>2023-09-02T14:54:38.000Z</time>
      </trkpt>
      <trkpt lat="45.83164" lon="4.75618">
        <ele>387.27484</ele>
        <time>2023-09-02T14:54:39.000Z</time>
      </trkpt>
      <trkpt lat="45.83164" lon="4.7561">
        <ele>387.55093</ele>
        <time>2023-09-02T14:54:40.000Z</time>
      </trkpt>
      <trkpt lat="45.83163" lon="4.75602">
        <ele>387.82013</ele>
        <time>2023-09-02T14:54:41.000Z</time>
      </trkpt>
      <trkpt lat="45.83161" lon="4.75593">
        <ele>387.56711</ele>
        <time>2023-09-02T14:54:42.000Z</time>
      </trkpt>
      <trkpt lat="45.83159" lon="4.75585">
        <ele>387.34274</ele>
        <time>2023-09-02T14:54:43.000Z</time>
      </trkpt>
      <trkpt lat="45.83157" lon="4.75577">
        <ele>387.02087</ele>
        <time>2023-09-02T14:54:44.000Z</time>
      </trkpt>
      <trkpt lat="45.83155" lon="4.75569">
        <ele>386.73236</ele>
        <time>2023-09-02T14:54:45.000Z</time>
      </trkpt>
      <trkpt lat="45.83154" lon="4.75561">
        <ele>386.4606</ele>
        <time>2023-09-02T14:54:46.000Z</time>
      </trkpt>
      <trkpt lat="45.83152" lon="4.75554">
        <ele>386.18243</ele>
        <time>2023-09-02T14:54:47.000Z</time>
      </trkpt>
      <trkpt lat="45.8315" lon="4.75548">
        <ele>385.91129</ele>
        <time>2023-09-02T14:54:48.000Z</time>
      </trkpt>
      <trkpt lat="45.83146" lon="4.75543">
        <ele>385.62805</ele>
        <time>2023-09-02T14:54:49.000Z</time>
      </trkpt>
      <trkpt lat="45.83143" lon="4.75538">
        <ele>385.33014</ele>
        <time>2023-09-02T14:54:50.000Z</time>
      </trkpt>
      <trkpt lat="45.83139" lon="4.75533">
        <ele>384.35245</ele>
        <time>2023-09-02T14:54:51.000Z</time>
      </trkpt>
      <trkpt lat="45.83135" lon="4.75528">
        <ele>383.37891</ele>
        <time>2023-09-02T14:54:52.000Z</time>
      </trkpt>
      <trkpt lat="45.83132" lon="4.75521">
        <ele>382.40927</ele>
        <time>2023-09-02T14:54:53.000Z</time>
      </trkpt>
      <trkpt lat="45.83128" lon="4.75514">
        <ele>381.24747</ele>
        <time>2023-09-02T14:54:54.000Z</time>
      </trkpt>
      <trkpt lat="45.83125" lon="4.75508">
        <ele>380.06683</ele>
        <time>2023-09-02T14:54:55.000Z</time>
      </trkpt>
      <trkpt lat="45.83122" lon="4.755">
        <ele>378.78961</ele>
        <time>2023-09-02T14:54:56.000Z</time>
      </trkpt>
      <trkpt lat="45.83121" lon="4.75491">
        <ele>377.51694</ele>
        <time>2023-09-02T14:54:57.000Z</time>
      </trkpt>
      <trkpt lat="45.83119" lon="4.75482">
        <ele>376.26215</ele>
        <time>2023-09-02T14:54:58.000Z</time>
      </trkpt>
      <trkpt lat="45.83119" lon="4.75473">
        <ele>375.3746</ele>
        <time>2023-09-02T14:54:59.000Z</time>
      </trkpt>
      <trkpt lat="45.8312" lon="4.75468">
        <ele>374.40375</ele>
        <time>2023-09-02T14:55:00.000Z</time>
      </trkpt>
      <trkpt lat="45.8312" lon="4.75462">
        <ele>373.47281</ele>
        <time>2023-09-02T14:55:01.000Z</time>
      </trkpt>
      <trkpt lat="45.8312" lon="4.75455">
        <ele>373.11292</ele>
        <time>2023-09-02T14:55:02.000Z</time>
      </trkpt>
      <trkpt lat="45.83123" lon="4.75449">
        <ele>372.73151</ele>
        <time>2023-09-02T14:55:03.000Z</time>
      </trkpt>
      <trkpt lat="45.83127" lon="4.75443">
        <ele>372.35678</ele>
        <time>2023-09-02T14:55:04.000Z</time>
      </trkpt>
      <trkpt lat="45.83131" lon="4.75436">
        <ele>371.84802</ele>
        <time>2023-09-02T14:55:05.000Z</time>
      </trkpt>
      <trkpt lat="45.83136" lon="4.75432">
        <ele>371.32123</ele>
        <time>2023-09-02T14:55:06.000Z</time>
      </trkpt>
      <trkpt lat="45.83142" lon="4.75428">
        <ele>370.78473</ele>
        <time>2023-09-02T14:55:07.000Z</time>
      </trkpt>
      <trkpt lat="45.83149" lon="4.75425">
        <ele>370.2074</ele>
        <time>2023-09-02T14:55:08.000Z</time>
      </trkpt>
      <trkpt lat="45.83155" lon="4.75422">
        <ele>369.5784</ele>
        <time>2023-09-02T14:55:09.000Z</time>
      </trkpt>
      <trkpt lat="45.8316" lon="4.75421">
        <ele>368.94586</ele>
        <time>2023-09-02T14:55:10.000Z</time>
      </trkpt>
      <trkpt lat="45.83164" lon="4.75419">
        <ele>368.30487</ele>
        <time>2023-09-02T14:55:11.000Z</time>
      </trkpt>
      <trkpt lat="45.83168" lon="4.75417">
        <ele>367.69687</ele>
        <time>2023-09-02T14:55:12.000Z</time>
      </trkpt>
      <trkpt lat="45.83172" lon="4.75413">
        <ele>367.04715</ele>
        <time>2023-09-02T14:55:13.000Z</time>
      </trkpt>
      <trkpt lat="45.83177" lon="4.75409">
        <ele>366.60339</ele>
        <time>2023-09-02T14:55:14.000Z</time>
      </trkpt>
      <trkpt lat="45.8318" lon="4.75404">
        <ele>366.17389</ele>
        <time>2023-09-02T14:55:15.000Z</time>
      </trkpt>
      <trkpt lat="45.83185" lon="4.75401">
        <ele>365.80386</ele>
        <time>2023-09-02T14:55:16.000Z</time>
      </trkpt>
      <trkpt lat="45.8319" lon="4.75396">
        <ele>365.44482</ele>
        <time>2023-09-02T14:55:17.000Z</time>
      </trkpt>
      <trkpt lat="45.83194" lon="4.7539">
        <ele>365.13922</ele>
        <time>2023-09-02T14:55:18.000Z</time>
      </trkpt>
      <trkpt lat="45.832" lon="4.75382">
        <ele>364.85138</ele>
        <time>2023-09-02T14:55:19.000Z</time>
      </trkpt>
      <trkpt lat="45.83205" lon="4.75376">
        <ele>364.60828</ele>
        <time>2023-09-02T14:55:20.000Z</time>
      </trkpt>
      <trkpt lat="45.8321" lon="4.75373">
        <ele>364.1622</ele>
        <time>2023-09-02T14:55:21.000Z</time>
      </trkpt>
      <trkpt lat="45.83216" lon="4.75371">
        <ele>363.65424</ele>
        <time>2023-09-02T14:55:22.000Z</time>
      </trkpt>
      <trkpt lat="45.83221" lon="4.75368">
        <ele>363.15591</ele>
        <time>2023-09-02T14:55:23.000Z</time>
      </trkpt>
      <trkpt lat="45.83229" lon="4.75363">
        <ele>362.60208</ele>
        <time>2023-09-02T14:55:24.000Z</time>
      </trkpt>
      <trkpt lat="45.83236" lon="4.75359">
        <ele>362.10974</ele>
        <time>2023-09-02T14:55:25.000Z</time>
      </trkpt>
      <trkpt lat="45.83244" lon="4.75356">
        <ele>361.56497</ele>
        <time>2023-09-02T14:55:26.000Z</time>
      </trkpt>
      <trkpt lat="45.83252" lon="4.75355">
        <ele>360.98837</ele>
        <time>2023-09-02T14:55:27.000Z</time>
      </trkpt>
      <trkpt lat="45.8326" lon="4.75354">
        <ele>360.48053</ele>
        <time>2023-09-02T14:55:28.000Z</time>
      </trkpt>
      <trkpt lat="45.83268" lon="4.75351">
        <ele>360.048</ele>
        <time>2023-09-02T14:55:29.000Z</time>
      </trkpt>
      <trkpt lat="45.83274" lon="4.75348">
        <ele>359.64719</ele>
        <time>2023-09-02T14:55:30.000Z</time>
      </trkpt>
      <trkpt lat="45.83281" lon="4.75345">
        <ele>359.22043</ele>
        <time>2023-09-02T14:55:31.000Z</time>
      </trkpt>
      <trkpt lat="45.83288" lon="4.75341">
        <ele>358.76413</ele>
        <time>2023-09-02T14:55:32.000Z</time>
      </trkpt>
      <trkpt lat="45.83295" lon="4.75336">
        <ele>358.29608</ele>
        <time>2023-09-02T14:55:33.000Z</time>
      </trkpt>
      <trkpt lat="45.83302" lon="4.75331">
        <ele>357.76627</ele>
        <time>2023-09-02T14:55:34.000Z</time>
      </trkpt>
      <trkpt lat="45.83309" lon="4.75328">
        <ele>357.18036</ele>
        <time>2023-09-02T14:55:35.000Z</time>
      </trkpt>
      <trkpt lat="45.83315" lon="4.75325">
        <ele>356.58481</ele>
        <time>2023-09-02T14:55:36.000Z</time>
      </trkpt>
      <trkpt lat="45.83321" lon="4.75319">
        <ele>355.95245</ele>
        <time>2023-09-02T14:55:37.000Z</time>
      </trkpt>
      <trkpt lat="45.83327" lon="4.75314">
        <ele>355.26508</ele>
        <time>2023-09-02T14:55:38.000Z</time>
      </trkpt>
      <trkpt lat="45.83329" lon="4.7531">
        <ele>354.64618</ele>
        <time>2023-09-02T14:55:39.000Z</time>
      </trkpt>
      <trkpt lat="45.83335" lon="4.75306">
        <ele>354.08368</ele>
        <time>2023-09-02T14:55:40.000Z</time>
      </trkpt>
      <trkpt lat="45.83341" lon="4.75303">
        <ele>353.71497</ele>
        <time>2023-09-02T14:55:41.000Z</time>
      </trkpt>
      <trkpt lat="45.83345" lon="4.753">
        <ele>353.40436</ele>
        <time>2023-09-02T14:55:42.000Z</time>
      </trkpt>
      <trkpt lat="45.83352" lon="4.753">
        <ele>353.09692</ele>
        <time>2023-09-02T14:55:43.000Z</time>
      </trkpt>
      <trkpt lat="45.83358" lon="4.75301">
        <ele>352.80606</ele>
        <time>2023-09-02T14:55:44.000Z</time>
      </trkpt>
      <trkpt lat="45.83363" lon="4.75303">
        <ele>352.59738</ele>
        <time>2023-09-02T14:55:45.000Z</time>
      </trkpt>
      <trkpt lat="45.83368" lon="4.75302">
        <ele>352.47964</ele>
        <time>2023-09-02T14:55:46.000Z</time>
      </trkpt>
      <trkpt lat="45.83374" lon="4.75302">
        <ele>352.42719</ele>
        <time>2023-09-02T14:55:47.000Z</time>
      </trkpt>
      <trkpt lat="45.83379" lon="4.75301">
        <ele>352.35471</ele>
        <time>2023-09-02T14:55:48.000Z</time>
      </trkpt>
      <trkpt lat="45.83384" lon="4.75298">
        <ele>352.19272</ele>
        <time>2023-09-02T14:55:49.000Z</time>
      </trkpt>
      <trkpt lat="45.83389" lon="4.75297">
        <ele>351.9794</ele>
        <time>2023-09-02T14:55:50.000Z</time>
      </trkpt>
      <trkpt lat="45.83394" lon="4.75295">
        <ele>351.83435</ele>
        <time>2023-09-02T14:55:51.000Z</time>
      </trkpt>
      <trkpt lat="45.83399" lon="4.75293">
        <ele>351.69659</ele>
        <time>2023-09-02T14:55:52.000Z</time>
      </trkpt>
      <trkpt lat="45.83403" lon="4.75291">
        <ele>351.55521</ele>
        <time>2023-09-02T14:55:53.000Z</time>
      </trkpt>
      <trkpt lat="45.83407" lon="4.75289">
        <ele>351.56516</ele>
        <time>2023-09-02T14:55:54.000Z</time>
      </trkpt>
      <trkpt lat="45.83409" lon="4.75288">
        <ele>351.62894</ele>
        <time>2023-09-02T14:55:55.000Z</time>
      </trkpt>
      <trkpt lat="45.8341" lon="4.75283">
        <ele>351.7359</ele>
        <time>2023-09-02T14:55:56.000Z</time>
      </trkpt>
      <trkpt lat="45.8341" lon="4.75278">
        <ele>351.87225</ele>
        <time>2023-09-02T14:55:57.000Z</time>
      </trkpt>
      <trkpt lat="45.8341" lon="4.75275">
        <ele>351.97754</ele>
        <time>2023-09-02T14:55:58.000Z</time>
      </trkpt>
      <trkpt lat="45.8341" lon="4.75272">
        <ele>352.02762</ele>
        <time>2023-09-02T14:55:59.000Z</time>
      </trkpt>
      <trkpt lat="45.83411" lon="4.75267">
        <ele>352.03705</ele>
        <time>2023-09-02T14:56:00.000Z</time>
      </trkpt>
      <trkpt lat="45.83413" lon="4.75264">
        <ele>352.03387</ele>
        <time>2023-09-02T14:56:01.000Z</time>
      </trkpt>
      <trkpt lat="45.83413" lon="4.75261">
        <ele>352.02094</ele>
        <time>2023-09-02T14:56:02.000Z</time>
      </trkpt>
      <trkpt lat="45.83414" lon="4.75258">
        <ele>352.03015</ele>
        <time>2023-09-02T14:56:03.000Z</time>
      </trkpt>
      <trkpt lat="45.83415" lon="4.75255">
        <ele>352.0885</ele>
        <time>2023-09-02T14:56:04.000Z</time>
      </trkpt>
      <trkpt lat="45.83416" lon="4.75252">
        <ele>352.08041</ele>
        <time>2023-09-02T14:56:05.000Z</time>
      </trkpt>
      <trkpt lat="45.83417" lon="4.75249">
        <ele>352.08112</ele>
        <time>2023-09-02T14:56:06.000Z</time>
      </trkpt>
      <trkpt lat="45.83419" lon="4.75246">
        <ele>352.05615</ele>
        <time>2023-09-02T14:56:07.000Z</time>
      </trkpt>
      <trkpt lat="45.83422" lon="4.75243">
        <ele>351.97232</ele>
        <time>2023-09-02T14:56:08.000Z</time>
      </trkpt>
      <trkpt lat="45.83426" lon="4.75241">
        <ele>351.97183</ele>
        <time>2023-09-02T14:56:09.000Z</time>
      </trkpt>
      <trkpt lat="45.83429" lon="4.75239">
        <ele>352.09003</ele>
        <time>2023-09-02T14:56:10.000Z</time>
      </trkpt>
      <trkpt lat="45.83432" lon="4.75237">
        <ele>352.19925</ele>
        <time>2023-09-02T14:56:11.000Z</time>
      </trkpt>
      <trkpt lat="45.83435" lon="4.75235">
        <ele>352.33148</ele>
        <time>2023-09-02T14:56:12.000Z</time>
      </trkpt>
      <trkpt lat="45.83437" lon="4.75234">
        <ele>352.46738</ele>
        <time>2023-09-02T14:56:13.000Z</time>
      </trkpt>
      <trkpt lat="45.8344" lon="4.75232">
        <ele>352.51044</ele>
        <time>2023-09-02T14:56:14.000Z</time>
      </trkpt>
      <trkpt lat="45.83445" lon="4.75229">
        <ele>352.51758</ele>
        <time>2023-09-02T14:56:15.000Z</time>
      </trkpt>
      <trkpt lat="45.83449" lon="4.75226">
        <ele>352.41989</ele>
        <time>2023-09-02T14:56:16.000Z</time>
      </trkpt>
      <trkpt lat="45.83454" lon="4.75225">
        <ele>352.29996</ele>
        <time>2023-09-02T14:56:17.000Z</time>
      </trkpt>
      <trkpt lat="45.83458" lon="4.7522">
        <ele>352.19955</ele>
        <time>2023-09-02T14:56:18.000Z</time>
      </trkpt>
      <trkpt lat="45.83462" lon="4.75216">
        <ele>352.05899</ele>
        <time>2023-09-02T14:56:19.000Z</time>
      </trkpt>
      <trkpt lat="45.83469" lon="4.75211">
        <ele>351.97501</ele>
        <time>2023-09-02T14:56:20.000Z</time>
      </trkpt>
      <trkpt lat="45.83474" lon="4.75206">
        <ele>351.97369</ele>
        <time>2023-09-02T14:56:21.000Z</time>
      </trkpt>
      <trkpt lat="45.83481" lon="4.75205">
        <ele>351.89423</ele>
        <time>2023-09-02T14:56:22.000Z</time>
      </trkpt>
      <trkpt lat="45.83488" lon="4.75204">
        <ele>351.78595</ele>
        <time>2023-09-02T14:56:23.000Z</time>
      </trkpt>
      <trkpt lat="45.83494" lon="4.75204">
        <ele>351.72919</ele>
        <time>2023-09-02T14:56:24.000Z</time>
      </trkpt>
      <trkpt lat="45.835" lon="4.75205">
        <ele>351.71783</ele>
        <time>2023-09-02T14:56:25.000Z</time>
      </trkpt>
      <trkpt lat="45.83506" lon="4.75203">
        <ele>351.595</ele>
        <time>2023-09-02T14:56:26.000Z</time>
      </trkpt>
      <trkpt lat="45.83511" lon="4.752">
        <ele>351.49823</ele>
        <time>2023-09-02T14:56:27.000Z</time>
      </trkpt>
      <trkpt lat="45.83515" lon="4.75197">
        <ele>351.43158</ele>
        <time>2023-09-02T14:56:28.000Z</time>
      </trkpt>
      <trkpt lat="45.83519" lon="4.75192">
        <ele>351.37762</ele>
        <time>2023-09-02T14:56:29.000Z</time>
      </trkpt>
      <trkpt lat="45.83523" lon="4.75188">
        <ele>351.22937</ele>
        <time>2023-09-02T14:56:30.000Z</time>
      </trkpt>
      <trkpt lat="45.83527" lon="4.75183">
        <ele>351.01862</ele>
        <time>2023-09-02T14:56:31.000Z</time>
      </trkpt>
      <trkpt lat="45.8353" lon="4.75179">
        <ele>350.8017</ele>
        <time>2023-09-02T14:56:32.000Z</time>
      </trkpt>
      <trkpt lat="45.83532" lon="4.75177">
        <ele>350.58719</ele>
        <time>2023-09-02T14:56:33.000Z</time>
      </trkpt>
      <trkpt lat="45.83533" lon="4.75174">
        <ele>350.41003</ele>
        <time>2023-09-02T14:56:34.000Z</time>
      </trkpt>
      <trkpt lat="45.83536" lon="4.75172">
        <ele>350.36615</ele>
        <time>2023-09-02T14:56:35.000Z</time>
      </trkpt>
      <trkpt lat="45.83538" lon="4.7517">
        <ele>350.33636</ele>
        <time>2023-09-02T14:56:36.000Z</time>
      </trkpt>
      <trkpt lat="45.83541" lon="4.75168">
        <ele>350.367</ele>
        <time>2023-09-02T14:56:37.000Z</time>
      </trkpt>
      <trkpt lat="45.83544" lon="4.75164">
        <ele>350.43866</ele>
        <time>2023-09-02T14:56:38.000Z</time>
      </trkpt>
      <trkpt lat="45.83548" lon="4.75162">
        <ele>350.5119</ele>
        <time>2023-09-02T14:56:39.000Z</time>
      </trkpt>
      <trkpt lat="45.8355" lon="4.75159">
        <ele>350.62799</ele>
        <time>2023-09-02T14:56:40.000Z</time>
      </trkpt>
      <trkpt lat="45.83553" lon="4.75156">
        <ele>350.36783</ele>
        <time>2023-09-02T14:56:41.000Z</time>
      </trkpt>
      <trkpt lat="45.83557" lon="4.75153">
        <ele>350.17847</ele>
        <time>2023-09-02T14:56:42.000Z</time>
      </trkpt>
      <trkpt lat="45.8356" lon="4.7515">
        <ele>350.00558</ele>
        <time>2023-09-02T14:56:43.000Z</time>
      </trkpt>
      <trkpt lat="45.83563" lon="4.75146">
        <ele>349.75894</ele>
        <time>2023-09-02T14:56:44.000Z</time>
      </trkpt>
      <trkpt lat="45.83567" lon="4.75141">
        <ele>349.48224</ele>
        <time>2023-09-02T14:56:45.000Z</time>
      </trkpt>
      <trkpt lat="45.83571" lon="4.75137">
        <ele>349.28354</ele>
        <time>2023-09-02T14:56:46.000Z</time>
      </trkpt>
      <trkpt lat="45.83575" lon="4.75132">
        <ele>349.11514</ele>
        <time>2023-09-02T14:56:47.000Z</time>
      </trkpt>
      <trkpt lat="45.83579" lon="4.75128">
        <ele>348.99384</ele>
        <time>2023-09-02T14:56:48.000Z</time>
      </trkpt>
      <trkpt lat="45.83584" lon="4.75123">
        <ele>348.75845</ele>
        <time>2023-09-02T14:56:49.000Z</time>
      </trkpt>
      <trkpt lat="45.83588" lon="4.75117">
        <ele>348.54266</ele>
        <time>2023-09-02T14:56:50.000Z</time>
      </trkpt>
      <trkpt lat="45.83591" lon="4.75111">
        <ele>348.28305</ele>
        <time>2023-09-02T14:56:51.000Z</time>
      </trkpt>
      <trkpt lat="45.83595" lon="4.75104">
        <ele>348.01767</ele>
        <time>2023-09-02T14:56:52.000Z</time>
      </trkpt>
      <trkpt lat="45.83599" lon="4.75095">
        <ele>347.94067</ele>
        <time>2023-09-02T14:56:53.000Z</time>
      </trkpt>
      <trkpt lat="45.83602" lon="4.75087">
        <ele>347.80719</ele>
        <time>2023-09-02T14:56:54.000Z</time>
      </trkpt>
      <trkpt lat="45.83605" lon="4.75077">
        <ele>347.65121</ele>
        <time>2023-09-02T14:56:55.000Z</time>
      </trkpt>
      <trkpt lat="45.83609" lon="4.75069">
        <ele>347.44678</ele>
        <time>2023-09-02T14:56:56.000Z</time>
      </trkpt>
      <trkpt lat="45.83615" lon="4.7506">
        <ele>347.18811</ele>
        <time>2023-09-02T14:56:57.000Z</time>
      </trkpt>
      <trkpt lat="45.8362" lon="4.75051">
        <ele>346.92715</ele>
        <time>2023-09-02T14:56:58.000Z</time>
      </trkpt>
      <trkpt lat="45.83625" lon="4.75043">
        <ele>346.70129</ele>
        <time>2023-09-02T14:56:59.000Z</time>
      </trkpt>
      <trkpt lat="45.8363" lon="4.75035">
        <ele>346.45502</ele>
        <time>2023-09-02T14:57:00.000Z</time>
      </trkpt>
      <trkpt lat="45.83634" lon="4.75026">
        <ele>346.24387</ele>
        <time>2023-09-02T14:57:01.000Z</time>
      </trkpt>
      <trkpt lat="45.83636" lon="4.75018">
        <ele>346.0723</ele>
        <time>2023-09-02T14:57:02.000Z</time>
      </trkpt>
      <trkpt lat="45.83637" lon="4.75011">
        <ele>345.9024</ele>
        <time>2023-09-02T14:57:03.000Z</time>
      </trkpt>
      <trkpt lat="45.83638" lon="4.75004">
        <ele>345.76483</ele>
        <time>2023-09-02T14:57:04.000Z</time>
      </trkpt>
      <trkpt lat="45.8364" lon="4.74995">
        <ele>345.5882</ele>
        <time>2023-09-02T14:57:05.000Z</time>
      </trkpt>
      <trkpt lat="45.8364" lon="4.74987">
        <ele>345.45984</ele>
        <time>2023-09-02T14:57:06.000Z</time>
      </trkpt>
      <trkpt lat="45.83642" lon="4.7498">
        <ele>345.30414</ele>
        <time>2023-09-02T14:57:07.000Z</time>
      </trkpt>
      <trkpt lat="45.83644" lon="4.74973">
        <ele>345.19861</ele>
        <time>2023-09-02T14:57:08.000Z</time>
      </trkpt>
      <trkpt lat="45.83645" lon="4.74967">
        <ele>345.17682</ele>
        <time>2023-09-02T14:57:09.000Z</time>
      </trkpt>
      <trkpt lat="45.83646" lon="4.74962">
        <ele>345.11176</ele>
        <time>2023-09-02T14:57:10.000Z</time>
      </trkpt>
      <trkpt lat="45.83646" lon="4.74957">
        <ele>345.15054</ele>
        <time>2023-09-02T14:57:11.000Z</time>
      </trkpt>
      <trkpt lat="45.83648" lon="4.74952">
        <ele>345.15503</ele>
        <time>2023-09-02T14:57:12.000Z</time>
      </trkpt>
      <trkpt lat="45.8365" lon="4.74944">
        <ele>345.01996</ele>
        <time>2023-09-02T14:57:13.000Z</time>
      </trkpt>
      <trkpt lat="45.83652" lon="4.74938">
        <ele>344.95499</ele>
        <time>2023-09-02T14:57:14.000Z</time>
      </trkpt>
      <trkpt lat="45.83655" lon="4.74931">
        <ele>344.8299</ele>
        <time>2023-09-02T14:57:15.000Z</time>
      </trkpt>
      <trkpt lat="45.83658" lon="4.74924">
        <ele>344.81125</ele>
        <time>2023-09-02T14:57:16.000Z</time>
      </trkpt>
      <trkpt lat="45.83662" lon="4.74918">
        <ele>344.83929</ele>
        <time>2023-09-02T14:57:17.000Z</time>
      </trkpt>
      <trkpt lat="45.83664" lon="4.74911">
        <ele>344.8139</ele>
        <time>2023-09-02T14:57:18.000Z</time>
      </trkpt>
      <trkpt lat="45.83667" lon="4.74904">
        <ele>344.84015</ele>
        <time>2023-09-02T14:57:19.000Z</time>
      </trkpt>
      <trkpt lat="45.8367" lon="4.74897">
        <ele>344.82251</ele>
        <time>2023-09-02T14:57:20.000Z</time>
      </trkpt>
      <trkpt lat="45.83674" lon="4.7489">
        <ele>345.28009</ele>
        <time>2023-09-02T14:57:21.000Z</time>
      </trkpt>
      <trkpt lat="45.83675" lon="4.74887">
        <ele>345.81537</ele>
        <time>2023-09-02T14:57:22.000Z</time>
      </trkpt>
      <trkpt lat="45.83681" lon="4.74881">
        <ele>345.95514</ele>
        <time>2023-09-02T14:57:23.000Z</time>
      </trkpt>
      <trkpt lat="45.83688" lon="4.74875">
        <ele>346.10269</ele>
        <time>2023-09-02T14:57:24.000Z</time>
      </trkpt>
      <trkpt lat="45.83694" lon="4.7487">
        <ele>346.26944</ele>
        <time>2023-09-02T14:57:25.000Z</time>
      </trkpt>
      <trkpt lat="45.837" lon="4.74866">
        <ele>346.35495</ele>
        <time>2023-09-02T14:57:26.000Z</time>
      </trkpt>
      <trkpt lat="45.83707" lon="4.74862">
        <ele>346.35367</ele>
        <time>2023-09-02T14:57:27.000Z</time>
      </trkpt>
      <trkpt lat="45.83714" lon="4.7486">
        <ele>346.27719</ele>
        <time>2023-09-02T14:57:28.000Z</time>
      </trkpt>
      <trkpt lat="45.83719" lon="4.74856">
        <ele>346.21442</ele>
        <time>2023-09-02T14:57:29.000Z</time>
      </trkpt>
      <trkpt lat="45.83725" lon="4.74853">
        <ele>346.34549</ele>
        <time>2023-09-02T14:57:30.000Z</time>
      </trkpt>
      <trkpt lat="45.8373" lon="4.74849">
        <ele>346.34991</ele>
        <time>2023-09-02T14:57:31.000Z</time>
      </trkpt>
      <trkpt lat="45.83735" lon="4.74845">
        <ele>346.47552</ele>
        <time>2023-09-02T14:57:32.000Z</time>
      </trkpt>
      <trkpt lat="45.83741" lon="4.7484">
        <ele>346.23422</ele>
        <time>2023-09-02T14:57:33.000Z</time>
      </trkpt>
      <trkpt lat="45.83746" lon="4.74836">
        <ele>346.00323</ele>
        <time>2023-09-02T14:57:34.000Z</time>
      </trkpt>
      <trkpt lat="45.83751" lon="4.7483">
        <ele>345.77167</ele>
        <time>2023-09-02T14:57:35.000Z</time>
      </trkpt>
      <trkpt lat="45.83756" lon="4.74825">
        <ele>345.54297</ele>
        <time>2023-09-02T14:57:36.000Z</time>
      </trkpt>
      <trkpt lat="45.8376" lon="4.74819">
        <ele>345.29547</ele>
        <time>2023-09-02T14:57:37.000Z</time>
      </trkpt>
      <trkpt lat="45.83765" lon="4.74812">
        <ele>345.01578</ele>
        <time>2023-09-02T14:57:38.000Z</time>
      </trkpt>
      <trkpt lat="45.83768" lon="4.74806">
        <ele>344.70819</ele>
        <time>2023-09-02T14:57:39.000Z</time>
      </trkpt>
      <trkpt lat="45.83772" lon="4.74799">
        <ele>344.4234</ele>
        <time>2023-09-02T14:57:40.000Z</time>
      </trkpt>
      <trkpt lat="45.83774" lon="4.74793">
        <ele>344.04388</ele>
        <time>2023-09-02T14:57:41.000Z</time>
      </trkpt>
      <trkpt lat="45.83778" lon="4.74785">
        <ele>343.50629</ele>
        <time>2023-09-02T14:57:42.000Z</time>
      </trkpt>
      <trkpt lat="45.83781" lon="4.74778">
        <ele>343.32864</ele>
        <time>2023-09-02T14:57:43.000Z</time>
      </trkpt>
      <trkpt lat="45.83784" lon="4.74772">
        <ele>343.16147</ele>
        <time>2023-09-02T14:57:44.000Z</time>
      </trkpt>
      <trkpt lat="45.83788" lon="4.74764">
        <ele>343.11777</ele>
        <time>2023-09-02T14:57:45.000Z</time>
      </trkpt>
      <trkpt lat="45.83791" lon="4.74756">
        <ele>343.15045</ele>
        <time>2023-09-02T14:57:46.000Z</time>
      </trkpt>
      <trkpt lat="45.83795" lon="4.7475">
        <ele>343.24377</ele>
        <time>2023-09-02T14:57:47.000Z</time>
      </trkpt>
      <trkpt lat="45.838" lon="4.74743">
        <ele>343.37775</ele>
        <time>2023-09-02T14:57:48.000Z</time>
      </trkpt>
      <trkpt lat="45.83804" lon="4.74737">
        <ele>343.47272</ele>
        <time>2023-09-02T14:57:49.000Z</time>
      </trkpt>
      <trkpt lat="45.8381" lon="4.74731">
        <ele>343.30536</ele>
        <time>2023-09-02T14:57:50.000Z</time>
      </trkpt>
      <trkpt lat="45.83817" lon="4.74726">
        <ele>343.27777</ele>
        <time>2023-09-02T14:57:51.000Z</time>
      </trkpt>
      <trkpt lat="45.83824" lon="4.74721">
        <ele>343.16241</ele>
        <time>2023-09-02T14:57:52.000Z</time>
      </trkpt>
      <trkpt lat="45.83832" lon="4.74719">
        <ele>343.32996</ele>
        <time>2023-09-02T14:57:53.000Z</time>
      </trkpt>
      <trkpt lat="45.8384" lon="4.74716">
        <ele>343.45139</ele>
        <time>2023-09-02T14:57:54.000Z</time>
      </trkpt>
      <trkpt lat="45.83847" lon="4.7471">
        <ele>343.58362</ele>
        <time>2023-09-02T14:57:55.000Z</time>
      </trkpt>
      <trkpt lat="45.83852" lon="4.74704">
        <ele>343.71533</ele>
        <time>2023-09-02T14:57:56.000Z</time>
      </trkpt>
      <trkpt lat="45.83855" lon="4.74696">
        <ele>343.80222</ele>
        <time>2023-09-02T14:57:57.000Z</time>
      </trkpt>
      <trkpt lat="45.8386" lon="4.74687">
        <ele>343.98782</ele>
        <time>2023-09-02T14:57:58.000Z</time>
      </trkpt>
      <trkpt lat="45.83864" lon="4.7468">
        <ele>344.18866</ele>
        <time>2023-09-02T14:57:59.000Z</time>
      </trkpt>
      <trkpt lat="45.83869" lon="4.74673">
        <ele>344.25739</ele>
        <time>2023-09-02T14:58:00.000Z</time>
      </trkpt>
      <trkpt lat="45.83873" lon="4.74667">
        <ele>344.20959</ele>
        <time>2023-09-02T14:58:01.000Z</time>
      </trkpt>
      <trkpt lat="45.8388" lon="4.74658">
        <ele>343.95844</ele>
        <time>2023-09-02T14:58:02.000Z</time>
      </trkpt>
      <trkpt lat="45.83884" lon="4.74655">
        <ele>343.55426</ele>
        <time>2023-09-02T14:58:03.000Z</time>
      </trkpt>
      <trkpt lat="45.83891" lon="4.74648">
        <ele>343.11383</ele>
        <time>2023-09-02T14:58:04.000Z</time>
      </trkpt>
      <trkpt lat="45.83895" lon="4.74641">
        <ele>342.52667</ele>
        <time>2023-09-02T14:58:05.000Z</time>
      </trkpt>
      <trkpt lat="45.83899" lon="4.74633">
        <ele>341.89435</ele>
        <time>2023-09-02T14:58:06.000Z</time>
      </trkpt>
      <trkpt lat="45.83902" lon="4.74624">
        <ele>341.26132</ele>
        <time>2023-09-02T14:58:07.000Z</time>
      </trkpt>
      <trkpt lat="45.83905" lon="4.74616">
        <ele>340.56732</ele>
        <time>2023-09-02T14:58:08.000Z</time>
      </trkpt>
      <trkpt lat="45.83907" lon="4.74607">
        <ele>339.89273</ele>
        <time>2023-09-02T14:58:09.000Z</time>
      </trkpt>
      <trkpt lat="45.83907" lon="4.74597">
        <ele>339.31699</ele>
        <time>2023-09-02T14:58:10.000Z</time>
      </trkpt>
      <trkpt lat="45.83907" lon="4.74587">
        <ele>338.75159</ele>
        <time>2023-09-02T14:58:11.000Z</time>
      </trkpt>
      <trkpt lat="45.83905" lon="4.74577">
        <ele>338.19101</ele>
        <time>2023-09-02T14:58:12.000Z</time>
      </trkpt>
      <trkpt lat="45.83904" lon="4.74572">
        <ele>337.67822</ele>
        <time>2023-09-02T14:58:13.000Z</time>
      </trkpt>
      <trkpt lat="45.83902" lon="4.74564">
        <ele>337.09525</ele>
        <time>2023-09-02T14:58:14.000Z</time>
      </trkpt>
      <trkpt lat="45.83901" lon="4.74558">
        <ele>336.44659</ele>
        <time>2023-09-02T14:58:15.000Z</time>
      </trkpt>
      <trkpt lat="45.83899" lon="4.7455">
        <ele>335.77075</ele>
        <time>2023-09-02T14:58:16.000Z</time>
      </trkpt>
      <trkpt lat="45.83898" lon="4.74544">
        <ele>335.12054</ele>
        <time>2023-09-02T14:58:17.000Z</time>
      </trkpt>
      <trkpt lat="45.83898" lon="4.74538">
        <ele>334.42902</ele>
        <time>2023-09-02T14:58:18.000Z</time>
      </trkpt>
      <trkpt lat="45.83898" lon="4.7453">
        <ele>333.80792</ele>
        <time>2023-09-02T14:58:19.000Z</time>
      </trkpt>
      <trkpt lat="45.83899" lon="4.74524">
        <ele>333.25507</ele>
        <time>2023-09-02T14:58:20.000Z</time>
      </trkpt>
      <trkpt lat="45.839" lon="4.74518">
        <ele>332.68668</ele>
        <time>2023-09-02T14:58:21.000Z</time>
      </trkpt>
      <trkpt lat="45.83901" lon="4.74512">
        <ele>332.36658</ele>
        <time>2023-09-02T14:58:22.000Z</time>
      </trkpt>
      <trkpt lat="45.83903" lon="4.74504">
        <ele>332.21954</ele>
        <time>2023-09-02T14:58:23.000Z</time>
      </trkpt>
      <trkpt lat="45.83905" lon="4.74497">
        <ele>332.08881</ele>
        <time>2023-09-02T14:58:24.000Z</time>
      </trkpt>
      <trkpt lat="45.83907" lon="4.74489">
        <ele>332.01486</ele>
        <time>2023-09-02T14:58:25.000Z</time>
      </trkpt>
      <trkpt lat="45.83909" lon="4.74481">
        <ele>331.93414</ele>
        <time>2023-09-02T14:58:26.000Z</time>
      </trkpt>
      <trkpt lat="45.83912" lon="4.74475">
        <ele>331.8627</ele>
        <time>2023-09-02T14:58:27.000Z</time>
      </trkpt>
      <trkpt lat="45.83915" lon="4.74468">
        <ele>331.82703</ele>
        <time>2023-09-02T14:58:28.000Z</time>
      </trkpt>
      <trkpt lat="45.83918" lon="4.74462">
        <ele>331.78192</ele>
        <time>2023-09-02T14:58:29.000Z</time>
      </trkpt>
      <trkpt lat="45.83921" lon="4.74455">
        <ele>331.80527</ele>
        <time>2023-09-02T14:58:30.000Z</time>
      </trkpt>
      <trkpt lat="45.83923" lon="4.74449">
        <ele>331.79123</ele>
        <time>2023-09-02T14:58:31.000Z</time>
      </trkpt>
      <trkpt lat="45.83926" lon="4.74442">
        <ele>331.50845</ele>
        <time>2023-09-02T14:58:32.000Z</time>
      </trkpt>
      <trkpt lat="45.83928" lon="4.74436">
        <ele>331.3165</ele>
        <time>2023-09-02T14:58:33.000Z</time>
      </trkpt>
      <trkpt lat="45.83931" lon="4.74429">
        <ele>331.17453</ele>
        <time>2023-09-02T14:58:34.000Z</time>
      </trkpt>
      <trkpt lat="45.83933" lon="4.74423">
        <ele>331.09076</ele>
        <time>2023-09-02T14:58:35.000Z</time>
      </trkpt>
      <trkpt lat="45.83936" lon="4.74416">
        <ele>330.98187</ele>
        <time>2023-09-02T14:58:36.000Z</time>
      </trkpt>
      <trkpt lat="45.83938" lon="4.74409">
        <ele>330.89063</ele>
        <time>2023-09-02T14:58:37.000Z</time>
      </trkpt>
      <trkpt lat="45.83939" lon="4.74402">
        <ele>330.81256</ele>
        <time>2023-09-02T14:58:38.000Z</time>
      </trkpt>
      <trkpt lat="45.83941" lon="4.74395">
        <ele>330.61743</ele>
        <time>2023-09-02T14:58:39.000Z</time>
      </trkpt>
      <trkpt lat="45.83943" lon="4.74389">
        <ele>330.41006</ele>
        <time>2023-09-02T14:58:40.000Z</time>
      </trkpt>
      <trkpt lat="45.83945" lon="4.74383">
        <ele>330.23575</ele>
        <time>2023-09-02T14:58:41.000Z</time>
      </trkpt>
      <trkpt lat="45.83947" lon="4.74377">
        <ele>330.05316</ele>
        <time>2023-09-02T14:58:42.000Z</time>
      </trkpt>
      <trkpt lat="45.83949" lon="4.74372">
        <ele>329.86087</ele>
        <time>2023-09-02T14:58:43.000Z</time>
      </trkpt>
      <trkpt lat="45.83949" lon="4.74365">
        <ele>329.67694</ele>
        <time>2023-09-02T14:58:44.000Z</time>
      </trkpt>
      <trkpt lat="45.8395" lon="4.74359">
        <ele>329.48431</ele>
        <time>2023-09-02T14:58:45.000Z</time>
      </trkpt>
      <trkpt lat="45.8395" lon="4.74351">
        <ele>329.29172</ele>
        <time>2023-09-02T14:58:46.000Z</time>
      </trkpt>
      <trkpt lat="45.83951" lon="4.74343">
        <ele>329.06165</ele>
        <time>2023-09-02T14:58:47.000Z</time>
      </trkpt>
      <trkpt lat="45.8395" lon="4.74334">
        <ele>329.00296</ele>
        <time>2023-09-02T14:58:48.000Z</time>
      </trkpt>
      <trkpt lat="45.8395" lon="4.74325">
        <ele>328.91479</ele>
        <time>2023-09-02T14:58:49.000Z</time>
      </trkpt>
      <trkpt lat="45.83949" lon="4.74317">
        <ele>328.81451</ele>
        <time>2023-09-02T14:58:50.000Z</time>
      </trkpt>
      <trkpt lat="45.83949" lon="4.7431">
        <ele>328.67316</ele>
        <time>2023-09-02T14:58:51.000Z</time>
      </trkpt>
      <trkpt lat="45.8395" lon="4.74305">
        <ele>328.83087</ele>
        <time>2023-09-02T14:58:52.000Z</time>
      </trkpt>
      <trkpt lat="45.8395" lon="4.74302">
        <ele>328.90329</ele>
        <time>2023-09-02T14:58:53.000Z</time>
      </trkpt>
      <trkpt lat="45.83952" lon="4.743">
        <ele>328.99973</ele>
        <time>2023-09-02T14:58:54.000Z</time>
      </trkpt>
      <trkpt lat="45.83953" lon="4.74297">
        <ele>329.10556</ele>
        <time>2023-09-02T14:58:55.000Z</time>
      </trkpt>
      <trkpt lat="45.83955" lon="4.74294">
        <ele>329.24728</ele>
        <time>2023-09-02T14:58:56.000Z</time>
      </trkpt>
      <trkpt lat="45.83957" lon="4.74293">
        <ele>329.41974</ele>
        <time>2023-09-02T14:58:57.000Z</time>
      </trkpt>
      <trkpt lat="45.83959" lon="4.7429">
        <ele>329.66354</ele>
        <time>2023-09-02T14:58:58.000Z</time>
      </trkpt>
      <trkpt lat="45.8396" lon="4.74288">
        <ele>329.95343</ele>
        <time>2023-09-02T14:58:59.000Z</time>
      </trkpt>
      <trkpt lat="45.83961" lon="4.74285">
        <ele>330.3129</ele>
        <time>2023-09-02T14:59:00.000Z</time>
      </trkpt>
      <trkpt lat="45.83962" lon="4.74281">
        <ele>330.68246</ele>
        <time>2023-09-02T14:59:01.000Z</time>
      </trkpt>
      <trkpt lat="45.83962" lon="4.74276">
        <ele>331.02338</ele>
        <time>2023-09-02T14:59:02.000Z</time>
      </trkpt>
      <trkpt lat="45.83962" lon="4.74271">
        <ele>331.3118</ele>
        <time>2023-09-02T14:59:03.000Z</time>
      </trkpt>
      <trkpt lat="45.83961" lon="4.74266">
        <ele>331.5097</ele>
        <time>2023-09-02T14:59:04.000Z</time>
      </trkpt>
      <trkpt lat="45.83961" lon="4.74261">
        <ele>331.72723</ele>
        <time>2023-09-02T14:59:05.000Z</time>
      </trkpt>
      <trkpt lat="45.8396" lon="4.74256">
        <ele>331.9798</ele>
        <time>2023-09-02T14:59:06.000Z</time>
      </trkpt>
      <trkpt lat="45.8396" lon="4.74251">
        <ele>332.29315</ele>
        <time>2023-09-02T14:59:07.000Z</time>
      </trkpt>
      <trkpt lat="45.83961" lon="4.74246">
        <ele>332.41235</ele>
        <time>2023-09-02T14:59:08.000Z</time>
      </trkpt>
      <trkpt lat="45.83961" lon="4.74243">
        <ele>332.62665</ele>
        <time>2023-09-02T14:59:09.000Z</time>
      </trkpt>
      <trkpt lat="45.83962" lon="4.74239">
        <ele>332.73315</ele>
        <time>2023-09-02T14:59:10.000Z</time>
      </trkpt>
      <trkpt lat="45.83963" lon="4.74235">
        <ele>332.85513</ele>
        <time>2023-09-02T14:59:11.000Z</time>
      </trkpt>
      <trkpt lat="45.83965" lon="4.74231">
        <ele>332.92569</ele>
        <time>2023-09-02T14:59:12.000Z</time>
      </trkpt>
      <trkpt lat="45.83966" lon="4.74226">
        <ele>333.08984</ele>
        <time>2023-09-02T14:59:13.000Z</time>
      </trkpt>
      <trkpt lat="45.83968" lon="4.74221">
        <ele>333.21652</ele>
        <time>2023-09-02T14:59:14.000Z</time>
      </trkpt>
      <trkpt lat="45.83969" lon="4.74216">
        <ele>333.34985</ele>
        <time>2023-09-02T14:59:15.000Z</time>
      </trkpt>
      <trkpt lat="45.8397" lon="4.74212">
        <ele>333.49469</ele>
        <time>2023-09-02T14:59:16.000Z</time>
      </trkpt>
      <trkpt lat="45.83971" lon="4.74207">
        <ele>333.60925</ele>
        <time>2023-09-02T14:59:17.000Z</time>
      </trkpt>
      <trkpt lat="45.83973" lon="4.74203">
        <ele>333.61865</ele>
        <time>2023-09-02T14:59:18.000Z</time>
      </trkpt>
      <trkpt lat="45.83974" lon="4.74199">
        <ele>333.5708</ele>
        <time>2023-09-02T14:59:19.000Z</time>
      </trkpt>
      <trkpt lat="45.83975" lon="4.74195">
        <ele>333.48734</ele>
        <time>2023-09-02T14:59:20.000Z</time>
      </trkpt>
      <trkpt lat="45.83975" lon="4.7419">
        <ele>333.44495</ele>
        <time>2023-09-02T14:59:21.000Z</time>
      </trkpt>
      <trkpt lat="45.83976" lon="4.74185">
        <ele>333.43433</ele>
        <time>2023-09-02T14:59:22.000Z</time>
      </trkpt>
      <trkpt lat="45.83977" lon="4.7418">
        <ele>333.51645</ele>
        <time>2023-09-02T14:59:23.000Z</time>
      </trkpt>
      <trkpt lat="45.83978" lon="4.74175">
        <ele>333.73465</ele>
        <time>2023-09-02T14:59:24.000Z</time>
      </trkpt>
      <trkpt lat="45.8398" lon="4.7417">
        <ele>333.97095</ele>
        <time>2023-09-02T14:59:25.000Z</time>
      </trkpt>
      <trkpt lat="45.83981" lon="4.74164">
        <ele>334.13376</ele>
        <time>2023-09-02T14:59:26.000Z</time>
      </trkpt>
      <trkpt lat="45.83982" lon="4.74159">
        <ele>334.25897</ele>
        <time>2023-09-02T14:59:27.000Z</time>
      </trkpt>
      <trkpt lat="45.83983" lon="4.74153">
        <ele>334.39655</ele>
        <time>2023-09-02T14:59:28.000Z</time>
      </trkpt>
      <trkpt lat="45.83985" lon="4.74147">
        <ele>334.48773</ele>
        <time>2023-09-02T14:59:29.000Z</time>
      </trkpt>
      <trkpt lat="45.83987" lon="4.74141">
        <ele>334.60464</ele>
        <time>2023-09-02T14:59:30.000Z</time>
      </trkpt>
      <trkpt lat="45.83989" lon="4.74137">
        <ele>334.67987</ele>
        <time>2023-09-02T14:59:31.000Z</time>
      </trkpt>
      <trkpt lat="45.83992" lon="4.74132">
        <ele>334.82428</ele>
        <time>2023-09-02T14:59:32.000Z</time>
      </trkpt>
      <trkpt lat="45.83995" lon="4.74128">
        <ele>334.84314</ele>
        <time>2023-09-02T14:59:33.000Z</time>
      </trkpt>
      <trkpt lat="45.83999" lon="4.74124">
        <ele>334.85645</ele>
        <time>2023-09-02T14:59:34.000Z</time>
      </trkpt>
      <trkpt lat="45.84002" lon="4.7412">
        <ele>334.88525</ele>
        <time>2023-09-02T14:59:35.000Z</time>
      </trkpt>
      <trkpt lat="45.84005" lon="4.74115">
        <ele>334.95239</ele>
        <time>2023-09-02T14:59:36.000Z</time>
      </trkpt>
      <trkpt lat="45.84009" lon="4.74112">
        <ele>335.00861</ele>
        <time>2023-09-02T14:59:37.000Z</time>
      </trkpt>
      <trkpt lat="45.84012" lon="4.74108">
        <ele>335.08075</ele>
        <time>2023-09-02T14:59:38.000Z</time>
      </trkpt>
      <trkpt lat="45.84015" lon="4.74103">
        <ele>335.10617</ele>
        <time>2023-09-02T14:59:39.000Z</time>
      </trkpt>
      <trkpt lat="45.84018" lon="4.74099">
        <ele>335.08551</ele>
        <time>2023-09-02T14:59:40.000Z</time>
      </trkpt>
      <trkpt lat="45.84022" lon="4.74096">
        <ele>335.03571</ele>
        <time>2023-09-02T14:59:41.000Z</time>
      </trkpt>
      <trkpt lat="45.84024" lon="4.74091">
        <ele>334.94354</ele>
        <time>2023-09-02T14:59:42.000Z</time>
      </trkpt>
      <trkpt lat="45.84027" lon="4.74087">
        <ele>334.78842</ele>
        <time>2023-09-02T14:59:43.000Z</time>
      </trkpt>
      <trkpt lat="45.8403" lon="4.74082">
        <ele>334.58908</ele>
        <time>2023-09-02T14:59:44.000Z</time>
      </trkpt>
      <trkpt lat="45.84031" lon="4.74075">
        <ele>334.3382</ele>
        <time>2023-09-02T14:59:45.000Z</time>
      </trkpt>
      <trkpt lat="45.84033" lon="4.74071">
        <ele>334.15015</ele>
        <time>2023-09-02T14:59:46.000Z</time>
      </trkpt>
      <trkpt lat="45.84035" lon="4.74067">
        <ele>333.94553</ele>
        <time>2023-09-02T14:59:47.000Z</time>
      </trkpt>
      <trkpt lat="45.84036" lon="4.74062">
        <ele>333.85004</ele>
        <time>2023-09-02T14:59:48.000Z</time>
      </trkpt>
      <trkpt lat="45.84038" lon="4.74056">
        <ele>333.79694</ele>
        <time>2023-09-02T14:59:49.000Z</time>
      </trkpt>
      <trkpt lat="45.8404" lon="4.74051">
        <ele>333.75238</ele>
        <time>2023-09-02T14:59:50.000Z</time>
      </trkpt>
      <trkpt lat="45.84042" lon="4.74046">
        <ele>333.76398</ele>
        <time>2023-09-02T14:59:51.000Z</time>
      </trkpt>
      <trkpt lat="45.84044" lon="4.7404">
        <ele>333.70184</ele>
        <time>2023-09-02T14:59:52.000Z</time>
      </trkpt>
      <trkpt lat="45.84046" lon="4.74034">
        <ele>333.70688</ele>
        <time>2023-09-02T14:59:53.000Z</time>
      </trkpt>
      <trkpt lat="45.84048" lon="4.74029">
        <ele>333.69635</ele>
        <time>2023-09-02T14:59:54.000Z</time>
      </trkpt>
      <trkpt lat="45.8405" lon="4.74023">
        <ele>333.59543</ele>
        <time>2023-09-02T14:59:55.000Z</time>
      </trkpt>
      <trkpt lat="45.84053" lon="4.74017">
        <ele>333.45984</ele>
        <time>2023-09-02T14:59:56.000Z</time>
      </trkpt>
      <trkpt lat="45.84055" lon="4.74012">
        <ele>333.24432</ele>
        <time>2023-09-02T14:59:57.000Z</time>
      </trkpt>
      <trkpt lat="45.84058" lon="4.74006">
        <ele>332.98328</ele>
        <time>2023-09-02T14:59:58.000Z</time>
      </trkpt>
      <trkpt lat="45.84062" lon="4.74001">
        <ele>332.7529</ele>
        <time>2023-09-02T14:59:59.000Z</time>
      </trkpt>
      <trkpt lat="45.84065" lon="4.73996">
        <ele>332.54355</ele>
        <time>2023-09-02T15:00:00.000Z</time>
      </trkpt>
      <trkpt lat="45.84068" lon="4.7399">
        <ele>332.30682</ele>
        <time>2023-09-02T15:00:01.000Z</time>
      </trkpt>
      <trkpt lat="45.84071" lon="4.73984">
        <ele>332.08109</ele>
        <time>2023-09-02T15:00:02.000Z</time>
      </trkpt>
      <trkpt lat="45.84076" lon="4.73979">
        <ele>331.88425</ele>
        <time>2023-09-02T15:00:03.000Z</time>
      </trkpt>
      <trkpt lat="45.84078" lon="4.73974">
        <ele>331.69217</ele>
        <time>2023-09-02T15:00:04.000Z</time>
      </trkpt>
      <trkpt lat="45.84081" lon="4.73968">
        <ele>331.5282</ele>
        <time>2023-09-02T15:00:05.000Z</time>
      </trkpt>
      <trkpt lat="45.84085" lon="4.73962">
        <ele>331.3493</ele>
        <time>2023-09-02T15:00:06.000Z</time>
      </trkpt>
      <trkpt lat="45.84089" lon="4.73957">
        <ele>331.46909</ele>
        <time>2023-09-02T15:00:07.000Z</time>
      </trkpt>
      <trkpt lat="45.84093" lon="4.73953">
        <ele>331.46469</ele>
        <time>2023-09-02T15:00:08.000Z</time>
      </trkpt>
      <trkpt lat="45.84097" lon="4.73948">
        <ele>331.38455</ele>
        <time>2023-09-02T15:00:09.000Z</time>
      </trkpt>
      <trkpt lat="45.84101" lon="4.73943">
        <ele>331.345</ele>
        <time>2023-09-02T15:00:10.000Z</time>
      </trkpt>
      <trkpt lat="45.84105" lon="4.73939">
        <ele>331.33771</ele>
        <time>2023-09-02T15:00:11.000Z</time>
      </trkpt>
      <trkpt lat="45.84108" lon="4.73933">
        <ele>331.36176</ele>
        <time>2023-09-02T15:00:12.000Z</time>
      </trkpt>
      <trkpt lat="45.84112" lon="4.73927">
        <ele>331.5332</ele>
        <time>2023-09-02T15:00:13.000Z</time>
      </trkpt>
      <trkpt lat="45.84116" lon="4.7392">
        <ele>331.74722</ele>
        <time>2023-09-02T15:00:14.000Z</time>
      </trkpt>
      <trkpt lat="45.8412" lon="4.73914">
        <ele>331.59003</ele>
        <time>2023-09-02T15:00:15.000Z</time>
      </trkpt>
      <trkpt lat="45.84124" lon="4.73908">
        <ele>331.48297</ele>
        <time>2023-09-02T15:00:16.000Z</time>
      </trkpt>
      <trkpt lat="45.84129" lon="4.73901">
        <ele>331.43158</ele>
        <time>2023-09-02T15:00:17.000Z</time>
      </trkpt>
      <trkpt lat="45.84133" lon="4.73895">
        <ele>331.41977</ele>
        <time>2023-09-02T15:00:18.000Z</time>
      </trkpt>
      <trkpt lat="45.84137" lon="4.73888">
        <ele>331.41388</ele>
        <time>2023-09-02T15:00:19.000Z</time>
      </trkpt>
      <trkpt lat="45.84142" lon="4.73881">
        <ele>331.42828</ele>
        <time>2023-09-02T15:00:20.000Z</time>
      </trkpt>
      <trkpt lat="45.84146" lon="4.73876">
        <ele>331.45319</ele>
        <time>2023-09-02T15:00:21.000Z</time>
      </trkpt>
      <trkpt lat="45.8415" lon="4.7387">
        <ele>331.49667</ele>
        <time>2023-09-02T15:00:22.000Z</time>
      </trkpt>
      <trkpt lat="45.84154" lon="4.73863">
        <ele>331.59952</ele>
        <time>2023-09-02T15:00:23.000Z</time>
      </trkpt>
      <trkpt lat="45.84157" lon="4.73856">
        <ele>331.69666</ele>
        <time>2023-09-02T15:00:24.000Z</time>
      </trkpt>
      <trkpt lat="45.84161" lon="4.73851">
        <ele>331.81134</ele>
        <time>2023-09-02T15:00:25.000Z</time>
      </trkpt>
      <trkpt lat="45.84164" lon="4.73846">
        <ele>331.92773</ele>
        <time>2023-09-02T15:00:26.000Z</time>
      </trkpt>
      <trkpt lat="45.84167" lon="4.73842">
        <ele>331.74481</ele>
        <time>2023-09-02T15:00:27.000Z</time>
      </trkpt>
      <trkpt lat="45.8417" lon="4.7384">
        <ele>331.64572</ele>
        <time>2023-09-02T15:00:28.000Z</time>
      </trkpt>
      <trkpt lat="45.84171" lon="4.73836">
        <ele>331.52582</ele>
        <time>2023-09-02T15:00:29.000Z</time>
      </trkpt>
      <trkpt lat="45.84171" lon="4.73832">
        <ele>331.48822</ele>
        <time>2023-09-02T15:00:30.000Z</time>
      </trkpt>
      <trkpt lat="45.84165" lon="4.73829">
        <ele>331.55936</ele>
        <time>2023-09-02T15:00:32.000Z</time>
      </trkpt>
      <trkpt lat="45.84162" lon="4.73827">
        <ele>330.63022</ele>
        <time>2023-09-02T15:00:33.000Z</time>
      </trkpt>
      <trkpt lat="45.8416" lon="4.73826">
        <ele>329.52109</ele>
        <time>2023-09-02T15:00:34.000Z</time>
      </trkpt>
      <trkpt lat="45.84156" lon="4.73824">
        <ele>328.37994</ele>
        <time>2023-09-02T15:00:35.000Z</time>
      </trkpt>
      <trkpt lat="45.84154" lon="4.73821">
        <ele>327.64926</ele>
        <time>2023-09-02T15:00:36.000Z</time>
      </trkpt>
      <trkpt lat="45.84151" lon="4.73818">
        <ele>326.82941</ele>
        <time>2023-09-02T15:00:37.000Z</time>
      </trkpt>
      <trkpt lat="45.84147" lon="4.73816">
        <ele>326.05298</ele>
        <time>2023-09-02T15:00:38.000Z</time>
      </trkpt>
      <trkpt lat="45.84143" lon="4.73814">
        <ele>325.27353</ele>
        <time>2023-09-02T15:00:39.000Z</time>
      </trkpt>
      <trkpt lat="45.84138" lon="4.73813">
        <ele>324.52054</ele>
        <time>2023-09-02T15:00:40.000Z</time>
      </trkpt>
      <trkpt lat="45.84134" lon="4.73813">
        <ele>323.73151</ele>
        <time>2023-09-02T15:00:41.000Z</time>
      </trkpt>
      <trkpt lat="45.8413" lon="4.73812">
        <ele>322.93188</ele>
        <time>2023-09-02T15:00:42.000Z</time>
      </trkpt>
      <trkpt lat="45.84125" lon="4.73811">
        <ele>322.14984</ele>
        <time>2023-09-02T15:00:43.000Z</time>
      </trkpt>
      <trkpt lat="45.84121" lon="4.73811">
        <ele>321.32257</ele>
        <time>2023-09-02T15:00:44.000Z</time>
      </trkpt>
      <trkpt lat="45.84117" lon="4.73811">
        <ele>320.49774</ele>
        <time>2023-09-02T15:00:45.000Z</time>
      </trkpt>
      <trkpt lat="45.84112" lon="4.73812">
        <ele>319.64005</ele>
        <time>2023-09-02T15:00:46.000Z</time>
      </trkpt>
      <trkpt lat="45.84108" lon="4.73812">
        <ele>318.77417</ele>
        <time>2023-09-02T15:00:47.000Z</time>
      </trkpt>
      <trkpt lat="45.84104" lon="4.73813">
        <ele>317.93628</ele>
        <time>2023-09-02T15:00:48.000Z</time>
      </trkpt>
      <trkpt lat="45.841" lon="4.73814">
        <ele>317.04355</ele>
        <time>2023-09-02T15:00:49.000Z</time>
      </trkpt>
      <trkpt lat="45.84095" lon="4.73814">
        <ele>316.19531</ele>
        <time>2023-09-02T15:00:50.000Z</time>
      </trkpt>
      <trkpt lat="45.84091" lon="4.73816">
        <ele>315.24213</ele>
        <time>2023-09-02T15:00:51.000Z</time>
      </trkpt>
      <trkpt lat="45.84087" lon="4.73817">
        <ele>314.15369</ele>
        <time>2023-09-02T15:00:52.000Z</time>
      </trkpt>
      <trkpt lat="45.84083" lon="4.73818">
        <ele>314.05817</ele>
        <time>2023-09-02T15:00:53.000Z</time>
      </trkpt>
      <trkpt lat="45.8408" lon="4.73818">
        <ele>313.95004</ele>
        <time>2023-09-02T15:00:54.000Z</time>
      </trkpt>
      <trkpt lat="45.84077" lon="4.73819">
        <ele>313.86896</ele>
        <time>2023-09-02T15:00:55.000Z</time>
      </trkpt>
      <trkpt lat="45.84073" lon="4.73821">
        <ele>313.82123</ele>
        <time>2023-09-02T15:00:56.000Z</time>
      </trkpt>
      <trkpt lat="45.84069" lon="4.73823">
        <ele>313.80292</ele>
        <time>2023-09-02T15:00:57.000Z</time>
      </trkpt>
      <trkpt lat="45.84065" lon="4.73826">
        <ele>313.77783</ele>
        <time>2023-09-02T15:00:58.000Z</time>
      </trkpt>
      <trkpt lat="45.8406" lon="4.73828">
        <ele>313.78009</ele>
        <time>2023-09-02T15:00:59.000Z</time>
      </trkpt>
      <trkpt lat="45.84056" lon="4.7383">
        <ele>313.79669</ele>
        <time>2023-09-02T15:01:00.000Z</time>
      </trkpt>
      <trkpt lat="45.84053" lon="4.73833">
        <ele>313.84488</ele>
        <time>2023-09-02T15:01:01.000Z</time>
      </trkpt>
      <trkpt lat="45.84049" lon="4.73835">
        <ele>313.87177</ele>
        <time>2023-09-02T15:01:02.000Z</time>
      </trkpt>
      <trkpt lat="45.84046" lon="4.73836">
        <ele>313.90256</ele>
        <time>2023-09-02T15:01:03.000Z</time>
      </trkpt>
      <trkpt lat="45.84041" lon="4.73838">
        <ele>313.94247</ele>
        <time>2023-09-02T15:01:04.000Z</time>
      </trkpt>
      <trkpt lat="45.84037" lon="4.73839">
        <ele>314.0155</ele>
        <time>2023-09-02T15:01:05.000Z</time>
      </trkpt>
      <trkpt lat="45.84032" lon="4.7384">
        <ele>314.08932</ele>
        <time>2023-09-02T15:01:06.000Z</time>
      </trkpt>
      <trkpt lat="45.84027" lon="4.73839">
        <ele>314.1601</ele>
        <time>2023-09-02T15:01:07.000Z</time>
      </trkpt>
      <trkpt lat="45.84023" lon="4.73841">
        <ele>314.23761</ele>
        <time>2023-09-02T15:01:08.000Z</time>
      </trkpt>
      <trkpt lat="45.8402" lon="4.73842">
        <ele>314.3233</ele>
        <time>2023-09-02T15:01:09.000Z</time>
      </trkpt>
      <trkpt lat="45.84016" lon="4.73844">
        <ele>314.4183</ele>
        <time>2023-09-02T15:01:10.000Z</time>
      </trkpt>
      <trkpt lat="45.84011" lon="4.73845">
        <ele>314.49832</ele>
        <time>2023-09-02T15:01:11.000Z</time>
      </trkpt>
      <trkpt lat="45.84007" lon="4.73846">
        <ele>314.5787</ele>
        <time>2023-09-02T15:01:12.000Z</time>
      </trkpt>
      <trkpt lat="45.84002" lon="4.73845">
        <ele>314.64719</ele>
        <time>2023-09-02T15:01:13.000Z</time>
      </trkpt>
      <trkpt lat="45.83997" lon="4.73844">
        <ele>314.73642</ele>
        <time>2023-09-02T15:01:14.000Z</time>
      </trkpt>
      <trkpt lat="45.83992" lon="4.73843">
        <ele>314.82257</ele>
        <time>2023-09-02T15:01:15.000Z</time>
      </trkpt>
      <trkpt lat="45.83989" lon="4.7384">
        <ele>314.8566</ele>
        <time>2023-09-02T15:01:16.000Z</time>
      </trkpt>
      <trkpt lat="45.83985" lon="4.73838">
        <ele>314.89664</ele>
        <time>2023-09-02T15:01:17.000Z</time>
      </trkpt>
      <trkpt lat="45.83982" lon="4.73836">
        <ele>314.96793</ele>
        <time>2023-09-02T15:01:18.000Z</time>
      </trkpt>
      <trkpt lat="45.83978" lon="4.73833">
        <ele>315.03607</ele>
        <time>2023-09-02T15:01:19.000Z</time>
      </trkpt>
      <trkpt lat="45.83976" lon="4.73828">
        <ele>315.95605</ele>
        <time>2023-09-02T15:01:20.000Z</time>
      </trkpt>
      <trkpt lat="45.83972" lon="4.73826">
        <ele>316.86703</ele>
        <time>2023-09-02T15:01:21.000Z</time>
      </trkpt>
      <trkpt lat="45.83969" lon="4.73823">
        <ele>317.76538</ele>
        <time>2023-09-02T15:01:22.000Z</time>
      </trkpt>
      <trkpt lat="45.83966" lon="4.7382">
        <ele>318.65546</ele>
        <time>2023-09-02T15:01:23.000Z</time>
      </trkpt>
      <trkpt lat="45.83963" lon="4.73817">
        <ele>319.51416</ele>
        <time>2023-09-02T15:01:24.000Z</time>
      </trkpt>
      <trkpt lat="45.8396" lon="4.73814">
        <ele>320.25214</ele>
        <time>2023-09-02T15:01:25.000Z</time>
      </trkpt>
      <trkpt lat="45.83957" lon="4.73811">
        <ele>321.06055</ele>
        <time>2023-09-02T15:01:26.000Z</time>
      </trkpt>
      <trkpt lat="45.83954" lon="4.73807">
        <ele>321.93805</ele>
        <time>2023-09-02T15:01:27.000Z</time>
      </trkpt>
      <trkpt lat="45.83951" lon="4.73803">
        <ele>322.77338</ele>
        <time>2023-09-02T15:01:28.000Z</time>
      </trkpt>
      <trkpt lat="45.83948" lon="4.738">
        <ele>323.59415</ele>
        <time>2023-09-02T15:01:29.000Z</time>
      </trkpt>
      <trkpt lat="45.83945" lon="4.73796">
        <ele>324.33554</ele>
        <time>2023-09-02T15:01:30.000Z</time>
      </trkpt>
      <trkpt lat="45.83943" lon="4.73791">
        <ele>325.10129</ele>
        <time>2023-09-02T15:01:31.000Z</time>
      </trkpt>
      <trkpt lat="45.83941" lon="4.73787">
        <ele>325.86017</ele>
        <time>2023-09-02T15:01:32.000Z</time>
      </trkpt>
      <trkpt lat="45.83939" lon="4.73783">
        <ele>326.62189</ele>
        <time>2023-09-02T15:01:33.000Z</time>
      </trkpt>
      <trkpt lat="45.83938" lon="4.73778">
        <ele>327.28607</ele>
        <time>2023-09-02T15:01:34.000Z</time>
      </trkpt>
      <trkpt lat="45.83937" lon="4.73772">
        <ele>328.00433</ele>
        <time>2023-09-02T15:01:35.000Z</time>
      </trkpt>
      <trkpt lat="45.83937" lon="4.73767">
        <ele>328.7099</ele>
        <time>2023-09-02T15:01:36.000Z</time>
      </trkpt>
      <trkpt lat="45.83937" lon="4.73761">
        <ele>329.55368</ele>
        <time>2023-09-02T15:01:37.000Z</time>
      </trkpt>
      <trkpt lat="45.83938" lon="4.73755">
        <ele>330.42236</ele>
        <time>2023-09-02T15:01:38.000Z</time>
      </trkpt>
      <trkpt lat="45.8394" lon="4.73749">
        <ele>331.27393</ele>
        <time>2023-09-02T15:01:39.000Z</time>
      </trkpt>
      <trkpt lat="45.83941" lon="4.73744">
        <ele>331.25601</ele>
        <time>2023-09-02T15:01:40.000Z</time>
      </trkpt>
      <trkpt lat="45.83943" lon="4.73738">
        <ele>331.23788</ele>
        <time>2023-09-02T15:01:41.000Z</time>
      </trkpt>
      <trkpt lat="45.83945" lon="4.73734">
        <ele>331.25928</ele>
        <time>2023-09-02T15:01:42.000Z</time>
      </trkpt>
      <trkpt lat="45.83948" lon="4.73729">
        <ele>331.20831</ele>
        <time>2023-09-02T15:01:43.000Z</time>
      </trkpt>
      <trkpt lat="45.8395" lon="4.73725">
        <ele>331.20276</ele>
        <time>2023-09-02T15:01:44.000Z</time>
      </trkpt>
      <trkpt lat="45.83952" lon="4.73721">
        <ele>331.24213</ele>
        <time>2023-09-02T15:01:45.000Z</time>
      </trkpt>
      <trkpt lat="45.83955" lon="4.73717">
        <ele>331.27615</ele>
        <time>2023-09-02T15:01:46.000Z</time>
      </trkpt>
      <trkpt lat="45.83958" lon="4.73712">
        <ele>331.20425</ele>
        <time>2023-09-02T15:01:47.000Z</time>
      </trkpt>
      <trkpt lat="45.83959" lon="4.73707">
        <ele>331.25211</ele>
        <time>2023-09-02T15:01:48.000Z</time>
      </trkpt>
      <trkpt lat="45.8396" lon="4.73701">
        <ele>330.94684</ele>
        <time>2023-09-02T15:01:49.000Z</time>
      </trkpt>
      <trkpt lat="45.8396" lon="4.73695">
        <ele>330.77954</ele>
        <time>2023-09-02T15:01:50.000Z</time>
      </trkpt>
      <trkpt lat="45.8396" lon="4.73688">
        <ele>330.58218</ele>
        <time>2023-09-02T15:01:51.000Z</time>
      </trkpt>
      <trkpt lat="45.83959" lon="4.73682">
        <ele>330.39914</ele>
        <time>2023-09-02T15:01:52.000Z</time>
      </trkpt>
      <trkpt lat="45.83958" lon="4.73675">
        <ele>330.21445</ele>
        <time>2023-09-02T15:01:53.000Z</time>
      </trkpt>
      <trkpt lat="45.83957" lon="4.73669">
        <ele>330.1217</ele>
        <time>2023-09-02T15:01:54.000Z</time>
      </trkpt>
      <trkpt lat="45.83957" lon="4.73663">
        <ele>329.98978</ele>
        <time>2023-09-02T15:01:55.000Z</time>
      </trkpt>
      <trkpt lat="45.83959" lon="4.73657">
        <ele>329.91748</ele>
        <time>2023-09-02T15:01:56.000Z</time>
      </trkpt>
      <trkpt lat="45.83962" lon="4.73651">
        <ele>329.70282</ele>
        <time>2023-09-02T15:01:57.000Z</time>
      </trkpt>
      <trkpt lat="45.83965" lon="4.73646">
        <ele>329.44177</ele>
        <time>2023-09-02T15:01:58.000Z</time>
      </trkpt>
      <trkpt lat="45.83967" lon="4.73642">
        <ele>329.20828</ele>
        <time>2023-09-02T15:01:59.000Z</time>
      </trkpt>
      <trkpt lat="45.8397" lon="4.73638">
        <ele>329.00876</ele>
        <time>2023-09-02T15:02:00.000Z</time>
      </trkpt>
      <trkpt lat="45.83974" lon="4.73635">
        <ele>328.79996</ele>
        <time>2023-09-02T15:02:01.000Z</time>
      </trkpt>
      <trkpt lat="45.83977" lon="4.73632">
        <ele>328.60107</ele>
        <time>2023-09-02T15:02:02.000Z</time>
      </trkpt>
      <trkpt lat="45.83981" lon="4.73631">
        <ele>328.48352</ele>
        <time>2023-09-02T15:02:03.000Z</time>
      </trkpt>
      <trkpt lat="45.83985" lon="4.73631">
        <ele>328.3446</ele>
        <time>2023-09-02T15:02:04.000Z</time>
      </trkpt>
      <trkpt lat="45.83989" lon="4.73631">
        <ele>328.25269</ele>
        <time>2023-09-02T15:02:05.000Z</time>
      </trkpt>
      <trkpt lat="45.83993" lon="4.7363">
        <ele>328.10117</ele>
        <time>2023-09-02T15:02:06.000Z</time>
      </trkpt>
      <trkpt lat="45.83996" lon="4.73629">
        <ele>327.99814</ele>
        <time>2023-09-02T15:02:07.000Z</time>
      </trkpt>
      <trkpt lat="45.84" lon="4.73627">
        <ele>327.83548</ele>
        <time>2023-09-02T15:02:08.000Z</time>
      </trkpt>
      <trkpt lat="45.84004" lon="4.73625">
        <ele>328.03741</ele>
        <time>2023-09-02T15:02:09.000Z</time>
      </trkpt>
      <trkpt lat="45.84008" lon="4.73623">
        <ele>328.16022</ele>
        <time>2023-09-02T15:02:10.000Z</time>
      </trkpt>
      <trkpt lat="45.84011" lon="4.73619">
        <ele>328.31955</ele>
        <time>2023-09-02T15:02:11.000Z</time>
      </trkpt>
      <trkpt lat="45.84014" lon="4.73615">
        <ele>328.48267</ele>
        <time>2023-09-02T15:02:12.000Z</time>
      </trkpt>
      <trkpt lat="45.84016" lon="4.73611">
        <ele>328.67575</ele>
        <time>2023-09-02T15:02:13.000Z</time>
      </trkpt>
      <trkpt lat="45.84018" lon="4.73606">
        <ele>328.89716</ele>
        <time>2023-09-02T15:02:14.000Z</time>
      </trkpt>
      <trkpt lat="45.8402" lon="4.73601">
        <ele>329.22415</ele>
        <time>2023-09-02T15:02:15.000Z</time>
      </trkpt>
      <trkpt lat="45.84021" lon="4.73596">
        <ele>329.53653</ele>
        <time>2023-09-02T15:02:16.000Z</time>
      </trkpt>
      <trkpt lat="45.84022" lon="4.7359">
        <ele>329.84427</ele>
        <time>2023-09-02T15:02:17.000Z</time>
      </trkpt>
      <trkpt lat="45.84023" lon="4.73585">
        <ele>330.13568</ele>
        <time>2023-09-02T15:02:18.000Z</time>
      </trkpt>
      <trkpt lat="45.84023" lon="4.73579">
        <ele>330.41675</ele>
        <time>2023-09-02T15:02:19.000Z</time>
      </trkpt>
      <trkpt lat="45.84023" lon="4.73573">
        <ele>330.72653</ele>
        <time>2023-09-02T15:02:20.000Z</time>
      </trkpt>
      <trkpt lat="45.84024" lon="4.73567">
        <ele>331.06458</ele>
        <time>2023-09-02T15:02:21.000Z</time>
      </trkpt>
      <trkpt lat="45.84028" lon="4.73562">
        <ele>331.14719</ele>
        <time>2023-09-02T15:02:22.000Z</time>
      </trkpt>
      <trkpt lat="45.84032" lon="4.73558">
        <ele>331.47824</ele>
        <time>2023-09-02T15:02:23.000Z</time>
      </trkpt>
      <trkpt lat="45.84037" lon="4.73554">
        <ele>331.13971</ele>
        <time>2023-09-02T15:02:24.000Z</time>
      </trkpt>
      <trkpt lat="45.84041" lon="4.73551">
        <ele>330.77972</ele>
        <time>2023-09-02T15:02:25.000Z</time>
      </trkpt>
      <trkpt lat="45.84047" lon="4.73547">
        <ele>330.41846</ele>
        <time>2023-09-02T15:02:26.000Z</time>
      </trkpt>
      <trkpt lat="45.84053" lon="4.73543">
        <ele>330.05002</ele>
        <time>2023-09-02T15:02:27.000Z</time>
      </trkpt>
      <trkpt lat="45.84059" lon="4.7354">
        <ele>329.6449</ele>
        <time>2023-09-02T15:02:28.000Z</time>
      </trkpt>
      <trkpt lat="45.84065" lon="4.73535">
        <ele>329.21344</ele>
        <time>2023-09-02T15:02:29.000Z</time>
      </trkpt>
      <trkpt lat="45.8407" lon="4.7353">
        <ele>328.79297</ele>
        <time>2023-09-02T15:02:30.000Z</time>
      </trkpt>
      <trkpt lat="45.84076" lon="4.73524">
        <ele>328.34198</ele>
        <time>2023-09-02T15:02:31.000Z</time>
      </trkpt>
      <trkpt lat="45.84081" lon="4.73518">
        <ele>327.86801</ele>
        <time>2023-09-02T15:02:32.000Z</time>
      </trkpt>
      <trkpt lat="45.84086" lon="4.73511">
        <ele>327.37277</ele>
        <time>2023-09-02T15:02:33.000Z</time>
      </trkpt>
      <trkpt lat="45.84091" lon="4.73504">
        <ele>326.86005</ele>
        <time>2023-09-02T15:02:34.000Z</time>
      </trkpt>
      <trkpt lat="45.84096" lon="4.73495">
        <ele>326.20816</ele>
        <time>2023-09-02T15:02:35.000Z</time>
      </trkpt>
      <trkpt lat="45.84101" lon="4.73487">
        <ele>325.52545</ele>
        <time>2023-09-02T15:02:36.000Z</time>
      </trkpt>
      <trkpt lat="45.84106" lon="4.7348">
        <ele>324.83008</ele>
        <time>2023-09-02T15:02:37.000Z</time>
      </trkpt>
      <trkpt lat="45.84112" lon="4.73472">
        <ele>324.13541</ele>
        <time>2023-09-02T15:02:38.000Z</time>
      </trkpt>
      <trkpt lat="45.84117" lon="4.73464">
        <ele>323.39487</ele>
        <time>2023-09-02T15:02:39.000Z</time>
      </trkpt>
      <trkpt lat="45.84122" lon="4.73455">
        <ele>322.608</ele>
        <time>2023-09-02T15:02:40.000Z</time>
      </trkpt>
      <trkpt lat="45.84127" lon="4.73449">
        <ele>321.83185</ele>
        <time>2023-09-02T15:02:41.000Z</time>
      </trkpt>
      <trkpt lat="45.84132" lon="4.73442">
        <ele>321.32709</ele>
        <time>2023-09-02T15:02:42.000Z</time>
      </trkpt>
      <trkpt lat="45.84136" lon="4.73437">
        <ele>320.57584</ele>
        <time>2023-09-02T15:02:43.000Z</time>
      </trkpt>
      <trkpt lat="45.8414" lon="4.73433">
        <ele>320.4848</ele>
        <time>2023-09-02T15:02:44.000Z</time>
      </trkpt>
      <trkpt lat="45.84144" lon="4.73429">
        <ele>320.41144</ele>
        <time>2023-09-02T15:02:45.000Z</time>
      </trkpt>
      <trkpt lat="45.84149" lon="4.73425">
        <ele>320.36264</ele>
        <time>2023-09-02T15:02:46.000Z</time>
      </trkpt>
      <trkpt lat="45.84153" lon="4.73422">
        <ele>320.33505</ele>
        <time>2023-09-02T15:02:47.000Z</time>
      </trkpt>
      <trkpt lat="45.84156" lon="4.73419">
        <ele>320.89746</ele>
        <time>2023-09-02T15:02:48.000Z</time>
      </trkpt>
      <trkpt lat="45.8416" lon="4.73415">
        <ele>321.41058</ele>
        <time>2023-09-02T15:02:49.000Z</time>
      </trkpt>
      <trkpt lat="45.84164" lon="4.73413">
        <ele>321.93939</ele>
        <time>2023-09-02T15:02:50.000Z</time>
      </trkpt>
      <trkpt lat="45.84167" lon="4.73409">
        <ele>322.50439</ele>
        <time>2023-09-02T15:02:51.000Z</time>
      </trkpt>
      <trkpt lat="45.84169" lon="4.73406">
        <ele>323.07242</ele>
        <time>2023-09-02T15:02:52.000Z</time>
      </trkpt>
      <trkpt lat="45.84172" lon="4.73401">
        <ele>323.64948</ele>
        <time>2023-09-02T15:02:53.000Z</time>
      </trkpt>
      <trkpt lat="45.84175" lon="4.73398">
        <ele>324.23755</ele>
        <time>2023-09-02T15:02:54.000Z</time>
      </trkpt>
      <trkpt lat="45.84176" lon="4.73395">
        <ele>324.84622</ele>
        <time>2023-09-02T15:02:55.000Z</time>
      </trkpt>
      <trkpt lat="45.84177" lon="4.73391">
        <ele>325.47919</ele>
        <time>2023-09-02T15:02:56.000Z</time>
      </trkpt>
      <trkpt lat="45.84177" lon="4.73387">
        <ele>326.12994</ele>
        <time>2023-09-02T15:02:57.000Z</time>
      </trkpt>
      <trkpt lat="45.84175" lon="4.73383">
        <ele>326.31546</ele>
        <time>2023-09-02T15:02:58.000Z</time>
      </trkpt>
      <trkpt lat="45.84173" lon="4.7338">
        <ele>326.5639</ele>
        <time>2023-09-02T15:02:59.000Z</time>
      </trkpt>
      <trkpt lat="45.8417" lon="4.73378">
        <ele>326.82916</ele>
        <time>2023-09-02T15:03:00.000Z</time>
      </trkpt>
      <trkpt lat="45.84166" lon="4.73376">
        <ele>327.07416</ele>
        <time>2023-09-02T15:03:01.000Z</time>
      </trkpt>
      <trkpt lat="45.84163" lon="4.73374">
        <ele>327.28351</ele>
        <time>2023-09-02T15:03:02.000Z</time>
      </trkpt>
      <trkpt lat="45.84159" lon="4.73371">
        <ele>327.48947</ele>
        <time>2023-09-02T15:03:03.000Z</time>
      </trkpt>
      <trkpt lat="45.84156" lon="4.73369">
        <ele>327.71014</ele>
        <time>2023-09-02T15:03:04.000Z</time>
      </trkpt>
      <trkpt lat="45.84152" lon="4.73366">
        <ele>327.86197</ele>
        <time>2023-09-02T15:03:05.000Z</time>
      </trkpt>
      <trkpt lat="45.84149" lon="4.73363">
        <ele>328.00775</ele>
        <time>2023-09-02T15:03:06.000Z</time>
      </trkpt>
      <trkpt lat="45.84145" lon="4.7336">
        <ele>328.14786</ele>
        <time>2023-09-02T15:03:07.000Z</time>
      </trkpt>
      <trkpt lat="45.84141" lon="4.73357">
        <ele>327.71381</ele>
        <time>2023-09-02T15:03:08.000Z</time>
      </trkpt>
      <trkpt lat="45.84137" lon="4.73355">
        <ele>327.33124</ele>
        <time>2023-09-02T15:03:09.000Z</time>
      </trkpt>
      <trkpt lat="45.84133" lon="4.73352">
        <ele>326.96124</ele>
        <time>2023-09-02T15:03:10.000Z</time>
      </trkpt>
      <trkpt lat="45.84129" lon="4.7335">
        <ele>326.57367</ele>
        <time>2023-09-02T15:03:11.000Z</time>
      </trkpt>
      <trkpt lat="45.84125" lon="4.73348">
        <ele>326.20404</ele>
        <time>2023-09-02T15:03:12.000Z</time>
      </trkpt>
      <trkpt lat="45.84121" lon="4.73346">
        <ele>325.83185</ele>
        <time>2023-09-02T15:03:13.000Z</time>
      </trkpt>
      <trkpt lat="45.84117" lon="4.73343">
        <ele>325.45474</ele>
        <time>2023-09-02T15:03:14.000Z</time>
      </trkpt>
      <trkpt lat="45.84112" lon="4.7334">
        <ele>325.08099</ele>
        <time>2023-09-02T15:03:15.000Z</time>
      </trkpt>
      <trkpt lat="45.84108" lon="4.73338">
        <ele>324.71332</ele>
        <time>2023-09-02T15:03:16.000Z</time>
      </trkpt>
      <trkpt lat="45.84105" lon="4.73334">
        <ele>324.32639</ele>
        <time>2023-09-02T15:03:17.000Z</time>
      </trkpt>
      <trkpt lat="45.84101" lon="4.7333">
        <ele>324.40103</ele>
        <time>2023-09-02T15:03:18.000Z</time>
      </trkpt>
      <trkpt lat="45.84097" lon="4.73328">
        <ele>324.47833</ele>
        <time>2023-09-02T15:03:19.000Z</time>
      </trkpt>
      <trkpt lat="45.84092" lon="4.73325">
        <ele>324.5365</ele>
        <time>2023-09-02T15:03:20.000Z</time>
      </trkpt>
      <trkpt lat="45.84087" lon="4.73322">
        <ele>324.59418</ele>
        <time>2023-09-02T15:03:21.000Z</time>
      </trkpt>
      <trkpt lat="45.84083" lon="4.7332">
        <ele>324.66821</ele>
        <time>2023-09-02T15:03:22.000Z</time>
      </trkpt>
      <trkpt lat="45.84079" lon="4.73316">
        <ele>325.30948</ele>
        <time>2023-09-02T15:03:23.000Z</time>
      </trkpt>
      <trkpt lat="45.84075" lon="4.73313">
        <ele>325.94351</ele>
        <time>2023-09-02T15:03:24.000Z</time>
      </trkpt>
      <trkpt lat="45.84071" lon="4.73309">
        <ele>326.64404</ele>
        <time>2023-09-02T15:03:25.000Z</time>
      </trkpt>
      <trkpt lat="45.84066" lon="4.73306">
        <ele>327.33597</ele>
        <time>2023-09-02T15:03:26.000Z</time>
      </trkpt>
      <trkpt lat="45.84061" lon="4.73303">
        <ele>328.01163</ele>
        <time>2023-09-02T15:03:27.000Z</time>
      </trkpt>
      <trkpt lat="45.84057" lon="4.73299">
        <ele>328.69135</ele>
        <time>2023-09-02T15:03:28.000Z</time>
      </trkpt>
      <trkpt lat="45.84053" lon="4.73295">
        <ele>329.38089</ele>
        <time>2023-09-02T15:03:29.000Z</time>
      </trkpt>
      <trkpt lat="45.84049" lon="4.7329">
        <ele>329.45221</ele>
        <time>2023-09-02T15:03:30.000Z</time>
      </trkpt>
      <trkpt lat="45.84044" lon="4.73286">
        <ele>329.52057</ele>
        <time>2023-09-02T15:03:31.000Z</time>
      </trkpt>
      <trkpt lat="45.8404" lon="4.73282">
        <ele>329.58386</ele>
        <time>2023-09-02T15:03:32.000Z</time>
      </trkpt>
      <trkpt lat="45.84035" lon="4.73278">
        <ele>329.62851</ele>
        <time>2023-09-02T15:03:33.000Z</time>
      </trkpt>
      <trkpt lat="45.84031" lon="4.73274">
        <ele>329.69199</ele>
        <time>2023-09-02T15:03:34.000Z</time>
      </trkpt>
      <trkpt lat="45.84027" lon="4.73268">
        <ele>329.7326</ele>
        <time>2023-09-02T15:03:35.000Z</time>
      </trkpt>
      <trkpt lat="45.84023" lon="4.73265">
        <ele>329.76056</ele>
        <time>2023-09-02T15:03:36.000Z</time>
      </trkpt>
      <trkpt lat="45.8402" lon="4.73261">
        <ele>329.80783</ele>
        <time>2023-09-02T15:03:37.000Z</time>
      </trkpt>
      <trkpt lat="45.84016" lon="4.73256">
        <ele>329.87299</ele>
        <time>2023-09-02T15:03:38.000Z</time>
      </trkpt>
      <trkpt lat="45.84013" lon="4.73251">
        <ele>329.90216</ele>
        <time>2023-09-02T15:03:39.000Z</time>
      </trkpt>
      <trkpt lat="45.84009" lon="4.73247">
        <ele>329.88223</ele>
        <time>2023-09-02T15:03:40.000Z</time>
      </trkpt>
      <trkpt lat="45.84007" lon="4.73237">
        <ele>329.83423</ele>
        <time>2023-09-02T15:03:41.000Z</time>
      </trkpt>
      <trkpt lat="45.84005" lon="4.73232">
        <ele>329.77237</ele>
        <time>2023-09-02T15:03:42.000Z</time>
      </trkpt>
      <trkpt lat="45.84004" lon="4.73227">
        <ele>329.1192</ele>
        <time>2023-09-02T15:03:43.000Z</time>
      </trkpt>
      <trkpt lat="45.84003" lon="4.73216">
        <ele>328.39658</ele>
        <time>2023-09-02T15:03:44.000Z</time>
      </trkpt>
      <trkpt lat="45.84002" lon="4.73208">
        <ele>327.71719</ele>
        <time>2023-09-02T15:03:45.000Z</time>
      </trkpt>
      <trkpt lat="45.84002" lon="4.73199">
        <ele>327.03296</ele>
        <time>2023-09-02T15:03:46.000Z</time>
      </trkpt>
      <trkpt lat="45.84002" lon="4.73191">
        <ele>326.35931</ele>
        <time>2023-09-02T15:03:47.000Z</time>
      </trkpt>
      <trkpt lat="45.84003" lon="4.73183">
        <ele>325.69101</ele>
        <time>2023-09-02T15:03:48.000Z</time>
      </trkpt>
      <trkpt lat="45.84002" lon="4.73176">
        <ele>325.96613</ele>
        <time>2023-09-02T15:03:49.000Z</time>
      </trkpt>
      <trkpt lat="45.84001" lon="4.73168">
        <ele>326.8277</ele>
        <time>2023-09-02T15:03:50.000Z</time>
      </trkpt>
      <trkpt lat="45.84" lon="4.73161">
        <ele>327.46432</ele>
        <time>2023-09-02T15:03:51.000Z</time>
      </trkpt>
      <trkpt lat="45.84" lon="4.73155">
        <ele>328.11313</ele>
        <time>2023-09-02T15:03:52.000Z</time>
      </trkpt>
      <trkpt lat="45.83999" lon="4.73147">
        <ele>328.8548</ele>
        <time>2023-09-02T15:03:53.000Z</time>
      </trkpt>
      <trkpt lat="45.83998" lon="4.7314">
        <ele>329.56219</ele>
        <time>2023-09-02T15:03:54.000Z</time>
      </trkpt>
      <trkpt lat="45.83998" lon="4.73132">
        <ele>330.28412</ele>
        <time>2023-09-02T15:03:55.000Z</time>
      </trkpt>
      <trkpt lat="45.83998" lon="4.73124">
        <ele>331.01956</ele>
        <time>2023-09-02T15:03:56.000Z</time>
      </trkpt>
      <trkpt lat="45.83997" lon="4.73118">
        <ele>331.75562</ele>
        <time>2023-09-02T15:03:57.000Z</time>
      </trkpt>
      <trkpt lat="45.83998" lon="4.73111">
        <ele>332.54123</ele>
        <time>2023-09-02T15:03:58.000Z</time>
      </trkpt>
      <trkpt lat="45.83997" lon="4.73104">
        <ele>333.38623</ele>
        <time>2023-09-02T15:03:59.000Z</time>
      </trkpt>
      <trkpt lat="45.83996" lon="4.73098">
        <ele>334.27545</ele>
        <time>2023-09-02T15:04:00.000Z</time>
      </trkpt>
      <trkpt lat="45.83994" lon="4.73092">
        <ele>335.18158</ele>
        <time>2023-09-02T15:04:01.000Z</time>
      </trkpt>
      <trkpt lat="45.83992" lon="4.73087">
        <ele>336.10864</ele>
        <time>2023-09-02T15:04:02.000Z</time>
      </trkpt>
      <trkpt lat="45.83987" lon="4.73088">
        <ele>337.07092</ele>
        <time>2023-09-02T15:04:03.000Z</time>
      </trkpt>
      <trkpt lat="45.83983" lon="4.73089">
        <ele>338.06915</ele>
        <time>2023-09-02T15:04:04.000Z</time>
      </trkpt>
      <trkpt lat="45.83979" lon="4.73091">
        <ele>339.06631</ele>
        <time>2023-09-02T15:04:05.000Z</time>
      </trkpt>
      <trkpt lat="45.83976" lon="4.73092">
        <ele>340.06366</ele>
        <time>2023-09-02T15:04:06.000Z</time>
      </trkpt>
      <trkpt lat="45.83972" lon="4.73094">
        <ele>341.01953</ele>
        <time>2023-09-02T15:04:07.000Z</time>
      </trkpt>
      <trkpt lat="45.83969" lon="4.73095">
        <ele>341.9718</ele>
        <time>2023-09-02T15:04:08.000Z</time>
      </trkpt>
      <trkpt lat="45.83965" lon="4.73097">
        <ele>341.97723</ele>
        <time>2023-09-02T15:04:09.000Z</time>
      </trkpt>
      <trkpt lat="45.83961" lon="4.73097">
        <ele>342.00137</ele>
        <time>2023-09-02T15:04:10.000Z</time>
      </trkpt>
      <trkpt lat="45.83957" lon="4.73099">
        <ele>342.22998</ele>
        <time>2023-09-02T15:04:11.000Z</time>
      </trkpt>
      <trkpt lat="45.83953" lon="4.731">
        <ele>342.44739</ele>
        <time>2023-09-02T15:04:12.000Z</time>
      </trkpt>
      <trkpt lat="45.83949" lon="4.731">
        <ele>342.60345</ele>
        <time>2023-09-02T15:04:13.000Z</time>
      </trkpt>
      <trkpt lat="45.83946" lon="4.731">
        <ele>342.76489</ele>
        <time>2023-09-02T15:04:14.000Z</time>
      </trkpt>
      <trkpt lat="45.83942" lon="4.731">
        <ele>342.92685</ele>
        <time>2023-09-02T15:04:15.000Z</time>
      </trkpt>
      <trkpt lat="45.83938" lon="4.73101">
        <ele>343.11246</ele>
        <time>2023-09-02T15:04:16.000Z</time>
      </trkpt>
      <trkpt lat="45.83935" lon="4.73101">
        <ele>343.29608</ele>
        <time>2023-09-02T15:04:17.000Z</time>
      </trkpt>
      <trkpt lat="45.83931" lon="4.73102">
        <ele>343.42978</ele>
        <time>2023-09-02T15:04:18.000Z</time>
      </trkpt>
      <trkpt lat="45.83928" lon="4.73102">
        <ele>343.51556</ele>
        <time>2023-09-02T15:04:19.000Z</time>
      </trkpt>
      <trkpt lat="45.83924" lon="4.73103">
        <ele>343.61212</ele>
        <time>2023-09-02T15:04:20.000Z</time>
      </trkpt>
      <trkpt lat="45.83921" lon="4.73103">
        <ele>343.71896</ele>
        <time>2023-09-02T15:04:21.000Z</time>
      </trkpt>
      <trkpt lat="45.83918" lon="4.73104">
        <ele>343.8429</ele>
        <time>2023-09-02T15:04:22.000Z</time>
      </trkpt>
      <trkpt lat="45.83914" lon="4.73105">
        <ele>343.23138</ele>
        <time>2023-09-02T15:04:23.000Z</time>
      </trkpt>
      <trkpt lat="45.83911" lon="4.73107">
        <ele>342.84113</ele>
        <time>2023-09-02T15:04:24.000Z</time>
      </trkpt>
      <trkpt lat="45.83907" lon="4.73108">
        <ele>342.37216</ele>
        <time>2023-09-02T15:04:25.000Z</time>
      </trkpt>
      <trkpt lat="45.83903" lon="4.73109">
        <ele>341.89783</ele>
        <time>2023-09-02T15:04:26.000Z</time>
      </trkpt>
      <trkpt lat="45.83899" lon="4.7311">
        <ele>341.43881</ele>
        <time>2023-09-02T15:04:27.000Z</time>
      </trkpt>
      <trkpt lat="45.83896" lon="4.73111">
        <ele>341.45941</ele>
        <time>2023-09-02T15:04:28.000Z</time>
      </trkpt>
      <trkpt lat="45.83892" lon="4.73111">
        <ele>341.48169</ele>
        <time>2023-09-02T15:04:29.000Z</time>
      </trkpt>
      <trkpt lat="45.83889" lon="4.73111">
        <ele>341.48438</ele>
        <time>2023-09-02T15:04:30.000Z</time>
      </trkpt>
      <trkpt lat="45.83885" lon="4.73111">
        <ele>341.46429</ele>
        <time>2023-09-02T15:04:31.000Z</time>
      </trkpt>
      <trkpt lat="45.83882" lon="4.73111">
        <ele>341.44092</ele>
        <time>2023-09-02T15:04:32.000Z</time>
      </trkpt>
      <trkpt lat="45.83878" lon="4.73112">
        <ele>341.38565</ele>
        <time>2023-09-02T15:04:33.000Z</time>
      </trkpt>
      <trkpt lat="45.83875" lon="4.73113">
        <ele>341.34204</ele>
        <time>2023-09-02T15:04:34.000Z</time>
      </trkpt>
      <trkpt lat="45.83871" lon="4.73115">
        <ele>341.31287</ele>
        <time>2023-09-02T15:04:35.000Z</time>
      </trkpt>
      <trkpt lat="45.83867" lon="4.73117">
        <ele>341.26108</ele>
        <time>2023-09-02T15:04:36.000Z</time>
      </trkpt>
      <trkpt lat="45.83864" lon="4.7312">
        <ele>341.20432</ele>
        <time>2023-09-02T15:04:37.000Z</time>
      </trkpt>
      <trkpt lat="45.8386" lon="4.73122">
        <ele>341.11826</ele>
        <time>2023-09-02T15:04:38.000Z</time>
      </trkpt>
      <trkpt lat="45.83857" lon="4.73124">
        <ele>341.04144</ele>
        <time>2023-09-02T15:04:39.000Z</time>
      </trkpt>
      <trkpt lat="45.83854" lon="4.73126">
        <ele>340.95621</ele>
        <time>2023-09-02T15:04:40.000Z</time>
      </trkpt>
      <trkpt lat="45.83851" lon="4.73127">
        <ele>340.85571</ele>
        <time>2023-09-02T15:04:41.000Z</time>
      </trkpt>
      <trkpt lat="45.83848" lon="4.73129">
        <ele>340.72845</ele>
        <time>2023-09-02T15:04:42.000Z</time>
      </trkpt>
      <trkpt lat="45.83845" lon="4.73132">
        <ele>340.85028</ele>
        <time>2023-09-02T15:04:43.000Z</time>
      </trkpt>
      <trkpt lat="45.83841" lon="4.73134">
        <ele>340.80878</ele>
        <time>2023-09-02T15:04:44.000Z</time>
      </trkpt>
      <trkpt lat="45.83838" lon="4.73137">
        <ele>340.77768</ele>
        <time>2023-09-02T15:04:45.000Z</time>
      </trkpt>
      <trkpt lat="45.83834" lon="4.7314">
        <ele>340.7453</ele>
        <time>2023-09-02T15:04:46.000Z</time>
      </trkpt>
      <trkpt lat="45.8383" lon="4.73142">
        <ele>340.71051</ele>
        <time>2023-09-02T15:04:47.000Z</time>
      </trkpt>
      <trkpt lat="45.83826" lon="4.73145">
        <ele>340.18475</ele>
        <time>2023-09-02T15:04:48.000Z</time>
      </trkpt>
      <trkpt lat="45.83823" lon="4.73148">
        <ele>339.67157</ele>
        <time>2023-09-02T15:04:49.000Z</time>
      </trkpt>
      <trkpt lat="45.83819" lon="4.73151">
        <ele>339.17114</ele>
        <time>2023-09-02T15:04:50.000Z</time>
      </trkpt>
      <trkpt lat="45.83816" lon="4.73154">
        <ele>338.69318</ele>
        <time>2023-09-02T15:04:51.000Z</time>
      </trkpt>
      <trkpt lat="45.83812" lon="4.73157">
        <ele>338.22171</ele>
        <time>2023-09-02T15:04:52.000Z</time>
      </trkpt>
      <trkpt lat="45.83809" lon="4.73161">
        <ele>337.75778</ele>
        <time>2023-09-02T15:04:53.000Z</time>
      </trkpt>
      <trkpt lat="45.83805" lon="4.73164">
        <ele>337.26971</ele>
        <time>2023-09-02T15:04:54.000Z</time>
      </trkpt>
      <trkpt lat="45.83802" lon="4.73167">
        <ele>336.76166</ele>
        <time>2023-09-02T15:04:55.000Z</time>
      </trkpt>
      <trkpt lat="45.83799" lon="4.7317">
        <ele>336.24615</ele>
        <time>2023-09-02T15:04:56.000Z</time>
      </trkpt>
      <trkpt lat="45.83796" lon="4.73173">
        <ele>335.7739</ele>
        <time>2023-09-02T15:04:57.000Z</time>
      </trkpt>
      <trkpt lat="45.83793" lon="4.73176">
        <ele>335.32779</ele>
        <time>2023-09-02T15:04:58.000Z</time>
      </trkpt>
      <trkpt lat="45.8379" lon="4.73179">
        <ele>335.33929</ele>
        <time>2023-09-02T15:04:59.000Z</time>
      </trkpt>
      <trkpt lat="45.83786" lon="4.73182">
        <ele>335.33594</ele>
        <time>2023-09-02T15:05:00.000Z</time>
      </trkpt>
      <trkpt lat="45.83783" lon="4.73182">
        <ele>335.32526</ele>
        <time>2023-09-02T15:05:01.000Z</time>
      </trkpt>
      <trkpt lat="45.83779" lon="4.7318">
        <ele>335.31119</ele>
        <time>2023-09-02T15:05:02.000Z</time>
      </trkpt>
      <trkpt lat="45.83777" lon="4.73175">
        <ele>335.74368</ele>
        <time>2023-09-02T15:05:03.000Z</time>
      </trkpt>
      <trkpt lat="45.83776" lon="4.73169">
        <ele>336.1496</ele>
        <time>2023-09-02T15:05:04.000Z</time>
      </trkpt>
      <trkpt lat="45.83778" lon="4.73159">
        <ele>336.58505</ele>
        <time>2023-09-02T15:05:05.000Z</time>
      </trkpt>
      <trkpt lat="45.83775" lon="4.73152">
        <ele>337.05731</ele>
        <time>2023-09-02T15:05:06.000Z</time>
      </trkpt>
      <trkpt lat="45.83772" lon="4.73145">
        <ele>337.55588</ele>
        <time>2023-09-02T15:05:07.000Z</time>
      </trkpt>
      <trkpt lat="45.83769" lon="4.73136">
        <ele>338.07272</ele>
        <time>2023-09-02T15:05:08.000Z</time>
      </trkpt>
      <trkpt lat="45.83766" lon="4.73127">
        <ele>338.52255</ele>
        <time>2023-09-02T15:05:09.000Z</time>
      </trkpt>
      <trkpt lat="45.83761" lon="4.7312">
        <ele>338.97198</ele>
        <time>2023-09-02T15:05:10.000Z</time>
      </trkpt>
      <trkpt lat="45.83757" lon="4.73114">
        <ele>339.41299</ele>
        <time>2023-09-02T15:05:11.000Z</time>
      </trkpt>
      <trkpt lat="45.83753" lon="4.73107">
        <ele>339.82623</ele>
        <time>2023-09-02T15:05:12.000Z</time>
      </trkpt>
      <trkpt lat="45.8375" lon="4.731">
        <ele>340.28052</ele>
        <time>2023-09-02T15:05:13.000Z</time>
      </trkpt>
      <trkpt lat="45.83748" lon="4.73092">
        <ele>340.70911</ele>
        <time>2023-09-02T15:05:14.000Z</time>
      </trkpt>
      <trkpt lat="45.83749" lon="4.73081">
        <ele>341.10825</ele>
        <time>2023-09-02T15:05:15.000Z</time>
      </trkpt>
      <trkpt lat="45.8375" lon="4.73071">
        <ele>341.52005</ele>
        <time>2023-09-02T15:05:16.000Z</time>
      </trkpt>
      <trkpt lat="45.83752" lon="4.73063">
        <ele>341.88669</ele>
        <time>2023-09-02T15:05:17.000Z</time>
      </trkpt>
      <trkpt lat="45.83752" lon="4.73055">
        <ele>342.24106</ele>
        <time>2023-09-02T15:05:18.000Z</time>
      </trkpt>
      <trkpt lat="45.83751" lon="4.73048">
        <ele>342.16074</ele>
        <time>2023-09-02T15:05:19.000Z</time>
      </trkpt>
      <trkpt lat="45.83748" lon="4.7304">
        <ele>342.05548</ele>
        <time>2023-09-02T15:05:20.000Z</time>
      </trkpt>
      <trkpt lat="45.83746" lon="4.73033">
        <ele>341.99442</ele>
        <time>2023-09-02T15:05:21.000Z</time>
      </trkpt>
      <trkpt lat="45.83743" lon="4.73028">
        <ele>341.89667</ele>
        <time>2023-09-02T15:05:22.000Z</time>
      </trkpt>
      <trkpt lat="45.83738" lon="4.73021">
        <ele>341.82492</ele>
        <time>2023-09-02T15:05:23.000Z</time>
      </trkpt>
      <trkpt lat="45.83735" lon="4.7302">
        <ele>341.78595</ele>
        <time>2023-09-02T15:05:24.000Z</time>
      </trkpt>
      <trkpt lat="45.83732" lon="4.7302">
        <ele>341.70612</ele>
        <time>2023-09-02T15:05:25.000Z</time>
      </trkpt>
      <trkpt lat="45.8373" lon="4.73018">
        <ele>341.51096</ele>
        <time>2023-09-02T15:05:26.000Z</time>
      </trkpt>
      <trkpt lat="45.83726" lon="4.73018">
        <ele>341.29047</ele>
        <time>2023-09-02T15:05:27.000Z</time>
      </trkpt>
      <trkpt lat="45.83723" lon="4.73019">
        <ele>341.10431</ele>
        <time>2023-09-02T15:05:28.000Z</time>
      </trkpt>
      <trkpt lat="45.8372" lon="4.73021">
        <ele>340.96967</ele>
        <time>2023-09-02T15:05:29.000Z</time>
      </trkpt>
      <trkpt lat="45.83717" lon="4.73021">
        <ele>340.80859</ele>
        <time>2023-09-02T15:05:30.000Z</time>
      </trkpt>
      <trkpt lat="45.83715" lon="4.73022">
        <ele>340.60504</ele>
        <time>2023-09-02T15:05:31.000Z</time>
      </trkpt>
      <trkpt lat="45.83711" lon="4.7302">
        <ele>340.40924</ele>
        <time>2023-09-02T15:05:33.000Z</time>
      </trkpt>
      <trkpt lat="45.83708" lon="4.7302">
        <ele>340.11218</ele>
        <time>2023-09-02T15:05:34.000Z</time>
      </trkpt>
      <trkpt lat="45.83706" lon="4.73019">
        <ele>339.9429</ele>
        <time>2023-09-02T15:05:35.000Z</time>
      </trkpt>
      <trkpt lat="45.83703" lon="4.73019">
        <ele>339.79816</ele>
        <time>2023-09-02T15:05:36.000Z</time>
      </trkpt>
      <trkpt lat="45.837" lon="4.73019">
        <ele>339.73605</ele>
        <time>2023-09-02T15:05:37.000Z</time>
      </trkpt>
      <trkpt lat="45.83696" lon="4.7302">
        <ele>339.6723</ele>
        <time>2023-09-02T15:05:38.000Z</time>
      </trkpt>
      <trkpt lat="45.83693" lon="4.7302">
        <ele>339.58575</ele>
        <time>2023-09-02T15:05:39.000Z</time>
      </trkpt>
      <trkpt lat="45.8369" lon="4.7302">
        <ele>339.50119</ele>
        <time>2023-09-02T15:05:40.000Z</time>
      </trkpt>
      <trkpt lat="45.83688" lon="4.73021">
        <ele>339.43784</ele>
        <time>2023-09-02T15:05:41.000Z</time>
      </trkpt>
      <trkpt lat="45.83686" lon="4.73021">
        <ele>339.35074</ele>
        <time>2023-09-02T15:05:42.000Z</time>
      </trkpt>
      <trkpt lat="45.83683" lon="4.73022">
        <ele>339.27878</ele>
        <time>2023-09-02T15:05:43.000Z</time>
      </trkpt>
      <trkpt lat="45.8368" lon="4.73022">
        <ele>339.19977</ele>
        <time>2023-09-02T15:05:44.000Z</time>
      </trkpt>
      <trkpt lat="45.83677" lon="4.73022">
        <ele>339.06393</ele>
        <time>2023-09-02T15:05:45.000Z</time>
      </trkpt>
      <trkpt lat="45.83673" lon="4.73022">
        <ele>339.02081</ele>
        <time>2023-09-02T15:05:46.000Z</time>
      </trkpt>
      <trkpt lat="45.8367" lon="4.73022">
        <ele>339.04645</ele>
        <time>2023-09-02T15:05:47.000Z</time>
      </trkpt>
      <trkpt lat="45.83667" lon="4.73023">
        <ele>339.08316</ele>
        <time>2023-09-02T15:05:48.000Z</time>
      </trkpt>
      <trkpt lat="45.83664" lon="4.73024">
        <ele>339.0665</ele>
        <time>2023-09-02T15:05:49.000Z</time>
      </trkpt>
      <trkpt lat="45.8366" lon="4.73026">
        <ele>339.09399</ele>
        <time>2023-09-02T15:05:50.000Z</time>
      </trkpt>
      <trkpt lat="45.83658" lon="4.73027">
        <ele>339.14267</ele>
        <time>2023-09-02T15:05:51.000Z</time>
      </trkpt>
      <trkpt lat="45.83655" lon="4.73028">
        <ele>339.2977</ele>
        <time>2023-09-02T15:05:52.000Z</time>
      </trkpt>
      <trkpt lat="45.83653" lon="4.73029">
        <ele>339.4924</ele>
        <time>2023-09-02T15:05:53.000Z</time>
      </trkpt>
      <trkpt lat="45.8365" lon="4.7303">
        <ele>339.76312</ele>
        <time>2023-09-02T15:05:54.000Z</time>
      </trkpt>
      <trkpt lat="45.83647" lon="4.73031">
        <ele>339.94171</ele>
        <time>2023-09-02T15:05:55.000Z</time>
      </trkpt>
      <trkpt lat="45.83643" lon="4.73032">
        <ele>340.14655</ele>
        <time>2023-09-02T15:05:56.000Z</time>
      </trkpt>
      <trkpt lat="45.8364" lon="4.73033">
        <ele>340.23358</ele>
        <time>2023-09-02T15:05:57.000Z</time>
      </trkpt>
      <trkpt lat="45.83637" lon="4.73034">
        <ele>340.28714</ele>
        <time>2023-09-02T15:05:58.000Z</time>
      </trkpt>
      <trkpt lat="45.83634" lon="4.73036">
        <ele>340.22821</ele>
        <time>2023-09-02T15:05:59.000Z</time>
      </trkpt>
      <trkpt lat="45.83632" lon="4.73037">
        <ele>340.22516</ele>
        <time>2023-09-02T15:06:00.000Z</time>
      </trkpt>
      <trkpt lat="45.83629" lon="4.73038">
        <ele>340.19873</ele>
        <time>2023-09-02T15:06:01.000Z</time>
      </trkpt>
      <trkpt lat="45.83626" lon="4.7304">
        <ele>340.14532</ele>
        <time>2023-09-02T15:06:02.000Z</time>
      </trkpt>
      <trkpt lat="45.83623" lon="4.73041">
        <ele>340.1319</ele>
        <time>2023-09-02T15:06:03.000Z</time>
      </trkpt>
      <trkpt lat="45.8362" lon="4.73042">
        <ele>340.11407</ele>
        <time>2023-09-02T15:06:04.000Z</time>
      </trkpt>
      <trkpt lat="45.83617" lon="4.73043">
        <ele>340.0849</ele>
        <time>2023-09-02T15:06:05.000Z</time>
      </trkpt>
      <trkpt lat="45.83615" lon="4.73045">
        <ele>340.00848</ele>
        <time>2023-09-02T15:06:06.000Z</time>
      </trkpt>
      <trkpt lat="45.83612" lon="4.73046">
        <ele>339.95432</ele>
        <time>2023-09-02T15:06:07.000Z</time>
      </trkpt>
      <trkpt lat="45.83609" lon="4.73048">
        <ele>339.90494</ele>
        <time>2023-09-02T15:06:08.000Z</time>
      </trkpt>
      <trkpt lat="45.83606" lon="4.73049">
        <ele>339.888</ele>
        <time>2023-09-02T15:06:09.000Z</time>
      </trkpt>
      <trkpt lat="45.83602" lon="4.73051">
        <ele>339.81033</ele>
        <time>2023-09-02T15:06:10.000Z</time>
      </trkpt>
      <trkpt lat="45.83599" lon="4.73052">
        <ele>339.74445</ele>
        <time>2023-09-02T15:06:11.000Z</time>
      </trkpt>
      <trkpt lat="45.83596" lon="4.73053">
        <ele>339.67303</ele>
        <time>2023-09-02T15:06:12.000Z</time>
      </trkpt>
      <trkpt lat="45.83594" lon="4.73054">
        <ele>339.59653</ele>
        <time>2023-09-02T15:06:13.000Z</time>
      </trkpt>
      <trkpt lat="45.8359" lon="4.73055">
        <ele>339.50586</ele>
        <time>2023-09-02T15:06:14.000Z</time>
      </trkpt>
      <trkpt lat="45.83585" lon="4.73056">
        <ele>339.39008</ele>
        <time>2023-09-02T15:06:15.000Z</time>
      </trkpt>
      <trkpt lat="45.83581" lon="4.73057">
        <ele>339.2836</ele>
        <time>2023-09-02T15:06:16.000Z</time>
      </trkpt>
      <trkpt lat="45.83577" lon="4.73058">
        <ele>339.21616</ele>
        <time>2023-09-02T15:06:17.000Z</time>
      </trkpt>
      <trkpt lat="45.83574" lon="4.73059">
        <ele>339.18121</ele>
        <time>2023-09-02T15:06:18.000Z</time>
      </trkpt>
      <trkpt lat="45.8357" lon="4.7306">
        <ele>339.32285</ele>
        <time>2023-09-02T15:06:19.000Z</time>
      </trkpt>
      <trkpt lat="45.83566" lon="4.73061">
        <ele>339.39023</ele>
        <time>2023-09-02T15:06:20.000Z</time>
      </trkpt>
      <trkpt lat="45.83562" lon="4.73063">
        <ele>339.46991</ele>
        <time>2023-09-02T15:06:21.000Z</time>
      </trkpt>
      <trkpt lat="45.83559" lon="4.73064">
        <ele>339.62921</ele>
        <time>2023-09-02T15:06:22.000Z</time>
      </trkpt>
      <trkpt lat="45.83556" lon="4.73065">
        <ele>339.76178</ele>
        <time>2023-09-02T15:06:23.000Z</time>
      </trkpt>
      <trkpt lat="45.83552" lon="4.73066">
        <ele>339.92358</ele>
        <time>2023-09-02T15:06:24.000Z</time>
      </trkpt>
      <trkpt lat="45.83548" lon="4.73067">
        <ele>340.13828</ele>
        <time>2023-09-02T15:06:25.000Z</time>
      </trkpt>
      <trkpt lat="45.8354" lon="4.73069">
        <ele>340.3555</ele>
        <time>2023-09-02T15:06:26.000Z</time>
      </trkpt>
      <trkpt lat="45.83535" lon="4.73069">
        <ele>340.59549</ele>
        <time>2023-09-02T15:06:27.000Z</time>
      </trkpt>
      <trkpt lat="45.83529" lon="4.73068">
        <ele>340.80856</ele>
        <time>2023-09-02T15:06:28.000Z</time>
      </trkpt>
      <trkpt lat="45.83523" lon="4.73065">
        <ele>341.00281</ele>
        <time>2023-09-02T15:06:29.000Z</time>
      </trkpt>
      <trkpt lat="45.83518" lon="4.73062">
        <ele>341.17743</ele>
        <time>2023-09-02T15:06:30.000Z</time>
      </trkpt>
      <trkpt lat="45.83514" lon="4.73058">
        <ele>341.41965</ele>
        <time>2023-09-02T15:06:31.000Z</time>
      </trkpt>
      <trkpt lat="45.83509" lon="4.73054">
        <ele>341.61053</ele>
        <time>2023-09-02T15:06:32.000Z</time>
      </trkpt>
      <trkpt lat="45.83504" lon="4.7305">
        <ele>341.73743</ele>
        <time>2023-09-02T15:06:33.000Z</time>
      </trkpt>
      <trkpt lat="45.835" lon="4.73046">
        <ele>341.85443</ele>
        <time>2023-09-02T15:06:34.000Z</time>
      </trkpt>
      <trkpt lat="45.83495" lon="4.73042">
        <ele>342.02567</ele>
        <time>2023-09-02T15:06:35.000Z</time>
      </trkpt>
      <trkpt lat="45.8349" lon="4.73037">
        <ele>342.17114</ele>
        <time>2023-09-02T15:06:36.000Z</time>
      </trkpt>
      <trkpt lat="45.83488" lon="4.73032">
        <ele>342.31226</ele>
        <time>2023-09-02T15:06:37.000Z</time>
      </trkpt>
      <trkpt lat="45.83486" lon="4.73027">
        <ele>342.26828</ele>
        <time>2023-09-02T15:06:38.000Z</time>
      </trkpt>
      <trkpt lat="45.83484" lon="4.73021">
        <ele>342.26877</ele>
        <time>2023-09-02T15:06:39.000Z</time>
      </trkpt>
      <trkpt lat="45.83481" lon="4.73014">
        <ele>342.21341</ele>
        <time>2023-09-02T15:06:40.000Z</time>
      </trkpt>
      <trkpt lat="45.83478" lon="4.73008">
        <ele>342.18759</ele>
        <time>2023-09-02T15:06:41.000Z</time>
      </trkpt>
      <trkpt lat="45.83475" lon="4.73001">
        <ele>342.13913</ele>
        <time>2023-09-02T15:06:42.000Z</time>
      </trkpt>
      <trkpt lat="45.83474" lon="4.72994">
        <ele>342.12677</ele>
        <time>2023-09-02T15:06:43.000Z</time>
      </trkpt>
      <trkpt lat="45.83473" lon="4.72987">
        <ele>342.19424</ele>
        <time>2023-09-02T15:06:44.000Z</time>
      </trkpt>
      <trkpt lat="45.83471" lon="4.72981">
        <ele>342.24414</ele>
        <time>2023-09-02T15:06:45.000Z</time>
      </trkpt>
      <trkpt lat="45.83469" lon="4.72977">
        <ele>342.27002</ele>
        <time>2023-09-02T15:06:46.000Z</time>
      </trkpt>
      <trkpt lat="45.83468" lon="4.72969">
        <ele>342.26904</ele>
        <time>2023-09-02T15:06:47.000Z</time>
      </trkpt>
      <trkpt lat="45.83465" lon="4.72963">
        <ele>342.29456</ele>
        <time>2023-09-02T15:06:48.000Z</time>
      </trkpt>
      <trkpt lat="45.83463" lon="4.72956">
        <ele>343.18707</ele>
        <time>2023-09-02T15:06:49.000Z</time>
      </trkpt>
      <trkpt lat="45.83459" lon="4.72946">
        <ele>344.06812</ele>
        <time>2023-09-02T15:06:50.000Z</time>
      </trkpt>
      <trkpt lat="45.83457" lon="4.72936">
        <ele>344.88708</ele>
        <time>2023-09-02T15:06:51.000Z</time>
      </trkpt>
      <trkpt lat="45.83453" lon="4.72928">
        <ele>345.67368</ele>
        <time>2023-09-02T15:06:52.000Z</time>
      </trkpt>
      <trkpt lat="45.83451" lon="4.72917">
        <ele>346.35748</ele>
        <time>2023-09-02T15:06:53.000Z</time>
      </trkpt>
      <trkpt lat="45.83449" lon="4.72906">
        <ele>346.94083</ele>
        <time>2023-09-02T15:06:54.000Z</time>
      </trkpt>
      <trkpt lat="45.83447" lon="4.72895">
        <ele>347.49139</ele>
        <time>2023-09-02T15:06:55.000Z</time>
      </trkpt>
      <trkpt lat="45.83446" lon="4.72885">
        <ele>348.03497</ele>
        <time>2023-09-02T15:06:56.000Z</time>
      </trkpt>
      <trkpt lat="45.83443" lon="4.72874">
        <ele>348.49194</ele>
        <time>2023-09-02T15:06:57.000Z</time>
      </trkpt>
      <trkpt lat="45.83441" lon="4.72863">
        <ele>349.11212</ele>
        <time>2023-09-02T15:06:58.000Z</time>
      </trkpt>
      <trkpt lat="45.83439" lon="4.72853">
        <ele>349.69687</ele>
        <time>2023-09-02T15:06:59.000Z</time>
      </trkpt>
      <trkpt lat="45.83437" lon="4.72844">
        <ele>350.42685</ele>
        <time>2023-09-02T15:07:00.000Z</time>
      </trkpt>
      <trkpt lat="45.83436" lon="4.72834">
        <ele>351.08871</ele>
        <time>2023-09-02T15:07:01.000Z</time>
      </trkpt>
      <trkpt lat="45.83434" lon="4.72825">
        <ele>351.61505</ele>
        <time>2023-09-02T15:07:02.000Z</time>
      </trkpt>
      <trkpt lat="45.83431" lon="4.72818">
        <ele>352.1366</ele>
        <time>2023-09-02T15:07:03.000Z</time>
      </trkpt>
      <trkpt lat="45.83432" lon="4.72807">
        <ele>352.34311</ele>
        <time>2023-09-02T15:07:04.000Z</time>
      </trkpt>
      <trkpt lat="45.83432" lon="4.72797">
        <ele>352.57782</ele>
        <time>2023-09-02T15:07:05.000Z</time>
      </trkpt>
      <trkpt lat="45.83432" lon="4.72791">
        <ele>352.98419</ele>
        <time>2023-09-02T15:07:06.000Z</time>
      </trkpt>
      <trkpt lat="45.83437" lon="4.72787">
        <ele>353.40408</ele>
        <time>2023-09-02T15:07:07.000Z</time>
      </trkpt>
      <trkpt lat="45.8344" lon="4.72783">
        <ele>353.74017</ele>
        <time>2023-09-02T15:07:08.000Z</time>
      </trkpt>
      <trkpt lat="45.83442" lon="4.7278">
        <ele>353.08228</ele>
        <time>2023-09-02T15:07:09.000Z</time>
      </trkpt>
      <trkpt lat="45.83446" lon="4.72779">
        <ele>352.52148</ele>
        <time>2023-09-02T15:07:10.000Z</time>
      </trkpt>
      <trkpt lat="45.83451" lon="4.72777">
        <ele>352.08441</ele>
        <time>2023-09-02T15:07:11.000Z</time>
      </trkpt>
      <trkpt lat="45.83454" lon="4.72775">
        <ele>351.68317</ele>
        <time>2023-09-02T15:07:12.000Z</time>
      </trkpt>
      <trkpt lat="45.83459" lon="4.72772">
        <ele>351.2897</ele>
        <time>2023-09-02T15:07:13.000Z</time>
      </trkpt>
      <trkpt lat="45.83464" lon="4.72771">
        <ele>350.96457</ele>
        <time>2023-09-02T15:07:14.000Z</time>
      </trkpt>
      <trkpt lat="45.83468" lon="4.72769">
        <ele>350.67001</ele>
        <time>2023-09-02T15:07:15.000Z</time>
      </trkpt>
      <trkpt lat="45.83472" lon="4.72766">
        <ele>350.30429</ele>
        <time>2023-09-02T15:07:16.000Z</time>
      </trkpt>
      <trkpt lat="45.83477" lon="4.72764">
        <ele>350.08698</ele>
        <time>2023-09-02T15:07:17.000Z</time>
      </trkpt>
      <trkpt lat="45.83481" lon="4.72762">
        <ele>349.83093</ele>
        <time>2023-09-02T15:07:18.000Z</time>
      </trkpt>
      <trkpt lat="45.83485" lon="4.72762">
        <ele>349.57358</ele>
        <time>2023-09-02T15:07:19.000Z</time>
      </trkpt>
      <trkpt lat="45.83489" lon="4.72761">
        <ele>349.04272</ele>
        <time>2023-09-02T15:07:20.000Z</time>
      </trkpt>
      <trkpt lat="45.83493" lon="4.72759">
        <ele>348.60959</ele>
        <time>2023-09-02T15:07:21.000Z</time>
      </trkpt>
      <trkpt lat="45.83497" lon="4.72758">
        <ele>348.20786</ele>
        <time>2023-09-02T15:07:22.000Z</time>
      </trkpt>
      <trkpt lat="45.835" lon="4.72756">
        <ele>347.7049</ele>
        <time>2023-09-02T15:07:23.000Z</time>
      </trkpt>
      <trkpt lat="45.83504" lon="4.72752">
        <ele>347.45627</ele>
        <time>2023-09-02T15:07:24.000Z</time>
      </trkpt>
      <trkpt lat="45.83509" lon="4.72751">
        <ele>347.14575</ele>
        <time>2023-09-02T15:07:25.000Z</time>
      </trkpt>
      <trkpt lat="45.83514" lon="4.72751">
        <ele>346.68469</ele>
        <time>2023-09-02T15:07:26.000Z</time>
      </trkpt>
      <trkpt lat="45.83517" lon="4.72749">
        <ele>346.21744</ele>
        <time>2023-09-02T15:07:27.000Z</time>
      </trkpt>
      <trkpt lat="45.83522" lon="4.72748">
        <ele>345.80545</ele>
        <time>2023-09-02T15:07:28.000Z</time>
      </trkpt>
      <trkpt lat="45.83527" lon="4.72747">
        <ele>345.5589</ele>
        <time>2023-09-02T15:07:29.000Z</time>
      </trkpt>
      <trkpt lat="45.83532" lon="4.72746">
        <ele>345.2142</ele>
        <time>2023-09-02T15:07:30.000Z</time>
      </trkpt>
      <trkpt lat="45.83535" lon="4.72745">
        <ele>344.85336</ele>
        <time>2023-09-02T15:07:31.000Z</time>
      </trkpt>
      <trkpt lat="45.83539" lon="4.72744">
        <ele>344.72318</ele>
        <time>2023-09-02T15:07:32.000Z</time>
      </trkpt>
      <trkpt lat="45.83544" lon="4.72743">
        <ele>344.27921</ele>
        <time>2023-09-02T15:07:33.000Z</time>
      </trkpt>
      <trkpt lat="45.83549" lon="4.72741">
        <ele>343.91519</ele>
        <time>2023-09-02T15:07:34.000Z</time>
      </trkpt>
      <trkpt lat="45.83554" lon="4.72739">
        <ele>343.5542</ele>
        <time>2023-09-02T15:07:35.000Z</time>
      </trkpt>
      <trkpt lat="45.83559" lon="4.72738">
        <ele>343.267</ele>
        <time>2023-09-02T15:07:36.000Z</time>
      </trkpt>
      <trkpt lat="45.83563" lon="4.72736">
        <ele>342.85385</ele>
        <time>2023-09-02T15:07:37.000Z</time>
      </trkpt>
      <trkpt lat="45.83566" lon="4.72734">
        <ele>342.44345</ele>
        <time>2023-09-02T15:07:38.000Z</time>
      </trkpt>
      <trkpt lat="45.83571" lon="4.72731">
        <ele>342.01889</ele>
        <time>2023-09-02T15:07:39.000Z</time>
      </trkpt>
      <trkpt lat="45.83574" lon="4.7273">
        <ele>341.77701</ele>
        <time>2023-09-02T15:07:40.000Z</time>
      </trkpt>
      <trkpt lat="45.83578" lon="4.72728">
        <ele>341.48837</ele>
        <time>2023-09-02T15:07:41.000Z</time>
      </trkpt>
      <trkpt lat="45.83582" lon="4.72724">
        <ele>341.21713</ele>
        <time>2023-09-02T15:07:42.000Z</time>
      </trkpt>
      <trkpt lat="45.83585" lon="4.72722">
        <ele>341.05774</ele>
        <time>2023-09-02T15:07:43.000Z</time>
      </trkpt>
      <trkpt lat="45.83588" lon="4.72719">
        <ele>340.84668</ele>
        <time>2023-09-02T15:07:44.000Z</time>
      </trkpt>
      <trkpt lat="45.83591" lon="4.72716">
        <ele>340.75375</ele>
        <time>2023-09-02T15:07:45.000Z</time>
      </trkpt>
      <trkpt lat="45.83595" lon="4.72713">
        <ele>339.96082</ele>
        <time>2023-09-02T15:07:46.000Z</time>
      </trkpt>
      <trkpt lat="45.83599" lon="4.72711">
        <ele>339.12772</ele>
        <time>2023-09-02T15:07:47.000Z</time>
      </trkpt>
      <trkpt lat="45.83602" lon="4.72709">
        <ele>338.32932</ele>
        <time>2023-09-02T15:07:48.000Z</time>
      </trkpt>
      <trkpt lat="45.83605" lon="4.72707">
        <ele>337.27786</ele>
        <time>2023-09-02T15:07:49.000Z</time>
      </trkpt>
      <trkpt lat="45.83611" lon="4.72704">
        <ele>336.10828</ele>
        <time>2023-09-02T15:07:50.000Z</time>
      </trkpt>
      <trkpt lat="45.83617" lon="4.72701">
        <ele>334.85175</ele>
        <time>2023-09-02T15:07:51.000Z</time>
      </trkpt>
      <trkpt lat="45.83622" lon="4.72694">
        <ele>333.35837</ele>
        <time>2023-09-02T15:07:52.000Z</time>
      </trkpt>
      <trkpt lat="45.83629" lon="4.72687">
        <ele>332.2778</ele>
        <time>2023-09-02T15:07:53.000Z</time>
      </trkpt>
      <trkpt lat="45.83635" lon="4.72682">
        <ele>331.1485</ele>
        <time>2023-09-02T15:07:54.000Z</time>
      </trkpt>
      <trkpt lat="45.83642" lon="4.72678">
        <ele>329.97995</ele>
        <time>2023-09-02T15:07:55.000Z</time>
      </trkpt>
      <trkpt lat="45.83647" lon="4.72672">
        <ele>328.82794</ele>
        <time>2023-09-02T15:07:56.000Z</time>
      </trkpt>
      <trkpt lat="45.83653" lon="4.7267">
        <ele>327.65823</ele>
        <time>2023-09-02T15:07:57.000Z</time>
      </trkpt>
      <trkpt lat="45.83659" lon="4.72668">
        <ele>326.54834</ele>
        <time>2023-09-02T15:07:58.000Z</time>
      </trkpt>
      <trkpt lat="45.83667" lon="4.72666">
        <ele>325.76367</ele>
        <time>2023-09-02T15:07:59.000Z</time>
      </trkpt>
      <trkpt lat="45.83674" lon="4.72661">
        <ele>324.85263</ele>
        <time>2023-09-02T15:08:00.000Z</time>
      </trkpt>
      <trkpt lat="45.8368" lon="4.72659">
        <ele>323.97748</ele>
        <time>2023-09-02T15:08:01.000Z</time>
      </trkpt>
      <trkpt lat="45.83688" lon="4.72657">
        <ele>323.14801</ele>
        <time>2023-09-02T15:08:02.000Z</time>
      </trkpt>
      <trkpt lat="45.83694" lon="4.72655">
        <ele>322.28268</ele>
        <time>2023-09-02T15:08:03.000Z</time>
      </trkpt>
      <trkpt lat="45.83701" lon="4.72654">
        <ele>321.45828</ele>
        <time>2023-09-02T15:08:04.000Z</time>
      </trkpt>
      <trkpt lat="45.83708" lon="4.72651">
        <ele>320.56219</ele>
        <time>2023-09-02T15:08:05.000Z</time>
      </trkpt>
      <trkpt lat="45.83714" lon="4.72647">
        <ele>320.52493</ele>
        <time>2023-09-02T15:08:06.000Z</time>
      </trkpt>
      <trkpt lat="45.83721" lon="4.72644">
        <ele>320.12326</ele>
        <time>2023-09-02T15:08:07.000Z</time>
      </trkpt>
      <trkpt lat="45.83727" lon="4.7264">
        <ele>319.64389</ele>
        <time>2023-09-02T15:08:08.000Z</time>
      </trkpt>
      <trkpt lat="45.83734" lon="4.72637">
        <ele>319.35956</ele>
        <time>2023-09-02T15:08:09.000Z</time>
      </trkpt>
      <trkpt lat="45.83741" lon="4.72635">
        <ele>319.20959</ele>
        <time>2023-09-02T15:08:10.000Z</time>
      </trkpt>
      <trkpt lat="45.83748" lon="4.72635">
        <ele>318.9328</ele>
        <time>2023-09-02T15:08:11.000Z</time>
      </trkpt>
      <trkpt lat="45.83754" lon="4.72633">
        <ele>318.66766</ele>
        <time>2023-09-02T15:08:12.000Z</time>
      </trkpt>
      <trkpt lat="45.83761" lon="4.72631">
        <ele>318.56354</ele>
        <time>2023-09-02T15:08:13.000Z</time>
      </trkpt>
      <trkpt lat="45.83768" lon="4.72629">
        <ele>318.31891</ele>
        <time>2023-09-02T15:08:14.000Z</time>
      </trkpt>
      <trkpt lat="45.83774" lon="4.72628">
        <ele>318.01627</ele>
        <time>2023-09-02T15:08:15.000Z</time>
      </trkpt>
      <trkpt lat="45.83779" lon="4.72625">
        <ele>317.54425</ele>
        <time>2023-09-02T15:08:16.000Z</time>
      </trkpt>
      <trkpt lat="45.83784" lon="4.72622">
        <ele>317.09164</ele>
        <time>2023-09-02T15:08:17.000Z</time>
      </trkpt>
      <trkpt lat="45.8379" lon="4.72619">
        <ele>316.61423</ele>
        <time>2023-09-02T15:08:18.000Z</time>
      </trkpt>
      <trkpt lat="45.83796" lon="4.72617">
        <ele>315.76767</ele>
        <time>2023-09-02T15:08:19.000Z</time>
      </trkpt>
      <trkpt lat="45.83802" lon="4.72617">
        <ele>315.05789</ele>
        <time>2023-09-02T15:08:20.000Z</time>
      </trkpt>
      <trkpt lat="45.83807" lon="4.72615">
        <ele>314.25967</ele>
        <time>2023-09-02T15:08:21.000Z</time>
      </trkpt>
      <trkpt lat="45.83813" lon="4.72612">
        <ele>313.48871</ele>
        <time>2023-09-02T15:08:22.000Z</time>
      </trkpt>
      <trkpt lat="45.83817" lon="4.72609">
        <ele>312.73398</ele>
        <time>2023-09-02T15:08:23.000Z</time>
      </trkpt>
      <trkpt lat="45.8382" lon="4.72603">
        <ele>311.91068</ele>
        <time>2023-09-02T15:08:24.000Z</time>
      </trkpt>
      <trkpt lat="45.83823" lon="4.72599">
        <ele>311.10156</ele>
        <time>2023-09-02T15:08:25.000Z</time>
      </trkpt>
      <trkpt lat="45.83825" lon="4.72592">
        <ele>310.10757</ele>
        <time>2023-09-02T15:08:26.000Z</time>
      </trkpt>
      <trkpt lat="45.83826" lon="4.72587">
        <ele>309.60214</ele>
        <time>2023-09-02T15:08:27.000Z</time>
      </trkpt>
      <trkpt lat="45.83829" lon="4.72582">
        <ele>309.09689</ele>
        <time>2023-09-02T15:08:28.000Z</time>
      </trkpt>
      <trkpt lat="45.83832" lon="4.72574">
        <ele>308.62515</ele>
        <time>2023-09-02T15:08:29.000Z</time>
      </trkpt>
      <trkpt lat="45.83833" lon="4.72568">
        <ele>308.20178</ele>
        <time>2023-09-02T15:08:30.000Z</time>
      </trkpt>
      <trkpt lat="45.83835" lon="4.72561">
        <ele>307.89328</ele>
        <time>2023-09-02T15:08:31.000Z</time>
      </trkpt>
      <trkpt lat="45.83835" lon="4.72555">
        <ele>307.55826</ele>
        <time>2023-09-02T15:08:32.000Z</time>
      </trkpt>
      <trkpt lat="45.83837" lon="4.72549">
        <ele>307.12796</ele>
        <time>2023-09-02T15:08:33.000Z</time>
      </trkpt>
      <trkpt lat="45.83838" lon="4.72546">
        <ele>306.85611</ele>
        <time>2023-09-02T15:08:34.000Z</time>
      </trkpt>
      <trkpt lat="45.83837" lon="4.7254">
        <ele>306.6452</ele>
        <time>2023-09-02T15:08:35.000Z</time>
      </trkpt>
      <trkpt lat="45.83839" lon="4.72535">
        <ele>306.62848</ele>
        <time>2023-09-02T15:08:36.000Z</time>
      </trkpt>
      <trkpt lat="45.8384" lon="4.7253">
        <ele>306.65704</ele>
        <time>2023-09-02T15:08:37.000Z</time>
      </trkpt>
      <trkpt lat="45.83841" lon="4.72525">
        <ele>306.73935</ele>
        <time>2023-09-02T15:08:38.000Z</time>
      </trkpt>
      <trkpt lat="45.83842" lon="4.72522">
        <ele>306.85773</ele>
        <time>2023-09-02T15:08:39.000Z</time>
      </trkpt>
      <trkpt lat="45.83843" lon="4.72519">
        <ele>306.96594</ele>
        <time>2023-09-02T15:08:40.000Z</time>
      </trkpt>
      <trkpt lat="45.83844" lon="4.72515">
        <ele>307.1525</ele>
        <time>2023-09-02T15:08:41.000Z</time>
      </trkpt>
      <trkpt lat="45.83844" lon="4.72511">
        <ele>307.28839</ele>
        <time>2023-09-02T15:08:42.000Z</time>
      </trkpt>
      <trkpt lat="45.83845" lon="4.72506">
        <ele>307.41208</ele>
        <time>2023-09-02T15:08:43.000Z</time>
      </trkpt>
      <trkpt lat="45.83844" lon="4.72502">
        <ele>307.56747</ele>
        <time>2023-09-02T15:08:44.000Z</time>
      </trkpt>
      <trkpt lat="45.83844" lon="4.72497">
        <ele>307.69296</ele>
        <time>2023-09-02T15:08:45.000Z</time>
      </trkpt>
      <trkpt lat="45.83843" lon="4.72492">
        <ele>307.83041</ele>
        <time>2023-09-02T15:08:46.000Z</time>
      </trkpt>
      <trkpt lat="45.83843" lon="4.72487">
        <ele>307.87485</ele>
        <time>2023-09-02T15:08:47.000Z</time>
      </trkpt>
      <trkpt lat="45.83842" lon="4.72482">
        <ele>308.00983</ele>
        <time>2023-09-02T15:08:48.000Z</time>
      </trkpt>
      <trkpt lat="45.83842" lon="4.72477">
        <ele>308.13257</ele>
        <time>2023-09-02T15:08:49.000Z</time>
      </trkpt>
      <trkpt lat="45.83841" lon="4.72472">
        <ele>308.23715</ele>
        <time>2023-09-02T15:08:50.000Z</time>
      </trkpt>
      <trkpt lat="45.8384" lon="4.72467">
        <ele>308.31537</ele>
        <time>2023-09-02T15:08:51.000Z</time>
      </trkpt>
      <trkpt lat="45.8384" lon="4.72463">
        <ele>308.4313</ele>
        <time>2023-09-02T15:08:52.000Z</time>
      </trkpt>
      <trkpt lat="45.83839" lon="4.72459">
        <ele>308.52515</ele>
        <time>2023-09-02T15:08:53.000Z</time>
      </trkpt>
      <trkpt lat="45.83839" lon="4.72455">
        <ele>308.59787</ele>
        <time>2023-09-02T15:08:54.000Z</time>
      </trkpt>
      <trkpt lat="45.8384" lon="4.72451">
        <ele>308.72525</ele>
        <time>2023-09-02T15:08:55.000Z</time>
      </trkpt>
      <trkpt lat="45.83841" lon="4.72448">
        <ele>309.9382</ele>
        <time>2023-09-02T15:08:56.000Z</time>
      </trkpt>
      <trkpt lat="45.83843" lon="4.72445">
        <ele>310.77948</ele>
        <time>2023-09-02T15:08:57.000Z</time>
      </trkpt>
      <trkpt lat="45.83844" lon="4.72442">
        <ele>311.59113</ele>
        <time>2023-09-02T15:08:58.000Z</time>
      </trkpt>
      <trkpt lat="45.83845" lon="4.72438">
        <ele>312.41589</ele>
        <time>2023-09-02T15:08:59.000Z</time>
      </trkpt>
      <trkpt lat="45.83847" lon="4.72435">
        <ele>313.21747</ele>
        <time>2023-09-02T15:09:00.000Z</time>
      </trkpt>
      <trkpt lat="45.83848" lon="4.72432">
        <ele>314.06735</ele>
        <time>2023-09-02T15:09:01.000Z</time>
      </trkpt>
      <trkpt lat="45.83851" lon="4.7243">
        <ele>314.94696</ele>
        <time>2023-09-02T15:09:02.000Z</time>
      </trkpt>
      <trkpt lat="45.83853" lon="4.72428">
        <ele>316.01401</ele>
        <time>2023-09-02T15:09:03.000Z</time>
      </trkpt>
      <trkpt lat="45.83855" lon="4.72426">
        <ele>317.19293</ele>
        <time>2023-09-02T15:09:04.000Z</time>
      </trkpt>
      <trkpt lat="45.83857" lon="4.72424">
        <ele>318.41232</ele>
        <time>2023-09-02T15:09:05.000Z</time>
      </trkpt>
      <trkpt lat="45.83859" lon="4.72422">
        <ele>319.28833</ele>
        <time>2023-09-02T15:09:06.000Z</time>
      </trkpt>
      <trkpt lat="45.83862" lon="4.72421">
        <ele>319.50317</ele>
        <time>2023-09-02T15:09:07.000Z</time>
      </trkpt>
      <trkpt lat="45.83865" lon="4.7242">
        <ele>319.71979</ele>
        <time>2023-09-02T15:09:08.000Z</time>
      </trkpt>
      <trkpt lat="45.83867" lon="4.72419">
        <ele>320.67383</ele>
        <time>2023-09-02T15:09:09.000Z</time>
      </trkpt>
      <trkpt lat="45.83871" lon="4.72417">
        <ele>321.85696</ele>
        <time>2023-09-02T15:09:10.000Z</time>
      </trkpt>
      <trkpt lat="45.83875" lon="4.72414">
        <ele>323.05331</ele>
        <time>2023-09-02T15:09:12.000Z</time>
      </trkpt>
      <trkpt lat="45.83879" lon="4.72412">
        <ele>323.86752</ele>
        <time>2023-09-02T15:09:13.000Z</time>
      </trkpt>
      <trkpt lat="45.83882" lon="4.72412">
        <ele>324.7608</ele>
        <time>2023-09-02T15:09:14.000Z</time>
      </trkpt>
      <trkpt lat="45.83885" lon="4.7241">
        <ele>325.62549</ele>
        <time>2023-09-02T15:09:15.000Z</time>
      </trkpt>
      <trkpt lat="45.83888" lon="4.72409">
        <ele>326.46991</ele>
        <time>2023-09-02T15:09:16.000Z</time>
      </trkpt>
      <trkpt lat="45.83891" lon="4.72408">
        <ele>326.22589</ele>
        <time>2023-09-02T15:09:17.000Z</time>
      </trkpt>
      <trkpt lat="45.83894" lon="4.72406">
        <ele>326.34024</ele>
        <time>2023-09-02T15:09:18.000Z</time>
      </trkpt>
      <trkpt lat="45.83897" lon="4.72405">
        <ele>326.46381</ele>
        <time>2023-09-02T15:09:19.000Z</time>
      </trkpt>
      <trkpt lat="45.83899" lon="4.72403">
        <ele>326.57361</ele>
        <time>2023-09-02T15:09:20.000Z</time>
      </trkpt>
      <trkpt lat="45.83902" lon="4.72402">
        <ele>326.71475</ele>
        <time>2023-09-02T15:09:21.000Z</time>
      </trkpt>
      <trkpt lat="45.83904" lon="4.72401">
        <ele>326.74039</ele>
        <time>2023-09-02T15:09:22.000Z</time>
      </trkpt>
      <trkpt lat="45.83907" lon="4.724">
        <ele>326.74716</ele>
        <time>2023-09-02T15:09:23.000Z</time>
      </trkpt>
      <trkpt lat="45.83909" lon="4.72399">
        <ele>326.59976</ele>
        <time>2023-09-02T15:09:24.000Z</time>
      </trkpt>
      <trkpt lat="45.83912" lon="4.72397">
        <ele>326.354</ele>
        <time>2023-09-02T15:09:25.000Z</time>
      </trkpt>
      <trkpt lat="45.83915" lon="4.72396">
        <ele>326.01324</ele>
        <time>2023-09-02T15:09:26.000Z</time>
      </trkpt>
      <trkpt lat="45.83918" lon="4.72394">
        <ele>326.07306</ele>
        <time>2023-09-02T15:09:27.000Z</time>
      </trkpt>
      <trkpt lat="45.8392" lon="4.72392">
        <ele>326.82837</ele>
        <time>2023-09-02T15:09:28.000Z</time>
      </trkpt>
      <trkpt lat="45.83923" lon="4.72391">
        <ele>327.52835</ele>
        <time>2023-09-02T15:09:29.000Z</time>
      </trkpt>
      <trkpt lat="45.83926" lon="4.72389">
        <ele>327.63538</ele>
        <time>2023-09-02T15:09:30.000Z</time>
      </trkpt>
      <trkpt lat="45.83928" lon="4.72387">
        <ele>327.64786</ele>
        <time>2023-09-02T15:09:31.000Z</time>
      </trkpt>
      <trkpt lat="45.83931" lon="4.72386">
        <ele>327.34076</ele>
        <time>2023-09-02T15:09:32.000Z</time>
      </trkpt>
      <trkpt lat="45.83933" lon="4.72385">
        <ele>327.49094</ele>
        <time>2023-09-02T15:09:33.000Z</time>
      </trkpt>
      <trkpt lat="45.83936" lon="4.72384">
        <ele>327.52628</ele>
        <time>2023-09-02T15:09:34.000Z</time>
      </trkpt>
      <trkpt lat="45.83939" lon="4.72383">
        <ele>327.63254</ele>
        <time>2023-09-02T15:09:35.000Z</time>
      </trkpt>
      <trkpt lat="45.83942" lon="4.72381">
        <ele>327.7345</ele>
        <time>2023-09-02T15:09:36.000Z</time>
      </trkpt>
      <trkpt lat="45.83945" lon="4.7238">
        <ele>327.82599</ele>
        <time>2023-09-02T15:09:37.000Z</time>
      </trkpt>
      <trkpt lat="45.83947" lon="4.72379">
        <ele>327.95416</ele>
        <time>2023-09-02T15:09:38.000Z</time>
      </trkpt>
      <trkpt lat="45.83949" lon="4.72378">
        <ele>328.12805</ele>
        <time>2023-09-02T15:09:39.000Z</time>
      </trkpt>
      <trkpt lat="45.83951" lon="4.72377">
        <ele>328.19345</ele>
        <time>2023-09-02T15:09:40.000Z</time>
      </trkpt>
      <trkpt lat="45.83954" lon="4.72375">
        <ele>328.22641</ele>
        <time>2023-09-02T15:09:41.000Z</time>
      </trkpt>
      <trkpt lat="45.83956" lon="4.72374">
        <ele>328.37469</ele>
        <time>2023-09-02T15:09:42.000Z</time>
      </trkpt>
      <trkpt lat="45.83958" lon="4.72372">
        <ele>328.66495</ele>
        <time>2023-09-02T15:09:43.000Z</time>
      </trkpt>
      <trkpt lat="45.83961" lon="4.7237">
        <ele>328.8981</ele>
        <time>2023-09-02T15:09:44.000Z</time>
      </trkpt>
      <trkpt lat="45.83963" lon="4.72368">
        <ele>329.11603</ele>
        <time>2023-09-02T15:09:45.000Z</time>
      </trkpt>
      <trkpt lat="45.83966" lon="4.72366">
        <ele>329.33658</ele>
        <time>2023-09-02T15:09:46.000Z</time>
      </trkpt>
      <trkpt lat="45.83968" lon="4.72364">
        <ele>329.47729</ele>
        <time>2023-09-02T15:09:47.000Z</time>
      </trkpt>
      <trkpt lat="45.8397" lon="4.72362">
        <ele>329.65436</ele>
        <time>2023-09-02T15:09:48.000Z</time>
      </trkpt>
      <trkpt lat="45.83973" lon="4.72359">
        <ele>329.93329</ele>
        <time>2023-09-02T15:09:49.000Z</time>
      </trkpt>
      <trkpt lat="45.83974" lon="4.72357">
        <ele>330.07132</ele>
        <time>2023-09-02T15:09:50.000Z</time>
      </trkpt>
      <trkpt lat="45.83977" lon="4.72354">
        <ele>330.07611</ele>
        <time>2023-09-02T15:09:51.000Z</time>
      </trkpt>
      <trkpt lat="45.83979" lon="4.72352">
        <ele>330.33234</ele>
        <time>2023-09-02T15:09:52.000Z</time>
      </trkpt>
      <trkpt lat="45.83981" lon="4.7235">
        <ele>330.54199</ele>
        <time>2023-09-02T15:09:53.000Z</time>
      </trkpt>
      <trkpt lat="45.83983" lon="4.72348">
        <ele>330.75745</ele>
        <time>2023-09-02T15:09:54.000Z</time>
      </trkpt>
      <trkpt lat="45.83986" lon="4.72346">
        <ele>330.95721</ele>
        <time>2023-09-02T15:09:55.000Z</time>
      </trkpt>
      <trkpt lat="45.83989" lon="4.72344">
        <ele>331.16263</ele>
        <time>2023-09-02T15:09:56.000Z</time>
      </trkpt>
      <trkpt lat="45.83991" lon="4.72342">
        <ele>331.34247</ele>
        <time>2023-09-02T15:09:57.000Z</time>
      </trkpt>
      <trkpt lat="45.83994" lon="4.7234">
        <ele>331.51862</ele>
        <time>2023-09-02T15:09:58.000Z</time>
      </trkpt>
      <trkpt lat="45.83997" lon="4.72337">
        <ele>331.64447</ele>
        <time>2023-09-02T15:09:59.000Z</time>
      </trkpt>
      <trkpt lat="45.83999" lon="4.72335">
        <ele>331.87094</ele>
        <time>2023-09-02T15:10:00.000Z</time>
      </trkpt>
      <trkpt lat="45.84001" lon="4.72332">
        <ele>332.08929</ele>
        <time>2023-09-02T15:10:01.000Z</time>
      </trkpt>
      <trkpt lat="45.84003" lon="4.7233">
        <ele>332.26349</ele>
        <time>2023-09-02T15:10:02.000Z</time>
      </trkpt>
      <trkpt lat="45.84005" lon="4.72327">
        <ele>332.3609</ele>
        <time>2023-09-02T15:10:03.000Z</time>
      </trkpt>
      <trkpt lat="45.84007" lon="4.72325">
        <ele>332.49142</ele>
        <time>2023-09-02T15:10:04.000Z</time>
      </trkpt>
      <trkpt lat="45.84009" lon="4.72322">
        <ele>332.59113</ele>
        <time>2023-09-02T15:10:05.000Z</time>
      </trkpt>
      <trkpt lat="45.84011" lon="4.72319">
        <ele>332.75229</ele>
        <time>2023-09-02T15:10:06.000Z</time>
      </trkpt>
      <trkpt lat="45.84013" lon="4.72317">
        <ele>333.04153</ele>
        <time>2023-09-02T15:10:07.000Z</time>
      </trkpt>
      <trkpt lat="45.84014" lon="4.72315">
        <ele>332.93893</ele>
        <time>2023-09-02T15:10:08.000Z</time>
      </trkpt>
      <trkpt lat="45.84015" lon="4.7231">
        <ele>332.82489</ele>
        <time>2023-09-02T15:10:10.000Z</time>
      </trkpt>
      <trkpt lat="45.84014" lon="4.72308">
        <ele>332.68457</ele>
        <time>2023-09-02T15:10:11.000Z</time>
      </trkpt>
      <trkpt lat="45.84013" lon="4.72305">
        <ele>332.50571</ele>
        <time>2023-09-02T15:10:12.000Z</time>
      </trkpt>
      <trkpt lat="45.84013" lon="4.72301">
        <ele>332.42599</ele>
        <time>2023-09-02T15:10:13.000Z</time>
      </trkpt>
      <trkpt lat="45.84014" lon="4.72297">
        <ele>332.31464</ele>
        <time>2023-09-02T15:10:14.000Z</time>
      </trkpt>
      <trkpt lat="45.84013" lon="4.72294">
        <ele>332.25055</ele>
        <time>2023-09-02T15:10:15.000Z</time>
      </trkpt>
      <trkpt lat="45.84011" lon="4.72291">
        <ele>332.21658</ele>
        <time>2023-09-02T15:10:16.000Z</time>
      </trkpt>
      <trkpt lat="45.84009" lon="4.72288">
        <ele>332.18396</ele>
        <time>2023-09-02T15:10:17.000Z</time>
      </trkpt>
      <trkpt lat="45.84006" lon="4.72286">
        <ele>332.27173</ele>
        <time>2023-09-02T15:10:18.000Z</time>
      </trkpt>
      <trkpt lat="45.84004" lon="4.72283">
        <ele>332.34253</ele>
        <time>2023-09-02T15:10:19.000Z</time>
      </trkpt>
      <trkpt lat="45.84002" lon="4.72281">
        <ele>332.3999</ele>
        <time>2023-09-02T15:10:20.000Z</time>
      </trkpt>
      <trkpt lat="45.84" lon="4.72277">
        <ele>332.43097</ele>
        <time>2023-09-02T15:10:21.000Z</time>
      </trkpt>
      <trkpt lat="45.83998" lon="4.72274">
        <ele>332.48322</ele>
        <time>2023-09-02T15:10:22.000Z</time>
      </trkpt>
      <trkpt lat="45.83996" lon="4.72271">
        <ele>332.526</ele>
        <time>2023-09-02T15:10:23.000Z</time>
      </trkpt>
      <trkpt lat="45.83995" lon="4.72268">
        <ele>332.53378</ele>
        <time>2023-09-02T15:10:24.000Z</time>
      </trkpt>
      <trkpt lat="45.83993" lon="4.72264">
        <ele>332.54153</ele>
        <time>2023-09-02T15:10:25.000Z</time>
      </trkpt>
      <trkpt lat="45.83991" lon="4.7226">
        <ele>332.58145</ele>
        <time>2023-09-02T15:10:26.000Z</time>
      </trkpt>
      <trkpt lat="45.8399" lon="4.72257">
        <ele>332.63144</ele>
        <time>2023-09-02T15:10:27.000Z</time>
      </trkpt>
      <trkpt lat="45.83989" lon="4.72253">
        <ele>332.67184</ele>
        <time>2023-09-02T15:10:28.000Z</time>
      </trkpt>
      <trkpt lat="45.83988" lon="4.72249">
        <ele>333.00308</ele>
        <time>2023-09-02T15:10:29.000Z</time>
      </trkpt>
      <trkpt lat="45.83986" lon="4.72244">
        <ele>333.30487</ele>
        <time>2023-09-02T15:10:30.000Z</time>
      </trkpt>
      <trkpt lat="45.83984" lon="4.7224">
        <ele>333.6145</ele>
        <time>2023-09-02T15:10:31.000Z</time>
      </trkpt>
      <trkpt lat="45.83982" lon="4.72236">
        <ele>333.73996</ele>
        <time>2023-09-02T15:10:32.000Z</time>
      </trkpt>
      <trkpt lat="45.83979" lon="4.72232">
        <ele>333.8779</ele>
        <time>2023-09-02T15:10:33.000Z</time>
      </trkpt>
      <trkpt lat="45.83977" lon="4.72228">
        <ele>334.00928</ele>
        <time>2023-09-02T15:10:34.000Z</time>
      </trkpt>
      <trkpt lat="45.83975" lon="4.72224">
        <ele>334.12213</ele>
        <time>2023-09-02T15:10:35.000Z</time>
      </trkpt>
      <trkpt lat="45.83973" lon="4.72221">
        <ele>334.19086</ele>
        <time>2023-09-02T15:10:36.000Z</time>
      </trkpt>
      <trkpt lat="45.83971" lon="4.72217">
        <ele>334.23065</ele>
        <time>2023-09-02T15:10:37.000Z</time>
      </trkpt>
      <trkpt lat="45.83969" lon="4.72213">
        <ele>334.14398</ele>
        <time>2023-09-02T15:10:38.000Z</time>
      </trkpt>
      <trkpt lat="45.83967" lon="4.72209">
        <ele>334.06256</ele>
        <time>2023-09-02T15:10:39.000Z</time>
      </trkpt>
      <trkpt lat="45.83965" lon="4.72205">
        <ele>333.98718</ele>
        <time>2023-09-02T15:10:40.000Z</time>
      </trkpt>
      <trkpt lat="45.83963" lon="4.72201">
        <ele>333.94427</ele>
        <time>2023-09-02T15:10:41.000Z</time>
      </trkpt>
      <trkpt lat="45.83961" lon="4.72197">
        <ele>333.88846</ele>
        <time>2023-09-02T15:10:42.000Z</time>
      </trkpt>
      <trkpt lat="45.83959" lon="4.72193">
        <ele>333.81622</ele>
        <time>2023-09-02T15:10:43.000Z</time>
      </trkpt>
      <trkpt lat="45.83957" lon="4.72188">
        <ele>333.75098</ele>
        <time>2023-09-02T15:10:44.000Z</time>
      </trkpt>
      <trkpt lat="45.83955" lon="4.72184">
        <ele>333.66354</ele>
        <time>2023-09-02T15:10:45.000Z</time>
      </trkpt>
      <trkpt lat="45.83953" lon="4.72179">
        <ele>333.58414</ele>
        <time>2023-09-02T15:10:46.000Z</time>
      </trkpt>
      <trkpt lat="45.8395" lon="4.72175">
        <ele>333.47513</ele>
        <time>2023-09-02T15:10:47.000Z</time>
      </trkpt>
      <trkpt lat="45.83948" lon="4.72172">
        <ele>333.28989</ele>
        <time>2023-09-02T15:10:48.000Z</time>
      </trkpt>
      <trkpt lat="45.83946" lon="4.72169">
        <ele>333.13232</ele>
        <time>2023-09-02T15:10:49.000Z</time>
      </trkpt>
      <trkpt lat="45.83943" lon="4.72165">
        <ele>332.96542</ele>
        <time>2023-09-02T15:10:50.000Z</time>
      </trkpt>
      <trkpt lat="45.83943" lon="4.72161">
        <ele>332.76752</ele>
        <time>2023-09-02T15:10:51.000Z</time>
      </trkpt>
      <trkpt lat="45.83944" lon="4.72158">
        <ele>332.82175</ele>
        <time>2023-09-02T15:10:52.000Z</time>
      </trkpt>
      <trkpt lat="45.83946" lon="4.72156">
        <ele>332.82318</ele>
        <time>2023-09-02T15:10:53.000Z</time>
      </trkpt>
      <trkpt lat="45.83949" lon="4.72156">
        <ele>332.8269</ele>
        <time>2023-09-02T15:10:54.000Z</time>
      </trkpt>
      <trkpt lat="45.83953" lon="4.72157">
        <ele>332.8288</ele>
        <time>2023-09-02T15:10:55.000Z</time>
      </trkpt>
      <trkpt lat="45.83956" lon="4.72158">
        <ele>332.96793</ele>
        <time>2023-09-02T15:10:56.000Z</time>
      </trkpt>
      <trkpt lat="45.83959" lon="4.72159">
        <ele>333.10223</ele>
        <time>2023-09-02T15:10:57.000Z</time>
      </trkpt>
      <trkpt lat="45.83962" lon="4.72161">
        <ele>333.30527</ele>
        <time>2023-09-02T15:10:58.000Z</time>
      </trkpt>
      <trkpt lat="45.83965" lon="4.72162">
        <ele>333.24609</ele>
        <time>2023-09-02T15:10:59.000Z</time>
      </trkpt>
      <trkpt lat="45.83969" lon="4.72163">
        <ele>333.23419</ele>
        <time>2023-09-02T15:11:00.000Z</time>
      </trkpt>
      <trkpt lat="45.83972" lon="4.72164">
        <ele>333.18808</ele>
        <time>2023-09-02T15:11:01.000Z</time>
      </trkpt>
      <trkpt lat="45.83976" lon="4.72164">
        <ele>333.15784</ele>
        <time>2023-09-02T15:11:02.000Z</time>
      </trkpt>
      <trkpt lat="45.83979" lon="4.72165">
        <ele>333.12836</ele>
        <time>2023-09-02T15:11:03.000Z</time>
      </trkpt>
      <trkpt lat="45.83982" lon="4.72166">
        <ele>333.08578</ele>
        <time>2023-09-02T15:11:04.000Z</time>
      </trkpt>
      <trkpt lat="45.83986" lon="4.72166">
        <ele>333.05237</ele>
        <time>2023-09-02T15:11:05.000Z</time>
      </trkpt>
      <trkpt lat="45.83989" lon="4.72166">
        <ele>333.00922</ele>
        <time>2023-09-02T15:11:06.000Z</time>
      </trkpt>
      <trkpt lat="45.83993" lon="4.72167">
        <ele>332.97028</ele>
        <time>2023-09-02T15:11:07.000Z</time>
      </trkpt>
      <trkpt lat="45.83996" lon="4.72167">
        <ele>332.59796</ele>
        <time>2023-09-02T15:11:08.000Z</time>
      </trkpt>
      <trkpt lat="45.83999" lon="4.72168">
        <ele>332.22687</ele>
        <time>2023-09-02T15:11:09.000Z</time>
      </trkpt>
      <trkpt lat="45.84003" lon="4.72168">
        <ele>331.85117</ele>
        <time>2023-09-02T15:11:10.000Z</time>
      </trkpt>
      <trkpt lat="45.84006" lon="4.72168">
        <ele>331.51141</ele>
        <time>2023-09-02T15:11:11.000Z</time>
      </trkpt>
      <trkpt lat="45.8401" lon="4.72168">
        <ele>331.15948</ele>
        <time>2023-09-02T15:11:12.000Z</time>
      </trkpt>
      <trkpt lat="45.84013" lon="4.72166">
        <ele>330.83231</ele>
        <time>2023-09-02T15:11:13.000Z</time>
      </trkpt>
      <trkpt lat="45.84016" lon="4.72164">
        <ele>330.52216</ele>
        <time>2023-09-02T15:11:14.000Z</time>
      </trkpt>
      <trkpt lat="45.84019" lon="4.7216">
        <ele>330.15546</ele>
        <time>2023-09-02T15:11:15.000Z</time>
      </trkpt>
      <trkpt lat="45.84022" lon="4.72156">
        <ele>329.66815</ele>
        <time>2023-09-02T15:11:16.000Z</time>
      </trkpt>
      <trkpt lat="45.84024" lon="4.72151">
        <ele>329.21793</ele>
        <time>2023-09-02T15:11:17.000Z</time>
      </trkpt>
      <trkpt lat="45.84025" lon="4.72145">
        <ele>328.77777</ele>
        <time>2023-09-02T15:11:18.000Z</time>
      </trkpt>
      <trkpt lat="45.84025" lon="4.72138">
        <ele>328.61493</ele>
        <time>2023-09-02T15:11:19.000Z</time>
      </trkpt>
      <trkpt lat="45.84023" lon="4.7213">
        <ele>328.39447</ele>
        <time>2023-09-02T15:11:20.000Z</time>
      </trkpt>
      <trkpt lat="45.84023" lon="4.72122">
        <ele>328.1857</ele>
        <time>2023-09-02T15:11:21.000Z</time>
      </trkpt>
      <trkpt lat="45.84023" lon="4.72116">
        <ele>327.90619</ele>
        <time>2023-09-02T15:11:22.000Z</time>
      </trkpt>
      <trkpt lat="45.84021" lon="4.72108">
        <ele>327.91959</ele>
        <time>2023-09-02T15:11:23.000Z</time>
      </trkpt>
      <trkpt lat="45.84021" lon="4.72101">
        <ele>327.63776</ele>
        <time>2023-09-02T15:11:24.000Z</time>
      </trkpt>
      <trkpt lat="45.8402" lon="4.72093">
        <ele>327.39203</ele>
        <time>2023-09-02T15:11:25.000Z</time>
      </trkpt>
      <trkpt lat="45.84019" lon="4.72086">
        <ele>327.15405</ele>
        <time>2023-09-02T15:11:26.000Z</time>
      </trkpt>
      <trkpt lat="45.84018" lon="4.72078">
        <ele>326.84528</ele>
        <time>2023-09-02T15:11:27.000Z</time>
      </trkpt>
      <trkpt lat="45.84018" lon="4.72071">
        <ele>326.87866</ele>
        <time>2023-09-02T15:11:28.000Z</time>
      </trkpt>
      <trkpt lat="45.84017" lon="4.72064">
        <ele>326.93033</ele>
        <time>2023-09-02T15:11:29.000Z</time>
      </trkpt>
      <trkpt lat="45.84016" lon="4.72057">
        <ele>327.20419</ele>
        <time>2023-09-02T15:11:30.000Z</time>
      </trkpt>
      <trkpt lat="45.84015" lon="4.72049">
        <ele>327.4906</ele>
        <time>2023-09-02T15:11:31.000Z</time>
      </trkpt>
      <trkpt lat="45.84015" lon="4.72042">
        <ele>327.76804</ele>
        <time>2023-09-02T15:11:32.000Z</time>
      </trkpt>
      <trkpt lat="45.84015" lon="4.72035">
        <ele>328.04984</ele>
        <time>2023-09-02T15:11:33.000Z</time>
      </trkpt>
      <trkpt lat="45.84015" lon="4.72028">
        <ele>328.31622</ele>
        <time>2023-09-02T15:11:34.000Z</time>
      </trkpt>
      <trkpt lat="45.84015" lon="4.72023">
        <ele>328.64063</ele>
        <time>2023-09-02T15:11:35.000Z</time>
      </trkpt>
      <trkpt lat="45.84014" lon="4.72017">
        <ele>328.94916</ele>
        <time>2023-09-02T15:11:36.000Z</time>
      </trkpt>
      <trkpt lat="45.84014" lon="4.72011">
        <ele>329.23599</ele>
        <time>2023-09-02T15:11:37.000Z</time>
      </trkpt>
      <trkpt lat="45.84013" lon="4.72005">
        <ele>329.47284</ele>
        <time>2023-09-02T15:11:38.000Z</time>
      </trkpt>
      <trkpt lat="45.84013" lon="4.71998">
        <ele>329.71588</ele>
        <time>2023-09-02T15:11:39.000Z</time>
      </trkpt>
      <trkpt lat="45.84013" lon="4.71991">
        <ele>329.9704</ele>
        <time>2023-09-02T15:11:40.000Z</time>
      </trkpt>
      <trkpt lat="45.84013" lon="4.71985">
        <ele>330.2442</ele>
        <time>2023-09-02T15:11:41.000Z</time>
      </trkpt>
      <trkpt lat="45.84013" lon="4.71978">
        <ele>330.58734</ele>
        <time>2023-09-02T15:11:42.000Z</time>
      </trkpt>
      <trkpt lat="45.84013" lon="4.71972">
        <ele>330.63898</ele>
        <time>2023-09-02T15:11:43.000Z</time>
      </trkpt>
      <trkpt lat="45.84012" lon="4.71966">
        <ele>331.00174</ele>
        <time>2023-09-02T15:11:44.000Z</time>
      </trkpt>
      <trkpt lat="45.84012" lon="4.71959">
        <ele>331.32281</ele>
        <time>2023-09-02T15:11:45.000Z</time>
      </trkpt>
      <trkpt lat="45.84011" lon="4.71951">
        <ele>331.66113</ele>
        <time>2023-09-02T15:11:46.000Z</time>
      </trkpt>
      <trkpt lat="45.8401" lon="4.71944">
        <ele>332.08704</ele>
        <time>2023-09-02T15:11:47.000Z</time>
      </trkpt>
      <trkpt lat="45.8401" lon="4.71937">
        <ele>332.53003</ele>
        <time>2023-09-02T15:11:48.000Z</time>
      </trkpt>
      <trkpt lat="45.84008" lon="4.71929">
        <ele>333.09549</ele>
        <time>2023-09-02T15:11:49.000Z</time>
      </trkpt>
      <trkpt lat="45.84007" lon="4.71923">
        <ele>333.44739</ele>
        <time>2023-09-02T15:11:50.000Z</time>
      </trkpt>
      <trkpt lat="45.84007" lon="4.71918">
        <ele>333.82025</ele>
        <time>2023-09-02T15:11:51.000Z</time>
      </trkpt>
      <trkpt lat="45.84007" lon="4.71914">
        <ele>334.01666</ele>
        <time>2023-09-02T15:11:52.000Z</time>
      </trkpt>
      <trkpt lat="45.84008" lon="4.7191">
        <ele>334.21729</ele>
        <time>2023-09-02T15:11:53.000Z</time>
      </trkpt>
      <trkpt lat="45.84009" lon="4.71906">
        <ele>334.42368</ele>
        <time>2023-09-02T15:11:54.000Z</time>
      </trkpt>
      <trkpt lat="45.84008" lon="4.71901">
        <ele>334.63724</ele>
        <time>2023-09-02T15:11:55.000Z</time>
      </trkpt>
      <trkpt lat="45.84008" lon="4.71897">
        <ele>334.85834</ele>
        <time>2023-09-02T15:11:56.000Z</time>
      </trkpt>
      <trkpt lat="45.84008" lon="4.71893">
        <ele>335.08194</ele>
        <time>2023-09-02T15:11:57.000Z</time>
      </trkpt>
      <trkpt lat="45.84006" lon="4.7189">
        <ele>335.30441</ele>
        <time>2023-09-02T15:11:58.000Z</time>
      </trkpt>
      <trkpt lat="45.84005" lon="4.71887">
        <ele>335.50836</ele>
        <time>2023-09-02T15:11:59.000Z</time>
      </trkpt>
      <trkpt lat="45.84004" lon="4.71884">
        <ele>335.71924</ele>
        <time>2023-09-02T15:12:00.000Z</time>
      </trkpt>
      <trkpt lat="45.84003" lon="4.71882">
        <ele>336.0159</ele>
        <time>2023-09-02T15:12:01.000Z</time>
      </trkpt>
      <trkpt lat="45.84002" lon="4.71879">
        <ele>336.38965</ele>
        <time>2023-09-02T15:12:02.000Z</time>
      </trkpt>
      <trkpt lat="45.84001" lon="4.71877">
        <ele>336.73813</ele>
        <time>2023-09-02T15:12:03.000Z</time>
      </trkpt>
      <trkpt lat="45.83999" lon="4.71874">
        <ele>336.88608</ele>
        <time>2023-09-02T15:12:04.000Z</time>
      </trkpt>
      <trkpt lat="45.83997" lon="4.71872">
        <ele>337.08356</ele>
        <time>2023-09-02T15:12:05.000Z</time>
      </trkpt>
      <trkpt lat="45.83995" lon="4.71869">
        <ele>337.24237</ele>
        <time>2023-09-02T15:12:06.000Z</time>
      </trkpt>
      <trkpt lat="45.83993" lon="4.71866">
        <ele>337.40335</ele>
        <time>2023-09-02T15:12:07.000Z</time>
      </trkpt>
      <trkpt lat="45.83991" lon="4.71864">
        <ele>337.53314</ele>
        <time>2023-09-02T15:12:08.000Z</time>
      </trkpt>
      <trkpt lat="45.83988" lon="4.71861">
        <ele>337.5358</ele>
        <time>2023-09-02T15:12:09.000Z</time>
      </trkpt>
      <trkpt lat="45.83986" lon="4.71858">
        <ele>337.50351</ele>
        <time>2023-09-02T15:12:10.000Z</time>
      </trkpt>
      <trkpt lat="45.83983" lon="4.71855">
        <ele>337.43369</ele>
        <time>2023-09-02T15:12:11.000Z</time>
      </trkpt>
      <trkpt lat="45.83981" lon="4.71851">
        <ele>337.54337</ele>
        <time>2023-09-02T15:12:12.000Z</time>
      </trkpt>
      <trkpt lat="45.83978" lon="4.71847">
        <ele>337.5787</ele>
        <time>2023-09-02T15:12:13.000Z</time>
      </trkpt>
      <trkpt lat="45.83976" lon="4.71843">
        <ele>337.60376</ele>
        <time>2023-09-02T15:12:14.000Z</time>
      </trkpt>
      <trkpt lat="45.83974" lon="4.71839">
        <ele>337.63074</ele>
        <time>2023-09-02T15:12:15.000Z</time>
      </trkpt>
      <trkpt lat="45.83972" lon="4.71836">
        <ele>337.68298</ele>
        <time>2023-09-02T15:12:16.000Z</time>
      </trkpt>
      <trkpt lat="45.83969" lon="4.71832">
        <ele>337.73169</ele>
        <time>2023-09-02T15:12:17.000Z</time>
      </trkpt>
      <trkpt lat="45.83967" lon="4.71828">
        <ele>337.77783</ele>
        <time>2023-09-02T15:12:18.000Z</time>
      </trkpt>
      <trkpt lat="45.83965" lon="4.71825">
        <ele>337.82037</ele>
        <time>2023-09-02T15:12:19.000Z</time>
      </trkpt>
      <trkpt lat="45.83964" lon="4.71823">
        <ele>337.88312</ele>
        <time>2023-09-02T15:12:20.000Z</time>
      </trkpt>
      <trkpt lat="45.83963" lon="4.71821">
        <ele>337.85748</ele>
        <time>2023-09-02T15:12:21.000Z</time>
      </trkpt>
      <trkpt lat="45.83961" lon="4.71817">
        <ele>337.73834</ele>
        <time>2023-09-02T15:12:22.000Z</time>
      </trkpt>
      <trkpt lat="45.83959" lon="4.71813">
        <ele>337.61331</ele>
        <time>2023-09-02T15:12:23.000Z</time>
      </trkpt>
      <trkpt lat="45.83957" lon="4.71809">
        <ele>337.67603</ele>
        <time>2023-09-02T15:12:24.000Z</time>
      </trkpt>
      <trkpt lat="45.83955" lon="4.71804">
        <ele>337.74048</ele>
        <time>2023-09-02T15:12:25.000Z</time>
      </trkpt>
      <trkpt lat="45.83954" lon="4.71799">
        <ele>337.82147</ele>
        <time>2023-09-02T15:12:26.000Z</time>
      </trkpt>
      <trkpt lat="45.83953" lon="4.71794">
        <ele>337.88934</ele>
        <time>2023-09-02T15:12:27.000Z</time>
      </trkpt>
      <trkpt lat="45.83951" lon="4.71789">
        <ele>338.01331</ele>
        <time>2023-09-02T15:12:28.000Z</time>
      </trkpt>
      <trkpt lat="45.8395" lon="4.71783">
        <ele>338.19147</ele>
        <time>2023-09-02T15:12:29.000Z</time>
      </trkpt>
      <trkpt lat="45.83948" lon="4.71776">
        <ele>338.37225</ele>
        <time>2023-09-02T15:12:30.000Z</time>
      </trkpt>
      <trkpt lat="45.83946" lon="4.7177">
        <ele>338.31195</ele>
        <time>2023-09-02T15:12:31.000Z</time>
      </trkpt>
      <trkpt lat="45.83943" lon="4.71764">
        <ele>338.24445</ele>
        <time>2023-09-02T15:12:32.000Z</time>
      </trkpt>
      <trkpt lat="45.8394" lon="4.71759">
        <ele>338.21255</ele>
        <time>2023-09-02T15:12:33.000Z</time>
      </trkpt>
      <trkpt lat="45.83936" lon="4.71757">
        <ele>338.18805</ele>
        <time>2023-09-02T15:12:34.000Z</time>
      </trkpt>
      <trkpt lat="45.83931" lon="4.71756">
        <ele>338.12994</ele>
        <time>2023-09-02T15:12:35.000Z</time>
      </trkpt>
      <trkpt lat="45.83928" lon="4.71754">
        <ele>338.01392</ele>
        <time>2023-09-02T15:12:36.000Z</time>
      </trkpt>
      <trkpt lat="45.83924" lon="4.71751">
        <ele>337.89529</ele>
        <time>2023-09-02T15:12:37.000Z</time>
      </trkpt>
      <trkpt lat="45.83919" lon="4.71749">
        <ele>337.85455</ele>
        <time>2023-09-02T15:12:38.000Z</time>
      </trkpt>
      <trkpt lat="45.83917" lon="4.71746">
        <ele>337.88135</ele>
        <time>2023-09-02T15:12:39.000Z</time>
      </trkpt>
      <trkpt lat="45.83914" lon="4.71746">
        <ele>337.86282</ele>
        <time>2023-09-02T15:12:40.000Z</time>
      </trkpt>
      <trkpt lat="45.8391" lon="4.71745">
        <ele>337.55988</ele>
        <time>2023-09-02T15:12:41.000Z</time>
      </trkpt>
      <trkpt lat="45.83907" lon="4.71744">
        <ele>337.28387</ele>
        <time>2023-09-02T15:12:42.000Z</time>
      </trkpt>
      <trkpt lat="45.83903" lon="4.71741">
        <ele>337.03018</ele>
        <time>2023-09-02T15:12:43.000Z</time>
      </trkpt>
      <trkpt lat="45.839" lon="4.71739">
        <ele>336.77838</ele>
        <time>2023-09-02T15:12:44.000Z</time>
      </trkpt>
      <trkpt lat="45.83896" lon="4.71735">
        <ele>336.4942</ele>
        <time>2023-09-02T15:12:45.000Z</time>
      </trkpt>
      <trkpt lat="45.8389" lon="4.71734">
        <ele>336.25571</ele>
        <time>2023-09-02T15:12:46.000Z</time>
      </trkpt>
      <trkpt lat="45.83884" lon="4.71732">
        <ele>336.06274</ele>
        <time>2023-09-02T15:12:47.000Z</time>
      </trkpt>
      <trkpt lat="45.83879" lon="4.71729">
        <ele>335.80704</ele>
        <time>2023-09-02T15:12:48.000Z</time>
      </trkpt>
      <trkpt lat="45.83873" lon="4.7173">
        <ele>335.50186</ele>
        <time>2023-09-02T15:12:49.000Z</time>
      </trkpt>
      <trkpt lat="45.83869" lon="4.71728">
        <ele>335.18921</ele>
        <time>2023-09-02T15:12:50.000Z</time>
      </trkpt>
      <trkpt lat="45.83863" lon="4.71725">
        <ele>335.08859</ele>
        <time>2023-09-02T15:12:51.000Z</time>
      </trkpt>
      <trkpt lat="45.83859" lon="4.71724">
        <ele>335.02225</ele>
        <time>2023-09-02T15:12:52.000Z</time>
      </trkpt>
      <trkpt lat="45.83853" lon="4.71721">
        <ele>334.8938</ele>
        <time>2023-09-02T15:12:53.000Z</time>
      </trkpt>
      <trkpt lat="45.83848" lon="4.7172">
        <ele>334.92267</ele>
        <time>2023-09-02T15:12:54.000Z</time>
      </trkpt>
      <trkpt lat="45.83843" lon="4.71719">
        <ele>335.08051</ele>
        <time>2023-09-02T15:12:55.000Z</time>
      </trkpt>
      <trkpt lat="45.83836" lon="4.71718">
        <ele>334.94516</ele>
        <time>2023-09-02T15:12:56.000Z</time>
      </trkpt>
      <trkpt lat="45.8383" lon="4.71716">
        <ele>334.80899</ele>
        <time>2023-09-02T15:12:57.000Z</time>
      </trkpt>
      <trkpt lat="45.83824" lon="4.71714">
        <ele>334.59286</ele>
        <time>2023-09-02T15:12:58.000Z</time>
      </trkpt>
      <trkpt lat="45.83819" lon="4.71712">
        <ele>334.31104</ele>
        <time>2023-09-02T15:12:59.000Z</time>
      </trkpt>
      <trkpt lat="45.83814" lon="4.71709">
        <ele>334.02911</ele>
        <time>2023-09-02T15:13:00.000Z</time>
      </trkpt>
      <trkpt lat="45.83807" lon="4.71706">
        <ele>334.06778</ele>
        <time>2023-09-02T15:13:01.000Z</time>
      </trkpt>
      <trkpt lat="45.83801" lon="4.71704">
        <ele>334.08481</ele>
        <time>2023-09-02T15:13:02.000Z</time>
      </trkpt>
      <trkpt lat="45.83794" lon="4.71704">
        <ele>334.07922</ele>
        <time>2023-09-02T15:13:03.000Z</time>
      </trkpt>
      <trkpt lat="45.83788" lon="4.71702">
        <ele>334.07852</ele>
        <time>2023-09-02T15:13:04.000Z</time>
      </trkpt>
      <trkpt lat="45.83782" lon="4.71703">
        <ele>334.05984</ele>
        <time>2023-09-02T15:13:05.000Z</time>
      </trkpt>
      <trkpt lat="45.83777" lon="4.71702">
        <ele>334.19189</ele>
        <time>2023-09-02T15:13:06.000Z</time>
      </trkpt>
      <trkpt lat="45.83772" lon="4.71701">
        <ele>334.21164</ele>
        <time>2023-09-02T15:13:07.000Z</time>
      </trkpt>
      <trkpt lat="45.83766" lon="4.71699">
        <ele>334.2291</ele>
        <time>2023-09-02T15:13:08.000Z</time>
      </trkpt>
      <trkpt lat="45.83761" lon="4.71701">
        <ele>334.22324</ele>
        <time>2023-09-02T15:13:09.000Z</time>
      </trkpt>
      <trkpt lat="45.83755" lon="4.71703">
        <ele>334.24701</ele>
        <time>2023-09-02T15:13:10.000Z</time>
      </trkpt>
      <trkpt lat="45.83749" lon="4.71701">
        <ele>334.24542</ele>
        <time>2023-09-02T15:13:11.000Z</time>
      </trkpt>
      <trkpt lat="45.83745" lon="4.717">
        <ele>334.18271</ele>
        <time>2023-09-02T15:13:12.000Z</time>
      </trkpt>
      <trkpt lat="45.8374" lon="4.71701">
        <ele>334.14902</ele>
        <time>2023-09-02T15:13:13.000Z</time>
      </trkpt>
      <trkpt lat="45.83738" lon="4.71703">
        <ele>334.02713</ele>
        <time>2023-09-02T15:13:14.000Z</time>
      </trkpt>
      <trkpt lat="45.83733" lon="4.71703">
        <ele>333.74506</ele>
        <time>2023-09-02T15:13:15.000Z</time>
      </trkpt>
      <trkpt lat="45.83729" lon="4.71702">
        <ele>333.80786</ele>
        <time>2023-09-02T15:13:16.000Z</time>
      </trkpt>
      <trkpt lat="45.83725" lon="4.71697">
        <ele>333.83716</ele>
        <time>2023-09-02T15:13:17.000Z</time>
      </trkpt>
      <trkpt lat="45.83723" lon="4.71692">
        <ele>333.82318</ele>
        <time>2023-09-02T15:13:18.000Z</time>
      </trkpt>
      <trkpt lat="45.83719" lon="4.71688">
        <ele>333.75497</ele>
        <time>2023-09-02T15:13:19.000Z</time>
      </trkpt>
      <trkpt lat="45.83717" lon="4.71682">
        <ele>333.67316</ele>
        <time>2023-09-02T15:13:20.000Z</time>
      </trkpt>
      <trkpt lat="45.83714" lon="4.71677">
        <ele>333.53015</ele>
        <time>2023-09-02T15:13:21.000Z</time>
      </trkpt>
      <trkpt lat="45.83714" lon="4.71674">
        <ele>333.48035</ele>
        <time>2023-09-02T15:13:22.000Z</time>
      </trkpt>
      <trkpt lat="45.83713" lon="4.7167">
        <ele>333.42554</ele>
        <time>2023-09-02T15:13:23.000Z</time>
      </trkpt>
      <trkpt lat="45.8371" lon="4.71666">
        <ele>333.39447</ele>
        <time>2023-09-02T15:13:24.000Z</time>
      </trkpt>
      <trkpt lat="45.83708" lon="4.71662">
        <ele>333.45303</ele>
        <time>2023-09-02T15:13:25.000Z</time>
      </trkpt>
      <trkpt lat="45.83707" lon="4.71658">
        <ele>333.34634</ele>
        <time>2023-09-02T15:13:26.000Z</time>
      </trkpt>
      <trkpt lat="45.83706" lon="4.71655">
        <ele>333.24707</ele>
        <time>2023-09-02T15:13:27.000Z</time>
      </trkpt>
      <trkpt lat="45.83705" lon="4.71653">
        <ele>333.2782</ele>
        <time>2023-09-02T15:13:28.000Z</time>
      </trkpt>
      <trkpt lat="45.83702" lon="4.7165">
        <ele>333.35822</ele>
        <time>2023-09-02T15:13:29.000Z</time>
      </trkpt>
      <trkpt lat="45.837" lon="4.71647">
        <ele>333.04321</ele>
        <time>2023-09-02T15:13:30.000Z</time>
      </trkpt>
      <trkpt lat="45.83697" lon="4.71648">
        <ele>332.78134</ele>
        <time>2023-09-02T15:13:32.000Z</time>
      </trkpt>
      <trkpt lat="45.83694" lon="4.71649">
        <ele>332.54755</ele>
        <time>2023-09-02T15:13:34.000Z</time>
      </trkpt>
      <trkpt lat="45.83691" lon="4.7165">
        <ele>332.37</ele>
        <time>2023-09-02T15:13:36.000Z</time>
      </trkpt>
      <trkpt lat="45.83687" lon="4.71651">
        <ele>332.13641</ele>
        <time>2023-09-02T15:13:38.000Z</time>
      </trkpt>
      <trkpt lat="45.83684" lon="4.71651">
        <ele>331.94141</ele>
        <time>2023-09-02T15:13:39.000Z</time>
      </trkpt>
      <trkpt lat="45.83681" lon="4.71652">
        <ele>331.82257</ele>
        <time>2023-09-02T15:13:41.000Z</time>
      </trkpt>
      <trkpt lat="45.83679" lon="4.71652">
        <ele>331.83429</ele>
        <time>2023-09-02T15:13:42.000Z</time>
      </trkpt>
      <trkpt lat="45.83676" lon="4.71653">
        <ele>331.84546</ele>
        <time>2023-09-02T15:13:43.000Z</time>
      </trkpt>
      <trkpt lat="45.83673" lon="4.71653">
        <ele>331.92419</ele>
        <time>2023-09-02T15:13:44.000Z</time>
      </trkpt>
      <trkpt lat="45.83671" lon="4.71653">
        <ele>332.11841</ele>
        <time>2023-09-02T15:13:45.000Z</time>
      </trkpt>
      <trkpt lat="45.83668" lon="4.71653">
        <ele>332.31137</ele>
        <time>2023-09-02T15:13:46.000Z</time>
      </trkpt>
      <trkpt lat="45.83665" lon="4.71653">
        <ele>332.4249</ele>
        <time>2023-09-02T15:13:47.000Z</time>
      </trkpt>
      <trkpt lat="45.83662" lon="4.71653">
        <ele>332.5329</ele>
        <time>2023-09-02T15:13:48.000Z</time>
      </trkpt>
      <trkpt lat="45.8366" lon="4.71652">
        <ele>332.58249</ele>
        <time>2023-09-02T15:13:49.000Z</time>
      </trkpt>
      <trkpt lat="45.83657" lon="4.71651">
        <ele>332.56036</ele>
        <time>2023-09-02T15:13:50.000Z</time>
      </trkpt>
      <trkpt lat="45.83654" lon="4.7165">
        <ele>332.44141</ele>
        <time>2023-09-02T15:13:51.000Z</time>
      </trkpt>
      <trkpt lat="45.83652" lon="4.71648">
        <ele>332.37021</ele>
        <time>2023-09-02T15:13:52.000Z</time>
      </trkpt>
      <trkpt lat="45.83649" lon="4.71647">
        <ele>332.20667</ele>
        <time>2023-09-02T15:13:53.000Z</time>
      </trkpt>
      <trkpt lat="45.83646" lon="4.71645">
        <ele>331.9711</ele>
        <time>2023-09-02T15:13:54.000Z</time>
      </trkpt>
      <trkpt lat="45.83644" lon="4.71643">
        <ele>332.12741</ele>
        <time>2023-09-02T15:13:55.000Z</time>
      </trkpt>
      <trkpt lat="45.83642" lon="4.71641">
        <ele>332.29224</ele>
        <time>2023-09-02T15:13:56.000Z</time>
      </trkpt>
      <trkpt lat="45.8364" lon="4.71639">
        <ele>332.4454</ele>
        <time>2023-09-02T15:13:57.000Z</time>
      </trkpt>
      <trkpt lat="45.83638" lon="4.71636">
        <ele>332.57486</ele>
        <time>2023-09-02T15:13:58.000Z</time>
      </trkpt>
      <trkpt lat="45.83636" lon="4.71633">
        <ele>332.69098</ele>
        <time>2023-09-02T15:13:59.000Z</time>
      </trkpt>
      <trkpt lat="45.83635" lon="4.7163">
        <ele>332.84186</ele>
        <time>2023-09-02T15:14:00.000Z</time>
      </trkpt>
      <trkpt lat="45.83634" lon="4.71626">
        <ele>332.89069</ele>
        <time>2023-09-02T15:14:01.000Z</time>
      </trkpt>
      <trkpt lat="45.83633" lon="4.71623">
        <ele>332.8898</ele>
        <time>2023-09-02T15:14:02.000Z</time>
      </trkpt>
      <trkpt lat="45.83632" lon="4.7162">
        <ele>332.92554</ele>
        <time>2023-09-02T15:14:03.000Z</time>
      </trkpt>
      <trkpt lat="45.83631" lon="4.71617">
        <ele>332.95273</ele>
        <time>2023-09-02T15:14:04.000Z</time>
      </trkpt>
      <trkpt lat="45.8363" lon="4.71614">
        <ele>332.91077</ele>
        <time>2023-09-02T15:14:05.000Z</time>
      </trkpt>
      <trkpt lat="45.83629" lon="4.71611">
        <ele>332.87506</ele>
        <time>2023-09-02T15:14:06.000Z</time>
      </trkpt>
      <trkpt lat="45.83629" lon="4.71608">
        <ele>332.89102</ele>
        <time>2023-09-02T15:14:07.000Z</time>
      </trkpt>
      <trkpt lat="45.83628" lon="4.71605">
        <ele>332.98282</ele>
        <time>2023-09-02T15:14:08.000Z</time>
      </trkpt>
      <trkpt lat="45.83627" lon="4.71602">
        <ele>333.12802</ele>
        <time>2023-09-02T15:14:09.000Z</time>
      </trkpt>
      <trkpt lat="45.83626" lon="4.71599">
        <ele>333.24384</ele>
        <time>2023-09-02T15:14:10.000Z</time>
      </trkpt>
      <trkpt lat="45.83625" lon="4.71596">
        <ele>333.50653</ele>
        <time>2023-09-02T15:14:11.000Z</time>
      </trkpt>
      <trkpt lat="45.83624" lon="4.71593">
        <ele>333.81665</ele>
        <time>2023-09-02T15:14:12.000Z</time>
      </trkpt>
      <trkpt lat="45.83623" lon="4.71589">
        <ele>334.11026</ele>
        <time>2023-09-02T15:14:13.000Z</time>
      </trkpt>
      <trkpt lat="45.83623" lon="4.71587">
        <ele>334.44684</ele>
        <time>2023-09-02T15:14:14.000Z</time>
      </trkpt>
      <trkpt lat="45.83622" lon="4.71583">
        <ele>334.79675</ele>
        <time>2023-09-02T15:14:16.000Z</time>
      </trkpt>
      <trkpt lat="45.83622" lon="4.71581">
        <ele>335.21078</ele>
        <time>2023-09-02T15:14:17.000Z</time>
      </trkpt>
      <trkpt lat="45.83621" lon="4.71577">
        <ele>335.64178</ele>
        <time>2023-09-02T15:14:18.000Z</time>
      </trkpt>
      <trkpt lat="45.83621" lon="4.71574">
        <ele>336.08734</ele>
        <time>2023-09-02T15:14:19.000Z</time>
      </trkpt>
      <trkpt lat="45.83621" lon="4.71571">
        <ele>336.53448</ele>
        <time>2023-09-02T15:14:20.000Z</time>
      </trkpt>
      <trkpt lat="45.83622" lon="4.71568">
        <ele>336.97729</ele>
        <time>2023-09-02T15:14:21.000Z</time>
      </trkpt>
      <trkpt lat="45.83622" lon="4.71565">
        <ele>337.43939</ele>
        <time>2023-09-02T15:14:22.000Z</time>
      </trkpt>
      <trkpt lat="45.83622" lon="4.71562">
        <ele>337.83539</ele>
        <time>2023-09-02T15:14:23.000Z</time>
      </trkpt>
      <trkpt lat="45.83622" lon="4.71559">
        <ele>338.22714</ele>
        <time>2023-09-02T15:14:24.000Z</time>
      </trkpt>
      <trkpt lat="45.83622" lon="4.71556">
        <ele>338.62778</ele>
        <time>2023-09-02T15:14:25.000Z</time>
      </trkpt>
      <trkpt lat="45.83622" lon="4.71551">
        <ele>339.00128</ele>
        <time>2023-09-02T15:14:27.000Z</time>
      </trkpt>
      <trkpt lat="45.83622" lon="4.71548">
        <ele>339.40219</ele>
        <time>2023-09-02T15:14:28.000Z</time>
      </trkpt>
      <trkpt lat="45.83622" lon="4.71545">
        <ele>339.78009</ele>
        <time>2023-09-02T15:14:29.000Z</time>
      </trkpt>
      <trkpt lat="45.83622" lon="4.71542">
        <ele>340.20926</ele>
        <time>2023-09-02T15:14:30.000Z</time>
      </trkpt>
      <trkpt lat="45.83622" lon="4.71538">
        <ele>340.60602</ele>
        <time>2023-09-02T15:14:31.000Z</time>
      </trkpt>
      <trkpt lat="45.83621" lon="4.71535">
        <ele>341.02386</ele>
        <time>2023-09-02T15:14:32.000Z</time>
      </trkpt>
      <trkpt lat="45.8362" lon="4.71533">
        <ele>341.37637</ele>
        <time>2023-09-02T15:14:33.000Z</time>
      </trkpt>
      <trkpt lat="45.83619" lon="4.7153">
        <ele>341.73602</ele>
        <time>2023-09-02T15:14:34.000Z</time>
      </trkpt>
      <trkpt lat="45.83618" lon="4.71527">
        <ele>342.08893</ele>
        <time>2023-09-02T15:14:35.000Z</time>
      </trkpt>
      <trkpt lat="45.83617" lon="4.71524">
        <ele>342.31268</ele>
        <time>2023-09-02T15:14:36.000Z</time>
      </trkpt>
      <trkpt lat="45.83615" lon="4.71521">
        <ele>342.5296</ele>
        <time>2023-09-02T15:14:37.000Z</time>
      </trkpt>
      <trkpt lat="45.83614" lon="4.71518">
        <ele>342.68494</ele>
        <time>2023-09-02T15:14:38.000Z</time>
      </trkpt>
      <trkpt lat="45.83613" lon="4.71515">
        <ele>342.82037</ele>
        <time>2023-09-02T15:14:39.000Z</time>
      </trkpt>
      <trkpt lat="45.83611" lon="4.71513">
        <ele>342.9826</ele>
        <time>2023-09-02T15:14:40.000Z</time>
      </trkpt>
      <trkpt lat="45.8361" lon="4.71511">
        <ele>343.14679</ele>
        <time>2023-09-02T15:14:41.000Z</time>
      </trkpt>
      <trkpt lat="45.83608" lon="4.71507">
        <ele>343.30341</ele>
        <time>2023-09-02T15:14:43.000Z</time>
      </trkpt>
      <trkpt lat="45.83607" lon="4.71503">
        <ele>343.44443</ele>
        <time>2023-09-02T15:14:45.000Z</time>
      </trkpt>
      <trkpt lat="45.83607" lon="4.715">
        <ele>343.67572</ele>
        <time>2023-09-02T15:14:47.000Z</time>
      </trkpt>
      <trkpt lat="45.83605" lon="4.71497">
        <ele>343.90875</ele>
        <time>2023-09-02T15:14:49.000Z</time>
      </trkpt>
      <trkpt lat="45.83602" lon="4.71495">
        <ele>344.14606</ele>
        <time>2023-09-02T15:14:51.000Z</time>
      </trkpt>
      <trkpt lat="45.836" lon="4.71495">
        <ele>344.34323</ele>
        <time>2023-09-02T15:14:52.000Z</time>
      </trkpt>
      <trkpt lat="45.83598" lon="4.71496">
        <ele>344.5267</ele>
        <time>2023-09-02T15:14:53.000Z</time>
      </trkpt>
      <trkpt lat="45.83595" lon="4.71497">
        <ele>344.73468</ele>
        <time>2023-09-02T15:14:54.000Z</time>
      </trkpt>
      <trkpt lat="45.83593" lon="4.71498">
        <ele>344.91318</ele>
        <time>2023-09-02T15:14:55.000Z</time>
      </trkpt>
      <trkpt lat="45.83591" lon="4.71499">
        <ele>345.10101</ele>
        <time>2023-09-02T15:14:56.000Z</time>
      </trkpt>
      <trkpt lat="45.83588" lon="4.715">
        <ele>345.24994</ele>
        <time>2023-09-02T15:14:57.000Z</time>
      </trkpt>
      <trkpt lat="45.83585" lon="4.715">
        <ele>345.39386</ele>
        <time>2023-09-02T15:14:58.000Z</time>
      </trkpt>
      <trkpt lat="45.83582" lon="4.71501">
        <ele>345.48743</ele>
        <time>2023-09-02T15:14:59.000Z</time>
      </trkpt>
      <trkpt lat="45.8358" lon="4.71501">
        <ele>345.57452</ele>
        <time>2023-09-02T15:15:00.000Z</time>
      </trkpt>
      <trkpt lat="45.83577" lon="4.71501">
        <ele>345.76953</ele>
        <time>2023-09-02T15:15:01.000Z</time>
      </trkpt>
      <trkpt lat="45.83575" lon="4.71502">
        <ele>345.96051</ele>
        <time>2023-09-02T15:15:02.000Z</time>
      </trkpt>
      <trkpt lat="45.83572" lon="4.71504">
        <ele>346.17557</ele>
        <time>2023-09-02T15:15:03.000Z</time>
      </trkpt>
      <trkpt lat="45.8357" lon="4.71504">
        <ele>346.414</ele>
        <time>2023-09-02T15:15:04.000Z</time>
      </trkpt>
      <trkpt lat="45.83568" lon="4.71505">
        <ele>346.59113</ele>
        <time>2023-09-02T15:15:05.000Z</time>
      </trkpt>
      <trkpt lat="45.83565" lon="4.71505">
        <ele>346.77328</ele>
        <time>2023-09-02T15:15:06.000Z</time>
      </trkpt>
      <trkpt lat="45.83562" lon="4.71506">
        <ele>346.91119</ele>
        <time>2023-09-02T15:15:07.000Z</time>
      </trkpt>
      <trkpt lat="45.83559" lon="4.71506">
        <ele>347.04703</ele>
        <time>2023-09-02T15:15:08.000Z</time>
      </trkpt>
      <trkpt lat="45.83556" lon="4.71507">
        <ele>347.10452</ele>
        <time>2023-09-02T15:15:09.000Z</time>
      </trkpt>
      <trkpt lat="45.83554" lon="4.71508">
        <ele>347.15829</ele>
        <time>2023-09-02T15:15:10.000Z</time>
      </trkpt>
      <trkpt lat="45.83551" lon="4.71508">
        <ele>347.21695</ele>
        <time>2023-09-02T15:15:11.000Z</time>
      </trkpt>
      <trkpt lat="45.83548" lon="4.71508">
        <ele>347.34155</ele>
        <time>2023-09-02T15:15:12.000Z</time>
      </trkpt>
      <trkpt lat="45.83545" lon="4.71508">
        <ele>347.45761</ele>
        <time>2023-09-02T15:15:13.000Z</time>
      </trkpt>
      <trkpt lat="45.83543" lon="4.71508">
        <ele>347.59967</ele>
        <time>2023-09-02T15:15:14.000Z</time>
      </trkpt>
      <trkpt lat="45.8354" lon="4.71508">
        <ele>347.65814</ele>
        <time>2023-09-02T15:15:15.000Z</time>
      </trkpt>
      <trkpt lat="45.83537" lon="4.71508">
        <ele>347.70206</ele>
        <time>2023-09-02T15:15:16.000Z</time>
      </trkpt>
      <trkpt lat="45.83534" lon="4.71508">
        <ele>347.74921</ele>
        <time>2023-09-02T15:15:17.000Z</time>
      </trkpt>
      <trkpt lat="45.83531" lon="4.71508">
        <ele>347.80649</ele>
        <time>2023-09-02T15:15:18.000Z</time>
      </trkpt>
      <trkpt lat="45.83528" lon="4.71508">
        <ele>347.85236</ele>
        <time>2023-09-02T15:15:19.000Z</time>
      </trkpt>
      <trkpt lat="45.83526" lon="4.71508">
        <ele>347.85571</ele>
        <time>2023-09-02T15:15:20.000Z</time>
      </trkpt>
      <trkpt lat="45.83523" lon="4.71507">
        <ele>347.867</ele>
        <time>2023-09-02T15:15:21.000Z</time>
      </trkpt>
      <trkpt lat="45.8352" lon="4.71506">
        <ele>347.88239</ele>
        <time>2023-09-02T15:15:22.000Z</time>
      </trkpt>
      <trkpt lat="45.83517" lon="4.71505">
        <ele>347.88397</ele>
        <time>2023-09-02T15:15:23.000Z</time>
      </trkpt>
      <trkpt lat="45.83514" lon="4.71505">
        <ele>347.89435</ele>
        <time>2023-09-02T15:15:24.000Z</time>
      </trkpt>
      <trkpt lat="45.83511" lon="4.71505">
        <ele>347.93771</ele>
        <time>2023-09-02T15:15:25.000Z</time>
      </trkpt>
      <trkpt lat="45.83508" lon="4.71504">
        <ele>348.01898</ele>
        <time>2023-09-02T15:15:26.000Z</time>
      </trkpt>
      <trkpt lat="45.83505" lon="4.71502">
        <ele>348.13663</ele>
        <time>2023-09-02T15:15:27.000Z</time>
      </trkpt>
      <trkpt lat="45.83503" lon="4.71501">
        <ele>348.28192</ele>
        <time>2023-09-02T15:15:28.000Z</time>
      </trkpt>
      <trkpt lat="45.83501" lon="4.715">
        <ele>348.4155</ele>
        <time>2023-09-02T15:15:29.000Z</time>
      </trkpt>
      <trkpt lat="45.83498" lon="4.71499">
        <ele>348.5351</ele>
        <time>2023-09-02T15:15:30.000Z</time>
      </trkpt>
      <trkpt lat="45.83496" lon="4.715">
        <ele>348.63678</ele>
        <time>2023-09-02T15:15:31.000Z</time>
      </trkpt>
      <trkpt lat="45.83495" lon="4.71501">
        <ele>348.70038</ele>
        <time>2023-09-02T15:15:32.000Z</time>
      </trkpt>
      <trkpt lat="45.83493" lon="4.71504">
        <ele>348.74585</ele>
        <time>2023-09-02T15:15:34.000Z</time>
      </trkpt>
      <trkpt lat="45.8349" lon="4.71506">
        <ele>348.69263</ele>
        <time>2023-09-02T15:15:36.000Z</time>
      </trkpt>
      <trkpt lat="45.83487" lon="4.71505">
        <ele>348.73813</ele>
        <time>2023-09-02T15:15:38.000Z</time>
      </trkpt>
      <trkpt lat="45.83484" lon="4.71503">
        <ele>348.7757</ele>
        <time>2023-09-02T15:15:40.000Z</time>
      </trkpt>
      <trkpt lat="45.83482" lon="4.71502">
        <ele>348.83374</ele>
        <time>2023-09-02T15:15:42.000Z</time>
      </trkpt>
      <trkpt lat="45.8348" lon="4.71502">
        <ele>348.84576</ele>
        <time>2023-09-02T15:15:43.000Z</time>
      </trkpt>
      <trkpt lat="45.83479" lon="4.71501">
        <ele>348.87799</ele>
        <time>2023-09-02T15:15:44.000Z</time>
      </trkpt>
      <trkpt lat="45.83476" lon="4.71502">
        <ele>348.95355</ele>
        <time>2023-09-02T15:15:46.000Z</time>
      </trkpt>
      <trkpt lat="45.83476" lon="4.71506">
        <ele>349.02359</ele>
        <time>2023-09-02T15:15:48.000Z</time>
      </trkpt>
      <trkpt lat="45.83475" lon="4.7151">
        <ele>349.08905</ele>
        <time>2023-09-02T15:15:50.000Z</time>
      </trkpt>
      <trkpt lat="45.83476" lon="4.71514">
        <ele>349.14194</ele>
        <time>2023-09-02T15:15:52.000Z</time>
      </trkpt>
      <trkpt lat="45.83478" lon="4.71514">
        <ele>349.13739</ele>
        <time>2023-09-02T15:15:54.000Z</time>
      </trkpt>
      <trkpt lat="45.83478" lon="4.71511">
        <ele>349.11862</ele>
        <time>2023-09-02T15:15:56.000Z</time>
      </trkpt>
      <trkpt lat="45.83478" lon="4.71508">
        <ele>349.02496</ele>
        <time>2023-09-02T15:15:59.000Z</time>
      </trkpt>
      <trkpt lat="45.83478" lon="4.71505">
        <ele>348.93695</ele>
        <time>2023-09-02T15:16:06.000Z</time>
      </trkpt>
      <trkpt lat="45.83475" lon="4.71505">
        <ele>348.83051</ele>
        <time>2023-09-02T15:16:11.000Z</time>
      </trkpt>
      <trkpt lat="45.83474" lon="4.71507">
        <ele>348.77213</ele>
        <time>2023-09-02T15:16:14.000Z</time>
      </trkpt>
      <trkpt lat="45.83474" lon="4.71507">
        <ele>348.77213</ele>
        <time>2023-09-02T15:16:14.000Z</time>
      </trkpt>
      <trkpt lat="45.83474" lon="4.7151">
        <ele>348.58725</ele>
        <time>2023-09-02T15:30:47.635Z</time>
      </trkpt>
      <trkpt lat="45.83474" lon="4.7151">
        <ele>348.58725</ele>
        <time>2023-09-02T15:30:47.635Z</time>
      </trkpt>
      <trkpt lat="45.83475" lon="4.71508">
        <ele>348.53421</ele>
        <time>2023-09-02T15:30:50.000Z</time>
      </trkpt>
      <trkpt lat="45.83474" lon="4.71506">
        <ele>348.48764</ele>
        <time>2023-09-02T15:30:52.000Z</time>
      </trkpt>
      <trkpt lat="45.83471" lon="4.71506">
        <ele>348.47556</ele>
        <time>2023-09-02T15:30:53.000Z</time>
      </trkpt>
      <trkpt lat="45.83469" lon="4.71508">
        <ele>348.47412</ele>
        <time>2023-09-02T15:30:55.000Z</time>
      </trkpt>
      <trkpt lat="45.83468" lon="4.71512">
        <ele>348.32837</ele>
        <time>2023-09-02T15:30:57.000Z</time>
      </trkpt>
      <trkpt lat="45.83468" lon="4.71514">
        <ele>348.19998</ele>
        <time>2023-09-02T15:30:59.000Z</time>
      </trkpt>
      <trkpt lat="45.83466" lon="4.71517">
        <ele>348.08057</ele>
        <time>2023-09-02T15:31:01.000Z</time>
      </trkpt>
      <trkpt lat="45.83464" lon="4.71518">
        <ele>348.0033</ele>
        <time>2023-09-02T15:31:03.000Z</time>
      </trkpt>
      <trkpt lat="45.8346" lon="4.71518">
        <ele>348.01144</ele>
        <time>2023-09-02T15:31:05.000Z</time>
      </trkpt>
      <trkpt lat="45.83458" lon="4.71517">
        <ele>347.99197</ele>
        <time>2023-09-02T15:31:06.000Z</time>
      </trkpt>
      <trkpt lat="45.83457" lon="4.71515">
        <ele>347.9487</ele>
        <time>2023-09-02T15:31:07.000Z</time>
      </trkpt>
      <trkpt lat="45.83457" lon="4.71511">
        <ele>347.89679</ele>
        <time>2023-09-02T15:31:08.000Z</time>
      </trkpt>
      <trkpt lat="45.83457" lon="4.71509">
        <ele>347.84296</ele>
        <time>2023-09-02T15:31:09.000Z</time>
      </trkpt>
      <trkpt lat="45.83457" lon="4.71504">
        <ele>347.80206</ele>
        <time>2023-09-02T15:31:11.000Z</time>
      </trkpt>
      <trkpt lat="45.83458" lon="4.71502">
        <ele>347.77472</ele>
        <time>2023-09-02T15:31:12.000Z</time>
      </trkpt>
      <trkpt lat="45.83459" lon="4.71498">
        <ele>347.76962</ele>
        <time>2023-09-02T15:31:13.000Z</time>
      </trkpt>
      <trkpt lat="45.8346" lon="4.71495">
        <ele>347.7276</ele>
        <time>2023-09-02T15:31:14.000Z</time>
      </trkpt>
      <trkpt lat="45.8346" lon="4.71492">
        <ele>347.65585</ele>
        <time>2023-09-02T15:31:16.000Z</time>
      </trkpt>
      <trkpt lat="45.83461" lon="4.71489">
        <ele>347.58966</ele>
        <time>2023-09-02T15:31:21.000Z</time>
      </trkpt>
      <trkpt lat="45.8346" lon="4.71486">
        <ele>347.70425</ele>
        <time>2023-09-02T15:31:22.000Z</time>
      </trkpt>
      <trkpt lat="45.83459" lon="4.71483">
        <ele>347.68506</ele>
        <time>2023-09-02T15:31:23.000Z</time>
      </trkpt>
      <trkpt lat="45.83457" lon="4.71481">
        <ele>347.68881</ele>
        <time>2023-09-02T15:31:24.000Z</time>
      </trkpt>
      <trkpt lat="45.83454" lon="4.7148">
        <ele>347.68268</ele>
        <time>2023-09-02T15:31:25.000Z</time>
      </trkpt>
      <trkpt lat="45.83451" lon="4.71478">
        <ele>347.72766</ele>
        <time>2023-09-02T15:31:26.000Z</time>
      </trkpt>
      <trkpt lat="45.83448" lon="4.71477">
        <ele>347.77902</ele>
        <time>2023-09-02T15:31:27.000Z</time>
      </trkpt>
      <trkpt lat="45.83445" lon="4.71475">
        <ele>347.82782</ele>
        <time>2023-09-02T15:31:28.000Z</time>
      </trkpt>
      <trkpt lat="45.83442" lon="4.71474">
        <ele>347.87979</ele>
        <time>2023-09-02T15:31:29.000Z</time>
      </trkpt>
      <trkpt lat="45.83439" lon="4.71472">
        <ele>347.90121</ele>
        <time>2023-09-02T15:31:30.000Z</time>
      </trkpt>
      <trkpt lat="45.83436" lon="4.7147">
        <ele>347.84653</ele>
        <time>2023-09-02T15:31:31.000Z</time>
      </trkpt>
      <trkpt lat="45.83434" lon="4.71468">
        <ele>347.78183</ele>
        <time>2023-09-02T15:31:32.000Z</time>
      </trkpt>
      <trkpt lat="45.83432" lon="4.71466">
        <ele>347.76028</ele>
        <time>2023-09-02T15:31:33.000Z</time>
      </trkpt>
      <trkpt lat="45.83429" lon="4.71464">
        <ele>347.73999</ele>
        <time>2023-09-02T15:31:34.000Z</time>
      </trkpt>
      <trkpt lat="45.83427" lon="4.71462">
        <ele>347.69055</ele>
        <time>2023-09-02T15:31:35.000Z</time>
      </trkpt>
      <trkpt lat="45.83425" lon="4.7146">
        <ele>347.65558</ele>
        <time>2023-09-02T15:31:36.000Z</time>
      </trkpt>
      <trkpt lat="45.83422" lon="4.71459">
        <ele>347.58893</ele>
        <time>2023-09-02T15:31:37.000Z</time>
      </trkpt>
      <trkpt lat="45.8342" lon="4.71457">
        <ele>347.55902</ele>
        <time>2023-09-02T15:31:38.000Z</time>
      </trkpt>
      <trkpt lat="45.83417" lon="4.71456">
        <ele>347.55655</ele>
        <time>2023-09-02T15:31:39.000Z</time>
      </trkpt>
      <trkpt lat="45.83414" lon="4.71453">
        <ele>347.61148</ele>
        <time>2023-09-02T15:31:40.000Z</time>
      </trkpt>
      <trkpt lat="45.83412" lon="4.71451">
        <ele>347.6434</ele>
        <time>2023-09-02T15:31:41.000Z</time>
      </trkpt>
      <trkpt lat="45.8341" lon="4.71448">
        <ele>347.55484</ele>
        <time>2023-09-02T15:31:42.000Z</time>
      </trkpt>
      <trkpt lat="45.83408" lon="4.71444">
        <ele>347.49527</ele>
        <time>2023-09-02T15:31:43.000Z</time>
      </trkpt>
      <trkpt lat="45.83406" lon="4.71441">
        <ele>347.4278</ele>
        <time>2023-09-02T15:31:44.000Z</time>
      </trkpt>
      <trkpt lat="45.83404" lon="4.71438">
        <ele>347.38031</ele>
        <time>2023-09-02T15:31:45.000Z</time>
      </trkpt>
      <trkpt lat="45.83402" lon="4.71434">
        <ele>347.29984</ele>
        <time>2023-09-02T15:31:46.000Z</time>
      </trkpt>
      <trkpt lat="45.834" lon="4.7143">
        <ele>347.31854</ele>
        <time>2023-09-02T15:31:47.000Z</time>
      </trkpt>
      <trkpt lat="45.83397" lon="4.71426">
        <ele>347.33746</ele>
        <time>2023-09-02T15:31:48.000Z</time>
      </trkpt>
      <trkpt lat="45.83395" lon="4.71423">
        <ele>347.38239</ele>
        <time>2023-09-02T15:31:49.000Z</time>
      </trkpt>
      <trkpt lat="45.83393" lon="4.71419">
        <ele>347.43427</ele>
        <time>2023-09-02T15:31:50.000Z</time>
      </trkpt>
      <trkpt lat="45.83391" lon="4.71416">
        <ele>347.49237</ele>
        <time>2023-09-02T15:31:51.000Z</time>
      </trkpt>
      <trkpt lat="45.83388" lon="4.71412">
        <ele>347.5943</ele>
        <time>2023-09-02T15:31:52.000Z</time>
      </trkpt>
      <trkpt lat="45.83386" lon="4.71408">
        <ele>347.66812</ele>
        <time>2023-09-02T15:31:53.000Z</time>
      </trkpt>
      <trkpt lat="45.83384" lon="4.71404">
        <ele>347.73309</ele>
        <time>2023-09-02T15:31:54.000Z</time>
      </trkpt>
      <trkpt lat="45.83381" lon="4.714">
        <ele>347.82916</ele>
        <time>2023-09-02T15:31:55.000Z</time>
      </trkpt>
      <trkpt lat="45.83379" lon="4.71397">
        <ele>347.93051</ele>
        <time>2023-09-02T15:31:56.000Z</time>
      </trkpt>
      <trkpt lat="45.83377" lon="4.71393">
        <ele>348.05597</ele>
        <time>2023-09-02T15:31:57.000Z</time>
      </trkpt>
      <trkpt lat="45.83375" lon="4.7139">
        <ele>348.16876</ele>
        <time>2023-09-02T15:31:58.000Z</time>
      </trkpt>
      <trkpt lat="45.83372" lon="4.71386">
        <ele>348.29071</ele>
        <time>2023-09-02T15:31:59.000Z</time>
      </trkpt>
      <trkpt lat="45.8337" lon="4.71382">
        <ele>348.38837</ele>
        <time>2023-09-02T15:32:00.000Z</time>
      </trkpt>
      <trkpt lat="45.83368" lon="4.71378">
        <ele>348.487</ele>
        <time>2023-09-02T15:32:01.000Z</time>
      </trkpt>
      <trkpt lat="45.83366" lon="4.71374">
        <ele>348.6814</ele>
        <time>2023-09-02T15:32:02.000Z</time>
      </trkpt>
      <trkpt lat="45.83365" lon="4.7137">
        <ele>348.84674</ele>
        <time>2023-09-02T15:32:03.000Z</time>
      </trkpt>
      <trkpt lat="45.83363" lon="4.71366">
        <ele>349.02301</ele>
        <time>2023-09-02T15:32:04.000Z</time>
      </trkpt>
      <trkpt lat="45.83361" lon="4.71363">
        <ele>349.16183</ele>
        <time>2023-09-02T15:32:05.000Z</time>
      </trkpt>
      <trkpt lat="45.83358" lon="4.7136">
        <ele>349.29987</ele>
        <time>2023-09-02T15:32:06.000Z</time>
      </trkpt>
      <trkpt lat="45.83356" lon="4.71356">
        <ele>349.40393</ele>
        <time>2023-09-02T15:32:07.000Z</time>
      </trkpt>
      <trkpt lat="45.83353" lon="4.71353">
        <ele>349.49496</ele>
        <time>2023-09-02T15:32:08.000Z</time>
      </trkpt>
      <trkpt lat="45.83351" lon="4.71349">
        <ele>349.56738</ele>
        <time>2023-09-02T15:32:09.000Z</time>
      </trkpt>
      <trkpt lat="45.83348" lon="4.71345">
        <ele>349.62167</ele>
        <time>2023-09-02T15:32:10.000Z</time>
      </trkpt>
      <trkpt lat="45.83346" lon="4.71341">
        <ele>349.66827</ele>
        <time>2023-09-02T15:32:11.000Z</time>
      </trkpt>
      <trkpt lat="45.83344" lon="4.71337">
        <ele>349.70245</ele>
        <time>2023-09-02T15:32:12.000Z</time>
      </trkpt>
      <trkpt lat="45.83342" lon="4.71333">
        <ele>349.75269</ele>
        <time>2023-09-02T15:32:13.000Z</time>
      </trkpt>
      <trkpt lat="45.83339" lon="4.7133">
        <ele>349.77597</ele>
        <time>2023-09-02T15:32:14.000Z</time>
      </trkpt>
      <trkpt lat="45.83337" lon="4.71326">
        <ele>349.8143</ele>
        <time>2023-09-02T15:32:15.000Z</time>
      </trkpt>
      <trkpt lat="45.83334" lon="4.71322">
        <ele>349.79218</ele>
        <time>2023-09-02T15:32:16.000Z</time>
      </trkpt>
      <trkpt lat="45.83332" lon="4.71319">
        <ele>349.78687</ele>
        <time>2023-09-02T15:32:17.000Z</time>
      </trkpt>
      <trkpt lat="45.8333" lon="4.71316">
        <ele>349.77853</ele>
        <time>2023-09-02T15:32:18.000Z</time>
      </trkpt>
      <trkpt lat="45.83327" lon="4.71312">
        <ele>349.76251</ele>
        <time>2023-09-02T15:32:19.000Z</time>
      </trkpt>
      <trkpt lat="45.83324" lon="4.71308">
        <ele>349.75116</ele>
        <time>2023-09-02T15:32:20.000Z</time>
      </trkpt>
      <trkpt lat="45.83322" lon="4.71304">
        <ele>349.74344</ele>
        <time>2023-09-02T15:32:21.000Z</time>
      </trkpt>
      <trkpt lat="45.83319" lon="4.713">
        <ele>349.73456</ele>
        <time>2023-09-02T15:32:22.000Z</time>
      </trkpt>
      <trkpt lat="45.83316" lon="4.71296">
        <ele>349.72696</ele>
        <time>2023-09-02T15:32:23.000Z</time>
      </trkpt>
      <trkpt lat="45.83313" lon="4.71292">
        <ele>349.75195</ele>
        <time>2023-09-02T15:32:24.000Z</time>
      </trkpt>
      <trkpt lat="45.83311" lon="4.71288">
        <ele>349.74945</ele>
        <time>2023-09-02T15:32:25.000Z</time>
      </trkpt>
      <trkpt lat="45.83309" lon="4.71283">
        <ele>349.74847</ele>
        <time>2023-09-02T15:32:26.000Z</time>
      </trkpt>
      <trkpt lat="45.83307" lon="4.71279">
        <ele>349.75958</ele>
        <time>2023-09-02T15:32:27.000Z</time>
      </trkpt>
      <trkpt lat="45.83305" lon="4.71274">
        <ele>349.76495</ele>
        <time>2023-09-02T15:32:28.000Z</time>
      </trkpt>
      <trkpt lat="45.83304" lon="4.71269">
        <ele>349.7616</ele>
        <time>2023-09-02T15:32:29.000Z</time>
      </trkpt>
      <trkpt lat="45.83302" lon="4.71264">
        <ele>349.80734</ele>
        <time>2023-09-02T15:32:30.000Z</time>
      </trkpt>
      <trkpt lat="45.83301" lon="4.71259">
        <ele>349.86124</ele>
        <time>2023-09-02T15:32:31.000Z</time>
      </trkpt>
      <trkpt lat="45.83299" lon="4.71254">
        <ele>349.90909</ele>
        <time>2023-09-02T15:32:32.000Z</time>
      </trkpt>
      <trkpt lat="45.83298" lon="4.71249">
        <ele>349.95065</ele>
        <time>2023-09-02T15:32:33.000Z</time>
      </trkpt>
      <trkpt lat="45.83296" lon="4.71244">
        <ele>350.02399</ele>
        <time>2023-09-02T15:32:34.000Z</time>
      </trkpt>
      <trkpt lat="45.83295" lon="4.71239">
        <ele>350.07086</ele>
        <time>2023-09-02T15:32:35.000Z</time>
      </trkpt>
      <trkpt lat="45.83294" lon="4.71234">
        <ele>350.19067</ele>
        <time>2023-09-02T15:32:36.000Z</time>
      </trkpt>
      <trkpt lat="45.83293" lon="4.71229">
        <ele>350.27142</ele>
        <time>2023-09-02T15:32:37.000Z</time>
      </trkpt>
      <trkpt lat="45.83291" lon="4.71223">
        <ele>350.332</ele>
        <time>2023-09-02T15:32:38.000Z</time>
      </trkpt>
      <trkpt lat="45.8329" lon="4.71218">
        <ele>350.39944</ele>
        <time>2023-09-02T15:32:39.000Z</time>
      </trkpt>
      <trkpt lat="45.83289" lon="4.71213">
        <ele>350.43903</ele>
        <time>2023-09-02T15:32:40.000Z</time>
      </trkpt>
      <trkpt lat="45.83289" lon="4.71207">
        <ele>350.44574</ele>
        <time>2023-09-02T15:32:41.000Z</time>
      </trkpt>
      <trkpt lat="45.83289" lon="4.71201">
        <ele>350.42896</ele>
        <time>2023-09-02T15:32:42.000Z</time>
      </trkpt>
      <trkpt lat="45.83288" lon="4.71196">
        <ele>350.40308</ele>
        <time>2023-09-02T15:32:43.000Z</time>
      </trkpt>
      <trkpt lat="45.83288" lon="4.7119">
        <ele>350.36761</ele>
        <time>2023-09-02T15:32:44.000Z</time>
      </trkpt>
      <trkpt lat="45.83287" lon="4.71185">
        <ele>350.38614</ele>
        <time>2023-09-02T15:32:45.000Z</time>
      </trkpt>
      <trkpt lat="45.83286" lon="4.7118">
        <ele>350.41022</ele>
        <time>2023-09-02T15:32:46.000Z</time>
      </trkpt>
      <trkpt lat="45.83286" lon="4.71175">
        <ele>350.43948</ele>
        <time>2023-09-02T15:32:47.000Z</time>
      </trkpt>
      <trkpt lat="45.83286" lon="4.7117">
        <ele>350.4892</ele>
        <time>2023-09-02T15:32:48.000Z</time>
      </trkpt>
      <trkpt lat="45.83286" lon="4.71164">
        <ele>350.53723</ele>
        <time>2023-09-02T15:32:49.000Z</time>
      </trkpt>
      <trkpt lat="45.83285" lon="4.71159">
        <ele>350.56769</ele>
        <time>2023-09-02T15:32:50.000Z</time>
      </trkpt>
      <trkpt lat="45.83285" lon="4.71153">
        <ele>350.5954</ele>
        <time>2023-09-02T15:32:51.000Z</time>
      </trkpt>
      <trkpt lat="45.83284" lon="4.71147">
        <ele>350.62402</ele>
        <time>2023-09-02T15:32:52.000Z</time>
      </trkpt>
      <trkpt lat="45.83284" lon="4.71142">
        <ele>350.65009</ele>
        <time>2023-09-02T15:32:53.000Z</time>
      </trkpt>
      <trkpt lat="45.83283" lon="4.71136">
        <ele>350.69556</ele>
        <time>2023-09-02T15:32:54.000Z</time>
      </trkpt>
      <trkpt lat="45.83283" lon="4.71131">
        <ele>350.77545</ele>
        <time>2023-09-02T15:32:55.000Z</time>
      </trkpt>
      <trkpt lat="45.83282" lon="4.71125">
        <ele>350.90576</ele>
        <time>2023-09-02T15:32:56.000Z</time>
      </trkpt>
      <trkpt lat="45.83282" lon="4.7112">
        <ele>351.05951</ele>
        <time>2023-09-02T15:32:57.000Z</time>
      </trkpt>
      <trkpt lat="45.83281" lon="4.71114">
        <ele>351.23358</ele>
        <time>2023-09-02T15:32:58.000Z</time>
      </trkpt>
      <trkpt lat="45.83281" lon="4.71108">
        <ele>351.40298</ele>
        <time>2023-09-02T15:32:59.000Z</time>
      </trkpt>
      <trkpt lat="45.83281" lon="4.71103">
        <ele>351.60507</ele>
        <time>2023-09-02T15:33:00.000Z</time>
      </trkpt>
      <trkpt lat="45.83281" lon="4.71097">
        <ele>351.83151</ele>
        <time>2023-09-02T15:33:01.000Z</time>
      </trkpt>
      <trkpt lat="45.83281" lon="4.71091">
        <ele>352.0657</ele>
        <time>2023-09-02T15:33:02.000Z</time>
      </trkpt>
      <trkpt lat="45.83282" lon="4.71085">
        <ele>352.3071</ele>
        <time>2023-09-02T15:33:03.000Z</time>
      </trkpt>
      <trkpt lat="45.83284" lon="4.7108">
        <ele>352.52118</ele>
        <time>2023-09-02T15:33:04.000Z</time>
      </trkpt>
      <trkpt lat="45.83286" lon="4.71074">
        <ele>352.73431</ele>
        <time>2023-09-02T15:33:05.000Z</time>
      </trkpt>
      <trkpt lat="45.83288" lon="4.71069">
        <ele>352.94327</ele>
        <time>2023-09-02T15:33:06.000Z</time>
      </trkpt>
      <trkpt lat="45.8329" lon="4.71063">
        <ele>353.14008</ele>
        <time>2023-09-02T15:33:07.000Z</time>
      </trkpt>
      <trkpt lat="45.83292" lon="4.71058">
        <ele>353.3374</ele>
        <time>2023-09-02T15:33:08.000Z</time>
      </trkpt>
      <trkpt lat="45.83294" lon="4.71052">
        <ele>353.53381</ele>
        <time>2023-09-02T15:33:09.000Z</time>
      </trkpt>
      <trkpt lat="45.83295" lon="4.71046">
        <ele>353.7782</ele>
        <time>2023-09-02T15:33:10.000Z</time>
      </trkpt>
      <trkpt lat="45.83297" lon="4.71041">
        <ele>354.01508</ele>
        <time>2023-09-02T15:33:11.000Z</time>
      </trkpt>
      <trkpt lat="45.83298" lon="4.71035">
        <ele>354.21405</ele>
        <time>2023-09-02T15:33:12.000Z</time>
      </trkpt>
      <trkpt lat="45.833" lon="4.7103">
        <ele>354.40958</ele>
        <time>2023-09-02T15:33:13.000Z</time>
      </trkpt>
      <trkpt lat="45.83302" lon="4.71024">
        <ele>354.58801</ele>
        <time>2023-09-02T15:33:14.000Z</time>
      </trkpt>
      <trkpt lat="45.83303" lon="4.71019">
        <ele>354.77292</ele>
        <time>2023-09-02T15:33:15.000Z</time>
      </trkpt>
      <trkpt lat="45.83305" lon="4.71013">
        <ele>354.89868</ele>
        <time>2023-09-02T15:33:16.000Z</time>
      </trkpt>
      <trkpt lat="45.83307" lon="4.71008">
        <ele>355.04349</ele>
        <time>2023-09-02T15:33:17.000Z</time>
      </trkpt>
      <trkpt lat="45.83309" lon="4.71002">
        <ele>355.17596</ele>
        <time>2023-09-02T15:33:18.000Z</time>
      </trkpt>
      <trkpt lat="45.8331" lon="4.70996">
        <ele>355.30057</ele>
        <time>2023-09-02T15:33:19.000Z</time>
      </trkpt>
      <trkpt lat="45.83311" lon="4.70991">
        <ele>355.43384</ele>
        <time>2023-09-02T15:33:20.000Z</time>
      </trkpt>
      <trkpt lat="45.83313" lon="4.70986">
        <ele>355.57791</ele>
        <time>2023-09-02T15:33:21.000Z</time>
      </trkpt>
      <trkpt lat="45.83314" lon="4.70982">
        <ele>355.73285</ele>
        <time>2023-09-02T15:33:22.000Z</time>
      </trkpt>
      <trkpt lat="45.83315" lon="4.70977">
        <ele>355.8746</ele>
        <time>2023-09-02T15:33:23.000Z</time>
      </trkpt>
      <trkpt lat="45.83317" lon="4.70973">
        <ele>356.00986</ele>
        <time>2023-09-02T15:33:24.000Z</time>
      </trkpt>
      <trkpt lat="45.83317" lon="4.70969">
        <ele>356.13818</ele>
        <time>2023-09-02T15:33:25.000Z</time>
      </trkpt>
      <trkpt lat="45.83318" lon="4.70965">
        <ele>356.27377</ele>
        <time>2023-09-02T15:33:26.000Z</time>
      </trkpt>
      <trkpt lat="45.83319" lon="4.70962">
        <ele>356.39658</ele>
        <time>2023-09-02T15:33:27.000Z</time>
      </trkpt>
      <trkpt lat="45.83319" lon="4.70959">
        <ele>356.50888</ele>
        <time>2023-09-02T15:33:28.000Z</time>
      </trkpt>
      <trkpt lat="45.83321" lon="4.70955">
        <ele>356.63727</ele>
        <time>2023-09-02T15:33:30.000Z</time>
      </trkpt>
    </trkseg>
  </trk>
</gpx>